<?xml version='1.0' encoding='UTF-8'?><gpx version="1.1" creator="JPX - https://github.com/jenetics/jpx" xmlns="http://www.topografix.com/GPX/1/1"><trk><trkseg><trkpt lat="42.56824389928595" lon="8.757927544183943"><ele>17.0</ele><time>2026-05-01T13:09:48Z</time></trkpt><trkpt lat="42.568289348892556" lon="8.757844208312862"><ele>17.0</ele><time>2026-05-01T13:09:50Z</time></trkpt><trkpt lat="42.568337941714454" lon="8.757729128740865"><ele>17.0</ele><time>2026-05-01T13:09:52Z</time></trkpt><trkpt lat="42.56839256208013" lon="8.757585651871114"><ele>17.0</ele><time>2026-05-01T13:09:54Z</time></trkpt><trkpt lat="42.568451472662545" lon="8.757440880079198"><ele>17.0</ele><time>2026-05-01T13:09:56Z</time></trkpt><trkpt lat="42.56850728128471" lon="8.757308406880043"><ele>18.0</ele><time>2026-05-01T13:09:58Z</time></trkpt><trkpt lat="42.56856668613278" lon="8.75719043750618"><ele>19.0</ele><time>2026-05-01T13:10:00Z</time></trkpt><trkpt lat="42.56862801837657" lon="8.757055212741415"><ele>20.0</ele><time>2026-05-01T13:10:02Z</time></trkpt><trkpt lat="42.568673509954245" lon="8.75695719577862"><ele>21.0</ele><time>2026-05-01T13:10:04Z</time></trkpt><trkpt lat="42.568736570479565" lon="8.756830407066326"><ele>22.0</ele><time>2026-05-01T13:10:06.001Z</time></trkpt><trkpt lat="42.56876862139434" lon="8.756753412894252"><ele>22.0</ele><time>2026-05-01T13:10:07.001Z</time></trkpt><trkpt lat="42.5687854710713" lon="8.756661571635998"><ele>22.0</ele><time>2026-05-01T13:10:08.001Z</time></trkpt><trkpt lat="42.56880067169304" lon="8.756562653034326"><ele>22.0</ele><time>2026-05-01T13:10:09.001Z</time></trkpt><trkpt lat="42.56880318539581" lon="8.756456233222822"><ele>22.0</ele><time>2026-05-01T13:10:10.001Z</time></trkpt><trkpt lat="42.5687970326333" lon="8.75635592859082"><ele>22.0</ele><time>2026-05-01T13:10:11.001Z</time></trkpt><trkpt lat="42.56877217627427" lon="8.7562057151366"><ele>22.0</ele><time>2026-05-01T13:10:13.001Z</time></trkpt><trkpt lat="42.568744362567365" lon="8.75604551499218"><ele>21.8</ele><time>2026-05-01T13:10:15.001Z</time></trkpt><trkpt lat="42.56871793775979" lon="8.755963950567308"><ele>21.6</ele><time>2026-05-01T13:10:16.001Z</time></trkpt><trkpt lat="42.568682497122296" lon="8.755885027181202"><ele>21.400000000000002</ele><time>2026-05-01T13:10:17.001Z</time></trkpt><trkpt lat="42.56861263624479" lon="8.755757758945254"><ele>21.200000000000003</ele><time>2026-05-01T13:10:19.001Z</time></trkpt><trkpt lat="42.568555737515325" lon="8.755612108544554"><ele>21.0</ele><time>2026-05-01T13:10:21.001Z</time></trkpt><trkpt lat="42.568512145103476" lon="8.755522232765598"><ele>22.0</ele><time>2026-05-01T13:10:22.001Z</time></trkpt><trkpt lat="42.56846004853466" lon="8.755414823835928"><ele>23.0</ele><time>2026-05-01T13:10:23.001Z</time></trkpt><trkpt lat="42.56840149955731" lon="8.755296290203733"><ele>24.0</ele><time>2026-05-01T13:10:24.001Z</time></trkpt><trkpt lat="42.56833500546837" lon="8.755162418246307"><ele>25.0</ele><time>2026-05-01T13:10:25.001Z</time></trkpt><trkpt lat="42.56826652962926" lon="8.755024556346276"><ele>26.0</ele><time>2026-05-01T13:10:26.001Z</time></trkpt><trkpt lat="42.56819878436803" lon="8.754888165329591"><ele>25.999999999999996</ele><time>2026-05-01T13:10:27.001Z</time></trkpt><trkpt lat="42.56813315162301" lon="8.754756279414412"><ele>26.0</ele><time>2026-05-01T13:10:28.001Z</time></trkpt><trkpt lat="42.568075812989726" lon="8.754641091513934"><ele>26.0</ele><time>2026-05-01T13:10:29.001Z</time></trkpt><trkpt lat="42.568027222163735" lon="8.754538378316541"><ele>26.0</ele><time>2026-05-01T13:10:29.997Z</time></trkpt><trkpt lat="42.56799039699327" lon="8.754459708867486"><ele>25.999999999999996</ele><time>2026-05-01T13:10:30.997Z</time></trkpt><trkpt lat="42.56795935578793" lon="8.754383674391676"><ele>26.0</ele><time>2026-05-01T13:10:31.997Z</time></trkpt><trkpt lat="42.56792713950744" lon="8.754270911196796"><ele>25.25</ele><time>2026-05-01T13:10:32.997Z</time></trkpt><trkpt lat="42.56792111416034" lon="8.754124565518676"><ele>24.5</ele><time>2026-05-01T13:10:33.997Z</time></trkpt><trkpt lat="42.56793260707575" lon="8.753959538911634"><ele>23.75</ele><time>2026-05-01T13:10:34.997Z</time></trkpt><trkpt lat="42.567975107141" lon="8.753804544943998"><ele>23.0</ele><time>2026-05-01T13:10:35.997Z</time></trkpt><trkpt lat="42.56803331750065" lon="8.75365755948534"><ele>23.0</ele><time>2026-05-01T13:10:36.997Z</time></trkpt><trkpt lat="42.56812448024442" lon="8.753568987371953"><ele>23.0</ele><time>2026-05-01T13:10:37.997Z</time></trkpt><trkpt lat="42.56818701242773" lon="8.753468906854154"><ele>23.0</ele><time>2026-05-01T13:10:38.997Z</time></trkpt><trkpt lat="42.5682670744784" lon="8.753377079621199"><ele>23.0</ele><time>2026-05-01T13:10:39.997Z</time></trkpt><trkpt lat="42.568350630990686" lon="8.75327005293927"><ele>23.0</ele><time>2026-05-01T13:10:40.997Z</time></trkpt><trkpt lat="42.5684173053425" lon="8.753136349234637"><ele>23.799999999999997</ele><time>2026-05-01T13:10:41.997Z</time></trkpt><trkpt lat="42.56844677893044" lon="8.752989346511422"><ele>24.6</ele><time>2026-05-01T13:10:42.997Z</time></trkpt><trkpt lat="42.56843863770502" lon="8.752846235999652"><ele>25.400000000000002</ele><time>2026-05-01T13:10:43.997Z</time></trkpt><trkpt lat="42.56842171340082" lon="8.752697705779193"><ele>26.200000000000003</ele><time>2026-05-01T13:10:44.997Z</time></trkpt><trkpt lat="42.56840973058483" lon="8.75254150384277"><ele>27.0</ele><time>2026-05-01T13:10:45.998Z</time></trkpt><trkpt lat="42.568400883101624" lon="8.752372430580461"><ele>29.0</ele><time>2026-05-01T13:10:46.998Z</time></trkpt><trkpt lat="42.568404943626184" lon="8.752199816857567"><ele>31.0</ele><time>2026-05-01T13:10:47.998Z</time></trkpt><trkpt lat="42.568405203607995" lon="8.752022602592005"><ele>33.0</ele><time>2026-05-01T13:10:48.998Z</time></trkpt><trkpt lat="42.56839610469286" lon="8.751837773150932"><ele>35.0</ele><time>2026-05-01T13:10:49.998Z</time></trkpt><trkpt lat="42.56838145792745" lon="8.75165230405347"><ele>35.5</ele><time>2026-05-01T13:10:50.998Z</time></trkpt><trkpt lat="42.568351143570176" lon="8.75145934052223"><ele>36.0</ele><time>2026-05-01T13:10:51.998Z</time></trkpt><trkpt lat="42.56830362461775" lon="8.75126954884633"><ele>36.5</ele><time>2026-05-01T13:10:52.998Z</time></trkpt><trkpt lat="42.568252985311524" lon="8.751080639730624"><ele>37.0</ele><time>2026-05-01T13:10:53.998Z</time></trkpt><trkpt lat="42.5682033382256" lon="8.750886234381696"><ele>35.25</ele><time>2026-05-01T13:10:54.998Z</time></trkpt><trkpt lat="42.56815807405999" lon="8.750700074948181"><ele>33.5</ele><time>2026-05-01T13:10:55.998Z</time></trkpt><trkpt lat="42.568113199785024" lon="8.75053761084791"><ele>31.75</ele><time>2026-05-01T13:10:56.998Z</time></trkpt><trkpt lat="42.56806173739888" lon="8.750409037430455"><ele>30.0</ele><time>2026-05-01T13:10:57.999Z</time></trkpt><trkpt lat="42.56799384790468" lon="8.750329466705724"><ele>30.0</ele><time>2026-05-01T13:10:58.999Z</time></trkpt><trkpt lat="42.567909953692904" lon="8.750284846133427"><ele>30.0</ele><time>2026-05-01T13:10:59.999Z</time></trkpt><trkpt lat="42.567811741349296" lon="8.750258825141575"><ele>30.0</ele><time>2026-05-01T13:11:00.999Z</time></trkpt><trkpt lat="42.567712381279186" lon="8.750196073162442"><ele>30.0</ele><time>2026-05-01T13:11:01.999Z</time></trkpt><trkpt lat="42.56760874621048" lon="8.750122152366329"><ele>30.0</ele><time>2026-05-01T13:11:02.999Z</time></trkpt><trkpt lat="42.567505198939664" lon="8.7500004489368"><ele>32.0</ele><time>2026-05-01T13:11:03.999Z</time></trkpt><trkpt lat="42.567395622394976" lon="8.749855569170663"><ele>34.0</ele><time>2026-05-01T13:11:04.999Z</time></trkpt><trkpt lat="42.56728348538751" lon="8.749708629273156"><ele>36.0</ele><time>2026-05-01T13:11:05.999Z</time></trkpt><trkpt lat="42.567171937051945" lon="8.749585121295661"><ele>36.0</ele><time>2026-05-01T13:11:06.999Z</time></trkpt><trkpt lat="42.56707371072699" lon="8.749470298183468"><ele>36.0</ele><time>2026-05-01T13:11:07.999Z</time></trkpt><trkpt lat="42.56697971247847" lon="8.749385873516445"><ele>36.0</ele><time>2026-05-01T13:11:08.999Z</time></trkpt><trkpt lat="42.566885531480516" lon="8.749336784474856"><ele>36.0</ele><time>2026-05-01T13:11:09.999Z</time></trkpt><trkpt lat="42.566781225647894" lon="8.749301855504644"><ele>37.25</ele><time>2026-05-01T13:11:10.999Z</time></trkpt><trkpt lat="42.566671716874154" lon="8.749251797452082"><ele>38.5</ele><time>2026-05-01T13:11:11.999Z</time></trkpt><trkpt lat="42.5665521086658" lon="8.749226062383414"><ele>39.75</ele><time>2026-05-01T13:11:12.999Z</time></trkpt><trkpt lat="42.56643160827499" lon="8.749193530288366"><ele>41.0</ele><time>2026-05-01T13:11:13.999Z</time></trkpt><trkpt lat="42.56631037139398" lon="8.74913803109381"><ele>41.0</ele><time>2026-05-01T13:11:14.999Z</time></trkpt><trkpt lat="42.56619947938933" lon="8.749051371065121"><ele>41.0</ele><time>2026-05-01T13:11:15.999Z</time></trkpt><trkpt lat="42.56612236637753" lon="8.748917978426142"><ele>41.0</ele><time>2026-05-01T13:11:16.999Z</time></trkpt><trkpt lat="42.56607835616799" lon="8.748771037513878"><ele>41.0</ele><time>2026-05-01T13:11:17.999Z</time></trkpt><trkpt lat="42.56603574844281" lon="8.748609202863785"><ele>41.75</ele><time>2026-05-01T13:11:18.999Z</time></trkpt><trkpt lat="42.565983657150205" lon="8.748443276950292"><ele>42.5</ele><time>2026-05-01T13:11:19.999Z</time></trkpt><trkpt lat="42.56594741640214" lon="8.74827256225844"><ele>43.25</ele><time>2026-05-01T13:11:20.999Z</time></trkpt><trkpt lat="42.565905494536516" lon="8.748099401763733"><ele>44.0</ele><time>2026-05-01T13:11:21.999Z</time></trkpt><trkpt lat="42.565859831355986" lon="8.747917790870249"><ele>44.0</ele><time>2026-05-01T13:11:23Z</time></trkpt><trkpt lat="42.56581329435057" lon="8.747736382723536"><ele>44.0</ele><time>2026-05-01T13:11:24Z</time></trkpt><trkpt lat="42.565770394623584" lon="8.747535144344383"><ele>44.0</ele><time>2026-05-01T13:11:25Z</time></trkpt><trkpt lat="42.56571511589236" lon="8.747339094990455"><ele>43.75</ele><time>2026-05-01T13:11:26Z</time></trkpt><trkpt lat="42.56566143960608" lon="8.747164514486288"><ele>43.5</ele><time>2026-05-01T13:11:27Z</time></trkpt><trkpt lat="42.565588416798995" lon="8.747016683974627"><ele>43.25</ele><time>2026-05-01T13:11:28Z</time></trkpt><trkpt lat="42.56550591609556" lon="8.746898336995445"><ele>43.0</ele><time>2026-05-01T13:11:29Z</time></trkpt><trkpt lat="42.565420955821715" lon="8.746797478018884"><ele>44.25</ele><time>2026-05-01T13:11:30Z</time></trkpt><trkpt lat="42.56533689203696" lon="8.746691337772"><ele>45.5</ele><time>2026-05-01T13:11:31Z</time></trkpt><trkpt lat="42.56526441998713" lon="8.746565663803286"><ele>46.75</ele><time>2026-05-01T13:11:32Z</time></trkpt><trkpt lat="42.56516182493149" lon="8.746483105983689"><ele>48.0</ele><time>2026-05-01T13:11:33Z</time></trkpt><trkpt lat="42.56507192228556" lon="8.74641029751573"><ele>48.0</ele><time>2026-05-01T13:11:34Z</time></trkpt><trkpt lat="42.56498928554492" lon="8.746355536377578"><ele>48.0</ele><time>2026-05-01T13:11:35Z</time></trkpt><trkpt lat="42.564921042483036" lon="8.746288565260203"><ele>48.0</ele><time>2026-05-01T13:11:36Z</time></trkpt><trkpt lat="42.56486068055391" lon="8.746245260111433"><ele>48.0</ele><time>2026-05-01T13:11:37Z</time></trkpt><trkpt lat="42.56475899598413" lon="8.74615703179894"><ele>48.0</ele><time>2026-05-01T13:11:39Z</time></trkpt><trkpt lat="42.56470750594403" lon="8.74610673398127"><ele>48.0</ele><time>2026-05-01T13:11:40Z</time></trkpt><trkpt lat="42.564650325013794" lon="8.746049284098552"><ele>47.0</ele><time>2026-05-01T13:11:41Z</time></trkpt><trkpt lat="42.564582464344184" lon="8.745978534275267"><ele>46.0</ele><time>2026-05-01T13:11:42Z</time></trkpt><trkpt lat="42.56450107559864" lon="8.745902663025536"><ele>45.0</ele><time>2026-05-01T13:11:43Z</time></trkpt><trkpt lat="42.564426792581024" lon="8.745785455306118"><ele>44.0</ele><time>2026-05-01T13:11:44Z</time></trkpt><trkpt lat="42.56434791665143" lon="8.745656468635556"><ele>43.0</ele><time>2026-05-01T13:11:45Z</time></trkpt><trkpt lat="42.56428063672091" lon="8.745508381420766"><ele>45.0</ele><time>2026-05-01T13:11:46Z</time></trkpt><trkpt lat="42.56426106358518" lon="8.745327096071104"><ele>47.0</ele><time>2026-05-01T13:11:47Z</time></trkpt><trkpt lat="42.56426087917088" lon="8.74512872376011"><ele>49.0</ele><time>2026-05-01T13:11:48Z</time></trkpt><trkpt lat="42.564270447280066" lon="8.744916482037713"><ele>51.0</ele><time>2026-05-01T13:11:49Z</time></trkpt><trkpt lat="42.564258928157" lon="8.74467636142103"><ele>51.0</ele><time>2026-05-01T13:11:50Z</time></trkpt><trkpt lat="42.56422941333411" lon="8.744418776844636"><ele>51.0</ele><time>2026-05-01T13:11:51Z</time></trkpt><trkpt lat="42.564180311377605" lon="8.744161519201041"><ele>51.0</ele><time>2026-05-01T13:11:52Z</time></trkpt><trkpt lat="42.564119832798376" lon="8.743923078623453"><ele>50.66666666666667</ele><time>2026-05-01T13:11:53Z</time></trkpt><trkpt lat="42.564064277975326" lon="8.743690538944467"><ele>50.333333333333336</ele><time>2026-05-01T13:11:54Z</time></trkpt><trkpt lat="42.56401967281686" lon="8.7434589108382"><ele>50.0</ele><time>2026-05-01T13:11:55Z</time></trkpt><trkpt lat="42.56399197257799" lon="8.743221334283506"><ele>49.333333333333336</ele><time>2026-05-01T13:11:56Z</time></trkpt><trkpt lat="42.56393338608631" lon="8.742988400153658"><ele>48.66666666666667</ele><time>2026-05-01T13:11:57Z</time></trkpt><trkpt lat="42.563894508743104" lon="8.742763394072432"><ele>48.0</ele><time>2026-05-01T13:11:58Z</time></trkpt><trkpt lat="42.563851337414114" lon="8.74256666751403"><ele>47.25</ele><time>2026-05-01T13:11:59Z</time></trkpt><trkpt lat="42.56380587507515" lon="8.74239033651222"><ele>46.5</ele><time>2026-05-01T13:12:00Z</time></trkpt><trkpt lat="42.5637473606857" lon="8.742220846813003"><ele>45.75</ele><time>2026-05-01T13:12:01Z</time></trkpt><trkpt lat="42.56368666638071" lon="8.742063855178973"><ele>45.0</ele><time>2026-05-01T13:12:02Z</time></trkpt><trkpt lat="42.56362143757322" lon="8.741913069338487"><ele>47.6</ele><time>2026-05-01T13:12:03.001Z</time></trkpt><trkpt lat="42.5635576287308" lon="8.741774832321717"><ele>50.2</ele><time>2026-05-01T13:12:04.001Z</time></trkpt><trkpt lat="42.56348886695757" lon="8.741663444172708"><ele>52.8</ele><time>2026-05-01T13:12:05.001Z</time></trkpt><trkpt lat="42.56341368714519" lon="8.741577655730932"><ele>55.4</ele><time>2026-05-01T13:12:06.001Z</time></trkpt><trkpt lat="42.56333813225288" lon="8.741496468518017"><ele>58.0</ele><time>2026-05-01T13:12:07.001Z</time></trkpt><trkpt lat="42.56326982813765" lon="8.741376455633867"><ele>58.0</ele><time>2026-05-01T13:12:08.001Z</time></trkpt><trkpt lat="42.563200910848465" lon="8.74125367339327"><ele>58.0</ele><time>2026-05-01T13:12:09.001Z</time></trkpt><trkpt lat="42.56314560973864" lon="8.741109325245182"><ele>58.0</ele><time>2026-05-01T13:12:10.001Z</time></trkpt><trkpt lat="42.56309415554399" lon="8.740946710507476"><ele>58.0</ele><time>2026-05-01T13:12:11.001Z</time></trkpt><trkpt lat="42.56306291977613" lon="8.740774898930752"><ele>56.0</ele><time>2026-05-01T13:12:12.001Z</time></trkpt><trkpt lat="42.56303113310656" lon="8.740602988328913"><ele>54.0</ele><time>2026-05-01T13:12:13.001Z</time></trkpt><trkpt lat="42.562999120373355" lon="8.740425635249467"><ele>52.0</ele><time>2026-05-01T13:12:14.001Z</time></trkpt><trkpt lat="42.562946069082955" lon="8.740254487289556"><ele>50.0</ele><time>2026-05-01T13:12:15.001Z</time></trkpt><trkpt lat="42.56286095034342" lon="8.740111624715365"><ele>54.5</ele><time>2026-05-01T13:12:16.001Z</time></trkpt><trkpt lat="42.56277609562142" lon="8.739974049602013"><ele>59.0</ele><time>2026-05-01T13:12:17.001Z</time></trkpt><trkpt lat="42.56271933866591" lon="8.73980837131169"><ele>63.5</ele><time>2026-05-01T13:12:18.001Z</time></trkpt><trkpt lat="42.562715748152414" lon="8.739617152011082"><ele>68.0</ele><time>2026-05-01T13:12:19.001Z</time></trkpt><trkpt lat="42.56269555881086" lon="8.739421154460338"><ele>69.0</ele><time>2026-05-01T13:12:20.001Z</time></trkpt><trkpt lat="42.56269966255152" lon="8.739208936912181"><ele>70.0</ele><time>2026-05-01T13:12:21.001Z</time></trkpt><trkpt lat="42.56271395579905" lon="8.738981674045881"><ele>71.0</ele><time>2026-05-01T13:12:22.001Z</time></trkpt><trkpt lat="42.56273428541908" lon="8.738743559000284"><ele>70.66666666666667</ele><time>2026-05-01T13:12:23.001Z</time></trkpt><trkpt lat="42.56274239822608" lon="8.738506573630664"><ele>70.33333333333333</ele><time>2026-05-01T13:12:24.001Z</time></trkpt><trkpt lat="42.562737782310116" lon="8.73829461481864"><ele>70.0</ele><time>2026-05-01T13:12:25.001Z</time></trkpt><trkpt lat="42.56272293436346" lon="8.738105872441977"><ele>70.0</ele><time>2026-05-01T13:12:26.001Z</time></trkpt><trkpt lat="42.562697015680186" lon="8.737933284889863"><ele>70.0</ele><time>2026-05-01T13:12:27.001Z</time></trkpt><trkpt lat="42.562657090992644" lon="8.737767199167761"><ele>70.0</ele><time>2026-05-01T13:12:28.001Z</time></trkpt><trkpt lat="42.56261268733623" lon="8.737602161285169"><ele>70.0</ele><time>2026-05-01T13:12:29.001Z</time></trkpt><trkpt lat="42.56256711132187" lon="8.73744625851712"><ele>68.75</ele><time>2026-05-01T13:12:30.001Z</time></trkpt><trkpt lat="42.56251970173956" lon="8.73729600142264"><ele>67.5</ele><time>2026-05-01T13:12:31.001Z</time></trkpt><trkpt lat="42.56246042811321" lon="8.737146070762357"><ele>66.25</ele><time>2026-05-01T13:12:32.001Z</time></trkpt><trkpt lat="42.5623933746013" lon="8.736978091654693"><ele>65.0</ele><time>2026-05-01T13:12:33.001Z</time></trkpt><trkpt lat="42.56228316143084" lon="8.736831519377267"><ele>63.0</ele><time>2026-05-01T13:12:34.001Z</time></trkpt><trkpt lat="42.562204017109195" lon="8.736640783027603"><ele>61.0</ele><time>2026-05-01T13:12:35.001Z</time></trkpt><trkpt lat="42.56218022688255" lon="8.736413882208108"><ele>59.0</ele><time>2026-05-01T13:12:35.997Z</time></trkpt><trkpt lat="42.562128958340736" lon="8.736179950211191"><ele>65.0</ele><time>2026-05-01T13:12:36.997Z</time></trkpt><trkpt lat="42.562017321291734" lon="8.735990281145058"><ele>71.0</ele><time>2026-05-01T13:12:37.997Z</time></trkpt><trkpt lat="42.561915241087156" lon="8.735810402037183"><ele>77.0</ele><time>2026-05-01T13:12:38.997Z</time></trkpt><trkpt lat="42.561898088228254" lon="8.735607308204782"><ele>77.0</ele><time>2026-05-01T13:12:39.997Z</time></trkpt><trkpt lat="42.561903650124144" lon="8.735416826501524"><ele>77.0</ele><time>2026-05-01T13:12:40.997Z</time></trkpt><trkpt lat="42.56189206864507" lon="8.73524020180529"><ele>77.0</ele><time>2026-05-01T13:12:41.997Z</time></trkpt><trkpt lat="42.56185768486085" lon="8.735053524669514"><ele>77.0</ele><time>2026-05-01T13:12:42.997Z</time></trkpt><trkpt lat="42.56179091671895" lon="8.734882980445652"><ele>76.33333333333334</ele><time>2026-05-01T13:12:43.997Z</time></trkpt><trkpt lat="42.56170952871088" lon="8.734712603523954"><ele>75.66666666666667</ele><time>2026-05-01T13:12:44.997Z</time></trkpt><trkpt lat="42.5615872712174" lon="8.734582366178598"><ele>75.0</ele><time>2026-05-01T13:12:45.997Z</time></trkpt><trkpt lat="42.56144400377078" lon="8.734508298039176"><ele>72.0</ele><time>2026-05-01T13:12:46.998Z</time></trkpt><trkpt lat="42.56133204704873" lon="8.734374313505551"><ele>69.0</ele><time>2026-05-01T13:12:47.998Z</time></trkpt><trkpt lat="42.56124257163253" lon="8.73423079043016"><ele>66.0</ele><time>2026-05-01T13:12:48.998Z</time></trkpt><trkpt lat="42.56119000478902" lon="8.734045327315084"><ele>63.0</ele><time>2026-05-01T13:12:49.998Z</time></trkpt><trkpt lat="42.56114922706367" lon="8.733840341152662"><ele>72.0</ele><time>2026-05-01T13:12:50.998Z</time></trkpt><trkpt lat="42.561089002903515" lon="8.73363097832941"><ele>81.0</ele><time>2026-05-01T13:12:51.998Z</time></trkpt><trkpt lat="42.561040433964195" lon="8.733409867503305"><ele>90.0</ele><time>2026-05-01T13:12:52.998Z</time></trkpt><trkpt lat="42.560987636609674" lon="8.733170364649618"><ele>90.0</ele><time>2026-05-01T13:12:53.998Z</time></trkpt><trkpt lat="42.56093641280672" lon="8.73294838040352"><ele>90.0</ele><time>2026-05-01T13:12:54.998Z</time></trkpt><trkpt lat="42.560891233323034" lon="8.732748999289942"><ele>90.0</ele><time>2026-05-01T13:12:55.998Z</time></trkpt><trkpt lat="42.56079359328677" lon="8.73258269324432"><ele>86.0</ele><time>2026-05-01T13:12:56.998Z</time></trkpt><trkpt lat="42.56069082950723" lon="8.732431627272485"><ele>82.0</ele><time>2026-05-01T13:12:57.999Z</time></trkpt><trkpt lat="42.56059280022556" lon="8.732260851505632"><ele>78.0</ele><time>2026-05-01T13:12:58.999Z</time></trkpt><trkpt lat="42.56046909089986" lon="8.732106901425281"><ele>81.33333333333333</ele><time>2026-05-01T13:12:59.999Z</time></trkpt><trkpt lat="42.56035819603847" lon="8.731931243457414"><ele>84.66666666666666</ele><time>2026-05-01T13:13:00.999Z</time></trkpt><trkpt lat="42.56027332297368" lon="8.731741225974492"><ele>88.0</ele><time>2026-05-01T13:13:01.999Z</time></trkpt><trkpt lat="42.56019129553151" lon="8.731573249890948"><ele>88.0</ele><time>2026-05-01T13:13:02.999Z</time></trkpt><trkpt lat="42.56010069328335" lon="8.731426401250596"><ele>88.0</ele><time>2026-05-01T13:13:03.999Z</time></trkpt><trkpt lat="42.56003159768206" lon="8.731274582281284"><ele>88.0</ele><time>2026-05-01T13:13:04.999Z</time></trkpt><trkpt lat="42.55996196064057" lon="8.731126643892317"><ele>88.0</ele><time>2026-05-01T13:13:05.999Z</time></trkpt><trkpt lat="42.55989133290557" lon="8.73101190208103"><ele>88.75</ele><time>2026-05-01T13:13:06.999Z</time></trkpt><trkpt lat="42.55983744032873" lon="8.730897325467359"><ele>89.5</ele><time>2026-05-01T13:13:07.999Z</time></trkpt><trkpt lat="42.559743010078066" lon="8.730833159628133"><ele>90.25</ele><time>2026-05-01T13:13:08.999Z</time></trkpt><trkpt lat="42.55962332929079" lon="8.730865871551048"><ele>91.0</ele><time>2026-05-01T13:13:09.999Z</time></trkpt><trkpt lat="42.55950069671454" lon="8.73084877472448"><ele>91.0</ele><time>2026-05-01T13:13:10.999Z</time></trkpt><trkpt lat="42.55938038548009" lon="8.73083533886143"><ele>91.0</ele><time>2026-05-01T13:13:11.999Z</time></trkpt><trkpt lat="42.55926569241598" lon="8.730766620281752"><ele>91.0</ele><time>2026-05-01T13:13:12.999Z</time></trkpt><trkpt lat="42.55914927174297" lon="8.730661572167852"><ele>91.0</ele><time>2026-05-01T13:13:13.999Z</time></trkpt><trkpt lat="42.559032993660935" lon="8.730535189563145"><ele>91.0</ele><time>2026-05-01T13:13:14.999Z</time></trkpt><trkpt lat="42.558895768340406" lon="8.730417573784331"><ele>91.0</ele><time>2026-05-01T13:13:16Z</time></trkpt><trkpt lat="42.55876789273094" lon="8.730284791139638"><ele>91.0</ele><time>2026-05-01T13:13:17Z</time></trkpt><trkpt lat="42.55863829003013" lon="8.730159574834918"><ele>93.25</ele><time>2026-05-01T13:13:18Z</time></trkpt><trkpt lat="42.558537670668194" lon="8.730026629329654"><ele>95.5</ele><time>2026-05-01T13:13:19Z</time></trkpt><trkpt lat="42.55842407366781" lon="8.72994126974886"><ele>97.75</ele><time>2026-05-01T13:13:20Z</time></trkpt><trkpt lat="42.55833452292738" lon="8.729809004663549"><ele>100.0</ele><time>2026-05-01T13:13:21Z</time></trkpt><trkpt lat="42.55826712169655" lon="8.729644903397586"><ele>100.0</ele><time>2026-05-01T13:13:22Z</time></trkpt><trkpt lat="42.55821558609368" lon="8.729448613342415"><ele>100.0</ele><time>2026-05-01T13:13:23Z</time></trkpt><trkpt lat="42.55816719912035" lon="8.729268456260318"><ele>100.0</ele><time>2026-05-01T13:13:24Z</time></trkpt><trkpt lat="42.55811324310071" lon="8.729112531534602"><ele>100.0</ele><time>2026-05-01T13:13:25Z</time></trkpt><trkpt lat="42.55804171745799" lon="8.728987710066406"><ele>101.75</ele><time>2026-05-01T13:13:26Z</time></trkpt><trkpt lat="42.55794924557815" lon="8.728885560459592"><ele>103.5</ele><time>2026-05-01T13:13:27Z</time></trkpt><trkpt lat="42.557846095369925" lon="8.728788889536961"><ele>105.25</ele><time>2026-05-01T13:13:28Z</time></trkpt><trkpt lat="42.55775271243461" lon="8.72869499859043"><ele>107.0</ele><time>2026-05-01T13:13:29Z</time></trkpt><trkpt lat="42.55768217408145" lon="8.728592877438881"><ele>103.8</ele><time>2026-05-01T13:13:30Z</time></trkpt><trkpt lat="42.55760439072877" lon="8.728511010590543"><ele>100.6</ele><time>2026-05-01T13:13:31Z</time></trkpt><trkpt lat="42.557524852475964" lon="8.728434868761449"><ele>97.39999999999999</ele><time>2026-05-01T13:13:32Z</time></trkpt><trkpt lat="42.557419290673515" lon="8.728383244628787"><ele>94.19999999999999</ele><time>2026-05-01T13:13:33Z</time></trkpt><trkpt lat="42.55729198366683" lon="8.728363423434534"><ele>91.0</ele><time>2026-05-01T13:13:34Z</time></trkpt><trkpt lat="42.55715949618344" lon="8.728351099847718"><ele>94.5</ele><time>2026-05-01T13:13:35Z</time></trkpt><trkpt lat="42.55702104483626" lon="8.72834075252167"><ele>98.0</ele><time>2026-05-01T13:13:36Z</time></trkpt><trkpt lat="42.55690814567874" lon="8.728263428127917"><ele>101.5</ele><time>2026-05-01T13:13:37Z</time></trkpt><trkpt lat="42.556840272514854" lon="8.728138747534958"><ele>105.0</ele><time>2026-05-01T13:13:38Z</time></trkpt><trkpt lat="42.55683564047156" lon="8.72798199614733"><ele>105.0</ele><time>2026-05-01T13:13:39Z</time></trkpt><trkpt lat="42.55679848980742" lon="8.72782576223956"><ele>105.0</ele><time>2026-05-01T13:13:40Z</time></trkpt><trkpt lat="42.55675485644945" lon="8.7276698289063"><ele>105.0</ele><time>2026-05-01T13:13:41Z</time></trkpt><trkpt lat="42.55667553041421" lon="8.727523161675748"><ele>105.0</ele><time>2026-05-01T13:13:42.001Z</time></trkpt><trkpt lat="42.556584902426366" lon="8.727375012871924"><ele>102.66666666666666</ele><time>2026-05-01T13:13:43.001Z</time></trkpt><trkpt lat="42.556501140510456" lon="8.727215972383682"><ele>100.33333333333333</ele><time>2026-05-01T13:13:44.001Z</time></trkpt><trkpt lat="42.556368316940805" lon="8.727104670286462"><ele>98.0</ele><time>2026-05-01T13:13:45.001Z</time></trkpt><trkpt lat="42.55623315899623" lon="8.727011139061903"><ele>99.60000000000001</ele><time>2026-05-01T13:13:46.001Z</time></trkpt><trkpt lat="42.55611599410574" lon="8.726928122504411"><ele>101.2</ele><time>2026-05-01T13:13:47.001Z</time></trkpt><trkpt lat="42.55601439101551" lon="8.726852544689978"><ele>102.8</ele><time>2026-05-01T13:13:48.001Z</time></trkpt><trkpt lat="42.555927250589825" lon="8.726789599496474"><ele>104.4</ele><time>2026-05-01T13:13:49.001Z</time></trkpt><trkpt lat="42.55586097407829" lon="8.726742524567657"><ele>106.0</ele><time>2026-05-01T13:13:50.001Z</time></trkpt><trkpt lat="42.55577011217831" lon="8.726648326150212"><ele>106.00000000000001</ele><time>2026-05-01T13:13:52.001Z</time></trkpt><trkpt lat="42.5557779015706" lon="8.726499392676539"><ele>106.0</ele><time>2026-05-01T13:13:54.001Z</time></trkpt><trkpt lat="42.555853002219386" lon="8.726363809297045"><ele>106.0</ele><time>2026-05-01T13:13:56.001Z</time></trkpt><trkpt lat="42.555911362220556" lon="8.726322866984537"><ele>106.0</ele><time>2026-05-01T13:13:57.001Z</time></trkpt><trkpt lat="42.55597616202972" lon="8.726292609660995"><ele>106.00000000000001</ele><time>2026-05-01T13:13:58.001Z</time></trkpt><trkpt lat="42.55604395657564" lon="8.726241840619839"><ele>106.0</ele><time>2026-05-01T13:13:59.001Z</time></trkpt><trkpt lat="42.556105743655294" lon="8.726153096387565"><ele>106.19999999999999</ele><time>2026-05-01T13:14:00.001Z</time></trkpt><trkpt lat="42.55616434092625" lon="8.726053868759061"><ele>106.39999999999999</ele><time>2026-05-01T13:14:01.001Z</time></trkpt><trkpt lat="42.55617451682375" lon="8.72591177439648"><ele>106.6</ele><time>2026-05-01T13:14:02.001Z</time></trkpt><trkpt lat="42.5561404411821" lon="8.725780823582065"><ele>106.8</ele><time>2026-05-01T13:14:03.001Z</time></trkpt><trkpt lat="42.55609881774419" lon="8.72564513745592"><ele>107.0</ele><time>2026-05-01T13:14:04.001Z</time></trkpt><trkpt lat="42.55603679968348" lon="8.725510987476552"><ele>107.0</ele><time>2026-05-01T13:14:05.001Z</time></trkpt><trkpt lat="42.555962318737414" lon="8.725370553378815"><ele>107.0</ele><time>2026-05-01T13:14:06.001Z</time></trkpt><trkpt lat="42.55590077625401" lon="8.725209883360337"><ele>107.0</ele><time>2026-05-01T13:14:07.001Z</time></trkpt><trkpt lat="42.55582616563882" lon="8.72506839585539"><ele>107.0</ele><time>2026-05-01T13:14:08.001Z</time></trkpt><trkpt lat="42.555754221196175" lon="8.724931964367265"><ele>105.6</ele><time>2026-05-01T13:14:09.001Z</time></trkpt><trkpt lat="42.55567737994281" lon="8.724820749101918"><ele>104.19999999999999</ele><time>2026-05-01T13:14:10.001Z</time></trkpt><trkpt lat="42.55562680132802" lon="8.72470992700407"><ele>102.8</ele><time>2026-05-01T13:14:11.001Z</time></trkpt><trkpt lat="42.55553309322088" lon="8.724679632590858"><ele>101.4</ele><time>2026-05-01T13:14:12.001Z</time></trkpt><trkpt lat="42.5554323702414" lon="8.724614703194069"><ele>100.0</ele><time>2026-05-01T13:14:13.001Z</time></trkpt><trkpt lat="42.55531477007828" lon="8.724558646849154"><ele>103.0</ele><time>2026-05-01T13:14:14.001Z</time></trkpt><trkpt lat="42.5551935041967" lon="8.72450084313424"><ele>106.0</ele><time>2026-05-01T13:14:15.002Z</time></trkpt><trkpt lat="42.55508256319372" lon="8.724446581387179"><ele>109.0</ele><time>2026-05-01T13:14:16.002Z</time></trkpt><trkpt lat="42.55498160836534" lon="8.724396978380787"><ele>112.0</ele><time>2026-05-01T13:14:17.002Z</time></trkpt><trkpt lat="42.55489160600504" lon="8.724354216090314"><ele>115.0</ele><time>2026-05-01T13:14:18.002Z</time></trkpt><trkpt lat="42.55479011569541" lon="8.724310961141226"><ele>111.0</ele><time>2026-05-01T13:14:19.002Z</time></trkpt><trkpt lat="42.554671625694844" lon="8.724274440926509"><ele>107.0</ele><time>2026-05-01T13:14:20.002Z</time></trkpt><trkpt lat="42.55455039188826" lon="8.724255638852485"><ele>103.0</ele><time>2026-05-01T13:14:21.002Z</time></trkpt><trkpt lat="42.55443100290994" lon="8.72423523355275"><ele>99.0</ele><time>2026-05-01T13:14:22.002Z</time></trkpt><trkpt lat="42.55432179562203" lon="8.724220073702384"><ele>99.0</ele><time>2026-05-01T13:14:23.002Z</time></trkpt><trkpt lat="42.5542104016835" lon="8.724211073930158"><ele>99.0</ele><time>2026-05-01T13:14:24.002Z</time></trkpt><trkpt lat="42.55409667655926" lon="8.724227389861944"><ele>99.0</ele><time>2026-05-01T13:14:25.002Z</time></trkpt><trkpt lat="42.553992048980994" lon="8.724224548212444"><ele>99.0</ele><time>2026-05-01T13:14:26.002Z</time></trkpt><trkpt lat="42.55390771437778" lon="8.724174652775066"><ele>99.0</ele><time>2026-05-01T13:14:27.002Z</time></trkpt><trkpt lat="42.55384992168009" lon="8.724085583285358"><ele>99.0</ele><time>2026-05-01T13:14:28.002Z</time></trkpt><trkpt lat="42.553789411479144" lon="8.724006215524389"><ele>99.0</ele><time>2026-05-01T13:14:29.002Z</time></trkpt><trkpt lat="42.55371042744181" lon="8.723955346553115"><ele>99.0</ele><time>2026-05-01T13:14:30.002Z</time></trkpt><trkpt lat="42.553590371743574" lon="8.723961508486386"><ele>99.0</ele><time>2026-05-01T13:14:31.002Z</time></trkpt><trkpt lat="42.55345416207467" lon="8.72392304080869"><ele>99.0</ele><time>2026-05-01T13:14:32.002Z</time></trkpt><trkpt lat="42.55331963612633" lon="8.723904058630636"><ele>101.33333333333333</ele><time>2026-05-01T13:14:33.002Z</time></trkpt><trkpt lat="42.55320558942127" lon="8.723887866777849"><ele>103.66666666666666</ele><time>2026-05-01T13:14:34.002Z</time></trkpt><trkpt lat="42.553110231920634" lon="8.723873150995114"><ele>106.0</ele><time>2026-05-01T13:14:35.002Z</time></trkpt><trkpt lat="42.55303637621344" lon="8.723840067699086"><ele>108.33333333333333</ele><time>2026-05-01T13:14:36.002Z</time></trkpt><trkpt lat="42.55296752492428" lon="8.723791523738042"><ele>110.66666666666666</ele><time>2026-05-01T13:14:37.002Z</time></trkpt><trkpt lat="42.552915308456285" lon="8.72373240273037"><ele>113.0</ele><time>2026-05-01T13:14:38.002Z</time></trkpt><trkpt lat="42.55287697822786" lon="8.72365925656966"><ele>114.2</ele><time>2026-05-01T13:14:39.002Z</time></trkpt><trkpt lat="42.552879787481615" lon="8.7235439523249"><ele>115.4</ele><time>2026-05-01T13:14:40.002Z</time></trkpt><trkpt lat="42.55290827472405" lon="8.723418144722556"><ele>116.60000000000001</ele><time>2026-05-01T13:14:41.002Z</time></trkpt><trkpt lat="42.55292401730627" lon="8.723293316473422"><ele>117.80000000000001</ele><time>2026-05-01T13:14:41.998Z</time></trkpt><trkpt lat="42.55288743647387" lon="8.723174644994211"><ele>119.0</ele><time>2026-05-01T13:14:42.998Z</time></trkpt><trkpt lat="42.5528086483308" lon="8.72307911420585"><ele>119.0</ele><time>2026-05-01T13:14:43.999Z</time></trkpt><trkpt lat="42.552718063347285" lon="8.722995054429317"><ele>119.0</ele><time>2026-05-01T13:14:44.999Z</time></trkpt><trkpt lat="42.55263975145576" lon="8.72288276881479"><ele>119.0</ele><time>2026-05-01T13:14:45.999Z</time></trkpt><trkpt lat="42.552552660507565" lon="8.722771915253505"><ele>119.0</ele><time>2026-05-01T13:14:46.999Z</time></trkpt><trkpt lat="42.552475365121644" lon="8.72264297566795"><ele>113.75</ele><time>2026-05-01T13:14:47.999Z</time></trkpt><trkpt lat="42.55240962232237" lon="8.722489120769012"><ele>108.5</ele><time>2026-05-01T13:14:48.999Z</time></trkpt><trkpt lat="42.55233040235684" lon="8.72233833505769"><ele>103.25</ele><time>2026-05-01T13:14:49.999Z</time></trkpt><trkpt lat="42.552263676209876" lon="8.72219502785549"><ele>98.0</ele><time>2026-05-01T13:14:50.999Z</time></trkpt><trkpt lat="42.55219226495074" lon="8.722088901336988"><ele>98.0</ele><time>2026-05-01T13:14:51.999Z</time></trkpt><trkpt lat="42.5521057700128" lon="8.722007475624254"><ele>98.0</ele><time>2026-05-01T13:14:52.999Z</time></trkpt><trkpt lat="42.551999482162465" lon="8.72193979872937"><ele>98.0</ele><time>2026-05-01T13:14:53.999Z</time></trkpt><trkpt lat="42.55189779682346" lon="8.721849341649936"><ele>98.0</ele><time>2026-05-01T13:14:54.999Z</time></trkpt><trkpt lat="42.551784097317096" lon="8.721769972125054"><ele>100.25</ele><time>2026-05-01T13:14:55.999Z</time></trkpt><trkpt lat="42.55167598986217" lon="8.721685010885475"><ele>102.5</ele><time>2026-05-01T13:14:56.999Z</time></trkpt><trkpt lat="42.551577900218334" lon="8.721574992846142"><ele>104.75</ele><time>2026-05-01T13:14:57.999Z</time></trkpt><trkpt lat="42.551499839963675" lon="8.721435885829067"><ele>107.0</ele><time>2026-05-01T13:14:59Z</time></trkpt><trkpt lat="42.55142603829902" lon="8.721283157258501"><ele>107.0</ele><time>2026-05-01T13:15:00Z</time></trkpt><trkpt lat="42.551349961018204" lon="8.721125337419052"><ele>107.0</ele><time>2026-05-01T13:15:01Z</time></trkpt><trkpt lat="42.55123624833321" lon="8.720981907972547"><ele>107.0</ele><time>2026-05-01T13:15:02Z</time></trkpt><trkpt lat="42.55112898965163" lon="8.720842748219832"><ele>107.0</ele><time>2026-05-01T13:15:03Z</time></trkpt><trkpt lat="42.55103558714958" lon="8.720723507999939"><ele>107.0</ele><time>2026-05-01T13:15:04Z</time></trkpt><trkpt lat="42.550970891104555" lon="8.720609106604115"><ele>106.99999999999999</ele><time>2026-05-01T13:15:05Z</time></trkpt><trkpt lat="42.550888308281614" lon="8.72053031037956"><ele>106.99999999999999</ele><time>2026-05-01T13:15:06Z</time></trkpt><trkpt lat="42.550788086442104" lon="8.720497808087602"><ele>107.0</ele><time>2026-05-01T13:15:07Z</time></trkpt><trkpt lat="42.550676913024176" lon="8.720509417334526"><ele>107.0</ele><time>2026-05-01T13:15:08Z</time></trkpt><trkpt lat="42.5505640285443" lon="8.720468812168964"><ele>107.0</ele><time>2026-05-01T13:15:09Z</time></trkpt><trkpt lat="42.550462055047" lon="8.720407283055454"><ele>107.0</ele><time>2026-05-01T13:15:10Z</time></trkpt><trkpt lat="42.55035811157274" lon="8.72036062106888"><ele>107.0</ele><time>2026-05-01T13:15:11Z</time></trkpt><trkpt lat="42.55025095649576" lon="8.720351681913327"><ele>107.0</ele><time>2026-05-01T13:15:12Z</time></trkpt><trkpt lat="42.55012855952776" lon="8.720402201507186"><ele>108.25</ele><time>2026-05-01T13:15:13Z</time></trkpt><trkpt lat="42.549996121340115" lon="8.720404179358331"><ele>109.5</ele><time>2026-05-01T13:15:14Z</time></trkpt><trkpt lat="42.54985597583339" lon="8.720428457275421"><ele>110.75</ele><time>2026-05-01T13:15:15Z</time></trkpt><trkpt lat="42.549712975274204" lon="8.720441426432634"><ele>112.0</ele><time>2026-05-01T13:15:16Z</time></trkpt><trkpt lat="42.549585853754216" lon="8.72039687697858"><ele>110.5</ele><time>2026-05-01T13:15:17Z</time></trkpt><trkpt lat="42.54946417251226" lon="8.720361532079538"><ele>109.0</ele><time>2026-05-01T13:15:18.001Z</time></trkpt><trkpt lat="42.549352935299666" lon="8.720324631856384"><ele>107.5</ele><time>2026-05-01T13:15:19.001Z</time></trkpt><trkpt lat="42.549246437360424" lon="8.720292438230894"><ele>106.0</ele><time>2026-05-01T13:15:20.001Z</time></trkpt><trkpt lat="42.54913899607992" lon="8.720293430672251"><ele>106.0</ele><time>2026-05-01T13:15:21.001Z</time></trkpt><trkpt lat="42.549040099391654" lon="8.720336373552682"><ele>106.0</ele><time>2026-05-01T13:15:22.001Z</time></trkpt><trkpt lat="42.548956690665115" lon="8.720391830704296"><ele>106.0</ele><time>2026-05-01T13:15:23.001Z</time></trkpt><trkpt lat="42.54887643086593" lon="8.720464461991062"><ele>106.0</ele><time>2026-05-01T13:15:24.001Z</time></trkpt><trkpt lat="42.5488233032949" lon="8.720593381990719"><ele>106.0</ele><time>2026-05-01T13:15:25.001Z</time></trkpt><trkpt lat="42.548741298093674" lon="8.72069917065843"><ele>105.0</ele><time>2026-05-01T13:15:26.001Z</time></trkpt><trkpt lat="42.54865675121813" lon="8.720816660568678"><ele>104.0</ele><time>2026-05-01T13:15:27.001Z</time></trkpt><trkpt lat="42.548549102939155" lon="8.720906175510398"><ele>103.0</ele><time>2026-05-01T13:15:28.001Z</time></trkpt><trkpt lat="42.54843268335812" lon="8.720982974333332"><ele>102.0</ele><time>2026-05-01T13:15:29.001Z</time></trkpt><trkpt lat="42.548334222717635" lon="8.721103674347734"><ele>102.0</ele><time>2026-05-01T13:15:30.001Z</time></trkpt><trkpt lat="42.54825946376101" lon="8.721243343056841"><ele>102.0</ele><time>2026-05-01T13:15:31.001Z</time></trkpt><trkpt lat="42.54816222127626" lon="8.721357371239023"><ele>102.0</ele><time>2026-05-01T13:15:32.001Z</time></trkpt><trkpt lat="42.54807863941732" lon="8.721480965098214"><ele>102.0</ele><time>2026-05-01T13:15:33.001Z</time></trkpt><trkpt lat="42.54799747325332" lon="8.721600595329253"><ele>102.0</ele><time>2026-05-01T13:15:34.001Z</time></trkpt><trkpt lat="42.54791397339351" lon="8.721723310377998"><ele>102.0</ele><time>2026-05-01T13:15:35.001Z</time></trkpt><trkpt lat="42.54783171181936" lon="8.721846239888299"><ele>102.0</ele><time>2026-05-01T13:15:36.001Z</time></trkpt><trkpt lat="42.547763529737864" lon="8.721968051555063"><ele>102.0</ele><time>2026-05-01T13:15:37.001Z</time></trkpt><trkpt lat="42.54772418132864" lon="8.722115588414239"><ele>96.25</ele><time>2026-05-01T13:15:38.001Z</time></trkpt><trkpt lat="42.54768298486944" lon="8.72227501840366"><ele>90.5</ele><time>2026-05-01T13:15:39.001Z</time></trkpt><trkpt lat="42.54761565275141" lon="8.722416071656811"><ele>84.75</ele><time>2026-05-01T13:15:40.001Z</time></trkpt><trkpt lat="42.547543101706424" lon="8.722535389998814"><ele>79.0</ele><time>2026-05-01T13:15:41.001Z</time></trkpt><trkpt lat="42.54749387619189" lon="8.722666794113643"><ele>77.0</ele><time>2026-05-01T13:15:42.001Z</time></trkpt><trkpt lat="42.54751320013359" lon="8.72283411747614"><ele>75.0</ele><time>2026-05-01T13:15:43.001Z</time></trkpt><trkpt lat="42.547550211341715" lon="8.722995603381563"><ele>73.0</ele><time>2026-05-01T13:15:44.001Z</time></trkpt><trkpt lat="42.54760251165236" lon="8.723135445164504"><ele>71.0</ele><time>2026-05-01T13:15:45.001Z</time></trkpt><trkpt lat="42.54768284155221" lon="8.723251770544945"><ele>71.0</ele><time>2026-05-01T13:15:46.001Z</time></trkpt><trkpt lat="42.54777969185895" lon="8.72336278743049"><ele>71.0</ele><time>2026-05-01T13:15:47.002Z</time></trkpt><trkpt lat="42.547868880262776" lon="8.723470692372992"><ele>71.0</ele><time>2026-05-01T13:15:48.002Z</time></trkpt><trkpt lat="42.54794656701249" lon="8.723577189275915"><ele>71.0</ele><time>2026-05-01T13:15:49.002Z</time></trkpt><trkpt lat="42.54801342561177" lon="8.723677808174983"><ele>70.66666666666667</ele><time>2026-05-01T13:15:50.002Z</time></trkpt><trkpt lat="42.548046664416894" lon="8.723793167144008"><ele>70.33333333333334</ele><time>2026-05-01T13:15:51.002Z</time></trkpt><trkpt lat="42.54806286222676" lon="8.723892824850704"><ele>70.0</ele><time>2026-05-01T13:15:52.002Z</time></trkpt><trkpt lat="42.54802422483515" lon="8.723975791961054"><ele>69.66666666666667</ele><time>2026-05-01T13:15:53.002Z</time></trkpt><trkpt lat="42.54797305999597" lon="8.724031243290483"><ele>69.33333333333333</ele><time>2026-05-01T13:15:54.002Z</time></trkpt><trkpt lat="42.5478878371356" lon="8.724056739529665"><ele>69.0</ele><time>2026-05-01T13:15:55.002Z</time></trkpt><trkpt lat="42.54779367468012" lon="8.724122933508392"><ele>69.0</ele><time>2026-05-01T13:15:56.002Z</time></trkpt><trkpt lat="42.54769215696712" lon="8.724193063877996"><ele>69.0</ele><time>2026-05-01T13:15:57.002Z</time></trkpt><trkpt lat="42.547586032425514" lon="8.724267312953701"><ele>69.0</ele><time>2026-05-01T13:15:58.002Z</time></trkpt><trkpt lat="42.54749222477646" lon="8.7243436923111"><ele>69.0</ele><time>2026-05-01T13:15:59.002Z</time></trkpt><trkpt lat="42.54742676132316" lon="8.724453695484197"><ele>69.0</ele><time>2026-05-01T13:16:00.002Z</time></trkpt><trkpt lat="42.54740619709358" lon="8.724584067603159"><ele>70.2</ele><time>2026-05-01T13:16:01.002Z</time></trkpt><trkpt lat="42.54745784625624" lon="8.724741869748586"><ele>71.4</ele><time>2026-05-01T13:16:02.002Z</time></trkpt><trkpt lat="42.547459516053685" lon="8.72489608116809"><ele>72.6</ele><time>2026-05-01T13:16:03.002Z</time></trkpt><trkpt lat="42.54747136197487" lon="8.725044984995234"><ele>73.8</ele><time>2026-05-01T13:16:04.002Z</time></trkpt><trkpt lat="42.54748163151529" lon="8.725174073004913"><ele>75.0</ele><time>2026-05-01T13:16:05.002Z</time></trkpt><trkpt lat="42.547518737635045" lon="8.725279264998994"><ele>74.75</ele><time>2026-05-01T13:16:06.002Z</time></trkpt><trkpt lat="42.54761585024176" lon="8.725324645422306"><ele>74.5</ele><time>2026-05-01T13:16:07.002Z</time></trkpt><trkpt lat="42.54772874083066" lon="8.725342666026181"><ele>74.25</ele><time>2026-05-01T13:16:08.002Z</time></trkpt><trkpt lat="42.54784294557248" lon="8.72534771049431"><ele>74.0</ele><time>2026-05-01T13:16:09.002Z</time></trkpt><trkpt lat="42.54796447374227" lon="8.725349898160811"><ele>74.0</ele><time>2026-05-01T13:16:10.002Z</time></trkpt><trkpt lat="42.548076151665796" lon="8.725358997510773"><ele>74.0</ele><time>2026-05-01T13:16:11.002Z</time></trkpt><trkpt lat="42.54818188437725" lon="8.725378714692427"><ele>74.0</ele><time>2026-05-01T13:16:12.002Z</time></trkpt><trkpt lat="42.54827948340432" lon="8.725451689456452"><ele>74.0</ele><time>2026-05-01T13:16:13.002Z</time></trkpt><trkpt lat="42.548376403183866" lon="8.725485736601227"><ele>74.0</ele><time>2026-05-01T13:16:14.002Z</time></trkpt><trkpt lat="42.548457389630514" lon="8.725543915809101"><ele>74.0</ele><time>2026-05-01T13:16:15.002Z</time></trkpt><trkpt lat="42.54853266268512" lon="8.725600505352023"><ele>74.0</ele><time>2026-05-01T13:16:16.002Z</time></trkpt><trkpt lat="42.54859289501539" lon="8.725675737463352"><ele>74.0</ele><time>2026-05-01T13:16:17.002Z</time></trkpt><trkpt lat="42.548562005824756" lon="8.725790595141358"><ele>74.0</ele><time>2026-05-01T13:16:18.002Z</time></trkpt><trkpt lat="42.548537109360225" lon="8.725878742285701"><ele>74.0</ele><time>2026-05-01T13:16:19.003Z</time></trkpt><trkpt lat="42.548480101958134" lon="8.72598028072889"><ele>74.0</ele><time>2026-05-01T13:16:20.003Z</time></trkpt><trkpt lat="42.548386463561066" lon="8.726079867373508"><ele>74.2</ele><time>2026-05-01T13:16:21.003Z</time></trkpt><trkpt lat="42.54832252245266" lon="8.726199725273517"><ele>74.4</ele><time>2026-05-01T13:16:22.003Z</time></trkpt><trkpt lat="42.54828515742" lon="8.726329536610757"><ele>74.6</ele><time>2026-05-01T13:16:23.003Z</time></trkpt><trkpt lat="42.54828449532538" lon="8.726473474163578"><ele>74.8</ele><time>2026-05-01T13:16:24.003Z</time></trkpt><trkpt lat="42.548263627129636" lon="8.726614026388761"><ele>75.0</ele><time>2026-05-01T13:16:25.003Z</time></trkpt><trkpt lat="42.548207989680535" lon="8.72671452714859"><ele>75.0</ele><time>2026-05-01T13:16:26.003Z</time></trkpt><trkpt lat="42.54813229043403" lon="8.726790932475257"><ele>75.0</ele><time>2026-05-01T13:16:27.003Z</time></trkpt><trkpt lat="42.54803821359862" lon="8.726806667029738"><ele>75.0</ele><time>2026-05-01T13:16:28.003Z</time></trkpt><trkpt lat="42.54795054091597" lon="8.726856180239505"><ele>75.0</ele><time>2026-05-01T13:16:29.003Z</time></trkpt><trkpt lat="42.54786159748654" lon="8.726911166238393"><ele>75.0</ele><time>2026-05-01T13:16:30.003Z</time></trkpt><trkpt lat="42.54776507432897" lon="8.726986816202055"><ele>73.75</ele><time>2026-05-01T13:16:31.003Z</time></trkpt><trkpt lat="42.54766867951302" lon="8.727083129771865"><ele>72.5</ele><time>2026-05-01T13:16:32.003Z</time></trkpt><trkpt lat="42.5475832556155" lon="8.727210841436701"><ele>71.25</ele><time>2026-05-01T13:16:33.003Z</time></trkpt><trkpt lat="42.547510609128096" lon="8.727345792052919"><ele>70.0</ele><time>2026-05-01T13:16:34.003Z</time></trkpt><trkpt lat="42.54744262341432" lon="8.727484707442407"><ele>70.0</ele><time>2026-05-01T13:16:35.003Z</time></trkpt><trkpt lat="42.547373758291954" lon="8.727606573137969"><ele>70.0</ele><time>2026-05-01T13:16:36.003Z</time></trkpt><trkpt lat="42.54728817749083" lon="8.727679901047058"><ele>70.0</ele><time>2026-05-01T13:16:37.003Z</time></trkpt><trkpt lat="42.54719581705424" lon="8.727727636943557"><ele>70.0</ele><time>2026-05-01T13:16:38.003Z</time></trkpt><trkpt lat="42.547094918161655" lon="8.727710927883127"><ele>70.0</ele><time>2026-05-01T13:16:39.003Z</time></trkpt><trkpt lat="42.54697373654069" lon="8.727709536766628"><ele>73.0</ele><time>2026-05-01T13:16:40.003Z</time></trkpt><trkpt lat="42.54685132559473" lon="8.727730946176475"><ele>76.0</ele><time>2026-05-01T13:16:41.003Z</time></trkpt><trkpt lat="42.54672817298858" lon="8.727709175547464"><ele>79.0</ele><time>2026-05-01T13:16:42.003Z</time></trkpt><trkpt lat="42.54660332300189" lon="8.727709175545048"><ele>82.0</ele><time>2026-05-01T13:16:43.003Z</time></trkpt><trkpt lat="42.5464736382018" lon="8.727709874744612"><ele>74.25</ele><time>2026-05-01T13:16:44.003Z</time></trkpt><trkpt lat="42.54635106630415" lon="8.727710750866086"><ele>66.5</ele><time>2026-05-01T13:16:45.003Z</time></trkpt><trkpt lat="42.54623657209624" lon="8.727711567599096"><ele>58.75</ele><time>2026-05-01T13:16:46.003Z</time></trkpt><trkpt lat="42.54611855393801" lon="8.72771342111216"><ele>51.0</ele><time>2026-05-01T13:16:47.003Z</time></trkpt><trkpt lat="42.546000079426705" lon="8.72771825061177"><ele>54.5</ele><time>2026-05-01T13:16:47.999Z</time></trkpt><trkpt lat="42.545886372143414" lon="8.727737371667294"><ele>58.0</ele><time>2026-05-01T13:16:48.999Z</time></trkpt><trkpt lat="42.54577488185483" lon="8.727819495311051"><ele>61.5</ele><time>2026-05-01T13:16:49.999Z</time></trkpt><trkpt lat="42.54565547816778" lon="8.727911477345225"><ele>65.0</ele><time>2026-05-01T13:16:50.999Z</time></trkpt><trkpt lat="42.54551963879775" lon="8.727986388341025"><ele>65.0</ele><time>2026-05-01T13:16:51.999Z</time></trkpt><trkpt lat="42.54538889847575" lon="8.728081320799907"><ele>65.0</ele><time>2026-05-01T13:16:52.999Z</time></trkpt><trkpt lat="42.545269549053565" lon="8.728166774201357"><ele>65.0</ele><time>2026-05-01T13:16:53.999Z</time></trkpt><trkpt lat="42.545159940816234" lon="8.728246010688332"><ele>65.0</ele><time>2026-05-01T13:16:54.999Z</time></trkpt><trkpt lat="42.54506067972555" lon="8.728327420511828"><ele>65.0</ele><time>2026-05-01T13:16:56Z</time></trkpt><trkpt lat="42.54499454728738" lon="8.728451962716655"><ele>65.0</ele><time>2026-05-01T13:16:57Z</time></trkpt><trkpt lat="42.54494229741943" lon="8.728576167948042"><ele>65.0</ele><time>2026-05-01T13:16:58Z</time></trkpt><trkpt lat="42.54488928113862" lon="8.7286886436629"><ele>65.0</ele><time>2026-05-01T13:16:59Z</time></trkpt><trkpt lat="42.54484555510616" lon="8.728796672338564"><ele>65.0</ele><time>2026-05-01T13:17:00Z</time></trkpt><trkpt lat="42.54479967872165" lon="8.72888844445075"><ele>65.0</ele><time>2026-05-01T13:17:01Z</time></trkpt><trkpt lat="42.54473347716143" lon="8.728971587520089"><ele>65.0</ele><time>2026-05-01T13:17:02Z</time></trkpt><trkpt lat="42.544660829863055" lon="8.729024440445965"><ele>65.0</ele><time>2026-05-01T13:17:03Z</time></trkpt><trkpt lat="42.54459857197833" lon="8.729039168730225"><ele>65.0</ele><time>2026-05-01T13:17:04Z</time></trkpt><trkpt lat="42.54450367812859" lon="8.72894928521156"><ele>65.0</ele><time>2026-05-01T13:17:06Z</time></trkpt><trkpt lat="42.54447579801675" lon="8.728859348858153"><ele>65.0</ele><time>2026-05-01T13:17:07Z</time></trkpt><trkpt lat="42.544476368075706" lon="8.728757462804667"><ele>64.2</ele><time>2026-05-01T13:17:08Z</time></trkpt><trkpt lat="42.54450268427878" lon="8.728647428500867"><ele>63.4</ele><time>2026-05-01T13:17:09Z</time></trkpt><trkpt lat="42.54452643463194" lon="8.728515621624528"><ele>62.599999999999994</ele><time>2026-05-01T13:17:10Z</time></trkpt><trkpt lat="42.544534848823325" lon="8.728353821040812"><ele>61.8</ele><time>2026-05-01T13:17:11Z</time></trkpt><trkpt lat="42.54453321646824" lon="8.728170525229793"><ele>61.0</ele><time>2026-05-01T13:17:12Z</time></trkpt><trkpt lat="42.54453220561146" lon="8.727994227379801"><ele>62.8</ele><time>2026-05-01T13:17:13Z</time></trkpt><trkpt lat="42.54453184495689" lon="8.727845179186678"><ele>64.6</ele><time>2026-05-01T13:17:14Z</time></trkpt><trkpt lat="42.54452806564051" lon="8.727706265270868"><ele>66.4</ele><time>2026-05-01T13:17:15Z</time></trkpt><trkpt lat="42.54452834520268" lon="8.727573538053042"><ele>68.2</ele><time>2026-05-01T13:17:16Z</time></trkpt><trkpt lat="42.544531452912594" lon="8.727451759084436"><ele>70.0</ele><time>2026-05-01T13:17:17Z</time></trkpt><trkpt lat="42.544543448762134" lon="8.727345930238473"><ele>67.4</ele><time>2026-05-01T13:17:18Z</time></trkpt><trkpt lat="42.54456950764848" lon="8.727245505259145"><ele>64.8</ele><time>2026-05-01T13:17:19Z</time></trkpt><trkpt lat="42.5446195237971" lon="8.727138345371317"><ele>62.2</ele><time>2026-05-01T13:17:20Z</time></trkpt><trkpt lat="42.544691417271466" lon="8.727040704873293"><ele>59.6</ele><time>2026-05-01T13:17:21Z</time></trkpt><trkpt lat="42.54477207488359" lon="8.726960518653222"><ele>57.0</ele><time>2026-05-01T13:17:22.001Z</time></trkpt><trkpt lat="42.54485959912738" lon="8.726879171727672"><ele>57.0</ele><time>2026-05-01T13:17:23.001Z</time></trkpt><trkpt lat="42.54494483686233" lon="8.726787942362426"><ele>57.0</ele><time>2026-05-01T13:17:24.001Z</time></trkpt><trkpt lat="42.54502523525499" lon="8.726688271311696"><ele>57.0</ele><time>2026-05-01T13:17:25.001Z</time></trkpt><trkpt lat="42.54509094091239" lon="8.726576531748666"><ele>57.0</ele><time>2026-05-01T13:17:26.001Z</time></trkpt><trkpt lat="42.54513539477914" lon="8.72645133846876"><ele>57.0</ele><time>2026-05-01T13:17:27.001Z</time></trkpt><trkpt lat="42.545142478636436" lon="8.726310474416987"><ele>57.0</ele><time>2026-05-01T13:17:28.001Z</time></trkpt><trkpt lat="42.54511879390689" lon="8.726149024267256"><ele>57.0</ele><time>2026-05-01T13:17:29.001Z</time></trkpt><trkpt lat="42.54508249931321" lon="8.725999054840718"><ele>57.0</ele><time>2026-05-01T13:17:30.001Z</time></trkpt><trkpt lat="42.545039844301954" lon="8.72585481068966"><ele>57.0</ele><time>2026-05-01T13:17:31.001Z</time></trkpt><trkpt lat="42.544986103185884" lon="8.725712207240875"><ele>57.25</ele><time>2026-05-01T13:17:32.001Z</time></trkpt><trkpt lat="42.5449103963937" lon="8.7255783555927"><ele>57.5</ele><time>2026-05-01T13:17:33.001Z</time></trkpt><trkpt lat="42.54481542931265" lon="8.725467993723626"><ele>57.75</ele><time>2026-05-01T13:17:34.001Z</time></trkpt><trkpt lat="42.54472492913217" lon="8.725355430650735"><ele>58.0</ele><time>2026-05-01T13:17:35.001Z</time></trkpt><trkpt lat="42.54462934890761" lon="8.725269044495983"><ele>59.5</ele><time>2026-05-01T13:17:36.001Z</time></trkpt><trkpt lat="42.54452892792529" lon="8.72518623137687"><ele>61.0</ele><time>2026-05-01T13:17:37.001Z</time></trkpt><trkpt lat="42.544418349769295" lon="8.72509545339164"><ele>62.5</ele><time>2026-05-01T13:17:38.001Z</time></trkpt><trkpt lat="42.54430338892543" lon="8.725001077484047"><ele>64.0</ele><time>2026-05-01T13:17:39.001Z</time></trkpt><trkpt lat="42.544193871919354" lon="8.724911048429636"><ele>64.0</ele><time>2026-05-01T13:17:40.001Z</time></trkpt><trkpt lat="42.544091750560696" lon="8.724826991596991"><ele>64.0</ele><time>2026-05-01T13:17:41.001Z</time></trkpt><trkpt lat="42.54399069581754" lon="8.724743812704533"><ele>64.0</ele><time>2026-05-01T13:17:42.001Z</time></trkpt><trkpt lat="42.54388848437345" lon="8.724657355440014"><ele>64.0</ele><time>2026-05-01T13:17:43.001Z</time></trkpt><trkpt lat="42.54379734624639" lon="8.724579790152443"><ele>63.99999999999999</ele><time>2026-05-01T13:17:44.001Z</time></trkpt><trkpt lat="42.54372148760785" lon="8.72451000117786"><ele>64.0</ele><time>2026-05-01T13:17:45.001Z</time></trkpt><trkpt lat="42.543665808654374" lon="8.724434841233984"><ele>64.0</ele><time>2026-05-01T13:17:46.001Z</time></trkpt><trkpt lat="42.5436148266094" lon="8.724358286945089"><ele>64.0</ele><time>2026-05-01T13:17:47.001Z</time></trkpt><trkpt lat="42.54362188691116" lon="8.724229232992176"><ele>63.99999999999999</ele><time>2026-05-01T13:17:48.001Z</time></trkpt><trkpt lat="42.54366031680154" lon="8.724096581492113"><ele>64.0</ele><time>2026-05-01T13:17:49.001Z</time></trkpt><trkpt lat="42.54371231677856" lon="8.723962005788154"><ele>61.5</ele><time>2026-05-01T13:17:50.001Z</time></trkpt><trkpt lat="42.54376713061393" lon="8.723823273937233"><ele>59.0</ele><time>2026-05-01T13:17:51.001Z</time></trkpt><trkpt lat="42.543820313743794" lon="8.723674791682821"><ele>56.5</ele><time>2026-05-01T13:17:52.002Z</time></trkpt><trkpt lat="42.54388572330499" lon="8.723514020704455"><ele>54.0</ele><time>2026-05-01T13:17:53.002Z</time></trkpt><trkpt lat="42.54395904632034" lon="8.723345746292496"><ele>54.0</ele><time>2026-05-01T13:17:54.002Z</time></trkpt><trkpt lat="42.54401935969552" lon="8.723167646126727"><ele>54.0</ele><time>2026-05-01T13:17:55.002Z</time></trkpt><trkpt lat="42.54402958259705" lon="8.722970389947776"><ele>54.0</ele><time>2026-05-01T13:17:56.002Z</time></trkpt><trkpt lat="42.54401127393697" lon="8.72277166046016"><ele>54.0</ele><time>2026-05-01T13:17:57.002Z</time></trkpt><trkpt lat="42.544000379272816" lon="8.722584836705321"><ele>55.75</ele><time>2026-05-01T13:17:58.002Z</time></trkpt><trkpt lat="42.54398366530367" lon="8.722392499331963"><ele>57.5</ele><time>2026-05-01T13:17:59.002Z</time></trkpt><trkpt lat="42.54396343033756" lon="8.722210814804004"><ele>59.25</ele><time>2026-05-01T13:18:00.002Z</time></trkpt><trkpt lat="42.54395199658488" lon="8.722050386329153"><ele>61.0</ele><time>2026-05-01T13:18:01.002Z</time></trkpt><trkpt lat="42.54397451064844" lon="8.721906610006569"><ele>61.75</ele><time>2026-05-01T13:18:02.002Z</time></trkpt><trkpt lat="42.544033048814285" lon="8.72175748294845"><ele>62.5</ele><time>2026-05-01T13:18:03.002Z</time></trkpt><trkpt lat="42.54410256379064" lon="8.721610436920743"><ele>63.25</ele><time>2026-05-01T13:18:04.002Z</time></trkpt><trkpt lat="42.544137643952624" lon="8.72143721807382"><ele>64.0</ele><time>2026-05-01T13:18:05.002Z</time></trkpt><trkpt lat="42.54414159484556" lon="8.721230618827214"><ele>66.33333333333333</ele><time>2026-05-01T13:18:06.002Z</time></trkpt><trkpt lat="42.54413509026358" lon="8.721014953158619"><ele>68.66666666666667</ele><time>2026-05-01T13:18:07.002Z</time></trkpt><trkpt lat="42.54413095568388" lon="8.72079616350515"><ele>71.0</ele><time>2026-05-01T13:18:08.002Z</time></trkpt><trkpt lat="42.54412128204447" lon="8.720579891714129"><ele>71.0</ele><time>2026-05-01T13:18:09.002Z</time></trkpt><trkpt lat="42.54410702851283" lon="8.720387453489801"><ele>71.0</ele><time>2026-05-01T13:18:10.002Z</time></trkpt><trkpt lat="42.5440926676728" lon="8.72021811666158"><ele>71.0</ele><time>2026-05-01T13:18:11.002Z</time></trkpt><trkpt lat="42.544067131120464" lon="8.720067353698274"><ele>71.0</ele><time>2026-05-01T13:18:12.002Z</time></trkpt><trkpt lat="42.54401648337597" lon="8.71994099594795"><ele>70.0</ele><time>2026-05-01T13:18:13.002Z</time></trkpt><trkpt lat="42.54393048658687" lon="8.719859364391452"><ele>69.0</ele><time>2026-05-01T13:18:14.002Z</time></trkpt><trkpt lat="42.54383865845596" lon="8.719794092475887"><ele>68.0</ele><time>2026-05-01T13:18:15.002Z</time></trkpt><trkpt lat="42.543745359805854" lon="8.719705809265838"><ele>67.0</ele><time>2026-05-01T13:18:16.002Z</time></trkpt><trkpt lat="42.54362359335794" lon="8.71964628960683"><ele>71.0</ele><time>2026-05-01T13:18:17.002Z</time></trkpt><trkpt lat="42.54349829784221" lon="8.719608428733492"><ele>75.0</ele><time>2026-05-01T13:18:18.002Z</time></trkpt><trkpt lat="42.543387983455375" lon="8.719583310544866"><ele>79.0</ele><time>2026-05-01T13:18:19.002Z</time></trkpt><trkpt lat="42.54328714225959" lon="8.719560349367493"><ele>83.0</ele><time>2026-05-01T13:18:20.002Z</time></trkpt><trkpt lat="42.543175320315065" lon="8.719536029771731"><ele>83.0</ele><time>2026-05-01T13:18:21.002Z</time></trkpt><trkpt lat="42.5430571378878" lon="8.719512112597114"><ele>83.0</ele><time>2026-05-01T13:18:22.002Z</time></trkpt><trkpt lat="42.54295085093582" lon="8.719490602768355"><ele>83.0</ele><time>2026-05-01T13:18:23.002Z</time></trkpt><trkpt lat="42.542858170454664" lon="8.719471846549899"><ele>83.0</ele><time>2026-05-01T13:18:24.003Z</time></trkpt><trkpt lat="42.54278751498265" lon="8.719458249041981"><ele>83.0</ele><time>2026-05-01T13:18:25.003Z</time></trkpt><trkpt lat="42.542705359310986" lon="8.71944611163049"><ele>80.80000000000001</ele><time>2026-05-01T13:18:27.003Z</time></trkpt><trkpt lat="42.54259777502894" lon="8.719489257595983"><ele>78.60000000000001</ele><time>2026-05-01T13:18:29.003Z</time></trkpt><trkpt lat="42.54254467551057" lon="8.719585332036626"><ele>76.4</ele><time>2026-05-01T13:18:30.003Z</time></trkpt><trkpt lat="42.54252784185478" lon="8.719711004623928"><ele>74.2</ele><time>2026-05-01T13:18:31.003Z</time></trkpt><trkpt lat="42.542534868748895" lon="8.71982746120604"><ele>72.0</ele><time>2026-05-01T13:18:32.003Z</time></trkpt><trkpt lat="42.54252037020664" lon="8.719941653532725"><ele>72.0</ele><time>2026-05-01T13:18:33.003Z</time></trkpt><trkpt lat="42.54255518717518" lon="8.720054521840614"><ele>72.0</ele><time>2026-05-01T13:18:34.003Z</time></trkpt><trkpt lat="42.542584038353674" lon="8.720163634617814"><ele>72.0</ele><time>2026-05-01T13:18:35.003Z</time></trkpt><trkpt lat="42.54260991442486" lon="8.720254664117865"><ele>72.0</ele><time>2026-05-01T13:18:36.003Z</time></trkpt><trkpt lat="42.54261807240241" lon="8.720414249313592"><ele>72.0</ele><time>2026-05-01T13:18:38.003Z</time></trkpt><trkpt lat="42.54256121909301" lon="8.720478539132605"><ele>72.0</ele><time>2026-05-01T13:18:39.003Z</time></trkpt><trkpt lat="42.54248481511895" lon="8.720504266492279"><ele>71.66666666666667</ele><time>2026-05-01T13:18:40.003Z</time></trkpt><trkpt lat="42.54240354496185" lon="8.72052739986923"><ele>71.33333333333333</ele><time>2026-05-01T13:18:41.003Z</time></trkpt><trkpt lat="42.542314983244765" lon="8.720525956338793"><ele>71.0</ele><time>2026-05-01T13:18:42.003Z</time></trkpt><trkpt lat="42.54222439034263" lon="8.720528156976938"><ele>70.66666666666666</ele><time>2026-05-01T13:18:43.003Z</time></trkpt><trkpt lat="42.54214710402475" lon="8.720530034373239"><ele>70.33333333333333</ele><time>2026-05-01T13:18:44.003Z</time></trkpt><trkpt lat="42.542070013669154" lon="8.720571537690807"><ele>70.0</ele><time>2026-05-01T13:18:45.003Z</time></trkpt><trkpt lat="42.54199115985534" lon="8.720638598062388"><ele>70.0</ele><time>2026-05-01T13:18:46.003Z</time></trkpt><trkpt lat="42.541917864805335" lon="8.720742103550464"><ele>70.0</ele><time>2026-05-01T13:18:47.003Z</time></trkpt><trkpt lat="42.541851552896766" lon="8.720869516506383"><ele>70.0</ele><time>2026-05-01T13:18:48.003Z</time></trkpt><trkpt lat="42.5417749802948" lon="8.721019246813768"><ele>70.0</ele><time>2026-05-01T13:18:49.003Z</time></trkpt><trkpt lat="42.541693624726875" lon="8.721170113137156"><ele>73.0</ele><time>2026-05-01T13:18:50.003Z</time></trkpt><trkpt lat="42.541614043518784" lon="8.72132227829876"><ele>76.0</ele><time>2026-05-01T13:18:51.003Z</time></trkpt><trkpt lat="42.541545249001715" lon="8.721451247296216"><ele>79.0</ele><time>2026-05-01T13:18:52.003Z</time></trkpt><trkpt lat="42.541493689676976" lon="8.721542609296481"><ele>82.0</ele><time>2026-05-01T13:18:53.003Z</time></trkpt><trkpt lat="42.54144593077492" lon="8.721619808614467"><ele>85.0</ele><time>2026-05-01T13:18:53.999Z</time></trkpt><trkpt lat="42.5413881115813" lon="8.72168410001512"><ele>85.0</ele><time>2026-05-01T13:18:54.999Z</time></trkpt><trkpt lat="42.54132964127146" lon="8.721751012033824"><ele>85.0</ele><time>2026-05-01T13:18:55.999Z</time></trkpt><trkpt lat="42.5412745614754" lon="8.721826924919236"><ele>85.0</ele><time>2026-05-01T13:18:56.999Z</time></trkpt><trkpt lat="42.541223300505244" lon="8.721910169859825"><ele>85.0</ele><time>2026-05-01T13:18:57.999Z</time></trkpt><trkpt lat="42.54118319289988" lon="8.722018245172018"><ele>85.0</ele><time>2026-05-01T13:18:58.999Z</time></trkpt><trkpt lat="42.54116007736486" lon="8.722182838451394"><ele>85.0</ele><time>2026-05-01T13:18:59.999Z</time></trkpt><trkpt lat="42.54113872889781" lon="8.722384832418607"><ele>84.75</ele><time>2026-05-01T13:19:00.999Z</time></trkpt><trkpt lat="42.54111370280378" lon="8.722603173107823"><ele>84.5</ele><time>2026-05-01T13:19:01.999Z</time></trkpt><trkpt lat="42.541077966454" lon="8.722787368983782"><ele>84.25</ele><time>2026-05-01T13:19:02.999Z</time></trkpt><trkpt lat="42.541013021344206" lon="8.722917720515078"><ele>84.0</ele><time>2026-05-01T13:19:03.999Z</time></trkpt><trkpt lat="42.540910604965816" lon="8.72295632115721"><ele>84.0</ele><time>2026-05-01T13:19:04.999Z</time></trkpt><trkpt lat="42.54079637424727" lon="8.722980463028875"><ele>84.0</ele><time>2026-05-01T13:19:05.999Z</time></trkpt><trkpt lat="42.5406872812197" lon="8.723071224705789"><ele>84.0</ele><time>2026-05-01T13:19:06.999Z</time></trkpt><trkpt lat="42.54058501170338" lon="8.723199326631764"><ele>84.0</ele><time>2026-05-01T13:19:08Z</time></trkpt><trkpt lat="42.54048426210761" lon="8.723348295959044"><ele>82.5</ele><time>2026-05-01T13:19:09Z</time></trkpt><trkpt lat="42.540365298487465" lon="8.723467733828421"><ele>81.0</ele><time>2026-05-01T13:19:10Z</time></trkpt><trkpt lat="42.54027607683886" lon="8.723618230523119"><ele>79.5</ele><time>2026-05-01T13:19:11Z</time></trkpt><trkpt lat="42.540200901338764" lon="8.72376997483088"><ele>78.0</ele><time>2026-05-01T13:19:12Z</time></trkpt><trkpt lat="42.54016079681025" lon="8.723960246197354"><ele>78.0</ele><time>2026-05-01T13:19:13Z</time></trkpt><trkpt lat="42.54013256393876" lon="8.724131986004032"><ele>78.0</ele><time>2026-05-01T13:19:14Z</time></trkpt><trkpt lat="42.540060318251456" lon="8.72425161670112"><ele>78.0</ele><time>2026-05-01T13:19:15Z</time></trkpt><trkpt lat="42.53997805968785" lon="8.724329349116259"><ele>78.0</ele><time>2026-05-01T13:19:16Z</time></trkpt><trkpt lat="42.53988601839417" lon="8.724422818947254"><ele>80.25</ele><time>2026-05-01T13:19:17Z</time></trkpt><trkpt lat="42.53978375872381" lon="8.724522475101004"><ele>82.5</ele><time>2026-05-01T13:19:18Z</time></trkpt><trkpt lat="42.539673839720834" lon="8.724628216658067"><ele>84.75</ele><time>2026-05-01T13:19:19Z</time></trkpt><trkpt lat="42.5395796626498" lon="8.724721210646711"><ele>87.0</ele><time>2026-05-01T13:19:20Z</time></trkpt><trkpt lat="42.539511363224726" lon="8.72480354463277"><ele>87.0</ele><time>2026-05-01T13:19:21Z</time></trkpt><trkpt lat="42.539438126125496" lon="8.724843693182024"><ele>87.0</ele><time>2026-05-01T13:19:22Z</time></trkpt><trkpt lat="42.53936736407679" lon="8.724807800241376"><ele>87.0</ele><time>2026-05-01T13:19:23Z</time></trkpt><trkpt lat="42.53930260676511" lon="8.724738868563138"><ele>87.0</ele><time>2026-05-01T13:19:24Z</time></trkpt><trkpt lat="42.539197471420835" lon="8.724696047360446"><ele>87.0</ele><time>2026-05-01T13:19:25Z</time></trkpt><trkpt lat="42.53907602572477" lon="8.724679042770951"><ele>87.0</ele><time>2026-05-01T13:19:26Z</time></trkpt><trkpt lat="42.53893863365247" lon="8.724713381016523"><ele>87.0</ele><time>2026-05-01T13:19:27Z</time></trkpt><trkpt lat="42.53880267763955" lon="8.724774133885404"><ele>87.0</ele><time>2026-05-01T13:19:28Z</time></trkpt><trkpt lat="42.53867627602083" lon="8.72485882371656"><ele>87.0</ele><time>2026-05-01T13:19:29Z</time></trkpt><trkpt lat="42.53857472748407" lon="8.724972490458782"><ele>85.8</ele><time>2026-05-01T13:19:30.001Z</time></trkpt><trkpt lat="42.53850228027914" lon="8.725091025476779"><ele>84.6</ele><time>2026-05-01T13:19:31.001Z</time></trkpt><trkpt lat="42.538443608855914" lon="8.725181595638578"><ele>83.39999999999999</ele><time>2026-05-01T13:19:32.001Z</time></trkpt><trkpt lat="42.538379909235715" lon="8.725252543140021"><ele>82.19999999999999</ele><time>2026-05-01T13:19:33.001Z</time></trkpt><trkpt lat="42.538304827827034" lon="8.725276000367433"><ele>81.0</ele><time>2026-05-01T13:19:34.001Z</time></trkpt><trkpt lat="42.538218318676016" lon="8.725212308783231"><ele>81.0</ele><time>2026-05-01T13:19:35.001Z</time></trkpt><trkpt lat="42.53812829773815" lon="8.72512607154714"><ele>81.0</ele><time>2026-05-01T13:19:36.001Z</time></trkpt><trkpt lat="42.53806704564011" lon="8.724982205414491"><ele>81.0</ele><time>2026-05-01T13:19:37.001Z</time></trkpt><trkpt lat="42.53799647961635" lon="8.724814304912764"><ele>81.0</ele><time>2026-05-01T13:19:38.001Z</time></trkpt><trkpt lat="42.53791064618024" lon="8.724649819252067"><ele>82.0</ele><time>2026-05-01T13:19:39.001Z</time></trkpt><trkpt lat="42.53783589506963" lon="8.724486462253529"><ele>83.0</ele><time>2026-05-01T13:19:40.001Z</time></trkpt><trkpt lat="42.53775235205479" lon="8.724360738212125"><ele>84.0</ele><time>2026-05-01T13:19:41.001Z</time></trkpt><trkpt lat="42.53766153792194" lon="8.724264811678683"><ele>85.0</ele><time>2026-05-01T13:19:42.001Z</time></trkpt><trkpt lat="42.537554867140976" lon="8.724181812462682"><ele>85.0</ele><time>2026-05-01T13:19:43.001Z</time></trkpt><trkpt lat="42.537442186801336" lon="8.724108309749242"><ele>85.0</ele><time>2026-05-01T13:19:44.001Z</time></trkpt><trkpt lat="42.537342816099475" lon="8.724042654433035"><ele>85.0</ele><time>2026-05-01T13:19:45.001Z</time></trkpt><trkpt lat="42.53725526260363" lon="8.723981268855406"><ele>85.0</ele><time>2026-05-01T13:19:46.001Z</time></trkpt><trkpt lat="42.53718802380832" lon="8.723885741009736"><ele>85.0</ele><time>2026-05-01T13:19:47.001Z</time></trkpt><trkpt lat="42.537123050378256" lon="8.723784563530836"><ele>85.0</ele><time>2026-05-01T13:19:48.001Z</time></trkpt><trkpt lat="42.5370824712099" lon="8.723642209296882"><ele>85.0</ele><time>2026-05-01T13:19:49.001Z</time></trkpt><trkpt lat="42.53702567470655" lon="8.723478565418318"><ele>85.0</ele><time>2026-05-01T13:19:50.001Z</time></trkpt><trkpt lat="42.536968107816726" lon="8.723312701869396"><ele>85.0</ele><time>2026-05-01T13:19:51.001Z</time></trkpt><trkpt lat="42.536897323127576" lon="8.723171834211467"><ele>85.4</ele><time>2026-05-01T13:19:52.001Z</time></trkpt><trkpt lat="42.53683413424075" lon="8.723038381785226"><ele>85.8</ele><time>2026-05-01T13:19:53.001Z</time></trkpt><trkpt lat="42.53676893851526" lon="8.722920076830574"><ele>86.19999999999999</ele><time>2026-05-01T13:19:54.001Z</time></trkpt><trkpt lat="42.53671826559432" lon="8.722795487141848"><ele>86.6</ele><time>2026-05-01T13:19:55.001Z</time></trkpt><trkpt lat="42.53668880239088" lon="8.72265530518932"><ele>87.0</ele><time>2026-05-01T13:19:56.001Z</time></trkpt><trkpt lat="42.53669086617801" lon="8.722484955761166"><ele>87.0</ele><time>2026-05-01T13:19:57.001Z</time></trkpt><trkpt lat="42.536690156888845" lon="8.722282665016593"><ele>87.0</ele><time>2026-05-01T13:19:58.001Z</time></trkpt><trkpt lat="42.53668813579029" lon="8.722074526200633"><ele>87.0</ele><time>2026-05-01T13:19:59.001Z</time></trkpt><trkpt lat="42.536670417627015" lon="8.721871441613043"><ele>86.25</ele><time>2026-05-01T13:20:00.002Z</time></trkpt><trkpt lat="42.536670171106124" lon="8.721689371408635"><ele>85.5</ele><time>2026-05-01T13:20:01.002Z</time></trkpt><trkpt lat="42.53666675381584" lon="8.721529727220869"><ele>84.75</ele><time>2026-05-01T13:20:02.002Z</time></trkpt><trkpt lat="42.53665387462897" lon="8.721384742842575"><ele>84.0</ele><time>2026-05-01T13:20:03.002Z</time></trkpt><trkpt lat="42.536626921463856" lon="8.721243455003268"><ele>84.0</ele><time>2026-05-01T13:20:04.002Z</time></trkpt><trkpt lat="42.53658058753091" lon="8.721119892995658"><ele>84.0</ele><time>2026-05-01T13:20:05.002Z</time></trkpt><trkpt lat="42.536508396892856" lon="8.721036955364973"><ele>84.0</ele><time>2026-05-01T13:20:06.002Z</time></trkpt><trkpt lat="42.53642365216184" lon="8.721002089650417"><ele>84.0</ele><time>2026-05-01T13:20:07.002Z</time></trkpt><trkpt lat="42.536331715692725" lon="8.721005688062114"><ele>84.0</ele><time>2026-05-01T13:20:08.002Z</time></trkpt><trkpt lat="42.53623037377871" lon="8.721003081474201"><ele>81.75</ele><time>2026-05-01T13:20:09.002Z</time></trkpt><trkpt lat="42.536112048139884" lon="8.721002791390701"><ele>79.5</ele><time>2026-05-01T13:20:10.002Z</time></trkpt><trkpt lat="42.535975931302424" lon="8.721014750280178"><ele>77.25</ele><time>2026-05-01T13:20:11.002Z</time></trkpt><trkpt lat="42.53583613893847" lon="8.721038928478281"><ele>75.0</ele><time>2026-05-01T13:20:12.002Z</time></trkpt><trkpt lat="42.53569484238257" lon="8.72108022206274"><ele>76.5</ele><time>2026-05-01T13:20:13.002Z</time></trkpt><trkpt lat="42.53555278419086" lon="8.721118819008176"><ele>78.0</ele><time>2026-05-01T13:20:14.002Z</time></trkpt><trkpt lat="42.535409996963295" lon="8.72111041109685"><ele>79.5</ele><time>2026-05-01T13:20:15.002Z</time></trkpt><trkpt lat="42.53527997315289" lon="8.72107941901573"><ele>81.0</ele><time>2026-05-01T13:20:16.002Z</time></trkpt><trkpt lat="42.53515242149133" lon="8.721003710509853"><ele>81.0</ele><time>2026-05-01T13:20:17.002Z</time></trkpt><trkpt lat="42.5350358835406" lon="8.72089805762273"><ele>81.0</ele><time>2026-05-01T13:20:18.002Z</time></trkpt><trkpt lat="42.53492078652139" lon="8.720776499844993"><ele>81.0</ele><time>2026-05-01T13:20:19.002Z</time></trkpt><trkpt lat="42.53479919288056" lon="8.720647330725734"><ele>81.0</ele><time>2026-05-01T13:20:20.002Z</time></trkpt><trkpt lat="42.53467254696075" lon="8.720511845585197"><ele>79.0</ele><time>2026-05-01T13:20:21.002Z</time></trkpt><trkpt lat="42.53454936660135" lon="8.720380067880667"><ele>77.0</ele><time>2026-05-01T13:20:22.002Z</time></trkpt><trkpt lat="42.53442623916977" lon="8.720248563810287"><ele>75.0</ele><time>2026-05-01T13:20:23.002Z</time></trkpt><trkpt lat="42.53429917926406" lon="8.720113083506288"><ele>75.0</ele><time>2026-05-01T13:20:24.002Z</time></trkpt><trkpt lat="42.53417111790606" lon="8.71997653534537"><ele>75.0</ele><time>2026-05-01T13:20:25.002Z</time></trkpt><trkpt lat="42.53405199142594" lon="8.71984951420904"><ele>75.0</ele><time>2026-05-01T13:20:26.002Z</time></trkpt><trkpt lat="42.53394213516697" lon="8.719732377630008"><ele>75.0</ele><time>2026-05-01T13:20:27.002Z</time></trkpt><trkpt lat="42.53383523461022" lon="8.719620178242712"><ele>75.0</ele><time>2026-05-01T13:20:28.002Z</time></trkpt><trkpt lat="42.53373277122578" lon="8.719518916814755"><ele>75.0</ele><time>2026-05-01T13:20:29.002Z</time></trkpt><trkpt lat="42.53362243385566" lon="8.719450647633"><ele>75.0</ele><time>2026-05-01T13:20:30.002Z</time></trkpt><trkpt lat="42.533534651901704" lon="8.719359223484307"><ele>73.5</ele><time>2026-05-01T13:20:31.002Z</time></trkpt><trkpt lat="42.53343795902339" lon="8.719281912819344"><ele>72.0</ele><time>2026-05-01T13:20:32.002Z</time></trkpt><trkpt lat="42.53333333470809" lon="8.719198419803599"><ele>70.5</ele><time>2026-05-01T13:20:33.003Z</time></trkpt><trkpt lat="42.53322009129216" lon="8.719108328884774"><ele>69.0</ele><time>2026-05-01T13:20:34.003Z</time></trkpt><trkpt lat="42.533101128157426" lon="8.7190140302059"><ele>69.0</ele><time>2026-05-01T13:20:35.003Z</time></trkpt><trkpt lat="42.53296519525723" lon="8.71893335308969"><ele>69.0</ele><time>2026-05-01T13:20:36.003Z</time></trkpt><trkpt lat="42.532837696624384" lon="8.718842998946377"><ele>69.0</ele><time>2026-05-01T13:20:37.003Z</time></trkpt><trkpt lat="42.53271250710234" lon="8.718777017058887"><ele>69.0</ele><time>2026-05-01T13:20:38.003Z</time></trkpt><trkpt lat="42.5325933267584" lon="8.718743380584343"><ele>71.25</ele><time>2026-05-01T13:20:39.003Z</time></trkpt><trkpt lat="42.53248160940332" lon="8.718752367204457"><ele>73.5</ele><time>2026-05-01T13:20:40.003Z</time></trkpt><trkpt lat="42.5323778255527" lon="8.718831756885491"><ele>75.75</ele><time>2026-05-01T13:20:41.003Z</time></trkpt><trkpt lat="42.5322747476881" lon="8.718922252665216"><ele>78.0</ele><time>2026-05-01T13:20:42.003Z</time></trkpt><trkpt lat="42.53216785785343" lon="8.719002504073984"><ele>73.25</ele><time>2026-05-01T13:20:43.003Z</time></trkpt><trkpt lat="42.532053974505686" lon="8.719079258865968"><ele>68.5</ele><time>2026-05-01T13:20:44.003Z</time></trkpt><trkpt lat="42.531937845065826" lon="8.719160844876678"><ele>63.75</ele><time>2026-05-01T13:20:45.003Z</time></trkpt><trkpt lat="42.531819454871545" lon="8.719241794083779"><ele>59.0</ele><time>2026-05-01T13:20:46.003Z</time></trkpt><trkpt lat="42.53171736127924" lon="8.719323767770575"><ele>64.75</ele><time>2026-05-01T13:20:47.003Z</time></trkpt><trkpt lat="42.53163339967965" lon="8.719424471269706"><ele>70.5</ele><time>2026-05-01T13:20:48.003Z</time></trkpt><trkpt lat="42.5315652092886" lon="8.71958110293417"><ele>76.25</ele><time>2026-05-01T13:20:49.003Z</time></trkpt><trkpt lat="42.531502832877266" lon="8.719757612775709"><ele>82.0</ele><time>2026-05-01T13:20:50.003Z</time></trkpt><trkpt lat="42.531436613290005" lon="8.719938887246483"><ele>82.0</ele><time>2026-05-01T13:20:51.003Z</time></trkpt><trkpt lat="42.531351731174105" lon="8.720104588293964"><ele>82.0</ele><time>2026-05-01T13:20:52.003Z</time></trkpt><trkpt lat="42.531231615300555" lon="8.720207775547433"><ele>82.0</ele><time>2026-05-01T13:20:53.003Z</time></trkpt><trkpt lat="42.531116860785545" lon="8.720296975090708"><ele>82.0</ele><time>2026-05-01T13:20:54.003Z</time></trkpt><trkpt lat="42.53099432617228" lon="8.720361494146998"><ele>82.25</ele><time>2026-05-01T13:20:55.003Z</time></trkpt><trkpt lat="42.530862126530955" lon="8.720384123775725"><ele>82.5</ele><time>2026-05-01T13:20:56.003Z</time></trkpt><trkpt lat="42.53072650151554" lon="8.720409365499565"><ele>82.75</ele><time>2026-05-01T13:20:57.003Z</time></trkpt><trkpt lat="42.530585008929314" lon="8.720446561172459"><ele>83.0</ele><time>2026-05-01T13:20:58.003Z</time></trkpt><trkpt lat="42.53044497622218" lon="8.720477390246964"><ele>79.66666666666667</ele><time>2026-05-01T13:20:59.003Z</time></trkpt><trkpt lat="42.53029860379722" lon="8.720510473662621"><ele>76.33333333333333</ele><time>2026-05-01T13:20:59.999Z</time></trkpt><trkpt lat="42.53015015102728" lon="8.720544266561243"><ele>73.0</ele><time>2026-05-01T13:21:00.999Z</time></trkpt><trkpt lat="42.52999989728362" lon="8.720575070525737"><ele>73.0</ele><time>2026-05-01T13:21:01.999Z</time></trkpt><trkpt lat="42.52985452470098" lon="8.720602770333592"><ele>73.0</ele><time>2026-05-01T13:21:02.999Z</time></trkpt><trkpt lat="42.529724921197555" lon="8.720627151752433"><ele>73.0</ele><time>2026-05-01T13:21:03.999Z</time></trkpt><trkpt lat="42.52961098181974" lon="8.72064641597677"><ele>73.0</ele><time>2026-05-01T13:21:04.999Z</time></trkpt><trkpt lat="42.52950181203921" lon="8.72066803339688"><ele>69.6</ele><time>2026-05-01T13:21:05.999Z</time></trkpt><trkpt lat="42.52940436402229" lon="8.720717414939678"><ele>66.19999999999999</ele><time>2026-05-01T13:21:06.999Z</time></trkpt><trkpt lat="42.529334917214385" lon="8.72082303229755"><ele>62.8</ele><time>2026-05-01T13:21:07.999Z</time></trkpt><trkpt lat="42.529305382450126" lon="8.720947760711187"><ele>59.4</ele><time>2026-05-01T13:21:08.999Z</time></trkpt><trkpt lat="42.52930450195211" lon="8.721090028893101"><ele>56.0</ele><time>2026-05-01T13:21:09.999Z</time></trkpt><trkpt lat="42.52931809923448" lon="8.721247453239268"><ele>56.0</ele><time>2026-05-01T13:21:10.999Z</time></trkpt><trkpt lat="42.5293304876857" lon="8.721430852069536"><ele>56.0</ele><time>2026-05-01T13:21:11.999Z</time></trkpt><trkpt lat="42.529340998545365" lon="8.721632398565728"><ele>56.0</ele><time>2026-05-01T13:21:12.999Z</time></trkpt><trkpt lat="42.52936039097931" lon="8.721830395540328"><ele>56.0</ele><time>2026-05-01T13:21:14Z</time></trkpt><trkpt lat="42.5294054339102" lon="8.722015270445631"><ele>54.333333333333336</ele><time>2026-05-01T13:21:15Z</time></trkpt><trkpt lat="42.529468737598066" lon="8.722194804756047"><ele>52.66666666666667</ele><time>2026-05-01T13:21:16Z</time></trkpt><trkpt lat="42.529532126542776" lon="8.722380053376162"><ele>51.0</ele><time>2026-05-01T13:21:17Z</time></trkpt><trkpt lat="42.52959685436852" lon="8.72257510907362"><ele>58.66666666666667</ele><time>2026-05-01T13:21:18Z</time></trkpt><trkpt lat="42.529660336108975" lon="8.72277622830379"><ele>66.33333333333334</ele><time>2026-05-01T13:21:19Z</time></trkpt><trkpt lat="42.52972492737931" lon="8.722987456003743"><ele>74.0</ele><time>2026-05-01T13:21:20Z</time></trkpt><trkpt lat="42.529791661065914" lon="8.723200766928688"><ele>74.0</ele><time>2026-05-01T13:21:21Z</time></trkpt><trkpt lat="42.52985382737399" lon="8.723398486957796"><ele>74.0</ele><time>2026-05-01T13:21:22Z</time></trkpt><trkpt lat="42.52991448620033" lon="8.723586416538906"><ele>74.0</ele><time>2026-05-01T13:21:23Z</time></trkpt><trkpt lat="42.52996421632491" lon="8.723772832470546"><ele>72.33333333333334</ele><time>2026-05-01T13:21:24Z</time></trkpt><trkpt lat="42.52997749386333" lon="8.723981705025157"><ele>70.66666666666667</ele><time>2026-05-01T13:21:25Z</time></trkpt><trkpt lat="42.53000665313321" lon="8.72420155814317"><ele>69.0</ele><time>2026-05-01T13:21:26Z</time></trkpt><trkpt lat="42.5300064832108" lon="8.724408935725682"><ele>67.5</ele><time>2026-05-01T13:21:27Z</time></trkpt><trkpt lat="42.5300122069484" lon="8.724595103695103"><ele>66.0</ele><time>2026-05-01T13:21:28Z</time></trkpt><trkpt lat="42.530039185053724" lon="8.72478408612944"><ele>64.5</ele><time>2026-05-01T13:21:29Z</time></trkpt><trkpt lat="42.5300781853006" lon="8.724984553653005"><ele>63.0</ele><time>2026-05-01T13:21:30Z</time></trkpt><trkpt lat="42.53013039526264" lon="8.725181703170636"><ele>62.75</ele><time>2026-05-01T13:21:31Z</time></trkpt><trkpt lat="42.53018591967417" lon="8.725355840179539"><ele>62.5</ele><time>2026-05-01T13:21:32Z</time></trkpt><trkpt lat="42.53023287529856" lon="8.72551447190114"><ele>62.25</ele><time>2026-05-01T13:21:33Z</time></trkpt><trkpt lat="42.53026070264618" lon="8.725648448937779"><ele>62.0</ele><time>2026-05-01T13:21:34Z</time></trkpt><trkpt lat="42.53026939614353" lon="8.725774817032285"><ele>62.0</ele><time>2026-05-01T13:21:35.001Z</time></trkpt><trkpt lat="42.53021542770129" lon="8.725876908797266"><ele>62.0</ele><time>2026-05-01T13:21:36.001Z</time></trkpt><trkpt lat="42.53017258372452" lon="8.725976040788073"><ele>62.0</ele><time>2026-05-01T13:21:37.001Z</time></trkpt><trkpt lat="42.53010203630592" lon="8.726088692666984"><ele>62.0</ele><time>2026-05-01T13:21:38.001Z</time></trkpt><trkpt lat="42.530026099858496" lon="8.726237834436878"><ele>62.0</ele><time>2026-05-01T13:21:39.001Z</time></trkpt><trkpt lat="42.52994514096531" lon="8.726404978887826"><ele>65.33333333333334</ele><time>2026-05-01T13:21:40.001Z</time></trkpt><trkpt lat="42.52985791881477" lon="8.726584211605589"><ele>68.66666666666667</ele><time>2026-05-01T13:21:41.001Z</time></trkpt><trkpt lat="42.52976221964307" lon="8.726774129798407"><ele>72.0</ele><time>2026-05-01T13:21:42.001Z</time></trkpt><trkpt lat="42.529666136476166" lon="8.726961867577984"><ele>70.25</ele><time>2026-05-01T13:21:43.001Z</time></trkpt><trkpt lat="42.52957360412715" lon="8.727137196008245"><ele>68.5</ele><time>2026-05-01T13:21:44.001Z</time></trkpt><trkpt lat="42.529489417453675" lon="8.727286983467014"><ele>66.75</ele><time>2026-05-01T13:21:45.001Z</time></trkpt><trkpt lat="42.52940132525201" lon="8.727405049737753"><ele>65.0</ele><time>2026-05-01T13:21:46.001Z</time></trkpt><trkpt lat="42.529293278724346" lon="8.727509784326374"><ele>65.0</ele><time>2026-05-01T13:21:47.001Z</time></trkpt><trkpt lat="42.529156685051774" lon="8.7275815859116"><ele>65.0</ele><time>2026-05-01T13:21:48.001Z</time></trkpt><trkpt lat="42.52902910836593" lon="8.72768342313993"><ele>65.0</ele><time>2026-05-01T13:21:49.001Z</time></trkpt><trkpt lat="42.528895575297256" lon="8.727766608158891"><ele>65.0</ele><time>2026-05-01T13:21:50.001Z</time></trkpt><trkpt lat="42.52876647326622" lon="8.727854307618198"><ele>68.66666666666667</ele><time>2026-05-01T13:21:51.001Z</time></trkpt><trkpt lat="42.528633789688" lon="8.727945991811804"><ele>72.33333333333333</ele><time>2026-05-01T13:21:52.001Z</time></trkpt><trkpt lat="42.52849945497749" lon="8.728040754002533"><ele>76.0</ele><time>2026-05-01T13:21:53.001Z</time></trkpt><trkpt lat="42.52836492769284" lon="8.728135152089168"><ele>76.0</ele><time>2026-05-01T13:21:54.001Z</time></trkpt><trkpt lat="42.528227903908586" lon="8.72822641346282"><ele>76.0</ele><time>2026-05-01T13:21:55.001Z</time></trkpt><trkpt lat="42.5280892329409" lon="8.728309251761354"><ele>76.0</ele><time>2026-05-01T13:21:56.001Z</time></trkpt><trkpt lat="42.5279478976144" lon="8.728372080170297"><ele>73.25</ele><time>2026-05-01T13:21:57.001Z</time></trkpt><trkpt lat="42.5278024287939" lon="8.728422938225595"><ele>70.5</ele><time>2026-05-01T13:21:58.001Z</time></trkpt><trkpt lat="42.52766639133253" lon="8.72847042303244"><ele>67.75</ele><time>2026-05-01T13:21:59.001Z</time></trkpt><trkpt lat="42.52755600524167" lon="8.728512201709266"><ele>65.0</ele><time>2026-05-01T13:22:00.001Z</time></trkpt><trkpt lat="42.52744973533011" lon="8.728554646785534"><ele>68.5</ele><time>2026-05-01T13:22:01.001Z</time></trkpt><trkpt lat="42.527344382435246" lon="8.728599752581076"><ele>72.0</ele><time>2026-05-01T13:22:02.001Z</time></trkpt><trkpt lat="42.527227605259824" lon="8.728642744022672"><ele>75.5</ele><time>2026-05-01T13:22:03.001Z</time></trkpt><trkpt lat="42.527109552140125" lon="8.72868867883084"><ele>79.0</ele><time>2026-05-01T13:22:04.002Z</time></trkpt><trkpt lat="42.52698942127712" lon="8.72873706205431"><ele>79.0</ele><time>2026-05-01T13:22:05.002Z</time></trkpt><trkpt lat="42.52685961854832" lon="8.728788222765624"><ele>79.0</ele><time>2026-05-01T13:22:06.002Z</time></trkpt><trkpt lat="42.52672035962532" lon="8.728833794205794"><ele>79.0</ele><time>2026-05-01T13:22:07.002Z</time></trkpt><trkpt lat="42.52657211674044" lon="8.728836427412451"><ele>79.0</ele><time>2026-05-01T13:22:08.002Z</time></trkpt><trkpt lat="42.52641686140682" lon="8.728869176354848"><ele>79.0</ele><time>2026-05-01T13:22:09.002Z</time></trkpt><trkpt lat="42.526252921907734" lon="8.728858106187175"><ele>79.0</ele><time>2026-05-01T13:22:10.002Z</time></trkpt><trkpt lat="42.52608038165933" lon="8.728847113152117"><ele>79.0</ele><time>2026-05-01T13:22:11.002Z</time></trkpt><trkpt lat="42.525918146605534" lon="8.728834948595187"><ele>79.75</ele><time>2026-05-01T13:22:12.002Z</time></trkpt><trkpt lat="42.52577664998362" lon="8.728827493539315"><ele>80.5</ele><time>2026-05-01T13:22:13.002Z</time></trkpt><trkpt lat="42.52564878029459" lon="8.72882017569736"><ele>81.25</ele><time>2026-05-01T13:22:14.002Z</time></trkpt><trkpt lat="42.5255165626709" lon="8.728813691181829"><ele>82.0</ele><time>2026-05-01T13:22:15.002Z</time></trkpt><trkpt lat="42.5253739691481" lon="8.72881618963623"><ele>83.25</ele><time>2026-05-01T13:22:16.002Z</time></trkpt><trkpt lat="42.52524059053074" lon="8.728811935345517"><ele>84.5</ele><time>2026-05-01T13:22:17.002Z</time></trkpt><trkpt lat="42.5251273045642" lon="8.72880268841966"><ele>85.75</ele><time>2026-05-01T13:22:18.002Z</time></trkpt><trkpt lat="42.52502915093682" lon="8.7287372865784"><ele>87.0</ele><time>2026-05-01T13:22:19.002Z</time></trkpt><trkpt lat="42.52493524011599" lon="8.72864727624023"><ele>85.0</ele><time>2026-05-01T13:22:20.002Z</time></trkpt><trkpt lat="42.52482754414062" lon="8.72855165445319"><ele>83.0</ele><time>2026-05-01T13:22:21.002Z</time></trkpt><trkpt lat="42.52471469490273" lon="8.728459671454374"><ele>81.0</ele><time>2026-05-01T13:22:22.002Z</time></trkpt><trkpt lat="42.5246630202357" lon="8.728313710994197"><ele>79.0</ele><time>2026-05-01T13:22:23.002Z</time></trkpt><trkpt lat="42.524652307400736" lon="8.728192846211456"><ele>79.0</ele><time>2026-05-01T13:22:24.002Z</time></trkpt><trkpt lat="42.524658351279925" lon="8.728074234063683"><ele>79.0</ele><time>2026-05-01T13:22:25.002Z</time></trkpt><trkpt lat="42.524717243426664" lon="8.7279728052222"><ele>79.0</ele><time>2026-05-01T13:22:26.002Z</time></trkpt><trkpt lat="42.52476914991345" lon="8.72784416455472"><ele>79.0</ele><time>2026-05-01T13:22:27.002Z</time></trkpt><trkpt lat="42.524781147187966" lon="8.727695200188347"><ele>79.0</ele><time>2026-05-01T13:22:28.002Z</time></trkpt><trkpt lat="42.52476746413591" lon="8.727541613166958"><ele>80.5</ele><time>2026-05-01T13:22:29.002Z</time></trkpt><trkpt lat="42.524713068002114" lon="8.727378062303604"><ele>82.0</ele><time>2026-05-01T13:22:30.002Z</time></trkpt><trkpt lat="42.52463729220714" lon="8.72721574006415"><ele>83.5</ele><time>2026-05-01T13:22:31.002Z</time></trkpt><trkpt lat="42.52453726604722" lon="8.727066442781764"><ele>85.0</ele><time>2026-05-01T13:22:32.002Z</time></trkpt><trkpt lat="42.5244201887088" lon="8.726915763405962"><ele>83.33333333333333</ele><time>2026-05-01T13:22:33.002Z</time></trkpt><trkpt lat="42.52431021705614" lon="8.726735702300145"><ele>81.66666666666667</ele><time>2026-05-01T13:22:34.002Z</time></trkpt><trkpt lat="42.524207134282044" lon="8.726579259891931"><ele>80.0</ele><time>2026-05-01T13:22:35.002Z</time></trkpt><trkpt lat="42.524122274857596" lon="8.726415185646466"><ele>80.0</ele><time>2026-05-01T13:22:36.002Z</time></trkpt><trkpt lat="42.52405961695365" lon="8.726246301005562"><ele>80.0</ele><time>2026-05-01T13:22:37.003Z</time></trkpt><trkpt lat="42.52399714944546" lon="8.726078470753768"><ele>80.0</ele><time>2026-05-01T13:22:38.003Z</time></trkpt><trkpt lat="42.5239375501428" lon="8.725918346405187"><ele>80.0</ele><time>2026-05-01T13:22:39.003Z</time></trkpt><trkpt lat="42.52386182109409" lon="8.725763607687393"><ele>80.5</ele><time>2026-05-01T13:22:40.003Z</time></trkpt><trkpt lat="42.5237991153519" lon="8.72559468765614"><ele>81.0</ele><time>2026-05-01T13:22:41.003Z</time></trkpt><trkpt lat="42.52373935886451" lon="8.725435174653215"><ele>81.5</ele><time>2026-05-01T13:22:42.003Z</time></trkpt><trkpt lat="42.523696782288695" lon="8.725271480183439"><ele>82.0</ele><time>2026-05-01T13:22:43.003Z</time></trkpt><trkpt lat="42.52364337772147" lon="8.725128591657084"><ele>82.0</ele><time>2026-05-01T13:22:44.003Z</time></trkpt><trkpt lat="42.5235922075077" lon="8.724992572197069"><ele>82.0</ele><time>2026-05-01T13:22:45.003Z</time></trkpt><trkpt lat="42.52352789238121" lon="8.724870981628376"><ele>82.0</ele><time>2026-05-01T13:22:46.003Z</time></trkpt><trkpt lat="42.523485249706205" lon="8.724740306617983"><ele>82.0</ele><time>2026-05-01T13:22:47.003Z</time></trkpt><trkpt lat="42.5234732257085" lon="8.724610213046335"><ele>82.0</ele><time>2026-05-01T13:22:48.003Z</time></trkpt><trkpt lat="42.523482362494036" lon="8.72448815471253"><ele>81.0</ele><time>2026-05-01T13:22:49.003Z</time></trkpt><trkpt lat="42.52351843548799" lon="8.724369707190963"><ele>80.0</ele><time>2026-05-01T13:22:50.003Z</time></trkpt><trkpt lat="42.52354511277159" lon="8.724223972111606"><ele>79.0</ele><time>2026-05-01T13:22:51.003Z</time></trkpt><trkpt lat="42.52358140143113" lon="8.72407417203689"><ele>78.0</ele><time>2026-05-01T13:22:52.003Z</time></trkpt><trkpt lat="42.52359840069377" lon="8.723920392662404"><ele>77.0</ele><time>2026-05-01T13:22:53.003Z</time></trkpt><trkpt lat="42.52358801109826" lon="8.723756841412047"><ele>77.0</ele><time>2026-05-01T13:22:54.003Z</time></trkpt><trkpt lat="42.52354936878275" lon="8.723571616137896"><ele>77.0</ele><time>2026-05-01T13:22:55.003Z</time></trkpt><trkpt lat="42.523487158446336" lon="8.723379243666244"><ele>77.0</ele><time>2026-05-01T13:22:56.003Z</time></trkpt><trkpt lat="42.52341567565442" lon="8.723189472682824"><ele>75.0</ele><time>2026-05-01T13:22:57.003Z</time></trkpt><trkpt lat="42.52334128128113" lon="8.723011637625717"><ele>73.0</ele><time>2026-05-01T13:22:58.003Z</time></trkpt><trkpt lat="42.52328634686686" lon="8.722826906908198"><ele>71.0</ele><time>2026-05-01T13:22:59.003Z</time></trkpt><trkpt lat="42.523207782066116" lon="8.722673030600962"><ele>69.0</ele><time>2026-05-01T13:23:00.003Z</time></trkpt><trkpt lat="42.523147754795325" lon="8.722512489953116"><ele>71.75</ele><time>2026-05-01T13:23:01.003Z</time></trkpt><trkpt lat="42.52308545529367" lon="8.722357069432753"><ele>74.5</ele><time>2026-05-01T13:23:02.003Z</time></trkpt><trkpt lat="42.523020413850645" lon="8.72220682435563"><ele>77.25</ele><time>2026-05-01T13:23:03.003Z</time></trkpt><trkpt lat="42.52295723855235" lon="8.722041716463206"><ele>80.0</ele><time>2026-05-01T13:23:04.003Z</time></trkpt><trkpt lat="42.522841233777825" lon="8.721904821413796"><ele>72.66666666666667</ele><time>2026-05-01T13:23:05.003Z</time></trkpt><trkpt lat="42.52271290919178" lon="8.72175264325287"><ele>65.33333333333333</ele><time>2026-05-01T13:23:05.999Z</time></trkpt><trkpt lat="42.52260341913002" lon="8.721581838410915"><ele>58.0</ele><time>2026-05-01T13:23:06.999Z</time></trkpt><trkpt lat="42.52248833482857" lon="8.721430551475756"><ele>58.0</ele><time>2026-05-01T13:23:07.999Z</time></trkpt><trkpt lat="42.52238412046149" lon="8.721293260394223"><ele>58.0</ele><time>2026-05-01T13:23:08.999Z</time></trkpt><trkpt lat="42.522282117934104" lon="8.72115770573613"><ele>58.0</ele><time>2026-05-01T13:23:09.999Z</time></trkpt><trkpt lat="42.5221861812027" lon="8.721030210778448"><ele>58.0</ele><time>2026-05-01T13:23:10.999Z</time></trkpt><trkpt lat="42.522077008822194" lon="8.720937830985225"><ele>56.0</ele><time>2026-05-01T13:23:11.999Z</time></trkpt><trkpt lat="42.52196768892029" lon="8.72086133122632"><ele>54.0</ele><time>2026-05-01T13:23:12.999Z</time></trkpt><trkpt lat="42.52185256033274" lon="8.720812453191021"><ele>52.0</ele><time>2026-05-01T13:23:13.999Z</time></trkpt><trkpt lat="42.52173618109688" lon="8.720779453300977"><ele>50.0</ele><time>2026-05-01T13:23:14.999Z</time></trkpt><trkpt lat="42.521626493769006" lon="8.720750334327738"><ele>50.0</ele><time>2026-05-01T13:23:15.999Z</time></trkpt><trkpt lat="42.52151215726437" lon="8.72072310010306"><ele>50.0</ele><time>2026-05-01T13:23:16.999Z</time></trkpt><trkpt lat="42.5213901521607" lon="8.720709446010103"><ele>50.0</ele><time>2026-05-01T13:23:17.999Z</time></trkpt><trkpt lat="42.5212636149163" lon="8.720719083556416"><ele>50.0</ele><time>2026-05-01T13:23:18.999Z</time></trkpt><trkpt lat="42.52112630487666" lon="8.7207565891782"><ele>49.5</ele><time>2026-05-01T13:23:19.999Z</time></trkpt><trkpt lat="42.52098210522287" lon="8.720818109582789"><ele>49.0</ele><time>2026-05-01T13:23:20.999Z</time></trkpt><trkpt lat="42.52084369026569" lon="8.720850235108609"><ele>48.5</ele><time>2026-05-01T13:23:22Z</time></trkpt><trkpt lat="42.52071963363971" lon="8.7209057182173"><ele>48.0</ele><time>2026-05-01T13:23:23Z</time></trkpt><trkpt lat="42.52059880202949" lon="8.720863815952608"><ele>48.0</ele><time>2026-05-01T13:23:24Z</time></trkpt><trkpt lat="42.520483858668385" lon="8.720821492900424"><ele>48.0</ele><time>2026-05-01T13:23:25Z</time></trkpt><trkpt lat="42.520359970710665" lon="8.720773744788616"><ele>48.0</ele><time>2026-05-01T13:23:26Z</time></trkpt><trkpt lat="42.52022739522427" lon="8.720745030627517"><ele>48.0</ele><time>2026-05-01T13:23:27Z</time></trkpt><trkpt lat="42.52010177861019" lon="8.720690424617471"><ele>48.0</ele><time>2026-05-01T13:23:28Z</time></trkpt><trkpt lat="42.51998779691748" lon="8.720648427622713"><ele>48.0</ele><time>2026-05-01T13:23:29Z</time></trkpt><trkpt lat="42.51989517974182" lon="8.720578661375116"><ele>48.0</ele><time>2026-05-01T13:23:30Z</time></trkpt><trkpt lat="42.51981825275595" lon="8.720521797592262"><ele>48.0</ele><time>2026-05-01T13:23:31Z</time></trkpt><trkpt lat="42.51976509276108" lon="8.72044008374157"><ele>48.0</ele><time>2026-05-01T13:23:32Z</time></trkpt><trkpt lat="42.51976465747989" lon="8.720328414366094"><ele>48.0</ele><time>2026-05-01T13:23:33Z</time></trkpt><trkpt lat="42.51980125589047" lon="8.720203514646265"><ele>48.0</ele><time>2026-05-01T13:23:34Z</time></trkpt><trkpt lat="42.51984361983397" lon="8.720053765285698"><ele>48.0</ele><time>2026-05-01T13:23:35Z</time></trkpt><trkpt lat="42.51990229702873" lon="8.71989213166756"><ele>48.0</ele><time>2026-05-01T13:23:36Z</time></trkpt><trkpt lat="42.519988954278816" lon="8.719717287548571"><ele>48.0</ele><time>2026-05-01T13:23:37Z</time></trkpt><trkpt lat="42.52005769025245" lon="8.719505084230248"><ele>48.0</ele><time>2026-05-01T13:23:38Z</time></trkpt><trkpt lat="42.52014679537653" lon="8.719294395831685"><ele>48.0</ele><time>2026-05-01T13:23:39Z</time></trkpt><trkpt lat="42.520225966715365" lon="8.719085777319526"><ele>47.333333333333336</ele><time>2026-05-01T13:23:40Z</time></trkpt><trkpt lat="42.52030269570523" lon="8.718899494054261"><ele>46.66666666666667</ele><time>2026-05-01T13:23:41.001Z</time></trkpt><trkpt lat="42.52038268255871" lon="8.718709357777096"><ele>46.0</ele><time>2026-05-01T13:23:42.001Z</time></trkpt><trkpt lat="42.520461444791316" lon="8.71851667762536"><ele>46.0</ele><time>2026-05-01T13:23:43.001Z</time></trkpt><trkpt lat="42.52053463837673" lon="8.71832585439799"><ele>46.0</ele><time>2026-05-01T13:23:44.001Z</time></trkpt><trkpt lat="42.520608650660336" lon="8.71814067593778"><ele>46.0</ele><time>2026-05-01T13:23:45.001Z</time></trkpt><trkpt lat="42.52068490763054" lon="8.71794708318818"><ele>46.0</ele><time>2026-05-01T13:23:46.001Z</time></trkpt><trkpt lat="42.52076828616962" lon="8.717762284592794"><ele>46.0</ele><time>2026-05-01T13:23:47.001Z</time></trkpt><trkpt lat="42.5208840242761" lon="8.717612880828755"><ele>46.0</ele><time>2026-05-01T13:23:48.001Z</time></trkpt><trkpt lat="42.52099433124531" lon="8.717450277480285"><ele>45.5</ele><time>2026-05-01T13:23:49.001Z</time></trkpt><trkpt lat="42.52108965911618" lon="8.717281832966625"><ele>45.0</ele><time>2026-05-01T13:23:50.001Z</time></trkpt><trkpt lat="42.52118582685684" lon="8.717141899973392"><ele>44.5</ele><time>2026-05-01T13:23:51.001Z</time></trkpt><trkpt lat="42.52126515833577" lon="8.716983829749948"><ele>44.0</ele><time>2026-05-01T13:23:52.001Z</time></trkpt><trkpt lat="42.52131382642144" lon="8.716795002965318"><ele>46.666666666666664</ele><time>2026-05-01T13:23:53.001Z</time></trkpt><trkpt lat="42.521361018454655" lon="8.716587347812487"><ele>49.33333333333333</ele><time>2026-05-01T13:23:54.001Z</time></trkpt><trkpt lat="42.52140435396537" lon="8.716369303568953"><ele>52.0</ele><time>2026-05-01T13:23:55.001Z</time></trkpt><trkpt lat="42.52145166045594" lon="8.716170989569228"><ele>54.25</ele><time>2026-05-01T13:23:56.001Z</time></trkpt><trkpt lat="42.52149769296543" lon="8.715995814251386"><ele>56.5</ele><time>2026-05-01T13:23:57.001Z</time></trkpt><trkpt lat="42.521537616235506" lon="8.715830857394984"><ele>58.75</ele><time>2026-05-01T13:23:58.001Z</time></trkpt><trkpt lat="42.52158087231735" lon="8.715656993457479"><ele>61.0</ele><time>2026-05-01T13:23:59.001Z</time></trkpt><trkpt lat="42.52162651666803" lon="8.71547946441089"><ele>61.0</ele><time>2026-05-01T13:24:00.001Z</time></trkpt><trkpt lat="42.52167743841134" lon="8.715312962919779"><ele>61.0</ele><time>2026-05-01T13:24:01.001Z</time></trkpt><trkpt lat="42.52176760900745" lon="8.71521311844107"><ele>61.0</ele><time>2026-05-01T13:24:02.001Z</time></trkpt><trkpt lat="42.5218653711293" lon="8.715127962407987"><ele>61.0</ele><time>2026-05-01T13:24:03.001Z</time></trkpt><trkpt lat="42.52197439257913" lon="8.715026274570567"><ele>61.5</ele><time>2026-05-01T13:24:04.001Z</time></trkpt><trkpt lat="42.52209616077209" lon="8.714944062972297"><ele>62.0</ele><time>2026-05-01T13:24:05.001Z</time></trkpt><trkpt lat="42.52221770116874" lon="8.714853943102929"><ele>62.5</ele><time>2026-05-01T13:24:06.001Z</time></trkpt><trkpt lat="42.522345103106474" lon="8.714766065838253"><ele>63.0</ele><time>2026-05-01T13:24:07.001Z</time></trkpt><trkpt lat="42.52248635710063" lon="8.714704652537842"><ele>63.0</ele><time>2026-05-01T13:24:08.001Z</time></trkpt><trkpt lat="42.52263653097554" lon="8.714689108573008"><ele>63.0</ele><time>2026-05-01T13:24:09.001Z</time></trkpt><trkpt lat="42.52277284023235" lon="8.714636533361158"><ele>63.0</ele><time>2026-05-01T13:24:10.001Z</time></trkpt><trkpt lat="42.522892204810034" lon="8.714586989261761"><ele>63.0</ele><time>2026-05-01T13:24:11.002Z</time></trkpt><trkpt lat="42.52299070113481" lon="8.714497749214583"><ele>64.0</ele><time>2026-05-01T13:24:12.002Z</time></trkpt><trkpt lat="42.52308220752796" lon="8.714364093174554"><ele>65.0</ele><time>2026-05-01T13:24:13.002Z</time></trkpt><trkpt lat="42.52315918759594" lon="8.714204934645503"><ele>66.0</ele><time>2026-05-01T13:24:14.002Z</time></trkpt><trkpt lat="42.52321455425077" lon="8.714025215984702"><ele>67.0</ele><time>2026-05-01T13:24:15.002Z</time></trkpt><trkpt lat="42.523248102817824" lon="8.713830009795146"><ele>67.0</ele><time>2026-05-01T13:24:16.002Z</time></trkpt><trkpt lat="42.52326391822288" lon="8.713630084892587"><ele>67.0</ele><time>2026-05-01T13:24:17.002Z</time></trkpt><trkpt lat="42.523269765227994" lon="8.713435560723745"><ele>67.0</ele><time>2026-05-01T13:24:18.002Z</time></trkpt><trkpt lat="42.523266186597915" lon="8.713235662225648"><ele>67.0</ele><time>2026-05-01T13:24:19.002Z</time></trkpt><trkpt lat="42.523259883693235" lon="8.713041752355053"><ele>67.25</ele><time>2026-05-01T13:24:20.002Z</time></trkpt><trkpt lat="42.52324944042194" lon="8.712868424358502"><ele>67.5</ele><time>2026-05-01T13:24:21.002Z</time></trkpt><trkpt lat="42.523235102453505" lon="8.712711744914936"><ele>67.75</ele><time>2026-05-01T13:24:22.002Z</time></trkpt><trkpt lat="42.523207303954806" lon="8.712569280884358"><ele>68.0</ele><time>2026-05-01T13:24:23.002Z</time></trkpt><trkpt lat="42.523152715869564" lon="8.712431137263577"><ele>68.0</ele><time>2026-05-01T13:24:24.002Z</time></trkpt><trkpt lat="42.52305631843773" lon="8.71230814939213"><ele>68.0</ele><time>2026-05-01T13:24:25.002Z</time></trkpt><trkpt lat="42.52293962828973" lon="8.712209827208914"><ele>68.0</ele><time>2026-05-01T13:24:26.002Z</time></trkpt><trkpt lat="42.52281079694953" lon="8.712150774846146"><ele>68.0</ele><time>2026-05-01T13:24:27.002Z</time></trkpt><trkpt lat="42.522676823052144" lon="8.71213677580758"><ele>72.5</ele><time>2026-05-01T13:24:28.002Z</time></trkpt><trkpt lat="42.52254558079857" lon="8.712135822862894"><ele>77.0</ele><time>2026-05-01T13:24:29.002Z</time></trkpt><trkpt lat="42.522414577588734" lon="8.712168862683141"><ele>81.5</ele><time>2026-05-01T13:24:30.002Z</time></trkpt><trkpt lat="42.522283403971" lon="8.712216916476885"><ele>86.0</ele><time>2026-05-01T13:24:31.002Z</time></trkpt><trkpt lat="42.52214773421798" lon="8.712262657612236"><ele>87.0</ele><time>2026-05-01T13:24:32.002Z</time></trkpt><trkpt lat="42.522009294368274" lon="8.71229858024467"><ele>88.0</ele><time>2026-05-01T13:24:33.002Z</time></trkpt><trkpt lat="42.521866763258764" lon="8.712338204464274"><ele>89.0</ele><time>2026-05-01T13:24:34.002Z</time></trkpt><trkpt lat="42.52173331276077" lon="8.712373347079913"><ele>90.0</ele><time>2026-05-01T13:24:35.002Z</time></trkpt><trkpt lat="42.521615051164794" lon="8.712354861321531"><ele>90.0</ele><time>2026-05-01T13:24:36.002Z</time></trkpt><trkpt lat="42.52150806222864" lon="8.712357157737582"><ele>90.0</ele><time>2026-05-01T13:24:37.002Z</time></trkpt><trkpt lat="42.52143263598935" lon="8.712244378313272"><ele>90.0</ele><time>2026-05-01T13:24:38.002Z</time></trkpt><trkpt lat="42.52136058677135" lon="8.712127523866073"><ele>90.0</ele><time>2026-05-01T13:24:39.002Z</time></trkpt><trkpt lat="42.52127305648893" lon="8.711996070772987"><ele>90.33333333333333</ele><time>2026-05-01T13:24:40.002Z</time></trkpt><trkpt lat="42.5211678995259" lon="8.711866779424792"><ele>90.66666666666666</ele><time>2026-05-01T13:24:41.002Z</time></trkpt><trkpt lat="42.52105163153221" lon="8.71173226858845"><ele>91.0</ele><time>2026-05-01T13:24:42.002Z</time></trkpt><trkpt lat="42.52091621637053" lon="8.711607682762562"><ele>91.0</ele><time>2026-05-01T13:24:43.002Z</time></trkpt><trkpt lat="42.52076669072181" lon="8.71148857381659"><ele>91.0</ele><time>2026-05-01T13:24:44.002Z</time></trkpt><trkpt lat="42.520624978194896" lon="8.711344105879627"><ele>91.0</ele><time>2026-05-01T13:24:45.003Z</time></trkpt><trkpt lat="42.52047521308388" lon="8.7112098169481"><ele>92.66666666666666</ele><time>2026-05-01T13:24:46.003Z</time></trkpt><trkpt lat="42.52033365301513" lon="8.711056207443715"><ele>94.33333333333333</ele><time>2026-05-01T13:24:47.003Z</time></trkpt><trkpt lat="42.520223923902094" lon="8.710883840390144"><ele>96.0</ele><time>2026-05-01T13:24:48.003Z</time></trkpt><trkpt lat="42.52013280550435" lon="8.710709529453913"><ele>96.0</ele><time>2026-05-01T13:24:49.003Z</time></trkpt><trkpt lat="42.52004244190644" lon="8.710535995341434"><ele>96.0</ele><time>2026-05-01T13:24:50.003Z</time></trkpt><trkpt lat="42.519936013207655" lon="8.71033896351263"><ele>96.0</ele><time>2026-05-01T13:24:51.003Z</time></trkpt><trkpt lat="42.51980716097955" lon="8.710147336363313"><ele>100.33333333333334</ele><time>2026-05-01T13:24:52.003Z</time></trkpt><trkpt lat="42.51968582269646" lon="8.709943038559365"><ele>104.66666666666667</ele><time>2026-05-01T13:24:53.003Z</time></trkpt><trkpt lat="42.51957473703074" lon="8.709765354270056"><ele>109.0</ele><time>2026-05-01T13:24:54.003Z</time></trkpt><trkpt lat="42.51947068946262" lon="8.709623538838226"><ele>109.0</ele><time>2026-05-01T13:24:55.003Z</time></trkpt><trkpt lat="42.51936727887489" lon="8.709517288733363"><ele>109.0</ele><time>2026-05-01T13:24:56.003Z</time></trkpt><trkpt lat="42.51928634912939" lon="8.709409616009685"><ele>109.0</ele><time>2026-05-01T13:24:57.003Z</time></trkpt><trkpt lat="42.51921558818057" lon="8.70931762366995"><ele>109.0</ele><time>2026-05-01T13:24:58.003Z</time></trkpt><trkpt lat="42.519171988151484" lon="8.70922496971552"><ele>109.0</ele><time>2026-05-01T13:24:59.003Z</time></trkpt><trkpt lat="42.519166626497416" lon="8.709121204257386"><ele>106.6</ele><time>2026-05-01T13:25:00.003Z</time></trkpt><trkpt lat="42.51920341811828" lon="8.709022327931352"><ele>104.2</ele><time>2026-05-01T13:25:01.003Z</time></trkpt><trkpt lat="42.519259284297235" lon="8.708905285814849"><ele>101.8</ele><time>2026-05-01T13:25:02.003Z</time></trkpt><trkpt lat="42.51930387254724" lon="8.708753543758313"><ele>99.39999999999999</ele><time>2026-05-01T13:25:03.003Z</time></trkpt><trkpt lat="42.51935821629074" lon="8.708608621441195"><ele>97.0</ele><time>2026-05-01T13:25:04.003Z</time></trkpt><trkpt lat="42.51939080983553" lon="8.708447018582973"><ele>96.5</ele><time>2026-05-01T13:25:05.003Z</time></trkpt><trkpt lat="42.51939422745907" lon="8.708262979038906"><ele>96.0</ele><time>2026-05-01T13:25:06.003Z</time></trkpt><trkpt lat="42.519357123221155" lon="8.708077049459444"><ele>95.5</ele><time>2026-05-01T13:25:07.003Z</time></trkpt><trkpt lat="42.51929191931471" lon="8.707905560496625"><ele>95.0</ele><time>2026-05-01T13:25:08.003Z</time></trkpt><trkpt lat="42.519205813996365" lon="8.707750568208176"><ele>92.0</ele><time>2026-05-01T13:25:09.003Z</time></trkpt><trkpt lat="42.51910257945679" lon="8.707598494305937"><ele>89.0</ele><time>2026-05-01T13:25:10.003Z</time></trkpt><trkpt lat="42.51901689571178" lon="8.70745523655677"><ele>86.0</ele><time>2026-05-01T13:25:11.003Z</time></trkpt><trkpt lat="42.518944303842765" lon="8.7073322580665"><ele>83.0</ele><time>2026-05-01T13:25:11.998Z</time></trkpt><trkpt lat="42.51886152083904" lon="8.707245907726351"><ele>83.0</ele><time>2026-05-01T13:25:12.998Z</time></trkpt><trkpt lat="42.518754723174986" lon="8.707215560983489"><ele>83.0</ele><time>2026-05-01T13:25:13.998Z</time></trkpt><trkpt lat="42.518644923294275" lon="8.70715635233327"><ele>83.0</ele><time>2026-05-01T13:25:14.998Z</time></trkpt><trkpt lat="42.51853745720737" lon="8.707063634880562"><ele>83.0</ele><time>2026-05-01T13:25:15.998Z</time></trkpt><trkpt lat="42.51843241922377" lon="8.70694013681671"><ele>85.5</ele><time>2026-05-01T13:25:16.998Z</time></trkpt><trkpt lat="42.51834752135627" lon="8.706810708252148"><ele>88.0</ele><time>2026-05-01T13:25:17.998Z</time></trkpt><trkpt lat="42.51831544848016" lon="8.70664796652754"><ele>90.5</ele><time>2026-05-01T13:25:18.999Z</time></trkpt><trkpt lat="42.51827048269982" lon="8.70647211985263"><ele>93.0</ele><time>2026-05-01T13:25:19.999Z</time></trkpt><trkpt lat="42.51820788574769" lon="8.706295234803198"><ele>93.0</ele><time>2026-05-01T13:25:20.999Z</time></trkpt><trkpt lat="42.51817939601977" lon="8.70612688214681"><ele>93.0</ele><time>2026-05-01T13:25:21.999Z</time></trkpt><trkpt lat="42.5181544860007" lon="8.705999907302632"><ele>93.0</ele><time>2026-05-01T13:25:22.999Z</time></trkpt><trkpt lat="42.518145639145516" lon="8.705892261860017"><ele>93.0</ele><time>2026-05-01T13:25:23.999Z</time></trkpt><trkpt lat="42.51815903365236" lon="8.705799448089447"><ele>93.0</ele><time>2026-05-01T13:25:24.999Z</time></trkpt><trkpt lat="42.5182763825377" lon="8.705741014858758"><ele>93.2</ele><time>2026-05-01T13:25:26.999Z</time></trkpt><trkpt lat="42.518345857949036" lon="8.705720331356098"><ele>93.4</ele><time>2026-05-01T13:25:27.999Z</time></trkpt><trkpt lat="42.518442275890635" lon="8.705772926878744"><ele>93.60000000000001</ele><time>2026-05-01T13:25:28.999Z</time></trkpt><trkpt lat="42.518554320428706" lon="8.705854967376123"><ele>93.80000000000001</ele><time>2026-05-01T13:25:29.999Z</time></trkpt><trkpt lat="42.51867585375333" lon="8.705926912070717"><ele>94.0</ele><time>2026-05-01T13:25:30.999Z</time></trkpt><trkpt lat="42.51878831962708" lon="8.70593633650949"><ele>92.75</ele><time>2026-05-01T13:25:32Z</time></trkpt><trkpt lat="42.51888990406662" lon="8.705888291263342"><ele>91.5</ele><time>2026-05-01T13:25:33Z</time></trkpt><trkpt lat="42.5190034757846" lon="8.705802735958269"><ele>90.25</ele><time>2026-05-01T13:25:34Z</time></trkpt><trkpt lat="42.51914008753455" lon="8.705711919901647"><ele>89.0</ele><time>2026-05-01T13:25:35Z</time></trkpt><trkpt lat="42.51929517370815" lon="8.705655436377146"><ele>89.0</ele><time>2026-05-01T13:25:36Z</time></trkpt><trkpt lat="42.51944870429833" lon="8.7056117937058"><ele>89.0</ele><time>2026-05-01T13:25:37Z</time></trkpt><trkpt lat="42.51961113375638" lon="8.705604664647286"><ele>89.0</ele><time>2026-05-01T13:25:38Z</time></trkpt><trkpt lat="42.51978635913788" lon="8.70561786367463"><ele>88.33333333333334</ele><time>2026-05-01T13:25:39Z</time></trkpt><trkpt lat="42.5199805109462" lon="8.705619267338944"><ele>87.66666666666667</ele><time>2026-05-01T13:25:40Z</time></trkpt><trkpt lat="42.52017924774919" lon="8.705644417795984"><ele>87.0</ele><time>2026-05-01T13:25:41Z</time></trkpt><trkpt lat="42.52036881965804" lon="8.705651848168467"><ele>86.33333333333333</ele><time>2026-05-01T13:25:42Z</time></trkpt><trkpt lat="42.52055016269481" lon="8.705629058776415"><ele>85.66666666666666</ele><time>2026-05-01T13:25:43Z</time></trkpt><trkpt lat="42.52071877371833" lon="8.70557700785333"><ele>85.0</ele><time>2026-05-01T13:25:44Z</time></trkpt><trkpt lat="42.52087013693161" lon="8.705514009107763"><ele>85.0</ele><time>2026-05-01T13:25:45Z</time></trkpt><trkpt lat="42.521009842966016" lon="8.705444433170966"><ele>85.0</ele><time>2026-05-01T13:25:46Z</time></trkpt><trkpt lat="42.52113678382095" lon="8.705349991027864"><ele>85.0</ele><time>2026-05-01T13:25:47Z</time></trkpt><trkpt lat="42.52122983680221" lon="8.705204780817215"><ele>85.0</ele><time>2026-05-01T13:25:48Z</time></trkpt><trkpt lat="42.5212940028498" lon="8.70501742973732"><ele>84.25</ele><time>2026-05-01T13:25:49Z</time></trkpt><trkpt lat="42.52135358371576" lon="8.704841287465474"><ele>83.5</ele><time>2026-05-01T13:25:50.001Z</time></trkpt><trkpt lat="42.521434197087" lon="8.70469371633531"><ele>82.75</ele><time>2026-05-01T13:25:51.001Z</time></trkpt><trkpt lat="42.52148629174091" lon="8.704527951519406"><ele>82.0</ele><time>2026-05-01T13:25:52.001Z</time></trkpt><trkpt lat="42.52157260258846" lon="8.704380481929697"><ele>88.0</ele><time>2026-05-01T13:25:53.001Z</time></trkpt><trkpt lat="42.52165877095829" lon="8.704204135502499"><ele>94.0</ele><time>2026-05-01T13:25:54.001Z</time></trkpt><trkpt lat="42.521767136024074" lon="8.70403562076527"><ele>100.0</ele><time>2026-05-01T13:25:55.001Z</time></trkpt><trkpt lat="42.52189410492661" lon="8.703875792127267"><ele>100.0</ele><time>2026-05-01T13:25:56.001Z</time></trkpt><trkpt lat="42.52202545442713" lon="8.703732589258212"><ele>100.0</ele><time>2026-05-01T13:25:57.001Z</time></trkpt><trkpt lat="42.522149780682106" lon="8.703597229696621"><ele>100.0</ele><time>2026-05-01T13:25:58.001Z</time></trkpt><trkpt lat="42.5222659338965" lon="8.70347353162131"><ele>98.75</ele><time>2026-05-01T13:25:59.001Z</time></trkpt><trkpt lat="42.522380554869784" lon="8.703352838923548"><ele>97.5</ele><time>2026-05-01T13:26:00.001Z</time></trkpt><trkpt lat="42.52249714151724" lon="8.703235079401109"><ele>96.25</ele><time>2026-05-01T13:26:01.001Z</time></trkpt><trkpt lat="42.52260669528087" lon="8.703135136780016"><ele>95.0</ele><time>2026-05-01T13:26:02.001Z</time></trkpt><trkpt lat="42.52270348354362" lon="8.70303903337834"><ele>95.0</ele><time>2026-05-01T13:26:03.001Z</time></trkpt><trkpt lat="42.52276401517067" lon="8.702914853343882"><ele>95.0</ele><time>2026-05-01T13:26:04.001Z</time></trkpt><trkpt lat="42.52281297497981" lon="8.70278163957395"><ele>95.0</ele><time>2026-05-01T13:26:05.001Z</time></trkpt><trkpt lat="42.52283940318373" lon="8.702629987278671"><ele>95.0</ele><time>2026-05-01T13:26:06.001Z</time></trkpt><trkpt lat="42.52285693821145" lon="8.70247299684351"><ele>95.75</ele><time>2026-05-01T13:26:07.001Z</time></trkpt><trkpt lat="42.522845604709346" lon="8.702321312560063"><ele>96.5</ele><time>2026-05-01T13:26:08.001Z</time></trkpt><trkpt lat="42.52281723398925" lon="8.702184118756525"><ele>97.25</ele><time>2026-05-01T13:26:09.001Z</time></trkpt><trkpt lat="42.52278088904737" lon="8.702039270730461"><ele>98.0</ele><time>2026-05-01T13:26:10.001Z</time></trkpt><trkpt lat="42.52272868326704" lon="8.701888254692031"><ele>98.0</ele><time>2026-05-01T13:26:11.001Z</time></trkpt><trkpt lat="42.52266013800162" lon="8.701745258508277"><ele>98.0</ele><time>2026-05-01T13:26:12.001Z</time></trkpt><trkpt lat="42.52257510152551" lon="8.70161385579426"><ele>98.0</ele><time>2026-05-01T13:26:13.001Z</time></trkpt><trkpt lat="42.5224772564384" lon="8.701504993067298"><ele>98.0</ele><time>2026-05-01T13:26:14.001Z</time></trkpt><trkpt lat="42.5223800374968" lon="8.701424462676387"><ele>98.0</ele><time>2026-05-01T13:26:15.001Z</time></trkpt><trkpt lat="42.52227125947967" lon="8.701356504404314"><ele>98.0</ele><time>2026-05-01T13:26:16.001Z</time></trkpt><trkpt lat="42.522141993080695" lon="8.701294330572571"><ele>98.0</ele><time>2026-05-01T13:26:17.002Z</time></trkpt><trkpt lat="42.52201156556891" lon="8.70123278317056"><ele>98.0</ele><time>2026-05-01T13:26:18.002Z</time></trkpt><trkpt lat="42.52188414460351" lon="8.70116560266267"><ele>97.75</ele><time>2026-05-01T13:26:19.002Z</time></trkpt><trkpt lat="42.521749880354555" lon="8.70109288419117"><ele>97.5</ele><time>2026-05-01T13:26:20.002Z</time></trkpt><trkpt lat="42.52161770545171" lon="8.701021377960075"><ele>97.25</ele><time>2026-05-01T13:26:21.002Z</time></trkpt><trkpt lat="42.52149393161797" lon="8.700933961681525"><ele>97.0</ele><time>2026-05-01T13:26:22.002Z</time></trkpt><trkpt lat="42.521394612203295" lon="8.700798817648433"><ele>97.0</ele><time>2026-05-01T13:26:23.002Z</time></trkpt><trkpt lat="42.52127856892882" lon="8.700694496402235"><ele>97.0</ele><time>2026-05-01T13:26:24.002Z</time></trkpt><trkpt lat="42.52116973345771" lon="8.70055807394279"><ele>97.0</ele><time>2026-05-01T13:26:25.002Z</time></trkpt><trkpt lat="42.52104931354707" lon="8.700414983752845"><ele>97.0</ele><time>2026-05-01T13:26:26.002Z</time></trkpt><trkpt lat="42.52093272910219" lon="8.700283503941288"><ele>97.25</ele><time>2026-05-01T13:26:27.002Z</time></trkpt><trkpt lat="42.52081472184601" lon="8.700158217402176"><ele>97.5</ele><time>2026-05-01T13:26:28.002Z</time></trkpt><trkpt lat="42.52071307118332" lon="8.700026874234837"><ele>97.75</ele><time>2026-05-01T13:26:29.002Z</time></trkpt><trkpt lat="42.52059545484469" lon="8.699943731997239"><ele>98.0</ele><time>2026-05-01T13:26:30.002Z</time></trkpt><trkpt lat="42.52049442487586" lon="8.699838605804228"><ele>100.0</ele><time>2026-05-01T13:26:31.002Z</time></trkpt><trkpt lat="42.52039358117285" lon="8.699748209523127"><ele>102.0</ele><time>2026-05-01T13:26:32.002Z</time></trkpt><trkpt lat="42.52030888570001" lon="8.699642136738314"><ele>104.0</ele><time>2026-05-01T13:26:33.002Z</time></trkpt><trkpt lat="42.52022936525326" lon="8.699508198960947"><ele>106.0</ele><time>2026-05-01T13:26:34.002Z</time></trkpt><trkpt lat="42.52014999465843" lon="8.699355025997288"><ele>106.0</ele><time>2026-05-01T13:26:35.002Z</time></trkpt><trkpt lat="42.52004950316115" lon="8.699216556160584"><ele>106.0</ele><time>2026-05-01T13:26:36.002Z</time></trkpt><trkpt lat="42.51995372983335" lon="8.699078883671481"><ele>106.0</ele><time>2026-05-01T13:26:37.002Z</time></trkpt><trkpt lat="42.51984156148204" lon="8.698961403832923"><ele>106.0</ele><time>2026-05-01T13:26:38.002Z</time></trkpt><trkpt lat="42.519724764303845" lon="8.698852702367796"><ele>106.0</ele><time>2026-05-01T13:26:39.002Z</time></trkpt><trkpt lat="42.519609902207506" lon="8.698729134848335"><ele>106.0</ele><time>2026-05-01T13:26:40.002Z</time></trkpt><trkpt lat="42.51953350065801" lon="8.69858251731741"><ele>106.0</ele><time>2026-05-01T13:26:41.002Z</time></trkpt><trkpt lat="42.51946635399449" lon="8.698436648035138"><ele>106.0</ele><time>2026-05-01T13:26:42.002Z</time></trkpt><trkpt lat="42.519414837792105" lon="8.698250905236815"><ele>106.0</ele><time>2026-05-01T13:26:43.002Z</time></trkpt><trkpt lat="42.51934875806027" lon="8.698071225535088"><ele>106.0</ele><time>2026-05-01T13:26:44.002Z</time></trkpt><trkpt lat="42.51926116112383" lon="8.69790696006791"><ele>106.0</ele><time>2026-05-01T13:26:45.002Z</time></trkpt><trkpt lat="42.519185460379035" lon="8.697734386513693"><ele>106.0</ele><time>2026-05-01T13:26:46.002Z</time></trkpt><trkpt lat="42.51910781797642" lon="8.697563261528497"><ele>106.0</ele><time>2026-05-01T13:26:47.002Z</time></trkpt><trkpt lat="42.519030669217926" lon="8.697386809867718"><ele>106.0</ele><time>2026-05-01T13:26:48.002Z</time></trkpt><trkpt lat="42.51896822252634" lon="8.6972015248197"><ele>106.0</ele><time>2026-05-01T13:26:49.003Z</time></trkpt><trkpt lat="42.518883656089486" lon="8.69705817729281"><ele>106.0</ele><time>2026-05-01T13:26:50.003Z</time></trkpt><trkpt lat="42.51881421813528" lon="8.696924913224331"><ele>110.4</ele><time>2026-05-01T13:26:51.003Z</time></trkpt><trkpt lat="42.51873225652057" lon="8.696823973879894"><ele>114.8</ele><time>2026-05-01T13:26:52.003Z</time></trkpt><trkpt lat="42.51863967093518" lon="8.696756608686742"><ele>119.20000000000002</ele><time>2026-05-01T13:26:53.003Z</time></trkpt><trkpt lat="42.5185565106782" lon="8.696700047541446"><ele>123.60000000000001</ele><time>2026-05-01T13:26:54.003Z</time></trkpt><trkpt lat="42.51850954961766" lon="8.696597663026362"><ele>128.0</ele><time>2026-05-01T13:26:55.003Z</time></trkpt><trkpt lat="42.51846615102845" lon="8.696497695060389"><ele>128.0</ele><time>2026-05-01T13:26:56.003Z</time></trkpt><trkpt lat="42.51845100997308" lon="8.696377889873096"><ele>128.0</ele><time>2026-05-01T13:26:57.003Z</time></trkpt><trkpt lat="42.51846054325843" lon="8.696232767471242"><ele>128.0</ele><time>2026-05-01T13:26:58.003Z</time></trkpt><trkpt lat="42.51846356664105" lon="8.696060895734032"><ele>128.0</ele><time>2026-05-01T13:26:59.003Z</time></trkpt><trkpt lat="42.51846593811791" lon="8.695866911835285"><ele>125.66666666666666</ele><time>2026-05-01T13:27:00.003Z</time></trkpt><trkpt lat="42.518467444158965" lon="8.69565957198162"><ele>123.33333333333334</ele><time>2026-05-01T13:27:01.003Z</time></trkpt><trkpt lat="42.51846883765785" lon="8.695435311477087"><ele>121.0</ele><time>2026-05-01T13:27:02.003Z</time></trkpt><trkpt lat="42.51847015383331" lon="8.695197870793631"><ele>120.33333333333334</ele><time>2026-05-01T13:27:03.003Z</time></trkpt><trkpt lat="42.51845260357779" lon="8.69495664891881"><ele>119.66666666666666</ele><time>2026-05-01T13:27:04.003Z</time></trkpt><trkpt lat="42.518450241308756" lon="8.694733087353384"><ele>119.0</ele><time>2026-05-01T13:27:05.003Z</time></trkpt><trkpt lat="42.5184403265697" lon="8.694517093695064"><ele>118.33333333333333</ele><time>2026-05-01T13:27:06.003Z</time></trkpt><trkpt lat="42.51841970637701" lon="8.694300766021287"><ele>117.66666666666666</ele><time>2026-05-01T13:27:07.003Z</time></trkpt><trkpt lat="42.518385653111956" lon="8.69407924327802"><ele>117.0</ele><time>2026-05-01T13:27:08.003Z</time></trkpt><trkpt lat="42.51833998889272" lon="8.693855015620905"><ele>117.0</ele><time>2026-05-01T13:27:09.003Z</time></trkpt><trkpt lat="42.518307024466026" lon="8.693626578501071"><ele>117.0</ele><time>2026-05-01T13:27:10.003Z</time></trkpt><trkpt lat="42.51823319231531" lon="8.693408795864537"><ele>117.0</ele><time>2026-05-01T13:27:11.003Z</time></trkpt><trkpt lat="42.51816905802697" lon="8.693209613070422"><ele>113.33333333333334</ele><time>2026-05-01T13:27:12.003Z</time></trkpt><trkpt lat="42.518118025696054" lon="8.692992336472912"><ele>109.66666666666667</ele><time>2026-05-01T13:27:13.003Z</time></trkpt><trkpt lat="42.518042554991055" lon="8.692785214898327"><ele>106.0</ele><time>2026-05-01T13:27:14.003Z</time></trkpt><trkpt lat="42.51794614316858" lon="8.692594682628396"><ele>116.33333333333334</ele><time>2026-05-01T13:27:15.003Z</time></trkpt><trkpt lat="42.51785683737218" lon="8.692401927004365"><ele>126.66666666666666</ele><time>2026-05-01T13:27:16.003Z</time></trkpt><trkpt lat="42.5177821391574" lon="8.69220534318116"><ele>137.0</ele><time>2026-05-01T13:27:17.003Z</time></trkpt><trkpt lat="42.51770176690987" lon="8.692021595964901"><ele>132.25</ele><time>2026-05-01T13:27:17.999Z</time></trkpt><trkpt lat="42.51762962361365" lon="8.69182902671094"><ele>127.5</ele><time>2026-05-01T13:27:18.999Z</time></trkpt><trkpt lat="42.51756196561953" lon="8.691647781079785"><ele>122.75</ele><time>2026-05-01T13:27:19.999Z</time></trkpt><trkpt lat="42.51750232303389" lon="8.691485651269113"><ele>118.0</ele><time>2026-05-01T13:27:20.999Z</time></trkpt><trkpt lat="42.517445007196976" lon="8.691340522361115"><ele>118.0</ele><time>2026-05-01T13:27:21.999Z</time></trkpt><trkpt lat="42.517371189019265" lon="8.691224369056663"><ele>118.0</ele><time>2026-05-01T13:27:22.999Z</time></trkpt><trkpt lat="42.517306250567565" lon="8.691102756279788"><ele>118.0</ele><time>2026-05-01T13:27:23.999Z</time></trkpt><trkpt lat="42.51723323096839" lon="8.690975166380536"><ele>118.0</ele><time>2026-05-01T13:27:24.999Z</time></trkpt><trkpt lat="42.51710524411642" lon="8.690912559295114"><ele>116.75</ele><time>2026-05-01T13:27:25.999Z</time></trkpt><trkpt lat="42.51697731480278" lon="8.690886032791367"><ele>115.5</ele><time>2026-05-01T13:27:26.999Z</time></trkpt><trkpt lat="42.5168584519039" lon="8.690905540194109"><ele>114.25</ele><time>2026-05-01T13:27:27.999Z</time></trkpt><trkpt lat="42.516741870879585" lon="8.69094652932471"><ele>113.0</ele><time>2026-05-01T13:27:28.999Z</time></trkpt><trkpt lat="42.51662176638561" lon="8.690996842361962"><ele>113.0</ele><time>2026-05-01T13:27:29.999Z</time></trkpt><trkpt lat="42.51649928578471" lon="8.691055551898327"><ele>113.0</ele><time>2026-05-01T13:27:30.999Z</time></trkpt><trkpt lat="42.516368660803415" lon="8.691116039403557"><ele>113.0</ele><time>2026-05-01T13:27:31.999Z</time></trkpt><trkpt lat="42.516227347120164" lon="8.691129744905432"><ele>113.0</ele><time>2026-05-01T13:27:33Z</time></trkpt><trkpt lat="42.5160856973056" lon="8.691127388021396"><ele>114.0</ele><time>2026-05-01T13:27:34Z</time></trkpt><trkpt lat="42.51595648407983" lon="8.691130549672536"><ele>115.00000000000001</ele><time>2026-05-01T13:27:35Z</time></trkpt><trkpt lat="42.51584608143459" lon="8.691145804828858"><ele>116.00000000000001</ele><time>2026-05-01T13:27:36Z</time></trkpt><trkpt lat="42.51575353427249" lon="8.691129767608595"><ele>117.0</ele><time>2026-05-01T13:27:37Z</time></trkpt><trkpt lat="42.51568631642772" lon="8.691095438485469"><ele>118.0</ele><time>2026-05-01T13:27:38Z</time></trkpt><trkpt lat="42.515651606615236" lon="8.690991747527208"><ele>118.0</ele><time>2026-05-01T13:27:39Z</time></trkpt><trkpt lat="42.51560748480016" lon="8.690898173700063"><ele>118.00000000000001</ele><time>2026-05-01T13:27:40Z</time></trkpt><trkpt lat="42.515561165363664" lon="8.690781653361995"><ele>118.00000000000001</ele><time>2026-05-01T13:27:41Z</time></trkpt><trkpt lat="42.5154879396847" lon="8.690655805801452"><ele>118.0</ele><time>2026-05-01T13:27:42Z</time></trkpt><trkpt lat="42.51542777338195" lon="8.690508846408003"><ele>118.0</ele><time>2026-05-01T13:27:43Z</time></trkpt><trkpt lat="42.51535855143771" lon="8.69035374168968"><ele>124.0</ele><time>2026-05-01T13:27:44Z</time></trkpt><trkpt lat="42.51528290032215" lon="8.690182874526162"><ele>130.0</ele><time>2026-05-01T13:27:45Z</time></trkpt><trkpt lat="42.515210677702356" lon="8.690000069226908"><ele>136.0</ele><time>2026-05-01T13:27:46Z</time></trkpt><trkpt lat="42.51517445352908" lon="8.689801622029968"><ele>136.0</ele><time>2026-05-01T13:27:47Z</time></trkpt><trkpt lat="42.515129151938936" lon="8.689606950977446"><ele>136.0</ele><time>2026-05-01T13:27:48Z</time></trkpt><trkpt lat="42.515082437253355" lon="8.689396890153466"><ele>136.0</ele><time>2026-05-01T13:27:49Z</time></trkpt><trkpt lat="42.5150242733267" lon="8.689185704407251"><ele>132.25</ele><time>2026-05-01T13:27:50Z</time></trkpt><trkpt lat="42.514977404667256" lon="8.688979164423463"><ele>128.5</ele><time>2026-05-01T13:27:51Z</time></trkpt><trkpt lat="42.51493567217171" lon="8.688789317970455"><ele>124.75</ele><time>2026-05-01T13:27:52Z</time></trkpt><trkpt lat="42.51489583285361" lon="8.688616748359223"><ele>121.0</ele><time>2026-05-01T13:27:53.001Z</time></trkpt><trkpt lat="42.514852350691946" lon="8.688455322661937"><ele>118.5</ele><time>2026-05-01T13:27:54.001Z</time></trkpt><trkpt lat="42.51479559289057" lon="8.688289201368264"><ele>116.0</ele><time>2026-05-01T13:27:55.001Z</time></trkpt><trkpt lat="42.514725225012945" lon="8.688123090581474"><ele>113.5</ele><time>2026-05-01T13:27:56.001Z</time></trkpt><trkpt lat="42.51463606801428" lon="8.687962005246597"><ele>111.0</ele><time>2026-05-01T13:27:57.001Z</time></trkpt><trkpt lat="42.514545470478325" lon="8.687787145315617"><ele>120.33333333333334</ele><time>2026-05-01T13:27:58.001Z</time></trkpt><trkpt lat="42.51447336296086" lon="8.68759871820241"><ele>129.66666666666669</ele><time>2026-05-01T13:27:59.001Z</time></trkpt><trkpt lat="42.51437339337156" lon="8.687429002021814"><ele>139.0</ele><time>2026-05-01T13:28:00.001Z</time></trkpt><trkpt lat="42.51429131214592" lon="8.687253949247019"><ele>139.0</ele><time>2026-05-01T13:28:01.001Z</time></trkpt><trkpt lat="42.514210536350674" lon="8.687080943036326"><ele>139.0</ele><time>2026-05-01T13:28:02.001Z</time></trkpt><trkpt lat="42.51412348404713" lon="8.686915667436573"><ele>139.0</ele><time>2026-05-01T13:28:03.001Z</time></trkpt><trkpt lat="42.51402373879563" lon="8.686761079428203"><ele>143.25</ele><time>2026-05-01T13:28:04.001Z</time></trkpt><trkpt lat="42.513911814070134" lon="8.686627141020827"><ele>147.5</ele><time>2026-05-01T13:28:05.001Z</time></trkpt><trkpt lat="42.51382346524781" lon="8.6864841448297"><ele>151.75</ele><time>2026-05-01T13:28:06.001Z</time></trkpt><trkpt lat="42.51373898307334" lon="8.686348055601897"><ele>156.0</ele><time>2026-05-01T13:28:07.001Z</time></trkpt><trkpt lat="42.51365374906494" lon="8.68621116585041"><ele>149.75</ele><time>2026-05-01T13:28:08.001Z</time></trkpt><trkpt lat="42.5135686067554" lon="8.686074782798933"><ele>143.5</ele><time>2026-05-01T13:28:09.001Z</time></trkpt><trkpt lat="42.513467252259154" lon="8.685946843662617"><ele>137.25</ele><time>2026-05-01T13:28:10.001Z</time></trkpt><trkpt lat="42.51338185951592" lon="8.6857923966597"><ele>131.0</ele><time>2026-05-01T13:28:11.001Z</time></trkpt><trkpt lat="42.513283404149725" lon="8.685639104142782"><ele>131.0</ele><time>2026-05-01T13:28:12.001Z</time></trkpt><trkpt lat="42.51318753452655" lon="8.685504059428295"><ele>131.0</ele><time>2026-05-01T13:28:13.001Z</time></trkpt><trkpt lat="42.513082749414416" lon="8.685400245050493"><ele>131.0</ele><time>2026-05-01T13:28:14.001Z</time></trkpt><trkpt lat="42.51295966518218" lon="8.68532803919897"><ele>131.0</ele><time>2026-05-01T13:28:15.001Z</time></trkpt><trkpt lat="42.51283532700869" lon="8.68526469452677"><ele>131.0</ele><time>2026-05-01T13:28:16.001Z</time></trkpt><trkpt lat="42.512711750295956" lon="8.685197934598742"><ele>131.0</ele><time>2026-05-01T13:28:17.001Z</time></trkpt><trkpt lat="42.51258601522908" lon="8.685121885393071"><ele>131.0</ele><time>2026-05-01T13:28:18.001Z</time></trkpt><trkpt lat="42.512456674326565" lon="8.685040498743174"><ele>131.0</ele><time>2026-05-01T13:28:19.001Z</time></trkpt><trkpt lat="42.51232157999211" lon="8.684961424556015"><ele>131.0</ele><time>2026-05-01T13:28:20.001Z</time></trkpt><trkpt lat="42.51218546189542" lon="8.68487743846482"><ele>131.0</ele><time>2026-05-01T13:28:21.002Z</time></trkpt><trkpt lat="42.51205866305048" lon="8.684801522771215"><ele>131.0</ele><time>2026-05-01T13:28:22.002Z</time></trkpt><trkpt lat="42.51193420923731" lon="8.684735427833765"><ele>131.0</ele><time>2026-05-01T13:28:23.002Z</time></trkpt><trkpt lat="42.511819324612965" lon="8.684686147146403"><ele>129.0</ele><time>2026-05-01T13:28:24.002Z</time></trkpt><trkpt lat="42.51171240002914" lon="8.684663008502284"><ele>127.0</ele><time>2026-05-01T13:28:25.002Z</time></trkpt><trkpt lat="42.51160998497289" lon="8.684643464024628"><ele>125.0</ele><time>2026-05-01T13:28:26.002Z</time></trkpt><trkpt lat="42.51152380489351" lon="8.68456751123961"><ele>123.0</ele><time>2026-05-01T13:28:27.002Z</time></trkpt><trkpt lat="42.511436779864155" lon="8.684472328876183"><ele>121.0</ele><time>2026-05-01T13:28:28.002Z</time></trkpt><trkpt lat="42.51132840264689" lon="8.684382380380155"><ele>126.5</ele><time>2026-05-01T13:28:29.002Z</time></trkpt><trkpt lat="42.51122649659034" lon="8.684264306988373"><ele>132.0</ele><time>2026-05-01T13:28:30.002Z</time></trkpt><trkpt lat="42.5111191161064" lon="8.684147537602083"><ele>137.5</ele><time>2026-05-01T13:28:31.002Z</time></trkpt><trkpt lat="42.511006916858335" lon="8.684038967267588"><ele>143.0</ele><time>2026-05-01T13:28:32.002Z</time></trkpt><trkpt lat="42.51087821637035" lon="8.683957650489742"><ele>143.0</ele><time>2026-05-01T13:28:33.002Z</time></trkpt><trkpt lat="42.510742031248796" lon="8.683898261803469"><ele>143.0</ele><time>2026-05-01T13:28:34.002Z</time></trkpt><trkpt lat="42.51062171856151" lon="8.683817567760451"><ele>143.0</ele><time>2026-05-01T13:28:35.002Z</time></trkpt><trkpt lat="42.510515012741386" lon="8.683753006776442"><ele>143.0</ele><time>2026-05-01T13:28:36.002Z</time></trkpt><trkpt lat="42.51044164237288" lon="8.683660262839078"><ele>143.6</ele><time>2026-05-01T13:28:37.002Z</time></trkpt><trkpt lat="42.5103878949668" lon="8.683549797875349"><ele>144.20000000000002</ele><time>2026-05-01T13:28:38.002Z</time></trkpt><trkpt lat="42.51031134729477" lon="8.68343844769741"><ele>144.8</ele><time>2026-05-01T13:28:39.002Z</time></trkpt><trkpt lat="42.51024371130728" lon="8.683310768439423"><ele>145.4</ele><time>2026-05-01T13:28:40.002Z</time></trkpt><trkpt lat="42.51016195728531" lon="8.683202048777442"><ele>146.0</ele><time>2026-05-01T13:28:41.002Z</time></trkpt><trkpt lat="42.510058341320516" lon="8.683104895516804"><ele>146.0</ele><time>2026-05-01T13:28:42.002Z</time></trkpt><trkpt lat="42.509948497080956" lon="8.683015694021062"><ele>146.0</ele><time>2026-05-01T13:28:43.002Z</time></trkpt><trkpt lat="42.509844371295536" lon="8.68289278120506"><ele>146.0</ele><time>2026-05-01T13:28:44.002Z</time></trkpt><trkpt lat="42.509730069754944" lon="8.682773405291385"><ele>146.0</ele><time>2026-05-01T13:28:45.002Z</time></trkpt><trkpt lat="42.50962592030817" lon="8.682675130999348"><ele>146.2</ele><time>2026-05-01T13:28:46.002Z</time></trkpt><trkpt lat="42.50952527161812" lon="8.682612456850359"><ele>146.39999999999998</ele><time>2026-05-01T13:28:47.002Z</time></trkpt><trkpt lat="42.509429455489" lon="8.682567720328644"><ele>146.6</ele><time>2026-05-01T13:28:48.002Z</time></trkpt><trkpt lat="42.50933355650719" lon="8.682553472960368"><ele>146.79999999999998</ele><time>2026-05-01T13:28:49.002Z</time></trkpt><trkpt lat="42.50924038355982" lon="8.682546734894785"><ele>147.0</ele><time>2026-05-01T13:28:50.002Z</time></trkpt><trkpt lat="42.50913824930644" lon="8.682557282828952"><ele>147.0</ele><time>2026-05-01T13:28:51.002Z</time></trkpt><trkpt lat="42.509027659952565" lon="8.682560367658038"><ele>147.0</ele><time>2026-05-01T13:28:52.002Z</time></trkpt><trkpt lat="42.5089323926841" lon="8.6825144443536"><ele>147.0</ele><time>2026-05-01T13:28:53.002Z</time></trkpt><trkpt lat="42.50885309906053" lon="8.682444891560845"><ele>147.0</ele><time>2026-05-01T13:28:54.003Z</time></trkpt><trkpt lat="42.508781953476664" lon="8.682349732230035"><ele>147.0</ele><time>2026-05-01T13:28:55.003Z</time></trkpt><trkpt lat="42.50869972384982" lon="8.682234834168947"><ele>145.25</ele><time>2026-05-01T13:28:56.003Z</time></trkpt><trkpt lat="42.508610687551936" lon="8.682127066865085"><ele>143.5</ele><time>2026-05-01T13:28:57.003Z</time></trkpt><trkpt lat="42.50851949787281" lon="8.682007610010485"><ele>141.75</ele><time>2026-05-01T13:28:58.003Z</time></trkpt><trkpt lat="42.50843429024218" lon="8.681892377474814"><ele>140.0</ele><time>2026-05-01T13:28:59.003Z</time></trkpt><trkpt lat="42.50835727647209" lon="8.681781013484345"><ele>140.0</ele><time>2026-05-01T13:29:00.003Z</time></trkpt><trkpt lat="42.50828399482802" lon="8.681674139803926"><ele>140.0</ele><time>2026-05-01T13:29:01.003Z</time></trkpt><trkpt lat="42.508232443041294" lon="8.681546509169452"><ele>140.0</ele><time>2026-05-01T13:29:02.003Z</time></trkpt><trkpt lat="42.508178056097755" lon="8.681421962723478"><ele>140.0</ele><time>2026-05-01T13:29:03.003Z</time></trkpt><trkpt lat="42.5081362604492" lon="8.68128346986186"><ele>140.0</ele><time>2026-05-01T13:29:04.003Z</time></trkpt><trkpt lat="42.50809830930657" lon="8.681135293556459"><ele>140.6</ele><time>2026-05-01T13:29:05.003Z</time></trkpt><trkpt lat="42.50804894079109" lon="8.680999285369639"><ele>141.2</ele><time>2026-05-01T13:29:06.003Z</time></trkpt><trkpt lat="42.508017138384396" lon="8.680868864420054"><ele>141.8</ele><time>2026-05-01T13:29:07.003Z</time></trkpt><trkpt lat="42.50797078823087" lon="8.680752459137967"><ele>142.4</ele><time>2026-05-01T13:29:08.003Z</time></trkpt><trkpt lat="42.50790517185573" lon="8.680661028831354"><ele>143.0</ele><time>2026-05-01T13:29:09.003Z</time></trkpt><trkpt lat="42.50782218580089" lon="8.680604138559977"><ele>140.8</ele><time>2026-05-01T13:29:10.003Z</time></trkpt><trkpt lat="42.50773613501001" lon="8.680587737840993"><ele>138.60000000000002</ele><time>2026-05-01T13:29:11.003Z</time></trkpt><trkpt lat="42.50765122899378" lon="8.68058836296038"><ele>136.39999999999998</ele><time>2026-05-01T13:29:12.003Z</time></trkpt><trkpt lat="42.50755970633379" lon="8.680572908183548"><ele>134.2</ele><time>2026-05-01T13:29:13.003Z</time></trkpt><trkpt lat="42.507461518173315" lon="8.680555875095287"><ele>132.0</ele><time>2026-05-01T13:29:14.003Z</time></trkpt><trkpt lat="42.507355524059044" lon="8.680535895286134"><ele>132.0</ele><time>2026-05-01T13:29:15.003Z</time></trkpt><trkpt lat="42.50724469892283" lon="8.680512133463365"><ele>132.0</ele><time>2026-05-01T13:29:16.003Z</time></trkpt><trkpt lat="42.507132387457524" lon="8.680487228603567"><ele>132.0</ele><time>2026-05-01T13:29:17.003Z</time></trkpt><trkpt lat="42.50702978585677" lon="8.68045458790198"><ele>132.0</ele><time>2026-05-01T13:29:18.003Z</time></trkpt><trkpt lat="42.506937562268774" lon="8.680401698914688"><ele>132.0</ele><time>2026-05-01T13:29:19.003Z</time></trkpt><trkpt lat="42.50685647729536" lon="8.680335408005233"><ele>132.5</ele><time>2026-05-01T13:29:20.003Z</time></trkpt><trkpt lat="42.50677970754549" lon="8.680280680142225"><ele>133.0</ele><time>2026-05-01T13:29:21.003Z</time></trkpt><trkpt lat="42.50669811373982" lon="8.680251221917288"><ele>133.5</ele><time>2026-05-01T13:29:22.003Z</time></trkpt><trkpt lat="42.506615061524556" lon="8.680257717215925"><ele>134.0</ele><time>2026-05-01T13:29:23.003Z</time></trkpt><trkpt lat="42.50654271858897" lon="8.680297619762856"><ele>134.5</ele><time>2026-05-01T13:29:23.999Z</time></trkpt><trkpt lat="42.506477030900434" lon="8.680356519552578"><ele>135.0</ele><time>2026-05-01T13:29:24.999Z</time></trkpt><trkpt lat="42.50642259230941" lon="8.6804122695381"><ele>133.16666666666666</ele><time>2026-05-01T13:29:25.999Z</time></trkpt><trkpt lat="42.50636690806297" lon="8.680454249174435"><ele>131.33333333333334</ele><time>2026-05-01T13:29:26.999Z</time></trkpt><trkpt lat="42.506246836584225" lon="8.680498678148133"><ele>129.5</ele><time>2026-05-01T13:29:28.999Z</time></trkpt><trkpt lat="42.50618377040759" lon="8.680500922807996"><ele>127.66666666666667</ele><time>2026-05-01T13:29:29.999Z</time></trkpt><trkpt lat="42.50612066094193" lon="8.680485252700448"><ele>125.83333333333334</ele><time>2026-05-01T13:29:30.999Z</time></trkpt><trkpt lat="42.506059036003485" lon="8.680445603698109"><ele>124.0</ele><time>2026-05-01T13:29:31.999Z</time></trkpt><trkpt lat="42.506007145749614" lon="8.68036465247931"><ele>124.25</ele><time>2026-05-01T13:29:32.999Z</time></trkpt><trkpt lat="42.50592626792847" lon="8.680305578437574"><ele>124.5</ele><time>2026-05-01T13:29:33.999Z</time></trkpt><trkpt lat="42.505844564095305" lon="8.68021321661843"><ele>124.75</ele><time>2026-05-01T13:29:34.999Z</time></trkpt><trkpt lat="42.50574924087681" lon="8.680112631170728"><ele>125.0</ele><time>2026-05-01T13:29:35.999Z</time></trkpt><trkpt lat="42.50564223106675" lon="8.680000681445376"><ele>125.0</ele><time>2026-05-01T13:29:36.999Z</time></trkpt><trkpt lat="42.50552967552459" lon="8.67988350282322"><ele>125.0</ele><time>2026-05-01T13:29:37.999Z</time></trkpt><trkpt lat="42.505415920548195" lon="8.679765477579997"><ele>125.0</ele><time>2026-05-01T13:29:38.999Z</time></trkpt><trkpt lat="42.50530739922102" lon="8.67964823488185"><ele>125.0</ele><time>2026-05-01T13:29:40Z</time></trkpt><trkpt lat="42.50520650861985" lon="8.679541508295989"><ele>124.0</ele><time>2026-05-01T13:29:41Z</time></trkpt><trkpt lat="42.50511133576965" lon="8.679442992043988"><ele>123.0</ele><time>2026-05-01T13:29:42Z</time></trkpt><trkpt lat="42.50502321968895" lon="8.679355101099762"><ele>122.0</ele><time>2026-05-01T13:29:43Z</time></trkpt><trkpt lat="42.50493830765338" lon="8.679268506860526"><ele>121.0</ele><time>2026-05-01T13:29:44Z</time></trkpt><trkpt lat="42.50486137277596" lon="8.67918271820372"><ele>120.0</ele><time>2026-05-01T13:29:45Z</time></trkpt><trkpt lat="42.50478621612839" lon="8.679103352046313"><ele>120.0</ele><time>2026-05-01T13:29:46Z</time></trkpt><trkpt lat="42.50471604236797" lon="8.679025254902147"><ele>120.0</ele><time>2026-05-01T13:29:47Z</time></trkpt><trkpt lat="42.5046504754326" lon="8.678945806530683"><ele>120.0</ele><time>2026-05-01T13:29:48Z</time></trkpt><trkpt lat="42.504578652287556" lon="8.678856217538668"><ele>120.0</ele><time>2026-05-01T13:29:49Z</time></trkpt><trkpt lat="42.504507678598046" lon="8.67876040387867"><ele>120.0</ele><time>2026-05-01T13:29:50Z</time></trkpt><trkpt lat="42.504444283861716" lon="8.678657263947994"><ele>119.33333333333333</ele><time>2026-05-01T13:29:51Z</time></trkpt><trkpt lat="42.50438739854386" lon="8.678546914601114"><ele>118.66666666666666</ele><time>2026-05-01T13:29:52Z</time></trkpt><trkpt lat="42.504339275569805" lon="8.678433616423831"><ele>118.0</ele><time>2026-05-01T13:29:53Z</time></trkpt><trkpt lat="42.50429248813508" lon="8.678336031758613"><ele>117.33333333333333</ele><time>2026-05-01T13:29:54Z</time></trkpt><trkpt lat="42.50423429208488" lon="8.67828010855012"><ele>116.66666666666666</ele><time>2026-05-01T13:29:55Z</time></trkpt><trkpt lat="42.50417015240927" lon="8.678268939525465"><ele>116.0</ele><time>2026-05-01T13:29:56Z</time></trkpt><trkpt lat="42.50410926244597" lon="8.678293090359848"><ele>116.0</ele><time>2026-05-01T13:29:57Z</time></trkpt><trkpt lat="42.503988469796745" lon="8.678380188336643"><ele>116.0</ele><time>2026-05-01T13:29:59Z</time></trkpt><trkpt lat="42.503906839092984" lon="8.678444684298425"><ele>116.0</ele><time>2026-05-01T13:30:00.001Z</time></trkpt><trkpt lat="42.50380886801509" lon="8.67850433256016"><ele>116.0</ele><time>2026-05-01T13:30:01.001Z</time></trkpt><trkpt lat="42.50370097536961" lon="8.678539257005733"><ele>114.25</ele><time>2026-05-01T13:30:02.001Z</time></trkpt><trkpt lat="42.50358261485596" lon="8.678522400299482"><ele>112.5</ele><time>2026-05-01T13:30:03.001Z</time></trkpt><trkpt lat="42.503471264231244" lon="8.67853812452959"><ele>110.75</ele><time>2026-05-01T13:30:04.001Z</time></trkpt><trkpt lat="42.503353014490266" lon="8.678529703400251"><ele>109.0</ele><time>2026-05-01T13:30:05.001Z</time></trkpt><trkpt lat="42.50323481545705" lon="8.678530236473467"><ele>109.0</ele><time>2026-05-01T13:30:06.001Z</time></trkpt><trkpt lat="42.50312574658087" lon="8.678536208252154"><ele>109.0</ele><time>2026-05-01T13:30:07.001Z</time></trkpt><trkpt lat="42.50302324639492" lon="8.678537580377554"><ele>109.0</ele><time>2026-05-01T13:30:08.001Z</time></trkpt><trkpt lat="42.50293106972291" lon="8.67850371363076"><ele>109.0</ele><time>2026-05-01T13:30:09.001Z</time></trkpt><trkpt lat="42.50284190392227" lon="8.678476831942714"><ele>109.0</ele><time>2026-05-01T13:30:10.001Z</time></trkpt><trkpt lat="42.502757423600684" lon="8.678457670643294"><ele>108.83333333333334</ele><time>2026-05-01T13:30:11.001Z</time></trkpt><trkpt lat="42.50267832666044" lon="8.678418852285619"><ele>108.66666666666667</ele><time>2026-05-01T13:30:12.001Z</time></trkpt><trkpt lat="42.5026034147959" lon="8.678396630387155"><ele>108.5</ele><time>2026-05-01T13:30:13.001Z</time></trkpt><trkpt lat="42.50252676946809" lon="8.678400557523753"><ele>108.33333333333334</ele><time>2026-05-01T13:30:14.001Z</time></trkpt><trkpt lat="42.502444937564896" lon="8.678440833553802"><ele>108.16666666666667</ele><time>2026-05-01T13:30:15.001Z</time></trkpt><trkpt lat="42.50237394659216" lon="8.678519534711018"><ele>108.0</ele><time>2026-05-01T13:30:16.001Z</time></trkpt><trkpt lat="42.50232370838487" lon="8.678628127076493"><ele>106.4</ele><time>2026-05-01T13:30:17.001Z</time></trkpt><trkpt lat="42.50232107340788" lon="8.67874786842279"><ele>104.80000000000001</ele><time>2026-05-01T13:30:18.001Z</time></trkpt><trkpt lat="42.50233527832801" lon="8.678884107478034"><ele>103.2</ele><time>2026-05-01T13:30:19.001Z</time></trkpt><trkpt lat="42.502345371039475" lon="8.679025251919134"><ele>101.6</ele><time>2026-05-01T13:30:20.001Z</time></trkpt><trkpt lat="42.5023503015563" lon="8.679151747163722"><ele>100.0</ele><time>2026-05-01T13:30:21.001Z</time></trkpt><trkpt lat="42.50234089448929" lon="8.67927830172724"><ele>100.0</ele><time>2026-05-01T13:30:22.001Z</time></trkpt><trkpt lat="42.502315588212234" lon="8.67941005533435"><ele>100.0</ele><time>2026-05-01T13:30:23.001Z</time></trkpt><trkpt lat="42.50225983246697" lon="8.679550334299059"><ele>100.0</ele><time>2026-05-01T13:30:24.001Z</time></trkpt><trkpt lat="42.50220806695494" lon="8.67970728331277"><ele>100.0</ele><time>2026-05-01T13:30:25.001Z</time></trkpt><trkpt lat="42.502149993390695" lon="8.679874783040047"><ele>100.25</ele><time>2026-05-01T13:30:26.001Z</time></trkpt><trkpt lat="42.502072567327595" lon="8.680039954209025"><ele>100.5</ele><time>2026-05-01T13:30:27.001Z</time></trkpt><trkpt lat="42.50197694003662" lon="8.680190923546819"><ele>100.75</ele><time>2026-05-01T13:30:28.001Z</time></trkpt><trkpt lat="42.501878335065186" lon="8.680327224694846"><ele>101.0</ele><time>2026-05-01T13:30:29.002Z</time></trkpt><trkpt lat="42.501775555414866" lon="8.680436933885673"><ele>98.25</ele><time>2026-05-01T13:30:30.002Z</time></trkpt><trkpt lat="42.501667176819815" lon="8.6805203758429"><ele>95.5</ele><time>2026-05-01T13:30:31.002Z</time></trkpt><trkpt lat="42.501547432622864" lon="8.680576163127538"><ele>92.75</ele><time>2026-05-01T13:30:32.002Z</time></trkpt><trkpt lat="42.50143680280471" lon="8.680617283821176"><ele>90.0</ele><time>2026-05-01T13:30:33.002Z</time></trkpt><trkpt lat="42.50133351463503" lon="8.680671854663352"><ele>90.8</ele><time>2026-05-01T13:30:34.002Z</time></trkpt><trkpt lat="42.501233340573755" lon="8.68071401458621"><ele>91.6</ele><time>2026-05-01T13:30:35.002Z</time></trkpt><trkpt lat="42.501146261213854" lon="8.680778079290263"><ele>92.4</ele><time>2026-05-01T13:30:36.002Z</time></trkpt><trkpt lat="42.50107229522654" lon="8.680872884458982"><ele>93.2</ele><time>2026-05-01T13:30:37.002Z</time></trkpt><trkpt lat="42.50100624850016" lon="8.680984794645836"><ele>94.0</ele><time>2026-05-01T13:30:38.002Z</time></trkpt><trkpt lat="42.50091512868461" lon="8.681070367410271"><ele>91.80000000000001</ele><time>2026-05-01T13:30:39.002Z</time></trkpt><trkpt lat="42.50082283158975" lon="8.681141542504749"><ele>89.60000000000001</ele><time>2026-05-01T13:30:40.002Z</time></trkpt><trkpt lat="42.50071488001746" lon="8.681154311843926"><ele>87.4</ele><time>2026-05-01T13:30:41.002Z</time></trkpt><trkpt lat="42.50060451586591" lon="8.681150705101038"><ele>85.2</ele><time>2026-05-01T13:30:42.002Z</time></trkpt><trkpt lat="42.5004880711632" lon="8.681160716951213"><ele>83.0</ele><time>2026-05-01T13:30:43.002Z</time></trkpt><trkpt lat="42.50036873524697" lon="8.681150618950502"><ele>82.25</ele><time>2026-05-01T13:30:44.002Z</time></trkpt><trkpt lat="42.50023857067861" lon="8.681145873060604"><ele>81.5</ele><time>2026-05-01T13:30:45.002Z</time></trkpt><trkpt lat="42.500099968396626" lon="8.681143299629314"><ele>80.75</ele><time>2026-05-01T13:30:46.002Z</time></trkpt><trkpt lat="42.49995681543398" lon="8.68113859640732"><ele>80.0</ele><time>2026-05-01T13:30:47.002Z</time></trkpt><trkpt lat="42.49980795146407" lon="8.681131424852243"><ele>80.0</ele><time>2026-05-01T13:30:48.002Z</time></trkpt><trkpt lat="42.499659370685954" lon="8.68112184124939"><ele>80.0</ele><time>2026-05-01T13:30:49.002Z</time></trkpt><trkpt lat="42.499515665335345" lon="8.681111982772581"><ele>80.0</ele><time>2026-05-01T13:30:50.002Z</time></trkpt><trkpt lat="42.499380432303454" lon="8.681101812509684"><ele>80.0</ele><time>2026-05-01T13:30:51.002Z</time></trkpt><trkpt lat="42.49925437428011" lon="8.681091012247723"><ele>80.2</ele><time>2026-05-01T13:30:52.002Z</time></trkpt><trkpt lat="42.49913605810701" lon="8.681076547236989"><ele>80.4</ele><time>2026-05-01T13:30:53.002Z</time></trkpt><trkpt lat="42.499023352145976" lon="8.681068588205019"><ele>80.6</ele><time>2026-05-01T13:30:54.002Z</time></trkpt><trkpt lat="42.498919153054715" lon="8.68106922748503"><ele>80.8</ele><time>2026-05-01T13:30:55.002Z</time></trkpt><trkpt lat="42.498820262679345" lon="8.68108754658688"><ele>81.0</ele><time>2026-05-01T13:30:56.002Z</time></trkpt><trkpt lat="42.49873581838453" lon="8.681143153417043"><ele>81.0</ele><time>2026-05-01T13:30:57.002Z</time></trkpt><trkpt lat="42.498672930749116" lon="8.681234562641725"><ele>81.0</ele><time>2026-05-01T13:30:58.002Z</time></trkpt><trkpt lat="42.498628975625614" lon="8.68135234330149"><ele>81.0</ele><time>2026-05-01T13:30:59.002Z</time></trkpt><trkpt lat="42.49859364689083" lon="8.681490538465"><ele>81.0</ele><time>2026-05-01T13:31:00.002Z</time></trkpt><trkpt lat="42.498537221410366" lon="8.681616671003834"><ele>81.0</ele><time>2026-05-01T13:31:01.003Z</time></trkpt><trkpt lat="42.49850222956337" lon="8.681760734228014"><ele>81.0</ele><time>2026-05-01T13:31:02.003Z</time></trkpt><trkpt lat="42.49844223494663" lon="8.681898625271014"><ele>81.0</ele><time>2026-05-01T13:31:03.003Z</time></trkpt><trkpt lat="42.49838188516658" lon="8.682041341467297"><ele>81.0</ele><time>2026-05-01T13:31:04.003Z</time></trkpt><trkpt lat="42.49829886016105" lon="8.682166264015986"><ele>81.0</ele><time>2026-05-01T13:31:05.003Z</time></trkpt><trkpt lat="42.49820929130351" lon="8.68228413114964"><ele>80.5</ele><time>2026-05-01T13:31:06.003Z</time></trkpt><trkpt lat="42.49810223474245" lon="8.6823890621967"><ele>80.0</ele><time>2026-05-01T13:31:07.003Z</time></trkpt><trkpt lat="42.497983956009776" lon="8.682485350679267"><ele>79.5</ele><time>2026-05-01T13:31:08.003Z</time></trkpt><trkpt lat="42.497867458232605" lon="8.682592259275154"><ele>79.0</ele><time>2026-05-01T13:31:09.003Z</time></trkpt><trkpt lat="42.49774591323303" lon="8.68267752205082"><ele>79.0</ele><time>2026-05-01T13:31:10.003Z</time></trkpt><trkpt lat="42.49763650962476" lon="8.682762888677468"><ele>79.0</ele><time>2026-05-01T13:31:11.003Z</time></trkpt><trkpt lat="42.49753304488169" lon="8.682848986660684"><ele>79.0</ele><time>2026-05-01T13:31:12.003Z</time></trkpt><trkpt lat="42.497431320180304" lon="8.682918410441669"><ele>79.0</ele><time>2026-05-01T13:31:13.003Z</time></trkpt><trkpt lat="42.497325994642765" lon="8.682940055134134"><ele>75.25</ele><time>2026-05-01T13:31:14.003Z</time></trkpt><trkpt lat="42.49722212751156" lon="8.682952544804113"><ele>71.5</ele><time>2026-05-01T13:31:15.003Z</time></trkpt><trkpt lat="42.497105934345115" lon="8.682952394812098"><ele>67.75</ele><time>2026-05-01T13:31:16.003Z</time></trkpt><trkpt lat="42.496981046644414" lon="8.682967381439635"><ele>64.0</ele><time>2026-05-01T13:31:17.003Z</time></trkpt><trkpt lat="42.49686093110113" lon="8.682963634055259"><ele>64.0</ele><time>2026-05-01T13:31:18.003Z</time></trkpt><trkpt lat="42.4967494898781" lon="8.682984513904955"><ele>64.0</ele><time>2026-05-01T13:31:19.003Z</time></trkpt><trkpt lat="42.49665334254152" lon="8.683060973724995"><ele>64.0</ele><time>2026-05-01T13:31:20.003Z</time></trkpt><trkpt lat="42.49657611629555" lon="8.683179417054413"><ele>64.0</ele><time>2026-05-01T13:31:21.003Z</time></trkpt><trkpt lat="42.49652098050542" lon="8.683305030354711"><ele>64.0</ele><time>2026-05-01T13:31:22.003Z</time></trkpt><trkpt lat="42.4964498047371" lon="8.683396828331851"><ele>64.0</ele><time>2026-05-01T13:31:23.003Z</time></trkpt><trkpt lat="42.49638069060408" lon="8.683473133594283"><ele>64.0</ele><time>2026-05-01T13:31:24.003Z</time></trkpt><trkpt lat="42.49629074632353" lon="8.68354312418006"><ele>64.0</ele><time>2026-05-01T13:31:25.003Z</time></trkpt><trkpt lat="42.4961718500655" lon="8.683584355219075"><ele>64.0</ele><time>2026-05-01T13:31:26.003Z</time></trkpt><trkpt lat="42.496034168591706" lon="8.683638768735415"><ele>62.5</ele><time>2026-05-01T13:31:27.003Z</time></trkpt><trkpt lat="42.49591299914893" lon="8.683707616756362"><ele>61.0</ele><time>2026-05-01T13:31:28.003Z</time></trkpt><trkpt lat="42.495790393924516" lon="8.683760924717852"><ele>59.5</ele><time>2026-05-01T13:31:29.003Z</time></trkpt><trkpt lat="42.49567236986559" lon="8.683823166029608"><ele>58.0</ele><time>2026-05-01T13:31:29.999Z</time></trkpt><trkpt lat="42.495545896879406" lon="8.683870474936413"><ele>57.25</ele><time>2026-05-01T13:31:30.999Z</time></trkpt><trkpt lat="42.49541901366595" lon="8.68391327664321"><ele>56.5</ele><time>2026-05-01T13:31:31.999Z</time></trkpt><trkpt lat="42.49528448320712" lon="8.683947740287028"><ele>55.75</ele><time>2026-05-01T13:31:32.999Z</time></trkpt><trkpt lat="42.49515751020067" lon="8.683943424579994"><ele>55.0</ele><time>2026-05-01T13:31:33.999Z</time></trkpt><trkpt lat="42.49503442022945" lon="8.683934416156971"><ele>55.0</ele><time>2026-05-01T13:31:34.999Z</time></trkpt><trkpt lat="42.49490816726225" lon="8.683937440665224"><ele>55.0</ele><time>2026-05-01T13:31:35.999Z</time></trkpt><trkpt lat="42.49478338932399" lon="8.683905802978495"><ele>55.0</ele><time>2026-05-01T13:31:36.999Z</time></trkpt><trkpt lat="42.494656624276004" lon="8.683880601522212"><ele>55.0</ele><time>2026-05-01T13:31:37.999Z</time></trkpt><trkpt lat="42.494530372360984" lon="8.683852729972811"><ele>54.25</ele><time>2026-05-01T13:31:38.999Z</time></trkpt><trkpt lat="42.49439866603242" lon="8.683862859973733"><ele>53.5</ele><time>2026-05-01T13:31:39.999Z</time></trkpt><trkpt lat="42.49427103893249" lon="8.683881694706383"><ele>52.75</ele><time>2026-05-01T13:31:40.999Z</time></trkpt><trkpt lat="42.49414872926709" lon="8.683908518160631"><ele>52.0</ele><time>2026-05-01T13:31:41.999Z</time></trkpt><trkpt lat="42.494037927841624" lon="8.683927481082732"><ele>52.0</ele><time>2026-05-01T13:31:42.999Z</time></trkpt><trkpt lat="42.49393009256953" lon="8.683934968090059"><ele>52.0</ele><time>2026-05-01T13:31:43.999Z</time></trkpt><trkpt lat="42.493814303383985" lon="8.683892260607012"><ele>52.0</ele><time>2026-05-01T13:31:45Z</time></trkpt><trkpt lat="42.49367975163158" lon="8.683883258270205"><ele>52.0</ele><time>2026-05-01T13:31:46Z</time></trkpt><trkpt lat="42.49354892868077" lon="8.683849774284209"><ele>51.0</ele><time>2026-05-01T13:31:47Z</time></trkpt><trkpt lat="42.493422525364835" lon="8.683816961084357"><ele>50.0</ele><time>2026-05-01T13:31:48Z</time></trkpt><trkpt lat="42.49329435812894" lon="8.683789013259458"><ele>49.0</ele><time>2026-05-01T13:31:49Z</time></trkpt><trkpt lat="42.49317431375128" lon="8.683756311597762"><ele>48.0</ele><time>2026-05-01T13:31:50Z</time></trkpt><trkpt lat="42.493064290771464" lon="8.683721394583163"><ele>48.0</ele><time>2026-05-01T13:31:51Z</time></trkpt><trkpt lat="42.49296325938635" lon="8.683687985879647"><ele>48.0</ele><time>2026-05-01T13:31:52Z</time></trkpt><trkpt lat="42.49287490138543" lon="8.683669130756687"><ele>48.0</ele><time>2026-05-01T13:31:53Z</time></trkpt><trkpt lat="42.49274521468602" lon="8.683680584985932"><ele>48.0</ele><time>2026-05-01T13:31:55Z</time></trkpt><trkpt lat="42.49267626182609" lon="8.68371966115008"><ele>48.0</ele><time>2026-05-01T13:31:56Z</time></trkpt><trkpt lat="42.49260463488344" lon="8.683772096574039"><ele>47.2</ele><time>2026-05-01T13:31:57Z</time></trkpt><trkpt lat="42.492530140595896" lon="8.683830736796482"><ele>46.4</ele><time>2026-05-01T13:31:58Z</time></trkpt><trkpt lat="42.49244142072621" lon="8.683896002896374"><ele>45.6</ele><time>2026-05-01T13:31:59Z</time></trkpt><trkpt lat="42.492350949189465" lon="8.683974428346197"><ele>44.800000000000004</ele><time>2026-05-01T13:32:00Z</time></trkpt><trkpt lat="42.49225297432089" lon="8.684053009997747"><ele>44.0</ele><time>2026-05-01T13:32:01Z</time></trkpt><trkpt lat="42.4921498361946" lon="8.684139391918627"><ele>43.25</ele><time>2026-05-01T13:32:02Z</time></trkpt><trkpt lat="42.492034922806255" lon="8.684235697121123"><ele>42.5</ele><time>2026-05-01T13:32:03Z</time></trkpt><trkpt lat="42.491913650954885" lon="8.684335910062291"><ele>41.75</ele><time>2026-05-01T13:32:04Z</time></trkpt><trkpt lat="42.49179956726585" lon="8.684409709134941"><ele>41.0</ele><time>2026-05-01T13:32:05.001Z</time></trkpt><trkpt lat="42.49168760108533" lon="8.684426352634688"><ele>41.0</ele><time>2026-05-01T13:32:06.001Z</time></trkpt><trkpt lat="42.491584431946265" lon="8.684419952669957"><ele>41.0</ele><time>2026-05-01T13:32:07.001Z</time></trkpt><trkpt lat="42.49146026941849" lon="8.684403160227596"><ele>41.0</ele><time>2026-05-01T13:32:08.001Z</time></trkpt><trkpt lat="42.49131696306693" lon="8.684398030299636"><ele>41.0</ele><time>2026-05-01T13:32:09.001Z</time></trkpt><trkpt lat="42.49116999977892" lon="8.68436644696075"><ele>41.0</ele><time>2026-05-01T13:32:10.001Z</time></trkpt><trkpt lat="42.49102755530462" lon="8.684341597611244"><ele>41.0</ele><time>2026-05-01T13:32:11.001Z</time></trkpt><trkpt lat="42.49090084397993" lon="8.684316745879528"><ele>41.0</ele><time>2026-05-01T13:32:12.001Z</time></trkpt><trkpt lat="42.49077472826131" lon="8.684302000553222"><ele>41.0</ele><time>2026-05-01T13:32:13.001Z</time></trkpt><trkpt lat="42.49064506982726" lon="8.684276697324094"><ele>41.0</ele><time>2026-05-01T13:32:14.001Z</time></trkpt><trkpt lat="42.49050745515813" lon="8.6842848248344"><ele>41.0</ele><time>2026-05-01T13:32:15.001Z</time></trkpt><trkpt lat="42.49037129158288" lon="8.684305946298135"><ele>41.0</ele><time>2026-05-01T13:32:16.001Z</time></trkpt><trkpt lat="42.49021868393144" lon="8.68436292407157"><ele>41.0</ele><time>2026-05-01T13:32:17.001Z</time></trkpt><trkpt lat="42.49004067373874" lon="8.684422935040233"><ele>41.0</ele><time>2026-05-01T13:32:18.001Z</time></trkpt><trkpt lat="42.48985934765056" lon="8.684497457591533"><ele>41.0</ele><time>2026-05-01T13:32:19.001Z</time></trkpt><trkpt lat="42.48967533140469" lon="8.684574545421771"><ele>41.0</ele><time>2026-05-01T13:32:20.001Z</time></trkpt><trkpt lat="42.48950871158837" lon="8.68464442502067"><ele>41.0</ele><time>2026-05-01T13:32:21.001Z</time></trkpt><trkpt lat="42.4893503969137" lon="8.684699333823767"><ele>41.0</ele><time>2026-05-01T13:32:22.001Z</time></trkpt><trkpt lat="42.489188610898374" lon="8.684746196570082"><ele>41.0</ele><time>2026-05-01T13:32:23.001Z</time></trkpt><trkpt lat="42.48902815730096" lon="8.68477768656777"><ele>41.0</ele><time>2026-05-01T13:32:24.001Z</time></trkpt><trkpt lat="42.488856398576345" lon="8.684789973535644"><ele>41.0</ele><time>2026-05-01T13:32:25.001Z</time></trkpt><trkpt lat="42.48868594137718" lon="8.684785338168735"><ele>41.0</ele><time>2026-05-01T13:32:26.001Z</time></trkpt><trkpt lat="42.48853249263378" lon="8.684794293667904"><ele>40.666666666666664</ele><time>2026-05-01T13:32:27.001Z</time></trkpt><trkpt lat="42.488379270494164" lon="8.684775861171275"><ele>40.333333333333336</ele><time>2026-05-01T13:32:28.001Z</time></trkpt><trkpt lat="42.48821535036905" lon="8.684767103332405"><ele>40.0</ele><time>2026-05-01T13:32:29.001Z</time></trkpt><trkpt lat="42.48804229920597" lon="8.684764004300671"><ele>40.66666666666667</ele><time>2026-05-01T13:32:30.001Z</time></trkpt><trkpt lat="42.48787355992323" lon="8.684754087262398"><ele>41.333333333333336</ele><time>2026-05-01T13:32:31.001Z</time></trkpt><trkpt lat="42.48771564668924" lon="8.684743101324763"><ele>42.0</ele><time>2026-05-01T13:32:32.001Z</time></trkpt><trkpt lat="42.48757263004015" lon="8.684734076198653"><ele>42.0</ele><time>2026-05-01T13:32:33.001Z</time></trkpt><trkpt lat="42.48743997757294" lon="8.684728601020655"><ele>42.0</ele><time>2026-05-01T13:32:34.002Z</time></trkpt><trkpt lat="42.487313042137586" lon="8.684723236924443"><ele>42.0</ele><time>2026-05-01T13:32:35.002Z</time></trkpt><trkpt lat="42.48719375747604" lon="8.684722987171053"><ele>42.0</ele><time>2026-05-01T13:32:36.002Z</time></trkpt><trkpt lat="42.48708423001145" lon="8.684718907933302"><ele>41.666666666666664</ele><time>2026-05-01T13:32:37.002Z</time></trkpt><trkpt lat="42.48699341236317" lon="8.684712203364432"><ele>41.333333333333336</ele><time>2026-05-01T13:32:38.002Z</time></trkpt><trkpt lat="42.48692171837023" lon="8.684695653279903"><ele>41.0</ele><time>2026-05-01T13:32:39.002Z</time></trkpt><trkpt lat="42.48686178683448" lon="8.684645381544009"><ele>40.66666666666667</ele><time>2026-05-01T13:32:40.002Z</time></trkpt><trkpt lat="42.48680180058044" lon="8.684612843915955"><ele>40.333333333333336</ele><time>2026-05-01T13:32:41.002Z</time></trkpt><trkpt lat="42.48672171047905" lon="8.684587037944574"><ele>40.0</ele><time>2026-05-01T13:32:42.002Z</time></trkpt><trkpt lat="42.48663357931349" lon="8.684528673158898"><ele>40.0</ele><time>2026-05-01T13:32:43.002Z</time></trkpt><trkpt lat="42.48653046344151" lon="8.684455928213872"><ele>40.0</ele><time>2026-05-01T13:32:44.002Z</time></trkpt><trkpt lat="42.486412206252744" lon="8.684378793268008"><ele>40.0</ele><time>2026-05-01T13:32:45.002Z</time></trkpt><trkpt lat="42.48628313413491" lon="8.684273958117483"><ele>40.0</ele><time>2026-05-01T13:32:46.002Z</time></trkpt><trkpt lat="42.486127790706824" lon="8.684198254196621"><ele>39.333333333333336</ele><time>2026-05-01T13:32:47.002Z</time></trkpt><trkpt lat="42.48597333280807" lon="8.684076602091727"><ele>38.666666666666664</ele><time>2026-05-01T13:32:48.002Z</time></trkpt><trkpt lat="42.48583402661425" lon="8.683913458347433"><ele>38.0</ele><time>2026-05-01T13:32:49.002Z</time></trkpt><trkpt lat="42.48569313126675" lon="8.683762348735552"><ele>36.666666666666664</ele><time>2026-05-01T13:32:50.002Z</time></trkpt><trkpt lat="42.48557003767257" lon="8.683592983623116"><ele>35.333333333333336</ele><time>2026-05-01T13:32:51.002Z</time></trkpt><trkpt lat="42.48545905209495" lon="8.683452751195961"><ele>34.0</ele><time>2026-05-01T13:32:52.002Z</time></trkpt><trkpt lat="42.485364837938" lon="8.68334398543616"><ele>34.0</ele><time>2026-05-01T13:32:53.002Z</time></trkpt><trkpt lat="42.485268457773024" lon="8.683256742297054"><ele>34.0</ele><time>2026-05-01T13:32:54.002Z</time></trkpt><trkpt lat="42.4851526788805" lon="8.683211037547423"><ele>34.0</ele><time>2026-05-01T13:32:55.002Z</time></trkpt><trkpt lat="42.485027865476" lon="8.683193592681647"><ele>34.0</ele><time>2026-05-01T13:32:56.002Z</time></trkpt><trkpt lat="42.48490638903492" lon="8.683189931402602"><ele>34.0</ele><time>2026-05-01T13:32:57.002Z</time></trkpt><trkpt lat="42.48478012754926" lon="8.683197474187422"><ele>34.0</ele><time>2026-05-01T13:32:58.002Z</time></trkpt><trkpt lat="42.484643895960474" lon="8.68323067458694"><ele>34.0</ele><time>2026-05-01T13:32:59.002Z</time></trkpt><trkpt lat="42.484493953468174" lon="8.683309749812892"><ele>34.0</ele><time>2026-05-01T13:33:00.002Z</time></trkpt><trkpt lat="42.48432862899804" lon="8.683406057278654"><ele>32.333333333333336</ele><time>2026-05-01T13:33:01.002Z</time></trkpt><trkpt lat="42.48416183811447" lon="8.683488826576015"><ele>30.666666666666664</ele><time>2026-05-01T13:33:02.002Z</time></trkpt><trkpt lat="42.48401130766803" lon="8.68356267535611"><ele>29.0</ele><time>2026-05-01T13:33:03.002Z</time></trkpt><trkpt lat="42.4838790981964" lon="8.683646056029914"><ele>29.25</ele><time>2026-05-01T13:33:04.002Z</time></trkpt><trkpt lat="42.48375399957358" lon="8.683761121042638"><ele>29.5</ele><time>2026-05-01T13:33:05.002Z</time></trkpt><trkpt lat="42.4836518703999" lon="8.683898779996557"><ele>29.75</ele><time>2026-05-01T13:33:06.002Z</time></trkpt><trkpt lat="42.483561168635475" lon="8.68402766999312"><ele>30.0</ele><time>2026-05-01T13:33:07.003Z</time></trkpt><trkpt lat="42.48346448142452" lon="8.684087056680646"><ele>30.0</ele><time>2026-05-01T13:33:08.003Z</time></trkpt><trkpt lat="42.48337778319313" lon="8.68412748557142"><ele>30.0</ele><time>2026-05-01T13:33:09.003Z</time></trkpt><trkpt lat="42.48328265740343" lon="8.684158595289452"><ele>30.0</ele><time>2026-05-01T13:33:10.003Z</time></trkpt><trkpt lat="42.48318254405262" lon="8.684205011100369"><ele>30.0</ele><time>2026-05-01T13:33:11.003Z</time></trkpt><trkpt lat="42.4830698907141" lon="8.684233429854132"><ele>30.0</ele><time>2026-05-01T13:33:12.003Z</time></trkpt><trkpt lat="42.48295617444083" lon="8.684266867253188"><ele>30.25</ele><time>2026-05-01T13:33:13.003Z</time></trkpt><trkpt lat="42.482845826997" lon="8.684330912558048"><ele>30.5</ele><time>2026-05-01T13:33:14.003Z</time></trkpt><trkpt lat="42.482738533509746" lon="8.684411261186371"><ele>30.75</ele><time>2026-05-01T13:33:15.003Z</time></trkpt><trkpt lat="42.48263608108085" lon="8.68451820615726"><ele>31.0</ele><time>2026-05-01T13:33:16.003Z</time></trkpt><trkpt lat="42.48253431596188" lon="8.68463890208394"><ele>31.0</ele><time>2026-05-01T13:33:17.003Z</time></trkpt><trkpt lat="42.48243449660834" lon="8.684746789196002"><ele>31.0</ele><time>2026-05-01T13:33:18.003Z</time></trkpt><trkpt lat="42.48233041699185" lon="8.684851807120058"><ele>31.0</ele><time>2026-05-01T13:33:19.003Z</time></trkpt><trkpt lat="42.482232298442405" lon="8.684991638781927"><ele>31.0</ele><time>2026-05-01T13:33:20.003Z</time></trkpt><trkpt lat="42.48215185663422" lon="8.685141736477993"><ele>29.5</ele><time>2026-05-01T13:33:21.003Z</time></trkpt><trkpt lat="42.48208807148348" lon="8.685299434359521"><ele>28.0</ele><time>2026-05-01T13:33:22.003Z</time></trkpt><trkpt lat="42.48203953597125" lon="8.685463710606914"><ele>26.5</ele><time>2026-05-01T13:33:23.003Z</time></trkpt><trkpt lat="42.481993853111796" lon="8.685635481430404"><ele>25.0</ele><time>2026-05-01T13:33:24.003Z</time></trkpt><trkpt lat="42.48194751847441" lon="8.685796907436288"><ele>25.0</ele><time>2026-05-01T13:33:25.003Z</time></trkpt><trkpt lat="42.481899276183626" lon="8.685944985370616"><ele>25.0</ele><time>2026-05-01T13:33:26.003Z</time></trkpt><trkpt lat="42.481820504214575" lon="8.686057355219804"><ele>25.0</ele><time>2026-05-01T13:33:27.003Z</time></trkpt><trkpt lat="42.48173102706663" lon="8.686132484739217"><ele>25.0</ele><time>2026-05-01T13:33:28.003Z</time></trkpt><trkpt lat="42.481633202932095" lon="8.686157489267986"><ele>25.0</ele><time>2026-05-01T13:33:29.003Z</time></trkpt><trkpt lat="42.4815352887992" lon="8.686150057320212"><ele>25.0</ele><time>2026-05-01T13:33:30.003Z</time></trkpt><trkpt lat="42.48144900635195" lon="8.686076028511915"><ele>25.0</ele><time>2026-05-01T13:33:31.003Z</time></trkpt><trkpt lat="42.48135004795932" lon="8.685997179087144"><ele>25.0</ele><time>2026-05-01T13:33:32.003Z</time></trkpt><trkpt lat="42.48123886570649" lon="8.68591401115718"><ele>25.0</ele><time>2026-05-01T13:33:33.003Z</time></trkpt><trkpt lat="42.481125812269504" lon="8.685814376835552"><ele>25.25</ele><time>2026-05-01T13:33:34.003Z</time></trkpt><trkpt lat="42.48100656393552" lon="8.685710070918383"><ele>25.5</ele><time>2026-05-01T13:33:35.003Z</time></trkpt><trkpt lat="42.48088189623675" lon="8.68560579792484"><ele>25.75</ele><time>2026-05-01T13:33:35.999Z</time></trkpt><trkpt lat="42.480756626661524" lon="8.6855034901758"><ele>26.0</ele><time>2026-05-01T13:33:36.999Z</time></trkpt><trkpt lat="42.48064153693829" lon="8.685409141197857"><ele>26.0</ele><time>2026-05-01T13:33:37.999Z</time></trkpt><trkpt lat="42.48052691197697" lon="8.68533768941873"><ele>26.0</ele><time>2026-05-01T13:33:38.999Z</time></trkpt><trkpt lat="42.48040826563077" lon="8.685324487866893"><ele>26.0</ele><time>2026-05-01T13:33:39.999Z</time></trkpt><trkpt lat="42.480297809022886" lon="8.685376781004534"><ele>26.0</ele><time>2026-05-01T13:33:40.999Z</time></trkpt><trkpt lat="42.480223530838686" lon="8.68548206681936"><ele>24.8</ele><time>2026-05-01T13:33:41.999Z</time></trkpt><trkpt lat="42.48018531715326" lon="8.685611579434484"><ele>23.6</ele><time>2026-05-01T13:33:42.999Z</time></trkpt><trkpt lat="42.48017958561226" lon="8.68575290042272"><ele>22.4</ele><time>2026-05-01T13:33:43.999Z</time></trkpt><trkpt lat="42.480193030484656" lon="8.685907273249907"><ele>21.2</ele><time>2026-05-01T13:33:44.999Z</time></trkpt><trkpt lat="42.48021765234164" lon="8.686066570414136"><ele>20.0</ele><time>2026-05-01T13:33:45.999Z</time></trkpt><trkpt lat="42.480220135268254" lon="8.686239754148767"><ele>20.0</ele><time>2026-05-01T13:33:47Z</time></trkpt><trkpt lat="42.48025122863533" lon="8.686396533513369"><ele>20.0</ele><time>2026-05-01T13:33:48Z</time></trkpt><trkpt lat="42.4802213988673" lon="8.68652055811623"><ele>20.0</ele><time>2026-05-01T13:33:49Z</time></trkpt><trkpt lat="42.48019297030383" lon="8.68662217543432"><ele>20.0</ele><time>2026-05-01T13:33:50Z</time></trkpt><trkpt lat="42.48009574674587" lon="8.686642569224334"><ele>20.0</ele><time>2026-05-01T13:33:51Z</time></trkpt><trkpt lat="42.48001460600567" lon="8.686710367945016"><ele>20.0</ele><time>2026-05-01T13:33:52Z</time></trkpt><trkpt lat="42.47991693493339" lon="8.686787622837274"><ele>20.0</ele><time>2026-05-01T13:33:53Z</time></trkpt><trkpt lat="42.47980968220223" lon="8.686837157662003"><ele>20.0</ele><time>2026-05-01T13:33:54Z</time></trkpt><trkpt lat="42.47970101111001" lon="8.686856091646932"><ele>20.0</ele><time>2026-05-01T13:33:55Z</time></trkpt><trkpt lat="42.4796043342405" lon="8.686841581883229"><ele>20.0</ele><time>2026-05-01T13:33:56Z</time></trkpt><trkpt lat="42.4794994144414" lon="8.68685002186338"><ele>19.8</ele><time>2026-05-01T13:33:57Z</time></trkpt><trkpt lat="42.47939946531161" lon="8.686836768883067"><ele>19.6</ele><time>2026-05-01T13:33:58Z</time></trkpt><trkpt lat="42.47930859714885" lon="8.686842273837042"><ele>19.4</ele><time>2026-05-01T13:33:59Z</time></trkpt><trkpt lat="42.47922266901156" lon="8.68688116126514"><ele>19.2</ele><time>2026-05-01T13:34:00Z</time></trkpt><trkpt lat="42.47913508593392" lon="8.68691899583561"><ele>19.0</ele><time>2026-05-01T13:34:01Z</time></trkpt><trkpt lat="42.479085839339554" lon="8.687054418910632"><ele>19.6</ele><time>2026-05-01T13:34:02Z</time></trkpt><trkpt lat="42.47906051041232" lon="8.687177832337865"><ele>20.2</ele><time>2026-05-01T13:34:03Z</time></trkpt><trkpt lat="42.47905596011212" lon="8.687315467092798"><ele>20.8</ele><time>2026-05-01T13:34:04Z</time></trkpt><trkpt lat="42.479062278111954" lon="8.687462675979566"><ele>21.400000000000002</ele><time>2026-05-01T13:34:05Z</time></trkpt><trkpt lat="42.479069665166826" lon="8.68761016575925"><ele>22.0</ele><time>2026-05-01T13:34:06Z</time></trkpt><trkpt lat="42.47907490670942" lon="8.687782322056485"><ele>22.333333333333332</ele><time>2026-05-01T13:34:07Z</time></trkpt><trkpt lat="42.47907862264999" lon="8.687986389976972"><ele>22.666666666666668</ele><time>2026-05-01T13:34:08Z</time></trkpt><trkpt lat="42.47908149829236" lon="8.68820320464125"><ele>23.0</ele><time>2026-05-01T13:34:09Z</time></trkpt><trkpt lat="42.47908128589819" lon="8.688421510308315"><ele>23.5</ele><time>2026-05-01T13:34:10Z</time></trkpt><trkpt lat="42.47904299354442" lon="8.688608989128726"><ele>24.0</ele><time>2026-05-01T13:34:11Z</time></trkpt><trkpt lat="42.478995028324476" lon="8.68876674072978"><ele>24.5</ele><time>2026-05-01T13:34:12.001Z</time></trkpt><trkpt lat="42.47893754240183" lon="8.688894894544978"><ele>25.0</ele><time>2026-05-01T13:34:13.001Z</time></trkpt><trkpt lat="42.47886132527263" lon="8.688988451612959"><ele>25.0</ele><time>2026-05-01T13:34:14.001Z</time></trkpt><trkpt lat="42.478775293997536" lon="8.689099804455529"><ele>25.0</ele><time>2026-05-01T13:34:15.001Z</time></trkpt><trkpt lat="42.478683134596714" lon="8.689228417152536"><ele>25.0</ele><time>2026-05-01T13:34:16.001Z</time></trkpt><trkpt lat="42.47857288571407" lon="8.689343704118302"><ele>25.0</ele><time>2026-05-01T13:34:17.001Z</time></trkpt><trkpt lat="42.478464132877356" lon="8.689475556622451"><ele>23.75</ele><time>2026-05-01T13:34:18.001Z</time></trkpt><trkpt lat="42.47835307064495" lon="8.689593470590726"><ele>22.5</ele><time>2026-05-01T13:34:19.001Z</time></trkpt><trkpt lat="42.4782365040307" lon="8.689657301236158"><ele>21.25</ele><time>2026-05-01T13:34:20.001Z</time></trkpt><trkpt lat="42.47813934164353" lon="8.689730851133314"><ele>20.0</ele><time>2026-05-01T13:34:21.001Z</time></trkpt><trkpt lat="42.47804367325138" lon="8.689701757616872"><ele>20.0</ele><time>2026-05-01T13:34:22.001Z</time></trkpt><trkpt lat="42.47796149947029" lon="8.689680389199737"><ele>20.0</ele><time>2026-05-01T13:34:23.001Z</time></trkpt><trkpt lat="42.477877067586114" lon="8.689634616471984"><ele>20.0</ele><time>2026-05-01T13:34:24.001Z</time></trkpt><trkpt lat="42.47778347453524" lon="8.689581110495897"><ele>20.0</ele><time>2026-05-01T13:34:25.001Z</time></trkpt><trkpt lat="42.47768617500423" lon="8.689523219090107"><ele>20.0</ele><time>2026-05-01T13:34:26.001Z</time></trkpt><trkpt lat="42.47757393128209" lon="8.689470472400346"><ele>19.75</ele><time>2026-05-01T13:34:27.001Z</time></trkpt><trkpt lat="42.4774601040314" lon="8.689404992431301"><ele>19.5</ele><time>2026-05-01T13:34:28.001Z</time></trkpt><trkpt lat="42.47735497360001" lon="8.689326415486558"><ele>19.25</ele><time>2026-05-01T13:34:29.001Z</time></trkpt><trkpt lat="42.4772376277472" lon="8.689274129340436"><ele>19.0</ele><time>2026-05-01T13:34:30.001Z</time></trkpt><trkpt lat="42.47714149952752" lon="8.689199938991589"><ele>21.0</ele><time>2026-05-01T13:34:31.001Z</time></trkpt><trkpt lat="42.47706506241777" lon="8.689102644880258"><ele>23.0</ele><time>2026-05-01T13:34:32.001Z</time></trkpt><trkpt lat="42.47703969779522" lon="8.688952496022939"><ele>25.0</ele><time>2026-05-01T13:34:33.001Z</time></trkpt><trkpt lat="42.476975011283734" lon="8.688813926749397"><ele>27.0</ele><time>2026-05-01T13:34:34.001Z</time></trkpt><trkpt lat="42.47691877433018" lon="8.688653007827009"><ele>25.75</ele><time>2026-05-01T13:34:35.001Z</time></trkpt><trkpt lat="42.47685011696832" lon="8.688493263785546"><ele>24.5</ele><time>2026-05-01T13:34:36.001Z</time></trkpt><trkpt lat="42.47676917426155" lon="8.688323766608153"><ele>23.25</ele><time>2026-05-01T13:34:37.001Z</time></trkpt><trkpt lat="42.47668878514811" lon="8.688145981322924"><ele>22.0</ele><time>2026-05-01T13:34:38.001Z</time></trkpt><trkpt lat="42.47663493114121" lon="8.687946830222044"><ele>21.25</ele><time>2026-05-01T13:34:39.001Z</time></trkpt><trkpt lat="42.47657989158622" lon="8.687756802716267"><ele>20.5</ele><time>2026-05-01T13:34:40.001Z</time></trkpt><trkpt lat="42.4765441513164" lon="8.687571580908697"><ele>19.75</ele><time>2026-05-01T13:34:41.001Z</time></trkpt><trkpt lat="42.47650457373749" lon="8.687393491162597"><ele>19.0</ele><time>2026-05-01T13:34:42.001Z</time></trkpt><trkpt lat="42.476487675370024" lon="8.687218682053562"><ele>19.0</ele><time>2026-05-01T13:34:43.002Z</time></trkpt><trkpt lat="42.476471095434505" lon="8.68703330808613"><ele>19.0</ele><time>2026-05-01T13:34:44.002Z</time></trkpt><trkpt lat="42.47645400875121" lon="8.686848532223683"><ele>19.0</ele><time>2026-05-01T13:34:45.002Z</time></trkpt><trkpt lat="42.47646001342229" lon="8.68666250684048"><ele>19.0</ele><time>2026-05-01T13:34:46.002Z</time></trkpt><trkpt lat="42.476426296223345" lon="8.68649451279785"><ele>18.75</ele><time>2026-05-01T13:34:47.002Z</time></trkpt><trkpt lat="42.47640029481334" lon="8.686319152821682"><ele>18.5</ele><time>2026-05-01T13:34:48.002Z</time></trkpt><trkpt lat="42.47635417456837" lon="8.68614498695906"><ele>18.25</ele><time>2026-05-01T13:34:49.002Z</time></trkpt><trkpt lat="42.47629486159339" lon="8.685980029266496"><ele>18.0</ele><time>2026-05-01T13:34:50.002Z</time></trkpt><trkpt lat="42.476229302105736" lon="8.685812230780678"><ele>18.5</ele><time>2026-05-01T13:34:51.002Z</time></trkpt><trkpt lat="42.47616800326335" lon="8.68564011142964"><ele>19.0</ele><time>2026-05-01T13:34:52.002Z</time></trkpt><trkpt lat="42.476109933487216" lon="8.685465984231486"><ele>19.5</ele><time>2026-05-01T13:34:53.002Z</time></trkpt><trkpt lat="42.47606289941658" lon="8.685307134731728"><ele>20.0</ele><time>2026-05-01T13:34:54.002Z</time></trkpt><trkpt lat="42.47601756397847" lon="8.685157696113963"><ele>20.0</ele><time>2026-05-01T13:34:55.002Z</time></trkpt><trkpt lat="42.47596846443949" lon="8.685003227742238"><ele>20.0</ele><time>2026-05-01T13:34:56.002Z</time></trkpt><trkpt lat="42.47591523687742" lon="8.684839546591789"><ele>20.0</ele><time>2026-05-01T13:34:57.002Z</time></trkpt><trkpt lat="42.4758558423579" lon="8.68466645064939"><ele>20.0</ele><time>2026-05-01T13:34:58.002Z</time></trkpt><trkpt lat="42.47580937054231" lon="8.684494736253647"><ele>18.75</ele><time>2026-05-01T13:34:59.002Z</time></trkpt><trkpt lat="42.47576332960184" lon="8.684342435753244"><ele>17.5</ele><time>2026-05-01T13:35:00.002Z</time></trkpt><trkpt lat="42.47569854787576" lon="8.684211624683744"><ele>16.25</ele><time>2026-05-01T13:35:01.002Z</time></trkpt><trkpt lat="42.47562209328961" lon="8.684104634198821"><ele>15.0</ele><time>2026-05-01T13:35:02.002Z</time></trkpt><trkpt lat="42.47551739855253" lon="8.684020830870871"><ele>15.4</ele><time>2026-05-01T13:35:03.002Z</time></trkpt><trkpt lat="42.475402439127244" lon="8.683980485005039"><ele>15.8</ele><time>2026-05-01T13:35:04.002Z</time></trkpt><trkpt lat="42.47529291516015" lon="8.683983053947305"><ele>16.2</ele><time>2026-05-01T13:35:05.002Z</time></trkpt><trkpt lat="42.47518894040232" lon="8.684002710524828"><ele>16.6</ele><time>2026-05-01T13:35:06.002Z</time></trkpt><trkpt lat="42.475082418182794" lon="8.684029421099089"><ele>17.0</ele><time>2026-05-01T13:35:07.002Z</time></trkpt><trkpt lat="42.47496658490512" lon="8.684053302290328"><ele>17.0</ele><time>2026-05-01T13:35:08.002Z</time></trkpt><trkpt lat="42.474839350889035" lon="8.684085527648307"><ele>17.0</ele><time>2026-05-01T13:35:09.002Z</time></trkpt><trkpt lat="42.47469962591339" lon="8.684124854919549"><ele>17.0</ele><time>2026-05-01T13:35:10.002Z</time></trkpt><trkpt lat="42.47455053474879" lon="8.684165189336722"><ele>17.0</ele><time>2026-05-01T13:35:11.002Z</time></trkpt><trkpt lat="42.47439518103222" lon="8.684204743619015"><ele>16.666666666666668</ele><time>2026-05-01T13:35:12.002Z</time></trkpt><trkpt lat="42.474237844927266" lon="8.684230452633011"><ele>16.333333333333332</ele><time>2026-05-01T13:35:13.002Z</time></trkpt><trkpt lat="42.47408363681432" lon="8.684199395854632"><ele>16.0</ele><time>2026-05-01T13:35:14.002Z</time></trkpt><trkpt lat="42.473930290254906" lon="8.68418254997872"><ele>16.0</ele><time>2026-05-01T13:35:15.002Z</time></trkpt><trkpt lat="42.47378973302627" lon="8.684188021839958"><ele>16.0</ele><time>2026-05-01T13:35:16.003Z</time></trkpt><trkpt lat="42.473662212945406" lon="8.68417764992331"><ele>16.0</ele><time>2026-05-01T13:35:17.003Z</time></trkpt><trkpt lat="42.473548152084106" lon="8.68417080244603"><ele>16.0</ele><time>2026-05-01T13:35:18.003Z</time></trkpt><trkpt lat="42.473460718684976" lon="8.68412312189923"><ele>15.499999999999998</ele><time>2026-05-01T13:35:19.003Z</time></trkpt><trkpt lat="42.4734042373862" lon="8.684060864798065"><ele>15.0</ele><time>2026-05-01T13:35:20.003Z</time></trkpt><trkpt lat="42.47338124681128" lon="8.683977538931527"><ele>14.5</ele><time>2026-05-01T13:35:21.003Z</time></trkpt><trkpt lat="42.47336821281218" lon="8.683876727326101"><ele>14.0</ele><time>2026-05-01T13:35:22.003Z</time></trkpt><trkpt lat="42.473342102321524" lon="8.683752275519751"><ele>13.499999999999998</ele><time>2026-05-01T13:35:23.003Z</time></trkpt><trkpt lat="42.47330908825101" lon="8.68361225444415"><ele>13.0</ele><time>2026-05-01T13:35:24.003Z</time></trkpt><trkpt lat="42.47325257792389" lon="8.683471532229728"><ele>13.0</ele><time>2026-05-01T13:35:25.003Z</time></trkpt><trkpt lat="42.47317614187504" lon="8.683326003666597"><ele>13.0</ele><time>2026-05-01T13:35:26.003Z</time></trkpt><trkpt lat="42.47310102471287" lon="8.683174392865077"><ele>13.0</ele><time>2026-05-01T13:35:27.003Z</time></trkpt><trkpt lat="42.473028789354686" lon="8.68302870072108"><ele>13.0</ele><time>2026-05-01T13:35:28.003Z</time></trkpt><trkpt lat="42.472941677226" lon="8.682911432069114"><ele>14.5</ele><time>2026-05-01T13:35:29.003Z</time></trkpt><trkpt lat="42.47283833221136" lon="8.682814266032823"><ele>16.0</ele><time>2026-05-01T13:35:30.003Z</time></trkpt><trkpt lat="42.4727541810344" lon="8.682698399643128"><ele>17.5</ele><time>2026-05-01T13:35:31.003Z</time></trkpt><trkpt lat="42.4726817931079" lon="8.68257935446283"><ele>19.0</ele><time>2026-05-01T13:35:32.003Z</time></trkpt><trkpt lat="42.47261637018332" lon="8.682429572329658"><ele>19.0</ele><time>2026-05-01T13:35:33.003Z</time></trkpt><trkpt lat="42.47254716532102" lon="8.682276765153844"><ele>19.0</ele><time>2026-05-01T13:35:34.003Z</time></trkpt><trkpt lat="42.47247370904905" lon="8.682134922450132"><ele>19.0</ele><time>2026-05-01T13:35:35.003Z</time></trkpt><trkpt lat="42.47240675023565" lon="8.681989784517926"><ele>19.0</ele><time>2026-05-01T13:35:36.003Z</time></trkpt><trkpt lat="42.47232087304119" lon="8.681867362614389"><ele>18.75</ele><time>2026-05-01T13:35:37.003Z</time></trkpt><trkpt lat="42.47220978514829" lon="8.68175693362318"><ele>18.5</ele><time>2026-05-01T13:35:38.003Z</time></trkpt><trkpt lat="42.47209228812222" lon="8.681672084271598"><ele>18.25</ele><time>2026-05-01T13:35:39.003Z</time></trkpt><trkpt lat="42.47197734727345" lon="8.68159939861597"><ele>18.0</ele><time>2026-05-01T13:35:40.003Z</time></trkpt><trkpt lat="42.47186855878376" lon="8.681524806818791"><ele>18.0</ele><time>2026-05-01T13:35:41.003Z</time></trkpt><trkpt lat="42.47176847290209" lon="8.68144972322022"><ele>18.0</ele><time>2026-05-01T13:35:41.999Z</time></trkpt><trkpt lat="42.47167654953731" lon="8.681387970115273"><ele>18.0</ele><time>2026-05-01T13:35:42.999Z</time></trkpt><trkpt lat="42.47158147105811" lon="8.681364817417675"><ele>18.0</ele><time>2026-05-01T13:35:43.999Z</time></trkpt><trkpt lat="42.47149235438141" lon="8.68138872809935"><ele>18.0</ele><time>2026-05-01T13:35:44.999Z</time></trkpt><trkpt lat="42.471419306215346" lon="8.68145220539664"><ele>18.0</ele><time>2026-05-01T13:35:45.999Z</time></trkpt><trkpt lat="42.47136470354069" lon="8.681541699541741"><ele>18.0</ele><time>2026-05-01T13:35:46.999Z</time></trkpt><trkpt lat="42.47130891705766" lon="8.681646814532197"><ele>18.0</ele><time>2026-05-01T13:35:47.999Z</time></trkpt><trkpt lat="42.471249244986474" lon="8.681755868611223"><ele>18.0</ele><time>2026-05-01T13:35:48.999Z</time></trkpt><trkpt lat="42.47119456181744" lon="8.681872275210512"><ele>18.0</ele><time>2026-05-01T13:35:49.999Z</time></trkpt><trkpt lat="42.471146795683325" lon="8.682009455687526"><ele>17.5</ele><time>2026-05-01T13:35:50.999Z</time></trkpt><trkpt lat="42.47108765846007" lon="8.682154872927438"><ele>17.0</ele><time>2026-05-01T13:35:51.999Z</time></trkpt><trkpt lat="42.47103368160788" lon="8.682315875107328"><ele>16.5</ele><time>2026-05-01T13:35:52.999Z</time></trkpt><trkpt lat="42.47096525641003" lon="8.682458716932262"><ele>16.0</ele><time>2026-05-01T13:35:53.999Z</time></trkpt><trkpt lat="42.47087462114867" lon="8.682573728897031"><ele>16.0</ele><time>2026-05-01T13:35:54.999Z</time></trkpt><trkpt lat="42.47077472410263" lon="8.682640115059623"><ele>16.0</ele><time>2026-05-01T13:35:55.999Z</time></trkpt><trkpt lat="42.470673661821635" lon="8.682694741713853"><ele>16.0</ele><time>2026-05-01T13:35:56.999Z</time></trkpt><trkpt lat="42.470575732557336" lon="8.682764334665313"><ele>16.0</ele><time>2026-05-01T13:35:58Z</time></trkpt><trkpt lat="42.470486203044736" lon="8.682823065376754"><ele>16.0</ele><time>2026-05-01T13:35:59Z</time></trkpt><trkpt lat="42.470429540534994" lon="8.682934566104088"><ele>16.6</ele><time>2026-05-01T13:36:00Z</time></trkpt><trkpt lat="42.4704019395376" lon="8.683077763452095"><ele>17.200000000000003</ele><time>2026-05-01T13:36:01Z</time></trkpt><trkpt lat="42.47039072255388" lon="8.683224744629111"><ele>17.799999999999997</ele><time>2026-05-01T13:36:02Z</time></trkpt><trkpt lat="42.47038078561643" lon="8.683360660032108"><ele>18.4</ele><time>2026-05-01T13:36:03Z</time></trkpt><trkpt lat="42.47034400908119" lon="8.683485778592722"><ele>19.0</ele><time>2026-05-01T13:36:04Z</time></trkpt><trkpt lat="42.47032163153469" lon="8.683598341845949"><ele>19.0</ele><time>2026-05-01T13:36:05Z</time></trkpt><trkpt lat="42.47029212778756" lon="8.683674893384755"><ele>19.0</ele><time>2026-05-01T13:36:06Z</time></trkpt><trkpt lat="42.4702249831408" lon="8.68370330211538"><ele>19.0</ele><time>2026-05-01T13:36:07Z</time></trkpt><trkpt lat="42.47016004590783" lon="8.68367507371085"><ele>19.0</ele><time>2026-05-01T13:36:08Z</time></trkpt><trkpt lat="42.47010771783839" lon="8.683601643753702"><ele>19.0</ele><time>2026-05-01T13:36:09Z</time></trkpt><trkpt lat="42.47007848874483" lon="8.683472936651583"><ele>19.0</ele><time>2026-05-01T13:36:10Z</time></trkpt><trkpt lat="42.47003465144793" lon="8.683340408569173"><ele>19.0</ele><time>2026-05-01T13:36:11Z</time></trkpt><trkpt lat="42.469970173373675" lon="8.683203680110543"><ele>19.0</ele><time>2026-05-01T13:36:12Z</time></trkpt><trkpt lat="42.46989643814488" lon="8.683063345944328"><ele>19.0</ele><time>2026-05-01T13:36:13Z</time></trkpt><trkpt lat="42.46980044285554" lon="8.68293511479222"><ele>19.0</ele><time>2026-05-01T13:36:14Z</time></trkpt><trkpt lat="42.46969916947164" lon="8.682838810574214"><ele>20.0</ele><time>2026-05-01T13:36:15Z</time></trkpt><trkpt lat="42.46959819747575" lon="8.68279288968376"><ele>21.0</ele><time>2026-05-01T13:36:16Z</time></trkpt><trkpt lat="42.46949709695513" lon="8.682813994383213"><ele>22.0</ele><time>2026-05-01T13:36:17.001Z</time></trkpt><trkpt lat="42.46940099763416" lon="8.682887509756934"><ele>23.0</ele><time>2026-05-01T13:36:18.001Z</time></trkpt><trkpt lat="42.46929910721527" lon="8.682931290722905"><ele>24.0</ele><time>2026-05-01T13:36:19.001Z</time></trkpt><trkpt lat="42.46920348100869" lon="8.682941668316822"><ele>24.0</ele><time>2026-05-01T13:36:20.001Z</time></trkpt><trkpt lat="42.4691127122402" lon="8.682890355626927"><ele>24.0</ele><time>2026-05-01T13:36:21.001Z</time></trkpt><trkpt lat="42.46900919923358" lon="8.68281027957087"><ele>24.0</ele><time>2026-05-01T13:36:22.001Z</time></trkpt><trkpt lat="42.46889787695811" lon="8.68271332306818"><ele>24.0</ele><time>2026-05-01T13:36:23.001Z</time></trkpt><trkpt lat="42.46878704718822" lon="8.682591799383305"><ele>23.75</ele><time>2026-05-01T13:36:24.001Z</time></trkpt><trkpt lat="42.46866635777646" lon="8.68246781735474"><ele>23.5</ele><time>2026-05-01T13:36:25.001Z</time></trkpt><trkpt lat="42.46855825349409" lon="8.682326745816876"><ele>23.25</ele><time>2026-05-01T13:36:26.001Z</time></trkpt><trkpt lat="42.46844096034507" lon="8.682217031444393"><ele>23.0</ele><time>2026-05-01T13:36:27.001Z</time></trkpt><trkpt lat="42.4683205315983" lon="8.682132280913345"><ele>23.0</ele><time>2026-05-01T13:36:28.001Z</time></trkpt><trkpt lat="42.468188444186964" lon="8.682073382566351"><ele>23.0</ele><time>2026-05-01T13:36:29.001Z</time></trkpt><trkpt lat="42.468053449887876" lon="8.68205889368299"><ele>23.0</ele><time>2026-05-01T13:36:30.001Z</time></trkpt><trkpt lat="42.46792134053505" lon="8.6820721025114"><ele>23.0</ele><time>2026-05-01T13:36:31.001Z</time></trkpt><trkpt lat="42.46779880640268" lon="8.682114093227664"><ele>23.5</ele><time>2026-05-01T13:36:32.001Z</time></trkpt><trkpt lat="42.46767064109369" lon="8.68214097006668"><ele>24.0</ele><time>2026-05-01T13:36:33.001Z</time></trkpt><trkpt lat="42.467532548482794" lon="8.682189133168682"><ele>24.5</ele><time>2026-05-01T13:36:34.001Z</time></trkpt><trkpt lat="42.46739136877494" lon="8.682236977329833"><ele>25.0</ele><time>2026-05-01T13:36:35.001Z</time></trkpt><trkpt lat="42.46725916641985" lon="8.68228581199146"><ele>25.0</ele><time>2026-05-01T13:36:36.001Z</time></trkpt><trkpt lat="42.46713798024608" lon="8.682256738071324"><ele>25.0</ele><time>2026-05-01T13:36:37.001Z</time></trkpt><trkpt lat="42.46701408116526" lon="8.682204141206281"><ele>25.0</ele><time>2026-05-01T13:36:38.001Z</time></trkpt><trkpt lat="42.466876562147654" lon="8.682153699509904"><ele>25.0</ele><time>2026-05-01T13:36:39.001Z</time></trkpt><trkpt lat="42.4667397565233" lon="8.682126417549133"><ele>26.0</ele><time>2026-05-01T13:36:40.001Z</time></trkpt><trkpt lat="42.46662298931057" lon="8.68205816400259"><ele>27.0</ele><time>2026-05-01T13:36:41.001Z</time></trkpt><trkpt lat="42.46651304628199" lon="8.681996626042231"><ele>28.0</ele><time>2026-05-01T13:36:42.001Z</time></trkpt><trkpt lat="42.4664009290169" lon="8.681937968748445"><ele>29.0</ele><time>2026-05-01T13:36:43.001Z</time></trkpt><trkpt lat="42.46629671486465" lon="8.681846470688626"><ele>25.5</ele><time>2026-05-01T13:36:44.001Z</time></trkpt><trkpt lat="42.46618278078073" lon="8.681755837300976"><ele>22.0</ele><time>2026-05-01T13:36:45.001Z</time></trkpt><trkpt lat="42.46608011388088" lon="8.681683487326351"><ele>18.5</ele><time>2026-05-01T13:36:46.002Z</time></trkpt><trkpt lat="42.465977356769784" lon="8.681645080194212"><ele>15.0</ele><time>2026-05-01T13:36:47.002Z</time></trkpt><trkpt lat="42.46587606134561" lon="8.68164801595859"><ele>15.0</ele><time>2026-05-01T13:36:48.002Z</time></trkpt><trkpt lat="42.465780351119186" lon="8.681687279760887"><ele>15.0</ele><time>2026-05-01T13:36:49.002Z</time></trkpt><trkpt lat="42.46569008453819" lon="8.681774833711172"><ele>15.0</ele><time>2026-05-01T13:36:50.002Z</time></trkpt><trkpt lat="42.46560499578053" lon="8.681894940017722"><ele>15.0</ele><time>2026-05-01T13:36:51.002Z</time></trkpt><trkpt lat="42.46551904985396" lon="8.682038527403696"><ele>15.5</ele><time>2026-05-01T13:36:52.002Z</time></trkpt><trkpt lat="42.465435576504895" lon="8.682194651497564"><ele>16.0</ele><time>2026-05-01T13:36:53.002Z</time></trkpt><trkpt lat="42.46533542292896" lon="8.682332827041893"><ele>16.5</ele><time>2026-05-01T13:36:54.002Z</time></trkpt><trkpt lat="42.465233616276635" lon="8.682439039843425"><ele>17.0</ele><time>2026-05-01T13:36:55.002Z</time></trkpt><trkpt lat="42.465128241449186" lon="8.682527664825072"><ele>17.0</ele><time>2026-05-01T13:36:56.002Z</time></trkpt><trkpt lat="42.46502026484397" lon="8.682600559070051"><ele>17.0</ele><time>2026-05-01T13:36:57.002Z</time></trkpt><trkpt lat="42.464913418976664" lon="8.682689845368772"><ele>17.0</ele><time>2026-05-01T13:36:58.002Z</time></trkpt><trkpt lat="42.46479600407249" lon="8.682756893126854"><ele>17.0</ele><time>2026-05-01T13:36:59.002Z</time></trkpt><trkpt lat="42.464681435951974" lon="8.682831832237827"><ele>18.5</ele><time>2026-05-01T13:37:00.002Z</time></trkpt><trkpt lat="42.46457351435868" lon="8.682902248128036"><ele>20.0</ele><time>2026-05-01T13:37:01.002Z</time></trkpt><trkpt lat="42.46446855016005" lon="8.682992400586867"><ele>21.5</ele><time>2026-05-01T13:37:02.002Z</time></trkpt><trkpt lat="42.464372912186725" lon="8.683111916380113"><ele>23.0</ele><time>2026-05-01T13:37:03.002Z</time></trkpt><trkpt lat="42.464280401468294" lon="8.683233379701406"><ele>23.0</ele><time>2026-05-01T13:37:04.002Z</time></trkpt><trkpt lat="42.4642019642928" lon="8.683337213520153"><ele>23.0</ele><time>2026-05-01T13:37:05.002Z</time></trkpt><trkpt lat="42.46412659357963" lon="8.683404125060967"><ele>23.0</ele><time>2026-05-01T13:37:06.002Z</time></trkpt><trkpt lat="42.464046630767314" lon="8.683386818157839"><ele>23.0</ele><time>2026-05-01T13:37:07.002Z</time></trkpt><trkpt lat="42.463986252126375" lon="8.68335874769265"><ele>23.0</ele><time>2026-05-01T13:37:08.002Z</time></trkpt><trkpt lat="42.463926369274716" lon="8.683302909481258"><ele>23.0</ele><time>2026-05-01T13:37:09.002Z</time></trkpt><trkpt lat="42.46384684234869" lon="8.683252193446796"><ele>23.0</ele><time>2026-05-01T13:37:10.002Z</time></trkpt><trkpt lat="42.46377789823789" lon="8.683198681910836"><ele>23.0</ele><time>2026-05-01T13:37:11.002Z</time></trkpt><trkpt lat="42.4637418886388" lon="8.683108384062578"><ele>23.0</ele><time>2026-05-01T13:37:12.002Z</time></trkpt><trkpt lat="42.46373751466599" lon="8.682995231785034"><ele>23.0</ele><time>2026-05-01T13:37:13.002Z</time></trkpt><trkpt lat="42.46378475015946" lon="8.682880051418335"><ele>23.0</ele><time>2026-05-01T13:37:14.002Z</time></trkpt><trkpt lat="42.46379274619692" lon="8.682737767588918"><ele>23.0</ele><time>2026-05-01T13:37:15.002Z</time></trkpt><trkpt lat="42.46382057679237" lon="8.6825907703405"><ele>22.799999999999997</ele><time>2026-05-01T13:37:16.002Z</time></trkpt><trkpt lat="42.46384276725673" lon="8.682428468353484"><ele>22.6</ele><time>2026-05-01T13:37:17.002Z</time></trkpt><trkpt lat="42.463862547770056" lon="8.682270243211647"><ele>22.4</ele><time>2026-05-01T13:37:18.003Z</time></trkpt><trkpt lat="42.46388269060264" lon="8.682139064252842"><ele>22.200000000000003</ele><time>2026-05-01T13:37:19.003Z</time></trkpt><trkpt lat="42.4639002926439" lon="8.682024314128565"><ele>22.0</ele><time>2026-05-01T13:37:20.003Z</time></trkpt><trkpt lat="42.463914669639614" lon="8.681914661156892"><ele>22.0</ele><time>2026-05-01T13:37:21.003Z</time></trkpt><trkpt lat="42.46390677987495" lon="8.681807841411159"><ele>22.0</ele><time>2026-05-01T13:37:22.003Z</time></trkpt><trkpt lat="42.46389675872909" lon="8.681704091822468"><ele>22.0</ele><time>2026-05-01T13:37:23.003Z</time></trkpt><trkpt lat="42.463887720680496" lon="8.68159259785367"><ele>22.0</ele><time>2026-05-01T13:37:24.003Z</time></trkpt><trkpt lat="42.46389229433459" lon="8.681487012128366"><ele>22.0</ele><time>2026-05-01T13:37:25.003Z</time></trkpt><trkpt lat="42.46392999475928" lon="8.681415873072288"><ele>22.0</ele><time>2026-05-01T13:37:26.003Z</time></trkpt><trkpt lat="42.46405703437558" lon="8.681388694259635"><ele>22.0</ele><time>2026-05-01T13:37:28.003Z</time></trkpt><trkpt lat="42.46414080334709" lon="8.681390147824155"><ele>22.0</ele><time>2026-05-01T13:37:29.003Z</time></trkpt><trkpt lat="42.46422663869964" lon="8.681353530020674"><ele>22.0</ele><time>2026-05-01T13:37:30.003Z</time></trkpt><trkpt lat="42.46430600033391" lon="8.68127447073045"><ele>22.0</ele><time>2026-05-01T13:37:31.003Z</time></trkpt><trkpt lat="42.46436147224952" lon="8.681180626546867"><ele>22.0</ele><time>2026-05-01T13:37:32.003Z</time></trkpt><trkpt lat="42.464403829526184" lon="8.681090868411488"><ele>22.0</ele><time>2026-05-01T13:37:33.003Z</time></trkpt><trkpt lat="42.46445061600533" lon="8.680999314995038"><ele>23.833333333333332</ele><time>2026-05-01T13:37:34.003Z</time></trkpt><trkpt lat="42.464488344960934" lon="8.680899921169813"><ele>25.666666666666664</ele><time>2026-05-01T13:37:35.003Z</time></trkpt><trkpt lat="42.46450321292691" lon="8.680777283480772"><ele>27.5</ele><time>2026-05-01T13:37:36.003Z</time></trkpt><trkpt lat="42.46448787817967" lon="8.680652686578865"><ele>29.333333333333332</ele><time>2026-05-01T13:37:37.003Z</time></trkpt><trkpt lat="42.46444634687778" lon="8.680537697911477"><ele>31.166666666666668</ele><time>2026-05-01T13:37:38.003Z</time></trkpt><trkpt lat="42.464417908504046" lon="8.680432680202786"><ele>33.0</ele><time>2026-05-01T13:37:39.003Z</time></trkpt><trkpt lat="42.46442901308701" lon="8.680339934705474"><ele>31.4</ele><time>2026-05-01T13:37:40.003Z</time></trkpt><trkpt lat="42.464471288483345" lon="8.680260128334737"><ele>29.799999999999997</ele><time>2026-05-01T13:37:41.003Z</time></trkpt><trkpt lat="42.4645431591911" lon="8.680192157195725"><ele>28.2</ele><time>2026-05-01T13:37:42.003Z</time></trkpt><trkpt lat="42.46460707340171" lon="8.68009619889512"><ele>26.6</ele><time>2026-05-01T13:37:43.003Z</time></trkpt><trkpt lat="42.46464401936953" lon="8.679965751838857"><ele>25.0</ele><time>2026-05-01T13:37:44.003Z</time></trkpt><trkpt lat="42.464639991748335" lon="8.679813571945"><ele>25.5</ele><time>2026-05-01T13:37:45.003Z</time></trkpt><trkpt lat="42.46459714118947" lon="8.679649682402605"><ele>26.0</ele><time>2026-05-01T13:37:46.003Z</time></trkpt><trkpt lat="42.46456049206862" lon="8.679484512651841"><ele>26.5</ele><time>2026-05-01T13:37:47.003Z</time></trkpt><trkpt lat="42.464580896941385" lon="8.679334986375776"><ele>27.0</ele><time>2026-05-01T13:37:47.999Z</time></trkpt><trkpt lat="42.464634235135456" lon="8.679228893355143"><ele>27.0</ele><time>2026-05-01T13:37:48.999Z</time></trkpt><trkpt lat="42.46470730649084" lon="8.679155030941239"><ele>27.0</ele><time>2026-05-01T13:37:49.999Z</time></trkpt><trkpt lat="42.464756851592554" lon="8.679055430278433"><ele>27.0</ele><time>2026-05-01T13:37:50.999Z</time></trkpt><trkpt lat="42.46479384096014" lon="8.6789372746556"><ele>27.0</ele><time>2026-05-01T13:37:51.999Z</time></trkpt><trkpt lat="42.46479879875207" lon="8.678817866628389"><ele>27.0</ele><time>2026-05-01T13:37:52.999Z</time></trkpt><trkpt lat="42.464767487158596" lon="8.678718087648496"><ele>27.0</ele><time>2026-05-01T13:37:53.999Z</time></trkpt><trkpt lat="42.46472134724869" lon="8.67861137492629"><ele>27.8</ele><time>2026-05-01T13:37:54.999Z</time></trkpt><trkpt lat="42.46465190778613" lon="8.678499270152395"><ele>28.6</ele><time>2026-05-01T13:37:55.999Z</time></trkpt><trkpt lat="42.46455785866641" lon="8.678417288039842"><ele>29.400000000000002</ele><time>2026-05-01T13:37:56.999Z</time></trkpt><trkpt lat="42.464458748145475" lon="8.678340079231033"><ele>30.200000000000003</ele><time>2026-05-01T13:37:57.999Z</time></trkpt><trkpt lat="42.464393731252486" lon="8.678242286395562"><ele>31.0</ele><time>2026-05-01T13:37:58.999Z</time></trkpt><trkpt lat="42.46437636005808" lon="8.678145238117096"><ele>31.666666666666668</ele><time>2026-05-01T13:37:59.999Z</time></trkpt><trkpt lat="42.464388454203046" lon="8.67805315127112"><ele>32.333333333333336</ele><time>2026-05-01T13:38:00.999Z</time></trkpt><trkpt lat="42.4644214298352" lon="8.677962506318275"><ele>33.0</ele><time>2026-05-01T13:38:01.999Z</time></trkpt><trkpt lat="42.46449100582422" lon="8.677881316145028"><ele>33.666666666666664</ele><time>2026-05-01T13:38:02.999Z</time></trkpt><trkpt lat="42.4645653125336" lon="8.677786932259762"><ele>34.33333333333333</ele><time>2026-05-01T13:38:03.999Z</time></trkpt><trkpt lat="42.46462114920901" lon="8.67767494353655"><ele>35.0</ele><time>2026-05-01T13:38:05Z</time></trkpt><trkpt lat="42.46463560533493" lon="8.677543159622518"><ele>37.5</ele><time>2026-05-01T13:38:06Z</time></trkpt><trkpt lat="42.464612648713675" lon="8.677403528631915"><ele>40.0</ele><time>2026-05-01T13:38:07Z</time></trkpt><trkpt lat="42.46456180582963" lon="8.677257313070852"><ele>42.5</ele><time>2026-05-01T13:38:08Z</time></trkpt><trkpt lat="42.46449075040678" lon="8.677118667466974"><ele>45.0</ele><time>2026-05-01T13:38:09Z</time></trkpt><trkpt lat="42.464406274679355" lon="8.676987941110216"><ele>43.6</ele><time>2026-05-01T13:38:10Z</time></trkpt><trkpt lat="42.46431470624326" lon="8.676874411498328"><ele>42.2</ele><time>2026-05-01T13:38:11Z</time></trkpt><trkpt lat="42.464220454255845" lon="8.676810391799734"><ele>40.8</ele><time>2026-05-01T13:38:12Z</time></trkpt><trkpt lat="42.46412240272379" lon="8.676800674100647"><ele>39.4</ele><time>2026-05-01T13:38:13Z</time></trkpt><trkpt lat="42.46401730498165" lon="8.676834073312477"><ele>38.0</ele><time>2026-05-01T13:38:14Z</time></trkpt><trkpt lat="42.4639113487369" lon="8.676876763055606"><ele>38.0</ele><time>2026-05-01T13:38:15Z</time></trkpt><trkpt lat="42.46379851531334" lon="8.67688732827338"><ele>38.0</ele><time>2026-05-01T13:38:16Z</time></trkpt><trkpt lat="42.46367871284991" lon="8.676907192983405"><ele>38.0</ele><time>2026-05-01T13:38:17Z</time></trkpt><trkpt lat="42.463564839803155" lon="8.676885185328315"><ele>38.0</ele><time>2026-05-01T13:38:18Z</time></trkpt><trkpt lat="42.46344926151947" lon="8.676830478863145"><ele>39.75</ele><time>2026-05-01T13:38:19Z</time></trkpt><trkpt lat="42.46331255745991" lon="8.676786162712663"><ele>41.5</ele><time>2026-05-01T13:38:20Z</time></trkpt><trkpt lat="42.46317528105808" lon="8.676715919739879"><ele>43.25</ele><time>2026-05-01T13:38:21Z</time></trkpt><trkpt lat="42.463031995998655" lon="8.676662954629611"><ele>45.0</ele><time>2026-05-01T13:38:22Z</time></trkpt><trkpt lat="42.46289719127842" lon="8.6766039393481"><ele>49.0</ele><time>2026-05-01T13:38:23Z</time></trkpt><trkpt lat="42.46279435364144" lon="8.676513140178429"><ele>53.0</ele><time>2026-05-01T13:38:24.001Z</time></trkpt><trkpt lat="42.46271306625122" lon="8.676407841305847"><ele>57.0</ele><time>2026-05-01T13:38:25.001Z</time></trkpt><trkpt lat="42.46260990243527" lon="8.676307747123246"><ele>61.0</ele><time>2026-05-01T13:38:26.001Z</time></trkpt><trkpt lat="42.462514934815026" lon="8.676179201743667"><ele>61.0</ele><time>2026-05-01T13:38:27.001Z</time></trkpt><trkpt lat="42.46240706757887" lon="8.676075972013004"><ele>61.0</ele><time>2026-05-01T13:38:28.001Z</time></trkpt><trkpt lat="42.462285004643014" lon="8.675996368165217"><ele>61.0</ele><time>2026-05-01T13:38:29.001Z</time></trkpt><trkpt lat="42.46215270459472" lon="8.67593179881526"><ele>61.0</ele><time>2026-05-01T13:38:30.001Z</time></trkpt><trkpt lat="42.46201966386137" lon="8.675874694842236"><ele>61.0</ele><time>2026-05-01T13:38:31.001Z</time></trkpt><trkpt lat="42.4618965871158" lon="8.675823586464153"><ele>60.99999999999999</ele><time>2026-05-01T13:38:32.001Z</time></trkpt><trkpt lat="42.46178522955247" lon="8.675773428739681"><ele>60.99999999999999</ele><time>2026-05-01T13:38:33.001Z</time></trkpt><trkpt lat="42.46168587700371" lon="8.675725060329396"><ele>61.0</ele><time>2026-05-01T13:38:34.001Z</time></trkpt><trkpt lat="42.46160168571457" lon="8.675670281219498"><ele>61.0</ele><time>2026-05-01T13:38:35.001Z</time></trkpt><trkpt lat="42.46155305369164" lon="8.675573959786021"><ele>61.0</ele><time>2026-05-01T13:38:36.001Z</time></trkpt><trkpt lat="42.46152203712766" lon="8.675478794606077"><ele>60.99999999999999</ele><time>2026-05-01T13:38:37.001Z</time></trkpt><trkpt lat="42.461492488300415" lon="8.675368275945983"><ele>60.99999999999999</ele><time>2026-05-01T13:38:38.001Z</time></trkpt><trkpt lat="42.461521230861315" lon="8.675223926661388"><ele>61.0</ele><time>2026-05-01T13:38:39.001Z</time></trkpt><trkpt lat="42.461514415057344" lon="8.675066525104269"><ele>61.0</ele><time>2026-05-01T13:38:40.001Z</time></trkpt><trkpt lat="42.46150801135394" lon="8.674895944834208"><ele>58.5</ele><time>2026-05-01T13:38:41.001Z</time></trkpt><trkpt lat="42.46148475252612" lon="8.674730197719969"><ele>56.0</ele><time>2026-05-01T13:38:42.001Z</time></trkpt><trkpt lat="42.46143713937549" lon="8.67456041222639"><ele>53.5</ele><time>2026-05-01T13:38:43.001Z</time></trkpt><trkpt lat="42.46137517741623" lon="8.67439268089"><ele>51.0</ele><time>2026-05-01T13:38:44.001Z</time></trkpt><trkpt lat="42.461308033114655" lon="8.674228097020999"><ele>55.5</ele><time>2026-05-01T13:38:45.001Z</time></trkpt><trkpt lat="42.46123624488646" lon="8.674065748944049"><ele>60.0</ele><time>2026-05-01T13:38:46.001Z</time></trkpt><trkpt lat="42.4611502621316" lon="8.673919881469704"><ele>64.5</ele><time>2026-05-01T13:38:47.001Z</time></trkpt><trkpt lat="42.461042687372" lon="8.673801749476535"><ele>69.0</ele><time>2026-05-01T13:38:48.001Z</time></trkpt><trkpt lat="42.460927068208825" lon="8.673703067702354"><ele>69.0</ele><time>2026-05-01T13:38:49.001Z</time></trkpt><trkpt lat="42.46079982139717" lon="8.673613502039174"><ele>69.0</ele><time>2026-05-01T13:38:50.001Z</time></trkpt><trkpt lat="42.460674013915764" lon="8.67353019907439"><ele>69.0</ele><time>2026-05-01T13:38:51.001Z</time></trkpt><trkpt lat="42.46055527629738" lon="8.67345864470778"><ele>69.0</ele><time>2026-05-01T13:38:52.002Z</time></trkpt><trkpt lat="42.460445770513424" lon="8.67341564429602"><ele>69.60000000000001</ele><time>2026-05-01T13:38:53.002Z</time></trkpt><trkpt lat="42.46035392368285" lon="8.673407102355398"><ele>70.2</ele><time>2026-05-01T13:38:54.002Z</time></trkpt><trkpt lat="42.46027314632969" lon="8.673439675198594"><ele>70.80000000000001</ele><time>2026-05-01T13:38:55.002Z</time></trkpt><trkpt lat="42.46021433618629" lon="8.673521681162033"><ele>71.4</ele><time>2026-05-01T13:38:56.002Z</time></trkpt><trkpt lat="42.46016729117269" lon="8.673633781737076"><ele>72.0</ele><time>2026-05-01T13:38:57.002Z</time></trkpt><trkpt lat="42.46009910321015" lon="8.67374592309387"><ele>72.0</ele><time>2026-05-01T13:38:58.002Z</time></trkpt><trkpt lat="42.46003091547729" lon="8.673869520426875"><ele>72.0</ele><time>2026-05-01T13:38:59.002Z</time></trkpt><trkpt lat="42.45996591585528" lon="8.673987339379302"><ele>72.0</ele><time>2026-05-01T13:39:00.002Z</time></trkpt><trkpt lat="42.45990410657115" lon="8.674086365755217"><ele>72.0</ele><time>2026-05-01T13:39:01.002Z</time></trkpt><trkpt lat="42.459838238815685" lon="8.674144437775926"><ele>72.0</ele><time>2026-05-01T13:39:02.002Z</time></trkpt><trkpt lat="42.459778555729955" lon="8.674174783624833"><ele>72.0</ele><time>2026-05-01T13:39:03.002Z</time></trkpt><trkpt lat="42.459716022578085" lon="8.674118923060197"><ele>72.0</ele><time>2026-05-01T13:39:04.002Z</time></trkpt><trkpt lat="42.45967872492081" lon="8.674023897365847"><ele>72.0</ele><time>2026-05-01T13:39:05.002Z</time></trkpt><trkpt lat="42.45968391491072" lon="8.673890455466925"><ele>72.0</ele><time>2026-05-01T13:39:06.002Z</time></trkpt><trkpt lat="42.459646019347126" lon="8.673768004802975"><ele>72.0</ele><time>2026-05-01T13:39:07.002Z</time></trkpt><trkpt lat="42.45961797894682" lon="8.673634195367828"><ele>72.25</ele><time>2026-05-01T13:39:08.002Z</time></trkpt><trkpt lat="42.45957190251905" lon="8.673508810417871"><ele>72.5</ele><time>2026-05-01T13:39:09.002Z</time></trkpt><trkpt lat="42.459498924254646" lon="8.673384101763281"><ele>72.75</ele><time>2026-05-01T13:39:10.002Z</time></trkpt><trkpt lat="42.45940918105733" lon="8.673284368278235"><ele>73.0</ele><time>2026-05-01T13:39:11.002Z</time></trkpt><trkpt lat="42.459304493306945" lon="8.673225484564377"><ele>73.0</ele><time>2026-05-01T13:39:12.002Z</time></trkpt><trkpt lat="42.459195904562826" lon="8.673225659122098"><ele>73.0</ele><time>2026-05-01T13:39:13.002Z</time></trkpt><trkpt lat="42.45908145802881" lon="8.6732754830506"><ele>73.0</ele><time>2026-05-01T13:39:14.002Z</time></trkpt><trkpt lat="42.45898492515783" lon="8.673276701252977"><ele>73.0</ele><time>2026-05-01T13:39:15.002Z</time></trkpt><trkpt lat="42.458908024153665" lon="8.673263989109815"><ele>73.0</ele><time>2026-05-01T13:39:16.002Z</time></trkpt><trkpt lat="42.45886433450519" lon="8.673186051270772"><ele>73.0</ele><time>2026-05-01T13:39:17.002Z</time></trkpt><trkpt lat="42.45888662596372" lon="8.673058773806135"><ele>73.0</ele><time>2026-05-01T13:39:18.002Z</time></trkpt><trkpt lat="42.45887468468914" lon="8.672924429566075"><ele>73.0</ele><time>2026-05-01T13:39:19.002Z</time></trkpt><trkpt lat="42.45887049634069" lon="8.672773658006427"><ele>73.0</ele><time>2026-05-01T13:39:20.002Z</time></trkpt><trkpt lat="42.45884896926283" lon="8.672616857621215"><ele>73.0</ele><time>2026-05-01T13:39:21.002Z</time></trkpt><trkpt lat="42.45880348126331" lon="8.672459125377847"><ele>75.5</ele><time>2026-05-01T13:39:22.002Z</time></trkpt><trkpt lat="42.45873108491674" lon="8.672313565095557"><ele>78.0</ele><time>2026-05-01T13:39:23.002Z</time></trkpt><trkpt lat="42.458625461162406" lon="8.672204782732397"><ele>80.5</ele><time>2026-05-01T13:39:24.003Z</time></trkpt><trkpt lat="42.45849899813665" lon="8.672149046885208"><ele>83.0</ele><time>2026-05-01T13:39:25.003Z</time></trkpt><trkpt lat="42.45836855605278" lon="8.672154325382898"><ele>83.0</ele><time>2026-05-01T13:39:26.003Z</time></trkpt><trkpt lat="42.45824112143464" lon="8.672193731435572"><ele>83.0</ele><time>2026-05-01T13:39:27.003Z</time></trkpt><trkpt lat="42.458112428642195" lon="8.672252078768224"><ele>83.0</ele><time>2026-05-01T13:39:28.003Z</time></trkpt><trkpt lat="42.45799173506907" lon="8.672265879526861"><ele>83.0</ele><time>2026-05-01T13:39:29.003Z</time></trkpt><trkpt lat="42.45789615654758" lon="8.672267807717391"><ele>83.0</ele><time>2026-05-01T13:39:30.003Z</time></trkpt><trkpt lat="42.45782484418283" lon="8.672237003101452"><ele>83.0</ele><time>2026-05-01T13:39:31.003Z</time></trkpt><trkpt lat="42.45776204492042" lon="8.672085599429677"><ele>83.0</ele><time>2026-05-01T13:39:33.003Z</time></trkpt><trkpt lat="42.457751551372226" lon="8.671958590948071"><ele>83.0</ele><time>2026-05-01T13:39:34.003Z</time></trkpt><trkpt lat="42.457730762471996" lon="8.671803443087143"><ele>83.0</ele><time>2026-05-01T13:39:35.003Z</time></trkpt><trkpt lat="42.45772017296472" lon="8.671651732254972"><ele>83.0</ele><time>2026-05-01T13:39:36.003Z</time></trkpt><trkpt lat="42.457672921896126" lon="8.671531425060849"><ele>83.0</ele><time>2026-05-01T13:39:37.003Z</time></trkpt><trkpt lat="42.45759351818359" lon="8.67145174940283"><ele>83.0</ele><time>2026-05-01T13:39:38.003Z</time></trkpt><trkpt lat="42.457486727229465" lon="8.671416579783807"><ele>83.0</ele><time>2026-05-01T13:39:39.003Z</time></trkpt><trkpt lat="42.45737760069059" lon="8.6714484928494"><ele>83.0</ele><time>2026-05-01T13:39:40.003Z</time></trkpt><trkpt lat="42.45726727378768" lon="8.671510621078916"><ele>83.0</ele><time>2026-05-01T13:39:41.003Z</time></trkpt><trkpt lat="42.45714809625346" lon="8.671548294498642"><ele>83.0</ele><time>2026-05-01T13:39:42.003Z</time></trkpt><trkpt lat="42.457011738837224" lon="8.671599111316906"><ele>83.0</ele><time>2026-05-01T13:39:43.003Z</time></trkpt><trkpt lat="42.45686296359297" lon="8.671648100775029"><ele>83.0</ele><time>2026-05-01T13:39:44.003Z</time></trkpt><trkpt lat="42.456706534183446" lon="8.67169537041468"><ele>83.0</ele><time>2026-05-01T13:39:45.003Z</time></trkpt><trkpt lat="42.456544193047705" lon="8.671760167901303"><ele>83.0</ele><time>2026-05-01T13:39:46.003Z</time></trkpt><trkpt lat="42.456393626550366" lon="8.671799618003242"><ele>83.0</ele><time>2026-05-01T13:39:47.003Z</time></trkpt><trkpt lat="42.45626162727354" lon="8.671861919434956"><ele>84.75</ele><time>2026-05-01T13:39:48.003Z</time></trkpt><trkpt lat="42.456152168945394" lon="8.671977166884387"><ele>86.5</ele><time>2026-05-01T13:39:49.003Z</time></trkpt><trkpt lat="42.45607887925704" lon="8.672128358790658"><ele>88.25</ele><time>2026-05-01T13:39:50.003Z</time></trkpt><trkpt lat="42.45604752489361" lon="8.672282236131434"><ele>90.0</ele><time>2026-05-01T13:39:51.003Z</time></trkpt><trkpt lat="42.456041072638655" lon="8.672442697282948"><ele>90.0</ele><time>2026-05-01T13:39:52.003Z</time></trkpt><trkpt lat="42.45604766495357" lon="8.672600595183063"><ele>90.0</ele><time>2026-05-01T13:39:53.003Z</time></trkpt><trkpt lat="42.456029757165304" lon="8.67272567546675"><ele>90.0</ele><time>2026-05-01T13:39:53.998Z</time></trkpt><trkpt lat="42.456037373472185" lon="8.672834936016942"><ele>90.0</ele><time>2026-05-01T13:39:55.999Z</time></trkpt><trkpt lat="42.45602605065467" lon="8.672944966865987"><ele>90.0</ele><time>2026-05-01T13:39:58.999Z</time></trkpt><trkpt lat="42.45595698442271" lon="8.67308587795697"><ele>92.8</ele><time>2026-05-01T13:40:00.999Z</time></trkpt><trkpt lat="42.45585123542737" lon="8.673074099485314"><ele>95.6</ele><time>2026-05-01T13:40:02.999Z</time></trkpt><trkpt lat="42.4557299893574" lon="8.673048228330373"><ele>98.4</ele><time>2026-05-01T13:40:04.999Z</time></trkpt><trkpt lat="42.45566075930481" lon="8.673049053215106"><ele>101.2</ele><time>2026-05-01T13:40:05.999Z</time></trkpt><trkpt lat="42.45558509634586" lon="8.673007572950956"><ele>104.0</ele><time>2026-05-01T13:40:06.999Z</time></trkpt><trkpt lat="42.45554338386255" lon="8.672924083340122"><ele>103.99999999999999</ele><time>2026-05-01T13:40:07.999Z</time></trkpt><trkpt lat="42.45549291364848" lon="8.67285304722394"><ele>104.0</ele><time>2026-05-01T13:40:08.999Z</time></trkpt><trkpt lat="42.455473474413964" lon="8.672732337330872"><ele>104.0</ele><time>2026-05-01T13:40:09.999Z</time></trkpt><trkpt lat="42.45541072945409" lon="8.672659981955913"><ele>104.0</ele><time>2026-05-01T13:40:11Z</time></trkpt><trkpt lat="42.45534021209613" lon="8.672587857163226"><ele>103.99999999999999</ele><time>2026-05-01T13:40:12Z</time></trkpt><trkpt lat="42.45526793790798" lon="8.672535161194856"><ele>104.0</ele><time>2026-05-01T13:40:13Z</time></trkpt><trkpt lat="42.45521782486868" lon="8.67246017495586"><ele>103.66666666666666</ele><time>2026-05-01T13:40:14Z</time></trkpt><trkpt lat="42.455175011065904" lon="8.6723890083626"><ele>103.33333333333333</ele><time>2026-05-01T13:40:15Z</time></trkpt><trkpt lat="42.45516709315606" lon="8.672294775021461"><ele>103.0</ele><time>2026-05-01T13:40:16Z</time></trkpt><trkpt lat="42.455163980417396" lon="8.672185798140502"><ele>102.66666666666666</ele><time>2026-05-01T13:40:17Z</time></trkpt><trkpt lat="42.455140190802254" lon="8.672079309458702"><ele>102.33333333333333</ele><time>2026-05-01T13:40:18Z</time></trkpt><trkpt lat="42.455122153967835" lon="8.671957578287035"><ele>102.0</ele><time>2026-05-01T13:40:19Z</time></trkpt><trkpt lat="42.4550814495708" lon="8.671838731081545"><ele>99.6</ele><time>2026-05-01T13:40:20Z</time></trkpt><trkpt lat="42.45501440164013" lon="8.67172968893933"><ele>97.19999999999999</ele><time>2026-05-01T13:40:21Z</time></trkpt><trkpt lat="42.4549351812317" lon="8.671666307912792"><ele>94.8</ele><time>2026-05-01T13:40:22Z</time></trkpt><trkpt lat="42.454851476285384" lon="8.671660886146372"><ele>92.4</ele><time>2026-05-01T13:40:23Z</time></trkpt><trkpt lat="42.45476379850334" lon="8.671700311409962"><ele>90.0</ele><time>2026-05-01T13:40:24Z</time></trkpt><trkpt lat="42.45468786078058" lon="8.671780043680103"><ele>89.5</ele><time>2026-05-01T13:40:25Z</time></trkpt><trkpt lat="42.45460512211731" lon="8.671877153075926"><ele>89.0</ele><time>2026-05-01T13:40:26Z</time></trkpt><trkpt lat="42.454502562924795" lon="8.67194601435935"><ele>88.5</ele><time>2026-05-01T13:40:27Z</time></trkpt><trkpt lat="42.4544059976649" lon="8.672032359424303"><ele>88.0</ele><time>2026-05-01T13:40:28Z</time></trkpt><trkpt lat="42.45431164409764" lon="8.672140384448747"><ele>91.80000000000001</ele><time>2026-05-01T13:40:29Z</time></trkpt><trkpt lat="42.454221806462435" lon="8.672246703073707"><ele>95.6</ele><time>2026-05-01T13:40:30.001Z</time></trkpt><trkpt lat="42.45415211950868" lon="8.672365691061666"><ele>99.39999999999999</ele><time>2026-05-01T13:40:31.001Z</time></trkpt><trkpt lat="42.454082044098755" lon="8.672440828261301"><ele>103.19999999999999</ele><time>2026-05-01T13:40:32.001Z</time></trkpt><trkpt lat="42.45402082426553" lon="8.672490536057765"><ele>107.0</ele><time>2026-05-01T13:40:33.001Z</time></trkpt><trkpt lat="42.4538971102939" lon="8.67244992671467"><ele>107.0</ele><time>2026-05-01T13:40:35.001Z</time></trkpt><trkpt lat="42.453834117268414" lon="8.672374806293202"><ele>106.99999999999999</ele><time>2026-05-01T13:40:36.001Z</time></trkpt><trkpt lat="42.45378578375874" lon="8.672261767773438"><ele>106.99999999999999</ele><time>2026-05-01T13:40:37.001Z</time></trkpt><trkpt lat="42.45371879705388" lon="8.672152261126888"><ele>107.0</ele><time>2026-05-01T13:40:38.001Z</time></trkpt><trkpt lat="42.45363044236466" lon="8.672052636146743"><ele>107.0</ele><time>2026-05-01T13:40:39.001Z</time></trkpt><trkpt lat="42.453509556839876" lon="8.672015123987052"><ele>105.0</ele><time>2026-05-01T13:40:40.001Z</time></trkpt><trkpt lat="42.4533984342229" lon="8.67193671766198"><ele>103.0</ele><time>2026-05-01T13:40:41.001Z</time></trkpt><trkpt lat="42.45330225563323" lon="8.671845524231893"><ele>101.0</ele><time>2026-05-01T13:40:42.001Z</time></trkpt><trkpt lat="42.453237218687526" lon="8.671724126973935"><ele>99.0</ele><time>2026-05-01T13:40:43.001Z</time></trkpt><trkpt lat="42.45315782006326" lon="8.671642212533639"><ele>99.0</ele><time>2026-05-01T13:40:44.001Z</time></trkpt><trkpt lat="42.45306077301365" lon="8.67165374955452"><ele>99.0</ele><time>2026-05-01T13:40:45.001Z</time></trkpt><trkpt lat="42.45297424538533" lon="8.671679709949832"><ele>99.0</ele><time>2026-05-01T13:40:46.001Z</time></trkpt><trkpt lat="42.452927340049435" lon="8.671816488574478"><ele>99.0</ele><time>2026-05-01T13:40:47.001Z</time></trkpt><trkpt lat="42.45286864118034" lon="8.671909307705278"><ele>99.0</ele><time>2026-05-01T13:40:48.001Z</time></trkpt><trkpt lat="42.45280262075984" lon="8.671966993202137"><ele>98.75</ele><time>2026-05-01T13:40:49.001Z</time></trkpt><trkpt lat="42.45271500455608" lon="8.671950877513769"><ele>98.5</ele><time>2026-05-01T13:40:50.001Z</time></trkpt><trkpt lat="42.452600032414594" lon="8.671925809535344"><ele>98.25</ele><time>2026-05-01T13:40:51.001Z</time></trkpt><trkpt lat="42.45247554013965" lon="8.671959146979539"><ele>98.0</ele><time>2026-05-01T13:40:52.001Z</time></trkpt><trkpt lat="42.45235616933018" lon="8.672009504079268"><ele>98.5</ele><time>2026-05-01T13:40:53.001Z</time></trkpt><trkpt lat="42.45225031286419" lon="8.67209404051818"><ele>99.0</ele><time>2026-05-01T13:40:54.001Z</time></trkpt><trkpt lat="42.45215631370951" lon="8.672223476245684"><ele>99.5</ele><time>2026-05-01T13:40:55.001Z</time></trkpt><trkpt lat="42.452073302057805" lon="8.672385820550593"><ele>100.0</ele><time>2026-05-01T13:40:56.001Z</time></trkpt><trkpt lat="42.45195645741384" lon="8.672527618169484"><ele>100.0</ele><time>2026-05-01T13:40:57.001Z</time></trkpt><trkpt lat="42.45184281400195" lon="8.6726894455644"><ele>100.0</ele><time>2026-05-01T13:40:58.002Z</time></trkpt><trkpt lat="42.45175820728788" lon="8.672853332793252"><ele>100.0</ele><time>2026-05-01T13:40:59.002Z</time></trkpt><trkpt lat="42.451704539331644" lon="8.673002522646337"><ele>100.0</ele><time>2026-05-01T13:41:00.002Z</time></trkpt><trkpt lat="42.451694716190715" lon="8.673166056037452"><ele>103.0</ele><time>2026-05-01T13:41:01.002Z</time></trkpt><trkpt lat="42.451697635983784" lon="8.673335544501661"><ele>106.0</ele><time>2026-05-01T13:41:02.002Z</time></trkpt><trkpt lat="42.45167216422682" lon="8.673488772184696"><ele>109.0</ele><time>2026-05-01T13:41:03.002Z</time></trkpt><trkpt lat="42.45165959166788" lon="8.673616815003863"><ele>112.0</ele><time>2026-05-01T13:41:04.002Z</time></trkpt><trkpt lat="42.45163834589878" lon="8.67371223725234"><ele>115.0</ele><time>2026-05-01T13:41:05.002Z</time></trkpt><trkpt lat="42.45154468696559" lon="8.673795641800755"><ele>115.0</ele><time>2026-05-01T13:41:07.002Z</time></trkpt><trkpt lat="42.451429919026545" lon="8.673666112265382"><ele>115.0</ele><time>2026-05-01T13:41:09.002Z</time></trkpt><trkpt lat="42.45135044192458" lon="8.673549438307479"><ele>115.0</ele><time>2026-05-01T13:41:10.002Z</time></trkpt><trkpt lat="42.45125804013535" lon="8.673392085130349"><ele>115.0</ele><time>2026-05-01T13:41:11.002Z</time></trkpt><trkpt lat="42.45115224356781" lon="8.673234966163553"><ele>116.5</ele><time>2026-05-01T13:41:12.002Z</time></trkpt><trkpt lat="42.45105035006743" lon="8.673093920105865"><ele>118.0</ele><time>2026-05-01T13:41:13.002Z</time></trkpt><trkpt lat="42.450966045743094" lon="8.672983718689446"><ele>119.5</ele><time>2026-05-01T13:41:14.002Z</time></trkpt><trkpt lat="42.45086853886658" lon="8.672908897643435"><ele>121.0</ele><time>2026-05-01T13:41:15.002Z</time></trkpt><trkpt lat="42.450757159556794" lon="8.672862029854002"><ele>121.0</ele><time>2026-05-01T13:41:16.002Z</time></trkpt><trkpt lat="42.45062586331774" lon="8.672834014161056"><ele>121.0</ele><time>2026-05-01T13:41:17.002Z</time></trkpt><trkpt lat="42.45049189274056" lon="8.672819138178772"><ele>121.0</ele><time>2026-05-01T13:41:18.002Z</time></trkpt><trkpt lat="42.450362143852615" lon="8.672829062162698"><ele>121.0</ele><time>2026-05-01T13:41:19.002Z</time></trkpt><trkpt lat="42.45025277347963" lon="8.672862902895002"><ele>119.4</ele><time>2026-05-01T13:41:20.002Z</time></trkpt><trkpt lat="42.45016189248835" lon="8.672926110283207"><ele>117.8</ele><time>2026-05-01T13:41:21.002Z</time></trkpt><trkpt lat="42.45009706371133" lon="8.673017770051572"><ele>116.20000000000002</ele><time>2026-05-01T13:41:22.002Z</time></trkpt><trkpt lat="42.45005901253391" lon="8.673140338775326"><ele>114.60000000000001</ele><time>2026-05-01T13:41:23.002Z</time></trkpt><trkpt lat="42.450041267575486" lon="8.673287806664824"><ele>113.0</ele><time>2026-05-01T13:41:24.002Z</time></trkpt><trkpt lat="42.450026219185645" lon="8.67344570034762"><ele>113.0</ele><time>2026-05-01T13:41:25.002Z</time></trkpt><trkpt lat="42.44998867614429" lon="8.67358949327944"><ele>113.00000000000001</ele><time>2026-05-01T13:41:26.002Z</time></trkpt><trkpt lat="42.44996700147262" lon="8.673726121001202"><ele>113.00000000000001</ele><time>2026-05-01T13:41:27.002Z</time></trkpt><trkpt lat="42.449927678733886" lon="8.673847456319244"><ele>113.0</ele><time>2026-05-01T13:41:28.002Z</time></trkpt><trkpt lat="42.4498627306431" lon="8.673950393723295"><ele>113.0</ele><time>2026-05-01T13:41:29.002Z</time></trkpt><trkpt lat="42.4497930522198" lon="8.674062538659477"><ele>115.80000000000001</ele><time>2026-05-01T13:41:30.003Z</time></trkpt><trkpt lat="42.449731030608" lon="8.674168312552284"><ele>118.60000000000001</ele><time>2026-05-01T13:41:31.003Z</time></trkpt><trkpt lat="42.44967496912211" lon="8.674257749251401"><ele>121.39999999999999</ele><time>2026-05-01T13:41:32.003Z</time></trkpt><trkpt lat="42.44956188894228" lon="8.674274182158802"><ele>124.19999999999999</ele><time>2026-05-01T13:41:34.003Z</time></trkpt><trkpt lat="42.44948922349615" lon="8.6741341446474"><ele>127.0</ele><time>2026-05-01T13:41:36.003Z</time></trkpt><trkpt lat="42.44944453355843" lon="8.674021451454612"><ele>127.0</ele><time>2026-05-01T13:41:37.003Z</time></trkpt><trkpt lat="42.44937935656456" lon="8.67388364837547"><ele>127.0</ele><time>2026-05-01T13:41:38.003Z</time></trkpt><trkpt lat="42.449276520611" lon="8.673744701759649"><ele>127.0</ele><time>2026-05-01T13:41:39.003Z</time></trkpt><trkpt lat="42.449179113135045" lon="8.673578433652882"><ele>127.0</ele><time>2026-05-01T13:41:40.003Z</time></trkpt><trkpt lat="42.449085454600514" lon="8.673391560268456"><ele>123.0</ele><time>2026-05-01T13:41:41.003Z</time></trkpt><trkpt lat="42.44900463692711" lon="8.673231273296105"><ele>119.0</ele><time>2026-05-01T13:41:42.003Z</time></trkpt><trkpt lat="42.44891068579808" lon="8.673124313018326"><ele>115.0</ele><time>2026-05-01T13:41:43.003Z</time></trkpt><trkpt lat="42.44879835825728" lon="8.673066820883035"><ele>111.0</ele><time>2026-05-01T13:41:44.003Z</time></trkpt><trkpt lat="42.44869243058268" lon="8.673050060657898"><ele>110.8</ele><time>2026-05-01T13:41:45.003Z</time></trkpt><trkpt lat="42.448594818142574" lon="8.673064040589018"><ele>110.6</ele><time>2026-05-01T13:41:46.003Z</time></trkpt><trkpt lat="42.44850793943353" lon="8.673116252090676"><ele>110.4</ele><time>2026-05-01T13:41:47.003Z</time></trkpt><trkpt lat="42.44843442744573" lon="8.67322918931753"><ele>110.2</ele><time>2026-05-01T13:41:48.003Z</time></trkpt><trkpt lat="42.44836128128868" lon="8.673389339030761"><ele>110.0</ele><time>2026-05-01T13:41:49.003Z</time></trkpt><trkpt lat="42.44828681984897" lon="8.673552941567152"><ele>113.0</ele><time>2026-05-01T13:41:50.003Z</time></trkpt><trkpt lat="42.44822094816542" lon="8.673727134179494"><ele>116.0</ele><time>2026-05-01T13:41:51.003Z</time></trkpt><trkpt lat="42.448169623823745" lon="8.67389594089425"><ele>119.0</ele><time>2026-05-01T13:41:52.003Z</time></trkpt><trkpt lat="42.44811539885141" lon="8.67403701555866"><ele>122.0</ele><time>2026-05-01T13:41:53.003Z</time></trkpt><trkpt lat="42.448092250345866" lon="8.674164195176468"><ele>122.0</ele><time>2026-05-01T13:41:54.003Z</time></trkpt><trkpt lat="42.44806699764375" lon="8.674248940761865"><ele>121.99999999999999</ele><time>2026-05-01T13:41:55.003Z</time></trkpt><trkpt lat="42.44802714044847" lon="8.674324078792642"><ele>121.99999999999999</ele><time>2026-05-01T13:41:56.003Z</time></trkpt><trkpt lat="42.44795118885031" lon="8.674355180125074"><ele>122.0</ele><time>2026-05-01T13:41:57.003Z</time></trkpt><trkpt lat="42.44785095961032" lon="8.674326588409878"><ele>122.0</ele><time>2026-05-01T13:41:58.003Z</time></trkpt><trkpt lat="42.44771956669723" lon="8.674276282844644"><ele>120.33333333333333</ele><time>2026-05-01T13:41:59.003Z</time></trkpt><trkpt lat="42.447543683953675" lon="8.674218667115937"><ele>118.66666666666666</ele><time>2026-05-01T13:41:59.998Z</time></trkpt><trkpt lat="42.44735895511476" lon="8.67417407491209"><ele>117.0</ele><time>2026-05-01T13:42:00.998Z</time></trkpt><trkpt lat="42.447207446503874" lon="8.674120948865832"><ele>118.75</ele><time>2026-05-01T13:42:01.999Z</time></trkpt><trkpt lat="42.44707518901819" lon="8.674073180637484"><ele>120.5</ele><time>2026-05-01T13:42:02.999Z</time></trkpt><trkpt lat="42.446957865272644" lon="8.674039944381075"><ele>122.25</ele><time>2026-05-01T13:42:03.999Z</time></trkpt><trkpt lat="42.446849321629735" lon="8.67405340738342"><ele>124.0</ele><time>2026-05-01T13:42:04.999Z</time></trkpt><trkpt lat="42.446751595503244" lon="8.674100365261804"><ele>124.00000000000001</ele><time>2026-05-01T13:42:05.999Z</time></trkpt><trkpt lat="42.44665924911235" lon="8.674125159648437"><ele>124.0</ele><time>2026-05-01T13:42:06.999Z</time></trkpt><trkpt lat="42.44657892193287" lon="8.674148163230171"><ele>124.0</ele><time>2026-05-01T13:42:07.999Z</time></trkpt><trkpt lat="42.44651061054092" lon="8.674105398658414"><ele>124.0</ele><time>2026-05-01T13:42:08.999Z</time></trkpt><trkpt lat="42.44645891735071" lon="8.674025549054843"><ele>124.00000000000001</ele><time>2026-05-01T13:42:09.999Z</time></trkpt><trkpt lat="42.44646353039249" lon="8.673867218778362"><ele>124.0</ele><time>2026-05-01T13:42:10.999Z</time></trkpt><trkpt lat="42.446426109336024" lon="8.67369344777123"><ele>119.75</ele><time>2026-05-01T13:42:11.999Z</time></trkpt><trkpt lat="42.4463919441518" lon="8.673509049927127"><ele>115.5</ele><time>2026-05-01T13:42:12.999Z</time></trkpt><trkpt lat="42.44635892637842" lon="8.673332486212036"><ele>111.25</ele><time>2026-05-01T13:42:13.999Z</time></trkpt><trkpt lat="42.446330084381586" lon="8.673185493235088"><ele>107.0</ele><time>2026-05-01T13:42:14.999Z</time></trkpt><trkpt lat="42.44630734900739" lon="8.67307118193609"><ele>108.83333333333333</ele><time>2026-05-01T13:42:15.999Z</time></trkpt><trkpt lat="42.446252568718606" lon="8.672988930997413"><ele>110.66666666666666</ele><time>2026-05-01T13:42:16.999Z</time></trkpt><trkpt lat="42.4461752999618" lon="8.672960626390505"><ele>112.5</ele><time>2026-05-01T13:42:17.999Z</time></trkpt><trkpt lat="42.446096136284204" lon="8.672948250708384"><ele>114.33333333333334</ele><time>2026-05-01T13:42:18.999Z</time></trkpt><trkpt lat="42.446020326513526" lon="8.673022781937426"><ele>116.16666666666667</ele><time>2026-05-01T13:42:20Z</time></trkpt><trkpt lat="42.44593590162513" lon="8.673109820066239"><ele>118.0</ele><time>2026-05-01T13:42:21Z</time></trkpt><trkpt lat="42.44582795651406" lon="8.673195655582855"><ele>118.0</ele><time>2026-05-01T13:42:22Z</time></trkpt><trkpt lat="42.4457219029909" lon="8.673297300524176"><ele>118.0</ele><time>2026-05-01T13:42:23Z</time></trkpt><trkpt lat="42.445601801154154" lon="8.673357358940708"><ele>118.0</ele><time>2026-05-01T13:42:24Z</time></trkpt><trkpt lat="42.445478252696326" lon="8.673390743980923"><ele>118.0</ele><time>2026-05-01T13:42:25Z</time></trkpt><trkpt lat="42.4453773393383" lon="8.67345375201522"><ele>119.75</ele><time>2026-05-01T13:42:26Z</time></trkpt><trkpt lat="42.445300162218395" lon="8.673534769294355"><ele>121.5</ele><time>2026-05-01T13:42:27Z</time></trkpt><trkpt lat="42.44522604247758" lon="8.673650182995276"><ele>123.25</ele><time>2026-05-01T13:42:28Z</time></trkpt><trkpt lat="42.44512956388237" lon="8.673754598022066"><ele>125.0</ele><time>2026-05-01T13:42:29Z</time></trkpt><trkpt lat="42.44504090578261" lon="8.673876530484902"><ele>125.0</ele><time>2026-05-01T13:42:30Z</time></trkpt><trkpt lat="42.444959526087395" lon="8.673988452778676"><ele>125.0</ele><time>2026-05-01T13:42:31Z</time></trkpt><trkpt lat="42.44489338519166" lon="8.674079417253918"><ele>125.0</ele><time>2026-05-01T13:42:32Z</time></trkpt><trkpt lat="42.44483775471057" lon="8.674154906522297"><ele>125.0</ele><time>2026-05-01T13:42:33Z</time></trkpt><trkpt lat="42.444790041538646" lon="8.6742187273985"><ele>125.0</ele><time>2026-05-01T13:42:34Z</time></trkpt><trkpt lat="42.44468664416383" lon="8.674278196712915"><ele>127.6</ele><time>2026-05-01T13:42:36Z</time></trkpt><trkpt lat="42.44455941735094" lon="8.674210243597384"><ele>130.2</ele><time>2026-05-01T13:42:38Z</time></trkpt><trkpt lat="42.44449506911371" lon="8.674127801800003"><ele>132.8</ele><time>2026-05-01T13:42:39.001Z</time></trkpt><trkpt lat="42.444521191329954" lon="8.673973635340895"><ele>135.4</ele><time>2026-05-01T13:42:40.001Z</time></trkpt><trkpt lat="42.44448518879184" lon="8.673840382380018"><ele>138.0</ele><time>2026-05-01T13:42:41.001Z</time></trkpt><trkpt lat="42.444437546023096" lon="8.673696813213567"><ele>136.6</ele><time>2026-05-01T13:42:42.001Z</time></trkpt><trkpt lat="42.444358145305166" lon="8.673572344986715"><ele>135.20000000000002</ele><time>2026-05-01T13:42:43.001Z</time></trkpt><trkpt lat="42.44430323612512" lon="8.673453799493139"><ele>133.8</ele><time>2026-05-01T13:42:44.001Z</time></trkpt><trkpt lat="42.44433968063846" lon="8.673311835534374"><ele>132.4</ele><time>2026-05-01T13:42:45.001Z</time></trkpt><trkpt lat="42.44436604105736" lon="8.673167778827924"><ele>131.0</ele><time>2026-05-01T13:42:46.001Z</time></trkpt><trkpt lat="42.44437369597638" lon="8.673016933449924"><ele>131.0</ele><time>2026-05-01T13:42:47.001Z</time></trkpt><trkpt lat="42.444352513949255" lon="8.672856390263565"><ele>131.0</ele><time>2026-05-01T13:42:48.001Z</time></trkpt><trkpt lat="42.4443018309324" lon="8.672690711974223"><ele>131.0</ele><time>2026-05-01T13:42:49.001Z</time></trkpt><trkpt lat="42.44424939957897" lon="8.67253368958888"><ele>131.0</ele><time>2026-05-01T13:42:50.001Z</time></trkpt><trkpt lat="42.44420257967879" lon="8.67237336060444"><ele>129.8</ele><time>2026-05-01T13:42:51.001Z</time></trkpt><trkpt lat="42.444164006456724" lon="8.67222769015762"><ele>128.6</ele><time>2026-05-01T13:42:52.001Z</time></trkpt><trkpt lat="42.444129890007424" lon="8.672101785473927"><ele>127.4</ele><time>2026-05-01T13:42:53.001Z</time></trkpt><trkpt lat="42.444089015395484" lon="8.671998505417827"><ele>126.2</ele><time>2026-05-01T13:42:54.001Z</time></trkpt><trkpt lat="42.44402778841401" lon="8.671899008884209"><ele>125.0</ele><time>2026-05-01T13:42:55.001Z</time></trkpt><trkpt lat="42.443942851218445" lon="8.671796015836044"><ele>127.75</ele><time>2026-05-01T13:42:56.001Z</time></trkpt><trkpt lat="42.4438328425011" lon="8.671705761768663"><ele>130.5</ele><time>2026-05-01T13:42:57.001Z</time></trkpt><trkpt lat="42.4437181095126" lon="8.671634646056537"><ele>133.25</ele><time>2026-05-01T13:42:58.001Z</time></trkpt><trkpt lat="42.443621098290144" lon="8.671563736618799"><ele>136.0</ele><time>2026-05-01T13:42:59.001Z</time></trkpt><trkpt lat="42.443541356331195" lon="8.671491828720711"><ele>136.0</ele><time>2026-05-01T13:43:00.001Z</time></trkpt><trkpt lat="42.44348942969608" lon="8.671410660228785"><ele>136.0</ele><time>2026-05-01T13:43:01.001Z</time></trkpt><trkpt lat="42.44348036735865" lon="8.671313850028588"><ele>136.0</ele><time>2026-05-01T13:43:02.001Z</time></trkpt><trkpt lat="42.4435221592106" lon="8.67119858713367"><ele>136.0</ele><time>2026-05-01T13:43:03.001Z</time></trkpt><trkpt lat="42.443527414309905" lon="8.671051469994383"><ele>136.0</ele><time>2026-05-01T13:43:04.001Z</time></trkpt><trkpt lat="42.4435067928565" lon="8.670900608765265"><ele>133.0</ele><time>2026-05-01T13:43:05.001Z</time></trkpt><trkpt lat="42.44344940799981" lon="8.670788410458288"><ele>130.0</ele><time>2026-05-01T13:43:06.001Z</time></trkpt><trkpt lat="42.44337206892985" lon="8.670711068232691"><ele>127.0</ele><time>2026-05-01T13:43:07.001Z</time></trkpt><trkpt lat="42.443256664454786" lon="8.670711488274858"><ele>124.0</ele><time>2026-05-01T13:43:08.002Z</time></trkpt><trkpt lat="42.44316237667938" lon="8.670614829602759"><ele>121.0</ele><time>2026-05-01T13:43:09.002Z</time></trkpt><trkpt lat="42.44309877535304" lon="8.670487537641705"><ele>121.0</ele><time>2026-05-01T13:43:10.002Z</time></trkpt><trkpt lat="42.443042798457945" lon="8.670329037123759"><ele>121.0</ele><time>2026-05-01T13:43:11.002Z</time></trkpt><trkpt lat="42.442983794361275" lon="8.670152213038353"><ele>121.0</ele><time>2026-05-01T13:43:12.002Z</time></trkpt><trkpt lat="42.442908962938844" lon="8.669985652454772"><ele>121.0</ele><time>2026-05-01T13:43:13.002Z</time></trkpt><trkpt lat="42.44283773913513" lon="8.669828483733642"><ele>122.4</ele><time>2026-05-01T13:43:14.002Z</time></trkpt><trkpt lat="42.44275539892015" lon="8.669698242334508"><ele>123.8</ele><time>2026-05-01T13:43:15.002Z</time></trkpt><trkpt lat="42.44268351512864" lon="8.66957912990868"><ele>125.20000000000002</ele><time>2026-05-01T13:43:16.002Z</time></trkpt><trkpt lat="42.44261401556643" lon="8.669478599816156"><ele>126.60000000000001</ele><time>2026-05-01T13:43:17.002Z</time></trkpt><trkpt lat="42.44258724820243" lon="8.669367003116042"><ele>128.0</ele><time>2026-05-01T13:43:18.002Z</time></trkpt><trkpt lat="42.442593954045776" lon="8.66926518099786"><ele>128.0</ele><time>2026-05-01T13:43:19.002Z</time></trkpt><trkpt lat="42.44261354004283" lon="8.669142060567127"><ele>128.0</ele><time>2026-05-01T13:43:20.002Z</time></trkpt><trkpt lat="42.4426244346592" lon="8.668975392994497"><ele>128.0</ele><time>2026-05-01T13:43:21.002Z</time></trkpt><trkpt lat="42.44264147122607" lon="8.668792262195138"><ele>128.0</ele><time>2026-05-01T13:43:22.002Z</time></trkpt><trkpt lat="42.4426328546617" lon="8.668604229318055"><ele>128.0</ele><time>2026-05-01T13:43:23.002Z</time></trkpt><trkpt lat="42.44260320569091" lon="8.66841717545068"><ele>128.0</ele><time>2026-05-01T13:43:24.002Z</time></trkpt><trkpt lat="42.442612565677514" lon="8.668255732852405"><ele>128.0</ele><time>2026-05-01T13:43:25.002Z</time></trkpt><trkpt lat="42.442638188632145" lon="8.668111791774615"><ele>128.0</ele><time>2026-05-01T13:43:26.002Z</time></trkpt><trkpt lat="42.44264939501565" lon="8.667948886540076"><ele>128.0</ele><time>2026-05-01T13:43:27.002Z</time></trkpt><trkpt lat="42.442655968336574" lon="8.667779540456632"><ele>128.0</ele><time>2026-05-01T13:43:28.002Z</time></trkpt><trkpt lat="42.442649076115785" lon="8.667628225949093"><ele>128.0</ele><time>2026-05-01T13:43:29.002Z</time></trkpt><trkpt lat="42.44267437270807" lon="8.66749547506317"><ele>128.0</ele><time>2026-05-01T13:43:30.002Z</time></trkpt><trkpt lat="42.44275533639807" lon="8.667381336251601"><ele>129.5</ele><time>2026-05-01T13:43:31.002Z</time></trkpt><trkpt lat="42.44282786003756" lon="8.66724713811459"><ele>131.0</ele><time>2026-05-01T13:43:32.002Z</time></trkpt><trkpt lat="42.442867804699105" lon="8.66709524467667"><ele>132.5</ele><time>2026-05-01T13:43:33.002Z</time></trkpt><trkpt lat="42.442880272548145" lon="8.66693949307812"><ele>134.0</ele><time>2026-05-01T13:43:34.002Z</time></trkpt><trkpt lat="42.442861539472446" lon="8.66677115970728"><ele>136.0</ele><time>2026-05-01T13:43:35.002Z</time></trkpt><trkpt lat="42.44281850284855" lon="8.666595976348363"><ele>138.0</ele><time>2026-05-01T13:43:36.002Z</time></trkpt><trkpt lat="42.44281341331489" lon="8.666445469128135"><ele>140.0</ele><time>2026-05-01T13:43:37.002Z</time></trkpt><trkpt lat="42.442880103836096" lon="8.666323153571073"><ele>142.0</ele><time>2026-05-01T13:43:38.002Z</time></trkpt><trkpt lat="42.442955032090524" lon="8.666187532674234"><ele>132.75</ele><time>2026-05-01T13:43:39.002Z</time></trkpt><trkpt lat="42.44302138248149" lon="8.666026859647642"><ele>123.5</ele><time>2026-05-01T13:43:40.002Z</time></trkpt><trkpt lat="42.443095179738705" lon="8.665861692928047"><ele>114.25</ele><time>2026-05-01T13:43:41.003Z</time></trkpt><trkpt lat="42.443152838331734" lon="8.665695383070416"><ele>105.0</ele><time>2026-05-01T13:43:42.003Z</time></trkpt><trkpt lat="42.44320008484941" lon="8.66554088353737"><ele>105.0</ele><time>2026-05-01T13:43:43.003Z</time></trkpt><trkpt lat="42.44323036327263" lon="8.665378760905218"><ele>105.0</ele><time>2026-05-01T13:43:44.003Z</time></trkpt><trkpt lat="42.443235169441174" lon="8.665197580559312"><ele>105.0</ele><time>2026-05-01T13:43:45.003Z</time></trkpt><trkpt lat="42.44320987493455" lon="8.665007056367815"><ele>105.0</ele><time>2026-05-01T13:43:46.003Z</time></trkpt><trkpt lat="42.44315946285362" lon="8.664808900870169"><ele>104.0</ele><time>2026-05-01T13:43:47.003Z</time></trkpt><trkpt lat="42.443109795540245" lon="8.664606130606494"><ele>103.0</ele><time>2026-05-01T13:43:48.003Z</time></trkpt><trkpt lat="42.443072800317196" lon="8.664394663556793"><ele>102.0</ele><time>2026-05-01T13:43:49.003Z</time></trkpt><trkpt lat="42.44299154047766" lon="8.664205059549134"><ele>111.33333333333334</ele><time>2026-05-01T13:43:50.003Z</time></trkpt><trkpt lat="42.442915869454225" lon="8.664003803688182"><ele>120.66666666666667</ele><time>2026-05-01T13:43:51.003Z</time></trkpt><trkpt lat="42.44289486797616" lon="8.663763283151194"><ele>130.0</ele><time>2026-05-01T13:43:52.003Z</time></trkpt><trkpt lat="42.44287971927629" lon="8.663530922718392"><ele>130.0</ele><time>2026-05-01T13:43:53.003Z</time></trkpt><trkpt lat="42.44285536461112" lon="8.663339889034015"><ele>130.0</ele><time>2026-05-01T13:43:54.003Z</time></trkpt><trkpt lat="42.442847166310685" lon="8.663168875132628"><ele>130.0</ele><time>2026-05-01T13:43:55.003Z</time></trkpt><trkpt lat="42.44282095546984" lon="8.66299727802735"><ele>130.0</ele><time>2026-05-01T13:43:56.003Z</time></trkpt><trkpt lat="42.442779969765475" lon="8.66283202197716"><ele>127.0</ele><time>2026-05-01T13:43:57.003Z</time></trkpt><trkpt lat="42.442719214423164" lon="8.662688649925679"><ele>124.0</ele><time>2026-05-01T13:43:58.003Z</time></trkpt><trkpt lat="42.44263300152412" lon="8.662561430903366"><ele>121.0</ele><time>2026-05-01T13:43:59.003Z</time></trkpt><trkpt lat="42.442577604530904" lon="8.662422705576494"><ele>118.0</ele><time>2026-05-01T13:44:00.003Z</time></trkpt><trkpt lat="42.4425603424889" lon="8.662278124511253"><ele>118.00000000000001</ele><time>2026-05-01T13:44:01.003Z</time></trkpt><trkpt lat="42.44252404067001" lon="8.662142637561733"><ele>118.0</ele><time>2026-05-01T13:44:02.003Z</time></trkpt><trkpt lat="42.44249947931451" lon="8.662043264680156"><ele>118.0</ele><time>2026-05-01T13:44:03.003Z</time></trkpt><trkpt lat="42.442434172834155" lon="8.66197994025223"><ele>118.0</ele><time>2026-05-01T13:44:04.003Z</time></trkpt><trkpt lat="42.44235188893896" lon="8.661977999447073"><ele>118.00000000000001</ele><time>2026-05-01T13:44:05.003Z</time></trkpt><trkpt lat="42.442260119936755" lon="8.66202211400269"><ele>118.0</ele><time>2026-05-01T13:44:05.998Z</time></trkpt><trkpt lat="42.44214555635634" lon="8.662066518217861"><ele>120.66666666666667</ele><time>2026-05-01T13:44:06.998Z</time></trkpt><trkpt lat="42.442010066777655" lon="8.662130025283277"><ele>123.33333333333334</ele><time>2026-05-01T13:44:07.998Z</time></trkpt><trkpt lat="42.44185238805341" lon="8.662179145248691"><ele>126.0</ele><time>2026-05-01T13:44:08.998Z</time></trkpt><trkpt lat="42.44167264909257" lon="8.662187849046193"><ele>126.0</ele><time>2026-05-01T13:44:09.998Z</time></trkpt><trkpt lat="42.44147851170039" lon="8.662192675523535"><ele>126.0</ele><time>2026-05-01T13:44:10.998Z</time></trkpt><trkpt lat="42.441290014965496" lon="8.662198210321229"><ele>126.0</ele><time>2026-05-01T13:44:11.998Z</time></trkpt><trkpt lat="42.44112892617152" lon="8.66219814972545"><ele>127.25</ele><time>2026-05-01T13:44:12.998Z</time></trkpt><trkpt lat="42.440982647170415" lon="8.662151579119735"><ele>128.5</ele><time>2026-05-01T13:44:13.998Z</time></trkpt><trkpt lat="42.44083890031026" lon="8.66207950714778"><ele>129.75</ele><time>2026-05-01T13:44:14.998Z</time></trkpt><trkpt lat="42.440705208602495" lon="8.662009516153239"><ele>131.0</ele><time>2026-05-01T13:44:15.999Z</time></trkpt><trkpt lat="42.44057433709744" lon="8.661959879853312"><ele>126.25</ele><time>2026-05-01T13:44:16.999Z</time></trkpt><trkpt lat="42.4404424493823" lon="8.661893586299849"><ele>121.5</ele><time>2026-05-01T13:44:17.999Z</time></trkpt><trkpt lat="42.440305451319716" lon="8.66180372126972"><ele>116.75</ele><time>2026-05-01T13:44:18.999Z</time></trkpt><trkpt lat="42.440156870203715" lon="8.661771294323046"><ele>112.0</ele><time>2026-05-01T13:44:19.999Z</time></trkpt><trkpt lat="42.44002545653477" lon="8.661745832130894"><ele>112.0</ele><time>2026-05-01T13:44:20.999Z</time></trkpt><trkpt lat="42.43990247274633" lon="8.661733828532451"><ele>112.0</ele><time>2026-05-01T13:44:21.999Z</time></trkpt><trkpt lat="42.43978875611606" lon="8.66172640361506"><ele>112.0</ele><time>2026-05-01T13:44:22.999Z</time></trkpt><trkpt lat="42.43967760736521" lon="8.661725409398432"><ele>112.0</ele><time>2026-05-01T13:44:23.999Z</time></trkpt><trkpt lat="42.439552989739994" lon="8.66174434095029"><ele>108.33333333333334</ele><time>2026-05-01T13:44:24.999Z</time></trkpt><trkpt lat="42.439413220663255" lon="8.661788955877691"><ele>104.66666666666666</ele><time>2026-05-01T13:44:25.999Z</time></trkpt><trkpt lat="42.43925964420987" lon="8.661814806994235"><ele>101.0</ele><time>2026-05-01T13:44:26.999Z</time></trkpt><trkpt lat="42.43910513954499" lon="8.661862565963672"><ele>101.0</ele><time>2026-05-01T13:44:28Z</time></trkpt><trkpt lat="42.43894671768259" lon="8.661914976470666"><ele>101.0</ele><time>2026-05-01T13:44:29Z</time></trkpt><trkpt lat="42.4387865322829" lon="8.661975331801049"><ele>101.0</ele><time>2026-05-01T13:44:30Z</time></trkpt><trkpt lat="42.438634735156725" lon="8.662062467090992"><ele>105.0</ele><time>2026-05-01T13:44:31Z</time></trkpt><trkpt lat="42.43850335315275" lon="8.66214890172553"><ele>109.0</ele><time>2026-05-01T13:44:32Z</time></trkpt><trkpt lat="42.4383787108841" lon="8.662227336032425"><ele>113.0</ele><time>2026-05-01T13:44:33Z</time></trkpt><trkpt lat="42.43825592250331" lon="8.662282778598982"><ele>117.0</ele><time>2026-05-01T13:44:34Z</time></trkpt><trkpt lat="42.43812343420909" lon="8.662315563255358"><ele>117.0</ele><time>2026-05-01T13:44:35Z</time></trkpt><trkpt lat="42.43798452741984" lon="8.66229853415067"><ele>117.0</ele><time>2026-05-01T13:44:36Z</time></trkpt><trkpt lat="42.43785116044867" lon="8.662289033783601"><ele>117.0</ele><time>2026-05-01T13:44:37Z</time></trkpt><trkpt lat="42.4377363008747" lon="8.66231140246292"><ele>117.0</ele><time>2026-05-01T13:44:38Z</time></trkpt><trkpt lat="42.43763670382591" lon="8.662342835514895"><ele>118.0</ele><time>2026-05-01T13:44:39Z</time></trkpt><trkpt lat="42.43755181499313" lon="8.662415007595245"><ele>119.0</ele><time>2026-05-01T13:44:40Z</time></trkpt><trkpt lat="42.437472165732885" lon="8.662513177552333"><ele>120.0</ele><time>2026-05-01T13:44:41Z</time></trkpt><trkpt lat="42.437406336341766" lon="8.66264054937902"><ele>121.0</ele><time>2026-05-01T13:44:42Z</time></trkpt><trkpt lat="42.437322671901704" lon="8.662784425529363"><ele>121.0</ele><time>2026-05-01T13:44:43Z</time></trkpt><trkpt lat="42.437251788572325" lon="8.662953246751664"><ele>121.0</ele><time>2026-05-01T13:44:44Z</time></trkpt><trkpt lat="42.43718187899304" lon="8.66312483248021"><ele>121.0</ele><time>2026-05-01T13:44:45.001Z</time></trkpt><trkpt lat="42.43712875887317" lon="8.663299818146202"><ele>121.0</ele><time>2026-05-01T13:44:46.001Z</time></trkpt><trkpt lat="42.43705596531047" lon="8.663470961747532"><ele>112.0</ele><time>2026-05-01T13:44:47.001Z</time></trkpt><trkpt lat="42.437012531922925" lon="8.663664215979612"><ele>103.0</ele><time>2026-05-01T13:44:48.001Z</time></trkpt><trkpt lat="42.43697250246581" lon="8.663853154212847"><ele>94.0</ele><time>2026-05-01T13:44:49.001Z</time></trkpt><trkpt lat="42.436945114404416" lon="8.664022855211535"><ele>85.0</ele><time>2026-05-01T13:44:50.001Z</time></trkpt><trkpt lat="42.43693679464146" lon="8.664187888544422"><ele>85.0</ele><time>2026-05-01T13:44:51.001Z</time></trkpt><trkpt lat="42.43694403737246" lon="8.664370770329745"><ele>85.0</ele><time>2026-05-01T13:44:52.001Z</time></trkpt><trkpt lat="42.43694890263328" lon="8.66456294023482"><ele>85.0</ele><time>2026-05-01T13:44:53.001Z</time></trkpt><trkpt lat="42.43694462744394" lon="8.664756521828734"><ele>85.0</ele><time>2026-05-01T13:44:54.001Z</time></trkpt><trkpt lat="42.43694662138192" lon="8.664929792595446"><ele>83.8</ele><time>2026-05-01T13:44:55.001Z</time></trkpt><trkpt lat="42.43697263655968" lon="8.665083305763948"><ele>82.6</ele><time>2026-05-01T13:44:56.001Z</time></trkpt><trkpt lat="42.437025610727396" lon="8.665215056742671"><ele>81.4</ele><time>2026-05-01T13:44:57.001Z</time></trkpt><trkpt lat="42.437096888740776" lon="8.665325738322343"><ele>80.2</ele><time>2026-05-01T13:44:58.001Z</time></trkpt><trkpt lat="42.43715025292015" lon="8.665457057423524"><ele>79.0</ele><time>2026-05-01T13:44:59.001Z</time></trkpt><trkpt lat="42.43719251214056" lon="8.665577578258668"><ele>79.6</ele><time>2026-05-01T13:45:00.001Z</time></trkpt><trkpt lat="42.4372088196054" lon="8.66571286127413"><ele>80.2</ele><time>2026-05-01T13:45:01.001Z</time></trkpt><trkpt lat="42.43719628897717" lon="8.665855422185624"><ele>80.8</ele><time>2026-05-01T13:45:02.001Z</time></trkpt><trkpt lat="42.43714983085545" lon="8.665977898657719"><ele>81.39999999999999</ele><time>2026-05-01T13:45:03.001Z</time></trkpt><trkpt lat="42.43708322674721" lon="8.666116563437225"><ele>82.0</ele><time>2026-05-01T13:45:04.001Z</time></trkpt><trkpt lat="42.437004012231675" lon="8.666258607870235"><ele>82.0</ele><time>2026-05-01T13:45:05.001Z</time></trkpt><trkpt lat="42.436935052650824" lon="8.666382428993094"><ele>82.0</ele><time>2026-05-01T13:45:06.001Z</time></trkpt><trkpt lat="42.43689228429228" lon="8.666510826396635"><ele>82.0</ele><time>2026-05-01T13:45:07.001Z</time></trkpt><trkpt lat="42.436860744688474" lon="8.666637136929685"><ele>82.0</ele><time>2026-05-01T13:45:08.001Z</time></trkpt><trkpt lat="42.436866699618456" lon="8.666766913428123"><ele>82.0</ele><time>2026-05-01T13:45:09.001Z</time></trkpt><trkpt lat="42.43690251661" lon="8.666912878468844"><ele>82.25</ele><time>2026-05-01T13:45:10.001Z</time></trkpt><trkpt lat="42.436913504251336" lon="8.667082495709867"><ele>82.5</ele><time>2026-05-01T13:45:11.001Z</time></trkpt><trkpt lat="42.436916645860826" lon="8.667269615957762"><ele>82.75</ele><time>2026-05-01T13:45:12.002Z</time></trkpt><trkpt lat="42.43689751535983" lon="8.667462155476981"><ele>83.0</ele><time>2026-05-01T13:45:13.002Z</time></trkpt><trkpt lat="42.43687094329772" lon="8.667671212054984"><ele>84.33333333333334</ele><time>2026-05-01T13:45:14.002Z</time></trkpt><trkpt lat="42.436844222693125" lon="8.667886778622611"><ele>85.66666666666667</ele><time>2026-05-01T13:45:15.002Z</time></trkpt><trkpt lat="42.43683349110069" lon="8.668105257377922"><ele>87.0</ele><time>2026-05-01T13:45:16.002Z</time></trkpt><trkpt lat="42.436811463962876" lon="8.668300276762832"><ele>87.0</ele><time>2026-05-01T13:45:17.002Z</time></trkpt><trkpt lat="42.436772737671184" lon="8.668473063969468"><ele>87.0</ele><time>2026-05-01T13:45:18.002Z</time></trkpt><trkpt lat="42.436752185875925" lon="8.668637884211083"><ele>87.0</ele><time>2026-05-01T13:45:19.002Z</time></trkpt><trkpt lat="42.43673557477287" lon="8.668792078047469"><ele>87.0</ele><time>2026-05-01T13:45:20.002Z</time></trkpt><trkpt lat="42.43672404322842" lon="8.668945266103945"><ele>86.25</ele><time>2026-05-01T13:45:21.002Z</time></trkpt><trkpt lat="42.43672697463248" lon="8.66912392465573"><ele>85.5</ele><time>2026-05-01T13:45:22.002Z</time></trkpt><trkpt lat="42.4367646029994" lon="8.669292029026344"><ele>84.75</ele><time>2026-05-01T13:45:23.002Z</time></trkpt><trkpt lat="42.436799637923755" lon="8.669465102643855"><ele>84.0</ele><time>2026-05-01T13:45:24.002Z</time></trkpt><trkpt lat="42.436837805634575" lon="8.669624172532613"><ele>82.4</ele><time>2026-05-01T13:45:25.002Z</time></trkpt><trkpt lat="42.436873164941126" lon="8.669763205642775"><ele>80.80000000000001</ele><time>2026-05-01T13:45:26.002Z</time></trkpt><trkpt lat="42.43692185986106" lon="8.669885605755576"><ele>79.19999999999999</ele><time>2026-05-01T13:45:27.002Z</time></trkpt><trkpt lat="42.43699356574286" lon="8.669971122892148"><ele>77.6</ele><time>2026-05-01T13:45:28.002Z</time></trkpt><trkpt lat="42.43706666316779" lon="8.670059969727118"><ele>76.0</ele><time>2026-05-01T13:45:29.002Z</time></trkpt><trkpt lat="42.43713107067376" lon="8.670154056064268"><ele>78.4</ele><time>2026-05-01T13:45:30.002Z</time></trkpt><trkpt lat="42.43716941368462" lon="8.670256496864512"><ele>80.8</ele><time>2026-05-01T13:45:31.002Z</time></trkpt><trkpt lat="42.43715678617691" lon="8.670369104777702"><ele>83.2</ele><time>2026-05-01T13:45:32.002Z</time></trkpt><trkpt lat="42.43711288617359" lon="8.6704840413186"><ele>85.60000000000001</ele><time>2026-05-01T13:45:33.002Z</time></trkpt><trkpt lat="42.437028092492945" lon="8.670563093671454"><ele>88.0</ele><time>2026-05-01T13:45:34.002Z</time></trkpt><trkpt lat="42.43691945613445" lon="8.6706375428793"><ele>88.0</ele><time>2026-05-01T13:45:35.002Z</time></trkpt><trkpt lat="42.436794925757376" lon="8.670713915130484"><ele>88.0</ele><time>2026-05-01T13:45:36.002Z</time></trkpt><trkpt lat="42.43666937198478" lon="8.670805688630475"><ele>88.0</ele><time>2026-05-01T13:45:37.002Z</time></trkpt><trkpt lat="42.43656256222458" lon="8.670881293089199"><ele>88.0</ele><time>2026-05-01T13:45:38.002Z</time></trkpt><trkpt lat="42.4364759069739" lon="8.670974425784133"><ele>88.0</ele><time>2026-05-01T13:45:39.002Z</time></trkpt><trkpt lat="42.43638550039883" lon="8.671039497840988"><ele>88.0</ele><time>2026-05-01T13:45:40.002Z</time></trkpt><trkpt lat="42.436297040024094" lon="8.671093909942208"><ele>88.0</ele><time>2026-05-01T13:45:41.002Z</time></trkpt><trkpt lat="42.43620986831495" lon="8.671063800560848"><ele>88.0</ele><time>2026-05-01T13:45:42.002Z</time></trkpt><trkpt lat="42.43613486484933" lon="8.671015358536984"><ele>88.0</ele><time>2026-05-01T13:45:43.002Z</time></trkpt><trkpt lat="42.436087626613855" lon="8.670902780427495"><ele>89.25</ele><time>2026-05-01T13:45:44.003Z</time></trkpt><trkpt lat="42.43601436859555" lon="8.670784851619949"><ele>90.5</ele><time>2026-05-01T13:45:45.003Z</time></trkpt><trkpt lat="42.43592556904547" lon="8.670665659425946"><ele>91.75</ele><time>2026-05-01T13:45:46.003Z</time></trkpt><trkpt lat="42.43582400266641" lon="8.670534628386383"><ele>93.0</ele><time>2026-05-01T13:45:47.003Z</time></trkpt><trkpt lat="42.4357133332556" lon="8.670388174948556"><ele>96.66666666666666</ele><time>2026-05-01T13:45:48.003Z</time></trkpt><trkpt lat="42.43560285028914" lon="8.670220640174369"><ele>100.33333333333333</ele><time>2026-05-01T13:45:49.003Z</time></trkpt><trkpt lat="42.43551383271486" lon="8.67001759590609"><ele>104.0</ele><time>2026-05-01T13:45:50.003Z</time></trkpt><trkpt lat="42.43541315119144" lon="8.669826260050225"><ele>104.0</ele><time>2026-05-01T13:45:51.003Z</time></trkpt><trkpt lat="42.43533995877252" lon="8.669634223057962"><ele>104.0</ele><time>2026-05-01T13:45:52.003Z</time></trkpt><trkpt lat="42.43526142739219" lon="8.669467276190959"><ele>104.0</ele><time>2026-05-01T13:45:53.003Z</time></trkpt><trkpt lat="42.43517031959288" lon="8.669326059408489"><ele>104.0</ele><time>2026-05-01T13:45:54.003Z</time></trkpt><trkpt lat="42.43508145202371" lon="8.66920410613165"><ele>99.0</ele><time>2026-05-01T13:45:55.003Z</time></trkpt><trkpt lat="42.43499972360852" lon="8.66909526208859"><ele>94.0</ele><time>2026-05-01T13:45:56.003Z</time></trkpt><trkpt lat="42.43497402235361" lon="8.668942353584004"><ele>89.0</ele><time>2026-05-01T13:45:57.003Z</time></trkpt><trkpt lat="42.43494336768993" lon="8.668769321508305"><ele>84.0</ele><time>2026-05-01T13:45:58.003Z</time></trkpt><trkpt lat="42.43489183748927" lon="8.66859310849126"><ele>87.5</ele><time>2026-05-01T13:45:59.003Z</time></trkpt><trkpt lat="42.43483141463567" lon="8.668422598019545"><ele>91.0</ele><time>2026-05-01T13:46:00.003Z</time></trkpt><trkpt lat="42.434750943977065" lon="8.668265212338895"><ele>94.5</ele><time>2026-05-01T13:46:01.003Z</time></trkpt><trkpt lat="42.43465652732398" lon="8.668110971715517"><ele>98.0</ele><time>2026-05-01T13:46:02.003Z</time></trkpt><trkpt lat="42.43454225337633" lon="8.667969294079516"><ele>98.0</ele><time>2026-05-01T13:46:03.003Z</time></trkpt><trkpt lat="42.43440678449046" lon="8.667846666196224"><ele>98.0</ele><time>2026-05-01T13:46:04.003Z</time></trkpt><trkpt lat="42.43428138102246" lon="8.667710818875078"><ele>98.0</ele><time>2026-05-01T13:46:05.003Z</time></trkpt><trkpt lat="42.434163643161114" lon="8.667560331887671"><ele>90.66666666666666</ele><time>2026-05-01T13:46:06.003Z</time></trkpt><trkpt lat="42.43405540997873" lon="8.667401905712568"><ele>83.33333333333333</ele><time>2026-05-01T13:46:07.003Z</time></trkpt><trkpt lat="42.433941135815374" lon="8.667263787700094"><ele>76.0</ele><time>2026-05-01T13:46:08.003Z</time></trkpt><trkpt lat="42.43384406487126" lon="8.667111500206962"><ele>76.33333333333333</ele><time>2026-05-01T13:46:09.003Z</time></trkpt><trkpt lat="42.43373589211638" lon="8.666961069183776"><ele>76.66666666666667</ele><time>2026-05-01T13:46:10.003Z</time></trkpt><trkpt lat="42.43362903848098" lon="8.666817730132523"><ele>77.0</ele><time>2026-05-01T13:46:11.003Z</time></trkpt><trkpt lat="42.43352670876136" lon="8.666671522048665"><ele>77.0</ele><time>2026-05-01T13:46:11.998Z</time></trkpt><trkpt lat="42.4334250532979" lon="8.666523370840972"><ele>77.0</ele><time>2026-05-01T13:46:12.998Z</time></trkpt><trkpt lat="42.43332611137406" lon="8.666397504947286"><ele>77.0</ele><time>2026-05-01T13:46:13.998Z</time></trkpt><trkpt lat="42.43322517374796" lon="8.666295152856803"><ele>77.0</ele><time>2026-05-01T13:46:14.998Z</time></trkpt><trkpt lat="42.43312271637621" lon="8.666209505547785"><ele>77.0</ele><time>2026-05-01T13:46:15.998Z</time></trkpt><trkpt lat="42.433002481415876" lon="8.666135104076162"><ele>77.0</ele><time>2026-05-01T13:46:16.999Z</time></trkpt><trkpt lat="42.43287273137001" lon="8.666088261911408"><ele>77.0</ele><time>2026-05-01T13:46:17.999Z</time></trkpt><trkpt lat="42.432746920764394" lon="8.666080572932986"><ele>77.0</ele><time>2026-05-01T13:46:18.999Z</time></trkpt><trkpt lat="42.43262156244305" lon="8.666113822918659"><ele>76.5</ele><time>2026-05-01T13:46:19.999Z</time></trkpt><trkpt lat="42.432494072178955" lon="8.666194017663008"><ele>76.0</ele><time>2026-05-01T13:46:20.999Z</time></trkpt><trkpt lat="42.43237385650501" lon="8.666305860990793"><ele>75.5</ele><time>2026-05-01T13:46:21.999Z</time></trkpt><trkpt lat="42.432274786976464" lon="8.666438188320436"><ele>75.0</ele><time>2026-05-01T13:46:22.999Z</time></trkpt><trkpt lat="42.43220673349774" lon="8.666587027720668"><ele>75.0</ele><time>2026-05-01T13:46:23.999Z</time></trkpt><trkpt lat="42.432152747508475" lon="8.666765532451002"><ele>75.0</ele><time>2026-05-01T13:46:24.999Z</time></trkpt><trkpt lat="42.432102041973806" lon="8.666945157833233"><ele>75.0</ele><time>2026-05-01T13:46:25.999Z</time></trkpt><trkpt lat="42.43202125677608" lon="8.667108819923131"><ele>75.0</ele><time>2026-05-01T13:46:26.999Z</time></trkpt><trkpt lat="42.4319459098176" lon="8.667276356117036"><ele>74.4</ele><time>2026-05-01T13:46:27.999Z</time></trkpt><trkpt lat="42.43186899698845" lon="8.667421684873045"><ele>73.8</ele><time>2026-05-01T13:46:28.999Z</time></trkpt><trkpt lat="42.43179931950018" lon="8.667551961350238"><ele>73.2</ele><time>2026-05-01T13:46:29.999Z</time></trkpt><trkpt lat="42.43173254902615" lon="8.667656900185188"><ele>72.6</ele><time>2026-05-01T13:46:30.999Z</time></trkpt><trkpt lat="42.43166312911549" lon="8.667708308324642"><ele>72.0</ele><time>2026-05-01T13:46:32Z</time></trkpt><trkpt lat="42.43158616570715" lon="8.667684345838397"><ele>72.0</ele><time>2026-05-01T13:46:33Z</time></trkpt><trkpt lat="42.43149309215981" lon="8.667667997431044"><ele>72.0</ele><time>2026-05-01T13:46:34Z</time></trkpt><trkpt lat="42.43139697722475" lon="8.667636060950649"><ele>72.0</ele><time>2026-05-01T13:46:35Z</time></trkpt><trkpt lat="42.43132273548376" lon="8.667541296611107"><ele>72.0</ele><time>2026-05-01T13:46:36Z</time></trkpt><trkpt lat="42.43125666398271" lon="8.667415522186543"><ele>72.0</ele><time>2026-05-01T13:46:37Z</time></trkpt><trkpt lat="42.431170806263765" lon="8.667288969981394"><ele>71.5</ele><time>2026-05-01T13:46:38Z</time></trkpt><trkpt lat="42.43110517587039" lon="8.667131026614726"><ele>71.0</ele><time>2026-05-01T13:46:39Z</time></trkpt><trkpt lat="42.431038309829745" lon="8.666953885870749"><ele>70.5</ele><time>2026-05-01T13:46:40Z</time></trkpt><trkpt lat="42.43097045840439" lon="8.66675642550461"><ele>70.0</ele><time>2026-05-01T13:46:41Z</time></trkpt><trkpt lat="42.43090022942811" lon="8.666547192088107"><ele>70.0</ele><time>2026-05-01T13:46:42Z</time></trkpt><trkpt lat="42.43083148180479" lon="8.66633375874939"><ele>70.0</ele><time>2026-05-01T13:46:43Z</time></trkpt><trkpt lat="42.430770443145896" lon="8.666145790277543"><ele>70.0</ele><time>2026-05-01T13:46:44Z</time></trkpt><trkpt lat="42.43072106988206" lon="8.666000076778102"><ele>70.0</ele><time>2026-05-01T13:46:45Z</time></trkpt><trkpt lat="42.43067679585002" lon="8.665904375965125"><ele>67.4</ele><time>2026-05-01T13:46:46Z</time></trkpt><trkpt lat="42.43060572176472" lon="8.665847103497072"><ele>64.8</ele><time>2026-05-01T13:46:47Z</time></trkpt><trkpt lat="42.43050884497152" lon="8.665842388928903"><ele>62.2</ele><time>2026-05-01T13:46:48Z</time></trkpt><trkpt lat="42.43040569327346" lon="8.665900843772103"><ele>59.6</ele><time>2026-05-01T13:46:49Z</time></trkpt><trkpt lat="42.43028636167952" lon="8.665962517559363"><ele>57.0</ele><time>2026-05-01T13:46:50.001Z</time></trkpt><trkpt lat="42.43016148318643" lon="8.66600119565821"><ele>57.0</ele><time>2026-05-01T13:46:51.001Z</time></trkpt><trkpt lat="42.43002240834798" lon="8.666038153165552"><ele>57.0</ele><time>2026-05-01T13:46:52.001Z</time></trkpt><trkpt lat="42.42988603609194" lon="8.666078640153057"><ele>57.0</ele><time>2026-05-01T13:46:53.001Z</time></trkpt><trkpt lat="42.42975860113018" lon="8.666094783463663"><ele>57.0</ele><time>2026-05-01T13:46:54.001Z</time></trkpt><trkpt lat="42.42963472209197" lon="8.666035144887191"><ele>56.5</ele><time>2026-05-01T13:46:55.001Z</time></trkpt><trkpt lat="42.42950446710837" lon="8.665977098851807"><ele>56.0</ele><time>2026-05-01T13:46:56.001Z</time></trkpt><trkpt lat="42.42938696265382" lon="8.665945340571215"><ele>55.5</ele><time>2026-05-01T13:46:57.001Z</time></trkpt><trkpt lat="42.42928429186828" lon="8.665903654922841"><ele>55.0</ele><time>2026-05-01T13:46:58.001Z</time></trkpt><trkpt lat="42.42918522256015" lon="8.665881192434952"><ele>55.0</ele><time>2026-05-01T13:46:59.001Z</time></trkpt><trkpt lat="42.42909044180165" lon="8.665861917831013"><ele>55.0</ele><time>2026-05-01T13:47:00.001Z</time></trkpt><trkpt lat="42.429011206894536" lon="8.665935459090264"><ele>55.0</ele><time>2026-05-01T13:47:01.001Z</time></trkpt><trkpt lat="42.42896632033288" lon="8.666030637440503"><ele>55.0</ele><time>2026-05-01T13:47:02.001Z</time></trkpt><trkpt lat="42.428942120113064" lon="8.666159873033521"><ele>55.0</ele><time>2026-05-01T13:47:03.001Z</time></trkpt><trkpt lat="42.42890863534308" lon="8.666309182590117"><ele>58.5</ele><time>2026-05-01T13:47:04.001Z</time></trkpt><trkpt lat="42.428869593894895" lon="8.666483135469436"><ele>62.0</ele><time>2026-05-01T13:47:05.001Z</time></trkpt><trkpt lat="42.42884722798583" lon="8.66667767180988"><ele>65.5</ele><time>2026-05-01T13:47:06.001Z</time></trkpt><trkpt lat="42.428852321730446" lon="8.666866073103591"><ele>69.0</ele><time>2026-05-01T13:47:07.001Z</time></trkpt><trkpt lat="42.428849704148824" lon="8.667026104347835"><ele>70.16666666666667</ele><time>2026-05-01T13:47:08.001Z</time></trkpt><trkpt lat="42.42884055806374" lon="8.667145329714067"><ele>71.33333333333333</ele><time>2026-05-01T13:47:09.001Z</time></trkpt><trkpt lat="42.42883092565151" lon="8.667232823236674"><ele>72.5</ele><time>2026-05-01T13:47:10.001Z</time></trkpt><trkpt lat="42.428750336968676" lon="8.667271587558995"><ele>73.66666666666666</ele><time>2026-05-01T13:47:11.001Z</time></trkpt><trkpt lat="42.42868017495851" lon="8.6672874713182"><ele>74.83333333333333</ele><time>2026-05-01T13:47:12.001Z</time></trkpt><trkpt lat="42.42859532217565" lon="8.667192544710216"><ele>76.0</ele><time>2026-05-01T13:47:13.001Z</time></trkpt><trkpt lat="42.42851496648096" lon="8.667096430739544"><ele>76.0</ele><time>2026-05-01T13:47:14.001Z</time></trkpt><trkpt lat="42.42840408810779" lon="8.667013350351459"><ele>76.0</ele><time>2026-05-01T13:47:15.001Z</time></trkpt><trkpt lat="42.42827051702984" lon="8.666956778897726"><ele>76.0</ele><time>2026-05-01T13:47:16.001Z</time></trkpt><trkpt lat="42.428160498798796" lon="8.666840586473132"><ele>76.0</ele><time>2026-05-01T13:47:17.001Z</time></trkpt><trkpt lat="42.42807306329063" lon="8.6666985231574"><ele>74.0</ele><time>2026-05-01T13:47:18.002Z</time></trkpt><trkpt lat="42.42799239432363" lon="8.666552632919453"><ele>72.0</ele><time>2026-05-01T13:47:19.002Z</time></trkpt><trkpt lat="42.427900522217456" lon="8.666454258982176"><ele>70.0</ele><time>2026-05-01T13:47:20.002Z</time></trkpt><trkpt lat="42.427793940844026" lon="8.666383284237522"><ele>68.0</ele><time>2026-05-01T13:47:21.002Z</time></trkpt><trkpt lat="42.42766611325257" lon="8.666308321872483"><ele>68.0</ele><time>2026-05-01T13:47:22.002Z</time></trkpt><trkpt lat="42.42756911464841" lon="8.666171109695327"><ele>68.0</ele><time>2026-05-01T13:47:23.002Z</time></trkpt><trkpt lat="42.42752139411703" lon="8.666015326612733"><ele>68.0</ele><time>2026-05-01T13:47:24.002Z</time></trkpt><trkpt lat="42.427457949149186" lon="8.665881284997733"><ele>68.0</ele><time>2026-05-01T13:47:25.002Z</time></trkpt><trkpt lat="42.427407735177106" lon="8.665779064561143"><ele>64.25</ele><time>2026-05-01T13:47:26.002Z</time></trkpt><trkpt lat="42.42732746607948" lon="8.665715726255595"><ele>60.5</ele><time>2026-05-01T13:47:27.002Z</time></trkpt><trkpt lat="42.42721329013653" lon="8.665684867253066"><ele>56.75</ele><time>2026-05-01T13:47:28.002Z</time></trkpt><trkpt lat="42.427085316645574" lon="8.665664369471068"><ele>53.0</ele><time>2026-05-01T13:47:29.002Z</time></trkpt><trkpt lat="42.426953114884" lon="8.665719310195584"><ele>52.5</ele><time>2026-05-01T13:47:30.002Z</time></trkpt><trkpt lat="42.426831650323265" lon="8.665786221081534"><ele>52.0</ele><time>2026-05-01T13:47:31.002Z</time></trkpt><trkpt lat="42.426721682452" lon="8.665834132892005"><ele>51.5</ele><time>2026-05-01T13:47:32.002Z</time></trkpt><trkpt lat="42.42663276364551" lon="8.665897673731687"><ele>51.0</ele><time>2026-05-01T13:47:33.002Z</time></trkpt><trkpt lat="42.42657987117067" lon="8.666017285187943"><ele>53.5</ele><time>2026-05-01T13:47:34.002Z</time></trkpt><trkpt lat="42.426529859450554" lon="8.666154943651556"><ele>56.0</ele><time>2026-05-01T13:47:35.002Z</time></trkpt><trkpt lat="42.4264699076313" lon="8.666308409246454"><ele>58.5</ele><time>2026-05-01T13:47:36.002Z</time></trkpt><trkpt lat="42.42642159446985" lon="8.666485391090978"><ele>61.0</ele><time>2026-05-01T13:47:37.002Z</time></trkpt><trkpt lat="42.42639691994864" lon="8.666668985162705"><ele>61.0</ele><time>2026-05-01T13:47:38.002Z</time></trkpt><trkpt lat="42.42637447043028" lon="8.666825423750161"><ele>61.0</ele><time>2026-05-01T13:47:39.002Z</time></trkpt><trkpt lat="42.42638718580267" lon="8.66698241418995"><ele>61.0</ele><time>2026-05-01T13:47:40.002Z</time></trkpt><trkpt lat="42.42644422556248" lon="8.667144113031735"><ele>61.0</ele><time>2026-05-01T13:47:41.002Z</time></trkpt><trkpt lat="42.42652862307516" lon="8.667292183035459"><ele>59.75</ele><time>2026-05-01T13:47:42.002Z</time></trkpt><trkpt lat="42.42660895861012" lon="8.667447459169438"><ele>58.5</ele><time>2026-05-01T13:47:43.002Z</time></trkpt><trkpt lat="42.426655682426414" lon="8.667633120368697"><ele>57.25</ele><time>2026-05-01T13:47:44.002Z</time></trkpt><trkpt lat="42.426709436465224" lon="8.667822316763816"><ele>56.0</ele><time>2026-05-01T13:47:45.002Z</time></trkpt><trkpt lat="42.42674978053624" lon="8.667999210727979"><ele>55.5</ele><time>2026-05-01T13:47:46.002Z</time></trkpt><trkpt lat="42.42676842321242" lon="8.668170434156822"><ele>55.0</ele><time>2026-05-01T13:47:47.002Z</time></trkpt><trkpt lat="42.426763428160115" lon="8.668350257476916"><ele>54.5</ele><time>2026-05-01T13:47:48.002Z</time></trkpt><trkpt lat="42.42673079436324" lon="8.668505500735476"><ele>54.0</ele><time>2026-05-01T13:47:49.002Z</time></trkpt><trkpt lat="42.42667737113525" lon="8.668623661899641"><ele>55.2</ele><time>2026-05-01T13:47:50.003Z</time></trkpt><trkpt lat="42.42660394692631" lon="8.668694566591714"><ele>56.400000000000006</ele><time>2026-05-01T13:47:51.003Z</time></trkpt><trkpt lat="42.426526724396915" lon="8.66877605460546"><ele>57.6</ele><time>2026-05-01T13:47:52.003Z</time></trkpt><trkpt lat="42.42644255007931" lon="8.668866144541404"><ele>58.8</ele><time>2026-05-01T13:47:53.003Z</time></trkpt><trkpt lat="42.426349189539266" lon="8.66896873598585"><ele>60.0</ele><time>2026-05-01T13:47:54.003Z</time></trkpt><trkpt lat="42.42625358971151" lon="8.66907775086496"><ele>56.0</ele><time>2026-05-01T13:47:55.003Z</time></trkpt><trkpt lat="42.42616377208527" lon="8.669188069455279"><ele>52.0</ele><time>2026-05-01T13:47:56.003Z</time></trkpt><trkpt lat="42.42610519040802" lon="8.669302268020417"><ele>48.0</ele><time>2026-05-01T13:47:57.003Z</time></trkpt><trkpt lat="42.42606367790345" lon="8.669413697795552"><ele>44.0</ele><time>2026-05-01T13:47:58.003Z</time></trkpt><trkpt lat="42.426059834720654" lon="8.669543758407722"><ele>40.0</ele><time>2026-05-01T13:47:59.003Z</time></trkpt><trkpt lat="42.42607613608448" lon="8.669692577282115"><ele>40.0</ele><time>2026-05-01T13:48:00.003Z</time></trkpt><trkpt lat="42.426097962871204" lon="8.669856097114303"><ele>40.0</ele><time>2026-05-01T13:48:01.003Z</time></trkpt><trkpt lat="42.426134703704484" lon="8.67002564114245"><ele>40.0</ele><time>2026-05-01T13:48:02.003Z</time></trkpt><trkpt lat="42.42619971997963" lon="8.670186887149233"><ele>40.0</ele><time>2026-05-01T13:48:03.003Z</time></trkpt><trkpt lat="42.42628391186235" lon="8.670311902263807"><ele>43.4</ele><time>2026-05-01T13:48:04.003Z</time></trkpt><trkpt lat="42.42638106772894" lon="8.670388852147074"><ele>46.8</ele><time>2026-05-01T13:48:05.003Z</time></trkpt><trkpt lat="42.42648328235614" lon="8.670421863368082"><ele>50.2</ele><time>2026-05-01T13:48:06.003Z</time></trkpt><trkpt lat="42.42657255323698" lon="8.670473836782117"><ele>53.6</ele><time>2026-05-01T13:48:07.003Z</time></trkpt><trkpt lat="42.4266168604731" lon="8.670572468268848"><ele>57.0</ele><time>2026-05-01T13:48:08.003Z</time></trkpt><trkpt lat="42.426576667649535" lon="8.670681246105513"><ele>57.0</ele><time>2026-05-01T13:48:09.003Z</time></trkpt><trkpt lat="42.42654335550323" lon="8.670757919853147"><ele>57.0</ele><time>2026-05-01T13:48:10.003Z</time></trkpt><trkpt lat="42.4264587844294" lon="8.670810737922539"><ele>57.0</ele><time>2026-05-01T13:48:11.003Z</time></trkpt><trkpt lat="42.42637043920559" lon="8.670940156735622"><ele>57.0</ele><time>2026-05-01T13:48:12.003Z</time></trkpt><trkpt lat="42.426282614357625" lon="8.671107116882231"><ele>57.0</ele><time>2026-05-01T13:48:13.003Z</time></trkpt><trkpt lat="42.4261676266731" lon="8.671253092424555"><ele>54.75</ele><time>2026-05-01T13:48:14.003Z</time></trkpt><trkpt lat="42.42608007505134" lon="8.6713891189674"><ele>52.5</ele><time>2026-05-01T13:48:15.003Z</time></trkpt><trkpt lat="42.42600517314316" lon="8.671514691562452"><ele>50.25</ele><time>2026-05-01T13:48:16.003Z</time></trkpt><trkpt lat="42.42593688216951" lon="8.671621778575354"><ele>48.0</ele><time>2026-05-01T13:48:17.003Z</time></trkpt><trkpt lat="42.425864697428196" lon="8.671708150728444"><ele>48.0</ele><time>2026-05-01T13:48:17.998Z</time></trkpt><trkpt lat="42.42578829758998" lon="8.671779010285066"><ele>48.0</ele><time>2026-05-01T13:48:18.998Z</time></trkpt><trkpt lat="42.42569155689968" lon="8.671758957294815"><ele>48.0</ele><time>2026-05-01T13:48:19.998Z</time></trkpt><trkpt lat="42.42560721600998" lon="8.671694322776078"><ele>48.0</ele><time>2026-05-01T13:48:20.998Z</time></trkpt><trkpt lat="42.42552920666273" lon="8.671617506618055"><ele>48.0</ele><time>2026-05-01T13:48:21.998Z</time></trkpt><trkpt lat="42.42547331271465" lon="8.671512421002857"><ele>46.8</ele><time>2026-05-01T13:48:22.998Z</time></trkpt><trkpt lat="42.42538927008615" lon="8.671429899758074"><ele>45.599999999999994</ele><time>2026-05-01T13:48:23.998Z</time></trkpt><trkpt lat="42.425301794451514" lon="8.671354004000813"><ele>44.400000000000006</ele><time>2026-05-01T13:48:24.999Z</time></trkpt><trkpt lat="42.42519673580035" lon="8.671330171996061"><ele>43.2</ele><time>2026-05-01T13:48:25.999Z</time></trkpt><trkpt lat="42.42509704911202" lon="8.671376103240927"><ele>42.0</ele><time>2026-05-01T13:48:26.999Z</time></trkpt><trkpt lat="42.425012112462554" lon="8.671469036780838"><ele>42.0</ele><time>2026-05-01T13:48:27.999Z</time></trkpt><trkpt lat="42.42494562869082" lon="8.671587920381375"><ele>42.0</ele><time>2026-05-01T13:48:28.999Z</time></trkpt><trkpt lat="42.4248967037671" lon="8.671720043670732"><ele>42.0</ele><time>2026-05-01T13:48:29.999Z</time></trkpt><trkpt lat="42.42487410969774" lon="8.671865117248712"><ele>42.0</ele><time>2026-05-01T13:48:30.999Z</time></trkpt><trkpt lat="42.42487559721627" lon="8.672002587403716"><ele>42.0</ele><time>2026-05-01T13:48:31.999Z</time></trkpt><trkpt lat="42.4248987326537" lon="8.672138718939737"><ele>41.25</ele><time>2026-05-01T13:48:32.999Z</time></trkpt><trkpt lat="42.424946552087405" lon="8.67226835714457"><ele>40.5</ele><time>2026-05-01T13:48:33.999Z</time></trkpt><trkpt lat="42.42500894652808" lon="8.672394844064877"><ele>39.75</ele><time>2026-05-01T13:48:34.999Z</time></trkpt><trkpt lat="42.425091790932356" lon="8.672508160725922"><ele>39.0</ele><time>2026-05-01T13:48:35.999Z</time></trkpt><trkpt lat="42.42520215354171" lon="8.67260265349235"><ele>39.0</ele><time>2026-05-01T13:48:36.999Z</time></trkpt><trkpt lat="42.4253177269214" lon="8.672692320127"><ele>39.0</ele><time>2026-05-01T13:48:37.999Z</time></trkpt><trkpt lat="42.425426086922805" lon="8.672797964796235"><ele>39.0</ele><time>2026-05-01T13:48:39Z</time></trkpt><trkpt lat="42.42552121858379" lon="8.672919499028893"><ele>39.0</ele><time>2026-05-01T13:48:40Z</time></trkpt><trkpt lat="42.42561483537686" lon="8.673051358165768"><ele>40.8</ele><time>2026-05-01T13:48:41Z</time></trkpt><trkpt lat="42.42569887023912" lon="8.673178639541232"><ele>42.599999999999994</ele><time>2026-05-01T13:48:42Z</time></trkpt><trkpt lat="42.425750393831336" lon="8.673297941180417"><ele>44.4</ele><time>2026-05-01T13:48:43Z</time></trkpt><trkpt lat="42.4257623855054" lon="8.673403450442665"><ele>46.199999999999996</ele><time>2026-05-01T13:48:44Z</time></trkpt><trkpt lat="42.42570757617855" lon="8.67349261488302"><ele>48.0</ele><time>2026-05-01T13:48:45Z</time></trkpt><trkpt lat="42.42563488845445" lon="8.673572275428794"><ele>48.0</ele><time>2026-05-01T13:48:46Z</time></trkpt><trkpt lat="42.425528523145765" lon="8.673600833353822"><ele>48.0</ele><time>2026-05-01T13:48:47Z</time></trkpt><trkpt lat="42.42539374660543" lon="8.673588333711715"><ele>48.0</ele><time>2026-05-01T13:48:48Z</time></trkpt><trkpt lat="42.425243864899116" lon="8.673685563278697"><ele>48.0</ele><time>2026-05-01T13:48:49Z</time></trkpt><trkpt lat="42.42507408425875" lon="8.673788284200988"><ele>46.666666666666664</ele><time>2026-05-01T13:48:50Z</time></trkpt><trkpt lat="42.42489961222285" lon="8.673861712712975"><ele>45.33333333333333</ele><time>2026-05-01T13:48:51Z</time></trkpt><trkpt lat="42.42474765535881" lon="8.673860000303144"><ele>44.0</ele><time>2026-05-01T13:48:52Z</time></trkpt><trkpt lat="42.424619276416315" lon="8.673782189733135"><ele>41.75</ele><time>2026-05-01T13:48:53Z</time></trkpt><trkpt lat="42.42448298287064" lon="8.673756297742163"><ele>39.5</ele><time>2026-05-01T13:48:54Z</time></trkpt><trkpt lat="42.42436991383338" lon="8.673764135840111"><ele>37.25</ele><time>2026-05-01T13:48:55Z</time></trkpt><trkpt lat="42.42427899747848" lon="8.673860676305285"><ele>35.0</ele><time>2026-05-01T13:48:56Z</time></trkpt><trkpt lat="42.4242039875795" lon="8.674020211480263"><ele>35.0</ele><time>2026-05-01T13:48:57.001Z</time></trkpt><trkpt lat="42.42414022494864" lon="8.674205041119878"><ele>35.0</ele><time>2026-05-01T13:48:58.001Z</time></trkpt><trkpt lat="42.424071121694695" lon="8.67440676762792"><ele>35.0</ele><time>2026-05-01T13:48:59.001Z</time></trkpt><trkpt lat="42.42402578310203" lon="8.674622953355938"><ele>35.25</ele><time>2026-05-01T13:49:00.001Z</time></trkpt><trkpt lat="42.423963759871086" lon="8.67481213180137"><ele>35.5</ele><time>2026-05-01T13:49:01.001Z</time></trkpt><trkpt lat="42.42390329111252" lon="8.674984409604514"><ele>35.75</ele><time>2026-05-01T13:49:02.001Z</time></trkpt><trkpt lat="42.423818643778" lon="8.67515310488776"><ele>36.0</ele><time>2026-05-01T13:49:03.001Z</time></trkpt><trkpt lat="42.42371449415541" lon="8.675334732573456"><ele>36.0</ele><time>2026-05-01T13:49:04.001Z</time></trkpt><trkpt lat="42.42360604073127" lon="8.675523865712353"><ele>36.0</ele><time>2026-05-01T13:49:05.001Z</time></trkpt><trkpt lat="42.423506088193605" lon="8.675688384847396"><ele>36.0</ele><time>2026-05-01T13:49:06.001Z</time></trkpt><trkpt lat="42.42338751310129" lon="8.675825660612299"><ele>36.0</ele><time>2026-05-01T13:49:07.001Z</time></trkpt><trkpt lat="42.423254103347375" lon="8.675924590021419"><ele>36.0</ele><time>2026-05-01T13:49:08.001Z</time></trkpt><trkpt lat="42.42311519650033" lon="8.675987806276014"><ele>36.0</ele><time>2026-05-01T13:49:09.001Z</time></trkpt><trkpt lat="42.42299832681212" lon="8.676043079326972"><ele>36.0</ele><time>2026-05-01T13:49:10.001Z</time></trkpt><trkpt lat="42.422893322199116" lon="8.676092740894434"><ele>34.75</ele><time>2026-05-01T13:49:11.001Z</time></trkpt><trkpt lat="42.42281112535334" lon="8.676174881190764"><ele>33.5</ele><time>2026-05-01T13:49:12.001Z</time></trkpt><trkpt lat="42.422726127721575" lon="8.676278184565817"><ele>32.25</ele><time>2026-05-01T13:49:13.001Z</time></trkpt><trkpt lat="42.422647146551505" lon="8.676437650871756"><ele>31.0</ele><time>2026-05-01T13:49:14.001Z</time></trkpt><trkpt lat="42.4225683153049" lon="8.676650829900046"><ele>31.0</ele><time>2026-05-01T13:49:15.001Z</time></trkpt><trkpt lat="42.42249618230198" lon="8.67686757763623"><ele>31.0</ele><time>2026-05-01T13:49:16.001Z</time></trkpt><trkpt lat="42.42245009429775" lon="8.677074269793668"><ele>31.0</ele><time>2026-05-01T13:49:17.001Z</time></trkpt><trkpt lat="42.42242861794738" lon="8.67728654520959"><ele>31.0</ele><time>2026-05-01T13:49:18.001Z</time></trkpt><trkpt lat="42.422416083106995" lon="8.677479104690958"><ele>31.0</ele><time>2026-05-01T13:49:19.001Z</time></trkpt><trkpt lat="42.42240889507008" lon="8.677668446242215"><ele>31.0</ele><time>2026-05-01T13:49:20.001Z</time></trkpt><trkpt lat="42.42240902350037" lon="8.677875992910797"><ele>31.0</ele><time>2026-05-01T13:49:21.001Z</time></trkpt><trkpt lat="42.42243047373023" lon="8.678091084718858"><ele>31.0</ele><time>2026-05-01T13:49:22.001Z</time></trkpt><trkpt lat="42.42246659407525" lon="8.678283385604635"><ele>31.0</ele><time>2026-05-01T13:49:23.001Z</time></trkpt><trkpt lat="42.42251093481105" lon="8.678464514790656"><ele>31.0</ele><time>2026-05-01T13:49:24.001Z</time></trkpt><trkpt lat="42.422565062297345" lon="8.67863348425932"><ele>31.0</ele><time>2026-05-01T13:49:25.002Z</time></trkpt><trkpt lat="42.42264044893181" lon="8.678789577989003"><ele>30.8</ele><time>2026-05-01T13:49:26.002Z</time></trkpt><trkpt lat="42.422732909427275" lon="8.678911157126805"><ele>30.6</ele><time>2026-05-01T13:49:27.002Z</time></trkpt><trkpt lat="42.42282728520476" lon="8.679003889807579"><ele>30.4</ele><time>2026-05-01T13:49:28.002Z</time></trkpt><trkpt lat="42.4228737657497" lon="8.679115171659042"><ele>30.2</ele><time>2026-05-01T13:49:29.002Z</time></trkpt><trkpt lat="42.42289963645553" lon="8.679209835669923"><ele>30.0</ele><time>2026-05-01T13:49:30.002Z</time></trkpt><trkpt lat="42.42287206535162" lon="8.679306997377617"><ele>30.0</ele><time>2026-05-01T13:49:31.002Z</time></trkpt><trkpt lat="42.42282311408288" lon="8.679404190407455"><ele>30.0</ele><time>2026-05-01T13:49:32.002Z</time></trkpt><trkpt lat="42.42276384609073" lon="8.679488164380862"><ele>30.0</ele><time>2026-05-01T13:49:33.002Z</time></trkpt><trkpt lat="42.42269361506592" lon="8.679525734139759"><ele>30.0</ele><time>2026-05-01T13:49:34.002Z</time></trkpt><trkpt lat="42.422615286266556" lon="8.679499648032676"><ele>30.0</ele><time>2026-05-01T13:49:35.002Z</time></trkpt><trkpt lat="42.42253774728152" lon="8.679423499703319"><ele>30.0</ele><time>2026-05-01T13:49:36.002Z</time></trkpt><trkpt lat="42.42243372918721" lon="8.679357673544827"><ele>30.0</ele><time>2026-05-01T13:49:37.002Z</time></trkpt><trkpt lat="42.422314938519996" lon="8.67928170952948"><ele>30.0</ele><time>2026-05-01T13:49:38.002Z</time></trkpt><trkpt lat="42.4221897762108" lon="8.6791992117044"><ele>30.0</ele><time>2026-05-01T13:49:39.002Z</time></trkpt><trkpt lat="42.422067485049034" lon="8.679080393346633"><ele>30.0</ele><time>2026-05-01T13:49:40.002Z</time></trkpt><trkpt lat="42.42197643889684" lon="8.678945557690739"><ele>30.0</ele><time>2026-05-01T13:49:41.002Z</time></trkpt><trkpt lat="42.421932491873285" lon="8.678792650850472"><ele>30.0</ele><time>2026-05-01T13:49:42.002Z</time></trkpt><trkpt lat="42.421877487878525" lon="8.67861880978002"><ele>30.0</ele><time>2026-05-01T13:49:43.002Z</time></trkpt><trkpt lat="42.42179740421704" lon="8.678445370090744"><ele>30.0</ele><time>2026-05-01T13:49:44.002Z</time></trkpt><trkpt lat="42.42169339673429" lon="8.678270598178282"><ele>30.0</ele><time>2026-05-01T13:49:45.002Z</time></trkpt><trkpt lat="42.421587786735785" lon="8.678114793177103"><ele>30.0</ele><time>2026-05-01T13:49:46.002Z</time></trkpt><trkpt lat="42.421503538574" lon="8.677945562757492"><ele>30.0</ele><time>2026-05-01T13:49:47.002Z</time></trkpt><trkpt lat="42.4214019056461" lon="8.677797371997649"><ele>30.0</ele><time>2026-05-01T13:49:48.002Z</time></trkpt><trkpt lat="42.42130980695189" lon="8.677640227060598"><ele>30.0</ele><time>2026-05-01T13:49:49.002Z</time></trkpt><trkpt lat="42.421234912562475" lon="8.677502986084892"><ele>30.0</ele><time>2026-05-01T13:49:50.002Z</time></trkpt><trkpt lat="42.421154362031615" lon="8.677390145886772"><ele>30.0</ele><time>2026-05-01T13:49:51.002Z</time></trkpt><trkpt lat="42.421045781440135" lon="8.67729603875714"><ele>30.0</ele><time>2026-05-01T13:49:52.002Z</time></trkpt><trkpt lat="42.420904603073865" lon="8.67721002148141"><ele>30.0</ele><time>2026-05-01T13:49:53.002Z</time></trkpt><trkpt lat="42.42077131179141" lon="8.677083738171712"><ele>30.0</ele><time>2026-05-01T13:49:54.002Z</time></trkpt><trkpt lat="42.420630015612" lon="8.676966082249182"><ele>27.333333333333332</ele><time>2026-05-01T13:49:55.002Z</time></trkpt><trkpt lat="42.42048081316071" lon="8.676844548517458"><ele>24.666666666666664</ele><time>2026-05-01T13:49:56.002Z</time></trkpt><trkpt lat="42.420355400810834" lon="8.676703380997122"><ele>22.0</ele><time>2026-05-01T13:49:57.003Z</time></trkpt><trkpt lat="42.42023715318382" lon="8.67659988816551"><ele>22.0</ele><time>2026-05-01T13:49:58.003Z</time></trkpt><trkpt lat="42.420115287669894" lon="8.676529248830544"><ele>22.0</ele><time>2026-05-01T13:49:59.003Z</time></trkpt><trkpt lat="42.420002882614604" lon="8.676478307958373"><ele>22.0</ele><time>2026-05-01T13:50:00.003Z</time></trkpt><trkpt lat="42.41990058091674" lon="8.676451328983825"><ele>22.0</ele><time>2026-05-01T13:50:01.003Z</time></trkpt><trkpt lat="42.41979918445764" lon="8.676480332072874"><ele>22.0</ele><time>2026-05-01T13:50:02.003Z</time></trkpt><trkpt lat="42.41970227261484" lon="8.676537298918564"><ele>22.0</ele><time>2026-05-01T13:50:03.003Z</time></trkpt><trkpt lat="42.41960443205848" lon="8.676561713820531"><ele>22.0</ele><time>2026-05-01T13:50:04.003Z</time></trkpt><trkpt lat="42.419523593433766" lon="8.676579287726458"><ele>22.0</ele><time>2026-05-01T13:50:05.003Z</time></trkpt><trkpt lat="42.41944742929909" lon="8.676537216552045"><ele>22.0</ele><time>2026-05-01T13:50:06.003Z</time></trkpt><trkpt lat="42.419381781910424" lon="8.676442550914636"><ele>22.0</ele><time>2026-05-01T13:50:07.003Z</time></trkpt><trkpt lat="42.419283904926736" lon="8.676360442039948"><ele>22.0</ele><time>2026-05-01T13:50:08.003Z</time></trkpt><trkpt lat="42.41919733947184" lon="8.676280528347691"><ele>22.0</ele><time>2026-05-01T13:50:09.003Z</time></trkpt><trkpt lat="42.41910565993881" lon="8.676249632999797"><ele>22.0</ele><time>2026-05-01T13:50:10.003Z</time></trkpt><trkpt lat="42.419011543112205" lon="8.676260516630983"><ele>22.0</ele><time>2026-05-01T13:50:11.003Z</time></trkpt><trkpt lat="42.41892408989064" lon="8.676328875094738"><ele>22.0</ele><time>2026-05-01T13:50:12.003Z</time></trkpt><trkpt lat="42.418845839922255" lon="8.676451358691269"><ele>22.0</ele><time>2026-05-01T13:50:13.003Z</time></trkpt><trkpt lat="42.418785897863955" lon="8.67660723938166"><ele>22.0</ele><time>2026-05-01T13:50:14.003Z</time></trkpt><trkpt lat="42.41872353507524" lon="8.67678273792914"><ele>22.0</ele><time>2026-05-01T13:50:15.003Z</time></trkpt><trkpt lat="42.41864972142624" lon="8.676979524609697"><ele>19.333333333333332</ele><time>2026-05-01T13:50:16.003Z</time></trkpt><trkpt lat="42.418580878144205" lon="8.677205647985403"><ele>16.666666666666668</ele><time>2026-05-01T13:50:17.003Z</time></trkpt><trkpt lat="42.41852710368563" lon="8.677468288927997"><ele>14.0</ele><time>2026-05-01T13:50:18.003Z</time></trkpt><trkpt lat="42.41847593353807" lon="8.677736988843256"><ele>14.666666666666668</ele><time>2026-05-01T13:50:19.003Z</time></trkpt><trkpt lat="42.4184196808773" lon="8.677990437018659"><ele>15.333333333333332</ele><time>2026-05-01T13:50:20.003Z</time></trkpt><trkpt lat="42.41837243819836" lon="8.678237071395076"><ele>16.0</ele><time>2026-05-01T13:50:21.003Z</time></trkpt><trkpt lat="42.41834862826613" lon="8.678479131434893"><ele>16.333333333333332</ele><time>2026-05-01T13:50:22.003Z</time></trkpt><trkpt lat="42.41833389781901" lon="8.678715405252627"><ele>16.666666666666668</ele><time>2026-05-01T13:50:23.003Z</time></trkpt><trkpt lat="42.418281845807954" lon="8.67891692985957"><ele>17.0</ele><time>2026-05-01T13:50:23.997Z</time></trkpt><trkpt lat="42.418243084992234" lon="8.67910855253822"><ele>17.0</ele><time>2026-05-01T13:50:24.997Z</time></trkpt><trkpt lat="42.41823660879624" lon="8.679294905572066"><ele>17.0</ele><time>2026-05-01T13:50:25.997Z</time></trkpt><trkpt lat="42.418217913788105" lon="8.679468387109189"><ele>17.0</ele><time>2026-05-01T13:50:26.998Z</time></trkpt><trkpt lat="42.41815515752654" lon="8.679624279917"><ele>17.0</ele><time>2026-05-01T13:50:27.998Z</time></trkpt><trkpt lat="42.41808090770522" lon="8.679779957858429"><ele>17.75</ele><time>2026-05-01T13:50:28.998Z</time></trkpt><trkpt lat="42.41799975510193" lon="8.679937336336048"><ele>18.5</ele><time>2026-05-01T13:50:29.998Z</time></trkpt><trkpt lat="42.417924686442646" lon="8.680071400028046"><ele>19.25</ele><time>2026-05-01T13:50:30.998Z</time></trkpt><trkpt lat="42.417838491959266" lon="8.680165310581685"><ele>20.0</ele><time>2026-05-01T13:50:31.998Z</time></trkpt><trkpt lat="42.41773259828457" lon="8.680213951435213"><ele>19.75</ele><time>2026-05-01T13:50:32.998Z</time></trkpt><trkpt lat="42.41760468350261" lon="8.680287138616357"><ele>19.5</ele><time>2026-05-01T13:50:33.998Z</time></trkpt><trkpt lat="42.41747965156907" lon="8.680398649488199"><ele>19.25</ele><time>2026-05-01T13:50:34.998Z</time></trkpt><trkpt lat="42.417360058639474" lon="8.68052899386595"><ele>19.0</ele><time>2026-05-01T13:50:35.998Z</time></trkpt><trkpt lat="42.417243962209966" lon="8.68068568419101"><ele>17.0</ele><time>2026-05-01T13:50:36.998Z</time></trkpt><trkpt lat="42.4171275694264" lon="8.680875033878253"><ele>15.0</ele><time>2026-05-01T13:50:37.999Z</time></trkpt><trkpt lat="42.41701363471716" lon="8.68108950207519"><ele>13.0</ele><time>2026-05-01T13:50:38.999Z</time></trkpt><trkpt lat="42.41691509515118" lon="8.681306558808627"><ele>13.0</ele><time>2026-05-01T13:50:39.999Z</time></trkpt><trkpt lat="42.41683485635939" lon="8.681499245898033"><ele>13.0</ele><time>2026-05-01T13:50:40.999Z</time></trkpt><trkpt lat="42.41675187069673" lon="8.68164860248623"><ele>13.0</ele><time>2026-05-01T13:50:41.999Z</time></trkpt><trkpt lat="42.416687883066444" lon="8.68179339636647"><ele>13.0</ele><time>2026-05-01T13:50:42.999Z</time></trkpt><trkpt lat="42.41663966281011" lon="8.681942078874831"><ele>15.0</ele><time>2026-05-01T13:50:43.999Z</time></trkpt><trkpt lat="42.41657427560605" lon="8.682072063580048"><ele>17.0</ele><time>2026-05-01T13:50:44.999Z</time></trkpt><trkpt lat="42.4165218062118" lon="8.682193446880554"><ele>19.0</ele><time>2026-05-01T13:50:45.999Z</time></trkpt><trkpt lat="42.41647100901687" lon="8.682306446326738"><ele>21.0</ele><time>2026-05-01T13:50:46.999Z</time></trkpt><trkpt lat="42.41641952925793" lon="8.682426864611063"><ele>23.0</ele><time>2026-05-01T13:50:48Z</time></trkpt><trkpt lat="42.416371606691996" lon="8.682541066066682"><ele>23.0</ele><time>2026-05-01T13:50:49Z</time></trkpt><trkpt lat="42.416334383526205" lon="8.682636725286887"><ele>23.0</ele><time>2026-05-01T13:50:50Z</time></trkpt><trkpt lat="42.41629940849775" lon="8.682728087587034"><ele>23.0</ele><time>2026-05-01T13:50:51Z</time></trkpt><trkpt lat="42.41621372811527" lon="8.68283234505915"><ele>23.0</ele><time>2026-05-01T13:50:53Z</time></trkpt><trkpt lat="42.41608282250584" lon="8.682801862781133"><ele>23.0</ele><time>2026-05-01T13:50:55Z</time></trkpt><trkpt lat="42.41598643877339" lon="8.682731880136794"><ele>18.0</ele><time>2026-05-01T13:50:56Z</time></trkpt><trkpt lat="42.415874259344655" lon="8.682652751837706"><ele>13.0</ele><time>2026-05-01T13:50:57Z</time></trkpt><trkpt lat="42.415731946713215" lon="8.682574657081974"><ele>8.0</ele><time>2026-05-01T13:50:58Z</time></trkpt><trkpt lat="42.415578070879306" lon="8.682465534635073"><ele>7.666666666666666</ele><time>2026-05-01T13:50:59Z</time></trkpt><trkpt lat="42.41542088544652" lon="8.68232838547603"><ele>7.333333333333334</ele><time>2026-05-01T13:51:00Z</time></trkpt><trkpt lat="42.41526909290098" lon="8.68222011624341"><ele>7.0</ele><time>2026-05-01T13:51:01Z</time></trkpt><trkpt lat="42.4151357732225" lon="8.682125441886456"><ele>7.0</ele><time>2026-05-01T13:51:02Z</time></trkpt><trkpt lat="42.41501187811633" lon="8.682038068657915"><ele>7.0</ele><time>2026-05-01T13:51:03Z</time></trkpt><trkpt lat="42.41487026378352" lon="8.681971607219689"><ele>7.0</ele><time>2026-05-01T13:51:04Z</time></trkpt><trkpt lat="42.414725343420855" lon="8.681893591251578"><ele>7.0</ele><time>2026-05-01T13:51:05.001Z</time></trkpt><trkpt lat="42.414573032853404" lon="8.681833147282452"><ele>7.75</ele><time>2026-05-01T13:51:06.001Z</time></trkpt><trkpt lat="42.414433972754615" lon="8.681790047869784"><ele>8.5</ele><time>2026-05-01T13:51:07.001Z</time></trkpt><trkpt lat="42.41430648107725" lon="8.68176233192193"><ele>9.25</ele><time>2026-05-01T13:51:08.001Z</time></trkpt><trkpt lat="42.41418758613728" lon="8.68175017748162"><ele>10.0</ele><time>2026-05-01T13:51:09.001Z</time></trkpt><trkpt lat="42.41405893027713" lon="8.681741119011264"><ele>10.0</ele><time>2026-05-01T13:51:10.001Z</time></trkpt><trkpt lat="42.41391535245138" lon="8.681729255824168"><ele>10.0</ele><time>2026-05-01T13:51:11.001Z</time></trkpt><trkpt lat="42.413776718347904" lon="8.681701322248768"><ele>10.0</ele><time>2026-05-01T13:51:12.001Z</time></trkpt><trkpt lat="42.41364741838531" lon="8.681691238914217"><ele>10.0</ele><time>2026-05-01T13:51:13.001Z</time></trkpt><trkpt lat="42.41353146771878" lon="8.681682195041695"><ele>9.75</ele><time>2026-05-01T13:51:14.001Z</time></trkpt><trkpt lat="42.41341506797166" lon="8.681691173313999"><ele>9.5</ele><time>2026-05-01T13:51:15.001Z</time></trkpt><trkpt lat="42.41328088568106" lon="8.681681716425814"><ele>9.25</ele><time>2026-05-01T13:51:16.001Z</time></trkpt><trkpt lat="42.41314652281304" lon="8.681655853847749"><ele>9.0</ele><time>2026-05-01T13:51:17.001Z</time></trkpt><trkpt lat="42.41301786773016" lon="8.68166886309177"><ele>9.6</ele><time>2026-05-01T13:51:18.001Z</time></trkpt><trkpt lat="42.41290082877514" lon="8.681660323576454"><ele>10.2</ele><time>2026-05-01T13:51:19.001Z</time></trkpt><trkpt lat="42.41279771982849" lon="8.681655905234356"><ele>10.799999999999999</ele><time>2026-05-01T13:51:20.001Z</time></trkpt><trkpt lat="42.412699490621804" lon="8.68162916382483"><ele>11.4</ele><time>2026-05-01T13:51:21.001Z</time></trkpt><trkpt lat="42.41259230482746" lon="8.681622656058051"><ele>12.0</ele><time>2026-05-01T13:51:22.001Z</time></trkpt><trkpt lat="42.412482780300046" lon="8.681616006290751"><ele>12.0</ele><time>2026-05-01T13:51:23.001Z</time></trkpt><trkpt lat="42.412376467465776" lon="8.681609551527117"><ele>12.0</ele><time>2026-05-01T13:51:24.001Z</time></trkpt><trkpt lat="42.41226928102196" lon="8.681603043721239"><ele>12.0</ele><time>2026-05-01T13:51:25.001Z</time></trkpt><trkpt lat="42.41215734553729" lon="8.681616024538148"><ele>12.0</ele><time>2026-05-01T13:51:26.001Z</time></trkpt><trkpt lat="42.41206783282896" lon="8.681603767491998"><ele>12.0</ele><time>2026-05-01T13:51:27.001Z</time></trkpt><trkpt lat="42.41198348780642" lon="8.681589468463464"><ele>13.333333333333334</ele><time>2026-05-01T13:51:28.001Z</time></trkpt><trkpt lat="42.41190645294456" lon="8.681581698361873"><ele>14.666666666666668</ele><time>2026-05-01T13:51:29.001Z</time></trkpt><trkpt lat="42.411839136770055" lon="8.681576557675593"><ele>16.0</ele><time>2026-05-01T13:51:30.001Z</time></trkpt><trkpt lat="42.41176083388205" lon="8.681575231204347"><ele>17.333333333333336</ele><time>2026-05-01T13:51:31.002Z</time></trkpt><trkpt lat="42.41166427090563" lon="8.681577407667548"><ele>18.666666666666668</ele><time>2026-05-01T13:51:32.002Z</time></trkpt><trkpt lat="42.411569778639816" lon="8.681592206411029"><ele>20.0</ele><time>2026-05-01T13:51:33.002Z</time></trkpt><trkpt lat="42.41153081356332" lon="8.681713272608196"><ele>20.0</ele><time>2026-05-01T13:51:34.002Z</time></trkpt><trkpt lat="42.4115073617381" lon="8.681848114831304"><ele>20.0</ele><time>2026-05-01T13:51:35.002Z</time></trkpt><trkpt lat="42.411505798187235" lon="8.681998870753388"><ele>20.0</ele><time>2026-05-01T13:51:36.002Z</time></trkpt><trkpt lat="42.41151849312335" lon="8.682160899948896"><ele>20.0</ele><time>2026-05-01T13:51:37.002Z</time></trkpt><trkpt lat="42.41152373112323" lon="8.68235811799445"><ele>20.0</ele><time>2026-05-01T13:51:38.002Z</time></trkpt><trkpt lat="42.41147297114851" lon="8.682572907785488"><ele>20.0</ele><time>2026-05-01T13:51:39.002Z</time></trkpt><trkpt lat="42.411406347533735" lon="8.682803451649805"><ele>20.0</ele><time>2026-05-01T13:51:40.002Z</time></trkpt><trkpt lat="42.41132492047882" lon="8.683026060689153"><ele>20.333333333333336</ele><time>2026-05-01T13:51:41.002Z</time></trkpt><trkpt lat="42.411239344317465" lon="8.683252906590093"><ele>20.666666666666668</ele><time>2026-05-01T13:51:42.002Z</time></trkpt><trkpt lat="42.41117586885684" lon="8.683474227864968"><ele>21.0</ele><time>2026-05-01T13:51:43.002Z</time></trkpt><trkpt lat="42.411093439933396" lon="8.683699716779163"><ele>21.0</ele><time>2026-05-01T13:51:44.002Z</time></trkpt><trkpt lat="42.41100940299715" lon="8.68394148283837"><ele>21.0</ele><time>2026-05-01T13:51:45.002Z</time></trkpt><trkpt lat="42.41091471601993" lon="8.684210314057703"><ele>21.0</ele><time>2026-05-01T13:51:46.002Z</time></trkpt><trkpt lat="42.41082660884212" lon="8.684455847806444"><ele>20.666666666666668</ele><time>2026-05-01T13:51:47.002Z</time></trkpt><trkpt lat="42.410748151580115" lon="8.684676489147243"><ele>20.333333333333336</ele><time>2026-05-01T13:51:48.002Z</time></trkpt><trkpt lat="42.41066857596596" lon="8.68490408641704"><ele>20.0</ele><time>2026-05-01T13:51:49.002Z</time></trkpt><trkpt lat="42.410588085695046" lon="8.685129236210463"><ele>19.666666666666668</ele><time>2026-05-01T13:51:50.002Z</time></trkpt><trkpt lat="42.41050596313727" lon="8.685364802143068"><ele>19.333333333333332</ele><time>2026-05-01T13:51:51.002Z</time></trkpt><trkpt lat="42.410428272604335" lon="8.68559287449819"><ele>19.0</ele><time>2026-05-01T13:51:52.002Z</time></trkpt><trkpt lat="42.41035753548099" lon="8.685797813371426"><ele>20.333333333333332</ele><time>2026-05-01T13:51:53.002Z</time></trkpt><trkpt lat="42.410268533923706" lon="8.685997504148038"><ele>21.666666666666668</ele><time>2026-05-01T13:51:54.002Z</time></trkpt><trkpt lat="42.41019837537897" lon="8.686195108713703"><ele>23.0</ele><time>2026-05-01T13:51:55.002Z</time></trkpt><trkpt lat="42.41014231314015" lon="8.686401412747776"><ele>23.0</ele><time>2026-05-01T13:51:56.002Z</time></trkpt><trkpt lat="42.410070142974284" lon="8.686606591215464"><ele>23.0</ele><time>2026-05-01T13:51:57.002Z</time></trkpt><trkpt lat="42.41000076315077" lon="8.686806067064353"><ele>23.0</ele><time>2026-05-01T13:51:58.002Z</time></trkpt><trkpt lat="42.40993549628816" lon="8.686996086047031"><ele>21.75</ele><time>2026-05-01T13:51:59.002Z</time></trkpt><trkpt lat="42.40986872920631" lon="8.687182274399952"><ele>20.5</ele><time>2026-05-01T13:52:00.002Z</time></trkpt><trkpt lat="42.40979204812047" lon="8.687351698331232"><ele>19.25</ele><time>2026-05-01T13:52:01.002Z</time></trkpt><trkpt lat="42.40971217142703" lon="8.687503684704717"><ele>18.0</ele><time>2026-05-01T13:52:02.002Z</time></trkpt><trkpt lat="42.409594970723134" lon="8.687606801884895"><ele>18.75</ele><time>2026-05-01T13:52:03.003Z</time></trkpt><trkpt lat="42.40949592839619" lon="8.687728207838079"><ele>19.5</ele><time>2026-05-01T13:52:04.003Z</time></trkpt><trkpt lat="42.40939084970237" lon="8.687846414136294"><ele>20.25</ele><time>2026-05-01T13:52:05.003Z</time></trkpt><trkpt lat="42.40928131005231" lon="8.687966395236325"><ele>21.0</ele><time>2026-05-01T13:52:06.003Z</time></trkpt><trkpt lat="42.409159788377885" lon="8.688098842075803"><ele>21.0</ele><time>2026-05-01T13:52:07.003Z</time></trkpt><trkpt lat="42.40903731112352" lon="8.688233293126455"><ele>21.0</ele><time>2026-05-01T13:52:08.003Z</time></trkpt><trkpt lat="42.40891637942572" lon="8.688367540183226"><ele>21.0</ele><time>2026-05-01T13:52:09.003Z</time></trkpt><trkpt lat="42.408794599721574" lon="8.688507679884427"><ele>22.0</ele><time>2026-05-01T13:52:10.003Z</time></trkpt><trkpt lat="42.40867441153774" lon="8.688644881285875"><ele>23.0</ele><time>2026-05-01T13:52:11.003Z</time></trkpt><trkpt lat="42.40855632926243" lon="8.688780347541796"><ele>24.0</ele><time>2026-05-01T13:52:12.003Z</time></trkpt><trkpt lat="42.40844756349938" lon="8.688930232005937"><ele>24.0</ele><time>2026-05-01T13:52:13.003Z</time></trkpt><trkpt lat="42.40833175225668" lon="8.689064827237154"><ele>24.0</ele><time>2026-05-01T13:52:14.003Z</time></trkpt><trkpt lat="42.408211937780294" lon="8.689202707286295"><ele>24.0</ele><time>2026-05-01T13:52:15.003Z</time></trkpt><trkpt lat="42.40807978865383" lon="8.689353629062962"><ele>25.333333333333336</ele><time>2026-05-01T13:52:16.003Z</time></trkpt><trkpt lat="42.40793778573737" lon="8.689516094121396"><ele>26.666666666666668</ele><time>2026-05-01T13:52:17.003Z</time></trkpt><trkpt lat="42.407785810420926" lon="8.689686704631118"><ele>28.0</ele><time>2026-05-01T13:52:18.003Z</time></trkpt><trkpt lat="42.40762862280578" lon="8.689877381786797"><ele>28.0</ele><time>2026-05-01T13:52:19.003Z</time></trkpt><trkpt lat="42.407467479811814" lon="8.69008238322834"><ele>28.0</ele><time>2026-05-01T13:52:20.003Z</time></trkpt><trkpt lat="42.40731206511243" lon="8.690301545808255"><ele>28.0</ele><time>2026-05-01T13:52:21.003Z</time></trkpt><trkpt lat="42.40716158976218" lon="8.690524684344686"><ele>30.666666666666668</ele><time>2026-05-01T13:52:22.003Z</time></trkpt><trkpt lat="42.40702235211374" lon="8.690718169945947"><ele>33.333333333333336</ele><time>2026-05-01T13:52:23.003Z</time></trkpt><trkpt lat="42.406893053426614" lon="8.690896636487684"><ele>36.0</ele><time>2026-05-01T13:52:24.003Z</time></trkpt><trkpt lat="42.40678383971632" lon="8.691079877626494"><ele>32.0</ele><time>2026-05-01T13:52:25.003Z</time></trkpt><trkpt lat="42.40670293112678" lon="8.691300640771868"><ele>28.0</ele><time>2026-05-01T13:52:26.003Z</time></trkpt><trkpt lat="42.406647092846065" lon="8.691554147440126"><ele>24.0</ele><time>2026-05-01T13:52:27.003Z</time></trkpt><trkpt lat="42.40661705492719" lon="8.691807688570524"><ele>22.666666666666668</ele><time>2026-05-01T13:52:28.003Z</time></trkpt><trkpt lat="42.4066133572605" lon="8.692036998323898"><ele>21.333333333333336</ele><time>2026-05-01T13:52:29.003Z</time></trkpt><trkpt lat="42.40655809485538" lon="8.69223819222508"><ele>20.0</ele><time>2026-05-01T13:52:29.997Z</time></trkpt><trkpt lat="42.406479186870484" lon="8.69244914445213"><ele>20.0</ele><time>2026-05-01T13:52:30.997Z</time></trkpt><trkpt lat="42.40638418069395" lon="8.692655631664135"><ele>20.0</ele><time>2026-05-01T13:52:31.997Z</time></trkpt><trkpt lat="42.40628501327169" lon="8.692836334255995"><ele>20.0</ele><time>2026-05-01T13:52:32.997Z</time></trkpt><trkpt lat="42.406179287896585" lon="8.692987325408382"><ele>21.333333333333336</ele><time>2026-05-01T13:52:33.998Z</time></trkpt><trkpt lat="42.40605579968924" lon="8.693118101828594"><ele>22.666666666666668</ele><time>2026-05-01T13:52:34.998Z</time></trkpt><trkpt lat="42.405916241943316" lon="8.693243173573137"><ele>24.0</ele><time>2026-05-01T13:52:35.998Z</time></trkpt><trkpt lat="42.4057793807561" lon="8.693384838650937"><ele>24.0</ele><time>2026-05-01T13:52:36.998Z</time></trkpt><trkpt lat="42.40565852895537" lon="8.693563418003183"><ele>24.0</ele><time>2026-05-01T13:52:37.998Z</time></trkpt><trkpt lat="42.40552627283398" lon="8.693745572553354"><ele>24.0</ele><time>2026-05-01T13:52:38.998Z</time></trkpt><trkpt lat="42.40539168222495" lon="8.693944341040998"><ele>24.666666666666664</ele><time>2026-05-01T13:52:39.998Z</time></trkpt><trkpt lat="42.4052552777897" lon="8.694145270905503"><ele>25.333333333333332</ele><time>2026-05-01T13:52:40.998Z</time></trkpt><trkpt lat="42.40512080917516" lon="8.694345001958377"><ele>26.0</ele><time>2026-05-01T13:52:41.998Z</time></trkpt><trkpt lat="42.40499912795902" lon="8.694520139557126"><ele>23.333333333333332</ele><time>2026-05-01T13:52:42.998Z</time></trkpt><trkpt lat="42.40488023038935" lon="8.694694052480447"><ele>20.666666666666664</ele><time>2026-05-01T13:52:43.999Z</time></trkpt><trkpt lat="42.404771985362316" lon="8.694852342641736"><ele>18.0</ele><time>2026-05-01T13:52:44.999Z</time></trkpt><trkpt lat="42.40466904468957" lon="8.695000272257673"><ele>22.25</ele><time>2026-05-01T13:52:45.999Z</time></trkpt><trkpt lat="42.40456820594304" lon="8.695123768726154"><ele>26.5</ele><time>2026-05-01T13:52:46.999Z</time></trkpt><trkpt lat="42.40445347980578" lon="8.695223509444975"><ele>30.75</ele><time>2026-05-01T13:52:47.999Z</time></trkpt><trkpt lat="42.40431348334693" lon="8.695249535695368"><ele>35.0</ele><time>2026-05-01T13:52:48.999Z</time></trkpt><trkpt lat="42.40416421294027" lon="8.69524872193143"><ele>33.0</ele><time>2026-05-01T13:52:49.999Z</time></trkpt><trkpt lat="42.4040118477078" lon="8.695295786522154"><ele>31.0</ele><time>2026-05-01T13:52:50.999Z</time></trkpt><trkpt lat="42.403878593228626" lon="8.695339878491716"><ele>29.0</ele><time>2026-05-01T13:52:51.999Z</time></trkpt><trkpt lat="42.40375371708601" lon="8.695399414074682"><ele>27.0</ele><time>2026-05-01T13:52:53Z</time></trkpt><trkpt lat="42.403628608005725" lon="8.695441694275697"><ele>27.0</ele><time>2026-05-01T13:52:54Z</time></trkpt><trkpt lat="42.40351916924339" lon="8.69550554358363"><ele>27.000000000000004</ele><time>2026-05-01T13:52:55Z</time></trkpt><trkpt lat="42.403424915903365" lon="8.695580116884553"><ele>27.000000000000004</ele><time>2026-05-01T13:52:56Z</time></trkpt><trkpt lat="42.40333072871958" lon="8.695623216117003"><ele>27.0</ele><time>2026-05-01T13:52:57Z</time></trkpt><trkpt lat="42.403244910791244" lon="8.695670668063238"><ele>27.0</ele><time>2026-05-01T13:52:58Z</time></trkpt><trkpt lat="42.40316731083693" lon="8.695716461125345"><ele>27.0</ele><time>2026-05-01T13:52:59Z</time></trkpt><trkpt lat="42.40309804396187" lon="8.695779672941102"><ele>27.0</ele><time>2026-05-01T13:53:00Z</time></trkpt><trkpt lat="42.40303269418881" lon="8.695873377645983"><ele>27.0</ele><time>2026-05-01T13:53:01Z</time></trkpt><trkpt lat="42.4030427751182" lon="8.696062134275845"><ele>27.0</ele><time>2026-05-01T13:53:02Z</time></trkpt><trkpt lat="42.40305905970952" lon="8.696240619980305"><ele>27.25</ele><time>2026-05-01T13:53:03Z</time></trkpt><trkpt lat="42.40306312500127" lon="8.696407178796239"><ele>27.5</ele><time>2026-05-01T13:53:04Z</time></trkpt><trkpt lat="42.40300645375986" lon="8.696563679767294"><ele>27.75</ele><time>2026-05-01T13:53:05Z</time></trkpt><trkpt lat="42.40294127847694" lon="8.69673188428574"><ele>28.0</ele><time>2026-05-01T13:53:06Z</time></trkpt><trkpt lat="42.402853520490616" lon="8.696921782123582"><ele>27.0</ele><time>2026-05-01T13:53:07Z</time></trkpt><trkpt lat="42.40275072975272" lon="8.697109558070467"><ele>26.0</ele><time>2026-05-01T13:53:08Z</time></trkpt><trkpt lat="42.402640025139846" lon="8.697270162272625"><ele>25.0</ele><time>2026-05-01T13:53:09Z</time></trkpt><trkpt lat="42.40253226485927" lon="8.697407830186505"><ele>25.0</ele><time>2026-05-01T13:53:10.001Z</time></trkpt><trkpt lat="42.40242660900617" lon="8.697507984887114"><ele>25.0</ele><time>2026-05-01T13:53:11.001Z</time></trkpt><trkpt lat="42.4023340431573" lon="8.69761004755733"><ele>25.0</ele><time>2026-05-01T13:53:12.001Z</time></trkpt><trkpt lat="42.40223075669292" lon="8.697666894787714"><ele>25.0</ele><time>2026-05-01T13:53:13.001Z</time></trkpt><trkpt lat="42.40213254461129" lon="8.697684820810396"><ele>25.833333333333336</ele><time>2026-05-01T13:53:14.001Z</time></trkpt><trkpt lat="42.402045681219654" lon="8.697688838658552"><ele>26.666666666666668</ele><time>2026-05-01T13:53:15.001Z</time></trkpt><trkpt lat="42.40196944633103" lon="8.697691429006042"><ele>27.5</ele><time>2026-05-01T13:53:16.001Z</time></trkpt><trkpt lat="42.40189986928734" lon="8.697693792062054"><ele>28.333333333333336</ele><time>2026-05-01T13:53:17.001Z</time></trkpt><trkpt lat="42.401824303570756" lon="8.697705066737825"><ele>29.166666666666668</ele><time>2026-05-01T13:53:18.001Z</time></trkpt><trkpt lat="42.401727600994846" lon="8.69768459008626"><ele>30.0</ele><time>2026-05-01T13:53:19.001Z</time></trkpt><trkpt lat="42.40160728621625" lon="8.697677605973995"><ele>30.0</ele><time>2026-05-01T13:53:20.001Z</time></trkpt><trkpt lat="42.40149946408999" lon="8.69766993111361"><ele>30.0</ele><time>2026-05-01T13:53:21.001Z</time></trkpt><trkpt lat="42.40139338227041" lon="8.697662856299798"><ele>30.0</ele><time>2026-05-01T13:53:22.001Z</time></trkpt><trkpt lat="42.40126595374057" lon="8.697654357828908"><ele>30.0</ele><time>2026-05-01T13:53:23.001Z</time></trkpt><trkpt lat="42.401127059742606" lon="8.697647067132719"><ele>30.25</ele><time>2026-05-01T13:53:24.001Z</time></trkpt><trkpt lat="42.40099415705271" lon="8.697660141466079"><ele>30.5</ele><time>2026-05-01T13:53:25.001Z</time></trkpt><trkpt lat="42.40086417248989" lon="8.697645249580676"><ele>30.75</ele><time>2026-05-01T13:53:26.001Z</time></trkpt><trkpt lat="42.40071649484531" lon="8.69763440029861"><ele>31.0</ele><time>2026-05-01T13:53:27.001Z</time></trkpt><trkpt lat="42.4005592570138" lon="8.697617484784052"><ele>32.0</ele><time>2026-05-01T13:53:28.001Z</time></trkpt><trkpt lat="42.40040504680317" lon="8.697603990243604"><ele>33.0</ele><time>2026-05-01T13:53:29.001Z</time></trkpt><trkpt lat="42.4002463958381" lon="8.697592325609808"><ele>34.0</ele><time>2026-05-01T13:53:30.001Z</time></trkpt><trkpt lat="42.40008188154879" lon="8.697591262427094"><ele>34.0</ele><time>2026-05-01T13:53:31.001Z</time></trkpt><trkpt lat="42.39990765158992" lon="8.69757462024886"><ele>34.0</ele><time>2026-05-01T13:53:32.001Z</time></trkpt><trkpt lat="42.39972093316657" lon="8.697564431566443"><ele>34.0</ele><time>2026-05-01T13:53:33.001Z</time></trkpt><trkpt lat="42.39952860970918" lon="8.697553761838462"><ele>35.333333333333336</ele><time>2026-05-01T13:53:34.001Z</time></trkpt><trkpt lat="42.399331912042065" lon="8.6975424983298"><ele>36.666666666666664</ele><time>2026-05-01T13:53:35.001Z</time></trkpt><trkpt lat="42.39913831236893" lon="8.697529135541291"><ele>38.0</ele><time>2026-05-01T13:53:36.002Z</time></trkpt><trkpt lat="42.39894558039354" lon="8.697516778863285"><ele>39.0</ele><time>2026-05-01T13:53:37.002Z</time></trkpt><trkpt lat="42.398751996922705" lon="8.69750651939804"><ele>40.0</ele><time>2026-05-01T13:53:38.002Z</time></trkpt><trkpt lat="42.39855796309596" lon="8.69749899158477"><ele>41.0</ele><time>2026-05-01T13:53:39.002Z</time></trkpt><trkpt lat="42.398360283277206" lon="8.697491245325805"><ele>41.0</ele><time>2026-05-01T13:53:40.002Z</time></trkpt><trkpt lat="42.398160720575426" lon="8.697456923156505"><ele>41.0</ele><time>2026-05-01T13:53:41.002Z</time></trkpt><trkpt lat="42.39796230515629" lon="8.697454807941885"><ele>41.0</ele><time>2026-05-01T13:53:42.002Z</time></trkpt><trkpt lat="42.39777510446901" lon="8.697376369942736"><ele>45.0</ele><time>2026-05-01T13:53:43.002Z</time></trkpt><trkpt lat="42.397593465913154" lon="8.697310477900006"><ele>49.0</ele><time>2026-05-01T13:53:44.002Z</time></trkpt><trkpt lat="42.39742865594673" lon="8.697249278860081"><ele>53.0</ele><time>2026-05-01T13:53:45.002Z</time></trkpt><trkpt lat="42.397267240108945" lon="8.697191593413514"><ele>56.66666666666667</ele><time>2026-05-01T13:53:46.002Z</time></trkpt><trkpt lat="42.397089859417335" lon="8.697139017551494"><ele>60.33333333333333</ele><time>2026-05-01T13:53:47.002Z</time></trkpt><trkpt lat="42.39690453215217" lon="8.697087303790232"><ele>64.0</ele><time>2026-05-01T13:53:48.002Z</time></trkpt><trkpt lat="42.3967136422929" lon="8.697053843703229"><ele>64.0</ele><time>2026-05-01T13:53:49.002Z</time></trkpt><trkpt lat="42.396518259648545" lon="8.696996277185672"><ele>64.0</ele><time>2026-05-01T13:53:50.002Z</time></trkpt><trkpt lat="42.39631905245557" lon="8.696940809608186"><ele>64.0</ele><time>2026-05-01T13:53:51.002Z</time></trkpt><trkpt lat="42.39612243281314" lon="8.696888542719872"><ele>61.0</ele><time>2026-05-01T13:53:52.002Z</time></trkpt><trkpt lat="42.395952671302474" lon="8.696852426729022"><ele>58.0</ele><time>2026-05-01T13:53:53.002Z</time></trkpt><trkpt lat="42.39579301757565" lon="8.696844299083786"><ele>55.0</ele><time>2026-05-01T13:53:54.002Z</time></trkpt><trkpt lat="42.39564692759696" lon="8.696866578866716"><ele>60.0</ele><time>2026-05-01T13:53:55.002Z</time></trkpt><trkpt lat="42.3955106333662" lon="8.696935495374804"><ele>65.0</ele><time>2026-05-01T13:53:56.002Z</time></trkpt><trkpt lat="42.39536813958011" lon="8.697033549450861"><ele>70.0</ele><time>2026-05-01T13:53:57.002Z</time></trkpt><trkpt lat="42.39523511697692" lon="8.697140914221931"><ele>70.25</ele><time>2026-05-01T13:53:58.002Z</time></trkpt><trkpt lat="42.395125406266146" lon="8.697235242104716"><ele>70.5</ele><time>2026-05-01T13:53:59.002Z</time></trkpt><trkpt lat="42.395014817036056" lon="8.697293020680283"><ele>70.75</ele><time>2026-05-01T13:54:00.002Z</time></trkpt><trkpt lat="42.39490725915559" lon="8.697258615897715"><ele>71.0</ele><time>2026-05-01T13:54:01.002Z</time></trkpt><trkpt lat="42.39480363957129" lon="8.69720587800002"><ele>71.0</ele><time>2026-05-01T13:54:02.002Z</time></trkpt><trkpt lat="42.39470609293116" lon="8.697094534292658"><ele>71.0</ele><time>2026-05-01T13:54:03.002Z</time></trkpt><trkpt lat="42.39457961033447" lon="8.696965584633844"><ele>71.0</ele><time>2026-05-01T13:54:04.002Z</time></trkpt><trkpt lat="42.39443913648667" lon="8.696835717917573"><ele>71.66666666666667</ele><time>2026-05-01T13:54:05.002Z</time></trkpt><trkpt lat="42.39429283718165" lon="8.696684876336077"><ele>72.33333333333333</ele><time>2026-05-01T13:54:06.002Z</time></trkpt><trkpt lat="42.394127083005245" lon="8.696528898950222"><ele>73.0</ele><time>2026-05-01T13:54:07.003Z</time></trkpt><trkpt lat="42.39396030283769" lon="8.69638331383448"><ele>74.33333333333333</ele><time>2026-05-01T13:54:08.003Z</time></trkpt><trkpt lat="42.39381730743791" lon="8.696237660392965"><ele>75.66666666666667</ele><time>2026-05-01T13:54:09.003Z</time></trkpt><trkpt lat="42.39366688660772" lon="8.696130381819554"><ele>77.0</ele><time>2026-05-01T13:54:10.003Z</time></trkpt><trkpt lat="42.393546145523004" lon="8.695981754564794"><ele>77.0</ele><time>2026-05-01T13:54:11.003Z</time></trkpt><trkpt lat="42.39344470050462" lon="8.695795101368814"><ele>77.0</ele><time>2026-05-01T13:54:12.003Z</time></trkpt><trkpt lat="42.39334445957487" lon="8.695573936821736"><ele>77.0</ele><time>2026-05-01T13:54:13.003Z</time></trkpt><trkpt lat="42.39324601138256" lon="8.695348967409592"><ele>79.66666666666667</ele><time>2026-05-01T13:54:14.003Z</time></trkpt><trkpt lat="42.39312986323788" lon="8.695138873376099"><ele>82.33333333333333</ele><time>2026-05-01T13:54:15.003Z</time></trkpt><trkpt lat="42.39299883348381" lon="8.694961622527433"><ele>85.0</ele><time>2026-05-01T13:54:16.003Z</time></trkpt><trkpt lat="42.39285722647" lon="8.694807517108485"><ele>85.0</ele><time>2026-05-01T13:54:17.003Z</time></trkpt><trkpt lat="42.39270839911115" lon="8.694690253732906"><ele>85.0</ele><time>2026-05-01T13:54:18.003Z</time></trkpt><trkpt lat="42.39255826220844" lon="8.694587574552362"><ele>85.0</ele><time>2026-05-01T13:54:19.003Z</time></trkpt><trkpt lat="42.392420102323904" lon="8.694458630849981"><ele>86.33333333333333</ele><time>2026-05-01T13:54:20.003Z</time></trkpt><trkpt lat="42.39227081830716" lon="8.694361282890801"><ele>87.66666666666667</ele><time>2026-05-01T13:54:21.003Z</time></trkpt><trkpt lat="42.39211318693859" lon="8.694309730953243"><ele>89.0</ele><time>2026-05-01T13:54:22.003Z</time></trkpt><trkpt lat="42.391997195864676" lon="8.694204200023337"><ele>89.0</ele><time>2026-05-01T13:54:23.003Z</time></trkpt><trkpt lat="42.39191349449978" lon="8.694073175020756"><ele>89.0</ele><time>2026-05-01T13:54:24.003Z</time></trkpt><trkpt lat="42.3918208048211" lon="8.693929080096451"><ele>89.0</ele><time>2026-05-01T13:54:25.003Z</time></trkpt><trkpt lat="42.39171825712196" lon="8.693766470146297"><ele>89.0</ele><time>2026-05-01T13:54:26.003Z</time></trkpt><trkpt lat="42.391595000256814" lon="8.6936084613487"><ele>84.66666666666667</ele><time>2026-05-01T13:54:27.003Z</time></trkpt><trkpt lat="42.39147357471947" lon="8.69343619063716"><ele>80.33333333333333</ele><time>2026-05-01T13:54:28.003Z</time></trkpt><trkpt lat="42.391340148173065" lon="8.693264337770058"><ele>76.0</ele><time>2026-05-01T13:54:29.003Z</time></trkpt><trkpt lat="42.39120378989489" lon="8.693063390231623"><ele>79.66666666666666</ele><time>2026-05-01T13:54:30.003Z</time></trkpt><trkpt lat="42.391054019009886" lon="8.692860111469184"><ele>83.33333333333333</ele><time>2026-05-01T13:54:31.003Z</time></trkpt><trkpt lat="42.39092802781263" lon="8.692625671542139"><ele>87.0</ele><time>2026-05-01T13:54:32.003Z</time></trkpt><trkpt lat="42.3907964598235" lon="8.692378326681064"><ele>87.0</ele><time>2026-05-01T13:54:33.003Z</time></trkpt><trkpt lat="42.39066397970695" lon="8.692132321460772"><ele>87.0</ele><time>2026-05-01T13:54:34.003Z</time></trkpt><trkpt lat="42.39053670422324" lon="8.691896127678746"><ele>87.0</ele><time>2026-05-01T13:54:35.003Z</time></trkpt><trkpt lat="42.39041794248665" lon="8.691676534670163"><ele>91.33333333333334</ele><time>2026-05-01T13:54:35.998Z</time></trkpt><trkpt lat="42.39030610918516" lon="8.691481479073898"><ele>95.66666666666667</ele><time>2026-05-01T13:54:36.998Z</time></trkpt><trkpt lat="42.39018311132507" lon="8.691331889298107"><ele>100.0</ele><time>2026-05-01T13:54:37.998Z</time></trkpt><trkpt lat="42.39007613273459" lon="8.69119834641115"><ele>100.0</ele><time>2026-05-01T13:54:38.998Z</time></trkpt><trkpt lat="42.38996403087444" lon="8.691097051607892"><ele>100.0</ele><time>2026-05-01T13:54:39.998Z</time></trkpt><trkpt lat="42.38984168547376" lon="8.691030008046786"><ele>100.0</ele><time>2026-05-01T13:54:40.999Z</time></trkpt><trkpt lat="42.389705323106135" lon="8.691021453497727"><ele>100.0</ele><time>2026-05-01T13:54:41.999Z</time></trkpt><trkpt lat="42.389561803965044" lon="8.691066215295896"><ele>100.0</ele><time>2026-05-01T13:54:42.999Z</time></trkpt><trkpt lat="42.38942306059943" lon="8.691142119908296"><ele>100.0</ele><time>2026-05-01T13:54:43.999Z</time></trkpt><trkpt lat="42.389286213879615" lon="8.691231200314038"><ele>100.0</ele><time>2026-05-01T13:54:44.999Z</time></trkpt><trkpt lat="42.389138517114716" lon="8.691286544668081"><ele>100.0</ele><time>2026-05-01T13:54:45.999Z</time></trkpt><trkpt lat="42.389011395000644" lon="8.691396902681946"><ele>100.0</ele><time>2026-05-01T13:54:46.999Z</time></trkpt><trkpt lat="42.38890290647422" lon="8.691545097287158"><ele>100.0</ele><time>2026-05-01T13:54:47.999Z</time></trkpt><trkpt lat="42.38881986476861" lon="8.691732970691428"><ele>99.0</ele><time>2026-05-01T13:54:48.999Z</time></trkpt><trkpt lat="42.38873150470341" lon="8.691875832651354"><ele>98.0</ele><time>2026-05-01T13:54:49.999Z</time></trkpt><trkpt lat="42.38865656274376" lon="8.691983242477878"><ele>97.0</ele><time>2026-05-01T13:54:50.999Z</time></trkpt><trkpt lat="42.38859043430758" lon="8.69203835437001"><ele>96.0</ele><time>2026-05-01T13:54:51.999Z</time></trkpt><trkpt lat="42.38852791214458" lon="8.692014415908426"><ele>95.0</ele><time>2026-05-01T13:54:52.999Z</time></trkpt><trkpt lat="42.38845647552458" lon="8.69196379220328"><ele>95.0</ele><time>2026-05-01T13:54:53.999Z</time></trkpt><trkpt lat="42.38836982950276" lon="8.691859034910932"><ele>95.0</ele><time>2026-05-01T13:54:55Z</time></trkpt><trkpt lat="42.38824639089282" lon="8.691765957150348"><ele>95.0</ele><time>2026-05-01T13:54:56Z</time></trkpt><trkpt lat="42.388119251308126" lon="8.691660232352376"><ele>95.0</ele><time>2026-05-01T13:54:57Z</time></trkpt><trkpt lat="42.38798709985124" lon="8.691524148723895"><ele>97.0</ele><time>2026-05-01T13:54:58Z</time></trkpt><trkpt lat="42.38784906184871" lon="8.691455300079161"><ele>99.0</ele><time>2026-05-01T13:54:59Z</time></trkpt><trkpt lat="42.3877294698117" lon="8.69140503653161"><ele>101.0</ele><time>2026-05-01T13:55:00Z</time></trkpt><trkpt lat="42.38759605065186" lon="8.691389426152995"><ele>103.0</ele><time>2026-05-01T13:55:01Z</time></trkpt><trkpt lat="42.3874565184574" lon="8.691410975634554"><ele>103.0</ele><time>2026-05-01T13:55:02Z</time></trkpt><trkpt lat="42.387335961028924" lon="8.691483473358089"><ele>103.0</ele><time>2026-05-01T13:55:03Z</time></trkpt><trkpt lat="42.38721507623823" lon="8.691506314915147"><ele>103.0</ele><time>2026-05-01T13:55:04Z</time></trkpt><trkpt lat="42.38708560374537" lon="8.691521236648784"><ele>103.0</ele><time>2026-05-01T13:55:05Z</time></trkpt><trkpt lat="42.3869581112474" lon="8.691571070380537"><ele>101.33333333333334</ele><time>2026-05-01T13:55:06Z</time></trkpt><trkpt lat="42.38684530539781" lon="8.69164233046965"><ele>99.66666666666666</ele><time>2026-05-01T13:55:07Z</time></trkpt><trkpt lat="42.386736654042835" lon="8.691785204695014"><ele>98.0</ele><time>2026-05-01T13:55:08Z</time></trkpt><trkpt lat="42.386628875965116" lon="8.691984695758777"><ele>97.0</ele><time>2026-05-01T13:55:09Z</time></trkpt><trkpt lat="42.38652185303947" lon="8.69220933442302"><ele>96.0</ele><time>2026-05-01T13:55:10Z</time></trkpt><trkpt lat="42.38638771753135" lon="8.692428467076088"><ele>95.0</ele><time>2026-05-01T13:55:11Z</time></trkpt><trkpt lat="42.386253973882376" lon="8.692654497170386"><ele>100.66666666666667</ele><time>2026-05-01T13:55:12Z</time></trkpt><trkpt lat="42.38610938217062" lon="8.692878191755701"><ele>106.33333333333334</ele><time>2026-05-01T13:55:13Z</time></trkpt><trkpt lat="42.385966887446834" lon="8.693083187498596"><ele>112.0</ele><time>2026-05-01T13:55:14.001Z</time></trkpt><trkpt lat="42.385821305668564" lon="8.693271539764833"><ele>112.0</ele><time>2026-05-01T13:55:15.001Z</time></trkpt><trkpt lat="42.38567276961708" lon="8.693460705950324"><ele>112.0</ele><time>2026-05-01T13:55:16.001Z</time></trkpt><trkpt lat="42.38552408437764" lon="8.693647948600944"><ele>112.0</ele><time>2026-05-01T13:55:17.001Z</time></trkpt><trkpt lat="42.385376548477566" lon="8.693830378915287"><ele>111.0</ele><time>2026-05-01T13:55:18.001Z</time></trkpt><trkpt lat="42.385251886087275" lon="8.694011744198654"><ele>110.0</ele><time>2026-05-01T13:55:19.001Z</time></trkpt><trkpt lat="42.38512883964373" lon="8.694160487496596"><ele>109.0</ele><time>2026-05-01T13:55:20.001Z</time></trkpt><trkpt lat="42.385026894610995" lon="8.694314220311034"><ele>111.25</ele><time>2026-05-01T13:55:21.001Z</time></trkpt><trkpt lat="42.38495253889611" lon="8.69447732828527"><ele>113.5</ele><time>2026-05-01T13:55:22.001Z</time></trkpt><trkpt lat="42.38489557963089" lon="8.6946326109429"><ele>115.75</ele><time>2026-05-01T13:55:23.001Z</time></trkpt><trkpt lat="42.384861697406016" lon="8.694790781257877"><ele>118.0</ele><time>2026-05-01T13:55:24.001Z</time></trkpt><trkpt lat="42.38485664682996" lon="8.694965624432378"><ele>118.0</ele><time>2026-05-01T13:55:25.001Z</time></trkpt><trkpt lat="42.384872348858345" lon="8.695151612989486"><ele>118.0</ele><time>2026-05-01T13:55:26.001Z</time></trkpt><trkpt lat="42.384894924277496" lon="8.695357493905771"><ele>118.0</ele><time>2026-05-01T13:55:27.001Z</time></trkpt><trkpt lat="42.384881827787325" lon="8.695573019284963"><ele>119.25</ele><time>2026-05-01T13:55:28.001Z</time></trkpt><trkpt lat="42.38488216470328" lon="8.69577750431133"><ele>120.5</ele><time>2026-05-01T13:55:29.001Z</time></trkpt><trkpt lat="42.38489548152064" lon="8.695960813292878"><ele>121.75</ele><time>2026-05-01T13:55:30.001Z</time></trkpt><trkpt lat="42.38488064025996" lon="8.696120399773879"><ele>123.0</ele><time>2026-05-01T13:55:31.001Z</time></trkpt><trkpt lat="42.384850432830824" lon="8.696256506901971"><ele>120.0</ele><time>2026-05-01T13:55:32.001Z</time></trkpt><trkpt lat="42.38475961359064" lon="8.69631691473014"><ele>117.0</ele><time>2026-05-01T13:55:33.001Z</time></trkpt><trkpt lat="42.38467826421775" lon="8.696410586598248"><ele>114.0</ele><time>2026-05-01T13:55:34.001Z</time></trkpt><trkpt lat="42.38457999610994" lon="8.69653896848382"><ele>111.0</ele><time>2026-05-01T13:55:35.001Z</time></trkpt><trkpt lat="42.38446828067597" lon="8.696675420352053"><ele>111.0</ele><time>2026-05-01T13:55:36.001Z</time></trkpt><trkpt lat="42.38436955876415" lon="8.696793118639382"><ele>111.0</ele><time>2026-05-01T13:55:37.001Z</time></trkpt><trkpt lat="42.38429514387198" lon="8.69691320667435"><ele>111.0</ele><time>2026-05-01T13:55:38.001Z</time></trkpt><trkpt lat="42.38424021272225" lon="8.697052450831855"><ele>111.0</ele><time>2026-05-01T13:55:39.001Z</time></trkpt><trkpt lat="42.38421612369264" lon="8.697244436633438"><ele>114.0</ele><time>2026-05-01T13:55:40.001Z</time></trkpt><trkpt lat="42.38417132240713" lon="8.69747437360702"><ele>117.0</ele><time>2026-05-01T13:55:41.001Z</time></trkpt><trkpt lat="42.38413012464508" lon="8.69775171496679"><ele>120.0</ele><time>2026-05-01T13:55:42.002Z</time></trkpt><trkpt lat="42.384097440360655" lon="8.698026151369957"><ele>124.0</ele><time>2026-05-01T13:55:43.002Z</time></trkpt><trkpt lat="42.38406640032546" lon="8.698253605397799"><ele>128.0</ele><time>2026-05-01T13:55:44.002Z</time></trkpt><trkpt lat="42.38400427450991" lon="8.698439998826737"><ele>132.0</ele><time>2026-05-01T13:55:45.002Z</time></trkpt><trkpt lat="42.383913228907154" lon="8.6985757234994"><ele>131.5</ele><time>2026-05-01T13:55:46.002Z</time></trkpt><trkpt lat="42.383809362482715" lon="8.698711400962118"><ele>131.0</ele><time>2026-05-01T13:55:47.002Z</time></trkpt><trkpt lat="42.38368337145909" lon="8.698818768546861"><ele>130.5</ele><time>2026-05-01T13:55:48.002Z</time></trkpt><trkpt lat="42.38356717909062" lon="8.698909592329588"><ele>130.0</ele><time>2026-05-01T13:55:49.002Z</time></trkpt><trkpt lat="42.38347095719003" lon="8.698967169604469"><ele>130.0</ele><time>2026-05-01T13:55:50.002Z</time></trkpt><trkpt lat="42.3833945407796" lon="8.69899171486462"><ele>130.0</ele><time>2026-05-01T13:55:51.002Z</time></trkpt><trkpt lat="42.38333000152633" lon="8.6989924814147"><ele>130.0</ele><time>2026-05-01T13:55:52.002Z</time></trkpt><trkpt lat="42.38328116232123" lon="8.698911289316815"><ele>130.0</ele><time>2026-05-01T13:55:53.002Z</time></trkpt><trkpt lat="42.38326295274811" lon="8.698799652097"><ele>130.0</ele><time>2026-05-01T13:55:54.002Z</time></trkpt><trkpt lat="42.38324346810728" lon="8.698662668762928"><ele>130.0</ele><time>2026-05-01T13:55:55.002Z</time></trkpt><trkpt lat="42.383272751208786" lon="8.698532240312396"><ele>127.25</ele><time>2026-05-01T13:55:56.002Z</time></trkpt><trkpt lat="42.38335253600659" lon="8.698407863224002"><ele>124.5</ele><time>2026-05-01T13:55:57.002Z</time></trkpt><trkpt lat="42.38343604845326" lon="8.698269523933579"><ele>121.75</ele><time>2026-05-01T13:55:58.002Z</time></trkpt><trkpt lat="42.38350029381326" lon="8.698088446310466"><ele>119.0</ele><time>2026-05-01T13:55:59.002Z</time></trkpt><trkpt lat="42.38351622970801" lon="8.69786542459784"><ele>120.66666666666666</ele><time>2026-05-01T13:56:00.002Z</time></trkpt><trkpt lat="42.3835096659583" lon="8.697624671339979"><ele>122.33333333333334</ele><time>2026-05-01T13:56:01.002Z</time></trkpt><trkpt lat="42.38351763757352" lon="8.697358723363426"><ele>124.0</ele><time>2026-05-01T13:56:02.002Z</time></trkpt><trkpt lat="42.383562162589286" lon="8.697073297383842"><ele>126.66666666666667</ele><time>2026-05-01T13:56:03.002Z</time></trkpt><trkpt lat="42.3835736719887" lon="8.696796379604217"><ele>129.33333333333334</ele><time>2026-05-01T13:56:04.002Z</time></trkpt><trkpt lat="42.38360512052937" lon="8.69655139944821"><ele>132.0</ele><time>2026-05-01T13:56:05.002Z</time></trkpt><trkpt lat="42.38367605919353" lon="8.696344746274937"><ele>132.0</ele><time>2026-05-01T13:56:06.002Z</time></trkpt><trkpt lat="42.38374159594648" lon="8.696146519505207"><ele>132.0</ele><time>2026-05-01T13:56:07.002Z</time></trkpt><trkpt lat="42.383855371128256" lon="8.696025632678996"><ele>132.0</ele><time>2026-05-01T13:56:08.002Z</time></trkpt><trkpt lat="42.38394703922192" lon="8.695889564879186"><ele>132.0</ele><time>2026-05-01T13:56:09.002Z</time></trkpt><trkpt lat="42.3840033875194" lon="8.695759928349718"><ele>126.5</ele><time>2026-05-01T13:56:10.002Z</time></trkpt><trkpt lat="42.38400531892105" lon="8.695616372151969"><ele>121.0</ele><time>2026-05-01T13:56:11.002Z</time></trkpt><trkpt lat="42.3839768939071" lon="8.695453885679473"><ele>115.5</ele><time>2026-05-01T13:56:12.002Z</time></trkpt><trkpt lat="42.383938459022204" lon="8.695266737682875"><ele>110.0</ele><time>2026-05-01T13:56:13.002Z</time></trkpt><trkpt lat="42.383894275148776" lon="8.6950552695491"><ele>120.33333333333333</ele><time>2026-05-01T13:56:14.002Z</time></trkpt><trkpt lat="42.383835436146036" lon="8.694827159418931"><ele>130.66666666666666</ele><time>2026-05-01T13:56:15.003Z</time></trkpt><trkpt lat="42.38376291404427" lon="8.694589309465385"><ele>141.0</ele><time>2026-05-01T13:56:16.003Z</time></trkpt><trkpt lat="42.383697874744456" lon="8.694340139714205"><ele>141.0</ele><time>2026-05-01T13:56:17.003Z</time></trkpt><trkpt lat="42.38366523761783" lon="8.694083454973152"><ele>141.0</ele><time>2026-05-01T13:56:18.003Z</time></trkpt><trkpt lat="42.38367359594003" lon="8.69383922712279"><ele>141.0</ele><time>2026-05-01T13:56:19.003Z</time></trkpt><trkpt lat="42.383660058303484" lon="8.693622359694029"><ele>143.0</ele><time>2026-05-01T13:56:20.003Z</time></trkpt><trkpt lat="42.38370176359577" lon="8.693426208946999"><ele>145.0</ele><time>2026-05-01T13:56:21.003Z</time></trkpt><trkpt lat="42.38375164900856" lon="8.693196525272656"><ele>147.0</ele><time>2026-05-01T13:56:22.003Z</time></trkpt><trkpt lat="42.383827753070314" lon="8.692944394797989"><ele>133.0</ele><time>2026-05-01T13:56:23.003Z</time></trkpt><trkpt lat="42.38389867232058" lon="8.692659057241176"><ele>119.0</ele><time>2026-05-01T13:56:24.003Z</time></trkpt><trkpt lat="42.38397916492307" lon="8.692344000592618"><ele>119.0</ele><time>2026-05-01T13:56:25.003Z</time></trkpt><trkpt lat="42.38406564348181" lon="8.692011609262877"><ele>119.0</ele><time>2026-05-01T13:56:26.003Z</time></trkpt><trkpt lat="42.38416133606907" lon="8.691658541165788"><ele>126.5</ele><time>2026-05-01T13:56:27.003Z</time></trkpt><trkpt lat="42.38425068595331" lon="8.691313147183262"><ele>134.0</ele><time>2026-05-01T13:56:28.003Z</time></trkpt><trkpt lat="42.38433113562117" lon="8.690990181514957"><ele>137.66666666666666</ele><time>2026-05-01T13:56:29.003Z</time></trkpt><trkpt lat="42.38440464272726" lon="8.690697421492446"><ele>141.33333333333334</ele><time>2026-05-01T13:56:30.003Z</time></trkpt><trkpt lat="42.384469372092354" lon="8.6904261689563"><ele>145.0</ele><time>2026-05-01T13:56:31.003Z</time></trkpt><trkpt lat="42.38452430840638" lon="8.690170375449728"><ele>148.33333333333334</ele><time>2026-05-01T13:56:32.003Z</time></trkpt><trkpt lat="42.384564516051036" lon="8.689915206409832"><ele>151.66666666666666</ele><time>2026-05-01T13:56:33.003Z</time></trkpt><trkpt lat="42.38459015720321" lon="8.689658561194246"><ele>155.0</ele><time>2026-05-01T13:56:34.003Z</time></trkpt><trkpt lat="42.384617531236415" lon="8.689425946181855"><ele>158.33333333333331</ele><time>2026-05-01T13:56:35.003Z</time></trkpt><trkpt lat="42.384660319039966" lon="8.689205196778762"><ele>161.66666666666666</ele><time>2026-05-01T13:56:36.003Z</time></trkpt><trkpt lat="42.384703925456854" lon="8.68901082602192"><ele>165.0</ele><time>2026-05-01T13:56:37.003Z</time></trkpt><trkpt lat="42.384744171376965" lon="8.688833583899276"><ele>162.4</ele><time>2026-05-01T13:56:38.003Z</time></trkpt><trkpt lat="42.38478504866119" lon="8.688693233865036"><ele>159.8</ele><time>2026-05-01T13:56:39.003Z</time></trkpt><trkpt lat="42.384829634393014" lon="8.688598626845886"><ele>157.2</ele><time>2026-05-01T13:56:40.003Z</time></trkpt><trkpt lat="42.38495707507808" lon="8.688565620091396"><ele>154.6</ele><time>2026-05-01T13:56:41.998Z</time></trkpt><trkpt lat="42.38505508495005" lon="8.68861069106322"><ele>152.0</ele><time>2026-05-01T13:56:42.998Z</time></trkpt><trkpt lat="42.38518800050107" lon="8.688674077048766"><ele>145.33333333333331</ele><time>2026-05-01T13:56:43.998Z</time></trkpt><trkpt lat="42.38533288605653" lon="8.688725694047967"><ele>138.66666666666666</ele><time>2026-05-01T13:56:44.998Z</time></trkpt><trkpt lat="42.38548590978264" lon="8.688746732815492"><ele>132.0</ele><time>2026-05-01T13:56:45.998Z</time></trkpt><trkpt lat="42.385635681371305" lon="8.688722279424077"><ele>129.0</ele><time>2026-05-01T13:56:46.998Z</time></trkpt><trkpt lat="42.38577171853044" lon="8.688649936652382"><ele>126.0</ele><time>2026-05-01T13:56:47.998Z</time></trkpt><trkpt lat="42.38588667220749" lon="8.688528565413915"><ele>123.0</ele><time>2026-05-01T13:56:48.998Z</time></trkpt><trkpt lat="42.38599445809824" lon="8.688352255838225"><ele>131.33333333333334</ele><time>2026-05-01T13:56:49.998Z</time></trkpt><trkpt lat="42.38609751222191" lon="8.688154243235584"><ele>139.66666666666669</ele><time>2026-05-01T13:56:50.998Z</time></trkpt><trkpt lat="42.38619512815575" lon="8.687930556493885"><ele>148.0</ele><time>2026-05-01T13:56:51.999Z</time></trkpt><trkpt lat="42.38629236208872" lon="8.687689862530524"><ele>145.33333333333334</ele><time>2026-05-01T13:56:52.999Z</time></trkpt><trkpt lat="42.386381001857764" lon="8.687474112574893"><ele>142.66666666666666</ele><time>2026-05-01T13:56:53.999Z</time></trkpt><trkpt lat="42.38646065307187" lon="8.687285708016745"><ele>140.0</ele><time>2026-05-01T13:56:54.999Z</time></trkpt><trkpt lat="42.38652990676461" lon="8.68712489908141"><ele>140.0</ele><time>2026-05-01T13:56:55.999Z</time></trkpt><trkpt lat="42.38658761346729" lon="8.686985239212085"><ele>140.0</ele><time>2026-05-01T13:56:56.999Z</time></trkpt><trkpt lat="42.38661114977537" lon="8.686853860238696"><ele>140.0</ele><time>2026-05-01T13:56:57.999Z</time></trkpt><trkpt lat="42.38658682888216" lon="8.68672100766913"><ele>140.0</ele><time>2026-05-01T13:56:58.999Z</time></trkpt><trkpt lat="42.386528391880745" lon="8.686602437991969"><ele>140.0</ele><time>2026-05-01T13:56:59.999Z</time></trkpt><trkpt lat="42.38643443456389" lon="8.68651510696963"><ele>145.25</ele><time>2026-05-01T13:57:00.999Z</time></trkpt><trkpt lat="42.38631742133604" lon="8.686450369752713"><ele>150.5</ele><time>2026-05-01T13:57:01.999Z</time></trkpt><trkpt lat="42.386182673997666" lon="8.686377213238735"><ele>155.75</ele><time>2026-05-01T13:57:02.999Z</time></trkpt><trkpt lat="42.38602279835321" lon="8.686311834497397"><ele>161.0</ele><time>2026-05-01T13:57:03.999Z</time></trkpt><trkpt lat="42.38585186963014" lon="8.686207094681386"><ele>164.66666666666666</ele><time>2026-05-01T13:57:05Z</time></trkpt><trkpt lat="42.38569852841066" lon="8.686038721468261"><ele>168.33333333333334</ele><time>2026-05-01T13:57:06Z</time></trkpt><trkpt lat="42.38556732184029" lon="8.685818745096235"><ele>172.0</ele><time>2026-05-01T13:57:07Z</time></trkpt><trkpt lat="42.385431796817734" lon="8.685661573103992"><ele>172.0</ele><time>2026-05-01T13:57:08Z</time></trkpt><trkpt lat="42.385301912304485" lon="8.685524489601912"><ele>172.0</ele><time>2026-05-01T13:57:09Z</time></trkpt><trkpt lat="42.38513923517873" lon="8.68543223521981"><ele>172.0</ele><time>2026-05-01T13:57:10Z</time></trkpt><trkpt lat="42.38494843578811" lon="8.68537668324307"><ele>172.0</ele><time>2026-05-01T13:57:11Z</time></trkpt><trkpt lat="42.38474855911145" lon="8.685295900229008"><ele>172.0</ele><time>2026-05-01T13:57:12Z</time></trkpt><trkpt lat="42.38456359407575" lon="8.685230059754065"><ele>172.0</ele><time>2026-05-01T13:57:13Z</time></trkpt><trkpt lat="42.38440271256331" lon="8.685169404814692"><ele>172.66666666666669</ele><time>2026-05-01T13:57:14Z</time></trkpt><trkpt lat="42.384278713536524" lon="8.685017786688507"><ele>173.33333333333334</ele><time>2026-05-01T13:57:15Z</time></trkpt><trkpt lat="42.38416683130843" lon="8.684876918345207"><ele>174.0</ele><time>2026-05-01T13:57:16Z</time></trkpt><trkpt lat="42.38408555673662" lon="8.68471673006566"><ele>174.0</ele><time>2026-05-01T13:57:17Z</time></trkpt><trkpt lat="42.384041713691424" lon="8.684512068607866"><ele>174.0</ele><time>2026-05-01T13:57:18Z</time></trkpt><trkpt lat="42.38398270893957" lon="8.684297946337596"><ele>174.0</ele><time>2026-05-01T13:57:19Z</time></trkpt><trkpt lat="42.383926915168" lon="8.684080314362651"><ele>174.66666666666666</ele><time>2026-05-01T13:57:20Z</time></trkpt><trkpt lat="42.383834073323754" lon="8.683886053659982"><ele>175.33333333333331</ele><time>2026-05-01T13:57:21Z</time></trkpt><trkpt lat="42.38373609231126" lon="8.683727611631044"><ele>176.0</ele><time>2026-05-01T13:57:22Z</time></trkpt><trkpt lat="42.383636817163456" lon="8.683604567111216"><ele>176.0</ele><time>2026-05-01T13:57:23.001Z</time></trkpt><trkpt lat="42.38353637989543" lon="8.683544962175809"><ele>176.0</ele><time>2026-05-01T13:57:24.001Z</time></trkpt><trkpt lat="42.3834474158071" lon="8.683572286204727"><ele>176.0</ele><time>2026-05-01T13:57:25.001Z</time></trkpt><trkpt lat="42.38336459202131" lon="8.68364953943053"><ele>176.0</ele><time>2026-05-01T13:57:26.001Z</time></trkpt><trkpt lat="42.383269761272494" lon="8.683780399319486"><ele>176.0</ele><time>2026-05-01T13:57:27.001Z</time></trkpt><trkpt lat="42.38318242476992" lon="8.683926163277109"><ele>176.0</ele><time>2026-05-01T13:57:28.001Z</time></trkpt><trkpt lat="42.38312830585865" lon="8.684095959662551"><ele>176.0</ele><time>2026-05-01T13:57:29.001Z</time></trkpt><trkpt lat="42.3830987425233" lon="8.684265121095153"><ele>176.0</ele><time>2026-05-01T13:57:30.001Z</time></trkpt><trkpt lat="42.3830431034498" lon="8.684378947864646"><ele>176.0</ele><time>2026-05-01T13:57:31.001Z</time></trkpt><trkpt lat="42.3829453694403" lon="8.684399081057325"><ele>175.25</ele><time>2026-05-01T13:57:32.001Z</time></trkpt><trkpt lat="42.382833926429086" lon="8.684369669944392"><ele>174.5</ele><time>2026-05-01T13:57:33.001Z</time></trkpt><trkpt lat="42.38270342655315" lon="8.684299884575161"><ele>173.75</ele><time>2026-05-01T13:57:34.001Z</time></trkpt><trkpt lat="42.382546711239634" lon="8.684228946375269"><ele>173.0</ele><time>2026-05-01T13:57:35.001Z</time></trkpt><trkpt lat="42.38237898927867" lon="8.684194005893334"><ele>173.0</ele><time>2026-05-01T13:57:36.001Z</time></trkpt><trkpt lat="42.38223361363044" lon="8.684200933066862"><ele>173.0</ele><time>2026-05-01T13:57:37.001Z</time></trkpt><trkpt lat="42.38209924423773" lon="8.684269322609635"><ele>173.0</ele><time>2026-05-01T13:57:38.001Z</time></trkpt><trkpt lat="42.3819661803799" lon="8.684382704576409"><ele>173.0</ele><time>2026-05-01T13:57:39.001Z</time></trkpt><trkpt lat="42.38182960575673" lon="8.684486900517747"><ele>177.8</ele><time>2026-05-01T13:57:40.001Z</time></trkpt><trkpt lat="42.3817191953223" lon="8.684569809500426"><ele>182.60000000000002</ele><time>2026-05-01T13:57:41.001Z</time></trkpt><trkpt lat="42.38162424050069" lon="8.68460664436227"><ele>187.39999999999998</ele><time>2026-05-01T13:57:42.001Z</time></trkpt><trkpt lat="42.381553369514954" lon="8.684585121571038"><ele>192.2</ele><time>2026-05-01T13:57:43.001Z</time></trkpt><trkpt lat="42.38148575776334" lon="8.68453425094442"><ele>197.0</ele><time>2026-05-01T13:57:44.001Z</time></trkpt><trkpt lat="42.3813888793649" lon="8.68450618175313"><ele>198.0</ele><time>2026-05-01T13:57:45.001Z</time></trkpt><trkpt lat="42.381269175827406" lon="8.684548171260921"><ele>199.0</ele><time>2026-05-01T13:57:46.001Z</time></trkpt><trkpt lat="42.38116466086998" lon="8.684689988553156"><ele>200.0</ele><time>2026-05-01T13:57:47.001Z</time></trkpt><trkpt lat="42.38108448804724" lon="8.684838530493895"><ele>201.0</ele><time>2026-05-01T13:57:48.001Z</time></trkpt><trkpt lat="42.38100754778809" lon="8.684928750360891"><ele>201.0</ele><time>2026-05-01T13:57:49.001Z</time></trkpt><trkpt lat="42.38093304786211" lon="8.68496806594986"><ele>201.0</ele><time>2026-05-01T13:57:50.001Z</time></trkpt><trkpt lat="42.38086244784167" lon="8.684929699268748"><ele>201.0</ele><time>2026-05-01T13:57:51.002Z</time></trkpt><trkpt lat="42.38078988302628" lon="8.684858551801906"><ele>201.0</ele><time>2026-05-01T13:57:52.002Z</time></trkpt><trkpt lat="42.38075939368795" lon="8.684735839466017"><ele>201.0</ele><time>2026-05-01T13:57:53.002Z</time></trkpt><trkpt lat="42.38078141928796" lon="8.68461141850148"><ele>201.0</ele><time>2026-05-01T13:57:54.002Z</time></trkpt><trkpt lat="42.38085259614955" lon="8.684456745377213"><ele>198.33333333333331</ele><time>2026-05-01T13:57:55.002Z</time></trkpt><trkpt lat="42.38091135298595" lon="8.68427192041095"><ele>195.66666666666666</ele><time>2026-05-01T13:57:56.002Z</time></trkpt><trkpt lat="42.38096031316557" lon="8.68404449915091"><ele>193.0</ele><time>2026-05-01T13:57:57.002Z</time></trkpt><trkpt lat="42.38103370037522" lon="8.683790108198673"><ele>191.33333333333331</ele><time>2026-05-01T13:57:58.002Z</time></trkpt><trkpt lat="42.38111597645209" lon="8.683570731115175"><ele>189.66666666666666</ele><time>2026-05-01T13:57:59.002Z</time></trkpt><trkpt lat="42.38117030186033" lon="8.683378096776295"><ele>188.0</ele><time>2026-05-01T13:58:00.002Z</time></trkpt><trkpt lat="42.38118082135498" lon="8.683192602645974"><ele>188.0</ele><time>2026-05-01T13:58:01.002Z</time></trkpt><trkpt lat="42.38113972173356" lon="8.683029632776961"><ele>188.0</ele><time>2026-05-01T13:58:02.002Z</time></trkpt><trkpt lat="42.38106278297051" lon="8.68291869306318"><ele>188.0</ele><time>2026-05-01T13:58:03.002Z</time></trkpt><trkpt lat="42.38096261327113" lon="8.682854838665396"><ele>188.0</ele><time>2026-05-01T13:58:04.002Z</time></trkpt><trkpt lat="42.38084442962625" lon="8.682841120863344"><ele>188.0</ele><time>2026-05-01T13:58:05.002Z</time></trkpt><trkpt lat="42.380725411737274" lon="8.682881512230137"><ele>188.0</ele><time>2026-05-01T13:58:06.002Z</time></trkpt><trkpt lat="42.38061256250284" lon="8.682957153796393"><ele>188.0</ele><time>2026-05-01T13:58:07.002Z</time></trkpt><trkpt lat="42.380502704438996" lon="8.683068309433217"><ele>188.0</ele><time>2026-05-01T13:58:08.002Z</time></trkpt><trkpt lat="42.38039931901668" lon="8.683161951890389"><ele>187.2</ele><time>2026-05-01T13:58:09.002Z</time></trkpt><trkpt lat="42.38030017634831" lon="8.683226668612264"><ele>186.4</ele><time>2026-05-01T13:58:10.002Z</time></trkpt><trkpt lat="42.38020470012836" lon="8.683187683145423"><ele>185.6</ele><time>2026-05-01T13:58:11.002Z</time></trkpt><trkpt lat="42.38013642688848" lon="8.683104082469864"><ele>184.79999999999998</ele><time>2026-05-01T13:58:12.002Z</time></trkpt><trkpt lat="42.38007570376078" lon="8.682957847851656"><ele>184.0</ele><time>2026-05-01T13:58:13.002Z</time></trkpt><trkpt lat="42.38003930471743" lon="8.682752197070531"><ele>184.0</ele><time>2026-05-01T13:58:14.002Z</time></trkpt><trkpt lat="42.379989888578734" lon="8.682562768458112"><ele>184.0</ele><time>2026-05-01T13:58:15.002Z</time></trkpt><trkpt lat="42.37993329162807" lon="8.682417227918094"><ele>184.0</ele><time>2026-05-01T13:58:16.002Z</time></trkpt><trkpt lat="42.37983655976702" lon="8.682329046575303"><ele>184.0</ele><time>2026-05-01T13:58:17.002Z</time></trkpt><trkpt lat="42.37972118550451" lon="8.682295818119771"><ele>188.75</ele><time>2026-05-01T13:58:18.002Z</time></trkpt><trkpt lat="42.37958793452339" lon="8.68229236077114"><ele>193.5</ele><time>2026-05-01T13:58:19.002Z</time></trkpt><trkpt lat="42.37944222526435" lon="8.682252437156361"><ele>198.25</ele><time>2026-05-01T13:58:20.002Z</time></trkpt><trkpt lat="42.37929795845729" lon="8.68222995121994"><ele>203.0</ele><time>2026-05-01T13:58:21.002Z</time></trkpt><trkpt lat="42.37917863395774" lon="8.682208387067183"><ele>203.0</ele><time>2026-05-01T13:58:22.002Z</time></trkpt><trkpt lat="42.37908585357605" lon="8.682155709539911"><ele>203.0</ele><time>2026-05-01T13:58:23.002Z</time></trkpt><trkpt lat="42.37901626786898" lon="8.6820854802848"><ele>203.0</ele><time>2026-05-01T13:58:24.003Z</time></trkpt><trkpt lat="42.37901378396428" lon="8.681970940344618"><ele>203.0</ele><time>2026-05-01T13:58:25.003Z</time></trkpt><trkpt lat="42.37908608535362" lon="8.681848616016726"><ele>203.0</ele><time>2026-05-01T13:58:26.003Z</time></trkpt><trkpt lat="42.379170449733564" lon="8.681684460124831"><ele>202.66666666666669</ele><time>2026-05-01T13:58:27.003Z</time></trkpt><trkpt lat="42.37930126567014" lon="8.68154760521925"><ele>202.33333333333331</ele><time>2026-05-01T13:58:28.003Z</time></trkpt><trkpt lat="42.379459673839385" lon="8.681442261386788"><ele>202.0</ele><time>2026-05-01T13:58:29.003Z</time></trkpt><trkpt lat="42.37962476773396" lon="8.68135842189823"><ele>200.0</ele><time>2026-05-01T13:58:30.003Z</time></trkpt><trkpt lat="42.379746515101026" lon="8.681256323372711"><ele>198.0</ele><time>2026-05-01T13:58:31.003Z</time></trkpt><trkpt lat="42.37983428227486" lon="8.681126017212675"><ele>196.0</ele><time>2026-05-01T13:58:32.003Z</time></trkpt><trkpt lat="42.379905686918775" lon="8.680983462902354"><ele>194.0</ele><time>2026-05-01T13:58:33.003Z</time></trkpt><trkpt lat="42.380028048837055" lon="8.68090941451719"><ele>194.0</ele><time>2026-05-01T13:58:34.003Z</time></trkpt><trkpt lat="42.38014663586427" lon="8.680807068364054"><ele>194.0</ele><time>2026-05-01T13:58:35.003Z</time></trkpt><trkpt lat="42.38024869922931" lon="8.680694067882419"><ele>194.0</ele><time>2026-05-01T13:58:36.003Z</time></trkpt><trkpt lat="42.380309258861764" lon="8.68054280645589"><ele>194.0</ele><time>2026-05-01T13:58:37.003Z</time></trkpt><trkpt lat="42.38037619916751" lon="8.680386019021862"><ele>194.0</ele><time>2026-05-01T13:58:38.003Z</time></trkpt><trkpt lat="42.38048625018601" lon="8.680332569545937"><ele>194.0</ele><time>2026-05-01T13:58:39.003Z</time></trkpt><trkpt lat="42.38057585904624" lon="8.680261093099281"><ele>194.0</ele><time>2026-05-01T13:58:40.003Z</time></trkpt><trkpt lat="42.38064721631249" lon="8.680173144969984"><ele>194.0</ele><time>2026-05-01T13:58:41.003Z</time></trkpt><trkpt lat="42.38068869202415" lon="8.680052531054077"><ele>194.0</ele><time>2026-05-01T13:58:42.003Z</time></trkpt><trkpt lat="42.38068053976945" lon="8.67991775754224"><ele>193.25</ele><time>2026-05-01T13:58:43.003Z</time></trkpt><trkpt lat="42.3806161336597" lon="8.679795355925961"><ele>192.5</ele><time>2026-05-01T13:58:44.003Z</time></trkpt><trkpt lat="42.38052398607814" lon="8.679670011148497"><ele>191.75</ele><time>2026-05-01T13:58:45.003Z</time></trkpt><trkpt lat="42.380428403684014" lon="8.679506267811561"><ele>191.0</ele><time>2026-05-01T13:58:46.003Z</time></trkpt><trkpt lat="42.3803617661033" lon="8.67931468015873"><ele>192.75</ele><time>2026-05-01T13:58:47.003Z</time></trkpt><trkpt lat="42.38030742767797" lon="8.679146675016295"><ele>194.5</ele><time>2026-05-01T13:58:47.998Z</time></trkpt><trkpt lat="42.38022139354852" lon="8.679038999545892"><ele>196.25</ele><time>2026-05-01T13:58:48.998Z</time></trkpt><trkpt lat="42.38009536620556" lon="8.678996236593528"><ele>198.0</ele><time>2026-05-01T13:58:49.998Z</time></trkpt><trkpt lat="42.37993272408512" lon="8.678996435676293"><ele>198.0</ele><time>2026-05-01T13:58:50.998Z</time></trkpt><trkpt lat="42.3797157762543" lon="8.679009684071344"><ele>198.0</ele><time>2026-05-01T13:58:51.998Z</time></trkpt><trkpt lat="42.379484434246436" lon="8.679029053289664"><ele>198.0</ele><time>2026-05-01T13:58:52.998Z</time></trkpt><trkpt lat="42.37927147754166" lon="8.678987476498182"><ele>200.33333333333331</ele><time>2026-05-01T13:58:53.998Z</time></trkpt><trkpt lat="42.37909091737068" lon="8.679030799103554"><ele>202.66666666666666</ele><time>2026-05-01T13:58:54.998Z</time></trkpt><trkpt lat="42.37892213697902" lon="8.679056933143592"><ele>205.0</ele><time>2026-05-01T13:58:55.999Z</time></trkpt><trkpt lat="42.37876643731333" lon="8.679049583912935"><ele>206.8</ele><time>2026-05-01T13:58:56.999Z</time></trkpt><trkpt lat="42.37862214212657" lon="8.679065200861997"><ele>208.6</ele><time>2026-05-01T13:58:57.999Z</time></trkpt><trkpt lat="42.37849527891748" lon="8.679099742163277"><ele>210.39999999999998</ele><time>2026-05-01T13:58:58.999Z</time></trkpt><trkpt lat="42.378404561765024" lon="8.67912004488868"><ele>212.2</ele><time>2026-05-01T13:58:59.999Z</time></trkpt><trkpt lat="42.378334129756404" lon="8.679113783047207"><ele>214.0</ele><time>2026-05-01T13:59:00.999Z</time></trkpt><trkpt lat="42.37827803090414" lon="8.679064001119789"><ele>214.0</ele><time>2026-05-01T13:59:01.999Z</time></trkpt><trkpt lat="42.37824653629017" lon="8.678930489385133"><ele>214.0</ele><time>2026-05-01T13:59:02.999Z</time></trkpt><trkpt lat="42.378272854020544" lon="8.678759809124092"><ele>214.0</ele><time>2026-05-01T13:59:03.999Z</time></trkpt><trkpt lat="42.37826929819289" lon="8.678575467246072"><ele>214.0</ele><time>2026-05-01T13:59:04.999Z</time></trkpt><trkpt lat="42.37822021935479" lon="8.678406972768638"><ele>212.25</ele><time>2026-05-01T13:59:05.999Z</time></trkpt><trkpt lat="42.37819022898258" lon="8.678263522699895"><ele>210.5</ele><time>2026-05-01T13:59:06.999Z</time></trkpt><trkpt lat="42.37820547889925" lon="8.678120726638618"><ele>208.75</ele><time>2026-05-01T13:59:07.999Z</time></trkpt><trkpt lat="42.3783114748662" lon="8.678027934795999"><ele>207.0</ele><time>2026-05-01T13:59:09Z</time></trkpt><trkpt lat="42.37841796523495" lon="8.677880365598211"><ele>208.5</ele><time>2026-05-01T13:59:10Z</time></trkpt><trkpt lat="42.37850104862172" lon="8.677714726204718"><ele>210.0</ele><time>2026-05-01T13:59:11Z</time></trkpt><trkpt lat="42.37855183592494" lon="8.677522424360474"><ele>211.5</ele><time>2026-05-01T13:59:12Z</time></trkpt><trkpt lat="42.37858761474726" lon="8.677353399800378"><ele>213.0</ele><time>2026-05-01T13:59:13Z</time></trkpt><trkpt lat="42.37860206618582" lon="8.677191918929493"><ele>213.0</ele><time>2026-05-01T13:59:14Z</time></trkpt><trkpt lat="42.37857081326507" lon="8.677020613882961"><ele>213.0</ele><time>2026-05-01T13:59:15Z</time></trkpt><trkpt lat="42.37850307496568" lon="8.676853237091619"><ele>213.0</ele><time>2026-05-01T13:59:16Z</time></trkpt><trkpt lat="42.3784219579764" lon="8.676699056879029"><ele>213.0</ele><time>2026-05-01T13:59:17Z</time></trkpt><trkpt lat="42.378326976479585" lon="8.676590597750264"><ele>211.2</ele><time>2026-05-01T13:59:18Z</time></trkpt><trkpt lat="42.37822965264845" lon="8.676550089495873"><ele>209.4</ele><time>2026-05-01T13:59:19Z</time></trkpt><trkpt lat="42.378139611944164" lon="8.676561903188045"><ele>207.6</ele><time>2026-05-01T13:59:20Z</time></trkpt><trkpt lat="42.378060406735514" lon="8.676643378826572"><ele>205.79999999999998</ele><time>2026-05-01T13:59:21Z</time></trkpt><trkpt lat="42.377980600467396" lon="8.676757151253398"><ele>204.0</ele><time>2026-05-01T13:59:22Z</time></trkpt><trkpt lat="42.3778676367775" lon="8.67688591307001"><ele>208.25</ele><time>2026-05-01T13:59:23Z</time></trkpt><trkpt lat="42.377775141429616" lon="8.67702716229415"><ele>212.5</ele><time>2026-05-01T13:59:24Z</time></trkpt><trkpt lat="42.377735947794626" lon="8.677174666005628"><ele>216.75</ele><time>2026-05-01T13:59:25Z</time></trkpt><trkpt lat="42.37767461280715" lon="8.67728564019313"><ele>221.0</ele><time>2026-05-01T13:59:26Z</time></trkpt><trkpt lat="42.37757239327666" lon="8.677300396191248"><ele>221.0</ele><time>2026-05-01T13:59:27.001Z</time></trkpt><trkpt lat="42.377469056994585" lon="8.677245239005295"><ele>221.0</ele><time>2026-05-01T13:59:28.001Z</time></trkpt><trkpt lat="42.37732801402183" lon="8.677138452475653"><ele>221.0</ele><time>2026-05-01T13:59:29.001Z</time></trkpt><trkpt lat="42.37716095052776" lon="8.67704276874483"><ele>222.75</ele><time>2026-05-01T13:59:30.001Z</time></trkpt><trkpt lat="42.37701591732215" lon="8.676969787988927"><ele>224.5</ele><time>2026-05-01T13:59:31.001Z</time></trkpt><trkpt lat="42.37687725903396" lon="8.676961571729628"><ele>226.25</ele><time>2026-05-01T13:59:32.001Z</time></trkpt><trkpt lat="42.376731445944024" lon="8.67700306877705"><ele>228.0</ele><time>2026-05-01T13:59:33.001Z</time></trkpt><trkpt lat="42.37658501394218" lon="8.677073432807456"><ele>228.0</ele><time>2026-05-01T13:59:34.001Z</time></trkpt><trkpt lat="42.376452438822845" lon="8.677151187483771"><ele>228.0</ele><time>2026-05-01T13:59:35.001Z</time></trkpt><trkpt lat="42.376336305316535" lon="8.67722023832926"><ele>228.0</ele><time>2026-05-01T13:59:36.001Z</time></trkpt><trkpt lat="42.3762441531692" lon="8.677296573635028"><ele>228.0</ele><time>2026-05-01T13:59:37.001Z</time></trkpt><trkpt lat="42.376207132731416" lon="8.677473445042418"><ele>230.25</ele><time>2026-05-01T13:59:38.001Z</time></trkpt><trkpt lat="42.37615895721243" lon="8.67763832708819"><ele>232.5</ele><time>2026-05-01T13:59:39.001Z</time></trkpt><trkpt lat="42.37606173717677" lon="8.67771288635732"><ele>234.75</ele><time>2026-05-01T13:59:40.001Z</time></trkpt><trkpt lat="42.37592071374117" lon="8.677771412348724"><ele>237.0</ele><time>2026-05-01T13:59:41.001Z</time></trkpt><trkpt lat="42.37573170305063" lon="8.677883837622554"><ele>237.0</ele><time>2026-05-01T13:59:42.001Z</time></trkpt><trkpt lat="42.37558096309019" lon="8.678048475691597"><ele>237.0</ele><time>2026-05-01T13:59:43.001Z</time></trkpt><trkpt lat="42.37543256767882" lon="8.678161814679468"><ele>237.0</ele><time>2026-05-01T13:59:44.001Z</time></trkpt><trkpt lat="42.375325526028654" lon="8.678254123656187"><ele>237.0</ele><time>2026-05-01T13:59:45.001Z</time></trkpt><trkpt lat="42.37524993510502" lon="8.678307060966183"><ele>237.0</ele><time>2026-05-01T13:59:46.001Z</time></trkpt><trkpt lat="42.37513254325228" lon="8.678267144317273"><ele>237.0</ele><time>2026-05-01T13:59:48.001Z</time></trkpt><trkpt lat="42.37508803508353" lon="8.678188647689232"><ele>237.0</ele><time>2026-05-01T13:59:49.001Z</time></trkpt><trkpt lat="42.37507673730512" lon="8.678027313846561"><ele>237.0</ele><time>2026-05-01T13:59:50.001Z</time></trkpt><trkpt lat="42.37510589795697" lon="8.677799196625516"><ele>234.33333333333331</ele><time>2026-05-01T13:59:51.001Z</time></trkpt><trkpt lat="42.37507955756995" lon="8.677536695943239"><ele>231.66666666666666</ele><time>2026-05-01T13:59:52.001Z</time></trkpt><trkpt lat="42.375043533703646" lon="8.677264075202535"><ele>229.0</ele><time>2026-05-01T13:59:53.001Z</time></trkpt><trkpt lat="42.37499209028191" lon="8.677021575797038"><ele>226.0</ele><time>2026-05-01T13:59:54.001Z</time></trkpt><trkpt lat="42.37495125881867" lon="8.676836660067051"><ele>223.0</ele><time>2026-05-01T13:59:55.002Z</time></trkpt><trkpt lat="42.37492045791141" lon="8.676684158706164"><ele>220.0</ele><time>2026-05-01T13:59:56.002Z</time></trkpt><trkpt lat="42.37486801430593" lon="8.67657009790484"><ele>217.0</ele><time>2026-05-01T13:59:57.002Z</time></trkpt><trkpt lat="42.37476965788402" lon="8.676490401462328"><ele>225.66666666666666</ele><time>2026-05-01T13:59:58.002Z</time></trkpt><trkpt lat="42.37459434889434" lon="8.676450789578512"><ele>234.33333333333331</ele><time>2026-05-01T13:59:59.002Z</time></trkpt><trkpt lat="42.374383455896634" lon="8.676403911625227"><ele>243.0</ele><time>2026-05-01T14:00:00.002Z</time></trkpt><trkpt lat="42.37417335195516" lon="8.676246190552963"><ele>243.0</ele><time>2026-05-01T14:00:01.002Z</time></trkpt><trkpt lat="42.37397335952703" lon="8.67613138462137"><ele>243.0</ele><time>2026-05-01T14:00:02.002Z</time></trkpt><trkpt lat="42.37381990543022" lon="8.676084845472355"><ele>243.0</ele><time>2026-05-01T14:00:03.002Z</time></trkpt><trkpt lat="42.37368448670348" lon="8.67604032681162"><ele>241.33333333333331</ele><time>2026-05-01T14:00:04.002Z</time></trkpt><trkpt lat="42.373530614671076" lon="8.676052271527277"><ele>239.66666666666666</ele><time>2026-05-01T14:00:05.002Z</time></trkpt><trkpt lat="42.37334374472449" lon="8.675975122815203"><ele>238.0</ele><time>2026-05-01T14:00:06.002Z</time></trkpt><trkpt lat="42.37320921415553" lon="8.675902678942188"><ele>238.0</ele><time>2026-05-01T14:00:07.002Z</time></trkpt><trkpt lat="42.37312897730974" lon="8.675830048418918"><ele>238.0</ele><time>2026-05-01T14:00:08.002Z</time></trkpt><trkpt lat="42.37314896432283" lon="8.675670835394634"><ele>238.0</ele><time>2026-05-01T14:00:09.002Z</time></trkpt><trkpt lat="42.37323179254312" lon="8.675500945305918"><ele>238.0</ele><time>2026-05-01T14:00:10.002Z</time></trkpt><trkpt lat="42.37331573314935" lon="8.675326172438382"><ele>238.0</ele><time>2026-05-01T14:00:11.002Z</time></trkpt><trkpt lat="42.37347233414603" lon="8.675336731315742"><ele>238.0</ele><time>2026-05-01T14:00:12.002Z</time></trkpt><trkpt lat="42.37362651702903" lon="8.675238528699"><ele>238.0</ele><time>2026-05-01T14:00:13.002Z</time></trkpt><trkpt lat="42.37379737252429" lon="8.675114183496959"><ele>239.75</ele><time>2026-05-01T14:00:14.002Z</time></trkpt><trkpt lat="42.37391155284026" lon="8.67494993400672"><ele>241.5</ele><time>2026-05-01T14:00:15.002Z</time></trkpt><trkpt lat="42.37392650855371" lon="8.67478585103374"><ele>243.25</ele><time>2026-05-01T14:00:16.002Z</time></trkpt><trkpt lat="42.373902635530996" lon="8.674571627333986"><ele>245.0</ele><time>2026-05-01T14:00:17.002Z</time></trkpt><trkpt lat="42.37389390935833" lon="8.674341948969301"><ele>245.0</ele><time>2026-05-01T14:00:18.002Z</time></trkpt><trkpt lat="42.37397520102181" lon="8.674199891575867"><ele>245.0</ele><time>2026-05-01T14:00:19.002Z</time></trkpt><trkpt lat="42.37409696476354" lon="8.674178100930485"><ele>245.0</ele><time>2026-05-01T14:00:20.002Z</time></trkpt><trkpt lat="42.37422713408334" lon="8.674190673336549"><ele>245.0</ele><time>2026-05-01T14:00:21.002Z</time></trkpt><trkpt lat="42.37439548303599" lon="8.674201512361526"><ele>245.0</ele><time>2026-05-01T14:00:22.002Z</time></trkpt><trkpt lat="42.37457466652288" lon="8.674212305034889"><ele>245.0</ele><time>2026-05-01T14:00:23.002Z</time></trkpt><trkpt lat="42.37471411908961" lon="8.67414011762756"><ele>245.0</ele><time>2026-05-01T14:00:24.002Z</time></trkpt><trkpt lat="42.37485705634913" lon="8.673971440218079"><ele>239.5</ele><time>2026-05-01T14:00:25.002Z</time></trkpt><trkpt lat="42.37505385751375" lon="8.673804711673176"><ele>234.0</ele><time>2026-05-01T14:00:26.002Z</time></trkpt><trkpt lat="42.375272968396196" lon="8.673743529134521"><ele>234.0</ele><time>2026-05-01T14:00:27.003Z</time></trkpt><trkpt lat="42.37540023376613" lon="8.673665901983421"><ele>234.0</ele><time>2026-05-01T14:00:28.003Z</time></trkpt><trkpt lat="42.37547387519257" lon="8.673588652832473"><ele>234.0</ele><time>2026-05-01T14:00:29.003Z</time></trkpt><trkpt lat="42.37546373315442" lon="8.67345477542828"><ele>234.0</ele><time>2026-05-01T14:00:30.003Z</time></trkpt><trkpt lat="42.37546451750393" lon="8.673248692280756"><ele>234.0</ele><time>2026-05-01T14:00:31.003Z</time></trkpt><trkpt lat="42.37556940006086" lon="8.673061492137654"><ele>234.0</ele><time>2026-05-01T14:00:32.003Z</time></trkpt><trkpt lat="42.37568791332408" lon="8.67289987530632"><ele>234.0</ele><time>2026-05-01T14:00:33.003Z</time></trkpt><trkpt lat="42.375766948417" lon="8.672768923014027"><ele>234.0</ele><time>2026-05-01T14:00:34.003Z</time></trkpt><trkpt lat="42.3757738987802" lon="8.67263888524553"><ele>234.0</ele><time>2026-05-01T14:00:35.003Z</time></trkpt><trkpt lat="42.37568521917689" lon="8.67251108783573"><ele>234.0</ele><time>2026-05-01T14:00:36.003Z</time></trkpt><trkpt lat="42.375583708910554" lon="8.672368634361273"><ele>234.0</ele><time>2026-05-01T14:00:37.003Z</time></trkpt><trkpt lat="42.375473457633845" lon="8.67222568980705"><ele>237.33333333333331</ele><time>2026-05-01T14:00:38.003Z</time></trkpt><trkpt lat="42.375354813558964" lon="8.672092243261057"><ele>240.66666666666666</ele><time>2026-05-01T14:00:39.003Z</time></trkpt><trkpt lat="42.37522274990421" lon="8.671963865986285"><ele>244.0</ele><time>2026-05-01T14:00:40.003Z</time></trkpt><trkpt lat="42.375039442283246" lon="8.671851248078989"><ele>244.0</ele><time>2026-05-01T14:00:41.003Z</time></trkpt><trkpt lat="42.37480307289366" lon="8.671719778848372"><ele>244.0</ele><time>2026-05-01T14:00:42.003Z</time></trkpt><trkpt lat="42.37455127609748" lon="8.671585964993929"><ele>257.0</ele><time>2026-05-01T14:00:43.003Z</time></trkpt><trkpt lat="42.37428275448735" lon="8.671443584359691"><ele>270.0</ele><time>2026-05-01T14:00:44.003Z</time></trkpt><trkpt lat="42.374035516197715" lon="8.67129847328976"><ele>270.0</ele><time>2026-05-01T14:00:45.003Z</time></trkpt><trkpt lat="42.3738561356969" lon="8.671129851813745"><ele>270.0</ele><time>2026-05-01T14:00:46.003Z</time></trkpt><trkpt lat="42.37376036443531" lon="8.670963854716666"><ele>270.0</ele><time>2026-05-01T14:00:47.003Z</time></trkpt><trkpt lat="42.37372388335327" lon="8.670790425338051"><ele>268.6666666666667</ele><time>2026-05-01T14:00:48.003Z</time></trkpt><trkpt lat="42.373706593325224" lon="8.670556393257577"><ele>267.33333333333337</ele><time>2026-05-01T14:00:49.003Z</time></trkpt><trkpt lat="42.373652273192405" lon="8.670306021756826"><ele>266.0</ele><time>2026-05-01T14:00:50.003Z</time></trkpt><trkpt lat="42.373567225780754" lon="8.670111940858217"><ele>266.0</ele><time>2026-05-01T14:00:51.003Z</time></trkpt><trkpt lat="42.37346162723289" lon="8.669967989875618"><ele>266.0</ele><time>2026-05-01T14:00:52.003Z</time></trkpt><trkpt lat="42.3733201825404" lon="8.669846653729918"><ele>266.0</ele><time>2026-05-01T14:00:53.003Z</time></trkpt><trkpt lat="42.37314361112842" lon="8.669711562643345"><ele>266.5</ele><time>2026-05-01T14:00:53.998Z</time></trkpt><trkpt lat="42.37291136666121" lon="8.669597381647456"><ele>267.0</ele><time>2026-05-01T14:00:54.998Z</time></trkpt><trkpt lat="42.372696065208494" lon="8.669437205142575"><ele>267.0</ele><time>2026-05-01T14:00:55.998Z</time></trkpt><trkpt lat="42.372499270198304" lon="8.669179112013607"><ele>267.0</ele><time>2026-05-01T14:00:56.998Z</time></trkpt><trkpt lat="42.37234458340773" lon="8.668977950498356"><ele>267.0</ele><time>2026-05-01T14:00:57.998Z</time></trkpt><trkpt lat="42.37221400438533" lon="8.66887956942833"><ele>267.0</ele><time>2026-05-01T14:00:58.999Z</time></trkpt><trkpt lat="42.372090435811224" lon="8.668871334894542"><ele>267.0</ele><time>2026-05-01T14:00:59.999Z</time></trkpt><trkpt lat="42.371943015829416" lon="8.66894925366027"><ele>267.0</ele><time>2026-05-01T14:01:00.999Z</time></trkpt><trkpt lat="42.371774661496694" lon="8.669111521632223"><ele>270.0</ele><time>2026-05-01T14:01:01.999Z</time></trkpt><trkpt lat="42.37158144957947" lon="8.669309986605999"><ele>273.0</ele><time>2026-05-01T14:01:02.999Z</time></trkpt><trkpt lat="42.37135904433363" lon="8.669437965733147"><ele>276.5</ele><time>2026-05-01T14:01:03.999Z</time></trkpt><trkpt lat="42.37112768538755" lon="8.66962047209659"><ele>280.0</ele><time>2026-05-01T14:01:04.999Z</time></trkpt><trkpt lat="42.37090892319397" lon="8.669801700051899"><ele>280.0</ele><time>2026-05-01T14:01:05.999Z</time></trkpt><trkpt lat="42.37076403577045" lon="8.669933983259684"><ele>280.0</ele><time>2026-05-01T14:01:06.999Z</time></trkpt><trkpt lat="42.37068582122966" lon="8.670049367194085"><ele>280.0</ele><time>2026-05-01T14:01:07.999Z</time></trkpt><trkpt lat="42.37064768495202" lon="8.670184500303904"><ele>280.0</ele><time>2026-05-01T14:01:08.999Z</time></trkpt><trkpt lat="42.370641065265325" lon="8.670382731410308"><ele>281.75</ele><time>2026-05-01T14:01:09.999Z</time></trkpt><trkpt lat="42.37060633428847" lon="8.67052710093718"><ele>283.5</ele><time>2026-05-01T14:01:10.999Z</time></trkpt><trkpt lat="42.370530220017926" lon="8.670591040593619"><ele>285.25</ele><time>2026-05-01T14:01:11.999Z</time></trkpt><trkpt lat="42.37041452971931" lon="8.670519791240544"><ele>287.0</ele><time>2026-05-01T14:01:12.999Z</time></trkpt><trkpt lat="42.37025363783002" lon="8.670500809426564"><ele>287.0</ele><time>2026-05-01T14:01:14Z</time></trkpt><trkpt lat="42.37010550248065" lon="8.670513927263821"><ele>287.0</ele><time>2026-05-01T14:01:15Z</time></trkpt><trkpt lat="42.36997158252043" lon="8.670601239755637"><ele>287.0</ele><time>2026-05-01T14:01:16Z</time></trkpt><trkpt lat="42.36986378573113" lon="8.67078196499256"><ele>287.0</ele><time>2026-05-01T14:01:17Z</time></trkpt><trkpt lat="42.36974602182695" lon="8.670960581316178"><ele>287.0</ele><time>2026-05-01T14:01:18Z</time></trkpt><trkpt lat="42.36960429221195" lon="8.67104426150813"><ele>287.0</ele><time>2026-05-01T14:01:19Z</time></trkpt><trkpt lat="42.369450154733876" lon="8.671055992732034"><ele>289.6666666666667</ele><time>2026-05-01T14:01:20Z</time></trkpt><trkpt lat="42.36932697769761" lon="8.671149961054775"><ele>292.3333333333333</ele><time>2026-05-01T14:01:21Z</time></trkpt><trkpt lat="42.36918862824393" lon="8.671310507806657"><ele>295.0</ele><time>2026-05-01T14:01:22Z</time></trkpt><trkpt lat="42.36904452556166" lon="8.671522086821907"><ele>295.0</ele><time>2026-05-01T14:01:23Z</time></trkpt><trkpt lat="42.3689011675722" lon="8.671755228016742"><ele>295.0</ele><time>2026-05-01T14:01:24Z</time></trkpt><trkpt lat="42.36871889969317" lon="8.671929742361216"><ele>295.0</ele><time>2026-05-01T14:01:25Z</time></trkpt><trkpt lat="42.36850873492225" lon="8.672094302224334"><ele>298.66666666666663</ele><time>2026-05-01T14:01:26Z</time></trkpt><trkpt lat="42.36831308231342" lon="8.672217239429324"><ele>302.3333333333333</ele><time>2026-05-01T14:01:27Z</time></trkpt><trkpt lat="42.36817505145454" lon="8.672292743303986"><ele>306.0</ele><time>2026-05-01T14:01:28Z</time></trkpt><trkpt lat="42.36808085276342" lon="8.672294746183463"><ele>307.5</ele><time>2026-05-01T14:01:29Z</time></trkpt><trkpt lat="42.36799854413363" lon="8.672253095692085"><ele>309.0</ele><time>2026-05-01T14:01:30Z</time></trkpt><trkpt lat="42.367920636511265" lon="8.672153537803682"><ele>310.5</ele><time>2026-05-01T14:01:31Z</time></trkpt><trkpt lat="42.367916101635295" lon="8.671974295257437"><ele>312.0</ele><time>2026-05-01T14:01:32Z</time></trkpt><trkpt lat="42.36795252876513" lon="8.671810589975951"><ele>307.0</ele><time>2026-05-01T14:01:33.001Z</time></trkpt><trkpt lat="42.36805445396557" lon="8.671714046264809"><ele>302.0</ele><time>2026-05-01T14:01:34.001Z</time></trkpt><trkpt lat="42.36819187414448" lon="8.671602712078258"><ele>297.0</ele><time>2026-05-01T14:01:35.001Z</time></trkpt><trkpt lat="42.36829242580037" lon="8.671445414132501"><ele>292.0</ele><time>2026-05-01T14:01:36.001Z</time></trkpt><trkpt lat="42.36832567369165" lon="8.671231539129858"><ele>294.3333333333333</ele><time>2026-05-01T14:01:37.001Z</time></trkpt><trkpt lat="42.36833945608878" lon="8.670983613920166"><ele>296.6666666666667</ele><time>2026-05-01T14:01:38.001Z</time></trkpt><trkpt lat="42.3683785239935" lon="8.670769605372707"><ele>299.0</ele><time>2026-05-01T14:01:39.001Z</time></trkpt><trkpt lat="42.368371916167426" lon="8.670630360192632"><ele>299.0</ele><time>2026-05-01T14:01:40.001Z</time></trkpt><trkpt lat="42.36830479310928" lon="8.670492227013073"><ele>299.0</ele><time>2026-05-01T14:01:41.001Z</time></trkpt><trkpt lat="42.36826069642812" lon="8.670317977461579"><ele>299.0</ele><time>2026-05-01T14:01:42.001Z</time></trkpt><trkpt lat="42.36832649881913" lon="8.6701669746541"><ele>299.0</ele><time>2026-05-01T14:01:43.001Z</time></trkpt><trkpt lat="42.36844846793026" lon="8.67003674544602"><ele>302.6666666666667</ele><time>2026-05-01T14:01:44.001Z</time></trkpt><trkpt lat="42.36858682426827" lon="8.66985610552438"><ele>306.3333333333333</ele><time>2026-05-01T14:01:45.001Z</time></trkpt><trkpt lat="42.368703983085496" lon="8.669615031338795"><ele>310.0</ele><time>2026-05-01T14:01:46.001Z</time></trkpt><trkpt lat="42.3687727424756" lon="8.66930815175716"><ele>316.0</ele><time>2026-05-01T14:01:47.001Z</time></trkpt><trkpt lat="42.36881277556135" lon="8.669052928688425"><ele>322.0</ele><time>2026-05-01T14:01:48.001Z</time></trkpt><trkpt lat="42.36880425462362" lon="8.668803351358633"><ele>328.0</ele><time>2026-05-01T14:01:49.001Z</time></trkpt><trkpt lat="42.368802447946024" lon="8.668566422863208"><ele>332.66666666666663</ele><time>2026-05-01T14:01:50.001Z</time></trkpt><trkpt lat="42.36884701654377" lon="8.668356614689044"><ele>337.3333333333333</ele><time>2026-05-01T14:01:51.001Z</time></trkpt><trkpt lat="42.36889969822432" lon="8.668126101146008"><ele>342.0</ele><time>2026-05-01T14:01:52.001Z</time></trkpt><trkpt lat="42.36893480616571" lon="8.667882253651557"><ele>325.6666666666667</ele><time>2026-05-01T14:01:53.001Z</time></trkpt><trkpt lat="42.36896456505009" lon="8.667636217965695"><ele>309.33333333333337</ele><time>2026-05-01T14:01:54.001Z</time></trkpt><trkpt lat="42.36899464562891" lon="8.667432896699125"><ele>293.0</ele><time>2026-05-01T14:01:55.001Z</time></trkpt><trkpt lat="42.36899262505431" lon="8.667260999109148"><ele>293.0</ele><time>2026-05-01T14:01:56.001Z</time></trkpt><trkpt lat="42.368944524363506" lon="8.6671088288084"><ele>293.0</ele><time>2026-05-01T14:01:57.001Z</time></trkpt><trkpt lat="42.36887649843616" lon="8.66698836086962"><ele>293.0</ele><time>2026-05-01T14:01:58.001Z</time></trkpt><trkpt lat="42.36881715013206" lon="8.666879290716501"><ele>293.0</ele><time>2026-05-01T14:01:59.001Z</time></trkpt><trkpt lat="42.368779534228786" lon="8.666766636388537"><ele>293.0</ele><time>2026-05-01T14:02:00.001Z</time></trkpt><trkpt lat="42.368771480277275" lon="8.666639409633996"><ele>294.0</ele><time>2026-05-01T14:02:01.002Z</time></trkpt><trkpt lat="42.36884127462329" lon="8.66653553075986"><ele>295.0</ele><time>2026-05-01T14:02:02.002Z</time></trkpt><trkpt lat="42.36893957191284" lon="8.666474144613122"><ele>296.0</ele><time>2026-05-01T14:02:03.002Z</time></trkpt><trkpt lat="42.3690144544864" lon="8.666378708889232"><ele>297.0</ele><time>2026-05-01T14:02:04.002Z</time></trkpt><trkpt lat="42.36911257081305" lon="8.666308220308904"><ele>298.0</ele><time>2026-05-01T14:02:05.002Z</time></trkpt><trkpt lat="42.36921227560236" lon="8.666228157160152"><ele>298.0</ele><time>2026-05-01T14:02:06.002Z</time></trkpt><trkpt lat="42.36931149617396" lon="8.666144857641905"><ele>298.0</ele><time>2026-05-01T14:02:07.002Z</time></trkpt><trkpt lat="42.36939510428557" lon="8.666069276331328"><ele>298.0</ele><time>2026-05-01T14:02:08.002Z</time></trkpt><trkpt lat="42.36945825643865" lon="8.665984434464574"><ele>298.0</ele><time>2026-05-01T14:02:09.002Z</time></trkpt><trkpt lat="42.369501257157175" lon="8.665892923163602"><ele>298.0</ele><time>2026-05-01T14:02:10.002Z</time></trkpt><trkpt lat="42.36952957121425" lon="8.665767714804929"><ele>298.66666666666663</ele><time>2026-05-01T14:02:12.002Z</time></trkpt><trkpt lat="42.369522226616894" lon="8.665673417077628"><ele>299.3333333333333</ele><time>2026-05-01T14:02:15.002Z</time></trkpt><trkpt lat="42.3694623066509" lon="8.665564923775642"><ele>300.0</ele><time>2026-05-01T14:03:05.999Z</time></trkpt><trkpt lat="42.369425932566266" lon="8.665493507390234"><ele>300.6666666666667</ele><time>2026-05-01T14:03:06.999Z</time></trkpt><trkpt lat="42.36937446333064" lon="8.665411051271633"><ele>301.33333333333337</ele><time>2026-05-01T14:03:07.999Z</time></trkpt><trkpt lat="42.3693121018135" lon="8.665327309193149"><ele>302.0</ele><time>2026-05-01T14:03:08.999Z</time></trkpt><trkpt lat="42.36923853611103" lon="8.665255271803758"><ele>302.0</ele><time>2026-05-01T14:03:09.999Z</time></trkpt><trkpt lat="42.369158761845576" lon="8.6651850066002"><ele>302.0</ele><time>2026-05-01T14:03:10.999Z</time></trkpt><trkpt lat="42.36907245408941" lon="8.665109966127204"><ele>302.0</ele><time>2026-05-01T14:03:11.999Z</time></trkpt><trkpt lat="42.36898146492875" lon="8.665039012258337"><ele>302.0</ele><time>2026-05-01T14:03:12.999Z</time></trkpt><trkpt lat="42.36888273332831" lon="8.664972553800787"><ele>302.0</ele><time>2026-05-01T14:03:13.999Z</time></trkpt><trkpt lat="42.36878819443864" lon="8.664917667298008"><ele>306.6</ele><time>2026-05-01T14:03:14.999Z</time></trkpt><trkpt lat="42.36868535841987" lon="8.664867608357543"><ele>311.2</ele><time>2026-05-01T14:03:15.999Z</time></trkpt><trkpt lat="42.36857827391879" lon="8.664818714585012"><ele>315.8</ele><time>2026-05-01T14:03:16.999Z</time></trkpt><trkpt lat="42.36847259294858" lon="8.664767859481257"><ele>320.4</ele><time>2026-05-01T14:03:18Z</time></trkpt><trkpt lat="42.36837003937972" lon="8.6647174253967"><ele>325.0</ele><time>2026-05-01T14:03:19Z</time></trkpt><trkpt lat="42.36826519258316" lon="8.664656312804517"><ele>325.0</ele><time>2026-05-01T14:03:20Z</time></trkpt><trkpt lat="42.36815859979775" lon="8.664592417159184"><ele>325.0</ele><time>2026-05-01T14:03:21Z</time></trkpt><trkpt lat="42.368046433576026" lon="8.664533197705127"><ele>325.0</ele><time>2026-05-01T14:03:22Z</time></trkpt><trkpt lat="42.367931909700026" lon="8.664496143856235"><ele>325.0</ele><time>2026-05-01T14:03:23Z</time></trkpt><trkpt lat="42.36783097778777" lon="8.66449518853097"><ele>325.75</ele><time>2026-05-01T14:03:24Z</time></trkpt><trkpt lat="42.36772662252835" lon="8.664517808614237"><ele>326.5</ele><time>2026-05-01T14:03:25Z</time></trkpt><trkpt lat="42.36762572045663" lon="8.66457366793444"><ele>327.25</ele><time>2026-05-01T14:03:26Z</time></trkpt><trkpt lat="42.36753221491297" lon="8.664683309136835"><ele>328.0</ele><time>2026-05-01T14:03:27Z</time></trkpt><trkpt lat="42.3674418596315" lon="8.664817199408315"><ele>328.0</ele><time>2026-05-01T14:03:28Z</time></trkpt><trkpt lat="42.36733046409058" lon="8.664901322677826"><ele>328.0</ele><time>2026-05-01T14:03:29Z</time></trkpt><trkpt lat="42.36720699987545" lon="8.664916997645214"><ele>328.0</ele><time>2026-05-01T14:03:30Z</time></trkpt><trkpt lat="42.36707280115952" lon="8.664915880173702"><ele>328.0</ele><time>2026-05-01T14:03:31Z</time></trkpt><trkpt lat="42.366939169939826" lon="8.664851972580385"><ele>325.5</ele><time>2026-05-01T14:03:32Z</time></trkpt><trkpt lat="42.366798181426745" lon="8.664821419530474"><ele>323.0</ele><time>2026-05-01T14:03:33Z</time></trkpt><trkpt lat="42.36666912498614" lon="8.664822550953428"><ele>320.5</ele><time>2026-05-01T14:03:34Z</time></trkpt><trkpt lat="42.366568402709525" lon="8.66490165722958"><ele>318.0</ele><time>2026-05-01T14:03:35.001Z</time></trkpt><trkpt lat="42.36650805767516" lon="8.665026126922013"><ele>318.0</ele><time>2026-05-01T14:03:36.001Z</time></trkpt><trkpt lat="42.36645119462702" lon="8.665173783791662"><ele>318.0</ele><time>2026-05-01T14:03:37.001Z</time></trkpt><trkpt lat="42.36632937227996" lon="8.665230634135595"><ele>318.0</ele><time>2026-05-01T14:03:38.001Z</time></trkpt><trkpt lat="42.36618008149506" lon="8.665292622102012"><ele>318.0</ele><time>2026-05-01T14:03:39.001Z</time></trkpt><trkpt lat="42.366017879793205" lon="8.665348294285948"><ele>314.6666666666667</ele><time>2026-05-01T14:03:40.001Z</time></trkpt><trkpt lat="42.36588291417672" lon="8.665335778296237"><ele>311.33333333333337</ele><time>2026-05-01T14:03:41.001Z</time></trkpt><trkpt lat="42.36574818077115" lon="8.66523722902557"><ele>308.0</ele><time>2026-05-01T14:03:42.001Z</time></trkpt><trkpt lat="42.36558619886181" lon="8.665176157207677"><ele>312.0</ele><time>2026-05-01T14:03:43.001Z</time></trkpt><trkpt lat="42.36541424857321" lon="8.665210931880608"><ele>316.0</ele><time>2026-05-01T14:03:44.001Z</time></trkpt><trkpt lat="42.36523422241974" lon="8.665245888595981"><ele>320.0</ele><time>2026-05-01T14:03:45.001Z</time></trkpt><trkpt lat="42.3650792540731" lon="8.665167955226314"><ele>320.0</ele><time>2026-05-01T14:03:46.001Z</time></trkpt><trkpt lat="42.36493813963586" lon="8.665033635619972"><ele>320.0</ele><time>2026-05-01T14:03:47.001Z</time></trkpt><trkpt lat="42.36476133873672" lon="8.664954476706356"><ele>320.0</ele><time>2026-05-01T14:03:48.001Z</time></trkpt><trkpt lat="42.36460339132791" lon="8.66491156041165"><ele>323.0</ele><time>2026-05-01T14:03:49.001Z</time></trkpt><trkpt lat="42.36445888282813" lon="8.66495260068038"><ele>326.0</ele><time>2026-05-01T14:03:50.001Z</time></trkpt><trkpt lat="42.36433829541488" lon="8.665038390217608"><ele>329.0</ele><time>2026-05-01T14:03:51.001Z</time></trkpt><trkpt lat="42.36424708111517" lon="8.665031743102476"><ele>332.0</ele><time>2026-05-01T14:03:52.001Z</time></trkpt><trkpt lat="42.36419782524307" lon="8.6649738066503"><ele>335.0</ele><time>2026-05-01T14:03:53.001Z</time></trkpt><trkpt lat="42.36419957293295" lon="8.66484401906419"><ele>335.0</ele><time>2026-05-01T14:03:54.001Z</time></trkpt><trkpt lat="42.3642586688337" lon="8.664675874733453"><ele>335.0</ele><time>2026-05-01T14:03:55.001Z</time></trkpt><trkpt lat="42.36430345478141" lon="8.664443232391507"><ele>335.0</ele><time>2026-05-01T14:03:56.001Z</time></trkpt><trkpt lat="42.364387447528166" lon="8.6642205183694"><ele>338.0</ele><time>2026-05-01T14:03:57.001Z</time></trkpt><trkpt lat="42.36454763934368" lon="8.66406720497779"><ele>341.0</ele><time>2026-05-01T14:03:58.001Z</time></trkpt><trkpt lat="42.364685771366126" lon="8.663905890808785"><ele>344.0</ele><time>2026-05-01T14:03:59.001Z</time></trkpt><trkpt lat="42.36476232735315" lon="8.663771091991876"><ele>345.5</ele><time>2026-05-01T14:04:00.001Z</time></trkpt><trkpt lat="42.3647533359041" lon="8.663656101640672"><ele>347.0</ele><time>2026-05-01T14:04:01.001Z</time></trkpt><trkpt lat="42.36467466953298" lon="8.66352391459332"><ele>348.5</ele><time>2026-05-01T14:04:02.001Z</time></trkpt><trkpt lat="42.364560199794944" lon="8.663344061317206"><ele>350.0</ele><time>2026-05-01T14:04:03.001Z</time></trkpt><trkpt lat="42.36444446689422" lon="8.663140418758351"><ele>350.0</ele><time>2026-05-01T14:04:04.002Z</time></trkpt><trkpt lat="42.364319165322506" lon="8.662911285580531"><ele>350.0</ele><time>2026-05-01T14:04:05.002Z</time></trkpt><trkpt lat="42.364187015316865" lon="8.662687985456785"><ele>350.0</ele><time>2026-05-01T14:04:06.002Z</time></trkpt><trkpt lat="42.36407228472763" lon="8.662497620019208"><ele>348.0</ele><time>2026-05-01T14:04:07.002Z</time></trkpt><trkpt lat="42.36400874295956" lon="8.662344388780097"><ele>346.0</ele><time>2026-05-01T14:04:08.002Z</time></trkpt><trkpt lat="42.36401736767215" lon="8.662224431765749"><ele>344.0</ele><time>2026-05-01T14:04:09.002Z</time></trkpt><trkpt lat="42.3641084919848" lon="8.662142329593621"><ele>342.0</ele><time>2026-05-01T14:04:10.002Z</time></trkpt><trkpt lat="42.36423791991289" lon="8.662092382495583"><ele>342.0</ele><time>2026-05-01T14:04:11.002Z</time></trkpt><trkpt lat="42.36439850587171" lon="8.662004929215732"><ele>342.0</ele><time>2026-05-01T14:04:12.002Z</time></trkpt><trkpt lat="42.364557078414784" lon="8.661866528493471"><ele>342.0</ele><time>2026-05-01T14:04:13.002Z</time></trkpt><trkpt lat="42.36466967652826" lon="8.661683621699474"><ele>343.25</ele><time>2026-05-01T14:04:14.002Z</time></trkpt><trkpt lat="42.364783367723824" lon="8.661578528300055"><ele>344.5</ele><time>2026-05-01T14:04:15.002Z</time></trkpt><trkpt lat="42.3649032602549" lon="8.66160136566253"><ele>345.75</ele><time>2026-05-01T14:04:16.002Z</time></trkpt><trkpt lat="42.36500915917726" lon="8.66175914450709"><ele>347.0</ele><time>2026-05-01T14:04:17.002Z</time></trkpt><trkpt lat="42.365161475900855" lon="8.661829244167002"><ele>347.0</ele><time>2026-05-01T14:04:18.002Z</time></trkpt><trkpt lat="42.36533159411505" lon="8.66181945028434"><ele>347.0</ele><time>2026-05-01T14:04:19.002Z</time></trkpt><trkpt lat="42.36548883778356" lon="8.661718199801113"><ele>347.0</ele><time>2026-05-01T14:04:20.002Z</time></trkpt><trkpt lat="42.36558623481808" lon="8.661568516320632"><ele>347.0</ele><time>2026-05-01T14:04:21.002Z</time></trkpt><trkpt lat="42.365642012137705" lon="8.661369620344711"><ele>347.0</ele><time>2026-05-01T14:04:22.002Z</time></trkpt><trkpt lat="42.365679685063256" lon="8.66110526436024"><ele>347.0</ele><time>2026-05-01T14:04:23.002Z</time></trkpt><trkpt lat="42.36575438824027" lon="8.660835095608293"><ele>347.0</ele><time>2026-05-01T14:04:24.002Z</time></trkpt><trkpt lat="42.36589582442202" lon="8.660617928773961"><ele>347.0</ele><time>2026-05-01T14:04:25.002Z</time></trkpt><trkpt lat="42.366015462760984" lon="8.660440718438988"><ele>347.0</ele><time>2026-05-01T14:04:26.002Z</time></trkpt><trkpt lat="42.366108309001135" lon="8.660304087792342"><ele>349.5</ele><time>2026-05-01T14:04:27.002Z</time></trkpt><trkpt lat="42.366122691819655" lon="8.660158515279477"><ele>352.0</ele><time>2026-05-01T14:04:28.002Z</time></trkpt><trkpt lat="42.366053376493504" lon="8.660006837309563"><ele>354.5</ele><time>2026-05-01T14:04:29.002Z</time></trkpt><trkpt lat="42.36592789965802" lon="8.659858622641897"><ele>357.0</ele><time>2026-05-01T14:04:30.002Z</time></trkpt><trkpt lat="42.36578155587834" lon="8.65968815135592"><ele>357.0</ele><time>2026-05-01T14:04:31.002Z</time></trkpt><trkpt lat="42.365695020021946" lon="8.659462296353018"><ele>357.0</ele><time>2026-05-01T14:04:32.002Z</time></trkpt><trkpt lat="42.36567827921187" lon="8.659245845636677"><ele>357.0</ele><time>2026-05-01T14:04:33.002Z</time></trkpt><trkpt lat="42.365730304462296" lon="8.659011469763445"><ele>354.6666666666667</ele><time>2026-05-01T14:04:34.002Z</time></trkpt><trkpt lat="42.36575189462412" lon="8.658742800488543"><ele>352.33333333333337</ele><time>2026-05-01T14:04:35.002Z</time></trkpt><trkpt lat="42.36573500674515" lon="8.658472043760629"><ele>350.0</ele><time>2026-05-01T14:04:36.002Z</time></trkpt><trkpt lat="42.36565574006088" lon="8.658251474363226"><ele>362.33333333333337</ele><time>2026-05-01T14:04:37.002Z</time></trkpt><trkpt lat="42.365523480475645" lon="8.658063563399661"><ele>374.6666666666667</ele><time>2026-05-01T14:04:38.002Z</time></trkpt><trkpt lat="42.36536048089515" lon="8.657940457181267"><ele>387.0</ele><time>2026-05-01T14:04:39.003Z</time></trkpt><trkpt lat="42.36520341565986" lon="8.657871235154717"><ele>382.3333333333333</ele><time>2026-05-01T14:04:40.003Z</time></trkpt><trkpt lat="42.36507392166148" lon="8.657780213156096"><ele>377.66666666666663</ele><time>2026-05-01T14:04:41.003Z</time></trkpt><trkpt lat="42.365052054487116" lon="8.657572030318367"><ele>373.0</ele><time>2026-05-01T14:04:42.003Z</time></trkpt><trkpt lat="42.365009209175284" lon="8.657310426899974"><ele>373.0</ele><time>2026-05-01T14:04:43.003Z</time></trkpt><trkpt lat="42.36497403458018" lon="8.656996970248784"><ele>373.0</ele><time>2026-05-01T14:04:44.003Z</time></trkpt><trkpt lat="42.3649558572474" lon="8.656689621056922"><ele>371.0</ele><time>2026-05-01T14:04:45.003Z</time></trkpt><trkpt lat="42.36491632733821" lon="8.656473141396118"><ele>369.0</ele><time>2026-05-01T14:04:46.003Z</time></trkpt><trkpt lat="42.36482613452918" lon="8.656333695767067"><ele>367.0</ele><time>2026-05-01T14:04:47.003Z</time></trkpt><trkpt lat="42.36466233567971" lon="8.656222589490762"><ele>369.0</ele><time>2026-05-01T14:04:48.003Z</time></trkpt><trkpt lat="42.36445247453984" lon="8.656125409970763"><ele>371.0</ele><time>2026-05-01T14:04:49.003Z</time></trkpt><trkpt lat="42.364226103705725" lon="8.656060637199891"><ele>371.0</ele><time>2026-05-01T14:04:50.003Z</time></trkpt><trkpt lat="42.364010175527845" lon="8.65602215878297"><ele>371.0</ele><time>2026-05-01T14:04:51.003Z</time></trkpt><trkpt lat="42.36388775154979" lon="8.655951574474734"><ele>371.0</ele><time>2026-05-01T14:04:52.003Z</time></trkpt><trkpt lat="42.363818034991866" lon="8.655860414917063"><ele>371.0</ele><time>2026-05-01T14:04:53.003Z</time></trkpt><trkpt lat="42.36378334368615" lon="8.65570437233461"><ele>384.6666666666667</ele><time>2026-05-01T14:04:54.003Z</time></trkpt><trkpt lat="42.363819546807406" lon="8.655447842672187"><ele>398.33333333333337</ele><time>2026-05-01T14:04:55.003Z</time></trkpt><trkpt lat="42.36377818114466" lon="8.655190752217074"><ele>412.0</ele><time>2026-05-01T14:04:56.003Z</time></trkpt><trkpt lat="42.363766746721396" lon="8.654977775492371"><ele>397.0</ele><time>2026-05-01T14:04:57.003Z</time></trkpt><trkpt lat="42.363870581424344" lon="8.654791263350683"><ele>382.0</ele><time>2026-05-01T14:04:58.003Z</time></trkpt><trkpt lat="42.363960400599126" lon="8.654556445914178"><ele>367.0</ele><time>2026-05-01T14:04:59.003Z</time></trkpt><trkpt lat="42.36402026083514" lon="8.654346932992361"><ele>367.0</ele><time>2026-05-01T14:05:00.003Z</time></trkpt><trkpt lat="42.36401325852199" lon="8.654123809865524"><ele>367.0</ele><time>2026-05-01T14:05:01.003Z</time></trkpt><trkpt lat="42.36396323667795" lon="8.653886790102598"><ele>367.0</ele><time>2026-05-01T14:05:02.003Z</time></trkpt><trkpt lat="42.3638812591327" lon="8.653702372598172"><ele>380.66666666666663</ele><time>2026-05-01T14:05:03.003Z</time></trkpt><trkpt lat="42.363749680912" lon="8.653543940553304"><ele>394.3333333333333</ele><time>2026-05-01T14:05:04.003Z</time></trkpt><trkpt lat="42.363580869027984" lon="8.65341319402244"><ele>408.0</ele><time>2026-05-01T14:05:05.003Z</time></trkpt><trkpt lat="42.36346362362939" lon="8.653282539168123"><ele>408.0</ele><time>2026-05-01T14:05:05.998Z</time></trkpt><trkpt lat="42.36344359668191" lon="8.653122123067169"><ele>408.0</ele><time>2026-05-01T14:05:06.998Z</time></trkpt><trkpt lat="42.36350855681509" lon="8.65297098409251"><ele>408.0</ele><time>2026-05-01T14:05:07.998Z</time></trkpt><trkpt lat="42.3635615548023" lon="8.652767347794699"><ele>408.0</ele><time>2026-05-01T14:05:08.998Z</time></trkpt><trkpt lat="42.36369113432005" lon="8.652559232202874"><ele>409.33333333333337</ele><time>2026-05-01T14:05:09.999Z</time></trkpt><trkpt lat="42.363828346471266" lon="8.652354588186338"><ele>410.6666666666667</ele><time>2026-05-01T14:05:10.999Z</time></trkpt><trkpt lat="42.363899290912116" lon="8.652159398756831"><ele>412.0</ele><time>2026-05-01T14:05:11.999Z</time></trkpt><trkpt lat="42.363898975932806" lon="8.651970857011685"><ele>413.0</ele><time>2026-05-01T14:05:12.999Z</time></trkpt><trkpt lat="42.36383146807828" lon="8.65176807456917"><ele>414.0</ele><time>2026-05-01T14:05:13.999Z</time></trkpt><trkpt lat="42.36371644365659" lon="8.651538766178241"><ele>415.0</ele><time>2026-05-01T14:05:14.999Z</time></trkpt><trkpt lat="42.36359787448291" lon="8.651275552948615"><ele>412.0</ele><time>2026-05-01T14:05:15.999Z</time></trkpt><trkpt lat="42.36349146967552" lon="8.650979546709705"><ele>409.0</ele><time>2026-05-01T14:05:16.999Z</time></trkpt><trkpt lat="42.36341844955995" lon="8.650697190774622"><ele>409.0</ele><time>2026-05-01T14:05:17.999Z</time></trkpt><trkpt lat="42.3633716734493" lon="8.650475513442885"><ele>409.0</ele><time>2026-05-01T14:05:18.999Z</time></trkpt><trkpt lat="42.363406562487555" lon="8.650312504616485"><ele>409.0</ele><time>2026-05-01T14:05:19.999Z</time></trkpt><trkpt lat="42.36353772603852" lon="8.650217520027752"><ele>409.0</ele><time>2026-05-01T14:05:20.999Z</time></trkpt><trkpt lat="42.36364146970834" lon="8.650023855780779"><ele>410.0</ele><time>2026-05-01T14:05:21.999Z</time></trkpt><trkpt lat="42.36373713750552" lon="8.649799587205917"><ele>411.0</ele><time>2026-05-01T14:05:22.999Z</time></trkpt><trkpt lat="42.363774696192266" lon="8.64951425744303"><ele>412.0</ele><time>2026-05-01T14:05:23.999Z</time></trkpt><trkpt lat="42.36380586304384" lon="8.649197511662674"><ele>408.5</ele><time>2026-05-01T14:05:25Z</time></trkpt><trkpt lat="42.363887012879054" lon="8.648876500190187"><ele>405.0</ele><time>2026-05-01T14:05:26Z</time></trkpt><trkpt lat="42.36398079505091" lon="8.648612504958516"><ele>405.0</ele><time>2026-05-01T14:05:27Z</time></trkpt><trkpt lat="42.36401308045012" lon="8.648442274308302"><ele>405.0</ele><time>2026-05-01T14:05:28Z</time></trkpt><trkpt lat="42.36397654736152" lon="8.648326725552101"><ele>405.0</ele><time>2026-05-01T14:05:29Z</time></trkpt><trkpt lat="42.36388027543087" lon="8.648253897510681"><ele>405.0</ele><time>2026-05-01T14:05:30Z</time></trkpt><trkpt lat="42.3637763792012" lon="8.648236298449875"><ele>405.0</ele><time>2026-05-01T14:05:31Z</time></trkpt><trkpt lat="42.36369227346248" lon="8.648271743137705"><ele>404.8</ele><time>2026-05-01T14:05:33Z</time></trkpt><trkpt lat="42.36362054848398" lon="8.64831252046231"><ele>404.6</ele><time>2026-05-01T14:05:42Z</time></trkpt><trkpt lat="42.36349240552542" lon="8.648337713404327"><ele>404.4</ele><time>2026-05-01T14:05:44.001Z</time></trkpt><trkpt lat="42.36341294728304" lon="8.648353547054455"><ele>404.2</ele><time>2026-05-01T14:05:45.001Z</time></trkpt><trkpt lat="42.363317215879384" lon="8.648343402233381"><ele>404.0</ele><time>2026-05-01T14:05:46.001Z</time></trkpt><trkpt lat="42.363209415278234" lon="8.64833073526184"><ele>404.0</ele><time>2026-05-01T14:05:47.001Z</time></trkpt><trkpt lat="42.36308902252558" lon="8.648338972529086"><ele>404.0</ele><time>2026-05-01T14:05:48.001Z</time></trkpt><trkpt lat="42.36298628120047" lon="8.648333347796555"><ele>404.0</ele><time>2026-05-01T14:05:49.001Z</time></trkpt><trkpt lat="42.3628948218638" lon="8.648338856947237"><ele>404.0</ele><time>2026-05-01T14:05:50.001Z</time></trkpt><trkpt lat="42.36281911914917" lon="8.648348790973847"><ele>404.0</ele><time>2026-05-01T14:05:51.001Z</time></trkpt><trkpt lat="42.36274943162646" lon="8.648360392158352"><ele>402.3333333333333</ele><time>2026-05-01T14:05:53.001Z</time></trkpt><trkpt lat="42.362689200224246" lon="8.648396322591655"><ele>400.66666666666663</ele><time>2026-05-01T14:05:59.001Z</time></trkpt><trkpt lat="42.36263748675157" lon="8.648447150396205"><ele>399.0</ele><time>2026-05-01T14:06:35.002Z</time></trkpt><trkpt lat="42.36258106007899" lon="8.648486612729227"><ele>397.33333333333337</ele><time>2026-05-01T14:06:36.002Z</time></trkpt><trkpt lat="42.36250355675534" lon="8.648493289026197"><ele>395.6666666666667</ele><time>2026-05-01T14:06:37.002Z</time></trkpt><trkpt lat="42.36241092919934" lon="8.6484876018959"><ele>394.0</ele><time>2026-05-01T14:06:38.002Z</time></trkpt><trkpt lat="42.36232058200432" lon="8.648500278057297"><ele>394.0</ele><time>2026-05-01T14:06:39.002Z</time></trkpt><trkpt lat="42.36222986924306" lon="8.648516018969115"><ele>394.0</ele><time>2026-05-01T14:06:40.002Z</time></trkpt><trkpt lat="42.36213803398503" lon="8.64850532093846"><ele>394.0</ele><time>2026-05-01T14:06:41.002Z</time></trkpt><trkpt lat="42.36208263611296" lon="8.648387360068122"><ele>394.0</ele><time>2026-05-01T14:06:42.002Z</time></trkpt><trkpt lat="42.3620136829304" lon="8.648292539930228"><ele>394.0</ele><time>2026-05-01T14:06:43.002Z</time></trkpt><trkpt lat="42.36193482629023" lon="8.648237864556345"><ele>392.83333333333337</ele><time>2026-05-01T14:06:44.003Z</time></trkpt><trkpt lat="42.361858880742425" lon="8.648227172207832"><ele>391.6666666666667</ele><time>2026-05-01T14:06:45.003Z</time></trkpt><trkpt lat="42.36178182554435" lon="8.648271803653273"><ele>390.5</ele><time>2026-05-01T14:06:46.003Z</time></trkpt><trkpt lat="42.36169138926097" lon="8.648265601344525"><ele>389.33333333333337</ele><time>2026-05-01T14:06:47.003Z</time></trkpt><trkpt lat="42.36160063754346" lon="8.648254231312166"><ele>388.1666666666667</ele><time>2026-05-01T14:06:48.003Z</time></trkpt><trkpt lat="42.36152391100001" lon="8.64827461564964"><ele>387.0</ele><time>2026-05-01T14:06:49.003Z</time></trkpt><trkpt lat="42.361468064382585" lon="8.648353613598363"><ele>387.0</ele><time>2026-05-01T14:06:50.003Z</time></trkpt><trkpt lat="42.36147171595223" lon="8.648529790062785"><ele>387.0</ele><time>2026-05-01T14:06:51.003Z</time></trkpt><trkpt lat="42.36147246357388" lon="8.648694310800249"><ele>387.0</ele><time>2026-05-01T14:06:52.003Z</time></trkpt><trkpt lat="42.36147533592605" lon="8.648870776164976"><ele>387.0</ele><time>2026-05-01T14:06:53.003Z</time></trkpt><trkpt lat="42.361458754993535" lon="8.649055894738785"><ele>393.66666666666663</ele><time>2026-05-01T14:06:54.003Z</time></trkpt><trkpt lat="42.36143437927114" lon="8.649259815838535"><ele>400.3333333333333</ele><time>2026-05-01T14:06:55.003Z</time></trkpt><trkpt lat="42.361443674183775" lon="8.649486968410734"><ele>407.0</ele><time>2026-05-01T14:06:56.003Z</time></trkpt><trkpt lat="42.36146085111327" lon="8.649741688975068"><ele>408.3333333333333</ele><time>2026-05-01T14:06:57.003Z</time></trkpt><trkpt lat="42.36146785268002" lon="8.650017702891992"><ele>409.66666666666663</ele><time>2026-05-01T14:06:58.003Z</time></trkpt><trkpt lat="42.361484854337924" lon="8.650271789576893"><ele>411.0</ele><time>2026-05-01T14:06:59.003Z</time></trkpt><trkpt lat="42.36149005245921" lon="8.650478587424475"><ele>413.75</ele><time>2026-05-01T14:07:00.003Z</time></trkpt><trkpt lat="42.36145878936032" lon="8.65062378819909"><ele>416.5</ele><time>2026-05-01T14:07:01.003Z</time></trkpt><trkpt lat="42.36135946771064" lon="8.650670225805369"><ele>419.25</ele><time>2026-05-01T14:07:02.003Z</time></trkpt><trkpt lat="42.36124197586423" lon="8.650717199218507"><ele>422.0</ele><time>2026-05-01T14:07:03.003Z</time></trkpt><trkpt lat="42.36107896252095" lon="8.650798663903792"><ele>417.75</ele><time>2026-05-01T14:07:04.003Z</time></trkpt><trkpt lat="42.36092679251321" lon="8.650863252215833"><ele>413.5</ele><time>2026-05-01T14:07:05.003Z</time></trkpt><trkpt lat="42.36082169080886" lon="8.650981115371518"><ele>409.25</ele><time>2026-05-01T14:07:06.003Z</time></trkpt><trkpt lat="42.36077095253309" lon="8.651142249814926"><ele>405.0</ele><time>2026-05-01T14:07:07.003Z</time></trkpt><trkpt lat="42.36077621634065" lon="8.65131381333633"><ele>405.0</ele><time>2026-05-01T14:07:08.003Z</time></trkpt><trkpt lat="42.360804730524016" lon="8.651502042417341"><ele>405.0</ele><time>2026-05-01T14:07:09.003Z</time></trkpt><trkpt lat="42.3607714443633" lon="8.651677132032667"><ele>405.0</ele><time>2026-05-01T14:07:10.003Z</time></trkpt><trkpt lat="42.360695951591424" lon="8.651793170095814"><ele>405.0</ele><time>2026-05-01T14:07:11.003Z</time></trkpt><trkpt lat="42.36057623525463" lon="8.65183582280864"><ele>395.5</ele><time>2026-05-01T14:07:11.999Z</time></trkpt><trkpt lat="42.36045123849007" lon="8.651931390187846"><ele>386.0</ele><time>2026-05-01T14:07:12.999Z</time></trkpt><trkpt lat="42.36036244043886" lon="8.652041333491267"><ele>376.5</ele><time>2026-05-01T14:07:13.999Z</time></trkpt><trkpt lat="42.36034978725678" lon="8.652210811429526"><ele>367.0</ele><time>2026-05-01T14:07:14.999Z</time></trkpt><trkpt lat="42.36037558974263" lon="8.652389398527088"><ele>367.0</ele><time>2026-05-01T14:07:15.999Z</time></trkpt><trkpt lat="42.360417122976756" lon="8.652575160352471"><ele>367.0</ele><time>2026-05-01T14:07:16.999Z</time></trkpt><trkpt lat="42.36041186897369" lon="8.652727326408781"><ele>367.0</ele><time>2026-05-01T14:07:17.999Z</time></trkpt><trkpt lat="42.360340457109" lon="8.652834212922977"><ele>367.0</ele><time>2026-05-01T14:07:18.999Z</time></trkpt><trkpt lat="42.36019227123719" lon="8.652852145085639"><ele>373.25</ele><time>2026-05-01T14:07:19.999Z</time></trkpt><trkpt lat="42.3600996834957" lon="8.652982245333812"><ele>379.5</ele><time>2026-05-01T14:07:20.999Z</time></trkpt><trkpt lat="42.36002966798477" lon="8.65312360443264"><ele>385.75</ele><time>2026-05-01T14:07:21.999Z</time></trkpt><trkpt lat="42.35998713559373" lon="8.653329190630537"><ele>392.0</ele><time>2026-05-01T14:07:22.999Z</time></trkpt><trkpt lat="42.35992132306504" lon="8.653525661616873"><ele>397.75</ele><time>2026-05-01T14:07:23.999Z</time></trkpt><trkpt lat="42.35985068632697" lon="8.653679291147927"><ele>403.5</ele><time>2026-05-01T14:07:24.999Z</time></trkpt><trkpt lat="42.359768940286564" lon="8.653786353749439"><ele>409.25</ele><time>2026-05-01T14:07:25.999Z</time></trkpt><trkpt lat="42.35966344608479" lon="8.65381782762835"><ele>415.0</ele><time>2026-05-01T14:07:26.999Z</time></trkpt><trkpt lat="42.359557788573625" lon="8.653828103848172"><ele>415.0</ele><time>2026-05-01T14:07:28Z</time></trkpt><trkpt lat="42.359443250200194" lon="8.6537897607244"><ele>415.0</ele><time>2026-05-01T14:07:29Z</time></trkpt><trkpt lat="42.35935381636586" lon="8.653628910255788"><ele>415.0</ele><time>2026-05-01T14:07:30Z</time></trkpt><trkpt lat="42.359252709294246" lon="8.653456799697498"><ele>415.0</ele><time>2026-05-01T14:07:31Z</time></trkpt><trkpt lat="42.35914369440527" lon="8.65327188376973"><ele>415.5</ele><time>2026-05-01T14:07:32Z</time></trkpt><trkpt lat="42.35905784001872" lon="8.653100858257213"><ele>416.0</ele><time>2026-05-01T14:07:33Z</time></trkpt><trkpt lat="42.35896234448354" lon="8.652955271504473"><ele>416.5</ele><time>2026-05-01T14:07:34Z</time></trkpt><trkpt lat="42.35884895615004" lon="8.652850330827894"><ele>417.0</ele><time>2026-05-01T14:07:35Z</time></trkpt><trkpt lat="42.358722012547936" lon="8.652811484761493"><ele>417.0</ele><time>2026-05-01T14:07:36Z</time></trkpt><trkpt lat="42.35858961431225" lon="8.652818392142658"><ele>417.0</ele><time>2026-05-01T14:07:37Z</time></trkpt><trkpt lat="42.358462582861186" lon="8.652808680114456"><ele>417.0</ele><time>2026-05-01T14:07:38Z</time></trkpt><trkpt lat="42.358376021402655" lon="8.65268736808902"><ele>417.0</ele><time>2026-05-01T14:07:39Z</time></trkpt><trkpt lat="42.35833359583595" lon="8.652546884924364"><ele>407.0</ele><time>2026-05-01T14:07:40Z</time></trkpt><trkpt lat="42.358335530835895" lon="8.652371094287158"><ele>397.0</ele><time>2026-05-01T14:07:41Z</time></trkpt><trkpt lat="42.358303743728676" lon="8.652158758796663"><ele>387.0</ele><time>2026-05-01T14:07:42Z</time></trkpt><trkpt lat="42.35826972271503" lon="8.65192526574072"><ele>392.0</ele><time>2026-05-01T14:07:43Z</time></trkpt><trkpt lat="42.358208210094475" lon="8.651712922976056"><ele>397.0</ele><time>2026-05-01T14:07:44Z</time></trkpt><trkpt lat="42.35813000341483" lon="8.651540526653227"><ele>402.0</ele><time>2026-05-01T14:07:45Z</time></trkpt><trkpt lat="42.35802587478048" lon="8.65142050264992"><ele>402.0</ele><time>2026-05-01T14:07:46Z</time></trkpt><trkpt lat="42.357915038608795" lon="8.651378659906326"><ele>402.0</ele><time>2026-05-01T14:07:47Z</time></trkpt><trkpt lat="42.357791022548916" lon="8.65136722619177"><ele>402.0</ele><time>2026-05-01T14:07:48Z</time></trkpt><trkpt lat="42.35767738592084" lon="8.651282107774831"><ele>402.0</ele><time>2026-05-01T14:07:49.001Z</time></trkpt><trkpt lat="42.35756983518379" lon="8.651182464223197"><ele>396.25</ele><time>2026-05-01T14:07:50.001Z</time></trkpt><trkpt lat="42.357511831457025" lon="8.651028123454347"><ele>390.5</ele><time>2026-05-01T14:07:51.001Z</time></trkpt><trkpt lat="42.35754465363673" lon="8.65084901697972"><ele>384.75</ele><time>2026-05-01T14:07:52.001Z</time></trkpt><trkpt lat="42.357540495908516" lon="8.650641044995643"><ele>379.0</ele><time>2026-05-01T14:07:53.001Z</time></trkpt><trkpt lat="42.357502903566655" lon="8.650434541796972"><ele>372.66666666666663</ele><time>2026-05-01T14:07:54.001Z</time></trkpt><trkpt lat="42.3574608391581" lon="8.650208794132169"><ele>366.3333333333333</ele><time>2026-05-01T14:07:55.001Z</time></trkpt><trkpt lat="42.35741308619114" lon="8.649968597399896"><ele>360.0</ele><time>2026-05-01T14:07:56.001Z</time></trkpt><trkpt lat="42.35737793566755" lon="8.649733757109004"><ele>360.0</ele><time>2026-05-01T14:07:57.001Z</time></trkpt><trkpt lat="42.35732769640492" lon="8.649527893139343"><ele>360.0</ele><time>2026-05-01T14:07:58.001Z</time></trkpt><trkpt lat="42.357228957138126" lon="8.649345695691741"><ele>360.0</ele><time>2026-05-01T14:07:59.001Z</time></trkpt><trkpt lat="42.357081800967094" lon="8.649196047027049"><ele>368.0</ele><time>2026-05-01T14:08:00.001Z</time></trkpt><trkpt lat="42.35692559717462" lon="8.649070860777547"><ele>376.0</ele><time>2026-05-01T14:08:01.001Z</time></trkpt><trkpt lat="42.356819622122615" lon="8.648912988429746"><ele>384.0</ele><time>2026-05-01T14:08:02.001Z</time></trkpt><trkpt lat="42.35677643252406" lon="8.648731564982995"><ele>379.3333333333333</ele><time>2026-05-01T14:08:03.001Z</time></trkpt><trkpt lat="42.35677755366577" lon="8.648533485304318"><ele>374.66666666666663</ele><time>2026-05-01T14:08:04.001Z</time></trkpt><trkpt lat="42.35677560985987" lon="8.648284717423392"><ele>370.0</ele><time>2026-05-01T14:08:05.001Z</time></trkpt><trkpt lat="42.35677099200075" lon="8.648016564452602"><ele>366.3333333333333</ele><time>2026-05-01T14:08:06.001Z</time></trkpt><trkpt lat="42.356778751750355" lon="8.647758593959876"><ele>362.6666666666667</ele><time>2026-05-01T14:08:07.001Z</time></trkpt><trkpt lat="42.35677669763078" lon="8.647517778129698"><ele>359.0</ele><time>2026-05-01T14:08:08.001Z</time></trkpt><trkpt lat="42.35675263204132" lon="8.647303075494287"><ele>359.0</ele><time>2026-05-01T14:08:09.001Z</time></trkpt><trkpt lat="42.35667285055233" lon="8.647115252623813"><ele>359.0</ele><time>2026-05-01T14:08:10.001Z</time></trkpt><trkpt lat="42.35656039074225" lon="8.6469105643049"><ele>359.0</ele><time>2026-05-01T14:08:11.001Z</time></trkpt><trkpt lat="42.356448582343106" lon="8.64671106668945"><ele>358.5</ele><time>2026-05-01T14:08:12.001Z</time></trkpt><trkpt lat="42.35635565965904" lon="8.646559277304782"><ele>358.0</ele><time>2026-05-01T14:08:13.001Z</time></trkpt><trkpt lat="42.356240438462514" lon="8.646469319338182"><ele>357.5</ele><time>2026-05-01T14:08:14.001Z</time></trkpt><trkpt lat="42.356080760509634" lon="8.646436821377703"><ele>357.0</ele><time>2026-05-01T14:08:15.001Z</time></trkpt><trkpt lat="42.35590256902977" lon="8.646411832421514"><ele>357.0</ele><time>2026-05-01T14:08:16.001Z</time></trkpt><trkpt lat="42.3557262708388" lon="8.64640473393354"><ele>357.0</ele><time>2026-05-01T14:08:17.001Z</time></trkpt><trkpt lat="42.355533109494594" lon="8.646446942615446"><ele>357.0</ele><time>2026-05-01T14:08:18.002Z</time></trkpt><trkpt lat="42.35533586323594" lon="8.646523491894406"><ele>355.6666666666667</ele><time>2026-05-01T14:08:19.002Z</time></trkpt><trkpt lat="42.355123826820005" lon="8.646584751008685"><ele>354.33333333333337</ele><time>2026-05-01T14:08:20.002Z</time></trkpt><trkpt lat="42.35490660975204" lon="8.646589401420702"><ele>353.0</ele><time>2026-05-01T14:08:21.002Z</time></trkpt><trkpt lat="42.35470436735741" lon="8.646656577057247"><ele>353.0</ele><time>2026-05-01T14:08:22.002Z</time></trkpt><trkpt lat="42.354527475989066" lon="8.646715840362685"><ele>353.0</ele><time>2026-05-01T14:08:23.002Z</time></trkpt><trkpt lat="42.354378212045894" lon="8.646715561762841"><ele>353.0</ele><time>2026-05-01T14:08:24.002Z</time></trkpt><trkpt lat="42.35425775125561" lon="8.64665131784209"><ele>353.0</ele><time>2026-05-01T14:08:25.002Z</time></trkpt><trkpt lat="42.354153733097306" lon="8.646538254913041"><ele>353.0</ele><time>2026-05-01T14:08:26.002Z</time></trkpt><trkpt lat="42.35400474257416" lon="8.646424440805752"><ele>353.0</ele><time>2026-05-01T14:08:27.002Z</time></trkpt><trkpt lat="42.35383961959668" lon="8.646312177156602"><ele>351.0</ele><time>2026-05-01T14:08:28.002Z</time></trkpt><trkpt lat="42.353719177986264" lon="8.646126795840233"><ele>349.0</ele><time>2026-05-01T14:08:29.002Z</time></trkpt><trkpt lat="42.3536307785149" lon="8.645933087294305"><ele>347.0</ele><time>2026-05-01T14:08:30.002Z</time></trkpt><trkpt lat="42.35351919246096" lon="8.645792314562962"><ele>347.0</ele><time>2026-05-01T14:08:31.002Z</time></trkpt><trkpt lat="42.35339526251924" lon="8.64567032670523"><ele>347.0</ele><time>2026-05-01T14:08:32.002Z</time></trkpt><trkpt lat="42.35324275559731" lon="8.64556325648138"><ele>347.0</ele><time>2026-05-01T14:08:33.002Z</time></trkpt><trkpt lat="42.35309621302104" lon="8.645441365131319"><ele>345.25</ele><time>2026-05-01T14:08:34.002Z</time></trkpt><trkpt lat="42.352986862476556" lon="8.645282679530034"><ele>343.5</ele><time>2026-05-01T14:08:35.002Z</time></trkpt><trkpt lat="42.35286392381194" lon="8.645177492227266"><ele>341.75</ele><time>2026-05-01T14:08:36.002Z</time></trkpt><trkpt lat="42.35274680765094" lon="8.645096964027525"><ele>340.0</ele><time>2026-05-01T14:08:37.002Z</time></trkpt><trkpt lat="42.352639837836534" lon="8.645064119966834"><ele>340.0</ele><time>2026-05-01T14:08:38.002Z</time></trkpt><trkpt lat="42.35255937537588" lon="8.645005527897311"><ele>340.0</ele><time>2026-05-01T14:08:39.002Z</time></trkpt><trkpt lat="42.352506208308476" lon="8.644915287029688"><ele>340.0</ele><time>2026-05-01T14:08:40.002Z</time></trkpt><trkpt lat="42.35246486518655" lon="8.644807687377678"><ele>340.0</ele><time>2026-05-01T14:08:41.002Z</time></trkpt><trkpt lat="42.35243606817334" lon="8.644677789877438"><ele>340.0</ele><time>2026-05-01T14:08:42.002Z</time></trkpt><trkpt lat="42.35239727795668" lon="8.644529625466117"><ele>338.8</ele><time>2026-05-01T14:08:43.002Z</time></trkpt><trkpt lat="42.35237721284457" lon="8.644389143428455"><ele>337.6</ele><time>2026-05-01T14:08:44.002Z</time></trkpt><trkpt lat="42.35234132244598" lon="8.644269548855426"><ele>336.4</ele><time>2026-05-01T14:08:45.002Z</time></trkpt><trkpt lat="42.35227640008207" lon="8.644174688507505"><ele>335.2</ele><time>2026-05-01T14:08:46.002Z</time></trkpt><trkpt lat="42.35218472899817" lon="8.644104637230132"><ele>334.0</ele><time>2026-05-01T14:08:47.002Z</time></trkpt><trkpt lat="42.352083574136344" lon="8.644068831709232"><ele>334.0</ele><time>2026-05-01T14:08:48.002Z</time></trkpt><trkpt lat="42.351997403727566" lon="8.644039377988653"><ele>334.0</ele><time>2026-05-01T14:08:49.002Z</time></trkpt><trkpt lat="42.3519149182742" lon="8.644009409035016"><ele>334.0</ele><time>2026-05-01T14:08:50.002Z</time></trkpt><trkpt lat="42.35183034912358" lon="8.643988720270627"><ele>334.0</ele><time>2026-05-01T14:08:51.003Z</time></trkpt><trkpt lat="42.351746718266604" lon="8.643989677324559"><ele>334.0</ele><time>2026-05-01T14:08:52.003Z</time></trkpt><trkpt lat="42.3516618025936" lon="8.644025401820137"><ele>334.0</ele><time>2026-05-01T14:08:53.003Z</time></trkpt><trkpt lat="42.35158242717507" lon="8.64409237591582"><ele>334.0</ele><time>2026-05-01T14:08:54.003Z</time></trkpt><trkpt lat="42.35151971509475" lon="8.644193132081103"><ele>334.0</ele><time>2026-05-01T14:08:55.003Z</time></trkpt><trkpt lat="42.351482837501315" lon="8.644316278231337"><ele>334.0</ele><time>2026-05-01T14:08:56.003Z</time></trkpt><trkpt lat="42.35147724878577" lon="8.64446159959605"><ele>334.0</ele><time>2026-05-01T14:08:57.003Z</time></trkpt><trkpt lat="42.35149513349502" lon="8.644610921388283"><ele>334.0</ele><time>2026-05-01T14:08:58.003Z</time></trkpt><trkpt lat="42.351525421974856" lon="8.644760636154233"><ele>332.25</ele><time>2026-05-01T14:08:59.003Z</time></trkpt><trkpt lat="42.351548933066944" lon="8.644901058441686"><ele>330.5</ele><time>2026-05-01T14:09:00.003Z</time></trkpt><trkpt lat="42.35156397004808" lon="8.645059791505222"><ele>328.75</ele><time>2026-05-01T14:09:01.003Z</time></trkpt><trkpt lat="42.35154769418872" lon="8.645233343942042"><ele>327.0</ele><time>2026-05-01T14:09:02.003Z</time></trkpt><trkpt lat="42.35155286132853" lon="8.645410322786281"><ele>325.25</ele><time>2026-05-01T14:09:03.003Z</time></trkpt><trkpt lat="42.351555009107834" lon="8.645575353238716"><ele>323.5</ele><time>2026-05-01T14:09:04.003Z</time></trkpt><trkpt lat="42.35158880024632" lon="8.645730953519868"><ele>321.75</ele><time>2026-05-01T14:09:05.003Z</time></trkpt><trkpt lat="42.35164244253836" lon="8.645864836269713"><ele>320.0</ele><time>2026-05-01T14:09:06.003Z</time></trkpt><trkpt lat="42.35171037685251" lon="8.64597631188428"><ele>320.0</ele><time>2026-05-01T14:09:07.003Z</time></trkpt><trkpt lat="42.35177556833301" lon="8.646088828286613"><ele>320.0</ele><time>2026-05-01T14:09:08.003Z</time></trkpt><trkpt lat="42.351818345040215" lon="8.646222012433725"><ele>320.0</ele><time>2026-05-01T14:09:09.003Z</time></trkpt><trkpt lat="42.35181064229592" lon="8.64638553394447"><ele>320.0</ele><time>2026-05-01T14:09:10.003Z</time></trkpt><trkpt lat="42.35179129091632" lon="8.646551939783881"><ele>319.33333333333337</ele><time>2026-05-01T14:09:11.003Z</time></trkpt><trkpt lat="42.35176919586489" lon="8.646753706433794"><ele>318.6666666666667</ele><time>2026-05-01T14:09:12.003Z</time></trkpt><trkpt lat="42.35174505851621" lon="8.646967080649336"><ele>318.0</ele><time>2026-05-01T14:09:13.003Z</time></trkpt><trkpt lat="42.351723514584826" lon="8.647153937169707"><ele>318.0</ele><time>2026-05-01T14:09:14.003Z</time></trkpt><trkpt lat="42.35170319260392" lon="8.647320400109326"><ele>318.0</ele><time>2026-05-01T14:09:15.003Z</time></trkpt><trkpt lat="42.351680570298456" lon="8.64747183141942"><ele>318.0</ele><time>2026-05-01T14:09:16.003Z</time></trkpt><trkpt lat="42.35165103895741" lon="8.647610372546636"><ele>318.0</ele><time>2026-05-01T14:09:17.003Z</time></trkpt><trkpt lat="42.351600914309074" lon="8.647730614498563"><ele>318.0</ele><time>2026-05-01T14:09:17.997Z</time></trkpt><trkpt lat="42.35151322095231" lon="8.647844002301289"><ele>313.6666666666667</ele><time>2026-05-01T14:09:18.997Z</time></trkpt><trkpt lat="42.35138071406072" lon="8.64797248735148"><ele>309.33333333333337</ele><time>2026-05-01T14:09:19.997Z</time></trkpt><trkpt lat="42.351220070622844" lon="8.648134070053224"><ele>305.0</ele><time>2026-05-01T14:09:20.997Z</time></trkpt><trkpt lat="42.35104182397987" lon="8.648306412956087"><ele>305.0</ele><time>2026-05-01T14:09:21.998Z</time></trkpt><trkpt lat="42.35083937791936" lon="8.648495817740422"><ele>305.0</ele><time>2026-05-01T14:09:22.998Z</time></trkpt><trkpt lat="42.35063763791164" lon="8.648686774044917"><ele>304.6666666666667</ele><time>2026-05-01T14:09:23.998Z</time></trkpt><trkpt lat="42.35046685567158" lon="8.648842217991925"><ele>304.3333333333333</ele><time>2026-05-01T14:09:24.998Z</time></trkpt><trkpt lat="42.35030773803643" lon="8.648933711812468"><ele>304.0</ele><time>2026-05-01T14:09:25.998Z</time></trkpt><trkpt lat="42.35015992434834" lon="8.648941713952675"><ele>304.0</ele><time>2026-05-01T14:09:26.998Z</time></trkpt><trkpt lat="42.35000897146492" lon="8.648909939694594"><ele>304.0</ele><time>2026-05-01T14:09:27.998Z</time></trkpt><trkpt lat="42.34988611371095" lon="8.648923877314138"><ele>304.0</ele><time>2026-05-01T14:09:28.998Z</time></trkpt><trkpt lat="42.349799174740866" lon="8.649006522580644"><ele>304.0</ele><time>2026-05-01T14:09:29.998Z</time></trkpt><trkpt lat="42.34975287130203" lon="8.649128838003389"><ele>304.0</ele><time>2026-05-01T14:09:30.998Z</time></trkpt><trkpt lat="42.34975779344398" lon="8.649297564241778"><ele>304.0</ele><time>2026-05-01T14:09:31.999Z</time></trkpt><trkpt lat="42.34980731533223" lon="8.649494219267906"><ele>304.0</ele><time>2026-05-01T14:09:32.999Z</time></trkpt><trkpt lat="42.3498856966218" lon="8.649699983557499"><ele>304.0</ele><time>2026-05-01T14:09:33.999Z</time></trkpt><trkpt lat="42.34997090898803" lon="8.649896027291788"><ele>302.0</ele><time>2026-05-01T14:09:34.999Z</time></trkpt><trkpt lat="42.35005848416433" lon="8.650048747297241"><ele>300.0</ele><time>2026-05-01T14:09:35.999Z</time></trkpt><trkpt lat="42.350169046943726" lon="8.650133072062664"><ele>298.0</ele><time>2026-05-01T14:09:36.999Z</time></trkpt><trkpt lat="42.35028334262611" lon="8.650130806931564"><ele>296.0</ele><time>2026-05-01T14:09:37.999Z</time></trkpt><trkpt lat="42.35040041555627" lon="8.650052312066691"><ele>296.0</ele><time>2026-05-01T14:09:38.999Z</time></trkpt><trkpt lat="42.35053499764555" lon="8.649926344482607"><ele>296.0</ele><time>2026-05-01T14:09:39.999Z</time></trkpt><trkpt lat="42.350680756255194" lon="8.64985509300656"><ele>296.0</ele><time>2026-05-01T14:09:40.999Z</time></trkpt><trkpt lat="42.350813827748176" lon="8.649934117189272"><ele>299.0</ele><time>2026-05-01T14:09:42Z</time></trkpt><trkpt lat="42.35099323644534" lon="8.650012922961734"><ele>302.0</ele><time>2026-05-01T14:09:43Z</time></trkpt><trkpt lat="42.35121255547903" lon="8.650036077843296"><ele>305.0</ele><time>2026-05-01T14:09:44Z</time></trkpt><trkpt lat="42.351444035105814" lon="8.650070558875628"><ele>307.33333333333337</ele><time>2026-05-01T14:09:45Z</time></trkpt><trkpt lat="42.35165549003475" lon="8.650097870051646"><ele>309.6666666666667</ele><time>2026-05-01T14:09:46Z</time></trkpt><trkpt lat="42.35181639293707" lon="8.650138309758695"><ele>312.0</ele><time>2026-05-01T14:09:47Z</time></trkpt><trkpt lat="42.3519199424428" lon="8.650229679656764"><ele>304.0</ele><time>2026-05-01T14:09:48Z</time></trkpt><trkpt lat="42.351984682906895" lon="8.650350032463368"><ele>296.0</ele><time>2026-05-01T14:09:49Z</time></trkpt><trkpt lat="42.35203608261437" lon="8.650502672185754"><ele>288.0</ele><time>2026-05-01T14:09:50Z</time></trkpt><trkpt lat="42.35209466258688" lon="8.65068450369999"><ele>280.0</ele><time>2026-05-01T14:09:51Z</time></trkpt><trkpt lat="42.35215699755576" lon="8.650882397459"><ele>280.66666666666663</ele><time>2026-05-01T14:09:52Z</time></trkpt><trkpt lat="42.35226996927423" lon="8.651033273314553"><ele>281.3333333333333</ele><time>2026-05-01T14:09:53Z</time></trkpt><trkpt lat="42.35242941513748" lon="8.651138950065462"><ele>282.0</ele><time>2026-05-01T14:09:54Z</time></trkpt><trkpt lat="42.35262422273128" lon="8.651239872293752"><ele>282.0</ele><time>2026-05-01T14:09:55Z</time></trkpt><trkpt lat="42.35284141474622" lon="8.65136032790941"><ele>282.0</ele><time>2026-05-01T14:09:56Z</time></trkpt><trkpt lat="42.353022321651956" lon="8.651477808289705"><ele>282.0</ele><time>2026-05-01T14:09:57Z</time></trkpt><trkpt lat="42.35312776629601" lon="8.651617273912327"><ele>280.0</ele><time>2026-05-01T14:09:58Z</time></trkpt><trkpt lat="42.35317883325337" lon="8.651726773043372"><ele>278.0</ele><time>2026-05-01T14:09:59.001Z</time></trkpt><trkpt lat="42.35314193064185" lon="8.651854633061735"><ele>276.0</ele><time>2026-05-01T14:10:00.001Z</time></trkpt><trkpt lat="42.35309272155638" lon="8.652011619407125"><ele>274.0</ele><time>2026-05-01T14:10:01.001Z</time></trkpt><trkpt lat="42.35300941464363" lon="8.65223760043299"><ele>274.0</ele><time>2026-05-01T14:10:02.001Z</time></trkpt><trkpt lat="42.35291822776757" lon="8.652491749261356"><ele>274.0</ele><time>2026-05-01T14:10:03.001Z</time></trkpt><trkpt lat="42.352851925425846" lon="8.652748495977393"><ele>274.0</ele><time>2026-05-01T14:10:04.001Z</time></trkpt><trkpt lat="42.352844580279616" lon="8.653015419432577"><ele>277.2</ele><time>2026-05-01T14:10:05.001Z</time></trkpt><trkpt lat="42.352825644692636" lon="8.653215902794939"><ele>280.4</ele><time>2026-05-01T14:10:06.001Z</time></trkpt><trkpt lat="42.35277292738334" lon="8.653320191622704"><ele>283.6</ele><time>2026-05-01T14:10:07.001Z</time></trkpt><trkpt lat="42.352706226437896" lon="8.653352986080185"><ele>286.8</ele><time>2026-05-01T14:10:08.001Z</time></trkpt><trkpt lat="42.35262417475399" lon="8.653343619610604"><ele>290.0</ele><time>2026-05-01T14:10:09.001Z</time></trkpt><trkpt lat="42.35248491514292" lon="8.653377352620955"><ele>290.0</ele><time>2026-05-01T14:10:10.001Z</time></trkpt><trkpt lat="42.35230849319345" lon="8.653412191419042"><ele>290.0</ele><time>2026-05-01T14:10:11.001Z</time></trkpt><trkpt lat="42.35210640755924" lon="8.653459401484167"><ele>290.0</ele><time>2026-05-01T14:10:12.001Z</time></trkpt><trkpt lat="42.35192446114697" lon="8.653504563691445"><ele>290.75</ele><time>2026-05-01T14:10:13.001Z</time></trkpt><trkpt lat="42.35177642073795" lon="8.653561721129183"><ele>291.5</ele><time>2026-05-01T14:10:14.001Z</time></trkpt><trkpt lat="42.35166623706303" lon="8.653665991687252"><ele>292.25</ele><time>2026-05-01T14:10:15.001Z</time></trkpt><trkpt lat="42.35160188175471" lon="8.653831222057773"><ele>293.0</ele><time>2026-05-01T14:10:16.001Z</time></trkpt><trkpt lat="42.35158253367376" lon="8.654062178784748"><ele>293.0</ele><time>2026-05-01T14:10:17.001Z</time></trkpt><trkpt lat="42.35157835371516" lon="8.654292714123079"><ele>293.0</ele><time>2026-05-01T14:10:18.001Z</time></trkpt><trkpt lat="42.35150643906936" lon="8.654461086776198"><ele>293.0</ele><time>2026-05-01T14:10:19.001Z</time></trkpt><trkpt lat="42.351397441795896" lon="8.65458629623302"><ele>287.0</ele><time>2026-05-01T14:10:20.001Z</time></trkpt><trkpt lat="42.35129748429887" lon="8.65472112030848"><ele>281.0</ele><time>2026-05-01T14:10:21.001Z</time></trkpt><trkpt lat="42.35124139789144" lon="8.654866143172384"><ele>275.0</ele><time>2026-05-01T14:10:22.001Z</time></trkpt><trkpt lat="42.35122894026075" lon="8.654986613188521"><ele>269.0</ele><time>2026-05-01T14:10:23.001Z</time></trkpt><trkpt lat="42.351269707561706" lon="8.655095185885232"><ele>263.0</ele><time>2026-05-01T14:10:24.001Z</time></trkpt><trkpt lat="42.35136146513784" lon="8.65522478737936"><ele>271.0</ele><time>2026-05-01T14:10:25.001Z</time></trkpt><trkpt lat="42.35149676529223" lon="8.65537240010814"><ele>279.0</ele><time>2026-05-01T14:10:26.002Z</time></trkpt><trkpt lat="42.35162589509006" lon="8.655531070362198"><ele>287.0</ele><time>2026-05-01T14:10:27.002Z</time></trkpt><trkpt lat="42.35169567023949" lon="8.655707508124907"><ele>287.0</ele><time>2026-05-01T14:10:28.002Z</time></trkpt><trkpt lat="42.35168423625413" lon="8.655935285796696"><ele>287.0</ele><time>2026-05-01T14:10:29.002Z</time></trkpt><trkpt lat="42.35175447179573" lon="8.656148722743932"><ele>287.0</ele><time>2026-05-01T14:10:30.002Z</time></trkpt><trkpt lat="42.35183719156526" lon="8.65635703532762"><ele>290.8</ele><time>2026-05-01T14:10:31.002Z</time></trkpt><trkpt lat="42.35193955125835" lon="8.656501091164488"><ele>294.6</ele><time>2026-05-01T14:10:32.002Z</time></trkpt><trkpt lat="42.35202247932548" lon="8.656583846573318"><ele>298.40000000000003</ele><time>2026-05-01T14:10:33.002Z</time></trkpt><trkpt lat="42.352110274579545" lon="8.656613583648568"><ele>302.2</ele><time>2026-05-01T14:10:34.002Z</time></trkpt><trkpt lat="42.35221174182489" lon="8.656616841160876"><ele>306.0</ele><time>2026-05-01T14:10:35.002Z</time></trkpt><trkpt lat="42.35230186198472" lon="8.656654626790614"><ele>306.0</ele><time>2026-05-01T14:10:36.002Z</time></trkpt><trkpt lat="42.35235483087976" lon="8.65674614624959"><ele>306.0</ele><time>2026-05-01T14:10:37.002Z</time></trkpt><trkpt lat="42.35236061639622" lon="8.6568760115432"><ele>306.0</ele><time>2026-05-01T14:10:38.002Z</time></trkpt><trkpt lat="42.35231111160109" lon="8.657018424482455"><ele>306.0</ele><time>2026-05-01T14:10:39.002Z</time></trkpt><trkpt lat="42.35223571852673" lon="8.65716666923687"><ele>306.0</ele><time>2026-05-01T14:10:40.002Z</time></trkpt><trkpt lat="42.352179548047026" lon="8.657340303462368"><ele>299.25</ele><time>2026-05-01T14:10:41.002Z</time></trkpt><trkpt lat="42.35214789912523" lon="8.657480901563664"><ele>292.5</ele><time>2026-05-01T14:10:42.002Z</time></trkpt><trkpt lat="42.352188496824056" lon="8.657627683694427"><ele>285.75</ele><time>2026-05-01T14:10:43.002Z</time></trkpt><trkpt lat="42.35227871558383" lon="8.657791343286572"><ele>279.0</ele><time>2026-05-01T14:10:44.002Z</time></trkpt><trkpt lat="42.35239122895622" lon="8.657967882398747"><ele>279.0</ele><time>2026-05-01T14:10:45.002Z</time></trkpt><trkpt lat="42.35250379446327" lon="8.65812193089748"><ele>279.0</ele><time>2026-05-01T14:10:46.002Z</time></trkpt><trkpt lat="42.35261076828749" lon="8.658243749156599"><ele>279.0</ele><time>2026-05-01T14:10:47.002Z</time></trkpt><trkpt lat="42.35266127767685" lon="8.658391580993127"><ele>279.0</ele><time>2026-05-01T14:10:48.002Z</time></trkpt><trkpt lat="42.352644771365426" lon="8.658547834943628"><ele>275.25</ele><time>2026-05-01T14:10:49.002Z</time></trkpt><trkpt lat="42.352667268528506" lon="8.658688840932268"><ele>271.5</ele><time>2026-05-01T14:10:50.002Z</time></trkpt><trkpt lat="42.352722442773114" lon="8.65882667873987"><ele>267.75</ele><time>2026-05-01T14:10:51.002Z</time></trkpt><trkpt lat="42.35282010451224" lon="8.65895053767158"><ele>264.0</ele><time>2026-05-01T14:10:52.002Z</time></trkpt><trkpt lat="42.352953764013414" lon="8.659010386720915"><ele>268.4</ele><time>2026-05-01T14:10:53.002Z</time></trkpt><trkpt lat="42.353068407188445" lon="8.65903790772534"><ele>272.79999999999995</ele><time>2026-05-01T14:10:54.002Z</time></trkpt><trkpt lat="42.353141060256" lon="8.659126755071956"><ele>277.20000000000005</ele><time>2026-05-01T14:10:55.002Z</time></trkpt><trkpt lat="42.35315827876754" lon="8.659250001497782"><ele>281.6</ele><time>2026-05-01T14:10:56.002Z</time></trkpt><trkpt lat="42.353151366911455" lon="8.659399788030614"><ele>286.0</ele><time>2026-05-01T14:10:57.002Z</time></trkpt><trkpt lat="42.353104017644554" lon="8.659540655389144"><ele>286.5</ele><time>2026-05-01T14:10:58.003Z</time></trkpt><trkpt lat="42.3530347385456" lon="8.659642487799541"><ele>287.0</ele><time>2026-05-01T14:10:59.003Z</time></trkpt><trkpt lat="42.352904749344944" lon="8.659661950780581"><ele>287.5</ele><time>2026-05-01T14:11:00.003Z</time></trkpt><trkpt lat="42.35279222899897" lon="8.659762039398561"><ele>288.0</ele><time>2026-05-01T14:11:01.003Z</time></trkpt><trkpt lat="42.35266685099745" lon="8.65987736160303"><ele>288.0</ele><time>2026-05-01T14:11:02.003Z</time></trkpt><trkpt lat="42.35250823857708" lon="8.659887848242882"><ele>288.0</ele><time>2026-05-01T14:11:03.003Z</time></trkpt><trkpt lat="42.35233840090579" lon="8.659893348042045"><ele>288.0</ele><time>2026-05-01T14:11:04.003Z</time></trkpt><trkpt lat="42.35217549643766" lon="8.659833860312713"><ele>287.6666666666667</ele><time>2026-05-01T14:11:05.003Z</time></trkpt><trkpt lat="42.351994407659205" lon="8.659728392914605"><ele>287.33333333333337</ele><time>2026-05-01T14:11:06.003Z</time></trkpt><trkpt lat="42.351812203933584" lon="8.659623530891547"><ele>287.0</ele><time>2026-05-01T14:11:07.003Z</time></trkpt><trkpt lat="42.351662688362524" lon="8.659489844723465"><ele>289.0</ele><time>2026-05-01T14:11:08.003Z</time></trkpt><trkpt lat="42.35152742130725" lon="8.659402735811026"><ele>291.0</ele><time>2026-05-01T14:11:09.003Z</time></trkpt><trkpt lat="42.351394623232665" lon="8.659414371260963"><ele>293.0</ele><time>2026-05-01T14:11:10.003Z</time></trkpt><trkpt lat="42.35125743161538" lon="8.659507055495435"><ele>295.0</ele><time>2026-05-01T14:11:11.003Z</time></trkpt><trkpt lat="42.35110705702971" lon="8.659587088263422"><ele>295.0</ele><time>2026-05-01T14:11:12.003Z</time></trkpt><trkpt lat="42.350973036904485" lon="8.659493638775826"><ele>295.0</ele><time>2026-05-01T14:11:13.003Z</time></trkpt><trkpt lat="42.350803886162986" lon="8.659396074857085"><ele>295.0</ele><time>2026-05-01T14:11:14.003Z</time></trkpt><trkpt lat="42.35060321417888" lon="8.659290096939056"><ele>288.66666666666663</ele><time>2026-05-01T14:11:15.003Z</time></trkpt><trkpt lat="42.350388949558464" lon="8.659257060127516"><ele>282.3333333333333</ele><time>2026-05-01T14:11:16.003Z</time></trkpt><trkpt lat="42.35022870921054" lon="8.659162728636725"><ele>276.0</ele><time>2026-05-01T14:11:17.003Z</time></trkpt><trkpt lat="42.350114569597245" lon="8.659038375376392"><ele>276.0</ele><time>2026-05-01T14:11:18.003Z</time></trkpt><trkpt lat="42.35003595496747" lon="8.658881307343355"><ele>276.0</ele><time>2026-05-01T14:11:19.003Z</time></trkpt><trkpt lat="42.34996144553135" lon="8.658682438680364"><ele>276.0</ele><time>2026-05-01T14:11:20.003Z</time></trkpt><trkpt lat="42.3498717421926" lon="8.658531169443561"><ele>276.0</ele><time>2026-05-01T14:11:21.003Z</time></trkpt><trkpt lat="42.34975906190629" lon="8.65843656000884"><ele>274.6666666666667</ele><time>2026-05-01T14:11:22.003Z</time></trkpt><trkpt lat="42.349597805189525" lon="8.658438328106588"><ele>273.33333333333337</ele><time>2026-05-01T14:11:23.003Z</time></trkpt><trkpt lat="42.349421000413074" lon="8.658520529572822"><ele>272.0</ele><time>2026-05-01T14:11:23.997Z</time></trkpt><trkpt lat="42.349266099195894" lon="8.658638272960701"><ele>272.0</ele><time>2026-05-01T14:11:24.997Z</time></trkpt><trkpt lat="42.349125978743714" lon="8.658648291279837"><ele>272.0</ele><time>2026-05-01T14:11:25.997Z</time></trkpt><trkpt lat="42.349015699582154" lon="8.658586722298363"><ele>272.0</ele><time>2026-05-01T14:11:26.998Z</time></trkpt><trkpt lat="42.34888003582129" lon="8.658517155017329"><ele>272.0</ele><time>2026-05-01T14:11:27.998Z</time></trkpt><trkpt lat="42.34875990200638" lon="8.658526198618775"><ele>265.0</ele><time>2026-05-01T14:11:28.998Z</time></trkpt><trkpt lat="42.348684437572466" lon="8.658617532521763"><ele>258.0</ele><time>2026-05-01T14:11:29.998Z</time></trkpt><trkpt lat="42.348668203224534" lon="8.658770663795854"><ele>251.0</ele><time>2026-05-01T14:11:30.998Z</time></trkpt><trkpt lat="42.348718281177284" lon="8.65894536172621"><ele>244.0</ele><time>2026-05-01T14:11:31.998Z</time></trkpt><trkpt lat="42.34879197945473" lon="8.659134921775097"><ele>253.33333333333331</ele><time>2026-05-01T14:11:32.998Z</time></trkpt><trkpt lat="42.348878919768346" lon="8.659342568104849"><ele>262.6666666666667</ele><time>2026-05-01T14:11:33.998Z</time></trkpt><trkpt lat="42.34893988767763" lon="8.659535104368892"><ele>272.0</ele><time>2026-05-01T14:11:34.998Z</time></trkpt><trkpt lat="42.34889749857122" lon="8.659719368643692"><ele>257.33333333333337</ele><time>2026-05-01T14:11:35.999Z</time></trkpt><trkpt lat="42.34883042427592" lon="8.659875527975663"><ele>242.66666666666669</ele><time>2026-05-01T14:11:36.999Z</time></trkpt><trkpt lat="42.34876161706645" lon="8.66009097673713"><ele>228.0</ele><time>2026-05-01T14:11:37.999Z</time></trkpt><trkpt lat="42.3487176026531" lon="8.660327303687906"><ele>227.0</ele><time>2026-05-01T14:11:38.999Z</time></trkpt><trkpt lat="42.34871196322712" lon="8.660576488299224"><ele>226.0</ele><time>2026-05-01T14:11:39.999Z</time></trkpt><trkpt lat="42.3487595625985" lon="8.66080828441416"><ele>225.0</ele><time>2026-05-01T14:11:40.999Z</time></trkpt><trkpt lat="42.34885263764279" lon="8.661005206309087"><ele>225.75</ele><time>2026-05-01T14:11:41.999Z</time></trkpt><trkpt lat="42.34895911049794" lon="8.661177950441202"><ele>226.5</ele><time>2026-05-01T14:11:42.999Z</time></trkpt><trkpt lat="42.34895828991867" lon="8.661343172701162"><ele>227.25</ele><time>2026-05-01T14:11:43.999Z</time></trkpt><trkpt lat="42.348947639146594" lon="8.661477960535784"><ele>228.0</ele><time>2026-05-01T14:11:45Z</time></trkpt><trkpt lat="42.3488422079032" lon="8.661605670977519"><ele>228.0</ele><time>2026-05-01T14:11:46Z</time></trkpt><trkpt lat="42.34877075155046" lon="8.661813720667354"><ele>228.0</ele><time>2026-05-01T14:11:47Z</time></trkpt><trkpt lat="42.3487207071142" lon="8.661999799171388"><ele>228.0</ele><time>2026-05-01T14:11:48Z</time></trkpt><trkpt lat="42.348742201189026" lon="8.662171262706233"><ele>228.0</ele><time>2026-05-01T14:11:49Z</time></trkpt><trkpt lat="42.34883197371185" lon="8.662328442193841"><ele>232.0</ele><time>2026-05-01T14:11:50Z</time></trkpt><trkpt lat="42.348971521838656" lon="8.662502866908577"><ele>236.0</ele><time>2026-05-01T14:11:51Z</time></trkpt><trkpt lat="42.34912826996191" lon="8.66271997417739"><ele>240.0</ele><time>2026-05-01T14:11:52Z</time></trkpt><trkpt lat="42.349244174459365" lon="8.662949050436032"><ele>240.0</ele><time>2026-05-01T14:11:53Z</time></trkpt><trkpt lat="42.349325639872546" lon="8.663122080705666"><ele>240.0</ele><time>2026-05-01T14:11:54Z</time></trkpt><trkpt lat="42.34933787976826" lon="8.663247863788746"><ele>240.0</ele><time>2026-05-01T14:11:55Z</time></trkpt><trkpt lat="42.349277724831104" lon="8.663349408233993"><ele>240.0</ele><time>2026-05-01T14:11:56Z</time></trkpt><trkpt lat="42.34918781591343" lon="8.663489391998088"><ele>240.33333333333331</ele><time>2026-05-01T14:11:57Z</time></trkpt><trkpt lat="42.34910706262984" lon="8.663709260624357"><ele>240.66666666666666</ele><time>2026-05-01T14:11:58Z</time></trkpt><trkpt lat="42.349015318973194" lon="8.663923776164179"><ele>241.0</ele><time>2026-05-01T14:11:59.001Z</time></trkpt><trkpt lat="42.34896692885869" lon="8.664131052958385"><ele>241.0</ele><time>2026-05-01T14:12:00.001Z</time></trkpt><trkpt lat="42.34897328578809" lon="8.66433073481998"><ele>241.0</ele><time>2026-05-01T14:12:01.001Z</time></trkpt><trkpt lat="42.34904119614518" lon="8.664519653404605"><ele>241.0</ele><time>2026-05-01T14:12:02.001Z</time></trkpt><trkpt lat="42.34914731382465" lon="8.66468736219321"><ele>239.75</ele><time>2026-05-01T14:12:03.001Z</time></trkpt><trkpt lat="42.349188263618736" lon="8.664873163144948"><ele>238.5</ele><time>2026-05-01T14:12:04.001Z</time></trkpt><trkpt lat="42.34917793455414" lon="8.66505635143905"><ele>237.25</ele><time>2026-05-01T14:12:05.001Z</time></trkpt><trkpt lat="42.34912316679053" lon="8.665197787446118"><ele>236.0</ele><time>2026-05-01T14:12:06.001Z</time></trkpt><trkpt lat="42.34903273259297" lon="8.665303042137884"><ele>237.25</ele><time>2026-05-01T14:12:07.001Z</time></trkpt><trkpt lat="42.34890924747967" lon="8.665341690082062"><ele>238.5</ele><time>2026-05-01T14:12:08.001Z</time></trkpt><trkpt lat="42.348771299606724" lon="8.6653233154844"><ele>239.75</ele><time>2026-05-01T14:12:09.001Z</time></trkpt><trkpt lat="42.348605401209205" lon="8.665289414785011"><ele>241.0</ele><time>2026-05-01T14:12:10.001Z</time></trkpt><trkpt lat="42.34845662791332" lon="8.665186201050881"><ele>241.0</ele><time>2026-05-01T14:12:11.001Z</time></trkpt><trkpt lat="42.34833208221168" lon="8.66502962472191"><ele>241.0</ele><time>2026-05-01T14:12:12.001Z</time></trkpt><trkpt lat="42.3482428411616" lon="8.664831872363733"><ele>241.0</ele><time>2026-05-01T14:12:13.001Z</time></trkpt><trkpt lat="42.34818512917055" lon="8.664584327782784"><ele>247.0</ele><time>2026-05-01T14:12:14.001Z</time></trkpt><trkpt lat="42.348082552360985" lon="8.664315125400963"><ele>253.0</ele><time>2026-05-01T14:12:15.001Z</time></trkpt><trkpt lat="42.347971363367826" lon="8.664041576153135"><ele>253.0</ele><time>2026-05-01T14:12:16.001Z</time></trkpt><trkpt lat="42.347841377166176" lon="8.663803217255943"><ele>253.0</ele><time>2026-05-01T14:12:17.001Z</time></trkpt><trkpt lat="42.34768255612581" lon="8.66359290369084"><ele>253.0</ele><time>2026-05-01T14:12:18.001Z</time></trkpt><trkpt lat="42.34749155879188" lon="8.663409623791585"><ele>257.3333333333333</ele><time>2026-05-01T14:12:19.001Z</time></trkpt><trkpt lat="42.34729359586682" lon="8.663294603046522"><ele>261.6666666666667</ele><time>2026-05-01T14:12:20.001Z</time></trkpt><trkpt lat="42.347131757307295" lon="8.663215547848745"><ele>266.0</ele><time>2026-05-01T14:12:21.001Z</time></trkpt><trkpt lat="42.34708947585609" lon="8.663002504107933"><ele>266.0</ele><time>2026-05-01T14:12:22.002Z</time></trkpt><trkpt lat="42.3469618638742" lon="8.662850798978202"><ele>266.0</ele><time>2026-05-01T14:12:23.002Z</time></trkpt><trkpt lat="42.34680579391521" lon="8.662704206132624"><ele>266.0</ele><time>2026-05-01T14:12:24.002Z</time></trkpt><trkpt lat="42.34666768454554" lon="8.66249113703864"><ele>254.66666666666669</ele><time>2026-05-01T14:12:25.002Z</time></trkpt><trkpt lat="42.34653496029888" lon="8.662249934762485"><ele>243.33333333333331</ele><time>2026-05-01T14:12:26.002Z</time></trkpt><trkpt lat="42.346471041484335" lon="8.661971160709346"><ele>232.0</ele><time>2026-05-01T14:12:27.002Z</time></trkpt><trkpt lat="42.346393004147515" lon="8.66178495612839"><ele>234.5</ele><time>2026-05-01T14:12:28.002Z</time></trkpt><trkpt lat="42.346305982135036" lon="8.661678786559454"><ele>237.0</ele><time>2026-05-01T14:12:29.002Z</time></trkpt><trkpt lat="42.34616360334283" lon="8.661648062419506"><ele>239.5</ele><time>2026-05-01T14:12:30.002Z</time></trkpt><trkpt lat="42.345996366992075" lon="8.66166966425972"><ele>242.0</ele><time>2026-05-01T14:12:31.002Z</time></trkpt><trkpt lat="42.345871514057166" lon="8.661608323207188"><ele>242.0</ele><time>2026-05-01T14:12:32.002Z</time></trkpt><trkpt lat="42.34578993737333" lon="8.66145521422224"><ele>242.0</ele><time>2026-05-01T14:12:33.002Z</time></trkpt><trkpt lat="42.34566240742155" lon="8.66124044653783"><ele>242.0</ele><time>2026-05-01T14:12:34.002Z</time></trkpt><trkpt lat="42.34550891208907" lon="8.661037016656357"><ele>235.0</ele><time>2026-05-01T14:12:35.002Z</time></trkpt><trkpt lat="42.34531851117727" lon="8.66083222160916"><ele>228.0</ele><time>2026-05-01T14:12:36.002Z</time></trkpt><trkpt lat="42.345127054889474" lon="8.660662839728264"><ele>228.0</ele><time>2026-05-01T14:12:37.002Z</time></trkpt><trkpt lat="42.344975971612165" lon="8.660564644205866"><ele>228.0</ele><time>2026-05-01T14:12:38.002Z</time></trkpt><trkpt lat="42.34486492022928" lon="8.660532732345938"><ele>228.0</ele><time>2026-05-01T14:12:39.002Z</time></trkpt><trkpt lat="42.3447803482957" lon="8.66059782563386"><ele>228.0</ele><time>2026-05-01T14:12:40.002Z</time></trkpt><trkpt lat="42.344718058379925" lon="8.660728959994916"><ele>229.0</ele><time>2026-05-01T14:12:41.002Z</time></trkpt><trkpt lat="42.34467488856098" lon="8.660925557423628"><ele>230.0</ele><time>2026-05-01T14:12:42.002Z</time></trkpt><trkpt lat="42.34459193478633" lon="8.661143315462263"><ele>231.0</ele><time>2026-05-01T14:12:43.002Z</time></trkpt><trkpt lat="42.344497105451964" lon="8.661376084582683"><ele>231.0</ele><time>2026-05-01T14:12:44.002Z</time></trkpt><trkpt lat="42.344412452602676" lon="8.661616875316291"><ele>231.0</ele><time>2026-05-01T14:12:45.002Z</time></trkpt><trkpt lat="42.34435734221433" lon="8.661872580057695"><ele>231.0</ele><time>2026-05-01T14:12:46.002Z</time></trkpt><trkpt lat="42.34430272454088" lon="8.662105807654717"><ele>234.0</ele><time>2026-05-01T14:12:47.002Z</time></trkpt><trkpt lat="42.34421967680001" lon="8.66228887588422"><ele>237.0</ele><time>2026-05-01T14:12:48.002Z</time></trkpt><trkpt lat="42.34414163832396" lon="8.662436863703737"><ele>240.0</ele><time>2026-05-01T14:12:49.002Z</time></trkpt><trkpt lat="42.344059690450635" lon="8.662527584203184"><ele>243.0</ele><time>2026-05-01T14:12:50.002Z</time></trkpt><trkpt lat="42.34398612349566" lon="8.662562492187927"><ele>243.0</ele><time>2026-05-01T14:12:51.002Z</time></trkpt><trkpt lat="42.343917167409934" lon="8.662549087722436"><ele>243.0</ele><time>2026-05-01T14:12:52.002Z</time></trkpt><trkpt lat="42.3438665301063" lon="8.662485025173718"><ele>243.0</ele><time>2026-05-01T14:12:53.003Z</time></trkpt><trkpt lat="42.34380511250324" lon="8.662428032948458"><ele>243.0</ele><time>2026-05-01T14:12:54.003Z</time></trkpt><trkpt lat="42.343743490384895" lon="8.662348076849272"><ele>243.0</ele><time>2026-05-01T14:12:55.003Z</time></trkpt><trkpt lat="42.34371799900618" lon="8.662214930589624"><ele>243.0</ele><time>2026-05-01T14:12:56.003Z</time></trkpt><trkpt lat="42.34370097739694" lon="8.66205101440137"><ele>246.0</ele><time>2026-05-01T14:12:57.003Z</time></trkpt><trkpt lat="42.34367231848668" lon="8.66187029720371"><ele>249.0</ele><time>2026-05-01T14:12:58.003Z</time></trkpt><trkpt lat="42.34363219072793" lon="8.661676264920192"><ele>252.0</ele><time>2026-05-01T14:12:59.003Z</time></trkpt><trkpt lat="42.34359249487206" lon="8.661466488399292"><ele>255.0</ele><time>2026-05-01T14:13:00.003Z</time></trkpt><trkpt lat="42.34355970689388" lon="8.661246739115677"><ele>252.66666666666669</ele><time>2026-05-01T14:13:01.003Z</time></trkpt><trkpt lat="42.34353644919424" lon="8.661012985250107"><ele>250.33333333333334</ele><time>2026-05-01T14:13:02.003Z</time></trkpt><trkpt lat="42.34352982968156" lon="8.660772189376575"><ele>248.0</ele><time>2026-05-01T14:13:03.003Z</time></trkpt><trkpt lat="42.343539929529946" lon="8.660523727558445"><ele>246.33333333333334</ele><time>2026-05-01T14:13:04.003Z</time></trkpt><trkpt lat="42.34356096079235" lon="8.660254974418896"><ele>244.66666666666669</ele><time>2026-05-01T14:13:05.003Z</time></trkpt><trkpt lat="42.343588444312005" lon="8.659985978585901"><ele>243.0</ele><time>2026-05-01T14:13:06.003Z</time></trkpt><trkpt lat="42.3436226182621" lon="8.659734006066296"><ele>243.0</ele><time>2026-05-01T14:13:07.003Z</time></trkpt><trkpt lat="42.34364456460126" lon="8.659504375337528"><ele>243.0</ele><time>2026-05-01T14:13:08.003Z</time></trkpt><trkpt lat="42.34364843349083" lon="8.659294042792508"><ele>243.0</ele><time>2026-05-01T14:13:09.003Z</time></trkpt><trkpt lat="42.343631200543946" lon="8.659114910849334"><ele>239.8</ele><time>2026-05-01T14:13:10.003Z</time></trkpt><trkpt lat="42.34358878104641" lon="8.658981245839774"><ele>236.60000000000002</ele><time>2026-05-01T14:13:11.003Z</time></trkpt><trkpt lat="42.3435059599329" lon="8.658906219614414"><ele>233.39999999999998</ele><time>2026-05-01T14:13:12.003Z</time></trkpt><trkpt lat="42.34339928805119" lon="8.658910330687771"><ele>230.2</ele><time>2026-05-01T14:13:13.003Z</time></trkpt><trkpt lat="42.343290227004594" lon="8.658991060639067"><ele>227.0</ele><time>2026-05-01T14:13:14.003Z</time></trkpt><trkpt lat="42.34318924403373" lon="8.659123919774883"><ele>227.0</ele><time>2026-05-01T14:13:15.003Z</time></trkpt><trkpt lat="42.34309163373773" lon="8.659284201451626"><ele>227.0</ele><time>2026-05-01T14:13:16.003Z</time></trkpt><trkpt lat="42.34297743496491" lon="8.659435620911486"><ele>227.0</ele><time>2026-05-01T14:13:17.003Z</time></trkpt><trkpt lat="42.342832996526276" lon="8.65956147351648"><ele>233.33333333333334</ele><time>2026-05-01T14:13:18.003Z</time></trkpt><trkpt lat="42.342663845590025" lon="8.659639326586294"><ele>239.66666666666669</ele><time>2026-05-01T14:13:19.003Z</time></trkpt><trkpt lat="42.34248070725727" lon="8.659654779347912"><ele>246.0</ele><time>2026-05-01T14:13:20.003Z</time></trkpt><trkpt lat="42.342290641204876" lon="8.659648516956292"><ele>243.0</ele><time>2026-05-01T14:13:21.003Z</time></trkpt><trkpt lat="42.34208670442743" lon="8.659664463932184"><ele>240.0</ele><time>2026-05-01T14:13:22.003Z</time></trkpt><trkpt lat="42.341893424180356" lon="8.65971438197072"><ele>237.0</ele><time>2026-05-01T14:13:23.003Z</time></trkpt><trkpt lat="42.34172348106915" lon="8.659776399166565"><ele>237.0</ele><time>2026-05-01T14:13:24.003Z</time></trkpt><trkpt lat="42.34156744423814" lon="8.659828120229943"><ele>237.0</ele><time>2026-05-01T14:13:25.003Z</time></trkpt><trkpt lat="42.34141914550942" lon="8.659862133908174"><ele>237.0</ele><time>2026-05-01T14:13:26.003Z</time></trkpt><trkpt lat="42.341298037502455" lon="8.65988003500759"><ele>237.0</ele><time>2026-05-01T14:13:27.003Z</time></trkpt><trkpt lat="42.34121796134258" lon="8.659909113679694"><ele>237.0</ele><time>2026-05-01T14:13:28.004Z</time></trkpt><trkpt lat="42.3411702149534" lon="8.659968485462077"><ele>237.0</ele><time>2026-05-01T14:13:29.004Z</time></trkpt><trkpt lat="42.34113497297712" lon="8.660118706021331"><ele>237.0</ele><time>2026-05-01T14:13:30.998Z</time></trkpt><trkpt lat="42.34110589054761" lon="8.660198363805792"><ele>237.0</ele><time>2026-05-01T14:13:31.998Z</time></trkpt><trkpt lat="42.341059550239365" lon="8.660264503805271"><ele>237.0</ele><time>2026-05-01T14:13:32.998Z</time></trkpt><trkpt lat="42.34099714901538" lon="8.660311321305715"><ele>237.0</ele><time>2026-05-01T14:13:33.998Z</time></trkpt><trkpt lat="42.34092306406536" lon="8.660328530810384"><ele>236.99999999999997</ele><time>2026-05-01T14:13:34.998Z</time></trkpt><trkpt lat="42.34084674165612" lon="8.660318292941206"><ele>237.0</ele><time>2026-05-01T14:13:35.999Z</time></trkpt><trkpt lat="42.34077938138023" lon="8.660276487825294"><ele>236.99999999999997</ele><time>2026-05-01T14:13:36.999Z</time></trkpt><trkpt lat="42.34072674703054" lon="8.660209343133255"><ele>236.99999999999997</ele><time>2026-05-01T14:13:37.999Z</time></trkpt><trkpt lat="42.34069158242107" lon="8.660117821333284"><ele>237.0</ele><time>2026-05-01T14:13:38.999Z</time></trkpt><trkpt lat="42.340672888352316" lon="8.66001767732067"><ele>236.99999999999997</ele><time>2026-05-01T14:13:39.999Z</time></trkpt><trkpt lat="42.34066592181705" lon="8.659922283343855"><ele>236.99999999999997</ele><time>2026-05-01T14:13:40.999Z</time></trkpt><trkpt lat="42.340660940003964" lon="8.659769752127595"><ele>237.0</ele><time>2026-05-01T14:13:42.999Z</time></trkpt><trkpt lat="42.34065449704319" lon="8.659648296607186"><ele>237.0</ele><time>2026-05-01T14:13:44.999Z</time></trkpt><trkpt lat="42.34065776093282" lon="8.659542947902274"><ele>237.0</ele><time>2026-05-01T14:13:46.999Z</time></trkpt><trkpt lat="42.34060737380896" lon="8.659663759093627"><ele>237.0</ele><time>2026-05-01T14:13:52Z</time></trkpt><trkpt lat="42.340628295811015" lon="8.659777750157215"><ele>237.0</ele><time>2026-05-01T14:13:53Z</time></trkpt><trkpt lat="42.3406427880638" lon="8.659888325296507"><ele>237.0</ele><time>2026-05-01T14:13:54Z</time></trkpt><trkpt lat="42.34065239497482" lon="8.659984617515516"><ele>237.0</ele><time>2026-05-01T14:13:55Z</time></trkpt><trkpt lat="42.34066978124889" lon="8.66007684168456"><ele>237.0</ele><time>2026-05-01T14:13:56Z</time></trkpt><trkpt lat="42.34070243392331" lon="8.660180192124782"><ele>237.0</ele><time>2026-05-01T14:13:57Z</time></trkpt><trkpt lat="42.34075924824332" lon="8.660283715548902"><ele>237.0</ele><time>2026-05-01T14:13:58Z</time></trkpt><trkpt lat="42.340832066585094" lon="8.66034726335496"><ele>237.0</ele><time>2026-05-01T14:13:59Z</time></trkpt><trkpt lat="42.340904400347206" lon="8.660358179411045"><ele>237.0</ele><time>2026-05-01T14:14:00Z</time></trkpt><trkpt lat="42.34102338112617" lon="8.660312815717178"><ele>237.0</ele><time>2026-05-01T14:14:02Z</time></trkpt><trkpt lat="42.341095734994155" lon="8.660245073788799"><ele>237.0</ele><time>2026-05-01T14:14:03Z</time></trkpt><trkpt lat="42.341162362431106" lon="8.66013091372944"><ele>237.0</ele><time>2026-05-01T14:14:04Z</time></trkpt><trkpt lat="42.34120455497413" lon="8.660019079249937"><ele>237.0</ele><time>2026-05-01T14:14:05Z</time></trkpt><trkpt lat="42.341231542616704" lon="8.659938580267307"><ele>237.0</ele><time>2026-05-01T14:14:06Z</time></trkpt><trkpt lat="42.34132993982432" lon="8.659871936883818"><ele>237.0</ele><time>2026-05-01T14:14:08.001Z</time></trkpt><trkpt lat="42.34141908734541" lon="8.659862532136499"><ele>237.0</ele><time>2026-05-01T14:14:09.001Z</time></trkpt><trkpt lat="42.341544245528226" lon="8.659847351256875"><ele>237.0</ele><time>2026-05-01T14:14:10.001Z</time></trkpt><trkpt lat="42.34168547579057" lon="8.659824946841983"><ele>237.0</ele><time>2026-05-01T14:14:11.001Z</time></trkpt><trkpt lat="42.34182057342834" lon="8.659790291721311"><ele>237.0</ele><time>2026-05-01T14:14:12.001Z</time></trkpt><trkpt lat="42.3419478757388" lon="8.659741777374697"><ele>237.0</ele><time>2026-05-01T14:14:13.001Z</time></trkpt><trkpt lat="42.34207599703589" lon="8.659691535152811"><ele>237.0</ele><time>2026-05-01T14:14:14.001Z</time></trkpt><trkpt lat="42.34221052290562" lon="8.659659813440342"><ele>237.0</ele><time>2026-05-01T14:14:15.001Z</time></trkpt><trkpt lat="42.34234793865223" lon="8.659648203855232"><ele>239.25</ele><time>2026-05-01T14:14:16.001Z</time></trkpt><trkpt lat="42.34248430115282" lon="8.659645191630648"><ele>241.5</ele><time>2026-05-01T14:14:17.001Z</time></trkpt><trkpt lat="42.342620805517946" lon="8.659640055301136"><ele>243.75</ele><time>2026-05-01T14:14:18.001Z</time></trkpt><trkpt lat="42.34274831439501" lon="8.659612418316675"><ele>246.0</ele><time>2026-05-01T14:14:19.001Z</time></trkpt><trkpt lat="42.3428521584095" lon="8.659566512605128"><ele>246.0</ele><time>2026-05-01T14:14:20.001Z</time></trkpt><trkpt lat="42.34293368890253" lon="8.659513037904416"><ele>246.0</ele><time>2026-05-01T14:14:21.001Z</time></trkpt><trkpt lat="42.343000457159945" lon="8.659455392902151"><ele>246.0</ele><time>2026-05-01T14:14:22.001Z</time></trkpt><trkpt lat="42.34305240661141" lon="8.659401783552763"><ele>246.0</ele><time>2026-05-01T14:14:23.001Z</time></trkpt><trkpt lat="42.3431039718125" lon="8.659330691459424"><ele>246.0</ele><time>2026-05-01T14:14:24.001Z</time></trkpt><trkpt lat="42.343172059697814" lon="8.659236945578236"><ele>246.0</ele><time>2026-05-01T14:14:25.001Z</time></trkpt><trkpt lat="42.343244252112974" lon="8.659145442050235"><ele>242.83333333333334</ele><time>2026-05-01T14:14:26.001Z</time></trkpt><trkpt lat="42.34330310810565" lon="8.659070750101522"><ele>239.66666666666669</ele><time>2026-05-01T14:14:27.001Z</time></trkpt><trkpt lat="42.343368963766544" lon="8.658997137338952"><ele>236.5</ele><time>2026-05-01T14:14:28.001Z</time></trkpt><trkpt lat="42.34344191448919" lon="8.65896217824369"><ele>233.33333333333334</ele><time>2026-05-01T14:14:29.001Z</time></trkpt><trkpt lat="42.343514635133765" lon="8.658978013750005"><ele>230.16666666666669</ele><time>2026-05-01T14:14:30.001Z</time></trkpt><trkpt lat="42.34357960729031" lon="8.659030294499349"><ele>227.0</ele><time>2026-05-01T14:14:31.001Z</time></trkpt><trkpt lat="42.34362301847069" lon="8.659125666575692"><ele>227.0</ele><time>2026-05-01T14:14:32.001Z</time></trkpt><trkpt lat="42.34363717337692" lon="8.659248173470615"><ele>227.0</ele><time>2026-05-01T14:14:33.001Z</time></trkpt><trkpt lat="42.343634514018795" lon="8.65939938342514"><ele>227.0</ele><time>2026-05-01T14:14:34.001Z</time></trkpt><trkpt lat="42.343620906904626" lon="8.65958712159238"><ele>227.0</ele><time>2026-05-01T14:14:35.001Z</time></trkpt><trkpt lat="42.34360342430393" lon="8.659724520257734"><ele>227.0</ele><time>2026-05-01T14:14:36.002Z</time></trkpt><trkpt lat="42.343601047114376" lon="8.659831357662569"><ele>227.0</ele><time>2026-05-01T14:14:38.002Z</time></trkpt><trkpt lat="42.34365671578023" lon="8.659781666939908"><ele>227.0</ele><time>2026-05-01T14:14:40.002Z</time></trkpt><trkpt lat="42.343658742256714" lon="8.659614696021727"><ele>227.0</ele><time>2026-05-01T14:14:42.002Z</time></trkpt><trkpt lat="42.34365046590237" lon="8.659457032024298"><ele>227.0</ele><time>2026-05-01T14:14:43.002Z</time></trkpt><trkpt lat="42.343644666823074" lon="8.659274316227828"><ele>227.0</ele><time>2026-05-01T14:14:44.002Z</time></trkpt><trkpt lat="42.343627822786054" lon="8.659103654419543"><ele>227.0</ele><time>2026-05-01T14:14:45.002Z</time></trkpt><trkpt lat="42.34357652790796" lon="8.658983338178368"><ele>227.0</ele><time>2026-05-01T14:14:46.002Z</time></trkpt><trkpt lat="42.34348600579917" lon="8.658923214291988"><ele>227.0</ele><time>2026-05-01T14:14:47.002Z</time></trkpt><trkpt lat="42.34337861731692" lon="8.658937262077114"><ele>227.0</ele><time>2026-05-01T14:14:48.002Z</time></trkpt><trkpt lat="42.34327117348792" lon="8.65901221212571"><ele>227.0</ele><time>2026-05-01T14:14:49.002Z</time></trkpt><trkpt lat="42.343166707418646" lon="8.659160977818678"><ele>227.0</ele><time>2026-05-01T14:14:50.002Z</time></trkpt><trkpt lat="42.34305389665747" lon="8.65934641070889"><ele>227.0</ele><time>2026-05-01T14:14:51.002Z</time></trkpt><trkpt lat="42.34291269100607" lon="8.65950557659033"><ele>227.0</ele><time>2026-05-01T14:14:52.002Z</time></trkpt><trkpt lat="42.34273389395798" lon="8.65961030091365"><ele>230.33333333333334</ele><time>2026-05-01T14:14:53.002Z</time></trkpt><trkpt lat="42.34252594395342" lon="8.659661360258246"><ele>233.66666666666669</ele><time>2026-05-01T14:14:54.002Z</time></trkpt><trkpt lat="42.34229543527944" lon="8.659661742973157"><ele>237.0</ele><time>2026-05-01T14:14:55.002Z</time></trkpt><trkpt lat="42.34203163147386" lon="8.65969068864723"><ele>237.0</ele><time>2026-05-01T14:14:56.002Z</time></trkpt><trkpt lat="42.341765553655115" lon="8.659765372720976"><ele>237.0</ele><time>2026-05-01T14:14:57.002Z</time></trkpt><trkpt lat="42.34153252984152" lon="8.659830512208824"><ele>237.0</ele><time>2026-05-01T14:14:58.002Z</time></trkpt><trkpt lat="42.341365499158485" lon="8.659870344163323"><ele>237.0</ele><time>2026-05-01T14:14:59.002Z</time></trkpt><trkpt lat="42.341247456567565" lon="8.659898221407824"><ele>237.0</ele><time>2026-05-01T14:15:00.002Z</time></trkpt><trkpt lat="42.34116983357519" lon="8.659957364552408"><ele>237.0</ele><time>2026-05-01T14:15:01.002Z</time></trkpt><trkpt lat="42.3411108822314" lon="8.660077856407515"><ele>237.0</ele><time>2026-05-01T14:15:02.002Z</time></trkpt><trkpt lat="42.34107545553326" lon="8.66020972208444"><ele>237.0</ele><time>2026-05-01T14:15:03.002Z</time></trkpt><trkpt lat="42.34099711985915" lon="8.660314399702434"><ele>237.0</ele><time>2026-05-01T14:15:04.002Z</time></trkpt><trkpt lat="42.34088416398721" lon="8.660340079806838"><ele>237.0</ele><time>2026-05-01T14:15:05.002Z</time></trkpt><trkpt lat="42.34077259343171" lon="8.660270466282524"><ele>237.0</ele><time>2026-05-01T14:15:06.002Z</time></trkpt><trkpt lat="42.34068529612972" lon="8.660118553103247"><ele>237.0</ele><time>2026-05-01T14:15:07.002Z</time></trkpt><trkpt lat="42.34064260264633" lon="8.659904722809133"><ele>237.0</ele><time>2026-05-01T14:15:08.003Z</time></trkpt><trkpt lat="42.340627723313126" lon="8.659628391824043"><ele>233.0</ele><time>2026-05-01T14:15:09.003Z</time></trkpt><trkpt lat="42.340596055948744" lon="8.659335110198377"><ele>229.0</ele><time>2026-05-01T14:15:10.003Z</time></trkpt><trkpt lat="42.340603114876565" lon="8.659125569639524"><ele>225.0</ele><time>2026-05-01T14:15:11.003Z</time></trkpt><trkpt lat="42.340678891188745" lon="8.658974941691682"><ele>225.0</ele><time>2026-05-01T14:15:12.003Z</time></trkpt><trkpt lat="42.340774801527964" lon="8.65881704862295"><ele>225.0</ele><time>2026-05-01T14:15:13.003Z</time></trkpt><trkpt lat="42.34084565965667" lon="8.658627115849988"><ele>225.0</ele><time>2026-05-01T14:15:14.003Z</time></trkpt><trkpt lat="42.34090726737989" lon="8.658441167024613"><ele>227.8</ele><time>2026-05-01T14:15:15.003Z</time></trkpt><trkpt lat="42.34097477494217" lon="8.658301953946742"><ele>230.6</ele><time>2026-05-01T14:15:16.003Z</time></trkpt><trkpt lat="42.34103459366047" lon="8.658183476818408"><ele>233.39999999999998</ele><time>2026-05-01T14:15:17.003Z</time></trkpt><trkpt lat="42.34107019242726" lon="8.658076032646528"><ele>236.2</ele><time>2026-05-01T14:15:18.003Z</time></trkpt><trkpt lat="42.34108034650961" lon="8.6579826023447"><ele>239.0</ele><time>2026-05-01T14:15:19.003Z</time></trkpt><trkpt lat="42.341075713790104" lon="8.65789309978401"><ele>239.0</ele><time>2026-05-01T14:15:20.003Z</time></trkpt><trkpt lat="42.34105629691083" lon="8.657776077802188"><ele>238.99999999999997</ele><time>2026-05-01T14:15:22.003Z</time></trkpt><trkpt lat="42.341030305331614" lon="8.657679634133746"><ele>238.99999999999997</ele><time>2026-05-01T14:15:24.003Z</time></trkpt><trkpt lat="42.34098675043029" lon="8.657554724459452"><ele>239.0</ele><time>2026-05-01T14:15:58.999Z</time></trkpt><trkpt lat="42.340954375600624" lon="8.657390497168802"><ele>239.0</ele><time>2026-05-01T14:16:01Z</time></trkpt><trkpt lat="42.340934268182245" lon="8.657295002639676"><ele>239.0</ele><time>2026-05-01T14:16:02Z</time></trkpt><trkpt lat="42.34091333954834" lon="8.657188138486458"><ele>238.99999999999997</ele><time>2026-05-01T14:16:03Z</time></trkpt><trkpt lat="42.34088733119149" lon="8.65707139720412"><ele>238.99999999999997</ele><time>2026-05-01T14:16:04Z</time></trkpt><trkpt lat="42.34086362347003" lon="8.656978351080465"><ele>239.0</ele><time>2026-05-01T14:16:05Z</time></trkpt><trkpt lat="42.34081586646777" lon="8.656869973636487"><ele>239.0</ele><time>2026-05-01T14:16:07Z</time></trkpt><trkpt lat="42.340733905031776" lon="8.656738285960449"><ele>240.00000000000003</ele><time>2026-05-01T14:16:09Z</time></trkpt><trkpt lat="42.34066828145184" lon="8.656668848331348"><ele>241.0</ele><time>2026-05-01T14:16:10Z</time></trkpt><trkpt lat="42.34059631921141" lon="8.656618134897505"><ele>242.0</ele><time>2026-05-01T14:16:11Z</time></trkpt><trkpt lat="42.3405208669459" lon="8.656586973444886"><ele>243.0</ele><time>2026-05-01T14:16:12Z</time></trkpt><trkpt lat="42.34045468641957" lon="8.656575273624249"><ele>244.00000000000003</ele><time>2026-05-01T14:16:13Z</time></trkpt><trkpt lat="42.34035128667068" lon="8.656538681120301"><ele>245.0</ele><time>2026-05-01T14:16:15Z</time></trkpt><trkpt lat="42.34027594079909" lon="8.656531010319929"><ele>245.00000000000003</ele><time>2026-05-01T14:16:16Z</time></trkpt><trkpt lat="42.34017837584593" lon="8.65652454264352"><ele>245.0</ele><time>2026-05-01T14:16:17.001Z</time></trkpt><trkpt lat="42.34008320500286" lon="8.656539264351483"><ele>245.0</ele><time>2026-05-01T14:16:18.001Z</time></trkpt><trkpt lat="42.340008575303465" lon="8.656526463602464"><ele>245.0</ele><time>2026-05-01T14:16:19.001Z</time></trkpt><trkpt lat="42.33994540077182" lon="8.656520092077583"><ele>245.00000000000003</ele><time>2026-05-01T14:16:20.001Z</time></trkpt><trkpt lat="42.33987762574076" lon="8.656491032055252"><ele>245.0</ele><time>2026-05-01T14:16:21.001Z</time></trkpt><trkpt lat="42.33981423184287" lon="8.656418717394564"><ele>245.0</ele><time>2026-05-01T14:16:22.001Z</time></trkpt><trkpt lat="42.33978164049376" lon="8.656290125532438"><ele>245.0</ele><time>2026-05-01T14:16:23.001Z</time></trkpt><trkpt lat="42.33975522859126" lon="8.656166531672731"><ele>245.0</ele><time>2026-05-01T14:16:24.001Z</time></trkpt><trkpt lat="42.33971474883875" lon="8.656057943541942"><ele>245.0</ele><time>2026-05-01T14:16:25.001Z</time></trkpt><trkpt lat="42.339688917224244" lon="8.655944008574846"><ele>245.0</ele><time>2026-05-01T14:16:26.001Z</time></trkpt><trkpt lat="42.339663712811046" lon="8.655826601398182"><ele>244.6</ele><time>2026-05-01T14:16:27.001Z</time></trkpt><trkpt lat="42.339652795170906" lon="8.655701009653606"><ele>244.2</ele><time>2026-05-01T14:16:28.001Z</time></trkpt><trkpt lat="42.339651443678854" lon="8.655567548200642"><ele>243.8</ele><time>2026-05-01T14:16:29.001Z</time></trkpt><trkpt lat="42.339656048818426" lon="8.655415932201949"><ele>243.4</ele><time>2026-05-01T14:16:30.001Z</time></trkpt><trkpt lat="42.339661353003905" lon="8.655273920070368"><ele>243.0</ele><time>2026-05-01T14:16:31.001Z</time></trkpt><trkpt lat="42.33965544854519" lon="8.655155656557247"><ele>243.0</ele><time>2026-05-01T14:16:32.001Z</time></trkpt><trkpt lat="42.33963694632162" lon="8.655039852570027"><ele>243.0</ele><time>2026-05-01T14:16:33.001Z</time></trkpt><trkpt lat="42.33960383122635" lon="8.65493107084111"><ele>243.0</ele><time>2026-05-01T14:16:34.001Z</time></trkpt><trkpt lat="42.3395596975047" lon="8.654846435827048"><ele>243.0</ele><time>2026-05-01T14:16:35.001Z</time></trkpt><trkpt lat="42.339500171413825" lon="8.654768598546601"><ele>243.0</ele><time>2026-05-01T14:16:37.001Z</time></trkpt><trkpt lat="42.339433739401144" lon="8.65471226268211"><ele>243.0</ele><time>2026-05-01T14:16:39.001Z</time></trkpt><trkpt lat="42.3393723079869" lon="8.654683366361498"><ele>243.0</ele><time>2026-05-01T14:16:41.001Z</time></trkpt><trkpt lat="42.339299801212476" lon="8.654659499541099"><ele>243.0</ele><time>2026-05-01T14:16:43.002Z</time></trkpt><trkpt lat="42.33923650753407" lon="8.654648699031672"><ele>243.0</ele><time>2026-05-01T14:16:45.002Z</time></trkpt><trkpt lat="42.33912827694186" lon="8.654637655569491"><ele>243.0</ele><time>2026-05-01T14:16:47.002Z</time></trkpt><trkpt lat="42.33902276294557" lon="8.654656142160912"><ele>243.0</ele><time>2026-05-01T14:16:49.002Z</time></trkpt><trkpt lat="42.33893008572894" lon="8.65467685920141"><ele>243.0</ele><time>2026-05-01T14:16:51.002Z</time></trkpt><trkpt lat="42.33886750014839" lon="8.65469981065372"><ele>245.4</ele><time>2026-05-01T14:16:52.002Z</time></trkpt><trkpt lat="42.338796453347854" lon="8.654707925175044"><ele>247.8</ele><time>2026-05-01T14:16:53.002Z</time></trkpt><trkpt lat="42.33873051484393" lon="8.654700161436185"><ele>250.2</ele><time>2026-05-01T14:16:54.002Z</time></trkpt><trkpt lat="42.33860323442778" lon="8.654654084762385"><ele>252.6</ele><time>2026-05-01T14:16:56.002Z</time></trkpt><trkpt lat="42.338522580852796" lon="8.654601417816476"><ele>255.0</ele><time>2026-05-01T14:16:57.002Z</time></trkpt><trkpt lat="42.33844932342915" lon="8.65450805625515"><ele>251.6</ele><time>2026-05-01T14:16:58.002Z</time></trkpt><trkpt lat="42.338392693119296" lon="8.654385956625992"><ele>248.2</ele><time>2026-05-01T14:16:59.002Z</time></trkpt><trkpt lat="42.33835921231682" lon="8.654245504520697"><ele>244.8</ele><time>2026-05-01T14:17:00.002Z</time></trkpt><trkpt lat="42.33833572932512" lon="8.654098601951652"><ele>241.4</ele><time>2026-05-01T14:17:01.002Z</time></trkpt><trkpt lat="42.33829213466155" lon="8.65395431939926"><ele>238.0</ele><time>2026-05-01T14:17:02.002Z</time></trkpt><trkpt lat="42.338212350846014" lon="8.65381616149375"><ele>238.0</ele><time>2026-05-01T14:17:03.002Z</time></trkpt><trkpt lat="42.33810578847715" lon="8.6536893823574"><ele>238.0</ele><time>2026-05-01T14:17:04.002Z</time></trkpt><trkpt lat="42.337992127393" lon="8.653569355107024"><ele>238.0</ele><time>2026-05-01T14:17:05.002Z</time></trkpt><trkpt lat="42.33788848934093" lon="8.653416703551205"><ele>238.0</ele><time>2026-05-01T14:17:06.002Z</time></trkpt><trkpt lat="42.3377825078801" lon="8.653262747258445"><ele>239.5</ele><time>2026-05-01T14:17:07.002Z</time></trkpt><trkpt lat="42.33770628933035" lon="8.653098950807799"><ele>241.0</ele><time>2026-05-01T14:17:08.002Z</time></trkpt><trkpt lat="42.337654524319696" lon="8.652931193969016"><ele>242.5</ele><time>2026-05-01T14:17:09.002Z</time></trkpt><trkpt lat="42.33764642754724" lon="8.652734576833495"><ele>244.0</ele><time>2026-05-01T14:17:10.002Z</time></trkpt><trkpt lat="42.337669196514504" lon="8.652527900011941"><ele>244.0</ele><time>2026-05-01T14:17:11.002Z</time></trkpt><trkpt lat="42.337700341918634" lon="8.652341558172804"><ele>244.0</ele><time>2026-05-01T14:17:12.002Z</time></trkpt><trkpt lat="42.33771240933715" lon="8.65216901275302"><ele>244.0</ele><time>2026-05-01T14:17:13.002Z</time></trkpt><trkpt lat="42.337680347693336" lon="8.651999021252776"><ele>244.0</ele><time>2026-05-01T14:17:14.002Z</time></trkpt><trkpt lat="42.33760982430274" lon="8.65184739320714"><ele>244.75</ele><time>2026-05-01T14:17:15.003Z</time></trkpt><trkpt lat="42.3375058129358" lon="8.651719162897335"><ele>245.5</ele><time>2026-05-01T14:17:16.003Z</time></trkpt><trkpt lat="42.33737292083284" lon="8.651651772027993"><ele>246.25</ele><time>2026-05-01T14:17:17.003Z</time></trkpt><trkpt lat="42.33722961359383" lon="8.651649071861353"><ele>247.0</ele><time>2026-05-01T14:17:18.003Z</time></trkpt><trkpt lat="42.33708280687725" lon="8.651677034400509"><ele>247.0</ele><time>2026-05-01T14:17:19.003Z</time></trkpt><trkpt lat="42.33694380408457" lon="8.651659672537978"><ele>247.0</ele><time>2026-05-01T14:17:20.003Z</time></trkpt><trkpt lat="42.33680972431489" lon="8.651644702934764"><ele>247.0</ele><time>2026-05-01T14:17:21.003Z</time></trkpt><trkpt lat="42.33668205300951" lon="8.65159282221091"><ele>247.0</ele><time>2026-05-01T14:17:22.003Z</time></trkpt><trkpt lat="42.33657638953484" lon="8.65149118061525"><ele>247.0</ele><time>2026-05-01T14:17:23.003Z</time></trkpt><trkpt lat="42.336498159620234" lon="8.651352422886557"><ele>247.0</ele><time>2026-05-01T14:17:24.003Z</time></trkpt><trkpt lat="42.33641018778412" lon="8.651256406698517"><ele>247.0</ele><time>2026-05-01T14:17:25.003Z</time></trkpt><trkpt lat="42.33633298002357" lon="8.651162701990978"><ele>247.0</ele><time>2026-05-01T14:17:26.003Z</time></trkpt><trkpt lat="42.33622534996866" lon="8.651106698549174"><ele>243.5</ele><time>2026-05-01T14:17:27.003Z</time></trkpt><trkpt lat="42.33609021952393" lon="8.651094924249252"><ele>240.0</ele><time>2026-05-01T14:17:28.003Z</time></trkpt><trkpt lat="42.33595608187831" lon="8.651098188786543"><ele>236.5</ele><time>2026-05-01T14:17:29.003Z</time></trkpt><trkpt lat="42.335824262607886" lon="8.65109365868365"><ele>233.0</ele><time>2026-05-01T14:17:30.003Z</time></trkpt><trkpt lat="42.335696766996556" lon="8.651082560181147"><ele>233.0</ele><time>2026-05-01T14:17:31.003Z</time></trkpt><trkpt lat="42.33557434720359" lon="8.651046153540058"><ele>233.0</ele><time>2026-05-01T14:17:32.003Z</time></trkpt><trkpt lat="42.33547100698644" lon="8.65101849444781"><ele>233.0</ele><time>2026-05-01T14:17:33.003Z</time></trkpt><trkpt lat="42.33537753523219" lon="8.650989085432562"><ele>233.0</ele><time>2026-05-01T14:17:34.003Z</time></trkpt><trkpt lat="42.33531668017839" lon="8.650895051412018"><ele>233.0</ele><time>2026-05-01T14:17:35.003Z</time></trkpt><trkpt lat="42.33528260513608" lon="8.650760215257574"><ele>240.0</ele><time>2026-05-01T14:17:36.003Z</time></trkpt><trkpt lat="42.33528141453831" lon="8.65060065465121"><ele>247.0</ele><time>2026-05-01T14:17:37.003Z</time></trkpt><trkpt lat="42.335332973282235" lon="8.650439705493868"><ele>254.0</ele><time>2026-05-01T14:17:38.003Z</time></trkpt><trkpt lat="42.33533283314678" lon="8.65029033153967"><ele>261.0</ele><time>2026-05-01T14:17:39.003Z</time></trkpt><trkpt lat="42.33530924202681" lon="8.650159587424252"><ele>261.0</ele><time>2026-05-01T14:17:40.003Z</time></trkpt><trkpt lat="42.335244328288326" lon="8.65003601863679"><ele>261.0</ele><time>2026-05-01T14:17:41.003Z</time></trkpt><trkpt lat="42.33518477902549" lon="8.649909000018056"><ele>261.0</ele><time>2026-05-01T14:17:41.997Z</time></trkpt><trkpt lat="42.33516229350736" lon="8.649769021993546"><ele>261.0</ele><time>2026-05-01T14:17:42.997Z</time></trkpt><trkpt lat="42.335194656472055" lon="8.649636530109754"><ele>261.0</ele><time>2026-05-01T14:17:43.997Z</time></trkpt><trkpt lat="42.3352901830446" lon="8.649533856381735"><ele>264.5</ele><time>2026-05-01T14:17:44.998Z</time></trkpt><trkpt lat="42.335400150741414" lon="8.649432092185528"><ele>268.0</ele><time>2026-05-01T14:17:45.998Z</time></trkpt><trkpt lat="42.33547969626331" lon="8.649285722989815"><ele>271.5</ele><time>2026-05-01T14:17:46.998Z</time></trkpt><trkpt lat="42.33556193861274" lon="8.64915320015957"><ele>275.0</ele><time>2026-05-01T14:17:47.998Z</time></trkpt><trkpt lat="42.33565971866584" lon="8.649057462217666"><ele>265.5</ele><time>2026-05-01T14:17:48.998Z</time></trkpt><trkpt lat="42.335784107972096" lon="8.649004273939754"><ele>256.0</ele><time>2026-05-01T14:17:49.998Z</time></trkpt><trkpt lat="42.3359258934556" lon="8.648971263746281"><ele>246.5</ele><time>2026-05-01T14:17:50.998Z</time></trkpt><trkpt lat="42.33605968197442" lon="8.648908510488551"><ele>237.0</ele><time>2026-05-01T14:17:51.998Z</time></trkpt><trkpt lat="42.336168390590785" lon="8.648790051960754"><ele>237.0</ele><time>2026-05-01T14:17:52.998Z</time></trkpt><trkpt lat="42.336244299970986" lon="8.648635360468786"><ele>237.0</ele><time>2026-05-01T14:17:53.998Z</time></trkpt><trkpt lat="42.33628280937593" lon="8.648460878336296"><ele>237.0</ele><time>2026-05-01T14:17:54.999Z</time></trkpt><trkpt lat="42.33629238125479" lon="8.648270741920701"><ele>237.0</ele><time>2026-05-01T14:17:55.999Z</time></trkpt><trkpt lat="42.33628465656631" lon="8.64808659585505"><ele>243.5</ele><time>2026-05-01T14:17:56.999Z</time></trkpt><trkpt lat="42.33627504167979" lon="8.647908580738761"><ele>250.0</ele><time>2026-05-01T14:17:57.999Z</time></trkpt><trkpt lat="42.336246916626635" lon="8.647741426388107"><ele>256.5</ele><time>2026-05-01T14:17:58.999Z</time></trkpt><trkpt lat="42.336181144134905" lon="8.64758577959842"><ele>263.0</ele><time>2026-05-01T14:17:59.999Z</time></trkpt><trkpt lat="42.33608498150907" lon="8.64744874218642"><ele>263.0</ele><time>2026-05-01T14:18:00.999Z</time></trkpt><trkpt lat="42.33601037035472" lon="8.647294316828532"><ele>263.0</ele><time>2026-05-01T14:18:01.999Z</time></trkpt><trkpt lat="42.335942440545494" lon="8.647137642992448"><ele>263.0</ele><time>2026-05-01T14:18:02.999Z</time></trkpt><trkpt lat="42.3359787540394" lon="8.646929666510157"><ele>263.0</ele><time>2026-05-01T14:18:03.999Z</time></trkpt><trkpt lat="42.3359707624244" lon="8.646716993601322"><ele>261.75</ele><time>2026-05-01T14:18:04.999Z</time></trkpt><trkpt lat="42.33592318253482" lon="8.646519416175002"><ele>260.5</ele><time>2026-05-01T14:18:06Z</time></trkpt><trkpt lat="42.3359098750944" lon="8.646340337777454"><ele>259.25</ele><time>2026-05-01T14:18:07Z</time></trkpt><trkpt lat="42.33597075210038" lon="8.646177937141802"><ele>258.0</ele><time>2026-05-01T14:18:08Z</time></trkpt><trkpt lat="42.33600901707483" lon="8.645998023703047"><ele>256.0</ele><time>2026-05-01T14:18:09Z</time></trkpt><trkpt lat="42.336025601122" lon="8.645831092989972"><ele>254.0</ele><time>2026-05-01T14:18:10Z</time></trkpt><trkpt lat="42.33597858769139" lon="8.645686737937478"><ele>252.0</ele><time>2026-05-01T14:18:11Z</time></trkpt><trkpt lat="42.33587774272738" lon="8.64556067601529"><ele>250.0</ele><time>2026-05-01T14:18:12Z</time></trkpt><trkpt lat="42.33575701464261" lon="8.6454618584279"><ele>250.0</ele><time>2026-05-01T14:18:13Z</time></trkpt><trkpt lat="42.33563517791962" lon="8.645377047588488"><ele>250.0</ele><time>2026-05-01T14:18:14Z</time></trkpt><trkpt lat="42.335523729228065" lon="8.645250293307079"><ele>250.0</ele><time>2026-05-01T14:18:15Z</time></trkpt><trkpt lat="42.33542552763886" lon="8.645074946155567"><ele>250.0</ele><time>2026-05-01T14:18:16Z</time></trkpt><trkpt lat="42.335324699601166" lon="8.64488563564705"><ele>246.33333333333331</ele><time>2026-05-01T14:18:17Z</time></trkpt><trkpt lat="42.33522824041974" lon="8.644702706401795"><ele>242.66666666666669</ele><time>2026-05-01T14:18:18Z</time></trkpt><trkpt lat="42.335130977790385" lon="8.644532133458346"><ele>239.0</ele><time>2026-05-01T14:18:19Z</time></trkpt><trkpt lat="42.33503522725105" lon="8.64439287869645"><ele>239.0</ele><time>2026-05-01T14:18:20Z</time></trkpt><trkpt lat="42.3349360967903" lon="8.644281018950092"><ele>239.0</ele><time>2026-05-01T14:18:21Z</time></trkpt><trkpt lat="42.334836661271254" lon="8.644178140284408"><ele>239.0</ele><time>2026-05-01T14:18:22Z</time></trkpt><trkpt lat="42.334748285368526" lon="8.644089000485568"><ele>239.0</ele><time>2026-05-01T14:18:23.001Z</time></trkpt><trkpt lat="42.334665576664904" lon="8.644008869215453"><ele>247.39999999999998</ele><time>2026-05-01T14:18:24.001Z</time></trkpt><trkpt lat="42.334578792382324" lon="8.643954304789657"><ele>255.79999999999998</ele><time>2026-05-01T14:18:25.001Z</time></trkpt><trkpt lat="42.33449757284292" lon="8.643906907748317"><ele>264.20000000000005</ele><time>2026-05-01T14:18:26.001Z</time></trkpt><trkpt lat="42.33441168515968" lon="8.64387450196191"><ele>272.6</ele><time>2026-05-01T14:18:27.001Z</time></trkpt><trkpt lat="42.334321563029185" lon="8.643824648832563"><ele>281.0</ele><time>2026-05-01T14:18:28.001Z</time></trkpt><trkpt lat="42.334240065305835" lon="8.643756714460155"><ele>281.0</ele><time>2026-05-01T14:18:29.001Z</time></trkpt><trkpt lat="42.3341730121728" lon="8.643689934389494"><ele>281.0</ele><time>2026-05-01T14:18:30.001Z</time></trkpt><trkpt lat="42.33411477907707" lon="8.643635211027398"><ele>281.0</ele><time>2026-05-01T14:18:31.001Z</time></trkpt><trkpt lat="42.334034408853746" lon="8.64356682102039"><ele>281.0</ele><time>2026-05-01T14:18:33.001Z</time></trkpt><trkpt lat="42.334024096200096" lon="8.64344903398919"><ele>281.0</ele><time>2026-05-01T14:18:35.001Z</time></trkpt><trkpt lat="42.33403600539769" lon="8.643363205805342"><ele>281.0</ele><time>2026-05-01T14:18:36.001Z</time></trkpt><trkpt lat="42.33406455200245" lon="8.643252845249917"><ele>280.6</ele><time>2026-05-01T14:18:37.001Z</time></trkpt><trkpt lat="42.33409981167728" lon="8.643134718264395"><ele>280.20000000000005</ele><time>2026-05-01T14:18:38.001Z</time></trkpt><trkpt lat="42.33413513295877" lon="8.643001897746199"><ele>279.79999999999995</ele><time>2026-05-01T14:18:39.001Z</time></trkpt><trkpt lat="42.33417817979244" lon="8.642865912968812"><ele>279.4</ele><time>2026-05-01T14:18:40.001Z</time></trkpt><trkpt lat="42.33422997811206" lon="8.642739390052617"><ele>279.0</ele><time>2026-05-01T14:18:41.001Z</time></trkpt><trkpt lat="42.33431370302575" lon="8.64262431540941"><ele>279.0</ele><time>2026-05-01T14:18:42.001Z</time></trkpt><trkpt lat="42.33442182044068" lon="8.642527795523764"><ele>279.0</ele><time>2026-05-01T14:18:43.001Z</time></trkpt><trkpt lat="42.33453510372671" lon="8.642420880402776"><ele>279.0</ele><time>2026-05-01T14:18:44.001Z</time></trkpt><trkpt lat="42.33462965311983" lon="8.64228404259937"><ele>279.0</ele><time>2026-05-01T14:18:45.001Z</time></trkpt><trkpt lat="42.33471333702931" lon="8.64215022357099"><ele>271.25</ele><time>2026-05-01T14:18:46.001Z</time></trkpt><trkpt lat="42.33482878748137" lon="8.642072289244586"><ele>263.5</ele><time>2026-05-01T14:18:47.001Z</time></trkpt><trkpt lat="42.33492684026348" lon="8.641979990065478"><ele>255.75</ele><time>2026-05-01T14:18:48.001Z</time></trkpt><trkpt lat="42.33500884524448" lon="8.64190197409539"><ele>248.0</ele><time>2026-05-01T14:18:49.002Z</time></trkpt><trkpt lat="42.33506392156398" lon="8.641779029684715"><ele>248.0</ele><time>2026-05-01T14:18:50.002Z</time></trkpt><trkpt lat="42.33509673989974" lon="8.641617328914155"><ele>248.0</ele><time>2026-05-01T14:18:51.002Z</time></trkpt><trkpt lat="42.33510743887332" lon="8.641441831766834"><ele>248.0</ele><time>2026-05-01T14:18:52.002Z</time></trkpt><trkpt lat="42.33508616679504" lon="8.641265150348108"><ele>248.0</ele><time>2026-05-01T14:18:53.002Z</time></trkpt><trkpt lat="42.335032393106886" lon="8.641091573841038"><ele>245.66666666666669</ele><time>2026-05-01T14:18:54.002Z</time></trkpt><trkpt lat="42.33494978484348" lon="8.640920876848972"><ele>243.33333333333331</ele><time>2026-05-01T14:18:55.002Z</time></trkpt><trkpt lat="42.334853695217305" lon="8.640752772939265"><ele>241.0</ele><time>2026-05-01T14:18:56.002Z</time></trkpt><trkpt lat="42.33473491395937" lon="8.64059602661379"><ele>251.33333333333331</ele><time>2026-05-01T14:18:57.002Z</time></trkpt><trkpt lat="42.33460315764848" lon="8.640459079195278"><ele>261.6666666666667</ele><time>2026-05-01T14:18:58.002Z</time></trkpt><trkpt lat="42.33448809070975" lon="8.640313898428602"><ele>272.0</ele><time>2026-05-01T14:18:59.002Z</time></trkpt><trkpt lat="42.33438357546761" lon="8.640168607670937"><ele>272.0</ele><time>2026-05-01T14:19:00.002Z</time></trkpt><trkpt lat="42.33430081038406" lon="8.640013107726531"><ele>272.0</ele><time>2026-05-01T14:19:01.002Z</time></trkpt><trkpt lat="42.33430973062026" lon="8.639822039379384"><ele>272.0</ele><time>2026-05-01T14:19:02.002Z</time></trkpt><trkpt lat="42.33430542385809" lon="8.639611531040241"><ele>272.0</ele><time>2026-05-01T14:19:03.002Z</time></trkpt><trkpt lat="42.33434238187756" lon="8.639394463398508"><ele>272.0</ele><time>2026-05-01T14:19:04.002Z</time></trkpt><trkpt lat="42.33440878696911" lon="8.639159409946318"><ele>272.0</ele><time>2026-05-01T14:19:05.002Z</time></trkpt><trkpt lat="42.33446370312245" lon="8.638929869879158"><ele>272.0</ele><time>2026-05-01T14:19:06.002Z</time></trkpt><trkpt lat="42.334531199179835" lon="8.638712899490107"><ele>275.0</ele><time>2026-05-01T14:19:07.002Z</time></trkpt><trkpt lat="42.33457960304609" lon="8.638494243196122"><ele>278.0</ele><time>2026-05-01T14:19:08.002Z</time></trkpt><trkpt lat="42.33460931165644" lon="8.638263470227644"><ele>281.0</ele><time>2026-05-01T14:19:09.002Z</time></trkpt><trkpt lat="42.334621809670644" lon="8.638034535972693"><ele>281.0</ele><time>2026-05-01T14:19:10.002Z</time></trkpt><trkpt lat="42.33463400404486" lon="8.637826243036354"><ele>281.0</ele><time>2026-05-01T14:19:11.002Z</time></trkpt><trkpt lat="42.33466440882335" lon="8.637634136126385"><ele>281.0</ele><time>2026-05-01T14:19:12.002Z</time></trkpt><trkpt lat="42.33472640709171" lon="8.637450766456995"><ele>281.0</ele><time>2026-05-01T14:19:13.002Z</time></trkpt><trkpt lat="42.33481599057818" lon="8.6372831905022"><ele>272.0</ele><time>2026-05-01T14:19:14.002Z</time></trkpt><trkpt lat="42.33494536301268" lon="8.637154943581947"><ele>263.0</ele><time>2026-05-01T14:19:15.002Z</time></trkpt><trkpt lat="42.335050278056976" lon="8.637000842761298"><ele>254.0</ele><time>2026-05-01T14:19:16.002Z</time></trkpt><trkpt lat="42.33514364537906" lon="8.63685973214592"><ele>254.0</ele><time>2026-05-01T14:19:17.002Z</time></trkpt><trkpt lat="42.335187277494036" lon="8.636695933316535"><ele>254.0</ele><time>2026-05-01T14:19:18.002Z</time></trkpt><trkpt lat="42.33518002994992" lon="8.636509650229874"><ele>254.0</ele><time>2026-05-01T14:19:19.002Z</time></trkpt><trkpt lat="42.33515180025276" lon="8.636332831834835"><ele>254.0</ele><time>2026-05-01T14:19:20.002Z</time></trkpt><trkpt lat="42.335098662713605" lon="8.636190533765282"><ele>254.0</ele><time>2026-05-01T14:19:21.003Z</time></trkpt><trkpt lat="42.33501311590595" lon="8.6361099287048"><ele>254.0</ele><time>2026-05-01T14:19:22.003Z</time></trkpt><trkpt lat="42.33490353458195" lon="8.636106197674096"><ele>254.0</ele><time>2026-05-01T14:19:23.003Z</time></trkpt><trkpt lat="42.334794525702904" lon="8.636165390355176"><ele>254.0</ele><time>2026-05-01T14:19:24.003Z</time></trkpt><trkpt lat="42.33469770193215" lon="8.636275920156141"><ele>253.25</ele><time>2026-05-01T14:19:25.003Z</time></trkpt><trkpt lat="42.33461124818595" lon="8.6364207939096"><ele>252.5</ele><time>2026-05-01T14:19:26.003Z</time></trkpt><trkpt lat="42.33448976570852" lon="8.63652322863594"><ele>251.75</ele><time>2026-05-01T14:19:27.003Z</time></trkpt><trkpt lat="42.33435831090659" lon="8.636631906424284"><ele>251.0</ele><time>2026-05-01T14:19:28.003Z</time></trkpt><trkpt lat="42.33420945508395" lon="8.636729282728567"><ele>251.0</ele><time>2026-05-01T14:19:29.003Z</time></trkpt><trkpt lat="42.33404271103759" lon="8.636828529525486"><ele>251.0</ele><time>2026-05-01T14:19:30.003Z</time></trkpt><trkpt lat="42.33387583433844" lon="8.636955505373058"><ele>251.0</ele><time>2026-05-01T14:19:31.003Z</time></trkpt><trkpt lat="42.33369877326685" lon="8.637073650635374"><ele>255.33333333333334</ele><time>2026-05-01T14:19:32.003Z</time></trkpt><trkpt lat="42.333523643397996" lon="8.637180251461691"><ele>259.6666666666667</ele><time>2026-05-01T14:19:33.003Z</time></trkpt><trkpt lat="42.333358150347784" lon="8.637250852452034"><ele>264.0</ele><time>2026-05-01T14:19:34.003Z</time></trkpt><trkpt lat="42.333202778973366" lon="8.637294149838707"><ele>264.0</ele><time>2026-05-01T14:19:35.003Z</time></trkpt><trkpt lat="42.333056541424945" lon="8.637342405512825"><ele>264.0</ele><time>2026-05-01T14:19:36.003Z</time></trkpt><trkpt lat="42.33292424444209" lon="8.637442650147"><ele>264.0</ele><time>2026-05-01T14:19:37.003Z</time></trkpt><trkpt lat="42.332812946909115" lon="8.637608732420597"><ele>268.0</ele><time>2026-05-01T14:19:38.003Z</time></trkpt><trkpt lat="42.33271965756154" lon="8.637781704726898"><ele>272.0</ele><time>2026-05-01T14:19:39.003Z</time></trkpt><trkpt lat="42.33259258786752" lon="8.637882911854152"><ele>276.0</ele><time>2026-05-01T14:19:40.003Z</time></trkpt><trkpt lat="42.33245410222307" lon="8.63795309093416"><ele>276.0</ele><time>2026-05-01T14:19:41.003Z</time></trkpt><trkpt lat="42.33230947997643" lon="8.638022712348217"><ele>276.0</ele><time>2026-05-01T14:19:42.003Z</time></trkpt><trkpt lat="42.33215878688344" lon="8.63802482914205"><ele>276.0</ele><time>2026-05-01T14:19:43.003Z</time></trkpt><trkpt lat="42.33201911870493" lon="8.637998070118135"><ele>276.0</ele><time>2026-05-01T14:19:44.003Z</time></trkpt><trkpt lat="42.33189458465702" lon="8.637926022639176"><ele>271.3333333333333</ele><time>2026-05-01T14:19:45.003Z</time></trkpt><trkpt lat="42.331794474050625" lon="8.637787930360576"><ele>266.66666666666663</ele><time>2026-05-01T14:19:46.003Z</time></trkpt><trkpt lat="42.33169370694521" lon="8.637616937189144"><ele>262.0</ele><time>2026-05-01T14:19:47.003Z</time></trkpt><trkpt lat="42.33157160077089" lon="8.63742879799611"><ele>262.0</ele><time>2026-05-01T14:19:47.997Z</time></trkpt><trkpt lat="42.33146604109501" lon="8.637227096700897"><ele>262.0</ele><time>2026-05-01T14:19:48.997Z</time></trkpt><trkpt lat="42.33135296482217" lon="8.637028212071309"><ele>262.0</ele><time>2026-05-01T14:19:49.998Z</time></trkpt><trkpt lat="42.331248896666274" lon="8.636841774917105"><ele>262.5</ele><time>2026-05-01T14:19:50.998Z</time></trkpt><trkpt lat="42.33115965337179" lon="8.636674198763531"><ele>263.0</ele><time>2026-05-01T14:19:51.998Z</time></trkpt><trkpt lat="42.33107190738928" lon="8.636527691001403"><ele>263.5</ele><time>2026-05-01T14:19:52.998Z</time></trkpt><trkpt lat="42.33096390158449" lon="8.636431090750254"><ele>264.0</ele><time>2026-05-01T14:19:53.998Z</time></trkpt><trkpt lat="42.33083582719278" lon="8.63640811066748"><ele>264.0</ele><time>2026-05-01T14:19:54.998Z</time></trkpt><trkpt lat="42.33070432862997" lon="8.63645174918626"><ele>264.0</ele><time>2026-05-01T14:19:55.998Z</time></trkpt><trkpt lat="42.330562749243896" lon="8.636525971009748"><ele>264.0</ele><time>2026-05-01T14:19:56.998Z</time></trkpt><trkpt lat="42.33041440678046" lon="8.63659250625037"><ele>264.0</ele><time>2026-05-01T14:19:57.998Z</time></trkpt><trkpt lat="42.330264899132736" lon="8.63666275579226"><ele>261.0</ele><time>2026-05-01T14:19:58.999Z</time></trkpt><trkpt lat="42.33012759055952" lon="8.636730913230972"><ele>258.0</ele><time>2026-05-01T14:19:59.999Z</time></trkpt><trkpt lat="42.330003685774834" lon="8.636817335831845"><ele>255.0</ele><time>2026-05-01T14:20:00.999Z</time></trkpt><trkpt lat="42.329883760531" lon="8.636930810974507"><ele>252.0</ele><time>2026-05-01T14:20:01.999Z</time></trkpt><trkpt lat="42.32977198254289" lon="8.637031503597075"><ele>261.75</ele><time>2026-05-01T14:20:02.999Z</time></trkpt><trkpt lat="42.3296599855296" lon="8.637090701024817"><ele>271.5</ele><time>2026-05-01T14:20:03.999Z</time></trkpt><trkpt lat="42.32954343097475" lon="8.637112363582144"><ele>281.25</ele><time>2026-05-01T14:20:04.999Z</time></trkpt><trkpt lat="42.32943332771926" lon="8.637089028679975"><ele>291.0</ele><time>2026-05-01T14:20:05.999Z</time></trkpt><trkpt lat="42.329323417617914" lon="8.637020475472218"><ele>281.3333333333333</ele><time>2026-05-01T14:20:06.999Z</time></trkpt><trkpt lat="42.32922536450474" lon="8.636888977677824"><ele>271.66666666666663</ele><time>2026-05-01T14:20:07.999Z</time></trkpt><trkpt lat="42.329100896260904" lon="8.636765296889399"><ele>262.0</ele><time>2026-05-01T14:20:08.999Z</time></trkpt><trkpt lat="42.32898486870101" lon="8.636606839853062"><ele>264.25</ele><time>2026-05-01T14:20:10Z</time></trkpt><trkpt lat="42.328872310311205" lon="8.636457026927603"><ele>266.5</ele><time>2026-05-01T14:20:11Z</time></trkpt><trkpt lat="42.32879161580647" lon="8.636323205102242"><ele>268.75</ele><time>2026-05-01T14:20:12Z</time></trkpt><trkpt lat="42.32873527574929" lon="8.636193476291087"><ele>271.0</ele><time>2026-05-01T14:20:13Z</time></trkpt><trkpt lat="42.32869006324081" lon="8.636064109073974"><ele>271.0</ele><time>2026-05-01T14:20:14Z</time></trkpt><trkpt lat="42.32864468721055" lon="8.635945628731292"><ele>271.0</ele><time>2026-05-01T14:20:15Z</time></trkpt><trkpt lat="42.32857500862868" lon="8.635835757834942"><ele>271.0</ele><time>2026-05-01T14:20:16Z</time></trkpt><trkpt lat="42.328473467526045" lon="8.635752990322606"><ele>271.0</ele><time>2026-05-01T14:20:17Z</time></trkpt><trkpt lat="42.32834982905042" lon="8.635695300396916"><ele>271.0</ele><time>2026-05-01T14:20:18Z</time></trkpt><trkpt lat="42.32821786374769" lon="8.635648323457133"><ele>271.0</ele><time>2026-05-01T14:20:19Z</time></trkpt><trkpt lat="42.328093569928434" lon="8.635588333172741"><ele>271.0</ele><time>2026-05-01T14:20:20Z</time></trkpt><trkpt lat="42.328008713615645" lon="8.635465444937644"><ele>271.0</ele><time>2026-05-01T14:20:21Z</time></trkpt><trkpt lat="42.327952741377906" lon="8.635304723160518"><ele>275.0</ele><time>2026-05-01T14:20:22Z</time></trkpt><trkpt lat="42.32787882602834" lon="8.635112491487858"><ele>279.0</ele><time>2026-05-01T14:20:23Z</time></trkpt><trkpt lat="42.32779786213531" lon="8.634915926414141"><ele>283.0</ele><time>2026-05-01T14:20:24Z</time></trkpt><trkpt lat="42.32773242987787" lon="8.634722180769364"><ele>283.0</ele><time>2026-05-01T14:20:25Z</time></trkpt><trkpt lat="42.32766030674002" lon="8.634530193650408"><ele>283.0</ele><time>2026-05-01T14:20:26Z</time></trkpt><trkpt lat="42.327581035305805" lon="8.634343808525337"><ele>283.0</ele><time>2026-05-01T14:20:27.001Z</time></trkpt><trkpt lat="42.32749026306363" lon="8.634159376140119"><ele>278.3333333333333</ele><time>2026-05-01T14:20:28.001Z</time></trkpt><trkpt lat="42.32739505776442" lon="8.633973008949559"><ele>273.6666666666667</ele><time>2026-05-01T14:20:29.001Z</time></trkpt><trkpt lat="42.32729585503776" lon="8.633779809624803"><ele>269.0</ele><time>2026-05-01T14:20:30.001Z</time></trkpt><trkpt lat="42.32719543927408" lon="8.633590069798283"><ele>269.0</ele><time>2026-05-01T14:20:31.001Z</time></trkpt><trkpt lat="42.327096326889446" lon="8.63339955551956"><ele>269.0</ele><time>2026-05-01T14:20:32.001Z</time></trkpt><trkpt lat="42.32700518148196" lon="8.633209726524104"><ele>269.0</ele><time>2026-05-01T14:20:33.001Z</time></trkpt><trkpt lat="42.32695393497461" lon="8.633014347668503"><ele>269.0</ele><time>2026-05-01T14:20:34.001Z</time></trkpt><trkpt lat="42.32694029560253" lon="8.632825589050979"><ele>269.0</ele><time>2026-05-01T14:20:35.001Z</time></trkpt><trkpt lat="42.32693689166201" lon="8.632642591486338"><ele>269.0</ele><time>2026-05-01T14:20:36.001Z</time></trkpt><trkpt lat="42.3269077821132" lon="8.632484121431448"><ele>269.0</ele><time>2026-05-01T14:20:37.001Z</time></trkpt><trkpt lat="42.32688096494293" lon="8.632376948564259"><ele>268.33333333333337</ele><time>2026-05-01T14:20:38.001Z</time></trkpt><trkpt lat="42.32683144288801" lon="8.632313207842333"><ele>267.6666666666667</ele><time>2026-05-01T14:20:39.001Z</time></trkpt><trkpt lat="42.326755752801056" lon="8.632304336390934"><ele>267.0</ele><time>2026-05-01T14:20:40.001Z</time></trkpt><trkpt lat="42.32668274840039" lon="8.632356471357273"><ele>266.3333333333333</ele><time>2026-05-01T14:20:41.001Z</time></trkpt><trkpt lat="42.32662072191738" lon="8.632442782969985"><ele>265.66666666666663</ele><time>2026-05-01T14:20:42.001Z</time></trkpt><trkpt lat="42.326562044492405" lon="8.632581021044963"><ele>265.0</ele><time>2026-05-01T14:20:43.001Z</time></trkpt><trkpt lat="42.326498823308015" lon="8.632730013786102"><ele>266.0</ele><time>2026-05-01T14:20:44.001Z</time></trkpt><trkpt lat="42.326422146764905" lon="8.632885389715817"><ele>267.0</ele><time>2026-05-01T14:20:45.001Z</time></trkpt><trkpt lat="42.32634172640473" lon="8.633043189896124"><ele>268.0</ele><time>2026-05-01T14:20:46.001Z</time></trkpt><trkpt lat="42.32626411508639" lon="8.633189430835648"><ele>269.0</ele><time>2026-05-01T14:20:47.001Z</time></trkpt><trkpt lat="42.32622791679188" lon="8.63334658322958"><ele>266.4</ele><time>2026-05-01T14:20:48.001Z</time></trkpt><trkpt lat="42.32621449595245" lon="8.633495671294538"><ele>263.79999999999995</ele><time>2026-05-01T14:20:49.001Z</time></trkpt><trkpt lat="42.32621783825875" lon="8.63361873308281"><ele>261.20000000000005</ele><time>2026-05-01T14:20:50.001Z</time></trkpt><trkpt lat="42.32621445622752" lon="8.633720246032377"><ele>258.6</ele><time>2026-05-01T14:20:51.001Z</time></trkpt><trkpt lat="42.3261946610662" lon="8.633823817204103"><ele>256.0</ele><time>2026-05-01T14:20:52.001Z</time></trkpt><trkpt lat="42.326154442859696" lon="8.63394298508349"><ele>256.0</ele><time>2026-05-01T14:20:53.001Z</time></trkpt><trkpt lat="42.32609571221244" lon="8.634080228989953"><ele>256.0</ele><time>2026-05-01T14:20:54.002Z</time></trkpt><trkpt lat="42.32603594062036" lon="8.634229519758254"><ele>256.0</ele><time>2026-05-01T14:20:55.002Z</time></trkpt><trkpt lat="42.32598708531673" lon="8.634375456442623"><ele>256.0</ele><time>2026-05-01T14:20:56.002Z</time></trkpt><trkpt lat="42.32594698509042" lon="8.634505544756555"><ele>260.0</ele><time>2026-05-01T14:20:57.002Z</time></trkpt><trkpt lat="42.32588765069765" lon="8.63460765049893"><ele>264.0</ele><time>2026-05-01T14:20:58.002Z</time></trkpt><trkpt lat="42.32583320616208" lon="8.634701819324754"><ele>268.0</ele><time>2026-05-01T14:20:59.002Z</time></trkpt><trkpt lat="42.325774482630024" lon="8.634795594749757"><ele>272.0</ele><time>2026-05-01T14:21:00.002Z</time></trkpt><trkpt lat="42.325704643172394" lon="8.634907007517008"><ele>276.0</ele><time>2026-05-01T14:21:01.002Z</time></trkpt><trkpt lat="42.32562660601443" lon="8.635021389230326"><ele>270.8</ele><time>2026-05-01T14:21:02.002Z</time></trkpt><trkpt lat="42.325541923856186" lon="8.635102247744024"><ele>265.6</ele><time>2026-05-01T14:21:03.002Z</time></trkpt><trkpt lat="42.32545964713512" lon="8.635148979156417"><ele>260.4</ele><time>2026-05-01T14:21:04.002Z</time></trkpt><trkpt lat="42.325382895865346" lon="8.635184663325534"><ele>255.2</ele><time>2026-05-01T14:21:05.002Z</time></trkpt><trkpt lat="42.325311945789416" lon="8.635186182502675"><ele>250.0</ele><time>2026-05-01T14:21:06.002Z</time></trkpt><trkpt lat="42.32520372179668" lon="8.63521928860995"><ele>249.99999999999997</ele><time>2026-05-01T14:21:08.002Z</time></trkpt><trkpt lat="42.325137779775375" lon="8.63529623385574"><ele>250.0</ele><time>2026-05-01T14:21:10.002Z</time></trkpt><trkpt lat="42.32506819051888" lon="8.635372063336735"><ele>250.0</ele><time>2026-05-01T14:21:12.002Z</time></trkpt><trkpt lat="42.32499846335829" lon="8.63545512009019"><ele>250.0</ele><time>2026-05-01T14:21:14.002Z</time></trkpt><trkpt lat="42.32494553767675" lon="8.635521571109724"><ele>249.99999999999997</ele><time>2026-05-01T14:21:16.002Z</time></trkpt><trkpt lat="42.324898445311234" lon="8.635632750818505"><ele>250.0</ele><time>2026-05-01T14:21:19.002Z</time></trkpt><trkpt lat="42.32487373743131" lon="8.63573252885587"><ele>253.8</ele><time>2026-05-01T14:21:22.002Z</time></trkpt><trkpt lat="42.3248428078808" lon="8.635816581956046"><ele>257.6</ele><time>2026-05-01T14:21:26.003Z</time></trkpt><trkpt lat="42.32482566794245" lon="8.635906849358463"><ele>261.4</ele><time>2026-05-01T14:21:30.003Z</time></trkpt><trkpt lat="42.324818062445516" lon="8.636042977650126"><ele>265.2</ele><time>2026-05-01T14:22:29Z</time></trkpt><trkpt lat="42.32479160555136" lon="8.63621690712478"><ele>269.0</ele><time>2026-05-01T14:22:31Z</time></trkpt><trkpt lat="42.32479637874388" lon="8.636329509972239"><ele>270.2</ele><time>2026-05-01T14:22:32.001Z</time></trkpt><trkpt lat="42.324811586562454" lon="8.636451392712864"><ele>271.4</ele><time>2026-05-01T14:22:33.001Z</time></trkpt><trkpt lat="42.32484293341917" lon="8.636583049686166"><ele>272.6</ele><time>2026-05-01T14:22:34.001Z</time></trkpt><trkpt lat="42.32484767115854" lon="8.636731040571442"><ele>273.8</ele><time>2026-05-01T14:22:35.001Z</time></trkpt><trkpt lat="42.32482988212572" lon="8.636892217655896"><ele>275.0</ele><time>2026-05-01T14:22:36.001Z</time></trkpt><trkpt lat="42.32477422329444" lon="8.637058594077514"><ele>277.33333333333337</ele><time>2026-05-01T14:22:37.001Z</time></trkpt><trkpt lat="42.3247304958276" lon="8.63724162387661"><ele>279.6666666666667</ele><time>2026-05-01T14:22:38.001Z</time></trkpt><trkpt lat="42.324683384946994" lon="8.637436682538397"><ele>282.0</ele><time>2026-05-01T14:22:39.001Z</time></trkpt><trkpt lat="42.32463491467859" lon="8.637639098886952"><ele>274.6666666666667</ele><time>2026-05-01T14:22:40.001Z</time></trkpt><trkpt lat="42.32460311691417" lon="8.637855417510517"><ele>267.33333333333337</ele><time>2026-05-01T14:22:41.001Z</time></trkpt><trkpt lat="42.32453746928158" lon="8.638056864502467"><ele>260.0</ele><time>2026-05-01T14:22:42.001Z</time></trkpt><trkpt lat="42.3244125498707" lon="8.63821803922546"><ele>260.0</ele><time>2026-05-01T14:22:43.001Z</time></trkpt><trkpt lat="42.32430438211853" lon="8.638409694886136"><ele>260.0</ele><time>2026-05-01T14:22:44.001Z</time></trkpt><trkpt lat="42.3242127158887" lon="8.638610531204593"><ele>260.0</ele><time>2026-05-01T14:22:45.001Z</time></trkpt><trkpt lat="42.3240707911108" lon="8.638751678856986"><ele>259.33333333333337</ele><time>2026-05-01T14:22:46.001Z</time></trkpt><trkpt lat="42.323925205952214" lon="8.638878183078164"><ele>258.6666666666667</ele><time>2026-05-01T14:22:47.001Z</time></trkpt><trkpt lat="42.32376672047213" lon="8.63899239327289"><ele>258.0</ele><time>2026-05-01T14:22:48.001Z</time></trkpt><trkpt lat="42.323595502397225" lon="8.63909266226057"><ele>258.0</ele><time>2026-05-01T14:22:49.001Z</time></trkpt><trkpt lat="42.323434218621806" lon="8.639221705281079"><ele>258.0</ele><time>2026-05-01T14:22:50.001Z</time></trkpt><trkpt lat="42.32329042667736" lon="8.63933449689084"><ele>258.0</ele><time>2026-05-01T14:22:51.001Z</time></trkpt><trkpt lat="42.32317959042235" lon="8.639430472028979"><ele>259.6</ele><time>2026-05-01T14:22:52.001Z</time></trkpt><trkpt lat="42.323103692112994" lon="8.639516890626197"><ele>261.20000000000005</ele><time>2026-05-01T14:22:53.001Z</time></trkpt><trkpt lat="42.32305824386346" lon="8.639587194104298"><ele>262.8</ele><time>2026-05-01T14:22:54.001Z</time></trkpt><trkpt lat="42.323052356517806" lon="8.639699386018261"><ele>264.40000000000003</ele><time>2026-05-01T14:22:55.001Z</time></trkpt><trkpt lat="42.32312868885626" lon="8.63981459492293"><ele>266.0</ele><time>2026-05-01T14:22:56.001Z</time></trkpt><trkpt lat="42.32321355677362" lon="8.639907609067544"><ele>266.0</ele><time>2026-05-01T14:22:57.001Z</time></trkpt><trkpt lat="42.32332678756991" lon="8.64000341467554"><ele>266.0</ele><time>2026-05-01T14:22:58.002Z</time></trkpt><trkpt lat="42.32345532596227" lon="8.640109075708102"><ele>266.0</ele><time>2026-05-01T14:22:59.002Z</time></trkpt><trkpt lat="42.3235718019003" lon="8.64025941404121"><ele>266.0</ele><time>2026-05-01T14:23:00.002Z</time></trkpt><trkpt lat="42.32368290141496" lon="8.640433636201069"><ele>270.6666666666667</ele><time>2026-05-01T14:23:01.002Z</time></trkpt><trkpt lat="42.32378877009469" lon="8.640632907460404"><ele>275.3333333333333</ele><time>2026-05-01T14:23:02.002Z</time></trkpt><trkpt lat="42.32389796486013" lon="8.640776471089227"><ele>280.0</ele><time>2026-05-01T14:23:03.002Z</time></trkpt><trkpt lat="42.323979559523636" lon="8.640918435428437"><ele>280.0</ele><time>2026-05-01T14:23:04.002Z</time></trkpt><trkpt lat="42.324017047361" lon="8.641074616116487"><ele>280.0</ele><time>2026-05-01T14:23:05.002Z</time></trkpt><trkpt lat="42.324000045990594" lon="8.641260643284902"><ele>280.0</ele><time>2026-05-01T14:23:06.002Z</time></trkpt><trkpt lat="42.32399934323238" lon="8.641460747291926"><ele>280.0</ele><time>2026-05-01T14:23:07.002Z</time></trkpt><trkpt lat="42.323989226427784" lon="8.641618682695295"><ele>280.2</ele><time>2026-05-01T14:23:08.002Z</time></trkpt><trkpt lat="42.32393702309361" lon="8.641721651707591"><ele>280.4</ele><time>2026-05-01T14:23:09.002Z</time></trkpt><trkpt lat="42.323857245374434" lon="8.641747389689828"><ele>280.6</ele><time>2026-05-01T14:23:10.002Z</time></trkpt><trkpt lat="42.32374655967808" lon="8.641738816260043"><ele>280.8</ele><time>2026-05-01T14:23:11.002Z</time></trkpt><trkpt lat="42.323600569231026" lon="8.641710790132567"><ele>281.0</ele><time>2026-05-01T14:23:12.002Z</time></trkpt><trkpt lat="42.32343919659947" lon="8.641683774729074"><ele>275.0</ele><time>2026-05-01T14:23:13.002Z</time></trkpt><trkpt lat="42.32326754893637" lon="8.64170434995245"><ele>269.0</ele><time>2026-05-01T14:23:14.002Z</time></trkpt><trkpt lat="42.32310657322871" lon="8.641765952350834"><ele>263.0</ele><time>2026-05-01T14:23:15.002Z</time></trkpt><trkpt lat="42.32295834055815" lon="8.641877144105909"><ele>266.33333333333337</ele><time>2026-05-01T14:23:16.002Z</time></trkpt><trkpt lat="42.32280094610762" lon="8.642007917706815"><ele>269.6666666666667</ele><time>2026-05-01T14:23:17.002Z</time></trkpt><trkpt lat="42.32262204291618" lon="8.642056340622702"><ele>273.0</ele><time>2026-05-01T14:23:18.002Z</time></trkpt><trkpt lat="42.32245860321534" lon="8.642129057348805"><ele>273.0</ele><time>2026-05-01T14:23:19.002Z</time></trkpt><trkpt lat="42.32231661288783" lon="8.642155966933032"><ele>273.0</ele><time>2026-05-01T14:23:20.002Z</time></trkpt><trkpt lat="42.32219651783886" lon="8.642186483097728"><ele>273.0</ele><time>2026-05-01T14:23:21.002Z</time></trkpt><trkpt lat="42.32209877412038" lon="8.642208891572722"><ele>273.0</ele><time>2026-05-01T14:23:22.002Z</time></trkpt><trkpt lat="42.32201849913825" lon="8.64223213395457"><ele>273.0</ele><time>2026-05-01T14:23:23.002Z</time></trkpt><trkpt lat="42.32191428428215" lon="8.642278432281405"><ele>270.3333333333333</ele><time>2026-05-01T14:23:25.002Z</time></trkpt><trkpt lat="42.321858780950194" lon="8.642358874252494"><ele>267.6666666666667</ele><time>2026-05-01T14:23:27.002Z</time></trkpt><trkpt lat="42.3218062232322" lon="8.642446287566235"><ele>265.0</ele><time>2026-05-01T14:23:30.003Z</time></trkpt><trkpt lat="42.3218488184425" lon="8.642540157338377"><ele>262.33333333333337</ele><time>2026-05-01T14:23:35.003Z</time></trkpt><trkpt lat="42.32181008114587" lon="8.64247019209366"><ele>259.6666666666667</ele><time>2026-05-01T14:25:07.002Z</time></trkpt><trkpt lat="42.32180895880935" lon="8.64237869639362"><ele>257.0</ele><time>2026-05-01T14:25:16.002Z</time></trkpt><trkpt lat="42.321852108475674" lon="8.642293095178074"><ele>257.0</ele><time>2026-05-01T14:26:20.998Z</time></trkpt><trkpt lat="42.32191894430756" lon="8.642232125746672"><ele>257.0</ele><time>2026-05-01T14:29:16.002Z</time></trkpt><trkpt lat="42.321858695455" lon="8.64226619168414"><ele>257.0</ele><time>2026-05-01T14:30:13.003Z</time></trkpt><trkpt lat="42.32181806202" lon="8.642360429460622"><ele>257.0</ele><time>2026-05-01T14:30:44.001Z</time></trkpt><trkpt lat="42.32183782823393" lon="8.642465795970631"><ele>257.0</ele><time>2026-05-01T14:31:30.002Z</time></trkpt><trkpt lat="42.321855568963734" lon="8.642548602877953"><ele>257.0</ele><time>2026-05-01T14:31:35.002Z</time></trkpt><trkpt lat="42.32186015039752" lon="8.64245617645366"><ele>257.0</ele><time>2026-05-01T14:32:39Z</time></trkpt><trkpt lat="42.32182731719814" lon="8.642369751499059"><ele>257.0</ele><time>2026-05-01T14:32:45Z</time></trkpt><trkpt lat="42.32184194401214" lon="8.6424583453744"><ele>257.0</ele><time>2026-05-01T14:34:35Z</time></trkpt><trkpt lat="42.321879813329424" lon="8.642532031995755"><ele>257.0</ele><time>2026-05-01T14:34:40Z</time></trkpt><trkpt lat="42.321939624567285" lon="8.64258372789687"><ele>257.0</ele><time>2026-05-01T14:36:52Z</time></trkpt><trkpt lat="42.32201373928529" lon="8.642675503516777"><ele>257.0</ele><time>2026-05-01T14:36:54Z</time></trkpt><trkpt lat="42.322095249958174" lon="8.642762706054409"><ele>257.0</ele><time>2026-05-01T14:36:56Z</time></trkpt><trkpt lat="42.322150440974944" lon="8.64282293702628"><ele>258.6666666666667</ele><time>2026-05-01T14:36:57Z</time></trkpt><trkpt lat="42.32220478281022" lon="8.642887017000842"><ele>260.33333333333337</ele><time>2026-05-01T14:36:58Z</time></trkpt><trkpt lat="42.322256703040544" lon="8.642957140030878"><ele>262.0</ele><time>2026-05-01T14:36:59Z</time></trkpt><trkpt lat="42.32232492985491" lon="8.643038973772288"><ele>263.6666666666667</ele><time>2026-05-01T14:37:00Z</time></trkpt><trkpt lat="42.32239067924745" lon="8.643115366134701"><ele>265.3333333333333</ele><time>2026-05-01T14:37:01Z</time></trkpt><trkpt lat="42.32246059190974" lon="8.643198990530593"><ele>267.0</ele><time>2026-05-01T14:37:02Z</time></trkpt><trkpt lat="42.32253878596576" lon="8.643300510770517"><ele>267.0</ele><time>2026-05-01T14:37:03Z</time></trkpt><trkpt lat="42.32261433498989" lon="8.643410212562488"><ele>267.0</ele><time>2026-05-01T14:37:04Z</time></trkpt><trkpt lat="42.322695677751135" lon="8.643527749617055"><ele>267.0</ele><time>2026-05-01T14:37:05Z</time></trkpt><trkpt lat="42.322781584611896" lon="8.64364411245574"><ele>267.0</ele><time>2026-05-01T14:37:06Z</time></trkpt><trkpt lat="42.32285622918244" lon="8.643743249651305"><ele>262.6666666666667</ele><time>2026-05-01T14:37:07Z</time></trkpt><trkpt lat="42.322915778076265" lon="8.643822999534706"><ele>258.3333333333333</ele><time>2026-05-01T14:37:08Z</time></trkpt><trkpt lat="42.322958239899855" lon="8.643894748675551"><ele>254.0</ele><time>2026-05-01T14:37:09Z</time></trkpt><trkpt lat="42.322995232278835" lon="8.644014031131901"><ele>249.66666666666666</ele><time>2026-05-01T14:37:11Z</time></trkpt><trkpt lat="42.32302594435857" lon="8.644110718108916"><ele>245.33333333333331</ele><time>2026-05-01T14:37:15Z</time></trkpt><trkpt lat="42.323041341422616" lon="8.64420740700102"><ele>241.0</ele><time>2026-05-01T14:37:19.001Z</time></trkpt><trkpt lat="42.32301446081169" lon="8.644091809158182"><ele>240.99999999999997</ele><time>2026-05-01T14:37:28.001Z</time></trkpt><trkpt lat="42.32301196103984" lon="8.644001467040223"><ele>241.0</ele><time>2026-05-01T14:37:29.001Z</time></trkpt><trkpt lat="42.32296788508564" lon="8.643898301039366"><ele>241.0</ele><time>2026-05-01T14:37:30.001Z</time></trkpt><trkpt lat="42.32292220502239" lon="8.643813951708983"><ele>241.0</ele><time>2026-05-01T14:37:31.001Z</time></trkpt><trkpt lat="42.32284540614794" lon="8.643684997448917"><ele>240.99999999999997</ele><time>2026-05-01T14:37:33.001Z</time></trkpt><trkpt lat="42.322784942079785" lon="8.643632728034433"><ele>241.0</ele><time>2026-05-01T14:37:34.001Z</time></trkpt><trkpt lat="42.32268822286545" lon="8.643520734474237"><ele>241.0</ele><time>2026-05-01T14:37:36.001Z</time></trkpt><trkpt lat="42.32262855412484" lon="8.64343357017118"><ele>241.00000000000003</ele><time>2026-05-01T14:37:38.001Z</time></trkpt><trkpt lat="42.32266295317571" lon="8.64351956941299"><ele>241.00000000000003</ele><time>2026-05-01T14:37:43.001Z</time></trkpt><trkpt lat="42.3227179737802" lon="8.64358923110729"><ele>241.0</ele><time>2026-05-01T14:37:46.001Z</time></trkpt><trkpt lat="42.32280555082451" lon="8.643667283082156"><ele>241.0</ele><time>2026-05-01T14:38:46.999Z</time></trkpt><trkpt lat="42.32288039862648" lon="8.643786739794951"><ele>241.0</ele><time>2026-05-01T14:38:48.999Z</time></trkpt><trkpt lat="42.32292593787594" lon="8.643859119277248"><ele>241.00000000000003</ele><time>2026-05-01T14:38:49.999Z</time></trkpt><trkpt lat="42.32302142036975" lon="8.644052090620269"><ele>241.00000000000003</ele><time>2026-05-01T14:38:51.999Z</time></trkpt><trkpt lat="42.32304421147742" lon="8.644178002160846"><ele>241.0</ele><time>2026-05-01T14:38:52.999Z</time></trkpt><trkpt lat="42.32306706295687" lon="8.644321675825479"><ele>241.0</ele><time>2026-05-01T14:38:53.999Z</time></trkpt><trkpt lat="42.32310252066685" lon="8.64446306262836"><ele>246.75</ele><time>2026-05-01T14:38:54.999Z</time></trkpt><trkpt lat="42.323174212052514" lon="8.644603690128303"><ele>252.5</ele><time>2026-05-01T14:38:55.999Z</time></trkpt><trkpt lat="42.32326654330592" lon="8.644765229555068"><ele>258.25</ele><time>2026-05-01T14:38:56.999Z</time></trkpt><trkpt lat="42.323387583712694" lon="8.644909060847857"><ele>264.0</ele><time>2026-05-01T14:38:58Z</time></trkpt><trkpt lat="42.32352018834825" lon="8.645047609996013"><ele>264.0</ele><time>2026-05-01T14:38:59Z</time></trkpt><trkpt lat="42.323634679332415" lon="8.645232243188836"><ele>264.0</ele><time>2026-05-01T14:39:00Z</time></trkpt><trkpt lat="42.3237530927241" lon="8.645383071093814"><ele>264.0</ele><time>2026-05-01T14:39:01Z</time></trkpt><trkpt lat="42.323859695719875" lon="8.645524744737775"><ele>267.75</ele><time>2026-05-01T14:39:02Z</time></trkpt><trkpt lat="42.32395003280062" lon="8.645667795661737"><ele>271.5</ele><time>2026-05-01T14:39:03Z</time></trkpt><trkpt lat="42.32402647616536" lon="8.645812631648948"><ele>275.25</ele><time>2026-05-01T14:39:04Z</time></trkpt><trkpt lat="42.324077129080855" lon="8.645958164234465"><ele>279.0</ele><time>2026-05-01T14:39:05Z</time></trkpt><trkpt lat="42.324085828202506" lon="8.646104495025451"><ele>279.0</ele><time>2026-05-01T14:39:06Z</time></trkpt><trkpt lat="42.3240630809987" lon="8.646241687945214"><ele>279.0</ele><time>2026-05-01T14:39:07Z</time></trkpt><trkpt lat="42.32398118013098" lon="8.646340540721646"><ele>279.0</ele><time>2026-05-01T14:39:08Z</time></trkpt><trkpt lat="42.32389112608193" lon="8.646482678038156"><ele>279.0</ele><time>2026-05-01T14:39:09Z</time></trkpt><trkpt lat="42.323825661249984" lon="8.646662507077643"><ele>277.6666666666667</ele><time>2026-05-01T14:39:10Z</time></trkpt><trkpt lat="42.32374449980151" lon="8.646842692377696"><ele>276.33333333333337</ele><time>2026-05-01T14:39:11Z</time></trkpt><trkpt lat="42.323645433285485" lon="8.64701615330508"><ele>275.0</ele><time>2026-05-01T14:39:12Z</time></trkpt><trkpt lat="42.323501887633725" lon="8.647108574658462"><ele>275.0</ele><time>2026-05-01T14:39:13Z</time></trkpt><trkpt lat="42.32334543484572" lon="8.647179647341465"><ele>275.0</ele><time>2026-05-01T14:39:14Z</time></trkpt><trkpt lat="42.32318522661631" lon="8.647277479798419"><ele>275.0</ele><time>2026-05-01T14:39:15Z</time></trkpt><trkpt lat="42.32302838297175" lon="8.647370599396288"><ele>274.6666666666667</ele><time>2026-05-01T14:39:16Z</time></trkpt><trkpt lat="42.322849210518335" lon="8.647379267127281"><ele>274.3333333333333</ele><time>2026-05-01T14:39:17Z</time></trkpt><trkpt lat="42.322659476584406" lon="8.647398280711695"><ele>274.0</ele><time>2026-05-01T14:39:18Z</time></trkpt><trkpt lat="42.322482840983945" lon="8.647341246550134"><ele>274.0</ele><time>2026-05-01T14:39:19Z</time></trkpt><trkpt lat="42.32230423985266" lon="8.647310335972135"><ele>274.0</ele><time>2026-05-01T14:39:20Z</time></trkpt><trkpt lat="42.32212549757935" lon="8.647277401895234"><ele>274.0</ele><time>2026-05-01T14:39:21Z</time></trkpt><trkpt lat="42.321943949361106" lon="8.647294120400197"><ele>271.3333333333333</ele><time>2026-05-01T14:39:22Z</time></trkpt><trkpt lat="42.32176966541267" lon="8.647339085835059"><ele>268.6666666666667</ele><time>2026-05-01T14:39:23Z</time></trkpt><trkpt lat="42.32161306104" lon="8.647383252861852"><ele>266.0</ele><time>2026-05-01T14:39:24Z</time></trkpt><trkpt lat="42.321478663147964" lon="8.647463462352636"><ele>265.0</ele><time>2026-05-01T14:39:25Z</time></trkpt><trkpt lat="42.32136678078383" lon="8.647601628869452"><ele>264.0</ele><time>2026-05-01T14:39:26.001Z</time></trkpt><trkpt lat="42.32125885097223" lon="8.647795469477051"><ele>263.0</ele><time>2026-05-01T14:39:27.001Z</time></trkpt><trkpt lat="42.32116161870412" lon="8.648030883821907"><ele>263.0</ele><time>2026-05-01T14:39:28.001Z</time></trkpt><trkpt lat="42.321061024443736" lon="8.648297001752105"><ele>263.0</ele><time>2026-05-01T14:39:29.001Z</time></trkpt><trkpt lat="42.320955861479" lon="8.648536457374954"><ele>263.0</ele><time>2026-05-01T14:39:30.001Z</time></trkpt><trkpt lat="42.32088008667532" lon="8.648755671995952"><ele>262.33333333333337</ele><time>2026-05-01T14:39:31.001Z</time></trkpt><trkpt lat="42.320870992939895" lon="8.648994638410596"><ele>261.6666666666667</ele><time>2026-05-01T14:39:32.001Z</time></trkpt><trkpt lat="42.320890796182034" lon="8.649266065308426"><ele>261.0</ele><time>2026-05-01T14:39:33.001Z</time></trkpt><trkpt lat="42.32095265342029" lon="8.649521116914999"><ele>261.0</ele><time>2026-05-01T14:39:34.001Z</time></trkpt><trkpt lat="42.321063852741055" lon="8.649765411575462"><ele>261.0</ele><time>2026-05-01T14:39:35.001Z</time></trkpt><trkpt lat="42.32113451990741" lon="8.650045139060824"><ele>261.0</ele><time>2026-05-01T14:39:36.001Z</time></trkpt><trkpt lat="42.3211927403476" lon="8.65035841406901"><ele>258.5</ele><time>2026-05-01T14:39:37.001Z</time></trkpt><trkpt lat="42.32122413087086" lon="8.65067958915875"><ele>256.0</ele><time>2026-05-01T14:39:38.001Z</time></trkpt><trkpt lat="42.321238145981056" lon="8.650976067209609"><ele>258.0</ele><time>2026-05-01T14:39:39.001Z</time></trkpt><trkpt lat="42.32119135038936" lon="8.651258830223815"><ele>260.0</ele><time>2026-05-01T14:39:40.001Z</time></trkpt><trkpt lat="42.32114507808744" lon="8.651563730760884"><ele>262.0</ele><time>2026-05-01T14:39:41.001Z</time></trkpt><trkpt lat="42.32112297809334" lon="8.651813250806908"><ele>266.3333333333333</ele><time>2026-05-01T14:39:42.001Z</time></trkpt><trkpt lat="42.32106500052635" lon="8.652003863872205"><ele>270.6666666666667</ele><time>2026-05-01T14:39:43.001Z</time></trkpt><trkpt lat="42.32095316640965" lon="8.652128635323933"><ele>275.0</ele><time>2026-05-01T14:39:44.001Z</time></trkpt><trkpt lat="42.32078814836089" lon="8.652229293152766"><ele>275.0</ele><time>2026-05-01T14:39:45.001Z</time></trkpt><trkpt lat="42.3206102518277" lon="8.652396033268403"><ele>275.0</ele><time>2026-05-01T14:39:46.001Z</time></trkpt><trkpt lat="42.32045359834889" lon="8.652566005512027"><ele>275.0</ele><time>2026-05-01T14:39:47.001Z</time></trkpt><trkpt lat="42.320358174073895" lon="8.65275392141204"><ele>274.25</ele><time>2026-05-01T14:39:48.001Z</time></trkpt><trkpt lat="42.32033303226523" lon="8.652914911405357"><ele>273.5</ele><time>2026-05-01T14:39:49.001Z</time></trkpt><trkpt lat="42.32037655488841" lon="8.653028580931576"><ele>272.75</ele><time>2026-05-01T14:39:50.001Z</time></trkpt><trkpt lat="42.32046941960553" lon="8.653136132815"><ele>272.0</ele><time>2026-05-01T14:39:51.001Z</time></trkpt><trkpt lat="42.32061475260087" lon="8.653259665966981"><ele>272.0</ele><time>2026-05-01T14:39:52.001Z</time></trkpt><trkpt lat="42.32075836180901" lon="8.653415801105"><ele>272.0</ele><time>2026-05-01T14:39:53.001Z</time></trkpt><trkpt lat="42.32088278494591" lon="8.653566913686088"><ele>272.0</ele><time>2026-05-01T14:39:54.001Z</time></trkpt><trkpt lat="42.321018432375304" lon="8.653638380519515"><ele>275.6666666666667</ele><time>2026-05-01T14:39:55.001Z</time></trkpt><trkpt lat="42.32119611030122" lon="8.653632110287743"><ele>279.3333333333333</ele><time>2026-05-01T14:39:56.001Z</time></trkpt><trkpt lat="42.321411231241164" lon="8.653580998363948"><ele>283.0</ele><time>2026-05-01T14:39:57.001Z</time></trkpt><trkpt lat="42.321650703940875" lon="8.65357637088144"><ele>283.0</ele><time>2026-05-01T14:39:58.001Z</time></trkpt><trkpt lat="42.32189596766555" lon="8.653621626200295"><ele>283.0</ele><time>2026-05-01T14:39:59.001Z</time></trkpt><trkpt lat="42.3221312910799" lon="8.653634582835581"><ele>285.0</ele><time>2026-05-01T14:40:00.001Z</time></trkpt><trkpt lat="42.32232842895439" lon="8.653595042044696"><ele>287.0</ele><time>2026-05-01T14:40:01.002Z</time></trkpt><trkpt lat="42.32250585047556" lon="8.653536258129527"><ele>289.0</ele><time>2026-05-01T14:40:02.002Z</time></trkpt><trkpt lat="42.32265422746308" lon="8.653614108371913"><ele>279.3333333333333</ele><time>2026-05-01T14:40:03.002Z</time></trkpt><trkpt lat="42.32284269606427" lon="8.653717680861714"><ele>269.6666666666667</ele><time>2026-05-01T14:40:04.002Z</time></trkpt><trkpt lat="42.32304079308205" lon="8.65378738346091"><ele>260.0</ele><time>2026-05-01T14:40:05.002Z</time></trkpt><trkpt lat="42.32325290537383" lon="8.653792699509"><ele>260.0</ele><time>2026-05-01T14:40:06.002Z</time></trkpt><trkpt lat="42.3234744177494" lon="8.653735272207381"><ele>260.0</ele><time>2026-05-01T14:40:07.002Z</time></trkpt><trkpt lat="42.323675096259265" lon="8.653633417781482"><ele>260.0</ele><time>2026-05-01T14:40:08.002Z</time></trkpt><trkpt lat="42.3238134239177" lon="8.653598599622711"><ele>261.25</ele><time>2026-05-01T14:40:09.002Z</time></trkpt><trkpt lat="42.32390000344264" lon="8.653711163832721"><ele>262.5</ele><time>2026-05-01T14:40:10.002Z</time></trkpt><trkpt lat="42.3239896026788" lon="8.653844403409071"><ele>263.75</ele><time>2026-05-01T14:40:11.002Z</time></trkpt><trkpt lat="42.324123489666825" lon="8.653955033524735"><ele>265.0</ele><time>2026-05-01T14:40:12.002Z</time></trkpt><trkpt lat="42.32425716264587" lon="8.654015594786028"><ele>265.0</ele><time>2026-05-01T14:40:13.002Z</time></trkpt><trkpt lat="42.324405716602044" lon="8.653959219688192"><ele>265.0</ele><time>2026-05-01T14:40:14.002Z</time></trkpt><trkpt lat="42.3245511183227" lon="8.653827576843488"><ele>265.0</ele><time>2026-05-01T14:40:15.002Z</time></trkpt><trkpt lat="42.32469563419018" lon="8.65360500997062"><ele>272.66666666666663</ele><time>2026-05-01T14:40:16.002Z</time></trkpt><trkpt lat="42.324854346045086" lon="8.653441199051576"><ele>280.3333333333333</ele><time>2026-05-01T14:40:17.002Z</time></trkpt><trkpt lat="42.325025375013205" lon="8.653437491612124"><ele>288.0</ele><time>2026-05-01T14:40:18.002Z</time></trkpt><trkpt lat="42.32518086708425" lon="8.65344190071891"><ele>288.0</ele><time>2026-05-01T14:40:19.002Z</time></trkpt><trkpt lat="42.32529347709834" lon="8.653524142368294"><ele>288.0</ele><time>2026-05-01T14:40:20.002Z</time></trkpt><trkpt lat="42.3253582426579" lon="8.653676646822905"><ele>288.0</ele><time>2026-05-01T14:40:21.002Z</time></trkpt><trkpt lat="42.32543331237791" lon="8.653897709139198"><ele>288.0</ele><time>2026-05-01T14:40:22.002Z</time></trkpt><trkpt lat="42.325500203536066" lon="8.654170598139272"><ele>289.6666666666667</ele><time>2026-05-01T14:40:23.002Z</time></trkpt><trkpt lat="42.32556905300749" lon="8.654442060909002"><ele>291.33333333333337</ele><time>2026-05-01T14:40:24.002Z</time></trkpt><trkpt lat="42.32569300665507" lon="8.654691418336464"><ele>293.0</ele><time>2026-05-01T14:40:25.002Z</time></trkpt><trkpt lat="42.325874015384755" lon="8.654926210615939"><ele>282.5</ele><time>2026-05-01T14:40:26.002Z</time></trkpt><trkpt lat="42.3260718796358" lon="8.655137922715664"><ele>272.0</ele><time>2026-05-01T14:40:27.002Z</time></trkpt><trkpt lat="42.32628373739597" lon="8.655307524848094"><ele>275.0</ele><time>2026-05-01T14:40:28.002Z</time></trkpt><trkpt lat="42.32648413015254" lon="8.655434895703998"><ele>278.0</ele><time>2026-05-01T14:40:29.002Z</time></trkpt><trkpt lat="42.32660958391027" lon="8.655608592189198"><ele>281.0</ele><time>2026-05-01T14:40:30.002Z</time></trkpt><trkpt lat="42.32669185151216" lon="8.655844395189686"><ele>281.0</ele><time>2026-05-01T14:40:31.002Z</time></trkpt><trkpt lat="42.326820456335994" lon="8.656111969584318"><ele>281.0</ele><time>2026-05-01T14:40:32.002Z</time></trkpt><trkpt lat="42.32694612458819" lon="8.656398249521468"><ele>287.0</ele><time>2026-05-01T14:40:33.002Z</time></trkpt><trkpt lat="42.32712191363774" lon="8.656654510961957"><ele>293.0</ele><time>2026-05-01T14:40:34.002Z</time></trkpt><trkpt lat="42.32731453019248" lon="8.656860320048585"><ele>291.33333333333337</ele><time>2026-05-01T14:40:35.002Z</time></trkpt><trkpt lat="42.32750015784411" lon="8.657008567734898"><ele>289.6666666666667</ele><time>2026-05-01T14:40:36.003Z</time></trkpt><trkpt lat="42.3276048354289" lon="8.657179364577178"><ele>288.0</ele><time>2026-05-01T14:40:37.003Z</time></trkpt><trkpt lat="42.327637923805185" lon="8.6573459261008"><ele>288.0</ele><time>2026-05-01T14:40:38.003Z</time></trkpt><trkpt lat="42.32760760512345" lon="8.65745880333937"><ele>288.0</ele><time>2026-05-01T14:40:39.003Z</time></trkpt><trkpt lat="42.32754704156103" lon="8.657535670668802"><ele>288.0</ele><time>2026-05-01T14:40:40.003Z</time></trkpt><trkpt lat="42.32743548795234" lon="8.657591730359682"><ele>288.0</ele><time>2026-05-01T14:40:41.003Z</time></trkpt><trkpt lat="42.32727290208499" lon="8.657651090290194"><ele>284.0</ele><time>2026-05-01T14:40:42.003Z</time></trkpt><trkpt lat="42.32707751376626" lon="8.65770103751534"><ele>280.0</ele><time>2026-05-01T14:40:43.003Z</time></trkpt><trkpt lat="42.32686159041645" lon="8.657710268271613"><ele>276.0</ele><time>2026-05-01T14:40:44.003Z</time></trkpt><trkpt lat="42.32665123716134" lon="8.657693432751106"><ele>276.0</ele><time>2026-05-01T14:40:45.003Z</time></trkpt><trkpt lat="42.326441369372006" lon="8.657616836116086"><ele>276.0</ele><time>2026-05-01T14:40:46.003Z</time></trkpt><trkpt lat="42.326207205119864" lon="8.657548393555109"><ele>278.0</ele><time>2026-05-01T14:40:47.003Z</time></trkpt><trkpt lat="42.32595686681515" lon="8.657434976776"><ele>280.0</ele><time>2026-05-01T14:40:47.997Z</time></trkpt><trkpt lat="42.325687244516864" lon="8.657372559127355"><ele>281.66666666666663</ele><time>2026-05-01T14:40:48.997Z</time></trkpt><trkpt lat="42.32544799712975" lon="8.657361153111639"><ele>283.3333333333333</ele><time>2026-05-01T14:40:49.997Z</time></trkpt><trkpt lat="42.325256236620156" lon="8.657345074761125"><ele>285.0</ele><time>2026-05-01T14:40:50.997Z</time></trkpt><trkpt lat="42.32510491796389" lon="8.657289649618848"><ele>285.0</ele><time>2026-05-01T14:40:51.997Z</time></trkpt><trkpt lat="42.324979233279215" lon="8.657284291550804"><ele>285.0</ele><time>2026-05-01T14:40:52.997Z</time></trkpt><trkpt lat="42.32487224847872" lon="8.657266764562415"><ele>285.0</ele><time>2026-05-01T14:40:53.997Z</time></trkpt><trkpt lat="42.32476000403223" lon="8.657286090242687"><ele>285.0</ele><time>2026-05-01T14:40:54.997Z</time></trkpt><trkpt lat="42.32463356326378" lon="8.657379266015912"><ele>282.25</ele><time>2026-05-01T14:40:55.997Z</time></trkpt><trkpt lat="42.324520650473175" lon="8.657499661583548"><ele>279.5</ele><time>2026-05-01T14:40:56.997Z</time></trkpt><trkpt lat="42.32441049590372" lon="8.657615883102151"><ele>276.75</ele><time>2026-05-01T14:40:57.997Z</time></trkpt><trkpt lat="42.324322153848144" lon="8.657737754874075"><ele>274.0</ele><time>2026-05-01T14:40:58.997Z</time></trkpt><trkpt lat="42.32426872047184" lon="8.657884661819528"><ele>274.0</ele><time>2026-05-01T14:40:59.997Z</time></trkpt><trkpt lat="42.3242667096374" lon="8.65806455983204"><ele>274.0</ele><time>2026-05-01T14:41:00.997Z</time></trkpt><trkpt lat="42.32430692818961" lon="8.65826492819043"><ele>274.0</ele><time>2026-05-01T14:41:01.997Z</time></trkpt><trkpt lat="42.32434552487168" lon="8.658422230799633"><ele>274.0</ele><time>2026-05-01T14:41:02.997Z</time></trkpt><trkpt lat="42.324362877338615" lon="8.658529461016004"><ele>273.59999999999997</ele><time>2026-05-01T14:41:03.998Z</time></trkpt><trkpt lat="42.324382554854864" lon="8.658679269279977"><ele>273.2</ele><time>2026-05-01T14:41:05.998Z</time></trkpt><trkpt lat="42.3243980583533" lon="8.658771288991705"><ele>272.79999999999995</ele><time>2026-05-01T14:41:06.998Z</time></trkpt><trkpt lat="42.324400299789026" lon="8.658918449706656"><ele>272.4</ele><time>2026-05-01T14:41:07.998Z</time></trkpt><trkpt lat="42.324423522724935" lon="8.659104282086009"><ele>272.0</ele><time>2026-05-01T14:41:08.998Z</time></trkpt><trkpt lat="42.32444905518359" lon="8.659321295424732"><ele>274.0</ele><time>2026-05-01T14:41:09.998Z</time></trkpt><trkpt lat="42.32445705149727" lon="8.659565226092386"><ele>276.0</ele><time>2026-05-01T14:41:10.998Z</time></trkpt><trkpt lat="42.3244350624808" lon="8.659829699631915"><ele>278.0</ele><time>2026-05-01T14:41:11.998Z</time></trkpt><trkpt lat="42.32442191504221" lon="8.660090727605283"><ele>283.5</ele><time>2026-05-01T14:41:12.998Z</time></trkpt><trkpt lat="42.3244236533213" lon="8.660295786893698"><ele>289.0</ele><time>2026-05-01T14:41:13.998Z</time></trkpt><trkpt lat="42.324380296985694" lon="8.66043648367447"><ele>294.5</ele><time>2026-05-01T14:41:14.999Z</time></trkpt><trkpt lat="42.324288912660805" lon="8.660487494703863"><ele>300.0</ele><time>2026-05-01T14:41:15.999Z</time></trkpt><trkpt lat="42.324160905834596" lon="8.660477939258744"><ele>300.0</ele><time>2026-05-01T14:41:16.999Z</time></trkpt><trkpt lat="42.32398777232574" lon="8.660513632573792"><ele>300.0</ele><time>2026-05-01T14:41:17.999Z</time></trkpt><trkpt lat="42.32380640734301" lon="8.660531449150833"><ele>300.0</ele><time>2026-05-01T14:41:18.999Z</time></trkpt><trkpt lat="42.32364900247233" lon="8.66051009030178"><ele>301.0</ele><time>2026-05-01T14:41:19.999Z</time></trkpt><trkpt lat="42.32355523141275" lon="8.660393104315022"><ele>302.0</ele><time>2026-05-01T14:41:20.999Z</time></trkpt><trkpt lat="42.32342669377859" lon="8.66024618542519"><ele>303.0</ele><time>2026-05-01T14:41:21.999Z</time></trkpt><trkpt lat="42.323262856463856" lon="8.660102943788658"><ele>297.0</ele><time>2026-05-01T14:41:22.999Z</time></trkpt><trkpt lat="42.32308553702302" lon="8.659971575838094"><ele>291.0</ele><time>2026-05-01T14:41:23.999Z</time></trkpt><trkpt lat="42.32286778039103" lon="8.659889893424877"><ele>285.0</ele><time>2026-05-01T14:41:24.999Z</time></trkpt><trkpt lat="42.32264946398504" lon="8.659827994038109"><ele>285.0</ele><time>2026-05-01T14:41:25.999Z</time></trkpt><trkpt lat="42.322446731011496" lon="8.659792086797472"><ele>285.0</ele><time>2026-05-01T14:41:26.999Z</time></trkpt><trkpt lat="42.322277777395485" lon="8.659795749040743"><ele>285.0</ele><time>2026-05-01T14:41:27.999Z</time></trkpt><trkpt lat="42.322135454968034" lon="8.659845407556809"><ele>280.0</ele><time>2026-05-01T14:41:28.999Z</time></trkpt><trkpt lat="42.32199101222321" lon="8.659975346892807"><ele>275.0</ele><time>2026-05-01T14:41:29.999Z</time></trkpt><trkpt lat="42.32180818193349" lon="8.660071508794289"><ele>270.0</ele><time>2026-05-01T14:41:30.999Z</time></trkpt><trkpt lat="42.32161529605702" lon="8.66013871508193"><ele>270.0</ele><time>2026-05-01T14:41:31.999Z</time></trkpt><trkpt lat="42.321470196692154" lon="8.660264654784806"><ele>270.0</ele><time>2026-05-01T14:41:33Z</time></trkpt><trkpt lat="42.321346514613495" lon="8.660460381820137"><ele>270.0</ele><time>2026-05-01T14:41:34Z</time></trkpt><trkpt lat="42.32123664457533" lon="8.660720018781221"><ele>267.6666666666667</ele><time>2026-05-01T14:41:35Z</time></trkpt><trkpt lat="42.321155174443795" lon="8.660982848256292"><ele>265.33333333333337</ele><time>2026-05-01T14:41:36Z</time></trkpt><trkpt lat="42.32110816647186" lon="8.661245583461412"><ele>263.0</ele><time>2026-05-01T14:41:37Z</time></trkpt><trkpt lat="42.32104258030532" lon="8.661443319793324"><ele>268.0</ele><time>2026-05-01T14:41:38Z</time></trkpt><trkpt lat="42.320970360532705" lon="8.66159393408165"><ele>273.0</ele><time>2026-05-01T14:41:39Z</time></trkpt><trkpt lat="42.32090765805021" lon="8.661716206857047"><ele>278.0</ele><time>2026-05-01T14:41:40Z</time></trkpt><trkpt lat="42.32082162999075" lon="8.661826071162324"><ele>283.0</ele><time>2026-05-01T14:41:41Z</time></trkpt><trkpt lat="42.32070139540419" lon="8.661886102801267"><ele>278.3333333333333</ele><time>2026-05-01T14:41:42Z</time></trkpt><trkpt lat="42.32055537357475" lon="8.661889158507567"><ele>273.6666666666667</ele><time>2026-05-01T14:41:43Z</time></trkpt><trkpt lat="42.32037265843349" lon="8.661858018031046"><ele>269.0</ele><time>2026-05-01T14:41:44Z</time></trkpt><trkpt lat="42.32016520175876" lon="8.661858805857817"><ele>269.0</ele><time>2026-05-01T14:41:45Z</time></trkpt><trkpt lat="42.31995022677236" lon="8.66185647543634"><ele>269.0</ele><time>2026-05-01T14:41:46Z</time></trkpt><trkpt lat="42.319744831216845" lon="8.6618910885168"><ele>269.0</ele><time>2026-05-01T14:41:47Z</time></trkpt><trkpt lat="42.319577225131006" lon="8.661954231665588"><ele>275.6666666666667</ele><time>2026-05-01T14:41:48Z</time></trkpt><trkpt lat="42.319434976971436" lon="8.662086471293268"><ele>282.3333333333333</ele><time>2026-05-01T14:41:49Z</time></trkpt><trkpt lat="42.319278965773" lon="8.66225535310572"><ele>289.0</ele><time>2026-05-01T14:41:50Z</time></trkpt><trkpt lat="42.31907411855984" lon="8.662339637054316"><ele>289.66666666666663</ele><time>2026-05-01T14:41:51Z</time></trkpt><trkpt lat="42.318891388897384" lon="8.662409048022953"><ele>290.3333333333333</ele><time>2026-05-01T14:41:52Z</time></trkpt><trkpt lat="42.318706319843706" lon="8.662393257028816"><ele>291.0</ele><time>2026-05-01T14:41:53Z</time></trkpt><trkpt lat="42.31851932584556" lon="8.662323855779746"><ele>291.0</ele><time>2026-05-01T14:41:54Z</time></trkpt><trkpt lat="42.31835079177285" lon="8.662216145652781"><ele>291.0</ele><time>2026-05-01T14:41:55Z</time></trkpt><trkpt lat="42.31826260370433" lon="8.662043342864793"><ele>291.0</ele><time>2026-05-01T14:41:56Z</time></trkpt><trkpt lat="42.31815977595431" lon="8.661825483209997"><ele>292.3333333333333</ele><time>2026-05-01T14:41:57Z</time></trkpt><trkpt lat="42.31803367908758" lon="8.661596248175565"><ele>293.66666666666663</ele><time>2026-05-01T14:41:58Z</time></trkpt><trkpt lat="42.31789723507269" lon="8.66138358159903"><ele>295.0</ele><time>2026-05-01T14:41:59Z</time></trkpt><trkpt lat="42.317743177940756" lon="8.661248083913272"><ele>295.0</ele><time>2026-05-01T14:42:00Z</time></trkpt><trkpt lat="42.31757640509002" lon="8.661178555052686"><ele>295.0</ele><time>2026-05-01T14:42:01.001Z</time></trkpt><trkpt lat="42.31740996852706" lon="8.66115402084471"><ele>295.0</ele><time>2026-05-01T14:42:02.001Z</time></trkpt><trkpt lat="42.317252333668904" lon="8.661074093617351"><ele>290.66666666666663</ele><time>2026-05-01T14:42:03.001Z</time></trkpt><trkpt lat="42.31707965198978" lon="8.660952113799805"><ele>286.3333333333333</ele><time>2026-05-01T14:42:04.001Z</time></trkpt><trkpt lat="42.31689324929913" lon="8.660843658972968"><ele>282.0</ele><time>2026-05-01T14:42:05.001Z</time></trkpt><trkpt lat="42.316715150558096" lon="8.660745715173727"><ele>282.0</ele><time>2026-05-01T14:42:06.001Z</time></trkpt><trkpt lat="42.3165161669351" lon="8.660695317389862"><ele>282.0</ele><time>2026-05-01T14:42:07.001Z</time></trkpt><trkpt lat="42.31632905231552" lon="8.660668994360156"><ele>282.0</ele><time>2026-05-01T14:42:08.001Z</time></trkpt><trkpt lat="42.31620344597557" lon="8.660672004559679"><ele>281.75</ele><time>2026-05-01T14:42:09.001Z</time></trkpt><trkpt lat="42.31613017190372" lon="8.660734087147874"><ele>281.5</ele><time>2026-05-01T14:42:10.001Z</time></trkpt><trkpt lat="42.31609208859142" lon="8.660880057805596"><ele>281.25</ele><time>2026-05-01T14:42:11.001Z</time></trkpt><trkpt lat="42.316104965197624" lon="8.661059720155784"><ele>281.0</ele><time>2026-05-01T14:42:12.001Z</time></trkpt><trkpt lat="42.31618830313518" lon="8.66123950303467"><ele>281.33333333333337</ele><time>2026-05-01T14:42:13.001Z</time></trkpt><trkpt lat="42.31632521755229" lon="8.661437901215645"><ele>281.6666666666667</ele><time>2026-05-01T14:42:14.001Z</time></trkpt><trkpt lat="42.31642817194547" lon="8.661687582028298"><ele>282.0</ele><time>2026-05-01T14:42:15.001Z</time></trkpt><trkpt lat="42.316532210044954" lon="8.661980867081784"><ele>282.0</ele><time>2026-05-01T14:42:16.001Z</time></trkpt><trkpt lat="42.31660573643157" lon="8.662296365090087"><ele>282.0</ele><time>2026-05-01T14:42:17.001Z</time></trkpt><trkpt lat="42.3166398956189" lon="8.662641362911913"><ele>277.0</ele><time>2026-05-01T14:42:18.001Z</time></trkpt><trkpt lat="42.316683450450945" lon="8.66298036992422"><ele>272.0</ele><time>2026-05-01T14:42:19.001Z</time></trkpt><trkpt lat="42.31674483046563" lon="8.663304978470094"><ele>265.5</ele><time>2026-05-01T14:42:20.001Z</time></trkpt><trkpt lat="42.31687424700853" lon="8.663642529563791"><ele>259.0</ele><time>2026-05-01T14:42:21.001Z</time></trkpt><trkpt lat="42.31701072432774" lon="8.663991502687294"><ele>259.0</ele><time>2026-05-01T14:42:22.001Z</time></trkpt><trkpt lat="42.317077696738686" lon="8.664386081740698"><ele>259.0</ele><time>2026-05-01T14:42:23.001Z</time></trkpt><trkpt lat="42.31715286429452" lon="8.664756873989301"><ele>255.5</ele><time>2026-05-01T14:42:24.001Z</time></trkpt><trkpt lat="42.31719200273139" lon="8.665072284923191"><ele>252.0</ele><time>2026-05-01T14:42:25.001Z</time></trkpt><trkpt lat="42.31719630947498" lon="8.665361573142205"><ele>251.66666666666669</ele><time>2026-05-01T14:42:26.001Z</time></trkpt><trkpt lat="42.31715148585077" lon="8.66563514389995"><ele>251.33333333333334</ele><time>2026-05-01T14:42:27.001Z</time></trkpt><trkpt lat="42.317088372766186" lon="8.665915433708337"><ele>251.0</ele><time>2026-05-01T14:42:28.001Z</time></trkpt><trkpt lat="42.317041704206204" lon="8.666176854309475"><ele>253.0</ele><time>2026-05-01T14:42:29.001Z</time></trkpt><trkpt lat="42.317007167224496" lon="8.666377217581713"><ele>255.0</ele><time>2026-05-01T14:42:30.001Z</time></trkpt><trkpt lat="42.317043737810586" lon="8.666562938293637"><ele>257.0</ele><time>2026-05-01T14:42:31.001Z</time></trkpt><trkpt lat="42.317150758596505" lon="8.666789159534387"><ele>260.0</ele><time>2026-05-01T14:42:32.001Z</time></trkpt><trkpt lat="42.31729570302588" lon="8.667034599425715"><ele>263.0</ele><time>2026-05-01T14:42:33.002Z</time></trkpt><trkpt lat="42.31746188592972" lon="8.667279417122034"><ele>263.0</ele><time>2026-05-01T14:42:34.002Z</time></trkpt><trkpt lat="42.31763125522995" lon="8.66748553792751"><ele>263.0</ele><time>2026-05-01T14:42:35.002Z</time></trkpt><trkpt lat="42.31775612551936" lon="8.66761121884622"><ele>263.0</ele><time>2026-05-01T14:42:36.002Z</time></trkpt><trkpt lat="42.31785695052711" lon="8.667661542364398"><ele>263.0</ele><time>2026-05-01T14:42:37.002Z</time></trkpt><trkpt lat="42.317966535776264" lon="8.66762765629968"><ele>263.0</ele><time>2026-05-01T14:42:38.002Z</time></trkpt><trkpt lat="42.31806765614573" lon="8.667509343788376"><ele>263.0</ele><time>2026-05-01T14:42:39.002Z</time></trkpt><trkpt lat="42.31817545611972" lon="8.667311756770136"><ele>263.0</ele><time>2026-05-01T14:42:40.002Z</time></trkpt><trkpt lat="42.31829017380298" lon="8.667075089674329"><ele>267.0</ele><time>2026-05-01T14:42:41.002Z</time></trkpt><trkpt lat="42.31841290426153" lon="8.666857374207188"><ele>271.0</ele><time>2026-05-01T14:42:42.002Z</time></trkpt><trkpt lat="42.318585004777056" lon="8.66673904068978"><ele>275.0</ele><time>2026-05-01T14:42:43.002Z</time></trkpt><trkpt lat="42.31876320798672" lon="8.66660549814938"><ele>270.33333333333337</ele><time>2026-05-01T14:42:44.002Z</time></trkpt><trkpt lat="42.318962554428175" lon="8.666522000715673"><ele>265.6666666666667</ele><time>2026-05-01T14:42:45.002Z</time></trkpt><trkpt lat="42.319166318781114" lon="8.66649451719075"><ele>261.0</ele><time>2026-05-01T14:42:46.002Z</time></trkpt><trkpt lat="42.31935535567503" lon="8.666498953425744"><ele>261.0</ele><time>2026-05-01T14:42:47.002Z</time></trkpt><trkpt lat="42.31948964549699" lon="8.666583388777942"><ele>261.0</ele><time>2026-05-01T14:42:48.002Z</time></trkpt><trkpt lat="42.3196111005279" lon="8.666705927017505"><ele>261.0</ele><time>2026-05-01T14:42:49.002Z</time></trkpt><trkpt lat="42.319687894704806" lon="8.666867379723914"><ele>261.0</ele><time>2026-05-01T14:42:50.002Z</time></trkpt><trkpt lat="42.319768906795986" lon="8.667060611266647"><ele>260.75</ele><time>2026-05-01T14:42:51.002Z</time></trkpt><trkpt lat="42.31984514403217" lon="8.667240177882206"><ele>260.5</ele><time>2026-05-01T14:42:52.002Z</time></trkpt><trkpt lat="42.31990669281055" lon="8.667379816740828"><ele>260.25</ele><time>2026-05-01T14:42:53.002Z</time></trkpt><trkpt lat="42.31995585737859" lon="8.667495655416761"><ele>260.0</ele><time>2026-05-01T14:42:53.996Z</time></trkpt><trkpt lat="42.32000322112577" lon="8.667601470555178"><ele>260.0</ele><time>2026-05-01T14:42:54.996Z</time></trkpt><trkpt lat="42.320052721114806" lon="8.667700619627919"><ele>260.0</ele><time>2026-05-01T14:42:55.997Z</time></trkpt><trkpt lat="42.32013218584334" lon="8.667833233947263"><ele>260.0</ele><time>2026-05-01T14:42:56.997Z</time></trkpt><trkpt lat="42.320234329338305" lon="8.667981846566486"><ele>260.0</ele><time>2026-05-01T14:42:57.997Z</time></trkpt><trkpt lat="42.32035083938065" lon="8.66810907315923"><ele>259.0</ele><time>2026-05-01T14:42:58.997Z</time></trkpt><trkpt lat="42.320469128482166" lon="8.668231982241315"><ele>258.0</ele><time>2026-05-01T14:42:59.997Z</time></trkpt><trkpt lat="42.32060650790438" lon="8.668325880842366"><ele>257.0</ele><time>2026-05-01T14:43:00.997Z</time></trkpt><trkpt lat="42.320751108733525" lon="8.668397248963135"><ele>257.0</ele><time>2026-05-01T14:43:01.998Z</time></trkpt><trkpt lat="42.32088973289387" lon="8.668442294393351"><ele>257.0</ele><time>2026-05-01T14:43:02.998Z</time></trkpt><trkpt lat="42.321024000484634" lon="8.668435645864486"><ele>257.0</ele><time>2026-05-01T14:43:03.998Z</time></trkpt><trkpt lat="42.3211511407799" lon="8.668413405164264"><ele>257.0</ele><time>2026-05-01T14:43:04.998Z</time></trkpt><trkpt lat="42.32126153483771" lon="8.668427556824394"><ele>257.0</ele><time>2026-05-01T14:43:05.998Z</time></trkpt><trkpt lat="42.3213169786779" lon="8.668548551873391"><ele>257.0</ele><time>2026-05-01T14:43:06.998Z</time></trkpt><trkpt lat="42.32136015552527" lon="8.66862572778934"><ele>257.0</ele><time>2026-05-01T14:43:07.998Z</time></trkpt><trkpt lat="42.321325544749875" lon="8.668753411326705"><ele>257.0</ele><time>2026-05-01T14:43:08.998Z</time></trkpt><trkpt lat="42.32122994882991" lon="8.668873953196629"><ele>257.0</ele><time>2026-05-01T14:43:09.999Z</time></trkpt><trkpt lat="42.32119437142299" lon="8.669050455359335"><ele>255.75</ele><time>2026-05-01T14:43:10.999Z</time></trkpt><trkpt lat="42.32118864307214" lon="8.669225824602586"><ele>254.5</ele><time>2026-05-01T14:43:11.999Z</time></trkpt><trkpt lat="42.32120949383686" lon="8.669405087908045"><ele>253.25</ele><time>2026-05-01T14:43:12.999Z</time></trkpt><trkpt lat="42.321173925663835" lon="8.669541450470156"><ele>252.0</ele><time>2026-05-01T14:43:13.999Z</time></trkpt><trkpt lat="42.32104714820814" lon="8.6695491966727"><ele>252.0</ele><time>2026-05-01T14:43:14.999Z</time></trkpt><trkpt lat="42.32091982529742" lon="8.66956045502594"><ele>252.0</ele><time>2026-05-01T14:43:15.999Z</time></trkpt><trkpt lat="42.32081129943709" lon="8.669643534035906"><ele>252.0</ele><time>2026-05-01T14:43:16.999Z</time></trkpt><trkpt lat="42.32071083930587" lon="8.669767801651181"><ele>252.0</ele><time>2026-05-01T14:43:17.999Z</time></trkpt><trkpt lat="42.32062945196452" lon="8.66997660477522"><ele>252.33333333333331</ele><time>2026-05-01T14:43:18.999Z</time></trkpt><trkpt lat="42.32052925080868" lon="8.67017018559912"><ele>252.66666666666666</ele><time>2026-05-01T14:43:20Z</time></trkpt><trkpt lat="42.32041630300175" lon="8.670330863451987"><ele>253.0</ele><time>2026-05-01T14:43:21Z</time></trkpt><trkpt lat="42.3202926405663" lon="8.670424139968167"><ele>253.0</ele><time>2026-05-01T14:43:22Z</time></trkpt><trkpt lat="42.320161257472876" lon="8.67043573282497"><ele>253.0</ele><time>2026-05-01T14:43:23Z</time></trkpt><trkpt lat="42.31999172706693" lon="8.670421856982282"><ele>253.0</ele><time>2026-05-01T14:43:24Z</time></trkpt><trkpt lat="42.319810339745246" lon="8.67046366604676"><ele>245.66666666666666</ele><time>2026-05-01T14:43:25Z</time></trkpt><trkpt lat="42.3196376208563" lon="8.670565801446434"><ele>238.33333333333331</ele><time>2026-05-01T14:43:26Z</time></trkpt><trkpt lat="42.319489554858585" lon="8.670735562236072"><ele>231.0</ele><time>2026-05-01T14:43:27Z</time></trkpt><trkpt lat="42.3193656920479" lon="8.670949866348884"><ele>237.66666666666669</ele><time>2026-05-01T14:43:28Z</time></trkpt><trkpt lat="42.31922986224003" lon="8.671160349279806"><ele>244.33333333333334</ele><time>2026-05-01T14:43:29Z</time></trkpt><trkpt lat="42.3190985593004" lon="8.67137262314372"><ele>251.0</ele><time>2026-05-01T14:43:30Z</time></trkpt><trkpt lat="42.31895826249275" lon="8.671533593959232"><ele>246.0</ele><time>2026-05-01T14:43:31Z</time></trkpt><trkpt lat="42.318808705780995" lon="8.671579143416107"><ele>241.0</ele><time>2026-05-01T14:43:32Z</time></trkpt><trkpt lat="42.31864086226118" lon="8.67155211047018"><ele>236.0</ele><time>2026-05-01T14:43:33Z</time></trkpt><trkpt lat="42.31842015208252" lon="8.671575869893278"><ele>236.0</ele><time>2026-05-01T14:43:34Z</time></trkpt><trkpt lat="42.318185054808055" lon="8.671587502847565"><ele>236.0</ele><time>2026-05-01T14:43:35Z</time></trkpt><trkpt lat="42.317951603864834" lon="8.671660993456104"><ele>228.0</ele><time>2026-05-01T14:43:36.001Z</time></trkpt><trkpt lat="42.317714884332304" lon="8.671767632335825"><ele>220.0</ele><time>2026-05-01T14:43:37.001Z</time></trkpt><trkpt lat="42.31747317566121" lon="8.671917440782634"><ele>223.0</ele><time>2026-05-01T14:43:38.001Z</time></trkpt><trkpt lat="42.31725037595905" lon="8.672084596363986"><ele>226.0</ele><time>2026-05-01T14:43:39.001Z</time></trkpt><trkpt lat="42.317069046591804" lon="8.67224197234351"><ele>226.0</ele><time>2026-05-01T14:43:40.001Z</time></trkpt><trkpt lat="42.3169226236841" lon="8.672380103099863"><ele>226.0</ele><time>2026-05-01T14:43:41.001Z</time></trkpt><trkpt lat="42.31682010377264" lon="8.672512540905526"><ele>226.0</ele><time>2026-05-01T14:43:42.001Z</time></trkpt><trkpt lat="42.316768452535264" lon="8.67265526880715"><ele>226.0</ele><time>2026-05-01T14:43:43.001Z</time></trkpt><trkpt lat="42.31677519134827" lon="8.672830670725778"><ele>222.0</ele><time>2026-05-01T14:43:44.001Z</time></trkpt><trkpt lat="42.31683610992232" lon="8.672995009202275"><ele>218.0</ele><time>2026-05-01T14:43:45.001Z</time></trkpt><trkpt lat="42.31694220913547" lon="8.673145454088472"><ele>214.0</ele><time>2026-05-01T14:43:46.001Z</time></trkpt><trkpt lat="42.31707826433309" lon="8.673280313706197"><ele>214.0</ele><time>2026-05-01T14:43:47.001Z</time></trkpt><trkpt lat="42.317214583213875" lon="8.673400299754103"><ele>214.0</ele><time>2026-05-01T14:43:48.001Z</time></trkpt><trkpt lat="42.317333897729775" lon="8.673521003002712"><ele>214.0</ele><time>2026-05-01T14:43:49.001Z</time></trkpt><trkpt lat="42.31742693562751" lon="8.6736860916428"><ele>217.33333333333331</ele><time>2026-05-01T14:43:50.001Z</time></trkpt><trkpt lat="42.317524044739265" lon="8.673863782320746"><ele>220.66666666666669</ele><time>2026-05-01T14:43:51.001Z</time></trkpt><trkpt lat="42.317634389698036" lon="8.674054203004426"><ele>224.0</ele><time>2026-05-01T14:43:52.001Z</time></trkpt><trkpt lat="42.31771851511162" lon="8.67427571535783"><ele>216.33333333333334</ele><time>2026-05-01T14:43:53.001Z</time></trkpt><trkpt lat="42.31778573911488" lon="8.674519936594754"><ele>208.66666666666669</ele><time>2026-05-01T14:43:54.001Z</time></trkpt><trkpt lat="42.3178743923032" lon="8.674755982324678"><ele>201.0</ele><time>2026-05-01T14:43:55.001Z</time></trkpt><trkpt lat="42.31802850206192" lon="8.674948317617451"><ele>208.33333333333331</ele><time>2026-05-01T14:43:56.001Z</time></trkpt><trkpt lat="42.3182096610044" lon="8.675106593178517"><ele>215.66666666666666</ele><time>2026-05-01T14:43:57.001Z</time></trkpt><trkpt lat="42.31828141463987" lon="8.675303392982972"><ele>223.0</ele><time>2026-05-01T14:43:58.001Z</time></trkpt><trkpt lat="42.31831310838059" lon="8.675524620781028"><ele>223.0</ele><time>2026-05-01T14:43:59.001Z</time></trkpt><trkpt lat="42.3183293514462" lon="8.67579711091068"><ele>223.0</ele><time>2026-05-01T14:44:00.001Z</time></trkpt><trkpt lat="42.31838316485712" lon="8.67602284879284"><ele>223.0</ele><time>2026-05-01T14:44:01.002Z</time></trkpt><trkpt lat="42.31849397826979" lon="8.676196254516958"><ele>218.0</ele><time>2026-05-01T14:44:02.002Z</time></trkpt><trkpt lat="42.318670400447985" lon="8.676349447596694"><ele>213.0</ele><time>2026-05-01T14:44:03.002Z</time></trkpt><trkpt lat="42.31879045951855" lon="8.676518306143883"><ele>208.0</ele><time>2026-05-01T14:44:04.002Z</time></trkpt><trkpt lat="42.31880279591277" lon="8.67673968579364"><ele>210.0</ele><time>2026-05-01T14:44:05.002Z</time></trkpt><trkpt lat="42.31888588466745" lon="8.67699368658031"><ele>212.0</ele><time>2026-05-01T14:44:06.002Z</time></trkpt><trkpt lat="42.31899044430848" lon="8.677268053366246"><ele>214.0</ele><time>2026-05-01T14:44:07.002Z</time></trkpt><trkpt lat="42.31913643425538" lon="8.677452695551322"><ele>215.75</ele><time>2026-05-01T14:44:08.002Z</time></trkpt><trkpt lat="42.31925335268086" lon="8.67754013213649"><ele>217.5</ele><time>2026-05-01T14:44:09.002Z</time></trkpt><trkpt lat="42.31931641808503" lon="8.677638568305085"><ele>219.25</ele><time>2026-05-01T14:44:10.002Z</time></trkpt><trkpt lat="42.319297876051145" lon="8.677770749612579"><ele>221.0</ele><time>2026-05-01T14:44:11.002Z</time></trkpt><trkpt lat="42.31921771843015" lon="8.677903280332153"><ele>224.25</ele><time>2026-05-01T14:44:12.002Z</time></trkpt><trkpt lat="42.3190795351164" lon="8.678009336745566"><ele>227.5</ele><time>2026-05-01T14:44:13.002Z</time></trkpt><trkpt lat="42.31895495201486" lon="8.678102453178436"><ele>230.75</ele><time>2026-05-01T14:44:14.002Z</time></trkpt><trkpt lat="42.31883836598191" lon="8.678128647317346"><ele>234.0</ele><time>2026-05-01T14:44:15.002Z</time></trkpt><trkpt lat="42.31870078032888" lon="8.6780461955777"><ele>235.0</ele><time>2026-05-01T14:44:16.002Z</time></trkpt><trkpt lat="42.31854800351541" lon="8.677909858130102"><ele>236.0</ele><time>2026-05-01T14:44:17.002Z</time></trkpt><trkpt lat="42.318359658865965" lon="8.677784727867687"><ele>237.0</ele><time>2026-05-01T14:44:18.002Z</time></trkpt><trkpt lat="42.31813455756221" lon="8.67766445778812"><ele>230.5</ele><time>2026-05-01T14:44:19.002Z</time></trkpt><trkpt lat="42.31788840079146" lon="8.677519963493221"><ele>224.0</ele><time>2026-05-01T14:44:20.002Z</time></trkpt><trkpt lat="42.31764670261035" lon="8.677348835598819"><ele>224.0</ele><time>2026-05-01T14:44:21.002Z</time></trkpt><trkpt lat="42.31746526017391" lon="8.677151252547569"><ele>224.0</ele><time>2026-05-01T14:44:22.002Z</time></trkpt><trkpt lat="42.31730255121267" lon="8.677022919989316"><ele>224.0</ele><time>2026-05-01T14:44:23.002Z</time></trkpt><trkpt lat="42.317155680096256" lon="8.676933710299812"><ele>219.33333333333334</ele><time>2026-05-01T14:44:24.002Z</time></trkpt><trkpt lat="42.3169709938416" lon="8.676899733485921"><ele>214.66666666666669</ele><time>2026-05-01T14:44:25.002Z</time></trkpt><trkpt lat="42.31676641719825" lon="8.676854350675825"><ele>210.0</ele><time>2026-05-01T14:44:26.002Z</time></trkpt><trkpt lat="42.316540490921966" lon="8.676727362187082"><ele>214.5</ele><time>2026-05-01T14:44:27.002Z</time></trkpt><trkpt lat="42.3162783429606" lon="8.67662824738638"><ele>219.0</ele><time>2026-05-01T14:44:28.002Z</time></trkpt><trkpt lat="42.31600487932931" lon="8.676507607853809"><ele>219.0</ele><time>2026-05-01T14:44:29.002Z</time></trkpt><trkpt lat="42.3157630160166" lon="8.676420052169867"><ele>219.0</ele><time>2026-05-01T14:44:30.002Z</time></trkpt><trkpt lat="42.31557406712184" lon="8.676356904567035"><ele>219.0</ele><time>2026-05-01T14:44:31.002Z</time></trkpt><trkpt lat="42.31540938139112" lon="8.67631716928763"><ele>217.25</ele><time>2026-05-01T14:44:32.002Z</time></trkpt><trkpt lat="42.315257036778036" lon="8.676310755956427"><ele>215.5</ele><time>2026-05-01T14:44:33.003Z</time></trkpt><trkpt lat="42.315136409272114" lon="8.676336404565264"><ele>213.75</ele><time>2026-05-01T14:44:34.003Z</time></trkpt><trkpt lat="42.315035730483864" lon="8.676401076567265"><ele>212.0</ele><time>2026-05-01T14:44:35.003Z</time></trkpt><trkpt lat="42.31496945421457" lon="8.676516550441715"><ele>212.0</ele><time>2026-05-01T14:44:36.003Z</time></trkpt><trkpt lat="42.31495470746128" lon="8.676661656621821"><ele>212.0</ele><time>2026-05-01T14:44:37.003Z</time></trkpt><trkpt lat="42.314989833586274" lon="8.676817949486981"><ele>212.0</ele><time>2026-05-01T14:44:38.003Z</time></trkpt><trkpt lat="42.31506963707759" lon="8.676976726336278"><ele>212.0</ele><time>2026-05-01T14:44:39.003Z</time></trkpt><trkpt lat="42.31519274750176" lon="8.677136796712627"><ele>208.33333333333334</ele><time>2026-05-01T14:44:40.003Z</time></trkpt><trkpt lat="42.31533012349856" lon="8.677302049584991"><ele>204.66666666666669</ele><time>2026-05-01T14:44:41.003Z</time></trkpt><trkpt lat="42.31544758639994" lon="8.677498190775994"><ele>201.0</ele><time>2026-05-01T14:44:42.003Z</time></trkpt><trkpt lat="42.31550147888705" lon="8.677749271893292"><ele>194.66666666666666</ele><time>2026-05-01T14:44:43.003Z</time></trkpt><trkpt lat="42.315527855331624" lon="8.678020895743131"><ele>188.33333333333331</ele><time>2026-05-01T14:44:44.003Z</time></trkpt><trkpt lat="42.31557688455582" lon="8.678279793528251"><ele>182.0</ele><time>2026-05-01T14:44:45.003Z</time></trkpt><trkpt lat="42.31565302360853" lon="8.678534160193259"><ele>198.5</ele><time>2026-05-01T14:44:46.003Z</time></trkpt><trkpt lat="42.31576848782568" lon="8.678802596465177"><ele>215.0</ele><time>2026-05-01T14:44:47.003Z</time></trkpt><trkpt lat="42.31588747789042" lon="8.679082874623571"><ele>215.0</ele><time>2026-05-01T14:44:48.003Z</time></trkpt><trkpt lat="42.31600006646996" lon="8.679330381050354"><ele>215.0</ele><time>2026-05-01T14:44:49.003Z</time></trkpt><trkpt lat="42.316125071832595" lon="8.679541258237904"><ele>215.0</ele><time>2026-05-01T14:44:50.003Z</time></trkpt><trkpt lat="42.316280764948644" lon="8.679727495142236"><ele>217.0</ele><time>2026-05-01T14:44:51.003Z</time></trkpt><trkpt lat="42.31644891120396" lon="8.679901551943981"><ele>219.0</ele><time>2026-05-01T14:44:52.003Z</time></trkpt><trkpt lat="42.31656067676847" lon="8.6801336963932"><ele>221.0</ele><time>2026-05-01T14:44:53.003Z</time></trkpt><trkpt lat="42.31665957017566" lon="8.680354175895806"><ele>221.0</ele><time>2026-05-01T14:44:54.003Z</time></trkpt><trkpt lat="42.316716622407576" lon="8.680554578367824"><ele>221.0</ele><time>2026-05-01T14:44:55.003Z</time></trkpt><trkpt lat="42.316699166065085" lon="8.680724785434366"><ele>221.0</ele><time>2026-05-01T14:44:56.003Z</time></trkpt><trkpt lat="42.316645822056735" lon="8.680871852430435"><ele>221.0</ele><time>2026-05-01T14:44:57.003Z</time></trkpt><trkpt lat="42.31657082752307" lon="8.681013835716364"><ele>221.0</ele><time>2026-05-01T14:44:58.003Z</time></trkpt><trkpt lat="42.31645175716811" lon="8.681065008853523"><ele>221.0</ele><time>2026-05-01T14:44:59.003Z</time></trkpt><trkpt lat="42.316297480293024" lon="8.681126288602046"><ele>221.0</ele><time>2026-05-01T14:44:59.998Z</time></trkpt><trkpt lat="42.316114207235216" lon="8.681187575596434"><ele>222.0</ele><time>2026-05-01T14:45:00.998Z</time></trkpt><trkpt lat="42.315901352936166" lon="8.681229367084988"><ele>223.0</ele><time>2026-05-01T14:45:01.998Z</time></trkpt><trkpt lat="42.315670181852994" lon="8.681261971454038"><ele>224.0</ele><time>2026-05-01T14:45:02.998Z</time></trkpt><trkpt lat="42.31544413493878" lon="8.681306956899293"><ele>224.0</ele><time>2026-05-01T14:45:03.998Z</time></trkpt><trkpt lat="42.315246959896" lon="8.681313407521724"><ele>224.0</ele><time>2026-05-01T14:45:04.998Z</time></trkpt><trkpt lat="42.31508429813989" lon="8.681261878366735"><ele>224.0</ele><time>2026-05-01T14:45:05.998Z</time></trkpt><trkpt lat="42.3149418502584" lon="8.681204711190505"><ele>224.0</ele><time>2026-05-01T14:45:06.999Z</time></trkpt><trkpt lat="42.31483639397098" lon="8.68119692008724"><ele>224.0</ele><time>2026-05-01T14:45:07.999Z</time></trkpt><trkpt lat="42.31474330460767" lon="8.681244444577116"><ele>224.0</ele><time>2026-05-01T14:45:08.999Z</time></trkpt><trkpt lat="42.31465783781215" lon="8.681371702060419"><ele>224.0</ele><time>2026-05-01T14:45:09.999Z</time></trkpt><trkpt lat="42.31456566763104" lon="8.681555103970664"><ele>221.33333333333334</ele><time>2026-05-01T14:45:10.999Z</time></trkpt><trkpt lat="42.31446007370356" lon="8.681755582728917"><ele>218.66666666666669</ele><time>2026-05-01T14:45:11.999Z</time></trkpt><trkpt lat="42.31434130901564" lon="8.681968668388357"><ele>216.0</ele><time>2026-05-01T14:45:12.999Z</time></trkpt><trkpt lat="42.31424011315045" lon="8.682203818039644"><ele>216.0</ele><time>2026-05-01T14:45:13.999Z</time></trkpt><trkpt lat="42.31417541587281" lon="8.682466600929462"><ele>216.0</ele><time>2026-05-01T14:45:14.999Z</time></trkpt><trkpt lat="42.314144391760784" lon="8.682698994360958"><ele>216.0</ele><time>2026-05-01T14:45:15.999Z</time></trkpt><trkpt lat="42.314067014936775" lon="8.682862195227669"><ele>218.0</ele><time>2026-05-01T14:45:16.999Z</time></trkpt><trkpt lat="42.31397324454903" lon="8.682992737910299"><ele>220.0</ele><time>2026-05-01T14:45:17.999Z</time></trkpt><trkpt lat="42.313872489712054" lon="8.683104728320718"><ele>222.0</ele><time>2026-05-01T14:45:18.999Z</time></trkpt><trkpt lat="42.31378645455346" lon="8.683191908789292"><ele>224.0</ele><time>2026-05-01T14:45:19.999Z</time></trkpt><trkpt lat="42.313700335464404" lon="8.68326111074244"><ele>224.0</ele><time>2026-05-01T14:45:21Z</time></trkpt><trkpt lat="42.31361077637626" lon="8.68329978993584"><ele>223.99999999999997</ele><time>2026-05-01T14:45:22Z</time></trkpt><trkpt lat="42.31353139715524" lon="8.68318737058247"><ele>223.99999999999997</ele><time>2026-05-01T14:45:23Z</time></trkpt><trkpt lat="42.31343352990442" lon="8.683134092882854"><ele>224.0</ele><time>2026-05-01T14:45:24Z</time></trkpt><trkpt lat="42.31334909515793" lon="8.68312075270771"><ele>224.0</ele><time>2026-05-01T14:45:25Z</time></trkpt><trkpt lat="42.31327229713559" lon="8.68307436306402"><ele>224.0</ele><time>2026-05-01T14:45:26Z</time></trkpt><trkpt lat="42.31317415435917" lon="8.683019163928781"><ele>224.0</ele><time>2026-05-01T14:45:27Z</time></trkpt><trkpt lat="42.31304971901289" lon="8.682945882036066"><ele>224.0</ele><time>2026-05-01T14:45:28Z</time></trkpt><trkpt lat="42.31294162898889" lon="8.682798451413248"><ele>224.0</ele><time>2026-05-01T14:45:29Z</time></trkpt><trkpt lat="42.3128848278136" lon="8.682572702097943"><ele>225.33333333333334</ele><time>2026-05-01T14:45:30Z</time></trkpt><trkpt lat="42.31279244288115" lon="8.682398275065152"><ele>226.66666666666669</ele><time>2026-05-01T14:45:31Z</time></trkpt><trkpt lat="42.312703732197924" lon="8.68223907550379"><ele>228.0</ele><time>2026-05-01T14:45:32Z</time></trkpt><trkpt lat="42.31261115824312" lon="8.682073702501109"><ele>222.75</ele><time>2026-05-01T14:45:33Z</time></trkpt><trkpt lat="42.31252251953993" lon="8.681910250445714"><ele>217.5</ele><time>2026-05-01T14:45:34Z</time></trkpt><trkpt lat="42.31243030999804" lon="8.681775437734121"><ele>212.25</ele><time>2026-05-01T14:45:35Z</time></trkpt><trkpt lat="42.31235155812239" lon="8.681691507847725"><ele>207.0</ele><time>2026-05-01T14:45:36Z</time></trkpt><trkpt lat="42.31228214889445" lon="8.68164258471354"><ele>209.6</ele><time>2026-05-01T14:45:37Z</time></trkpt><trkpt lat="42.3121982786004" lon="8.68158456398371"><ele>212.2</ele><time>2026-05-01T14:45:38Z</time></trkpt><trkpt lat="42.31211782950712" lon="8.68150880475457"><ele>214.8</ele><time>2026-05-01T14:45:39.001Z</time></trkpt><trkpt lat="42.31200997893937" lon="8.681481049558833"><ele>217.4</ele><time>2026-05-01T14:45:40.001Z</time></trkpt><trkpt lat="42.311902833783776" lon="8.681433127651665"><ele>220.0</ele><time>2026-05-01T14:45:41.001Z</time></trkpt><trkpt lat="42.31177195634468" lon="8.681397450153964"><ele>220.0</ele><time>2026-05-01T14:45:42.001Z</time></trkpt><trkpt lat="42.311633453704964" lon="8.681359111687234"><ele>220.0</ele><time>2026-05-01T14:45:43.001Z</time></trkpt><trkpt lat="42.311505290565535" lon="8.681317244270941"><ele>220.0</ele><time>2026-05-01T14:45:44.001Z</time></trkpt><trkpt lat="42.31139144181511" lon="8.681299876612332"><ele>220.0</ele><time>2026-05-01T14:45:45.001Z</time></trkpt><trkpt lat="42.311290624723945" lon="8.681348376246344"><ele>214.75</ele><time>2026-05-01T14:45:46.001Z</time></trkpt><trkpt lat="42.31121595662345" lon="8.681475289230903"><ele>209.5</ele><time>2026-05-01T14:45:47.001Z</time></trkpt><trkpt lat="42.311164867266946" lon="8.68164427108832"><ele>204.25</ele><time>2026-05-01T14:45:48.001Z</time></trkpt><trkpt lat="42.31110037550637" lon="8.681798234264058"><ele>199.0</ele><time>2026-05-01T14:45:49.001Z</time></trkpt><trkpt lat="42.31105010614201" lon="8.681922307062358"><ele>202.79999999999998</ele><time>2026-05-01T14:45:50.001Z</time></trkpt><trkpt lat="42.311006842402996" lon="8.682032922939358"><ele>206.6</ele><time>2026-05-01T14:45:51.001Z</time></trkpt><trkpt lat="42.3109694711508" lon="8.682133100353594"><ele>210.4</ele><time>2026-05-01T14:45:52.001Z</time></trkpt><trkpt lat="42.31093317495558" lon="8.682235183404407"><ele>214.2</ele><time>2026-05-01T14:45:53.001Z</time></trkpt><trkpt lat="42.31090475404269" lon="8.68235695704236"><ele>218.0</ele><time>2026-05-01T14:45:54.001Z</time></trkpt><trkpt lat="42.310854599221024" lon="8.682483972459567"><ele>218.0</ele><time>2026-05-01T14:45:55.001Z</time></trkpt><trkpt lat="42.31079363255917" lon="8.68262044557486"><ele>218.0</ele><time>2026-05-01T14:45:56.001Z</time></trkpt><trkpt lat="42.31070979745987" lon="8.682753028371277"><ele>218.0</ele><time>2026-05-01T14:45:57.001Z</time></trkpt><trkpt lat="42.31059645508462" lon="8.68283737502089"><ele>218.0</ele><time>2026-05-01T14:45:58.001Z</time></trkpt><trkpt lat="42.31049718757517" lon="8.68291298733007"><ele>220.5</ele><time>2026-05-01T14:45:59.001Z</time></trkpt><trkpt lat="42.31039293318905" lon="8.682961089960745"><ele>223.0</ele><time>2026-05-01T14:46:00.001Z</time></trkpt><trkpt lat="42.31029869411623" lon="8.682899736151473"><ele>225.5</ele><time>2026-05-01T14:46:01.001Z</time></trkpt><trkpt lat="42.310181447803" lon="8.68283576652409"><ele>228.0</ele><time>2026-05-01T14:46:02.001Z</time></trkpt><trkpt lat="42.31002342711131" lon="8.68277173414104"><ele>228.25</ele><time>2026-05-01T14:46:03.001Z</time></trkpt><trkpt lat="42.30986245647028" lon="8.682703349952641"><ele>228.5</ele><time>2026-05-01T14:46:04.001Z</time></trkpt><trkpt lat="42.3097082103879" lon="8.682691474769522"><ele>228.75</ele><time>2026-05-01T14:46:05.001Z</time></trkpt><trkpt lat="42.30958511090839" lon="8.682717278549518"><ele>229.0</ele><time>2026-05-01T14:46:06.001Z</time></trkpt><trkpt lat="42.30950001330706" lon="8.682771946023394"><ele>229.0</ele><time>2026-05-01T14:46:07.001Z</time></trkpt><trkpt lat="42.30944664053068" lon="8.68285491030732"><ele>228.99999999999997</ele><time>2026-05-01T14:46:08.002Z</time></trkpt><trkpt lat="42.30939719452451" lon="8.682937351219758"><ele>228.99999999999997</ele><time>2026-05-01T14:46:09.002Z</time></trkpt><trkpt lat="42.30933230065916" lon="8.682997177534514"><ele>229.0</ele><time>2026-05-01T14:46:10.002Z</time></trkpt><trkpt lat="42.30922368919385" lon="8.682994860027582"><ele>229.0</ele><time>2026-05-01T14:46:11.002Z</time></trkpt><trkpt lat="42.30910592218408" lon="8.682937380281095"><ele>229.0</ele><time>2026-05-01T14:46:12.002Z</time></trkpt><trkpt lat="42.30903601995522" lon="8.682775824875698"><ele>229.0</ele><time>2026-05-01T14:46:13.002Z</time></trkpt><trkpt lat="42.30895587072301" lon="8.682613282372406"><ele>229.0</ele><time>2026-05-01T14:46:14.002Z</time></trkpt><trkpt lat="42.30883903345582" lon="8.682489771961343"><ele>229.0</ele><time>2026-05-01T14:46:15.002Z</time></trkpt><trkpt lat="42.308710185637075" lon="8.682397281478773"><ele>229.5</ele><time>2026-05-01T14:46:16.002Z</time></trkpt><trkpt lat="42.30861024310959" lon="8.682284437188551"><ele>230.0</ele><time>2026-05-01T14:46:17.002Z</time></trkpt><trkpt lat="42.308617310962774" lon="8.682105967576408"><ele>230.5</ele><time>2026-05-01T14:46:18.002Z</time></trkpt><trkpt lat="42.30857351523702" lon="8.681927941361005"><ele>231.0</ele><time>2026-05-01T14:46:19.002Z</time></trkpt><trkpt lat="42.30852546675366" lon="8.681748194372702"><ele>229.75</ele><time>2026-05-01T14:46:20.002Z</time></trkpt><trkpt lat="42.30844219846226" lon="8.681603592575973"><ele>228.5</ele><time>2026-05-01T14:46:21.002Z</time></trkpt><trkpt lat="42.308341296779886" lon="8.681485941016495"><ele>227.25</ele><time>2026-05-01T14:46:22.002Z</time></trkpt><trkpt lat="42.30821226122764" lon="8.681412685927112"><ele>226.0</ele><time>2026-05-01T14:46:23.002Z</time></trkpt><trkpt lat="42.308055235208066" lon="8.681371571587636"><ele>226.0</ele><time>2026-05-01T14:46:24.002Z</time></trkpt><trkpt lat="42.30790257911976" lon="8.681294718231962"><ele>226.0</ele><time>2026-05-01T14:46:25.002Z</time></trkpt><trkpt lat="42.30775429917227" lon="8.681225258445233"><ele>226.0</ele><time>2026-05-01T14:46:26.002Z</time></trkpt><trkpt lat="42.30763604664599" lon="8.681118058652824"><ele>219.75</ele><time>2026-05-01T14:46:27.002Z</time></trkpt><trkpt lat="42.3075254022619" lon="8.681011827341605"><ele>213.5</ele><time>2026-05-01T14:46:28.002Z</time></trkpt><trkpt lat="42.30741796697251" lon="8.680910333715518"><ele>207.25</ele><time>2026-05-01T14:46:29.002Z</time></trkpt><trkpt lat="42.3073047296547" lon="8.680847483744422"><ele>201.0</ele><time>2026-05-01T14:46:30.002Z</time></trkpt><trkpt lat="42.30718664181396" lon="8.680818428331357"><ele>199.25</ele><time>2026-05-01T14:46:31.002Z</time></trkpt><trkpt lat="42.30707472393849" lon="8.680828516128798"><ele>197.5</ele><time>2026-05-01T14:46:32.002Z</time></trkpt><trkpt lat="42.30697769735327" lon="8.680896571697229"><ele>195.75</ele><time>2026-05-01T14:46:33.002Z</time></trkpt><trkpt lat="42.306906489593686" lon="8.681015928602314"><ele>194.0</ele><time>2026-05-01T14:46:34.002Z</time></trkpt><trkpt lat="42.30686599110781" lon="8.681170536856603"><ele>198.75</ele><time>2026-05-01T14:46:35.002Z</time></trkpt><trkpt lat="42.306828132198376" lon="8.681350741277337"><ele>203.5</ele><time>2026-05-01T14:46:36.002Z</time></trkpt><trkpt lat="42.3067737683736" lon="8.681547962344641"><ele>208.25</ele><time>2026-05-01T14:46:37.002Z</time></trkpt><trkpt lat="42.306699060186425" lon="8.681714567663583"><ele>213.0</ele><time>2026-05-01T14:46:38.002Z</time></trkpt><trkpt lat="42.306623455475034" lon="8.681851910235256"><ele>213.0</ele><time>2026-05-01T14:46:39.002Z</time></trkpt><trkpt lat="42.30651500919614" lon="8.681854750971908"><ele>213.0</ele><time>2026-05-01T14:46:40.003Z</time></trkpt><trkpt lat="42.30639509672817" lon="8.681865829053413"><ele>213.0</ele><time>2026-05-01T14:46:41.003Z</time></trkpt><trkpt lat="42.306271298530326" lon="8.681871363446527"><ele>213.0</ele><time>2026-05-01T14:46:42.003Z</time></trkpt><trkpt lat="42.30615975444289" lon="8.68186083448728"><ele>212.4</ele><time>2026-05-01T14:46:43.003Z</time></trkpt><trkpt lat="42.30606884000138" lon="8.681761313133062"><ele>211.8</ele><time>2026-05-01T14:46:44.003Z</time></trkpt><trkpt lat="42.3060124606299" lon="8.681597464766707"><ele>211.2</ele><time>2026-05-01T14:46:45.003Z</time></trkpt><trkpt lat="42.30593260077501" lon="8.6815106577063"><ele>210.6</ele><time>2026-05-01T14:46:46.003Z</time></trkpt><trkpt lat="42.30584997677534" lon="8.681459579505413"><ele>210.0</ele><time>2026-05-01T14:46:47.003Z</time></trkpt><trkpt lat="42.30576192431972" lon="8.681478443199621"><ele>210.0</ele><time>2026-05-01T14:46:48.003Z</time></trkpt><trkpt lat="42.30568549283542" lon="8.68153313368241"><ele>210.0</ele><time>2026-05-01T14:46:49.003Z</time></trkpt><trkpt lat="42.305599562304614" lon="8.681557899849455"><ele>210.0</ele><time>2026-05-01T14:46:50.003Z</time></trkpt><trkpt lat="42.30551842686153" lon="8.681593148893954"><ele>210.0</ele><time>2026-05-01T14:46:51.003Z</time></trkpt><trkpt lat="42.305452339319906" lon="8.681621860507704"><ele>210.0</ele><time>2026-05-01T14:46:52.003Z</time></trkpt><trkpt lat="42.30535538225759" lon="8.68166680687297"><ele>210.0</ele><time>2026-05-01T14:46:54.003Z</time></trkpt><trkpt lat="42.30527405131905" lon="8.68163891508117"><ele>212.2</ele><time>2026-05-01T14:46:56.003Z</time></trkpt><trkpt lat="42.30520144413637" lon="8.6815536696314"><ele>214.4</ele><time>2026-05-01T14:46:58.003Z</time></trkpt><trkpt lat="42.30519461424332" lon="8.681398122508064"><ele>216.60000000000002</ele><time>2026-05-01T14:47:00.003Z</time></trkpt><trkpt lat="42.30520357851779" lon="8.681228840305273"><ele>218.8</ele><time>2026-05-01T14:47:02.003Z</time></trkpt><trkpt lat="42.30520715478752" lon="8.681143791934064"><ele>221.0</ele><time>2026-05-01T14:47:03.003Z</time></trkpt><trkpt lat="42.305210606389274" lon="8.681052914791382"><ele>221.00000000000003</ele><time>2026-05-01T14:47:04.003Z</time></trkpt><trkpt lat="42.305219621250096" lon="8.680959658617983"><ele>221.0</ele><time>2026-05-01T14:47:05.003Z</time></trkpt><trkpt lat="42.305230222478755" lon="8.680858769477704"><ele>221.0</ele><time>2026-05-01T14:47:05.998Z</time></trkpt><trkpt lat="42.30524754831667" lon="8.68075701354655"><ele>221.0</ele><time>2026-05-01T14:47:06.998Z</time></trkpt><trkpt lat="42.30526459282896" lon="8.680659093446122"><ele>221.00000000000003</ele><time>2026-05-01T14:47:07.998Z</time></trkpt><trkpt lat="42.305287727787345" lon="8.680498788504444"><ele>221.0</ele><time>2026-05-01T14:47:09.999Z</time></trkpt><trkpt lat="42.30530617986976" lon="8.680393161461954"><ele>221.00000000000003</ele><time>2026-05-01T14:47:10.999Z</time></trkpt><trkpt lat="42.30532627265681" lon="8.680274506998684"><ele>221.0</ele><time>2026-05-01T14:47:11.999Z</time></trkpt><trkpt lat="42.30534391183609" lon="8.680169164526015"><ele>221.0</ele><time>2026-05-01T14:47:12.999Z</time></trkpt><trkpt lat="42.305354871630335" lon="8.680084644220122"><ele>221.0</ele><time>2026-05-01T14:47:13.999Z</time></trkpt><trkpt lat="42.30534731687582" lon="8.679922380948438"><ele>221.00000000000003</ele><time>2026-05-01T14:47:15.999Z</time></trkpt><trkpt lat="42.30532646700996" lon="8.679816239105683"><ele>221.0</ele><time>2026-05-01T14:47:16.999Z</time></trkpt><trkpt lat="42.30528742991605" lon="8.679701453024176"><ele>220.33333333333334</ele><time>2026-05-01T14:47:17.999Z</time></trkpt><trkpt lat="42.30523254448593" lon="8.679617805000753"><ele>219.66666666666669</ele><time>2026-05-01T14:47:18.999Z</time></trkpt><trkpt lat="42.30517736021785" lon="8.679562245935251"><ele>219.0</ele><time>2026-05-01T14:47:19.999Z</time></trkpt><trkpt lat="42.305093633267376" lon="8.6794692888423"><ele>218.33333333333331</ele><time>2026-05-01T14:47:21.999Z</time></trkpt><trkpt lat="42.30500240264572" lon="8.679424582319214"><ele>217.66666666666666</ele><time>2026-05-01T14:47:23.999Z</time></trkpt><trkpt lat="42.304942362360116" lon="8.679395129458538"><ele>217.0</ele><time>2026-05-01T14:47:54.001Z</time></trkpt><trkpt lat="42.30486369050331" lon="8.6793844015525"><ele>215.6</ele><time>2026-05-01T14:47:56.001Z</time></trkpt><trkpt lat="42.30475883900252" lon="8.679343873343692"><ele>214.2</ele><time>2026-05-01T14:48:00.001Z</time></trkpt><trkpt lat="42.30466729598406" lon="8.679327212442013"><ele>212.8</ele><time>2026-05-01T14:48:01.001Z</time></trkpt><trkpt lat="42.304561346226585" lon="8.679315265522018"><ele>211.4</ele><time>2026-05-01T14:48:02.001Z</time></trkpt><trkpt lat="42.304426411925114" lon="8.679284382166651"><ele>210.0</ele><time>2026-05-01T14:48:03.001Z</time></trkpt><trkpt lat="42.30426957296162" lon="8.679279580424994"><ele>210.0</ele><time>2026-05-01T14:48:04.001Z</time></trkpt><trkpt lat="42.304108845437206" lon="8.679255392920624"><ele>210.0</ele><time>2026-05-01T14:48:05.001Z</time></trkpt><trkpt lat="42.30396848365544" lon="8.679158896034194"><ele>210.0</ele><time>2026-05-01T14:48:06.001Z</time></trkpt><trkpt lat="42.3038520123629" lon="8.679066290384922"><ele>214.75</ele><time>2026-05-01T14:48:07.001Z</time></trkpt><trkpt lat="42.30375875912126" lon="8.678965123072103"><ele>219.5</ele><time>2026-05-01T14:48:08.001Z</time></trkpt><trkpt lat="42.303712640966395" lon="8.678853311844078"><ele>224.25</ele><time>2026-05-01T14:48:09.001Z</time></trkpt><trkpt lat="42.30377734428441" lon="8.678689951603756"><ele>229.0</ele><time>2026-05-01T14:48:10.002Z</time></trkpt><trkpt lat="42.30383762571301" lon="8.678525844618795"><ele>229.0</ele><time>2026-05-01T14:48:11.002Z</time></trkpt><trkpt lat="42.303891236607114" lon="8.67837006860686"><ele>229.0</ele><time>2026-05-01T14:48:12.002Z</time></trkpt><trkpt lat="42.30388652849502" lon="8.678233689048877"><ele>229.0</ele><time>2026-05-01T14:48:13.002Z</time></trkpt><trkpt lat="42.30382556756213" lon="8.678101103143476"><ele>229.0</ele><time>2026-05-01T14:48:14.002Z</time></trkpt><trkpt lat="42.3036977041763" lon="8.67796534596136"><ele>229.0</ele><time>2026-05-01T14:48:15.002Z</time></trkpt><trkpt lat="42.30354498867321" lon="8.67785455928462"><ele>229.0</ele><time>2026-05-01T14:48:16.002Z</time></trkpt><trkpt lat="42.303426367482395" lon="8.677740032271876"><ele>229.0</ele><time>2026-05-01T14:48:17.002Z</time></trkpt><trkpt lat="42.30333060243492" lon="8.677632344720138"><ele>229.0</ele><time>2026-05-01T14:48:18.002Z</time></trkpt><trkpt lat="42.303269140448194" lon="8.677495877370365"><ele>222.66666666666666</ele><time>2026-05-01T14:48:19.002Z</time></trkpt><trkpt lat="42.30323204987119" lon="8.677320424355681"><ele>216.33333333333331</ele><time>2026-05-01T14:48:20.002Z</time></trkpt><trkpt lat="42.303195958948294" lon="8.677115891902137"><ele>210.0</ele><time>2026-05-01T14:48:21.002Z</time></trkpt><trkpt lat="42.30319568994117" lon="8.67689230937168"><ele>207.0</ele><time>2026-05-01T14:48:22.002Z</time></trkpt><trkpt lat="42.30323325501025" lon="8.676674493387578"><ele>204.0</ele><time>2026-05-01T14:48:23.002Z</time></trkpt><trkpt lat="42.30327135327259" lon="8.676459462096364"><ele>201.0</ele><time>2026-05-01T14:48:24.002Z</time></trkpt><trkpt lat="42.30328449820102" lon="8.676267573865214"><ele>198.0</ele><time>2026-05-01T14:48:25.002Z</time></trkpt><trkpt lat="42.303239261354946" lon="8.676094462362459"><ele>195.0</ele><time>2026-05-01T14:48:26.002Z</time></trkpt><trkpt lat="42.30315515225791" lon="8.675919260351751"><ele>192.0</ele><time>2026-05-01T14:48:27.002Z</time></trkpt><trkpt lat="42.30306725324675" lon="8.675701672196361"><ele>201.66666666666669</ele><time>2026-05-01T14:48:28.002Z</time></trkpt><trkpt lat="42.303020864209024" lon="8.675478088475648"><ele>211.33333333333334</ele><time>2026-05-01T14:48:29.002Z</time></trkpt><trkpt lat="42.303017335257366" lon="8.67522547485685"><ele>221.0</ele><time>2026-05-01T14:48:30.002Z</time></trkpt><trkpt lat="42.30299693826779" lon="8.674939437082024"><ele>221.0</ele><time>2026-05-01T14:48:31.002Z</time></trkpt><trkpt lat="42.302983111868095" lon="8.674660934220514"><ele>221.0</ele><time>2026-05-01T14:48:32.002Z</time></trkpt><trkpt lat="42.30292967695058" lon="8.674430572392524"><ele>221.0</ele><time>2026-05-01T14:48:33.002Z</time></trkpt><trkpt lat="42.302833127151956" lon="8.674192370489274"><ele>217.66666666666669</ele><time>2026-05-01T14:48:34.002Z</time></trkpt><trkpt lat="42.302718363077645" lon="8.673951863201514"><ele>214.33333333333331</ele><time>2026-05-01T14:48:35.002Z</time></trkpt><trkpt lat="42.30262801850611" lon="8.673713625216177"><ele>211.0</ele><time>2026-05-01T14:48:36.002Z</time></trkpt><trkpt lat="42.302579956988836" lon="8.673532230012288"><ele>208.60000000000002</ele><time>2026-05-01T14:48:37.002Z</time></trkpt><trkpt lat="42.30254635870778" lon="8.673397453061327"><ele>206.2</ele><time>2026-05-01T14:48:38.002Z</time></trkpt><trkpt lat="42.302491844796656" lon="8.673295115285267"><ele>203.8</ele><time>2026-05-01T14:48:39.002Z</time></trkpt><trkpt lat="42.30242332467797" lon="8.673228420643023"><ele>201.39999999999998</ele><time>2026-05-01T14:48:40.002Z</time></trkpt><trkpt lat="42.302324801673244" lon="8.673246177569403"><ele>199.0</ele><time>2026-05-01T14:48:41.002Z</time></trkpt><trkpt lat="42.30221516426195" lon="8.673388778513072"><ele>196.0</ele><time>2026-05-01T14:48:42.003Z</time></trkpt><trkpt lat="42.30210398922463" lon="8.673574819169573"><ele>193.0</ele><time>2026-05-01T14:48:43.003Z</time></trkpt><trkpt lat="42.30199625874573" lon="8.673794265599852"><ele>190.0</ele><time>2026-05-01T14:48:44.003Z</time></trkpt><trkpt lat="42.301884651592545" lon="8.674013786984153"><ele>190.0</ele><time>2026-05-01T14:48:45.003Z</time></trkpt><trkpt lat="42.30180307961451" lon="8.674213440702788"><ele>190.0</ele><time>2026-05-01T14:48:46.003Z</time></trkpt><trkpt lat="42.30177173103883" lon="8.674446619728883"><ele>190.0</ele><time>2026-05-01T14:48:47.003Z</time></trkpt><trkpt lat="42.301775892205" lon="8.674709119082756"><ele>190.75</ele><time>2026-05-01T14:48:48.003Z</time></trkpt><trkpt lat="42.301741259204526" lon="8.674933807500333"><ele>191.5</ele><time>2026-05-01T14:48:49.003Z</time></trkpt><trkpt lat="42.30166746131639" lon="8.675094405627902"><ele>192.25</ele><time>2026-05-01T14:48:50.003Z</time></trkpt><trkpt lat="42.301548398234054" lon="8.675174912030933"><ele>193.0</ele><time>2026-05-01T14:48:51.003Z</time></trkpt><trkpt lat="42.301400121212424" lon="8.675308700823562"><ele>193.0</ele><time>2026-05-01T14:48:52.003Z</time></trkpt><trkpt lat="42.301289155380026" lon="8.675503635963334"><ele>193.0</ele><time>2026-05-01T14:48:53.003Z</time></trkpt><trkpt lat="42.30118087176965" lon="8.675725498784448"><ele>193.0</ele><time>2026-05-01T14:48:54.003Z</time></trkpt><trkpt lat="42.30102116222166" lon="8.675871731526223"><ele>193.0</ele><time>2026-05-01T14:48:55.003Z</time></trkpt><trkpt lat="42.30087627187024" lon="8.67600028655541"><ele>193.0</ele><time>2026-05-01T14:48:56.003Z</time></trkpt><trkpt lat="42.3007557622175" lon="8.676035206777199"><ele>193.0</ele><time>2026-05-01T14:48:57.003Z</time></trkpt><trkpt lat="42.30065241896024" lon="8.675985157828544"><ele>193.0</ele><time>2026-05-01T14:48:58.003Z</time></trkpt><trkpt lat="42.300512451676006" lon="8.67595377791608"><ele>187.75</ele><time>2026-05-01T14:48:59.003Z</time></trkpt><trkpt lat="42.30038988268572" lon="8.675991253950619"><ele>182.5</ele><time>2026-05-01T14:49:00.003Z</time></trkpt><trkpt lat="42.300279833641184" lon="8.676095161567307"><ele>177.25</ele><time>2026-05-01T14:49:01.003Z</time></trkpt><trkpt lat="42.30017646919042" lon="8.67627509432982"><ele>172.0</ele><time>2026-05-01T14:49:02.003Z</time></trkpt><trkpt lat="42.30004443433145" lon="8.676396747732047"><ele>185.33333333333334</ele><time>2026-05-01T14:49:03.003Z</time></trkpt><trkpt lat="42.29990316993739" lon="8.676421796298927"><ele>198.66666666666669</ele><time>2026-05-01T14:49:04.003Z</time></trkpt><trkpt lat="42.29973395897677" lon="8.67639833797821"><ele>212.0</ele><time>2026-05-01T14:49:05.003Z</time></trkpt><trkpt lat="42.29958505865074" lon="8.676370171126306"><ele>212.0</ele><time>2026-05-01T14:49:06.003Z</time></trkpt><trkpt lat="42.2994670354333" lon="8.676237996122131"><ele>212.0</ele><time>2026-05-01T14:49:07.003Z</time></trkpt><trkpt lat="42.29929004964608" lon="8.676117261501341"><ele>212.0</ele><time>2026-05-01T14:49:08.003Z</time></trkpt><trkpt lat="42.299103097336456" lon="8.67604999229966"><ele>207.66666666666669</ele><time>2026-05-01T14:49:09.003Z</time></trkpt><trkpt lat="42.29893764710934" lon="8.676010183550598"><ele>203.33333333333331</ele><time>2026-05-01T14:49:10.003Z</time></trkpt><trkpt lat="42.29878371678617" lon="8.676023261907766"><ele>199.0</ele><time>2026-05-01T14:49:11.003Z</time></trkpt><trkpt lat="42.29862226923896" lon="8.676127777329214"><ele>199.0</ele><time>2026-05-01T14:49:11.999Z</time></trkpt><trkpt lat="42.29844302117311" lon="8.676254096897404"><ele>199.0</ele><time>2026-05-01T14:49:12.999Z</time></trkpt><trkpt lat="42.298240067857584" lon="8.67627538950753"><ele>199.0</ele><time>2026-05-01T14:49:13.999Z</time></trkpt><trkpt lat="42.297990497905865" lon="8.676304766165226"><ele>195.0</ele><time>2026-05-01T14:49:14.999Z</time></trkpt><trkpt lat="42.29773987549263" lon="8.676349990457782"><ele>191.0</ele><time>2026-05-01T14:49:15.999Z</time></trkpt><trkpt lat="42.29755209327177" lon="8.67631901574351"><ele>187.0</ele><time>2026-05-01T14:49:16.999Z</time></trkpt><trkpt lat="42.297416477608735" lon="8.676289442277938"><ele>187.0</ele><time>2026-05-01T14:49:17.999Z</time></trkpt><trkpt lat="42.29731743069411" lon="8.676278122340046"><ele>187.0</ele><time>2026-05-01T14:49:18.999Z</time></trkpt><trkpt lat="42.297221213590404" lon="8.676322653572642"><ele>187.0</ele><time>2026-05-01T14:49:19.999Z</time></trkpt><trkpt lat="42.29713507738233" lon="8.676405014683649"><ele>187.0</ele><time>2026-05-01T14:49:20.999Z</time></trkpt><trkpt lat="42.29708811062732" lon="8.676535503641741"><ele>187.0</ele><time>2026-05-01T14:49:21.999Z</time></trkpt><trkpt lat="42.29710541708802" lon="8.676685652430217"><ele>188.39999999999998</ele><time>2026-05-01T14:49:22.999Z</time></trkpt><trkpt lat="42.29717218786112" lon="8.67684731936337"><ele>189.79999999999998</ele><time>2026-05-01T14:49:23.999Z</time></trkpt><trkpt lat="42.29721783709979" lon="8.676993697659974"><ele>191.2</ele><time>2026-05-01T14:49:24.999Z</time></trkpt><trkpt lat="42.297193503612725" lon="8.67710872114679"><ele>192.6</ele><time>2026-05-01T14:49:25.999Z</time></trkpt><trkpt lat="42.29712481716149" lon="8.677174879239612"><ele>194.0</ele><time>2026-05-01T14:49:26.999Z</time></trkpt><trkpt lat="42.29699957767371" lon="8.677158661948411"><ele>194.0</ele><time>2026-05-01T14:49:28Z</time></trkpt><trkpt lat="42.296857020712224" lon="8.677095333602079"><ele>194.0</ele><time>2026-05-01T14:49:29Z</time></trkpt><trkpt lat="42.29667677065014" lon="8.677069326145158"><ele>194.0</ele><time>2026-05-01T14:49:30Z</time></trkpt><trkpt lat="42.296531589465516" lon="8.677036126630018"><ele>194.0</ele><time>2026-05-01T14:49:31Z</time></trkpt><trkpt lat="42.296430238195136" lon="8.677057064500968"><ele>194.0</ele><time>2026-05-01T14:49:32Z</time></trkpt><trkpt lat="42.29636330191273" lon="8.677118892538887"><ele>194.0</ele><time>2026-05-01T14:49:33Z</time></trkpt><trkpt lat="42.29633965863959" lon="8.677286130056574"><ele>194.0</ele><time>2026-05-01T14:49:34Z</time></trkpt><trkpt lat="42.296303883247134" lon="8.677447899069362"><ele>194.0</ele><time>2026-05-01T14:49:35Z</time></trkpt><trkpt lat="42.296191323513256" lon="8.677509526209606"><ele>189.75</ele><time>2026-05-01T14:49:36Z</time></trkpt><trkpt lat="42.29606910056212" lon="8.677522926385198"><ele>185.5</ele><time>2026-05-01T14:49:37Z</time></trkpt><trkpt lat="42.29594095491998" lon="8.677467385339302"><ele>181.25</ele><time>2026-05-01T14:49:38Z</time></trkpt><trkpt lat="42.29577791615335" lon="8.677403653984486"><ele>177.0</ele><time>2026-05-01T14:49:39Z</time></trkpt><trkpt lat="42.295618655028214" lon="8.677392115036854"><ele>173.83333333333334</ele><time>2026-05-01T14:49:40Z</time></trkpt><trkpt lat="42.29550334981331" lon="8.677400271623487"><ele>170.66666666666666</ele><time>2026-05-01T14:49:41Z</time></trkpt><trkpt lat="42.29542306993549" lon="8.677425985136418"><ele>167.5</ele><time>2026-05-01T14:49:42Z</time></trkpt><trkpt lat="42.2953578683626" lon="8.677435707329575"><ele>164.33333333333331</ele><time>2026-05-01T14:49:43Z</time></trkpt><trkpt lat="42.29532658127708" lon="8.677525913348322"><ele>161.16666666666666</ele><time>2026-05-01T14:49:44Z</time></trkpt><trkpt lat="42.2953607974979" lon="8.677665228034304"><ele>158.0</ele><time>2026-05-01T14:49:45Z</time></trkpt><trkpt lat="42.29542766576845" lon="8.677841812165354"><ele>157.0</ele><time>2026-05-01T14:49:46Z</time></trkpt><trkpt lat="42.295502734410285" lon="8.678072328358974"><ele>156.0</ele><time>2026-05-01T14:49:47Z</time></trkpt><trkpt lat="42.295533009456605" lon="8.678358314600116"><ele>155.0</ele><time>2026-05-01T14:49:48Z</time></trkpt><trkpt lat="42.29557480367088" lon="8.67866613887185"><ele>155.0</ele><time>2026-05-01T14:49:49.001Z</time></trkpt><trkpt lat="42.29557405775567" lon="8.67895456286645"><ele>155.0</ele><time>2026-05-01T14:49:50.001Z</time></trkpt><trkpt lat="42.29556505291227" lon="8.679211426558515"><ele>155.0</ele><time>2026-05-01T14:49:51.001Z</time></trkpt><trkpt lat="42.29558403259404" lon="8.679419792731839"><ele>161.5</ele><time>2026-05-01T14:49:52.001Z</time></trkpt><trkpt lat="42.29564808261732" lon="8.679607400927095"><ele>168.0</ele><time>2026-05-01T14:49:53.001Z</time></trkpt><trkpt lat="42.29575834651652" lon="8.67975351698366"><ele>174.5</ele><time>2026-05-01T14:49:54.001Z</time></trkpt><trkpt lat="42.29584431408328" lon="8.679902557158613"><ele>181.0</ele><time>2026-05-01T14:49:55.001Z</time></trkpt><trkpt lat="42.29587765673667" lon="8.680041594890971"><ele>181.0</ele><time>2026-05-01T14:49:56.001Z</time></trkpt><trkpt lat="42.29585824384899" lon="8.6801848892806"><ele>181.0</ele><time>2026-05-01T14:49:57.001Z</time></trkpt><trkpt lat="42.29580750015554" lon="8.680339557047438"><ele>181.0</ele><time>2026-05-01T14:49:58.001Z</time></trkpt><trkpt lat="42.29572645919999" lon="8.680443826697982"><ele>181.0</ele><time>2026-05-01T14:49:59.001Z</time></trkpt><trkpt lat="42.29563722196189" lon="8.680505445770091"><ele>181.0</ele><time>2026-05-01T14:50:00.001Z</time></trkpt><trkpt lat="42.29551271048732" lon="8.680443122274406"><ele>185.33333333333334</ele><time>2026-05-01T14:50:01.001Z</time></trkpt><trkpt lat="42.29532453420183" lon="8.680417661420535"><ele>189.66666666666669</ele><time>2026-05-01T14:50:02.001Z</time></trkpt><trkpt lat="42.29512317829379" lon="8.68035024806018"><ele>194.0</ele><time>2026-05-01T14:50:03.001Z</time></trkpt><trkpt lat="42.29490461452934" lon="8.68024462819979"><ele>191.33333333333334</ele><time>2026-05-01T14:50:04.001Z</time></trkpt><trkpt lat="42.294685176121924" lon="8.68013801797619"><ele>188.66666666666669</ele><time>2026-05-01T14:50:05.001Z</time></trkpt><trkpt lat="42.294521060814866" lon="8.68004823889131"><ele>186.0</ele><time>2026-05-01T14:50:06.001Z</time></trkpt><trkpt lat="42.29441924512367" lon="8.679913011718897"><ele>186.0</ele><time>2026-05-01T14:50:07.001Z</time></trkpt><trkpt lat="42.29433845080996" lon="8.679727344679556"><ele>186.0</ele><time>2026-05-01T14:50:08.001Z</time></trkpt><trkpt lat="42.294230130049826" lon="8.679504702601974"><ele>186.0</ele><time>2026-05-01T14:50:09.001Z</time></trkpt><trkpt lat="42.294126279991666" lon="8.679286383562737"><ele>180.33333333333334</ele><time>2026-05-01T14:50:10.001Z</time></trkpt><trkpt lat="42.29400643611519" lon="8.679136606662684"><ele>174.66666666666669</ele><time>2026-05-01T14:50:11.001Z</time></trkpt><trkpt lat="42.29387343761629" lon="8.679044269963198"><ele>169.0</ele><time>2026-05-01T14:50:12.001Z</time></trkpt><trkpt lat="42.29373735589967" lon="8.679021656221947"><ele>169.0</ele><time>2026-05-01T14:50:13.001Z</time></trkpt><trkpt lat="42.293613742952694" lon="8.679071275778584"><ele>169.0</ele><time>2026-05-01T14:50:14.001Z</time></trkpt><trkpt lat="42.29351142308366" lon="8.67920304533451"><ele>169.0</ele><time>2026-05-01T14:50:15.001Z</time></trkpt><trkpt lat="42.293419847915395" lon="8.679379917670733"><ele>169.0</ele><time>2026-05-01T14:50:16.001Z</time></trkpt><trkpt lat="42.29329422660298" lon="8.679465859704926"><ele>173.5</ele><time>2026-05-01T14:50:17.001Z</time></trkpt><trkpt lat="42.29316456255605" lon="8.679456415390273"><ele>178.0</ele><time>2026-05-01T14:50:18.002Z</time></trkpt><trkpt lat="42.29306604953813" lon="8.679368523291947"><ele>182.5</ele><time>2026-05-01T14:50:19.002Z</time></trkpt><trkpt lat="42.29291774019381" lon="8.679234417715127"><ele>187.0</ele><time>2026-05-01T14:50:20.002Z</time></trkpt><trkpt lat="42.29275761036086" lon="8.679058743665102"><ele>187.0</ele><time>2026-05-01T14:50:21.002Z</time></trkpt><trkpt lat="42.29258969817972" lon="8.678916811959578"><ele>187.0</ele><time>2026-05-01T14:50:22.002Z</time></trkpt><trkpt lat="42.29239480999035" lon="8.678822291288828"><ele>187.0</ele><time>2026-05-01T14:50:23.002Z</time></trkpt><trkpt lat="42.29219335240524" lon="8.678764049667038"><ele>187.66666666666669</ele><time>2026-05-01T14:50:24.002Z</time></trkpt><trkpt lat="42.29203619407794" lon="8.678730951406145"><ele>188.33333333333334</ele><time>2026-05-01T14:50:25.002Z</time></trkpt><trkpt lat="42.291893320621725" lon="8.678756445379866"><ele>189.0</ele><time>2026-05-01T14:50:26.002Z</time></trkpt><trkpt lat="42.291743425096186" lon="8.67882975058712"><ele>189.0</ele><time>2026-05-01T14:50:27.002Z</time></trkpt><trkpt lat="42.29161833812772" lon="8.678770512595458"><ele>189.0</ele><time>2026-05-01T14:50:28.002Z</time></trkpt><trkpt lat="42.29148090676274" lon="8.678713531405847"><ele>189.0</ele><time>2026-05-01T14:50:29.002Z</time></trkpt><trkpt lat="42.291389037828324" lon="8.678719189363122"><ele>189.0</ele><time>2026-05-01T14:50:30.002Z</time></trkpt><trkpt lat="42.29129768090185" lon="8.678867358384823"><ele>183.0</ele><time>2026-05-01T14:50:32.002Z</time></trkpt><trkpt lat="42.291225983170804" lon="8.67898657028679"><ele>177.0</ele><time>2026-05-01T14:50:33.002Z</time></trkpt><trkpt lat="42.29113061305605" lon="8.679006188081996"><ele>171.0</ele><time>2026-05-01T14:50:34.002Z</time></trkpt><trkpt lat="42.29101973620775" lon="8.678979604039107"><ele>165.0</ele><time>2026-05-01T14:50:35.002Z</time></trkpt><trkpt lat="42.290929260184654" lon="8.678996053731979"><ele>159.0</ele><time>2026-05-01T14:50:36.002Z</time></trkpt><trkpt lat="42.290873497596564" lon="8.679064210053504"><ele>159.0</ele><time>2026-05-01T14:50:37.002Z</time></trkpt><trkpt lat="42.290856277276916" lon="8.679177499592669"><ele>159.0</ele><time>2026-05-01T14:50:38.002Z</time></trkpt><trkpt lat="42.29092066700902" lon="8.679310285247308"><ele>159.0</ele><time>2026-05-01T14:50:39.002Z</time></trkpt><trkpt lat="42.29098424999738" lon="8.679427885267083"><ele>159.0</ele><time>2026-05-01T14:50:40.002Z</time></trkpt><trkpt lat="42.29101671868272" lon="8.67956759126294"><ele>159.0</ele><time>2026-05-01T14:50:41.002Z</time></trkpt><trkpt lat="42.29093337579718" lon="8.679692078539539"><ele>171.0</ele><time>2026-05-01T14:50:42.002Z</time></trkpt><trkpt lat="42.290844765518194" lon="8.679871694969298"><ele>183.0</ele><time>2026-05-01T14:50:43.002Z</time></trkpt><trkpt lat="42.29074625992305" lon="8.680097684096074"><ele>195.0</ele><time>2026-05-01T14:50:44.002Z</time></trkpt><trkpt lat="42.29059951168946" lon="8.68022752375608"><ele>197.66666666666669</ele><time>2026-05-01T14:50:45.002Z</time></trkpt><trkpt lat="42.29044652892242" lon="8.680334689450293"><ele>200.33333333333334</ele><time>2026-05-01T14:50:46.002Z</time></trkpt><trkpt lat="42.29027653419179" lon="8.68042657831877"><ele>203.0</ele><time>2026-05-01T14:50:47.002Z</time></trkpt><trkpt lat="42.290118261591786" lon="8.680457672697184"><ele>203.0</ele><time>2026-05-01T14:50:48.002Z</time></trkpt><trkpt lat="42.2899731690832" lon="8.680404107312599"><ele>203.0</ele><time>2026-05-01T14:50:49.002Z</time></trkpt><trkpt lat="42.28986599444172" lon="8.680401222294796"><ele>203.0</ele><time>2026-05-01T14:50:50.002Z</time></trkpt><trkpt lat="42.28979086072577" lon="8.680432209457159"><ele>203.0</ele><time>2026-05-01T14:50:51.003Z</time></trkpt><trkpt lat="42.289745469557616" lon="8.680568951546867"><ele>203.0</ele><time>2026-05-01T14:50:52.003Z</time></trkpt><trkpt lat="42.28966912048459" lon="8.68074613138716"><ele>195.25</ele><time>2026-05-01T14:50:53.003Z</time></trkpt><trkpt lat="42.28953679589319" lon="8.680830013939536"><ele>187.5</ele><time>2026-05-01T14:50:54.003Z</time></trkpt><trkpt lat="42.28940005453992" lon="8.68087527601673"><ele>179.75</ele><time>2026-05-01T14:50:55.003Z</time></trkpt><trkpt lat="42.289254947441314" lon="8.680937743420584"><ele>172.0</ele><time>2026-05-01T14:50:56.003Z</time></trkpt><trkpt lat="42.28917749702304" lon="8.68102589847209"><ele>178.66666666666669</ele><time>2026-05-01T14:50:57.003Z</time></trkpt><trkpt lat="42.28910374824691" lon="8.681149344490182"><ele>185.33333333333334</ele><time>2026-05-01T14:50:58.003Z</time></trkpt><trkpt lat="42.28898574395655" lon="8.681298345408486"><ele>192.0</ele><time>2026-05-01T14:50:59.003Z</time></trkpt><trkpt lat="42.28886753378483" lon="8.68148138834401"><ele>192.0</ele><time>2026-05-01T14:51:00.003Z</time></trkpt><trkpt lat="42.28876141344663" lon="8.681625834989537"><ele>192.0</ele><time>2026-05-01T14:51:01.003Z</time></trkpt><trkpt lat="42.288717954636745" lon="8.681767215815539"><ele>192.0</ele><time>2026-05-01T14:51:02.003Z</time></trkpt><trkpt lat="42.28874452194027" lon="8.681914676035017"><ele>192.0</ele><time>2026-05-01T14:51:03.003Z</time></trkpt><trkpt lat="42.28882914149656" lon="8.682040187540908"><ele>189.66666666666666</ele><time>2026-05-01T14:51:04.003Z</time></trkpt><trkpt lat="42.288966764148604" lon="8.682165115091916"><ele>187.33333333333331</ele><time>2026-05-01T14:51:05.003Z</time></trkpt><trkpt lat="42.289142577343114" lon="8.682333799354875"><ele>185.0</ele><time>2026-05-01T14:51:06.003Z</time></trkpt><trkpt lat="42.28934802119871" lon="8.682549950155083"><ele>181.0</ele><time>2026-05-01T14:51:07.003Z</time></trkpt><trkpt lat="42.289570225147436" lon="8.682793420727156"><ele>177.0</ele><time>2026-05-01T14:51:08.003Z</time></trkpt><trkpt lat="42.289802858486304" lon="8.683049104637195"><ele>177.0</ele><time>2026-05-01T14:51:09.003Z</time></trkpt><trkpt lat="42.29000417813945" lon="8.683323268471975"><ele>177.0</ele><time>2026-05-01T14:51:10.003Z</time></trkpt><trkpt lat="42.29017507198619" lon="8.683580241652646"><ele>170.33333333333334</ele><time>2026-05-01T14:51:11.003Z</time></trkpt><trkpt lat="42.290324669566324" lon="8.683794866043973"><ele>163.66666666666669</ele><time>2026-05-01T14:51:12.003Z</time></trkpt><trkpt lat="42.2904530083017" lon="8.683955038230012"><ele>157.0</ele><time>2026-05-01T14:51:13.003Z</time></trkpt><trkpt lat="42.29049943911068" lon="8.684140605214159"><ele>157.0</ele><time>2026-05-01T14:51:14.003Z</time></trkpt><trkpt lat="42.29050490998312" lon="8.684321039058132"><ele>157.0</ele><time>2026-05-01T14:51:15.003Z</time></trkpt><trkpt lat="42.29050175610763" lon="8.684535337618767"><ele>157.0</ele><time>2026-05-01T14:51:16.003Z</time></trkpt><trkpt lat="42.290452969746326" lon="8.684748073728384"><ele>155.33333333333334</ele><time>2026-05-01T14:51:17.003Z</time></trkpt><trkpt lat="42.29039573286203" lon="8.684981386183"><ele>153.66666666666666</ele><time>2026-05-01T14:51:17.998Z</time></trkpt><trkpt lat="42.29036391296975" lon="8.685198030670694"><ele>152.0</ele><time>2026-05-01T14:51:18.998Z</time></trkpt><trkpt lat="42.29035165965166" lon="8.685404117051798"><ele>150.33333333333331</ele><time>2026-05-01T14:51:19.998Z</time></trkpt><trkpt lat="42.290372548879105" lon="8.68562211151247"><ele>148.66666666666666</ele><time>2026-05-01T14:51:20.998Z</time></trkpt><trkpt lat="42.290424903958844" lon="8.68586748372395"><ele>147.0</ele><time>2026-05-01T14:51:21.998Z</time></trkpt><trkpt lat="42.290487288233074" lon="8.686126751260165"><ele>143.33333333333334</ele><time>2026-05-01T14:51:22.999Z</time></trkpt><trkpt lat="42.290541146240635" lon="8.686373092170673"><ele>139.66666666666669</ele><time>2026-05-01T14:51:23.999Z</time></trkpt><trkpt lat="42.290586062682095" lon="8.686571143854032"><ele>136.0</ele><time>2026-05-01T14:51:24.999Z</time></trkpt><trkpt lat="42.29062639084806" lon="8.686748341055262"><ele>140.25</ele><time>2026-05-01T14:51:25.999Z</time></trkpt><trkpt lat="42.290670515637366" lon="8.686914659270855"><ele>144.5</ele><time>2026-05-01T14:51:26.999Z</time></trkpt><trkpt lat="42.29071893154438" lon="8.687067488799586"><ele>148.75</ele><time>2026-05-01T14:51:27.999Z</time></trkpt><trkpt lat="42.290782478150135" lon="8.6872058740246"><ele>153.0</ele><time>2026-05-01T14:51:28.999Z</time></trkpt><trkpt lat="42.290885434955186" lon="8.687302969914255"><ele>153.0</ele><time>2026-05-01T14:51:29.999Z</time></trkpt><trkpt lat="42.29101813809641" lon="8.687328530773053"><ele>153.0</ele><time>2026-05-01T14:51:30.999Z</time></trkpt><trkpt lat="42.29115931365151" lon="8.687287068683709"><ele>153.0</ele><time>2026-05-01T14:51:31.999Z</time></trkpt><trkpt lat="42.29130384612483" lon="8.687195335298313"><ele>153.0</ele><time>2026-05-01T14:51:32.999Z</time></trkpt><trkpt lat="42.29142835038251" lon="8.687093620026705"><ele>153.5</ele><time>2026-05-01T14:51:33.999Z</time></trkpt><trkpt lat="42.29152791165476" lon="8.686971506845017"><ele>154.0</ele><time>2026-05-01T14:51:34.999Z</time></trkpt><trkpt lat="42.291574253407006" lon="8.686806116849636"><ele>154.5</ele><time>2026-05-01T14:51:35.999Z</time></trkpt><trkpt lat="42.29157971726062" lon="8.686628611583053"><ele>155.0</ele><time>2026-05-01T14:51:36.999Z</time></trkpt><trkpt lat="42.291605476519" lon="8.686478872796181"><ele>155.0</ele><time>2026-05-01T14:51:38Z</time></trkpt><trkpt lat="42.29172013944761" lon="8.68643162449889"><ele>155.0</ele><time>2026-05-01T14:51:39Z</time></trkpt><trkpt lat="42.29186420291178" lon="8.686407392627757"><ele>155.0</ele><time>2026-05-01T14:51:40Z</time></trkpt><trkpt lat="42.292030750770905" lon="8.68639779067335"><ele>155.0</ele><time>2026-05-01T14:51:41Z</time></trkpt><trkpt lat="42.292189960631475" lon="8.686362761076891"><ele>149.25</ele><time>2026-05-01T14:51:42Z</time></trkpt><trkpt lat="42.292353418797525" lon="8.686307695675252"><ele>143.5</ele><time>2026-05-01T14:51:43Z</time></trkpt><trkpt lat="42.29250072988652" lon="8.686243818290611"><ele>137.75</ele><time>2026-05-01T14:51:44Z</time></trkpt><trkpt lat="42.2926167516607" lon="8.686207004571333"><ele>132.0</ele><time>2026-05-01T14:51:45Z</time></trkpt><trkpt lat="42.292707211390784" lon="8.686152276080254"><ele>138.5</ele><time>2026-05-01T14:51:46Z</time></trkpt><trkpt lat="42.292764421313315" lon="8.686038436974252"><ele>145.0</ele><time>2026-05-01T14:51:47Z</time></trkpt><trkpt lat="42.29278375726958" lon="8.685874923720473"><ele>151.5</ele><time>2026-05-01T14:51:48Z</time></trkpt><trkpt lat="42.292792012673054" lon="8.685692612141308"><ele>158.0</ele><time>2026-05-01T14:51:49Z</time></trkpt><trkpt lat="42.292857775842656" lon="8.685562866450443"><ele>158.0</ele><time>2026-05-01T14:51:50Z</time></trkpt><trkpt lat="42.29297244851656" lon="8.685458947299997"><ele>158.0</ele><time>2026-05-01T14:51:51Z</time></trkpt><trkpt lat="42.29311511986483" lon="8.685357853935177"><ele>158.0</ele><time>2026-05-01T14:51:52Z</time></trkpt><trkpt lat="42.293268282416605" lon="8.68525555131733"><ele>156.25</ele><time>2026-05-01T14:51:53Z</time></trkpt><trkpt lat="42.293399817516836" lon="8.685154332493472"><ele>154.5</ele><time>2026-05-01T14:51:54Z</time></trkpt><trkpt lat="42.293516337741785" lon="8.685118492766076"><ele>152.75</ele><time>2026-05-01T14:51:55Z</time></trkpt><trkpt lat="42.2936227496489" lon="8.685098216158732"><ele>151.0</ele><time>2026-05-01T14:51:56.001Z</time></trkpt><trkpt lat="42.29372085994035" lon="8.685181348531492"><ele>146.25</ele><time>2026-05-01T14:51:57.001Z</time></trkpt><trkpt lat="42.29380792348384" lon="8.685266844367014"><ele>141.5</ele><time>2026-05-01T14:51:58.001Z</time></trkpt><trkpt lat="42.29386173831164" lon="8.685410032521366"><ele>136.75</ele><time>2026-05-01T14:51:59.001Z</time></trkpt><trkpt lat="42.293941449006624" lon="8.685533307835673"><ele>132.0</ele><time>2026-05-01T14:52:00.001Z</time></trkpt><trkpt lat="42.29402216176442" lon="8.685627248669334"><ele>131.5</ele><time>2026-05-01T14:52:01.001Z</time></trkpt><trkpt lat="42.294133161441856" lon="8.685672399413203"><ele>131.0</ele><time>2026-05-01T14:52:02.001Z</time></trkpt><trkpt lat="42.29427451087573" lon="8.685664286392596"><ele>130.5</ele><time>2026-05-01T14:52:03.001Z</time></trkpt><trkpt lat="42.294455149634075" lon="8.685636074096665"><ele>130.0</ele><time>2026-05-01T14:52:04.001Z</time></trkpt><trkpt lat="42.294665087696785" lon="8.685699185815347"><ele>132.5</ele><time>2026-05-01T14:52:05.001Z</time></trkpt><trkpt lat="42.294924026941366" lon="8.685769043847392"><ele>135.0</ele><time>2026-05-01T14:52:06.001Z</time></trkpt><trkpt lat="42.29516001810317" lon="8.685836380932905"><ele>135.0</ele><time>2026-05-01T14:52:07.001Z</time></trkpt><trkpt lat="42.29533375569006" lon="8.685901986513855"><ele>135.0</ele><time>2026-05-01T14:52:08.001Z</time></trkpt><trkpt lat="42.295433774301316" lon="8.685969750483528"><ele>135.0</ele><time>2026-05-01T14:52:09.001Z</time></trkpt><trkpt lat="42.29544267014664" lon="8.686132949477777"><ele>135.0</ele><time>2026-05-01T14:52:11.001Z</time></trkpt><trkpt lat="42.29536364622863" lon="8.686259291955263"><ele>134.0</ele><time>2026-05-01T14:52:12.001Z</time></trkpt><trkpt lat="42.29522864300265" lon="8.686330711755263"><ele>133.0</ele><time>2026-05-01T14:52:13.001Z</time></trkpt><trkpt lat="42.29504043764938" lon="8.6864301224978"><ele>132.0</ele><time>2026-05-01T14:52:14.001Z</time></trkpt><trkpt lat="42.29484045741125" lon="8.686547419114063"><ele>129.5</ele><time>2026-05-01T14:52:15.001Z</time></trkpt><trkpt lat="42.29469153975857" lon="8.686633274446468"><ele>127.0</ele><time>2026-05-01T14:52:16.001Z</time></trkpt><trkpt lat="42.2945874868265" lon="8.686741504745935"><ele>124.5</ele><time>2026-05-01T14:52:17.001Z</time></trkpt><trkpt lat="42.294499703678014" lon="8.686912874479809"><ele>122.0</ele><time>2026-05-01T14:52:18.001Z</time></trkpt><trkpt lat="42.29435798013398" lon="8.687054036538939"><ele>122.0</ele><time>2026-05-01T14:52:19.001Z</time></trkpt><trkpt lat="42.29418654159065" lon="8.687170737184916"><ele>122.0</ele><time>2026-05-01T14:52:20.001Z</time></trkpt><trkpt lat="42.2940636103176" lon="8.687323388203698"><ele>122.0</ele><time>2026-05-01T14:52:21.001Z</time></trkpt><trkpt lat="42.2939635908549" lon="8.687531282103157"><ele>116.0</ele><time>2026-05-01T14:52:22.001Z</time></trkpt><trkpt lat="42.29387620352146" lon="8.687769781767066"><ele>110.0</ele><time>2026-05-01T14:52:23.002Z</time></trkpt><trkpt lat="42.29373950715662" lon="8.687892952803134"><ele>104.0</ele><time>2026-05-01T14:52:24.002Z</time></trkpt><trkpt lat="42.29360948520421" lon="8.688023965073427"><ele>104.0</ele><time>2026-05-01T14:52:25.002Z</time></trkpt><trkpt lat="42.293535576201414" lon="8.6881389347422"><ele>104.0</ele><time>2026-05-01T14:52:26.002Z</time></trkpt><trkpt lat="42.29350511559763" lon="8.688262635999813"><ele>104.0</ele><time>2026-05-01T14:52:27.002Z</time></trkpt><trkpt lat="42.2935363661904" lon="8.688413262478308"><ele>104.0</ele><time>2026-05-01T14:52:28.002Z</time></trkpt><trkpt lat="42.29363116655401" lon="8.688530114889586"><ele>103.5</ele><time>2026-05-01T14:52:29.002Z</time></trkpt><trkpt lat="42.29374868183206" lon="8.688637090549975"><ele>103.0</ele><time>2026-05-01T14:52:30.002Z</time></trkpt><trkpt lat="42.29380137284017" lon="8.688791715930806"><ele>102.5</ele><time>2026-05-01T14:52:31.002Z</time></trkpt><trkpt lat="42.29376566904124" lon="8.688956988606202"><ele>102.0</ele><time>2026-05-01T14:52:32.002Z</time></trkpt><trkpt lat="42.29369792546463" lon="8.689143295597955"><ele>102.0</ele><time>2026-05-01T14:52:33.002Z</time></trkpt><trkpt lat="42.2936512640661" lon="8.689375229344265"><ele>102.0</ele><time>2026-05-01T14:52:34.002Z</time></trkpt><trkpt lat="42.293612365672615" lon="8.689603992068117"><ele>102.0</ele><time>2026-05-01T14:52:35.002Z</time></trkpt><trkpt lat="42.29362138191167" lon="8.689832274530756"><ele>102.0</ele><time>2026-05-01T14:52:36.002Z</time></trkpt><trkpt lat="42.293694706887955" lon="8.690082852078753"><ele>102.0</ele><time>2026-05-01T14:52:37.002Z</time></trkpt><trkpt lat="42.293808258532785" lon="8.690345540796907"><ele>102.0</ele><time>2026-05-01T14:52:38.002Z</time></trkpt><trkpt lat="42.293883257276825" lon="8.690633289927595"><ele>100.6</ele><time>2026-05-01T14:52:39.002Z</time></trkpt><trkpt lat="42.29392802335024" lon="8.690850364414512"><ele>99.19999999999999</ele><time>2026-05-01T14:52:40.002Z</time></trkpt><trkpt lat="42.2939332171017" lon="8.690983471109396"><ele>97.8</ele><time>2026-05-01T14:52:41.002Z</time></trkpt><trkpt lat="42.293901290327625" lon="8.691073552939908"><ele>96.4</ele><time>2026-05-01T14:52:42.002Z</time></trkpt><trkpt lat="42.29383169245534" lon="8.691132062259406"><ele>95.0</ele><time>2026-05-01T14:52:43.002Z</time></trkpt><trkpt lat="42.29373399647127" lon="8.69105548615874"><ele>95.0</ele><time>2026-05-01T14:52:44.002Z</time></trkpt><trkpt lat="42.29358966845557" lon="8.691061207313272"><ele>95.0</ele><time>2026-05-01T14:52:45.002Z</time></trkpt><trkpt lat="42.293453019751404" lon="8.691102129035956"><ele>95.0</ele><time>2026-05-01T14:52:46.002Z</time></trkpt><trkpt lat="42.29330687801899" lon="8.691258572104969"><ele>93.0</ele><time>2026-05-01T14:52:47.002Z</time></trkpt><trkpt lat="42.2931482728766" lon="8.691425392749757"><ele>91.0</ele><time>2026-05-01T14:52:48.002Z</time></trkpt><trkpt lat="42.292995718807255" lon="8.691499339379916"><ele>89.0</ele><time>2026-05-01T14:52:49.002Z</time></trkpt><trkpt lat="42.292845100168385" lon="8.691480222313633"><ele>89.0</ele><time>2026-05-01T14:52:50.002Z</time></trkpt><trkpt lat="42.292726945586" lon="8.691533243493973"><ele>89.0</ele><time>2026-05-01T14:52:51.002Z</time></trkpt><trkpt lat="42.29259117700511" lon="8.691639691706426"><ele>89.0</ele><time>2026-05-01T14:52:52.002Z</time></trkpt><trkpt lat="42.29240784427372" lon="8.69171056223836"><ele>86.75</ele><time>2026-05-01T14:52:53.002Z</time></trkpt><trkpt lat="42.29223742823066" lon="8.69174714781662"><ele>84.5</ele><time>2026-05-01T14:52:54.002Z</time></trkpt><trkpt lat="42.292124987907066" lon="8.691811961679772"><ele>82.25</ele><time>2026-05-01T14:52:55.003Z</time></trkpt><trkpt lat="42.29203794053503" lon="8.691920090112381"><ele>80.0</ele><time>2026-05-01T14:52:56.003Z</time></trkpt><trkpt lat="42.291966892373296" lon="8.692118620964743"><ele>80.0</ele><time>2026-05-01T14:52:57.003Z</time></trkpt><trkpt lat="42.291899382098784" lon="8.692379715577422"><ele>80.0</ele><time>2026-05-01T14:52:58.003Z</time></trkpt><trkpt lat="42.291828820549604" lon="8.69262963684732"><ele>80.0</ele><time>2026-05-01T14:52:59.003Z</time></trkpt><trkpt lat="42.29176676904964" lon="8.692835886852063"><ele>77.0</ele><time>2026-05-01T14:53:00.003Z</time></trkpt><trkpt lat="42.291651134862676" lon="8.692951542276548"><ele>74.0</ele><time>2026-05-01T14:53:01.003Z</time></trkpt><trkpt lat="42.291487618514246" lon="8.693019026725215"><ele>71.0</ele><time>2026-05-01T14:53:02.003Z</time></trkpt><trkpt lat="42.29131220678574" lon="8.693164813498527"><ele>71.0</ele><time>2026-05-01T14:53:03.003Z</time></trkpt><trkpt lat="42.291138746430704" lon="8.693314727932563"><ele>71.0</ele><time>2026-05-01T14:53:04.003Z</time></trkpt><trkpt lat="42.29099314287817" lon="8.6934790440148"><ele>71.0</ele><time>2026-05-01T14:53:05.003Z</time></trkpt><trkpt lat="42.29087665737774" lon="8.693655480917915"><ele>72.75</ele><time>2026-05-01T14:53:06.003Z</time></trkpt><trkpt lat="42.2908075264622" lon="8.693828775837584"><ele>74.5</ele><time>2026-05-01T14:53:07.003Z</time></trkpt><trkpt lat="42.29079115378706" lon="8.69397546247868"><ele>76.25</ele><time>2026-05-01T14:53:08.003Z</time></trkpt><trkpt lat="42.29084367706057" lon="8.694123780384201"><ele>78.0</ele><time>2026-05-01T14:53:09.003Z</time></trkpt><trkpt lat="42.290939682517866" lon="8.694260019357557"><ele>75.0</ele><time>2026-05-01T14:53:10.003Z</time></trkpt><trkpt lat="42.29103780274724" lon="8.694459739293457"><ele>72.0</ele><time>2026-05-01T14:53:11.003Z</time></trkpt><trkpt lat="42.29108401368131" lon="8.694731960245065"><ele>69.0</ele><time>2026-05-01T14:53:12.003Z</time></trkpt><trkpt lat="42.2910699512796" lon="8.695031008431048"><ele>67.0</ele><time>2026-05-01T14:53:13.003Z</time></trkpt><trkpt lat="42.29102284186777" lon="8.695287290138278"><ele>65.0</ele><time>2026-05-01T14:53:14.003Z</time></trkpt><trkpt lat="42.29098011999367" lon="8.695497772267032"><ele>63.0</ele><time>2026-05-01T14:53:15.003Z</time></trkpt><trkpt lat="42.290998816965235" lon="8.695693075706723"><ele>63.0</ele><time>2026-05-01T14:53:16.003Z</time></trkpt><trkpt lat="42.29109910967897" lon="8.695878043921088"><ele>63.0</ele><time>2026-05-01T14:53:17.003Z</time></trkpt><trkpt lat="42.29121780500413" lon="8.696102330813481"><ele>63.0</ele><time>2026-05-01T14:53:18.003Z</time></trkpt><trkpt lat="42.291272200528674" lon="8.69637314546123"><ele>59.33333333333333</ele><time>2026-05-01T14:53:19.003Z</time></trkpt><trkpt lat="42.29128419901807" lon="8.696629863103535"><ele>55.666666666666664</ele><time>2026-05-01T14:53:20.003Z</time></trkpt><trkpt lat="42.29130509287608" lon="8.696845853222719"><ele>52.0</ele><time>2026-05-01T14:53:21.003Z</time></trkpt><trkpt lat="42.29139766533683" lon="8.697057161097987"><ele>56.0</ele><time>2026-05-01T14:53:22.003Z</time></trkpt><trkpt lat="42.291518817783924" lon="8.697297337516966"><ele>60.0</ele><time>2026-05-01T14:53:23.003Z</time></trkpt><trkpt lat="42.29162546025343" lon="8.697516749651161"><ele>64.0</ele><time>2026-05-01T14:53:23.998Z</time></trkpt><trkpt lat="42.291758411840334" lon="8.69770559980128"><ele>54.666666666666664</ele><time>2026-05-01T14:53:24.998Z</time></trkpt><trkpt lat="42.291914846965504" lon="8.697862336728704"><ele>45.33333333333333</ele><time>2026-05-01T14:53:25.998Z</time></trkpt><trkpt lat="42.29207416611161" lon="8.697988863890615"><ele>36.0</ele><time>2026-05-01T14:53:26.998Z</time></trkpt><trkpt lat="42.29223279203058" lon="8.698075605171864"><ele>39.0</ele><time>2026-05-01T14:53:27.998Z</time></trkpt><trkpt lat="42.29239195727192" lon="8.698117379534304"><ele>42.0</ele><time>2026-05-01T14:53:28.998Z</time></trkpt><trkpt lat="42.29254081695421" lon="8.698103022088796"><ele>45.0</ele><time>2026-05-01T14:53:29.998Z</time></trkpt><trkpt lat="42.29268270830459" lon="8.698021689808225"><ele>45.0</ele><time>2026-05-01T14:53:30.998Z</time></trkpt><trkpt lat="42.29284872498031" lon="8.697890130700685"><ele>45.0</ele><time>2026-05-01T14:53:31.999Z</time></trkpt><trkpt lat="42.29303347362022" lon="8.697777606547055"><ele>45.0</ele><time>2026-05-01T14:53:32.999Z</time></trkpt><trkpt lat="42.29324118583841" lon="8.697681663139925"><ele>52.33333333333333</ele><time>2026-05-01T14:53:33.999Z</time></trkpt><trkpt lat="42.29345589023568" lon="8.697605724278308"><ele>59.666666666666664</ele><time>2026-05-01T14:53:34.999Z</time></trkpt><trkpt lat="42.29367129195869" lon="8.69757250814507"><ele>67.0</ele><time>2026-05-01T14:53:35.999Z</time></trkpt><trkpt lat="42.29388893743737" lon="8.697588733602993"><ele>63.0</ele><time>2026-05-01T14:53:36.999Z</time></trkpt><trkpt lat="42.29409157302727" lon="8.697595282735712"><ele>59.0</ele><time>2026-05-01T14:53:37.999Z</time></trkpt><trkpt lat="42.29428070975512" lon="8.697582886048158"><ele>55.0</ele><time>2026-05-01T14:53:38.999Z</time></trkpt><trkpt lat="42.294460909554616" lon="8.69759135906025"><ele>55.0</ele><time>2026-05-01T14:53:39.999Z</time></trkpt><trkpt lat="42.29461347122182" lon="8.697704177943427"><ele>55.0</ele><time>2026-05-01T14:53:40.999Z</time></trkpt><trkpt lat="42.294773554119985" lon="8.697809614308218"><ele>55.0</ele><time>2026-05-01T14:53:41.999Z</time></trkpt><trkpt lat="42.29493499772803" lon="8.69796769972143"><ele>49.0</ele><time>2026-05-01T14:53:42.999Z</time></trkpt><trkpt lat="42.29510218060989" lon="8.698149096278977"><ele>43.0</ele><time>2026-05-01T14:53:43.999Z</time></trkpt><trkpt lat="42.29524455062283" lon="8.698340197190278"><ele>37.0</ele><time>2026-05-01T14:53:45Z</time></trkpt><trkpt lat="42.29537804263273" lon="8.698520966916327"><ele>35.66666666666667</ele><time>2026-05-01T14:53:46Z</time></trkpt><trkpt lat="42.2954952888562" lon="8.698686875854644"><ele>34.333333333333336</ele><time>2026-05-01T14:53:47Z</time></trkpt><trkpt lat="42.295640662811664" lon="8.69880441880979"><ele>33.0</ele><time>2026-05-01T14:53:48Z</time></trkpt><trkpt lat="42.29581044638908" lon="8.698878899634899"><ele>33.0</ele><time>2026-05-01T14:53:49Z</time></trkpt><trkpt lat="42.29598889178639" lon="8.698927795572233"><ele>33.0</ele><time>2026-05-01T14:53:50Z</time></trkpt><trkpt lat="42.29615768003774" lon="8.698937157146268"><ele>33.0</ele><time>2026-05-01T14:53:51Z</time></trkpt><trkpt lat="42.29633278641222" lon="8.698874378809057"><ele>33.333333333333336</ele><time>2026-05-01T14:53:52Z</time></trkpt><trkpt lat="42.296502050559425" lon="8.698763901176342"><ele>33.66666666666667</ele><time>2026-05-01T14:53:53Z</time></trkpt><trkpt lat="42.296664901172015" lon="8.698694396526731"><ele>34.0</ele><time>2026-05-01T14:53:54Z</time></trkpt><trkpt lat="42.29679629428869" lon="8.698640707838297"><ele>34.0</ele><time>2026-05-01T14:53:55Z</time></trkpt><trkpt lat="42.29690521820828" lon="8.698609123505223"><ele>34.0</ele><time>2026-05-01T14:53:56Z</time></trkpt><trkpt lat="42.296990954519885" lon="8.698580804464102"><ele>34.0</ele><time>2026-05-01T14:53:57Z</time></trkpt><trkpt lat="42.2970529524628" lon="8.698629479072483"><ele>34.0</ele><time>2026-05-01T14:53:58Z</time></trkpt><trkpt lat="42.2970904232787" lon="8.698731221662193"><ele>34.0</ele><time>2026-05-01T14:53:59Z</time></trkpt><trkpt lat="42.297056069584904" lon="8.69886828747335"><ele>34.0</ele><time>2026-05-01T14:54:00Z</time></trkpt><trkpt lat="42.2970571904794" lon="8.698994252647315"><ele>34.0</ele><time>2026-05-01T14:54:01Z</time></trkpt><trkpt lat="42.29696073988427" lon="8.699070492303647"><ele>34.0</ele><time>2026-05-01T14:54:02Z</time></trkpt><trkpt lat="42.29685107542821" lon="8.699157153480199"><ele>34.0</ele><time>2026-05-01T14:54:03.001Z</time></trkpt><trkpt lat="42.29670469016957" lon="8.699275101967784"><ele>34.66666666666667</ele><time>2026-05-01T14:54:04.001Z</time></trkpt><trkpt lat="42.29652322208274" lon="8.699419890580588"><ele>35.333333333333336</ele><time>2026-05-01T14:54:05.001Z</time></trkpt><trkpt lat="42.29631422061148" lon="8.699567739695139"><ele>36.0</ele><time>2026-05-01T14:54:06.001Z</time></trkpt><trkpt lat="42.2961038075557" lon="8.699692704891289"><ele>36.0</ele><time>2026-05-01T14:54:07.001Z</time></trkpt><trkpt lat="42.29592547420523" lon="8.699772456041241"><ele>36.0</ele><time>2026-05-01T14:54:08.001Z</time></trkpt><trkpt lat="42.295764830239285" lon="8.699805619031405"><ele>36.0</ele><time>2026-05-01T14:54:09.001Z</time></trkpt><trkpt lat="42.29563125197324" lon="8.699779973802663"><ele>35.2</ele><time>2026-05-01T14:54:10.001Z</time></trkpt><trkpt lat="42.29550553981888" lon="8.699750165755033"><ele>34.400000000000006</ele><time>2026-05-01T14:54:11.001Z</time></trkpt><trkpt lat="42.29539175867071" lon="8.699723114390418"><ele>33.6</ele><time>2026-05-01T14:54:12.001Z</time></trkpt><trkpt lat="42.29530217322763" lon="8.699694512611616"><ele>32.800000000000004</ele><time>2026-05-01T14:54:13.001Z</time></trkpt><trkpt lat="42.295213805067874" lon="8.699705167526739"><ele>32.0</ele><time>2026-05-01T14:54:14.001Z</time></trkpt><trkpt lat="42.295126709591905" lon="8.699752824236437"><ele>32.0</ele><time>2026-05-01T14:54:15.001Z</time></trkpt><trkpt lat="42.29507505294967" lon="8.69993157080162"><ele>32.0</ele><time>2026-05-01T14:54:16.001Z</time></trkpt><trkpt lat="42.29502507668554" lon="8.700112003078234"><ele>32.0</ele><time>2026-05-01T14:54:17.001Z</time></trkpt><trkpt lat="42.29496737968269" lon="8.700300929934413"><ele>32.0</ele><time>2026-05-01T14:54:18.001Z</time></trkpt><trkpt lat="42.29489711284327" lon="8.700497887254661"><ele>31.333333333333332</ele><time>2026-05-01T14:54:19.001Z</time></trkpt><trkpt lat="42.29483219203944" lon="8.700715790807989"><ele>30.666666666666664</ele><time>2026-05-01T14:54:20.001Z</time></trkpt><trkpt lat="42.29475774370157" lon="8.70094554754021"><ele>30.0</ele><time>2026-05-01T14:54:21.001Z</time></trkpt><trkpt lat="42.294676375109795" lon="8.701137905245043"><ele>32.2</ele><time>2026-05-01T14:54:22.001Z</time></trkpt><trkpt lat="42.2946324427525" lon="8.701321679223586"><ele>34.4</ele><time>2026-05-01T14:54:23.001Z</time></trkpt><trkpt lat="42.294569466442034" lon="8.701444470702159"><ele>36.599999999999994</ele><time>2026-05-01T14:54:24.001Z</time></trkpt><trkpt lat="42.294513556194865" lon="8.701557373194127"><ele>38.8</ele><time>2026-05-01T14:54:25.001Z</time></trkpt><trkpt lat="42.29443802280732" lon="8.701635168409213"><ele>41.0</ele><time>2026-05-01T14:54:26.001Z</time></trkpt><trkpt lat="42.29435816591296" lon="8.701694073469794"><ele>41.0</ele><time>2026-05-01T14:54:27.001Z</time></trkpt><trkpt lat="42.29427545930606" lon="8.701628520831044"><ele>41.0</ele><time>2026-05-01T14:54:28.001Z</time></trkpt><trkpt lat="42.294197693119024" lon="8.701541020824912"><ele>41.0</ele><time>2026-05-01T14:54:29.001Z</time></trkpt><trkpt lat="42.2940641352846" lon="8.701407401692261"><ele>41.0</ele><time>2026-05-01T14:54:30.001Z</time></trkpt><trkpt lat="42.293914897146365" lon="8.701267905107118"><ele>40.0</ele><time>2026-05-01T14:54:31.002Z</time></trkpt><trkpt lat="42.293765903281766" lon="8.701128835135812"><ele>39.0</ele><time>2026-05-01T14:54:32.002Z</time></trkpt><trkpt lat="42.29366525171371" lon="8.70093617275293"><ele>38.0</ele><time>2026-05-01T14:54:33.002Z</time></trkpt><trkpt lat="42.29354399660999" lon="8.70081591124917"><ele>38.0</ele><time>2026-05-01T14:54:34.002Z</time></trkpt><trkpt lat="42.293425904856754" lon="8.700705540350404"><ele>38.0</ele><time>2026-05-01T14:54:35.002Z</time></trkpt><trkpt lat="42.293280734013244" lon="8.700614953095112"><ele>38.0</ele><time>2026-05-01T14:54:36.002Z</time></trkpt><trkpt lat="42.293103297331015" lon="8.700565464389713"><ele>39.666666666666664</ele><time>2026-05-01T14:54:37.002Z</time></trkpt><trkpt lat="42.29292264593704" lon="8.700563145554618"><ele>41.333333333333336</ele><time>2026-05-01T14:54:38.002Z</time></trkpt><trkpt lat="42.29275604068742" lon="8.700588383369311"><ele>43.0</ele><time>2026-05-01T14:54:39.002Z</time></trkpt><trkpt lat="42.2926101086833" lon="8.700569882279682"><ele>43.0</ele><time>2026-05-01T14:54:40.002Z</time></trkpt><trkpt lat="42.292468835586746" lon="8.700479248737961"><ele>43.0</ele><time>2026-05-01T14:54:41.002Z</time></trkpt><trkpt lat="42.29230249436842" lon="8.70035291592123"><ele>43.0</ele><time>2026-05-01T14:54:42.002Z</time></trkpt><trkpt lat="42.29213882299066" lon="8.700251762567467"><ele>39.5</ele><time>2026-05-01T14:54:43.002Z</time></trkpt><trkpt lat="42.29199033842232" lon="8.70019044770441"><ele>36.0</ele><time>2026-05-01T14:54:44.002Z</time></trkpt><trkpt lat="42.29185736105435" lon="8.700158353692917"><ele>32.5</ele><time>2026-05-01T14:54:45.002Z</time></trkpt><trkpt lat="42.29172914723374" lon="8.700144868000278"><ele>29.0</ele><time>2026-05-01T14:54:46.002Z</time></trkpt><trkpt lat="42.29158791984417" lon="8.700222649461912"><ele>29.0</ele><time>2026-05-01T14:54:47.002Z</time></trkpt><trkpt lat="42.29143212626318" lon="8.700230863257445"><ele>29.0</ele><time>2026-05-01T14:54:48.002Z</time></trkpt><trkpt lat="42.2912792810631" lon="8.700222361920586"><ele>29.0</ele><time>2026-05-01T14:54:49.002Z</time></trkpt><trkpt lat="42.29113349758751" lon="8.700218636266701"><ele>31.25</ele><time>2026-05-01T14:54:50.002Z</time></trkpt><trkpt lat="42.2909911663126" lon="8.700211598017793"><ele>33.5</ele><time>2026-05-01T14:54:51.002Z</time></trkpt><trkpt lat="42.29087077031103" lon="8.700187973104734"><ele>35.75</ele><time>2026-05-01T14:54:52.002Z</time></trkpt><trkpt lat="42.29077623496733" lon="8.70011332949655"><ele>38.0</ele><time>2026-05-01T14:54:53.002Z</time></trkpt><trkpt lat="42.290730396386266" lon="8.699978185342557"><ele>38.0</ele><time>2026-05-01T14:54:54.002Z</time></trkpt><trkpt lat="42.29070182689495" lon="8.699794398874504"><ele>38.0</ele><time>2026-05-01T14:54:55.002Z</time></trkpt><trkpt lat="42.290646068004634" lon="8.69962565789887"><ele>38.0</ele><time>2026-05-01T14:54:56.002Z</time></trkpt><trkpt lat="42.29057591499146" lon="8.699489586046491"><ele>38.0</ele><time>2026-05-01T14:54:57.002Z</time></trkpt><trkpt lat="42.29047205122969" lon="8.699387636303408"><ele>39.5</ele><time>2026-05-01T14:54:58.002Z</time></trkpt><trkpt lat="42.29035135779419" lon="8.699357657867962"><ele>41.0</ele><time>2026-05-01T14:54:59.002Z</time></trkpt><trkpt lat="42.29023114003617" lon="8.699389145448086"><ele>42.5</ele><time>2026-05-01T14:55:00.002Z</time></trkpt><trkpt lat="42.29012924665329" lon="8.699493243789506"><ele>44.0</ele><time>2026-05-01T14:55:01.002Z</time></trkpt><trkpt lat="42.29005332836977" lon="8.699681336709206"><ele>44.0</ele><time>2026-05-01T14:55:02.002Z</time></trkpt><trkpt lat="42.28998444917107" lon="8.69989983307002"><ele>44.0</ele><time>2026-05-01T14:55:03.002Z</time></trkpt><trkpt lat="42.28988487981372" lon="8.700039784426012"><ele>44.0</ele><time>2026-05-01T14:55:04.003Z</time></trkpt><trkpt lat="42.28976498965584" lon="8.70015101671526"><ele>45.75</ele><time>2026-05-01T14:55:05.003Z</time></trkpt><trkpt lat="42.28961869501274" lon="8.700218961997052"><ele>47.5</ele><time>2026-05-01T14:55:06.003Z</time></trkpt><trkpt lat="42.2894883701068" lon="8.700244219202704"><ele>49.25</ele><time>2026-05-01T14:55:07.003Z</time></trkpt><trkpt lat="42.28937077104811" lon="8.700233676980183"><ele>51.0</ele><time>2026-05-01T14:55:08.003Z</time></trkpt><trkpt lat="42.2892558232671" lon="8.70014910530655"><ele>51.0</ele><time>2026-05-01T14:55:09.003Z</time></trkpt><trkpt lat="42.289138558420284" lon="8.700031634473536"><ele>51.0</ele><time>2026-05-01T14:55:10.003Z</time></trkpt><trkpt lat="42.28905125730239" lon="8.69990466528754"><ele>51.0</ele><time>2026-05-01T14:55:11.003Z</time></trkpt><trkpt lat="42.289015402291334" lon="8.69976172536072"><ele>51.0</ele><time>2026-05-01T14:55:12.003Z</time></trkpt><trkpt lat="42.289033320380575" lon="8.699601159371175"><ele>51.0</ele><time>2026-05-01T14:55:13.003Z</time></trkpt><trkpt lat="42.28903149700537" lon="8.6994176878248"><ele>51.0</ele><time>2026-05-01T14:55:14.003Z</time></trkpt><trkpt lat="42.28901855706688" lon="8.69925714994576"><ele>51.0</ele><time>2026-05-01T14:55:15.003Z</time></trkpt><trkpt lat="42.28895059287296" lon="8.69911011678453"><ele>51.0</ele><time>2026-05-01T14:55:16.003Z</time></trkpt><trkpt lat="42.28882413861999" lon="8.698988995538837"><ele>55.33333333333333</ele><time>2026-05-01T14:55:17.003Z</time></trkpt><trkpt lat="42.28872186881098" lon="8.698829062532056"><ele>59.666666666666664</ele><time>2026-05-01T14:55:18.003Z</time></trkpt><trkpt lat="42.28852497077693" lon="8.698925928042572"><ele>64.0</ele><time>2026-05-01T14:55:19.003Z</time></trkpt><trkpt lat="42.28833536937094" lon="8.69893001711578"><ele>64.0</ele><time>2026-05-01T14:55:20.003Z</time></trkpt><trkpt lat="42.28819696899258" lon="8.698845012737431"><ele>64.0</ele><time>2026-05-01T14:55:21.003Z</time></trkpt><trkpt lat="42.28809176236843" lon="8.698727963076719"><ele>64.0</ele><time>2026-05-01T14:55:22.003Z</time></trkpt><trkpt lat="42.28801050894486" lon="8.698585680344685"><ele>64.0</ele><time>2026-05-01T14:55:23.003Z</time></trkpt><trkpt lat="42.28791776640614" lon="8.698438379323978"><ele>65.0</ele><time>2026-05-01T14:55:24.003Z</time></trkpt><trkpt lat="42.28782118967024" lon="8.698323634901474"><ele>66.0</ele><time>2026-05-01T14:55:25.003Z</time></trkpt><trkpt lat="42.28772565922519" lon="8.698223612966373"><ele>67.0</ele><time>2026-05-01T14:55:26.003Z</time></trkpt><trkpt lat="42.28762315347981" lon="8.698144087009805"><ele>68.0</ele><time>2026-05-01T14:55:27.003Z</time></trkpt><trkpt lat="42.28752483582403" lon="8.698070151848894"><ele>68.0</ele><time>2026-05-01T14:55:28.003Z</time></trkpt><trkpt lat="42.28743403147835" lon="8.698024296233603"><ele>68.0</ele><time>2026-05-01T14:55:29.003Z</time></trkpt><trkpt lat="42.28737221162328" lon="8.697971303858667"><ele>68.0</ele><time>2026-05-01T14:55:29.997Z</time></trkpt><trkpt lat="42.28732284845977" lon="8.697916582238118"><ele>68.0</ele><time>2026-05-01T14:55:30.997Z</time></trkpt><trkpt lat="42.287254339853" lon="8.69786425698938"><ele>68.0</ele><time>2026-05-01T14:55:31.997Z</time></trkpt><trkpt lat="42.2871674867443" lon="8.697829959434479"><ele>68.0</ele><time>2026-05-01T14:55:32.998Z</time></trkpt><trkpt lat="42.287056264229065" lon="8.697791466857392"><ele>68.4</ele><time>2026-05-01T14:55:33.998Z</time></trkpt><trkpt lat="42.28694301270052" lon="8.697790574490474"><ele>68.8</ele><time>2026-05-01T14:55:34.998Z</time></trkpt><trkpt lat="42.286852850096984" lon="8.697776042830945"><ele>69.2</ele><time>2026-05-01T14:55:35.998Z</time></trkpt><trkpt lat="42.28678192388205" lon="8.697810213807053"><ele>69.6</ele><time>2026-05-01T14:55:36.998Z</time></trkpt><trkpt lat="42.28666476747682" lon="8.69784573885231"><ele>70.0</ele><time>2026-05-01T14:55:38.998Z</time></trkpt><trkpt lat="42.28659911812639" lon="8.697934269576969"><ele>70.0</ele><time>2026-05-01T14:55:39.998Z</time></trkpt><trkpt lat="42.286532918304296" lon="8.698091539750093"><ele>70.0</ele><time>2026-05-01T14:55:40.998Z</time></trkpt><trkpt lat="42.28646399397109" lon="8.698322140603924"><ele>70.0</ele><time>2026-05-01T14:55:41.999Z</time></trkpt><trkpt lat="42.28638511224976" lon="8.698575786571295"><ele>70.0</ele><time>2026-05-01T14:55:42.999Z</time></trkpt><trkpt lat="42.28629665599859" lon="8.69885739084662"><ele>70.0</ele><time>2026-05-01T14:55:43.999Z</time></trkpt><trkpt lat="42.28620427164778" lon="8.69915035719081"><ele>74.33333333333333</ele><time>2026-05-01T14:55:44.999Z</time></trkpt><trkpt lat="42.28610549911118" lon="8.699434921538312"><ele>78.66666666666667</ele><time>2026-05-01T14:55:45.999Z</time></trkpt><trkpt lat="42.2859981691808" lon="8.699658511127605"><ele>83.0</ele><time>2026-05-01T14:55:46.999Z</time></trkpt><trkpt lat="42.28587984255707" lon="8.699763837165412"><ele>83.0</ele><time>2026-05-01T14:55:47.999Z</time></trkpt><trkpt lat="42.28577886913149" lon="8.699769079648037"><ele>83.0</ele><time>2026-05-01T14:55:48.999Z</time></trkpt><trkpt lat="42.28567146267453" lon="8.699733868723563"><ele>83.0</ele><time>2026-05-01T14:55:49.999Z</time></trkpt><trkpt lat="42.28549817501326" lon="8.699678230495271"><ele>83.0</ele><time>2026-05-01T14:55:50.999Z</time></trkpt><trkpt lat="42.28528239268208" lon="8.699654545214898"><ele>86.5</ele><time>2026-05-01T14:55:51.999Z</time></trkpt><trkpt lat="42.28503852514299" lon="8.699604388531075"><ele>90.0</ele><time>2026-05-01T14:55:53Z</time></trkpt><trkpt lat="42.28479297423608" lon="8.699550448638615"><ele>93.25</ele><time>2026-05-01T14:55:54Z</time></trkpt><trkpt lat="42.284611059935635" lon="8.69948894826314"><ele>96.5</ele><time>2026-05-01T14:55:55Z</time></trkpt><trkpt lat="42.28452292904697" lon="8.699369588392345"><ele>99.75</ele><time>2026-05-01T14:55:56Z</time></trkpt><trkpt lat="42.28447436795817" lon="8.699255974429436"><ele>103.0</ele><time>2026-05-01T14:55:57Z</time></trkpt><trkpt lat="42.2844731777528" lon="8.699103018713211"><ele>103.0</ele><time>2026-05-01T14:55:58Z</time></trkpt><trkpt lat="42.284544452926" lon="8.698883178271235"><ele>103.0</ele><time>2026-05-01T14:55:59Z</time></trkpt><trkpt lat="42.28460414893297" lon="8.698600174401768"><ele>103.0</ele><time>2026-05-01T14:56:00Z</time></trkpt><trkpt lat="42.28466002868428" lon="8.698279114393047"><ele>110.0</ele><time>2026-05-01T14:56:01Z</time></trkpt><trkpt lat="42.28469525552984" lon="8.697916358951215"><ele>117.0</ele><time>2026-05-01T14:56:02Z</time></trkpt><trkpt lat="42.28470910543363" lon="8.697587385978292"><ele>120.0</ele><time>2026-05-01T14:56:03Z</time></trkpt><trkpt lat="42.28472507621019" lon="8.697357811376005"><ele>123.0</ele><time>2026-05-01T14:56:04Z</time></trkpt><trkpt lat="42.28473768433245" lon="8.69715212314819"><ele>126.0</ele><time>2026-05-01T14:56:05Z</time></trkpt><trkpt lat="42.28473789052398" lon="8.696960525131374"><ele>124.25</ele><time>2026-05-01T14:56:06Z</time></trkpt><trkpt lat="42.28473590444458" lon="8.696786245582071"><ele>122.5</ele><time>2026-05-01T14:56:07Z</time></trkpt><trkpt lat="42.28471487568379" lon="8.696628361805416"><ele>120.75</ele><time>2026-05-01T14:56:08Z</time></trkpt><trkpt lat="42.284640757036414" lon="8.696477475146896"><ele>119.0</ele><time>2026-05-01T14:56:09Z</time></trkpt><trkpt lat="42.284533509992244" lon="8.696294634770284"><ele>112.66666666666666</ele><time>2026-05-01T14:56:10.001Z</time></trkpt><trkpt lat="42.28446138543659" lon="8.696082684447893"><ele>106.33333333333334</ele><time>2026-05-01T14:56:11.001Z</time></trkpt><trkpt lat="42.28443066619251" lon="8.69585558835727"><ele>100.0</ele><time>2026-05-01T14:56:12.001Z</time></trkpt><trkpt lat="42.284405412747965" lon="8.695676913563522"><ele>100.0</ele><time>2026-05-01T14:56:13.001Z</time></trkpt><trkpt lat="42.28434269565239" lon="8.69555532494267"><ele>100.0</ele><time>2026-05-01T14:56:14.001Z</time></trkpt><trkpt lat="42.284214192978986" lon="8.695472711356315"><ele>100.0</ele><time>2026-05-01T14:56:15.001Z</time></trkpt><trkpt lat="42.28405046366959" lon="8.695420571208587"><ele>100.0</ele><time>2026-05-01T14:56:16.001Z</time></trkpt><trkpt lat="42.28390849373424" lon="8.695407013149996"><ele>98.0</ele><time>2026-05-01T14:56:17.001Z</time></trkpt><trkpt lat="42.283794492745244" lon="8.69545584278758"><ele>96.0</ele><time>2026-05-01T14:56:18.001Z</time></trkpt><trkpt lat="42.28370309440087" lon="8.695573035311957"><ele>94.0</ele><time>2026-05-01T14:56:19.001Z</time></trkpt><trkpt lat="42.28361344630319" lon="8.695746596254844"><ele>92.0</ele><time>2026-05-01T14:56:20.001Z</time></trkpt><trkpt lat="42.28348904466262" lon="8.69593687555074"><ele>95.33333333333334</ele><time>2026-05-01T14:56:21.001Z</time></trkpt><trkpt lat="42.283333361467996" lon="8.696122265561096"><ele>98.66666666666667</ele><time>2026-05-01T14:56:22.001Z</time></trkpt><trkpt lat="42.283153961120156" lon="8.696318013247586"><ele>102.0</ele><time>2026-05-01T14:56:23.001Z</time></trkpt><trkpt lat="42.28296427973237" lon="8.696491064526354"><ele>102.0</ele><time>2026-05-01T14:56:24.001Z</time></trkpt><trkpt lat="42.28277710540654" lon="8.696618821547915"><ele>102.0</ele><time>2026-05-01T14:56:25.001Z</time></trkpt><trkpt lat="42.282594969731925" lon="8.696704981903496"><ele>102.0</ele><time>2026-05-01T14:56:26.001Z</time></trkpt><trkpt lat="42.28242448568563" lon="8.69678821168409"><ele>111.66666666666666</ele><time>2026-05-01T14:56:27.001Z</time></trkpt><trkpt lat="42.28227240746721" lon="8.696931349401162"><ele>121.33333333333333</ele><time>2026-05-01T14:56:28.001Z</time></trkpt><trkpt lat="42.282120668727636" lon="8.697034139733919"><ele>131.0</ele><time>2026-05-01T14:56:29.001Z</time></trkpt><trkpt lat="42.281987564511866" lon="8.69711677329649"><ele>131.4</ele><time>2026-05-01T14:56:30.001Z</time></trkpt><trkpt lat="42.281877341781694" lon="8.697149489603866"><ele>131.8</ele><time>2026-05-01T14:56:31.001Z</time></trkpt><trkpt lat="42.281789228124914" lon="8.697128519467798"><ele>132.20000000000002</ele><time>2026-05-01T14:56:32.001Z</time></trkpt><trkpt lat="42.28171617733346" lon="8.697077600266356"><ele>132.6</ele><time>2026-05-01T14:56:33.001Z</time></trkpt><trkpt lat="42.28168855184341" lon="8.696960047168568"><ele>133.0</ele><time>2026-05-01T14:56:34.001Z</time></trkpt><trkpt lat="42.2816174173544" lon="8.696787562096832"><ele>133.66666666666669</ele><time>2026-05-01T14:56:35.001Z</time></trkpt><trkpt lat="42.28151216780018" lon="8.696580821360058"><ele>134.33333333333334</ele><time>2026-05-01T14:56:36.002Z</time></trkpt><trkpt lat="42.28141631515972" lon="8.696332636568272"><ele>135.0</ele><time>2026-05-01T14:56:37.002Z</time></trkpt><trkpt lat="42.281294233047795" lon="8.696068016411171"><ele>135.0</ele><time>2026-05-01T14:56:38.002Z</time></trkpt><trkpt lat="42.28114311908164" lon="8.695827422291444"><ele>135.0</ele><time>2026-05-01T14:56:39.002Z</time></trkpt><trkpt lat="42.28099467076921" lon="8.695622746861542"><ele>135.0</ele><time>2026-05-01T14:56:40.002Z</time></trkpt><trkpt lat="42.28087083817253" lon="8.695419164624383"><ele>135.66666666666666</ele><time>2026-05-01T14:56:41.002Z</time></trkpt><trkpt lat="42.280803104826155" lon="8.695208730532944"><ele>136.33333333333331</ele><time>2026-05-01T14:56:42.002Z</time></trkpt><trkpt lat="42.28071155444198" lon="8.695051817000136"><ele>137.0</ele><time>2026-05-01T14:56:43.002Z</time></trkpt><trkpt lat="42.280570155106766" lon="8.694922133510321"><ele>137.0</ele><time>2026-05-01T14:56:44.002Z</time></trkpt><trkpt lat="42.280388004831586" lon="8.694785302991463"><ele>137.0</ele><time>2026-05-01T14:56:45.002Z</time></trkpt><trkpt lat="42.28024010906948" lon="8.694625060044949"><ele>137.0</ele><time>2026-05-01T14:56:46.002Z</time></trkpt><trkpt lat="42.280138670098864" lon="8.694443646584158"><ele>140.0</ele><time>2026-05-01T14:56:47.002Z</time></trkpt><trkpt lat="42.28002610349683" lon="8.69427275862082"><ele>143.0</ele><time>2026-05-01T14:56:48.002Z</time></trkpt><trkpt lat="42.27989883068235" lon="8.69414163735246"><ele>146.0</ele><time>2026-05-01T14:56:49.002Z</time></trkpt><trkpt lat="42.27972438832673" lon="8.69404982060049"><ele>146.0</ele><time>2026-05-01T14:56:50.002Z</time></trkpt><trkpt lat="42.279567583596375" lon="8.693944020612014"><ele>146.0</ele><time>2026-05-01T14:56:51.002Z</time></trkpt><trkpt lat="42.27946589311709" lon="8.69381495765153"><ele>146.0</ele><time>2026-05-01T14:56:52.002Z</time></trkpt><trkpt lat="42.27940019088444" lon="8.69365069959287"><ele>144.0</ele><time>2026-05-01T14:56:53.002Z</time></trkpt><trkpt lat="42.27935859286222" lon="8.69344175583717"><ele>142.0</ele><time>2026-05-01T14:56:54.002Z</time></trkpt><trkpt lat="42.27932016095594" lon="8.693190130111137"><ele>140.0</ele><time>2026-05-01T14:56:55.002Z</time></trkpt><trkpt lat="42.279271389337815" lon="8.692960719057147"><ele>138.5</ele><time>2026-05-01T14:56:56.002Z</time></trkpt><trkpt lat="42.27922656739086" lon="8.692736641554545"><ele>137.0</ele><time>2026-05-01T14:56:57.002Z</time></trkpt><trkpt lat="42.27919483748742" lon="8.692543039545152"><ele>135.5</ele><time>2026-05-01T14:56:58.002Z</time></trkpt><trkpt lat="42.27917941755412" lon="8.692379319695268"><ele>134.0</ele><time>2026-05-01T14:56:59.002Z</time></trkpt><trkpt lat="42.279167799848544" lon="8.692236790813089"><ele>134.0</ele><time>2026-05-01T14:57:00.002Z</time></trkpt><trkpt lat="42.279123812190505" lon="8.692116596455886"><ele>134.0</ele><time>2026-05-01T14:57:01.002Z</time></trkpt><trkpt lat="42.27904692638775" lon="8.692040176100093"><ele>134.0</ele><time>2026-05-01T14:57:02.002Z</time></trkpt><trkpt lat="42.27895374330736" lon="8.692012150699192"><ele>134.0</ele><time>2026-05-01T14:57:03.002Z</time></trkpt><trkpt lat="42.27882175956618" lon="8.692117926747182"><ele>134.0</ele><time>2026-05-01T14:57:04.002Z</time></trkpt><trkpt lat="42.278691735310005" lon="8.692205883749178"><ele>130.0</ele><time>2026-05-01T14:57:05.002Z</time></trkpt><trkpt lat="42.278594982578355" lon="8.692294722320666"><ele>126.0</ele><time>2026-05-01T14:57:06.002Z</time></trkpt><trkpt lat="42.27853437415039" lon="8.692441125375964"><ele>122.0</ele><time>2026-05-01T14:57:07.002Z</time></trkpt><trkpt lat="42.27846620780458" lon="8.692609150640713"><ele>118.0</ele><time>2026-05-01T14:57:08.003Z</time></trkpt><trkpt lat="42.27841392472231" lon="8.692774489471779"><ele>125.75</ele><time>2026-05-01T14:57:09.003Z</time></trkpt><trkpt lat="42.27835488088017" lon="8.692930360704075"><ele>133.5</ele><time>2026-05-01T14:57:10.003Z</time></trkpt><trkpt lat="42.278231997715736" lon="8.693016897133957"><ele>141.25</ele><time>2026-05-01T14:57:11.003Z</time></trkpt><trkpt lat="42.27812678122998" lon="8.693081815294395"><ele>149.0</ele><time>2026-05-01T14:57:12.003Z</time></trkpt><trkpt lat="42.277997099285045" lon="8.693066565758679"><ele>149.0</ele><time>2026-05-01T14:57:13.003Z</time></trkpt><trkpt lat="42.277885452152425" lon="8.693172700406434"><ele>149.0</ele><time>2026-05-01T14:57:14.003Z</time></trkpt><trkpt lat="42.27774954564145" lon="8.693235071418853"><ele>149.0</ele><time>2026-05-01T14:57:15.003Z</time></trkpt><trkpt lat="42.27760909215453" lon="8.693297501997915"><ele>149.0</ele><time>2026-05-01T14:57:16.003Z</time></trkpt><trkpt lat="42.27749080652058" lon="8.693335318062505"><ele>149.0</ele><time>2026-05-01T14:57:17.003Z</time></trkpt><trkpt lat="42.277386250886835" lon="8.693334812284563"><ele>149.0</ele><time>2026-05-01T14:57:18.003Z</time></trkpt><trkpt lat="42.27728445394793" lon="8.693299042900193"><ele>149.0</ele><time>2026-05-01T14:57:19.003Z</time></trkpt><trkpt lat="42.27719664054667" lon="8.69317992277956"><ele>149.0</ele><time>2026-05-01T14:57:20.003Z</time></trkpt><trkpt lat="42.27708307232642" lon="8.693048008738717"><ele>155.25</ele><time>2026-05-01T14:57:21.003Z</time></trkpt><trkpt lat="42.27697783775293" lon="8.692951030526539"><ele>161.5</ele><time>2026-05-01T14:57:22.003Z</time></trkpt><trkpt lat="42.27684588278791" lon="8.692919485926353"><ele>167.75</ele><time>2026-05-01T14:57:23.003Z</time></trkpt><trkpt lat="42.276736596904655" lon="8.6928552732353"><ele>174.0</ele><time>2026-05-01T14:57:24.003Z</time></trkpt><trkpt lat="42.27664722401184" lon="8.69275782838357"><ele>173.39999999999998</ele><time>2026-05-01T14:57:25.003Z</time></trkpt><trkpt lat="42.27655689235146" lon="8.692638582767007"><ele>172.8</ele><time>2026-05-01T14:57:26.003Z</time></trkpt><trkpt lat="42.27652408096897" lon="8.692503246479783"><ele>172.2</ele><time>2026-05-01T14:57:27.003Z</time></trkpt><trkpt lat="42.27649438917422" lon="8.692372820476889"><ele>171.60000000000002</ele><time>2026-05-01T14:57:28.003Z</time></trkpt><trkpt lat="42.276455212305095" lon="8.692272695129692"><ele>171.0</ele><time>2026-05-01T14:57:29.003Z</time></trkpt><trkpt lat="42.27636711782121" lon="8.692209971968136"><ele>171.0</ele><time>2026-05-01T14:57:30.003Z</time></trkpt><trkpt lat="42.276263426443236" lon="8.692162490778276"><ele>171.0</ele><time>2026-05-01T14:57:31.003Z</time></trkpt><trkpt lat="42.276161767044314" lon="8.692130366743912"><ele>171.0</ele><time>2026-05-01T14:57:32.003Z</time></trkpt><trkpt lat="42.27607355635084" lon="8.692092655447732"><ele>171.0</ele><time>2026-05-01T14:57:33.003Z</time></trkpt><trkpt lat="42.275984417545544" lon="8.692067079761042"><ele>171.0</ele><time>2026-05-01T14:57:34.003Z</time></trkpt><trkpt lat="42.27589450993756" lon="8.692023671302024"><ele>171.0</ele><time>2026-05-01T14:57:35.003Z</time></trkpt><trkpt lat="42.27581470909155" lon="8.691977366288622"><ele>171.0</ele><time>2026-05-01T14:57:35.998Z</time></trkpt><trkpt lat="42.275737552255954" lon="8.691946051458954"><ele>171.0</ele><time>2026-05-01T14:57:36.998Z</time></trkpt><trkpt lat="42.27565303085223" lon="8.69195655137171"><ele>171.0</ele><time>2026-05-01T14:57:37.998Z</time></trkpt><trkpt lat="42.275576594372744" lon="8.692046266269584"><ele>171.0</ele><time>2026-05-01T14:57:38.998Z</time></trkpt><trkpt lat="42.275492540715106" lon="8.692058528012483"><ele>171.0</ele><time>2026-05-01T14:57:39.998Z</time></trkpt><trkpt lat="42.275425858016554" lon="8.692087426770241"><ele>172.8</ele><time>2026-05-01T14:57:40.999Z</time></trkpt><trkpt lat="42.2753287812319" lon="8.692123615696342"><ele>174.60000000000002</ele><time>2026-05-01T14:57:42.999Z</time></trkpt><trkpt lat="42.27522856685354" lon="8.692102298034467"><ele>176.4</ele><time>2026-05-01T14:57:44.999Z</time></trkpt><trkpt lat="42.275198076406696" lon="8.691980502496774"><ele>178.2</ele><time>2026-05-01T14:57:45.999Z</time></trkpt><trkpt lat="42.2751799012815" lon="8.691827151460414"><ele>180.0</ele><time>2026-05-01T14:57:46.999Z</time></trkpt><trkpt lat="42.275113984776105" lon="8.691694612514436"><ele>172.2</ele><time>2026-05-01T14:57:47.999Z</time></trkpt><trkpt lat="42.275035509883764" lon="8.691611683169464"><ele>164.4</ele><time>2026-05-01T14:57:48.999Z</time></trkpt><trkpt lat="42.27495132124948" lon="8.691582249975745"><ele>156.6</ele><time>2026-05-01T14:57:49.999Z</time></trkpt><trkpt lat="42.274879564562355" lon="8.691628671972008"><ele>148.8</ele><time>2026-05-01T14:57:50.999Z</time></trkpt><trkpt lat="42.27483293584795" lon="8.691737738492499"><ele>141.0</ele><time>2026-05-01T14:57:51.999Z</time></trkpt><trkpt lat="42.2747630341408" lon="8.691842317244335"><ele>140.4</ele><time>2026-05-01T14:57:52.999Z</time></trkpt><trkpt lat="42.274682551854745" lon="8.691898253196639"><ele>139.8</ele><time>2026-05-01T14:57:53.999Z</time></trkpt><trkpt lat="42.27459079625948" lon="8.691944382511517"><ele>139.20000000000002</ele><time>2026-05-01T14:57:54.999Z</time></trkpt><trkpt lat="42.27452044948697" lon="8.69197946582061"><ele>138.6</ele><time>2026-05-01T14:57:56Z</time></trkpt><trkpt lat="42.274420455839255" lon="8.691907860126696"><ele>138.0</ele><time>2026-05-01T14:57:58Z</time></trkpt><trkpt lat="42.27435778803854" lon="8.691839060373251"><ele>138.0</ele><time>2026-05-01T14:57:59Z</time></trkpt><trkpt lat="42.274342860487856" lon="8.691713288463056"><ele>138.0</ele><time>2026-05-01T14:58:00Z</time></trkpt><trkpt lat="42.27429226134831" lon="8.691623535956468"><ele>138.0</ele><time>2026-05-01T14:58:01Z</time></trkpt><trkpt lat="42.2741980511051" lon="8.691579220309007"><ele>138.0</ele><time>2026-05-01T14:58:02Z</time></trkpt><trkpt lat="42.27407593165475" lon="8.691597285230303"><ele>138.0</ele><time>2026-05-01T14:58:03Z</time></trkpt><trkpt lat="42.27398541256578" lon="8.691725395638938"><ele>138.4</ele><time>2026-05-01T14:58:04Z</time></trkpt><trkpt lat="42.2738899280614" lon="8.691828230498704"><ele>138.8</ele><time>2026-05-01T14:58:05Z</time></trkpt><trkpt lat="42.27378838054479" lon="8.691817333908022"><ele>139.2</ele><time>2026-05-01T14:58:06Z</time></trkpt><trkpt lat="42.27368139620783" lon="8.69186034571901"><ele>139.6</ele><time>2026-05-01T14:58:07Z</time></trkpt><trkpt lat="42.27358713681678" lon="8.691927311899539"><ele>140.0</ele><time>2026-05-01T14:58:08Z</time></trkpt><trkpt lat="42.27350178848747" lon="8.69196015481426"><ele>140.0</ele><time>2026-05-01T14:58:09Z</time></trkpt><trkpt lat="42.273435078271646" lon="8.691955074243408"><ele>140.0</ele><time>2026-05-01T14:58:10Z</time></trkpt><trkpt lat="42.2733224403305" lon="8.691888981928683"><ele>140.0</ele><time>2026-05-01T14:58:12Z</time></trkpt><trkpt lat="42.273279524752745" lon="8.691825922850741"><ele>140.0</ele><time>2026-05-01T14:58:13Z</time></trkpt><trkpt lat="42.27325712544087" lon="8.691714292862203"><ele>140.0</ele><time>2026-05-01T14:58:14.001Z</time></trkpt><trkpt lat="42.273227393152396" lon="8.691620911618207"><ele>140.0</ele><time>2026-05-01T14:58:15.001Z</time></trkpt><trkpt lat="42.27314012627642" lon="8.691588207354767"><ele>139.75</ele><time>2026-05-01T14:58:16.001Z</time></trkpt><trkpt lat="42.273017966750345" lon="8.691698572162075"><ele>139.5</ele><time>2026-05-01T14:58:17.001Z</time></trkpt><trkpt lat="42.27290213964759" lon="8.691778184919041"><ele>139.25</ele><time>2026-05-01T14:58:18.001Z</time></trkpt><trkpt lat="42.27279035645718" lon="8.69185798408377"><ele>139.0</ele><time>2026-05-01T14:58:19.001Z</time></trkpt><trkpt lat="42.272706707004815" lon="8.69192472480892"><ele>139.0</ele><time>2026-05-01T14:58:20.001Z</time></trkpt><trkpt lat="42.27264999902337" lon="8.691988411599484"><ele>139.0</ele><time>2026-05-01T14:58:21.001Z</time></trkpt><trkpt lat="42.272614028694136" lon="8.692086079214704"><ele>139.0</ele><time>2026-05-01T14:58:22.001Z</time></trkpt><trkpt lat="42.27263911174794" lon="8.692227866452459"><ele>139.0</ele><time>2026-05-01T14:58:23.001Z</time></trkpt><trkpt lat="42.27262007146171" lon="8.69235841629534"><ele>139.0</ele><time>2026-05-01T14:58:24.001Z</time></trkpt><trkpt lat="42.27261245291421" lon="8.692512906366657"><ele>139.0</ele><time>2026-05-01T14:58:25.001Z</time></trkpt><trkpt lat="42.27259097338684" lon="8.692664273439322"><ele>139.0</ele><time>2026-05-01T14:58:26.001Z</time></trkpt><trkpt lat="42.272520722664254" lon="8.692777403378791"><ele>139.0</ele><time>2026-05-01T14:58:27.001Z</time></trkpt><trkpt lat="42.27240808077047" lon="8.692833964965505"><ele>139.0</ele><time>2026-05-01T14:58:28.001Z</time></trkpt><trkpt lat="42.27228833504656" lon="8.692923605736432"><ele>133.0</ele><time>2026-05-01T14:58:29.001Z</time></trkpt><trkpt lat="42.27216607340871" lon="8.693010069512829"><ele>127.0</ele><time>2026-05-01T14:58:30.001Z</time></trkpt><trkpt lat="42.27206668253164" lon="8.693090084022316"><ele>121.0</ele><time>2026-05-01T14:58:31.001Z</time></trkpt><trkpt lat="42.27198788003998" lon="8.693194059887285"><ele>115.0</ele><time>2026-05-01T14:58:32.001Z</time></trkpt><trkpt lat="42.271965328496584" lon="8.69336830830864"><ele>115.0</ele><time>2026-05-01T14:58:33.001Z</time></trkpt><trkpt lat="42.27189950356172" lon="8.69352874278352"><ele>115.0</ele><time>2026-05-01T14:58:34.001Z</time></trkpt><trkpt lat="42.27184224456514" lon="8.693705695606347"><ele>115.0</ele><time>2026-05-01T14:58:35.001Z</time></trkpt><trkpt lat="42.27177372900875" lon="8.693896788184912"><ele>115.0</ele><time>2026-05-01T14:58:36.001Z</time></trkpt><trkpt lat="42.271698292882185" lon="8.694060319632671"><ele>112.0</ele><time>2026-05-01T14:58:37.001Z</time></trkpt><trkpt lat="42.27160630720233" lon="8.694177877821351"><ele>109.0</ele><time>2026-05-01T14:58:38.001Z</time></trkpt><trkpt lat="42.27147668302498" lon="8.694183359151703"><ele>106.0</ele><time>2026-05-01T14:58:39.001Z</time></trkpt><trkpt lat="42.27137395807908" lon="8.694255420879934"><ele>103.0</ele><time>2026-05-01T14:58:40.001Z</time></trkpt><trkpt lat="42.27128456708719" lon="8.694347813583395"><ele>110.25</ele><time>2026-05-01T14:58:41.001Z</time></trkpt><trkpt lat="42.27123692899188" lon="8.694521721674706"><ele>117.5</ele><time>2026-05-01T14:58:42.002Z</time></trkpt><trkpt lat="42.2711997900274" lon="8.694708013360815"><ele>124.75</ele><time>2026-05-01T14:58:43.002Z</time></trkpt><trkpt lat="42.27113622134788" lon="8.694842384816656"><ele>132.0</ele><time>2026-05-01T14:58:44.002Z</time></trkpt><trkpt lat="42.27103608610689" lon="8.694901406775848"><ele>132.0</ele><time>2026-05-01T14:58:45.002Z</time></trkpt><trkpt lat="42.27090076452203" lon="8.694937729730103"><ele>132.0</ele><time>2026-05-01T14:58:46.002Z</time></trkpt><trkpt lat="42.27073398344463" lon="8.694930678537883"><ele>132.0</ele><time>2026-05-01T14:58:47.002Z</time></trkpt><trkpt lat="42.27056390115534" lon="8.694878939965914"><ele>126.66666666666666</ele><time>2026-05-01T14:58:48.002Z</time></trkpt><trkpt lat="42.270405358657875" lon="8.694809672730962"><ele>121.33333333333333</ele><time>2026-05-01T14:58:49.002Z</time></trkpt><trkpt lat="42.270250110659596" lon="8.694776923501262"><ele>116.0</ele><time>2026-05-01T14:58:50.002Z</time></trkpt><trkpt lat="42.27011232786893" lon="8.694764503546233"><ele>116.0</ele><time>2026-05-01T14:58:51.002Z</time></trkpt><trkpt lat="42.269976262642075" lon="8.694829845355477"><ele>116.0</ele><time>2026-05-01T14:58:52.002Z</time></trkpt><trkpt lat="42.26985394032123" lon="8.69493358109831"><ele>116.0</ele><time>2026-05-01T14:58:53.002Z</time></trkpt><trkpt lat="42.26973517960614" lon="8.695045871282755"><ele>116.0</ele><time>2026-05-01T14:58:54.002Z</time></trkpt><trkpt lat="42.269648739662635" lon="8.695187768317991"><ele>107.33333333333333</ele><time>2026-05-01T14:58:55.002Z</time></trkpt><trkpt lat="42.2696071298378" lon="8.695381902234898"><ele>98.66666666666666</ele><time>2026-05-01T14:58:56.002Z</time></trkpt><trkpt lat="42.26959396425207" lon="8.695600335873147"><ele>90.0</ele><time>2026-05-01T14:58:57.002Z</time></trkpt><trkpt lat="42.2695601533844" lon="8.69579857999615"><ele>90.0</ele><time>2026-05-01T14:58:58.002Z</time></trkpt><trkpt lat="42.26954631725117" lon="8.695984019175532"><ele>90.0</ele><time>2026-05-01T14:58:59.002Z</time></trkpt><trkpt lat="42.26946307582356" lon="8.6961180421021"><ele>90.0</ele><time>2026-05-01T14:59:00.002Z</time></trkpt><trkpt lat="42.269376415946276" lon="8.696246555154957"><ele>90.0</ele><time>2026-05-01T14:59:01.002Z</time></trkpt><trkpt lat="42.26926683487379" lon="8.696376419367233"><ele>96.0</ele><time>2026-05-01T14:59:02.002Z</time></trkpt><trkpt lat="42.26915910069612" lon="8.696536211623574"><ele>102.0</ele><time>2026-05-01T14:59:03.002Z</time></trkpt><trkpt lat="42.26905993107779" lon="8.696705971617995"><ele>108.0</ele><time>2026-05-01T14:59:04.002Z</time></trkpt><trkpt lat="42.26898842633635" lon="8.696914895975802"><ele>94.0</ele><time>2026-05-01T14:59:05.002Z</time></trkpt><trkpt lat="42.2689332186907" lon="8.697124970956875"><ele>80.0</ele><time>2026-05-01T14:59:06.002Z</time></trkpt><trkpt lat="42.26888530540364" lon="8.697322019602876"><ele>66.0</ele><time>2026-05-01T14:59:07.002Z</time></trkpt><trkpt lat="42.268850600715865" lon="8.697514741922165"><ele>66.0</ele><time>2026-05-01T14:59:08.002Z</time></trkpt><trkpt lat="42.268817697700044" lon="8.697704622986805"><ele>66.0</ele><time>2026-05-01T14:59:09.002Z</time></trkpt><trkpt lat="42.268784249763044" lon="8.69790049478211"><ele>66.0</ele><time>2026-05-01T14:59:10.002Z</time></trkpt><trkpt lat="42.26874643052374" lon="8.69808813809909"><ele>66.0</ele><time>2026-05-01T14:59:11.002Z</time></trkpt><trkpt lat="42.268683904475985" lon="8.698248320706837"><ele>68.5</ele><time>2026-05-01T14:59:12.002Z</time></trkpt><trkpt lat="42.26863219397396" lon="8.698416890490646"><ele>71.0</ele><time>2026-05-01T14:59:13.002Z</time></trkpt><trkpt lat="42.26859729101019" lon="8.698609012610007"><ele>73.5</ele><time>2026-05-01T14:59:14.003Z</time></trkpt><trkpt lat="42.26855959330417" lon="8.698822569993528"><ele>76.0</ele><time>2026-05-01T14:59:15.003Z</time></trkpt><trkpt lat="42.26853911576712" lon="8.699031589943214"><ele>78.5</ele><time>2026-05-01T14:59:16.003Z</time></trkpt><trkpt lat="42.26850843293059" lon="8.699228249170757"><ele>81.0</ele><time>2026-05-01T14:59:17.003Z</time></trkpt><trkpt lat="42.26850297906838" lon="8.699421171998184"><ele>83.5</ele><time>2026-05-01T14:59:18.003Z</time></trkpt><trkpt lat="42.268463562285795" lon="8.699599693718765"><ele>86.0</ele><time>2026-05-01T14:59:19.003Z</time></trkpt><trkpt lat="42.26842568101628" lon="8.699753146764175"><ele>88.0</ele><time>2026-05-01T14:59:20.003Z</time></trkpt><trkpt lat="42.26836536999036" lon="8.699874429292883"><ele>90.0</ele><time>2026-05-01T14:59:21.003Z</time></trkpt><trkpt lat="42.268282648743664" lon="8.699973038774681"><ele>92.0</ele><time>2026-05-01T14:59:22.003Z</time></trkpt><trkpt lat="42.268198933056745" lon="8.700080599798609"><ele>94.0</ele><time>2026-05-01T14:59:23.003Z</time></trkpt><trkpt lat="42.268123935441984" lon="8.700192939779797"><ele>96.0</ele><time>2026-05-01T14:59:24.003Z</time></trkpt><trkpt lat="42.268067720991056" lon="8.7003284227258"><ele>87.75</ele><time>2026-05-01T14:59:25.003Z</time></trkpt><trkpt lat="42.268013322318915" lon="8.70046428992314"><ele>79.5</ele><time>2026-05-01T14:59:26.003Z</time></trkpt><trkpt lat="42.26796481317774" lon="8.700622614346166"><ele>71.25</ele><time>2026-05-01T14:59:27.003Z</time></trkpt><trkpt lat="42.26792849592683" lon="8.700788302395724"><ele>63.0</ele><time>2026-05-01T14:59:28.003Z</time></trkpt><trkpt lat="42.267895740501515" lon="8.700953255521846"><ele>64.6</ele><time>2026-05-01T14:59:29.003Z</time></trkpt><trkpt lat="42.26788313291404" lon="8.701104045410231"><ele>66.19999999999999</ele><time>2026-05-01T14:59:30.003Z</time></trkpt><trkpt lat="42.2678684564819" lon="8.701236400068744"><ele>67.8</ele><time>2026-05-01T14:59:31.003Z</time></trkpt><trkpt lat="42.26785035145448" lon="8.701366323133218"><ele>69.39999999999999</ele><time>2026-05-01T14:59:32.003Z</time></trkpt><trkpt lat="42.26783343183283" lon="8.701492695532947"><ele>71.0</ele><time>2026-05-01T14:59:33.003Z</time></trkpt><trkpt lat="42.26783342886341" lon="8.70163319303329"><ele>71.0</ele><time>2026-05-01T14:59:34.003Z</time></trkpt><trkpt lat="42.26785956625794" lon="8.701779682946766"><ele>71.0</ele><time>2026-05-01T14:59:35.003Z</time></trkpt><trkpt lat="42.26788504873191" lon="8.701920181862207"><ele>71.0</ele><time>2026-05-01T14:59:36.003Z</time></trkpt><trkpt lat="42.26790026697113" lon="8.70205699274528"><ele>71.0</ele><time>2026-05-01T14:59:37.003Z</time></trkpt><trkpt lat="42.26787195802332" lon="8.70217345891886"><ele>71.0</ele><time>2026-05-01T14:59:38.003Z</time></trkpt><trkpt lat="42.26781670260707" lon="8.702266617112318"><ele>71.8</ele><time>2026-05-01T14:59:39.003Z</time></trkpt><trkpt lat="42.26771642222831" lon="8.70234288843287"><ele>72.6</ele><time>2026-05-01T14:59:40.003Z</time></trkpt><trkpt lat="42.26762813909748" lon="8.702447792083145"><ele>73.4</ele><time>2026-05-01T14:59:41.003Z</time></trkpt><trkpt lat="42.267568248031054" lon="8.702555300125487"><ele>74.2</ele><time>2026-05-01T14:59:41.998Z</time></trkpt><trkpt lat="42.26752031576513" lon="8.702681288096949"><ele>75.0</ele><time>2026-05-01T14:59:42.998Z</time></trkpt><trkpt lat="42.267494553266914" lon="8.702819591220777"><ele>76.25</ele><time>2026-05-01T14:59:43.998Z</time></trkpt><trkpt lat="42.267483422254394" lon="8.702981608545977"><ele>77.5</ele><time>2026-05-01T14:59:44.998Z</time></trkpt><trkpt lat="42.267472293208286" lon="8.703156807240909"><ele>78.75</ele><time>2026-05-01T14:59:45.998Z</time></trkpt><trkpt lat="42.26741301422156" lon="8.703317394750929"><ele>80.0</ele><time>2026-05-01T14:59:46.998Z</time></trkpt><trkpt lat="42.267345332487245" lon="8.703473297873076"><ele>82.8</ele><time>2026-05-01T14:59:47.998Z</time></trkpt><trkpt lat="42.267291306763816" lon="8.703614491715896"><ele>85.6</ele><time>2026-05-01T14:59:48.998Z</time></trkpt><trkpt lat="42.26724420650429" lon="8.703731605064293"><ele>88.4</ele><time>2026-05-01T14:59:49.998Z</time></trkpt><trkpt lat="42.2671912211416" lon="8.7038373717375"><ele>91.2</ele><time>2026-05-01T14:59:50.999Z</time></trkpt><trkpt lat="42.267136512225555" lon="8.703928715640261"><ele>94.0</ele><time>2026-05-01T14:59:51.999Z</time></trkpt><trkpt lat="42.2670628324322" lon="8.704013085718648"><ele>88.60000000000001</ele><time>2026-05-01T14:59:52.999Z</time></trkpt><trkpt lat="42.26698623325326" lon="8.704101539111607"><ele>83.2</ele><time>2026-05-01T14:59:53.999Z</time></trkpt><trkpt lat="42.26691538023541" lon="8.70418113931477"><ele>77.80000000000001</ele><time>2026-05-01T14:59:54.999Z</time></trkpt><trkpt lat="42.2668540910872" lon="8.704247579355927"><ele>72.4</ele><time>2026-05-01T14:59:55.999Z</time></trkpt><trkpt lat="42.26677383253669" lon="8.704363956314223"><ele>67.0</ele><time>2026-05-01T14:59:57.999Z</time></trkpt><trkpt lat="42.266711786726916" lon="8.704504767288036"><ele>67.0</ele><time>2026-05-01T14:59:59.999Z</time></trkpt><trkpt lat="42.266692983187184" lon="8.704598930270485"><ele>67.0</ele><time>2026-05-01T15:00:00.999Z</time></trkpt><trkpt lat="42.26667707245757" lon="8.704699365594728"><ele>67.0</ele><time>2026-05-01T15:00:01.999Z</time></trkpt><trkpt lat="42.26666015503271" lon="8.704811557564483"><ele>67.0</ele><time>2026-05-01T15:00:02.999Z</time></trkpt><trkpt lat="42.266639356649094" lon="8.704911688194315"><ele>67.0</ele><time>2026-05-01T15:00:03.999Z</time></trkpt><trkpt lat="42.26661311697389" lon="8.70500443185345"><ele>67.0</ele><time>2026-05-01T15:00:05Z</time></trkpt><trkpt lat="42.266577368545434" lon="8.705098758852786"><ele>67.0</ele><time>2026-05-01T15:00:06Z</time></trkpt><trkpt lat="42.26654065779441" lon="8.70518408237809"><ele>67.0</ele><time>2026-05-01T15:00:07Z</time></trkpt><trkpt lat="42.26647040447796" lon="8.705311507271125"><ele>67.0</ele><time>2026-05-01T15:00:09Z</time></trkpt><trkpt lat="42.2663937696144" lon="8.705424394912413"><ele>67.0</ele><time>2026-05-01T15:00:11Z</time></trkpt><trkpt lat="42.26631663625177" lon="8.705556424587547"><ele>67.0</ele><time>2026-05-01T15:00:13Z</time></trkpt><trkpt lat="42.26622799982022" lon="8.705637169503373"><ele>66.5</ele><time>2026-05-01T15:00:15Z</time></trkpt><trkpt lat="42.26620384653778" lon="8.705720946280081"><ele>66.0</ele><time>2026-05-01T15:01:06.002Z</time></trkpt><trkpt lat="42.26617698791013" lon="8.705813016503688"><ele>65.5</ele><time>2026-05-01T15:01:11.002Z</time></trkpt><trkpt lat="42.266132107337874" lon="8.705906329542133"><ele>65.0</ele><time>2026-05-01T15:01:13.002Z</time></trkpt><trkpt lat="42.26609112390814" lon="8.705971182477288"><ele>64.5</ele><time>2026-05-01T15:01:14.002Z</time></trkpt><trkpt lat="42.26605022368784" lon="8.706060910693353"><ele>64.0</ele><time>2026-05-01T15:01:15.002Z</time></trkpt><trkpt lat="42.265990161498905" lon="8.706175907598872"><ele>64.0</ele><time>2026-05-01T15:01:16.002Z</time></trkpt><trkpt lat="42.26592825674419" lon="8.706294172220236"><ele>64.0</ele><time>2026-05-01T15:01:17.002Z</time></trkpt><trkpt lat="42.26584115514486" lon="8.706401789102543"><ele>64.0</ele><time>2026-05-01T15:01:18.002Z</time></trkpt><trkpt lat="42.26575028933034" lon="8.706522055499155"><ele>64.0</ele><time>2026-05-01T15:01:19.002Z</time></trkpt><trkpt lat="42.265631654938915" lon="8.706609960458774"><ele>61.0</ele><time>2026-05-01T15:01:20.002Z</time></trkpt><trkpt lat="42.2655075429209" lon="8.70669962871535"><ele>58.0</ele><time>2026-05-01T15:01:21.002Z</time></trkpt><trkpt lat="42.265410863529645" lon="8.706851392546499"><ele>55.0</ele><time>2026-05-01T15:01:22.002Z</time></trkpt><trkpt lat="42.265315236169904" lon="8.706990796273312"><ele>52.0</ele><time>2026-05-01T15:01:23.002Z</time></trkpt><trkpt lat="42.265220373270644" lon="8.707116027546608"><ele>52.0</ele><time>2026-05-01T15:01:24.003Z</time></trkpt><trkpt lat="42.265132146682014" lon="8.70724372850321"><ele>52.0</ele><time>2026-05-01T15:01:25.003Z</time></trkpt><trkpt lat="42.26503111984337" lon="8.707358939198883"><ele>52.0</ele><time>2026-05-01T15:01:26.003Z</time></trkpt><trkpt lat="42.26492372075165" lon="8.707427091723742"><ele>52.0</ele><time>2026-05-01T15:01:27.003Z</time></trkpt><trkpt lat="42.26479935893821" lon="8.70749888115395"><ele>49.2</ele><time>2026-05-01T15:01:28.003Z</time></trkpt><trkpt lat="42.26468281589998" lon="8.707565255036279"><ele>46.400000000000006</ele><time>2026-05-01T15:01:29.003Z</time></trkpt><trkpt lat="42.26457184046296" lon="8.707624962864413"><ele>43.599999999999994</ele><time>2026-05-01T15:01:30.003Z</time></trkpt><trkpt lat="42.26447215565691" lon="8.707674232846422"><ele>40.8</ele><time>2026-05-01T15:01:31.003Z</time></trkpt><trkpt lat="42.2643902459385" lon="8.707697888126988"><ele>38.0</ele><time>2026-05-01T15:01:32.003Z</time></trkpt><trkpt lat="42.26431553102851" lon="8.707707516748103"><ele>38.0</ele><time>2026-05-01T15:01:33.003Z</time></trkpt><trkpt lat="42.264245071602204" lon="8.707720499426546"><ele>38.0</ele><time>2026-05-01T15:01:34.003Z</time></trkpt><trkpt lat="42.264176415424096" lon="8.70774116256134"><ele>38.0</ele><time>2026-05-01T15:01:35.003Z</time></trkpt><trkpt lat="42.264110225159236" lon="8.707784654211897"><ele>38.0</ele><time>2026-05-01T15:01:36.003Z</time></trkpt><trkpt lat="42.264053069077974" lon="8.70784220998553"><ele>38.0</ele><time>2026-05-01T15:01:37.003Z</time></trkpt><trkpt lat="42.26402673316613" lon="8.707929641962076"><ele>38.0</ele><time>2026-05-01T15:01:38.003Z</time></trkpt><trkpt lat="42.26397960061862" lon="8.708066880703223"><ele>39.166666666666664</ele><time>2026-05-01T15:01:40.003Z</time></trkpt><trkpt lat="42.26394381206704" lon="8.708175702176565"><ele>40.33333333333333</ele><time>2026-05-01T15:01:42.003Z</time></trkpt><trkpt lat="42.26393736154202" lon="8.70828671512952"><ele>41.5</ele><time>2026-05-01T15:01:44.003Z</time></trkpt><trkpt lat="42.26395114796151" lon="8.708379822332246"><ele>42.666666666666664</ele><time>2026-05-01T15:01:46.003Z</time></trkpt><trkpt lat="42.26398383739876" lon="8.70846634376275"><ele>43.833333333333336</ele><time>2026-05-01T15:01:47.998Z</time></trkpt><trkpt lat="42.264012747903735" lon="8.708548970015265"><ele>45.0</ele><time>2026-05-01T15:01:49.998Z</time></trkpt><trkpt lat="42.264042963746576" lon="8.70863946371774"><ele>45.0</ele><time>2026-05-01T15:01:51.998Z</time></trkpt><trkpt lat="42.26407824790757" lon="8.708720205614659"><ele>45.0</ele><time>2026-05-01T15:01:53.998Z</time></trkpt><trkpt lat="42.26410209174176" lon="8.708801376271422"><ele>45.0</ele><time>2026-05-01T15:01:55.998Z</time></trkpt><trkpt lat="42.26411907945317" lon="8.708929680993599"><ele>45.0</ele><time>2026-05-01T15:01:58.999Z</time></trkpt><trkpt lat="42.26408530549822" lon="8.709017961411465"><ele>45.0</ele><time>2026-05-01T15:02:00.999Z</time></trkpt><trkpt lat="42.26403359403038" lon="8.709091779560868"><ele>45.0</ele><time>2026-05-01T15:02:02.999Z</time></trkpt><trkpt lat="42.26396975344977" lon="8.709196285554347"><ele>42.5</ele><time>2026-05-01T15:02:04.999Z</time></trkpt><trkpt lat="42.263866349051035" lon="8.70932010485987"><ele>40.0</ele><time>2026-05-01T15:02:06.999Z</time></trkpt><trkpt lat="42.26379603553747" lon="8.709367336557372"><ele>37.5</ele><time>2026-05-01T15:02:07.999Z</time></trkpt><trkpt lat="42.26373220035778" lon="8.709376695198474"><ele>35.0</ele><time>2026-05-01T15:02:08.999Z</time></trkpt><trkpt lat="42.26366134597551" lon="8.709331288940383"><ele>32.5</ele><time>2026-05-01T15:02:09.999Z</time></trkpt><trkpt lat="42.26357372830358" lon="8.709319722609889"><ele>30.0</ele><time>2026-05-01T15:02:11Z</time></trkpt><trkpt lat="42.26347923742431" lon="8.709308891742598"><ele>30.0</ele><time>2026-05-01T15:02:12Z</time></trkpt><trkpt lat="42.263387961457255" lon="8.709325624907123"><ele>30.0</ele><time>2026-05-01T15:02:13Z</time></trkpt><trkpt lat="42.263304046091456" lon="8.709348106479958"><ele>30.0</ele><time>2026-05-01T15:02:14Z</time></trkpt><trkpt lat="42.263232615907235" lon="8.709385606385359"><ele>30.0</ele><time>2026-05-01T15:02:15Z</time></trkpt><trkpt lat="42.26316937645388" lon="8.70943583902629"><ele>30.0</ele><time>2026-05-01T15:02:16Z</time></trkpt><trkpt lat="42.26311097573759" lon="8.709484089686566"><ele>30.0</ele><time>2026-05-01T15:02:17Z</time></trkpt><trkpt lat="42.262996165103246" lon="8.709572355538173"><ele>30.5</ele><time>2026-05-01T15:02:19Z</time></trkpt><trkpt lat="42.26292465351299" lon="8.70961745856503"><ele>31.0</ele><time>2026-05-01T15:02:20Z</time></trkpt><trkpt lat="42.262842702671485" lon="8.709666586311252"><ele>31.5</ele><time>2026-05-01T15:02:21Z</time></trkpt><trkpt lat="42.262759012120725" lon="8.709721578957339"><ele>32.0</ele><time>2026-05-01T15:02:22Z</time></trkpt><trkpt lat="42.26268145046309" lon="8.709781227334618"><ele>32.5</ele><time>2026-05-01T15:02:23Z</time></trkpt><trkpt lat="42.26260430545142" lon="8.709831385034214"><ele>33.0</ele><time>2026-05-01T15:02:24Z</time></trkpt><trkpt lat="42.26253968876874" lon="8.709874966668625"><ele>33.0</ele><time>2026-05-01T15:02:25Z</time></trkpt><trkpt lat="42.262476300031366" lon="8.709914898174036"><ele>33.0</ele><time>2026-05-01T15:02:26Z</time></trkpt><trkpt lat="42.26241921701404" lon="8.709951601682597"><ele>33.0</ele><time>2026-05-01T15:02:27Z</time></trkpt><trkpt lat="42.26231271340712" lon="8.709998068711538"><ele>33.0</ele><time>2026-05-01T15:02:29.001Z</time></trkpt><trkpt lat="42.262218325675825" lon="8.709984199092451"><ele>33.0</ele><time>2026-05-01T15:02:31.001Z</time></trkpt><trkpt lat="42.2621460163717" lon="8.709974213161745"><ele>33.0</ele><time>2026-05-01T15:02:33.001Z</time></trkpt><trkpt lat="42.26207904880849" lon="8.709916678949195"><ele>33.6</ele><time>2026-05-01T15:02:35.001Z</time></trkpt><trkpt lat="42.262011452771226" lon="8.7098233474067"><ele>34.199999999999996</ele><time>2026-05-01T15:02:37.001Z</time></trkpt><trkpt lat="42.26194996310405" lon="8.70971107250684"><ele>34.8</ele><time>2026-05-01T15:02:39.001Z</time></trkpt><trkpt lat="42.26188011799202" lon="8.709591727371597"><ele>35.4</ele><time>2026-05-01T15:02:41.001Z</time></trkpt><trkpt lat="42.261813925840734" lon="8.709468051997035"><ele>36.0</ele><time>2026-05-01T15:02:43.001Z</time></trkpt><trkpt lat="42.26176923562187" lon="8.709376284107332"><ele>36.0</ele><time>2026-05-01T15:02:45.001Z</time></trkpt><trkpt lat="42.261755122847426" lon="8.709272673555894"><ele>36.0</ele><time>2026-05-01T15:04:08.999Z</time></trkpt><trkpt lat="42.261785703796626" lon="8.709131104529831"><ele>36.0</ele><time>2026-05-01T15:04:12.999Z</time></trkpt><trkpt lat="42.261884252040176" lon="8.709074638336782"><ele>36.0</ele><time>2026-05-01T15:04:14.999Z</time></trkpt><trkpt lat="42.261934026048166" lon="8.709005568672842"><ele>36.0</ele><time>2026-05-01T15:04:15.999Z</time></trkpt><trkpt lat="42.262022804748725" lon="8.708967972549797"><ele>36.0</ele><time>2026-05-01T15:04:17Z</time></trkpt><trkpt lat="42.26211087113398" lon="8.708930623592211"><ele>36.0</ele><time>2026-05-01T15:04:18Z</time></trkpt><trkpt lat="42.26220837432115" lon="8.708901173869576"><ele>36.0</ele><time>2026-05-01T15:04:19Z</time></trkpt><trkpt lat="42.262311204756834" lon="8.708846145021194"><ele>36.0</ele><time>2026-05-01T15:04:20Z</time></trkpt><trkpt lat="42.26238267251985" lon="8.708734204865006"><ele>36.0</ele><time>2026-05-01T15:04:21Z</time></trkpt><trkpt lat="42.262438670879426" lon="8.708603951246804"><ele>34.5</ele><time>2026-05-01T15:04:22Z</time></trkpt><trkpt lat="42.2624695296462" lon="8.708443989672274"><ele>33.0</ele><time>2026-05-01T15:04:23Z</time></trkpt><trkpt lat="42.26248318271896" lon="8.708271164076873"><ele>31.5</ele><time>2026-05-01T15:04:24Z</time></trkpt><trkpt lat="42.26249017172136" lon="8.70811066488215"><ele>30.0</ele><time>2026-05-01T15:04:25Z</time></trkpt><trkpt lat="42.2624814351729" lon="8.707965415251431"><ele>30.0</ele><time>2026-05-01T15:04:26Z</time></trkpt><trkpt lat="42.262426479037565" lon="8.707868860048729"><ele>30.0</ele><time>2026-05-01T15:04:27Z</time></trkpt><trkpt lat="42.262344556177496" lon="8.707817974220534"><ele>30.0</ele><time>2026-05-01T15:04:28Z</time></trkpt><trkpt lat="42.262243789265646" lon="8.707827937081092"><ele>30.0</ele><time>2026-05-01T15:04:29Z</time></trkpt><trkpt lat="42.262136081013296" lon="8.70787978309854"><ele>30.0</ele><time>2026-05-01T15:04:30Z</time></trkpt><trkpt lat="42.262009246187596" lon="8.707934984838285"><ele>33.2</ele><time>2026-05-01T15:04:31Z</time></trkpt><trkpt lat="42.261903048194554" lon="8.707960576623496"><ele>36.4</ele><time>2026-05-01T15:04:32Z</time></trkpt><trkpt lat="42.26179251868838" lon="8.70792590138319"><ele>39.599999999999994</ele><time>2026-05-01T15:04:33Z</time></trkpt><trkpt lat="42.26171413890187" lon="8.707863706652892"><ele>42.8</ele><time>2026-05-01T15:04:34.001Z</time></trkpt><trkpt lat="42.2617093942526" lon="8.707736434107389"><ele>46.0</ele><time>2026-05-01T15:04:35.001Z</time></trkpt><trkpt lat="42.2617205182895" lon="8.707612566739076"><ele>46.599999999999994</ele><time>2026-05-01T15:04:36.001Z</time></trkpt><trkpt lat="42.26175073394032" lon="8.707498849130527"><ele>47.2</ele><time>2026-05-01T15:04:37.001Z</time></trkpt><trkpt lat="42.261848347764214" lon="8.707438523559723"><ele>47.8</ele><time>2026-05-01T15:04:38.001Z</time></trkpt><trkpt lat="42.261970071288374" lon="8.707413417680787"><ele>48.400000000000006</ele><time>2026-05-01T15:04:39.001Z</time></trkpt><trkpt lat="42.262084380168325" lon="8.707354947587277"><ele>49.0</ele><time>2026-05-01T15:04:40.001Z</time></trkpt><trkpt lat="42.26219520239713" lon="8.707241646596653"><ele>49.5</ele><time>2026-05-01T15:04:41.001Z</time></trkpt><trkpt lat="42.26231217799274" lon="8.70712228902223"><ele>50.0</ele><time>2026-05-01T15:04:42.001Z</time></trkpt><trkpt lat="42.262435905062894" lon="8.707002907571875"><ele>50.5</ele><time>2026-05-01T15:04:43.001Z</time></trkpt><trkpt lat="42.26254360767708" lon="8.706878127176227"><ele>51.0</ele><time>2026-05-01T15:04:44.001Z</time></trkpt><trkpt lat="42.26262039606083" lon="8.706736791880136"><ele>51.0</ele><time>2026-05-01T15:04:45.001Z</time></trkpt><trkpt lat="42.26266324844414" lon="8.7065536101383"><ele>51.0</ele><time>2026-05-01T15:04:46.001Z</time></trkpt><trkpt lat="42.262696924803784" lon="8.706340271865287"><ele>51.0</ele><time>2026-05-01T15:04:47.001Z</time></trkpt><trkpt lat="42.26277368654338" lon="8.706125106724366"><ele>60.33333333333333</ele><time>2026-05-01T15:04:48.001Z</time></trkpt><trkpt lat="42.262865630727624" lon="8.70593599281024"><ele>69.66666666666666</ele><time>2026-05-01T15:04:49.001Z</time></trkpt><trkpt lat="42.26294271397723" lon="8.705712305322866"><ele>79.0</ele><time>2026-05-01T15:04:50.001Z</time></trkpt><trkpt lat="42.263013348025794" lon="8.705489889968433"><ele>79.0</ele><time>2026-05-01T15:04:51.001Z</time></trkpt><trkpt lat="42.263072711549235" lon="8.705264241256788"><ele>79.0</ele><time>2026-05-01T15:04:52.001Z</time></trkpt><trkpt lat="42.26313770198284" lon="8.705083732711795"><ele>79.0</ele><time>2026-05-01T15:04:53.001Z</time></trkpt><trkpt lat="42.26317973428745" lon="8.704908960428606"><ele>70.8</ele><time>2026-05-01T15:04:54.001Z</time></trkpt><trkpt lat="42.26323361456978" lon="8.704774296113113"><ele>62.60000000000001</ele><time>2026-05-01T15:04:55.001Z</time></trkpt><trkpt lat="42.26326918026118" lon="8.704669997346347"><ele>54.4</ele><time>2026-05-01T15:04:56.001Z</time></trkpt><trkpt lat="42.26331641602253" lon="8.704558141739755"><ele>46.2</ele><time>2026-05-01T15:04:58.001Z</time></trkpt><trkpt lat="42.26329700264121" lon="8.704441039088687"><ele>38.0</ele><time>2026-05-01T15:05:01.002Z</time></trkpt><trkpt lat="42.26325967864744" lon="8.704343342202401"><ele>38.0</ele><time>2026-05-01T15:05:47.003Z</time></trkpt><trkpt lat="42.263181445365596" lon="8.7042680412642"><ele>38.0</ele><time>2026-05-01T15:05:49.003Z</time></trkpt><trkpt lat="42.26312033094496" lon="8.704224039767448"><ele>38.0</ele><time>2026-05-01T15:05:50.003Z</time></trkpt><trkpt lat="42.263053527574236" lon="8.704181933490071"><ele>38.0</ele><time>2026-05-01T15:05:51.003Z</time></trkpt><trkpt lat="42.26297794459856" lon="8.704142786422343"><ele>38.0</ele><time>2026-05-01T15:05:52.003Z</time></trkpt><trkpt lat="42.262889262360595" lon="8.70410571228875"><ele>38.0</ele><time>2026-05-01T15:05:53.003Z</time></trkpt><trkpt lat="42.262788330120415" lon="8.704058093813748"><ele>46.5</ele><time>2026-05-01T15:05:54.003Z</time></trkpt><trkpt lat="42.262684731690705" lon="8.703984145491379"><ele>55.0</ele><time>2026-05-01T15:05:55.003Z</time></trkpt><trkpt lat="42.262585806406136" lon="8.703884029925913"><ele>63.5</ele><time>2026-05-01T15:05:56.003Z</time></trkpt><trkpt lat="42.26248578835397" lon="8.703764930043306"><ele>72.0</ele><time>2026-05-01T15:05:57.003Z</time></trkpt><trkpt lat="42.26239548788865" lon="8.703643845573772"><ele>68.25</ele><time>2026-05-01T15:05:58.003Z</time></trkpt><trkpt lat="42.26232582496709" lon="8.703518616659396"><ele>64.5</ele><time>2026-05-01T15:05:59.003Z</time></trkpt><trkpt lat="42.26228109727766" lon="8.703358218761831"><ele>60.75</ele><time>2026-05-01T15:05:59.998Z</time></trkpt><trkpt lat="42.26227568128013" lon="8.703197517418861"><ele>57.0</ele><time>2026-05-01T15:06:00.998Z</time></trkpt><trkpt lat="42.262298093334884" lon="8.703046446916094"><ele>57.0</ele><time>2026-05-01T15:06:01.998Z</time></trkpt><trkpt lat="42.26233925602111" lon="8.702888614356807"><ele>57.0</ele><time>2026-05-01T15:06:02.998Z</time></trkpt><trkpt lat="42.262396870500325" lon="8.702724422577369"><ele>57.0</ele><time>2026-05-01T15:06:03.998Z</time></trkpt><trkpt lat="42.26246518563911" lon="8.702532664366773"><ele>57.0</ele><time>2026-05-01T15:06:04.998Z</time></trkpt><trkpt lat="42.2625388822826" lon="8.702340342293226"><ele>58.25</ele><time>2026-05-01T15:06:05.999Z</time></trkpt><trkpt lat="42.262592621282245" lon="8.702153032877122"><ele>59.5</ele><time>2026-05-01T15:06:06.999Z</time></trkpt><trkpt lat="42.26264234143507" lon="8.70199091253188"><ele>60.75</ele><time>2026-05-01T15:06:07.999Z</time></trkpt><trkpt lat="42.262666952035154" lon="8.701841664612818"><ele>62.0</ele><time>2026-05-01T15:06:08.999Z</time></trkpt><trkpt lat="42.26266820210113" lon="8.701684758937905"><ele>63.5</ele><time>2026-05-01T15:06:09.999Z</time></trkpt><trkpt lat="42.26261772117288" lon="8.7015271071115"><ele>65.0</ele><time>2026-05-01T15:06:10.999Z</time></trkpt><trkpt lat="42.262534002116624" lon="8.701374244509012"><ele>66.5</ele><time>2026-05-01T15:06:11.999Z</time></trkpt><trkpt lat="42.26245955929606" lon="8.701222436711626"><ele>68.0</ele><time>2026-05-01T15:06:12.999Z</time></trkpt><trkpt lat="42.26242688932552" lon="8.701041319592637"><ele>68.0</ele><time>2026-05-01T15:06:13.999Z</time></trkpt><trkpt lat="42.2624724058383" lon="8.700853824323588"><ele>68.0</ele><time>2026-05-01T15:06:14.999Z</time></trkpt><trkpt lat="42.262480929906125" lon="8.700646024347568"><ele>68.0</ele><time>2026-05-01T15:06:15.999Z</time></trkpt><trkpt lat="42.26250522332053" lon="8.700431753864693"><ele>69.66666666666667</ele><time>2026-05-01T15:06:16.999Z</time></trkpt><trkpt lat="42.26252412232743" lon="8.700205507017138"><ele>71.33333333333333</ele><time>2026-05-01T15:06:17.999Z</time></trkpt><trkpt lat="42.26253593494368" lon="8.699951330747847"><ele>73.0</ele><time>2026-05-01T15:06:18.999Z</time></trkpt><trkpt lat="42.26254458261806" lon="8.699696513544339"><ele>73.0</ele><time>2026-05-01T15:06:19.999Z</time></trkpt><trkpt lat="42.26254095402295" lon="8.699443682217064"><ele>73.0</ele><time>2026-05-01T15:06:21Z</time></trkpt><trkpt lat="42.262524030540376" lon="8.699187729904672"><ele>73.0</ele><time>2026-05-01T15:06:22Z</time></trkpt><trkpt lat="42.262502949475255" lon="8.698916744713246"><ele>74.0</ele><time>2026-05-01T15:06:23Z</time></trkpt><trkpt lat="42.26248808555172" lon="8.698653353668018"><ele>75.0</ele><time>2026-05-01T15:06:24Z</time></trkpt><trkpt lat="42.26247842847884" lon="8.698403981849728"><ele>76.0</ele><time>2026-05-01T15:06:25Z</time></trkpt><trkpt lat="42.26248074942783" lon="8.698183309514691"><ele>76.0</ele><time>2026-05-01T15:06:26Z</time></trkpt><trkpt lat="42.262487648800345" lon="8.697966374898629"><ele>76.0</ele><time>2026-05-01T15:06:27Z</time></trkpt><trkpt lat="42.26250810711218" lon="8.697740515329862"><ele>76.0</ele><time>2026-05-01T15:06:28Z</time></trkpt><trkpt lat="42.26253160035898" lon="8.69751655126884"><ele>79.0</ele><time>2026-05-01T15:06:29Z</time></trkpt><trkpt lat="42.26256214951669" lon="8.69731189356522"><ele>82.0</ele><time>2026-05-01T15:06:30Z</time></trkpt><trkpt lat="42.26261359376993" lon="8.697108533702584"><ele>85.0</ele><time>2026-05-01T15:06:31Z</time></trkpt><trkpt lat="42.26269266438176" lon="8.696947978124674"><ele>86.75</ele><time>2026-05-01T15:06:32Z</time></trkpt><trkpt lat="42.26274994012222" lon="8.69679973516018"><ele>88.5</ele><time>2026-05-01T15:06:33Z</time></trkpt><trkpt lat="42.262754074389505" lon="8.696643041181751"><ele>90.25</ele><time>2026-05-01T15:06:34Z</time></trkpt><trkpt lat="42.262706861881085" lon="8.696494862554648"><ele>92.0</ele><time>2026-05-01T15:06:35Z</time></trkpt><trkpt lat="42.262631755920985" lon="8.696347658667936"><ele>92.0</ele><time>2026-05-01T15:06:36Z</time></trkpt><trkpt lat="42.26255849955821" lon="8.696184076148233"><ele>92.0</ele><time>2026-05-01T15:06:37Z</time></trkpt><trkpt lat="42.26253416710699" lon="8.696022161748818"><ele>92.0</ele><time>2026-05-01T15:06:38Z</time></trkpt><trkpt lat="42.26257611943987" lon="8.695870023706357"><ele>92.0</ele><time>2026-05-01T15:06:39Z</time></trkpt><trkpt lat="42.26255766384805" lon="8.695730791847273"><ele>90.0</ele><time>2026-05-01T15:06:40.001Z</time></trkpt><trkpt lat="42.26249313039013" lon="8.695585577107147"><ele>88.0</ele><time>2026-05-01T15:06:41.001Z</time></trkpt><trkpt lat="42.262401279616434" lon="8.695448185505425"><ele>86.0</ele><time>2026-05-01T15:06:42.001Z</time></trkpt><trkpt lat="42.26230727618249" lon="8.695316200721958"><ele>84.0</ele><time>2026-05-01T15:06:43.001Z</time></trkpt><trkpt lat="42.2621934196799" lon="8.695198887345105"><ele>82.2</ele><time>2026-05-01T15:06:44.001Z</time></trkpt><trkpt lat="42.262116816204305" lon="8.695060570660559"><ele>80.4</ele><time>2026-05-01T15:06:45.001Z</time></trkpt><trkpt lat="42.26207757406479" lon="8.69493204475589"><ele>78.6</ele><time>2026-05-01T15:06:46.001Z</time></trkpt><trkpt lat="42.26209070887638" lon="8.69481455874455"><ele>76.8</ele><time>2026-05-01T15:06:47.001Z</time></trkpt><trkpt lat="42.26218309039043" lon="8.694689513800167"><ele>75.0</ele><time>2026-05-01T15:06:48.001Z</time></trkpt><trkpt lat="42.2623222703607" lon="8.69459221625616"><ele>75.0</ele><time>2026-05-01T15:06:49.001Z</time></trkpt><trkpt lat="42.26247723343985" lon="8.694534127047714"><ele>75.0</ele><time>2026-05-01T15:06:50.001Z</time></trkpt><trkpt lat="42.26261010430982" lon="8.694455349831523"><ele>75.0</ele><time>2026-05-01T15:06:51.001Z</time></trkpt><trkpt lat="42.26269758172893" lon="8.694345692167598"><ele>75.0</ele><time>2026-05-01T15:06:52.001Z</time></trkpt><trkpt lat="42.2627390451743" lon="8.694207174803394"><ele>80.0</ele><time>2026-05-01T15:06:53.001Z</time></trkpt><trkpt lat="42.26272651994127" lon="8.694040885432646"><ele>85.0</ele><time>2026-05-01T15:06:54.001Z</time></trkpt><trkpt lat="42.26269714998659" lon="8.693854205405906"><ele>90.0</ele><time>2026-05-01T15:06:55.001Z</time></trkpt><trkpt lat="42.26265298257656" lon="8.69365535794048"><ele>95.0</ele><time>2026-05-01T15:06:56.001Z</time></trkpt><trkpt lat="42.262611215832784" lon="8.693438736355473"><ele>97.0</ele><time>2026-05-01T15:06:57.001Z</time></trkpt><trkpt lat="42.262572292430406" lon="8.693218416476924"><ele>99.0</ele><time>2026-05-01T15:06:58.001Z</time></trkpt><trkpt lat="42.2625464984146" lon="8.693021319205455"><ele>101.0</ele><time>2026-05-01T15:06:59.001Z</time></trkpt><trkpt lat="42.26258308297073" lon="8.692855013638782"><ele>103.0</ele><time>2026-05-01T15:07:00.001Z</time></trkpt><trkpt lat="42.26266170707342" lon="8.69273119188654"><ele>105.33333333333334</ele><time>2026-05-01T15:07:01.001Z</time></trkpt><trkpt lat="42.26277187936804" lon="8.6925974162744"><ele>107.66666666666666</ele><time>2026-05-01T15:07:02.001Z</time></trkpt><trkpt lat="42.2628621289962" lon="8.692427259435616"><ele>110.0</ele><time>2026-05-01T15:07:03.001Z</time></trkpt><trkpt lat="42.262923246587704" lon="8.692217290839286"><ele>110.0</ele><time>2026-05-01T15:07:04.001Z</time></trkpt><trkpt lat="42.26294471282857" lon="8.691975820895095"><ele>110.0</ele><time>2026-05-01T15:07:05.001Z</time></trkpt><trkpt lat="42.262955420619676" lon="8.691737130291607"><ele>110.0</ele><time>2026-05-01T15:07:06.001Z</time></trkpt><trkpt lat="42.26296530850833" lon="8.691515989535862"><ele>109.25</ele><time>2026-05-01T15:07:07.001Z</time></trkpt><trkpt lat="42.262984477559456" lon="8.691328602333476"><ele>108.5</ele><time>2026-05-01T15:07:08.001Z</time></trkpt><trkpt lat="42.262987122497655" lon="8.691135388094235"><ele>107.75</ele><time>2026-05-01T15:07:09.002Z</time></trkpt><trkpt lat="42.26295372236883" lon="8.690963521739347"><ele>107.0</ele><time>2026-05-01T15:07:10.002Z</time></trkpt><trkpt lat="42.26288678910445" lon="8.690809486792341"><ele>107.0</ele><time>2026-05-01T15:07:11.002Z</time></trkpt><trkpt lat="42.26278247420333" lon="8.690665849357208"><ele>107.0</ele><time>2026-05-01T15:07:12.002Z</time></trkpt><trkpt lat="42.26267452827206" lon="8.690529934986454"><ele>107.0</ele><time>2026-05-01T15:07:13.002Z</time></trkpt><trkpt lat="42.262584867891384" lon="8.690411823756676"><ele>107.0</ele><time>2026-05-01T15:07:14.002Z</time></trkpt><trkpt lat="42.262498308173434" lon="8.690320509623216"><ele>107.0</ele><time>2026-05-01T15:07:15.002Z</time></trkpt><trkpt lat="42.26239702791396" lon="8.690280459210527"><ele>106.99999999999999</ele><time>2026-05-01T15:07:16.002Z</time></trkpt><trkpt lat="42.26228130066616" lon="8.690290639260219"><ele>106.99999999999999</ele><time>2026-05-01T15:07:17.002Z</time></trkpt><trkpt lat="42.26216855616199" lon="8.6903229439694"><ele>107.0</ele><time>2026-05-01T15:07:18.002Z</time></trkpt><trkpt lat="42.262070674872" lon="8.690378037686692"><ele>107.0</ele><time>2026-05-01T15:07:19.002Z</time></trkpt><trkpt lat="42.261982891368916" lon="8.69047998746255"><ele>108.0</ele><time>2026-05-01T15:07:20.002Z</time></trkpt><trkpt lat="42.26188592928256" lon="8.690591769045866"><ele>109.0</ele><time>2026-05-01T15:07:21.002Z</time></trkpt><trkpt lat="42.26177484029968" lon="8.69067434625917"><ele>110.0</ele><time>2026-05-01T15:07:22.002Z</time></trkpt><trkpt lat="42.261654866841496" lon="8.690704141521442"><ele>111.0</ele><time>2026-05-01T15:07:23.002Z</time></trkpt><trkpt lat="42.261522599462644" lon="8.690674158032555"><ele>118.25</ele><time>2026-05-01T15:07:24.002Z</time></trkpt><trkpt lat="42.261368782336476" lon="8.690651538248376"><ele>125.5</ele><time>2026-05-01T15:07:25.002Z</time></trkpt><trkpt lat="42.2612361025207" lon="8.690616629355262"><ele>132.75</ele><time>2026-05-01T15:07:26.002Z</time></trkpt><trkpt lat="42.261130402482586" lon="8.69053520351537"><ele>140.0</ele><time>2026-05-01T15:07:27.002Z</time></trkpt><trkpt lat="42.26103972648186" lon="8.690417283948895"><ele>140.0</ele><time>2026-05-01T15:07:28.002Z</time></trkpt><trkpt lat="42.26095055884321" lon="8.690260285263864"><ele>140.0</ele><time>2026-05-01T15:07:29.002Z</time></trkpt><trkpt lat="42.260869175255586" lon="8.690074546966425"><ele>140.0</ele><time>2026-05-01T15:07:30.002Z</time></trkpt><trkpt lat="42.26077101978672" lon="8.689877047734582"><ele>135.66666666666666</ele><time>2026-05-01T15:07:31.002Z</time></trkpt><trkpt lat="42.260692658884224" lon="8.689665576556449"><ele>131.33333333333334</ele><time>2026-05-01T15:07:32.002Z</time></trkpt><trkpt lat="42.26062600028472" lon="8.689472733540006"><ele>127.0</ele><time>2026-05-01T15:07:33.002Z</time></trkpt><trkpt lat="42.26055981054818" lon="8.689303205211758"><ele>127.0</ele><time>2026-05-01T15:07:34.002Z</time></trkpt><trkpt lat="42.26049087318002" lon="8.689176931053593"><ele>126.99999999999999</ele><time>2026-05-01T15:07:35.002Z</time></trkpt><trkpt lat="42.26039083832113" lon="8.689106530994136"><ele>126.99999999999999</ele><time>2026-05-01T15:07:36.002Z</time></trkpt><trkpt lat="42.26027626002698" lon="8.689103034147626"><ele>127.0</ele><time>2026-05-01T15:07:37.002Z</time></trkpt><trkpt lat="42.26018143723761" lon="8.689067908782608"><ele>127.0</ele><time>2026-05-01T15:07:38.002Z</time></trkpt><trkpt lat="42.26011004264362" lon="8.689010595045927"><ele>127.0</ele><time>2026-05-01T15:07:39.002Z</time></trkpt><trkpt lat="42.26007147759937" lon="8.688909659230594"><ele>126.99999999999999</ele><time>2026-05-01T15:07:40.002Z</time></trkpt><trkpt lat="42.26006646458964" lon="8.688807390139493"><ele>126.99999999999999</ele><time>2026-05-01T15:07:41.003Z</time></trkpt><trkpt lat="42.26011600021123" lon="8.688695078522644"><ele>127.0</ele><time>2026-05-01T15:07:42.003Z</time></trkpt><trkpt lat="42.26021318871038" lon="8.68859307808662"><ele>127.0</ele><time>2026-05-01T15:07:43.003Z</time></trkpt><trkpt lat="42.26030744470833" lon="8.688449965018835"><ele>121.66666666666667</ele><time>2026-05-01T15:07:44.003Z</time></trkpt><trkpt lat="42.26040212833615" lon="8.688290330342525"><ele>116.33333333333334</ele><time>2026-05-01T15:07:45.003Z</time></trkpt><trkpt lat="42.26051733987208" lon="8.688144840367022"><ele>111.0</ele><time>2026-05-01T15:07:46.003Z</time></trkpt><trkpt lat="42.26065978878998" lon="8.688065694336311"><ele>111.0</ele><time>2026-05-01T15:07:47.003Z</time></trkpt><trkpt lat="42.26078053567223" lon="8.687958342138133"><ele>111.0</ele><time>2026-05-01T15:07:48.003Z</time></trkpt><trkpt lat="42.26085856674373" lon="8.687868013053752"><ele>111.0</ele><time>2026-05-01T15:07:49.003Z</time></trkpt><trkpt lat="42.26087600727912" lon="8.687753318671382"><ele>111.0</ele><time>2026-05-01T15:07:50.003Z</time></trkpt><trkpt lat="42.260861982342874" lon="8.687636754513939"><ele>111.0</ele><time>2026-05-01T15:07:51.003Z</time></trkpt><trkpt lat="42.260802341244414" lon="8.68754357982195"><ele>114.0</ele><time>2026-05-01T15:07:52.003Z</time></trkpt><trkpt lat="42.26075464688878" lon="8.687423803397742"><ele>117.0</ele><time>2026-05-01T15:07:53.003Z</time></trkpt><trkpt lat="42.26071698824713" lon="8.687283576244553"><ele>120.0</ele><time>2026-05-01T15:07:54.003Z</time></trkpt><trkpt lat="42.26069880730698" lon="8.687159386861945"><ele>123.0</ele><time>2026-05-01T15:07:55.003Z</time></trkpt><trkpt lat="42.260714478314036" lon="8.687039855344771"><ele>126.0</ele><time>2026-05-01T15:07:56.003Z</time></trkpt><trkpt lat="42.260810323319504" lon="8.686975503453134"><ele>127.5</ele><time>2026-05-01T15:07:57.003Z</time></trkpt><trkpt lat="42.26088481032094" lon="8.686871676573364"><ele>129.0</ele><time>2026-05-01T15:07:58.003Z</time></trkpt><trkpt lat="42.26095655818415" lon="8.686762884107113"><ele>130.5</ele><time>2026-05-01T15:07:59.003Z</time></trkpt><trkpt lat="42.260980502975734" lon="8.686590303716418"><ele>132.0</ele><time>2026-05-01T15:08:00.003Z</time></trkpt><trkpt lat="42.26097638076555" lon="8.686390163602107"><ele>132.0</ele><time>2026-05-01T15:08:01.003Z</time></trkpt><trkpt lat="42.26098745934445" lon="8.686181879402254"><ele>132.0</ele><time>2026-05-01T15:08:02.003Z</time></trkpt><trkpt lat="42.261052234400495" lon="8.685965058368403"><ele>132.0</ele><time>2026-05-01T15:08:03.003Z</time></trkpt><trkpt lat="42.261074444814824" lon="8.685742821677914"><ele>137.66666666666666</ele><time>2026-05-01T15:08:04.003Z</time></trkpt><trkpt lat="42.26112857923864" lon="8.68552592858598"><ele>143.33333333333331</ele><time>2026-05-01T15:08:05.003Z</time></trkpt><trkpt lat="42.26116068108922" lon="8.685322557867952"><ele>149.0</ele><time>2026-05-01T15:08:05.997Z</time></trkpt><trkpt lat="42.2611654659524" lon="8.685117249177086"><ele>150.66666666666666</ele><time>2026-05-01T15:08:06.997Z</time></trkpt><trkpt lat="42.26112735307353" lon="8.684902240307824"><ele>152.33333333333334</ele><time>2026-05-01T15:08:07.997Z</time></trkpt><trkpt lat="42.26112977100843" lon="8.684670063428976"><ele>154.0</ele><time>2026-05-01T15:08:08.997Z</time></trkpt><trkpt lat="42.261128240083906" lon="8.684433608777468"><ele>154.33333333333334</ele><time>2026-05-01T15:08:09.997Z</time></trkpt><trkpt lat="42.261146308933796" lon="8.684188320725246"><ele>154.66666666666666</ele><time>2026-05-01T15:08:10.997Z</time></trkpt><trkpt lat="42.26115474878849" lon="8.683942120527144"><ele>155.0</ele><time>2026-05-01T15:08:11.998Z</time></trkpt><trkpt lat="42.261139533061545" lon="8.683725126668762"><ele>153.5</ele><time>2026-05-01T15:08:12.998Z</time></trkpt><trkpt lat="42.261091803073946" lon="8.683534451352523"><ele>152.0</ele><time>2026-05-01T15:08:13.998Z</time></trkpt><trkpt lat="42.2610161366034" lon="8.683373230511965"><ele>150.5</ele><time>2026-05-01T15:08:14.998Z</time></trkpt><trkpt lat="42.26093616575813" lon="8.683230292948958"><ele>149.0</ele><time>2026-05-01T15:08:15.998Z</time></trkpt><trkpt lat="42.26089287035003" lon="8.683081608020894"><ele>149.0</ele><time>2026-05-01T15:08:16.998Z</time></trkpt><trkpt lat="42.260844698504194" lon="8.682927673058114"><ele>149.0</ele><time>2026-05-01T15:08:17.998Z</time></trkpt><trkpt lat="42.260827247266334" lon="8.682776960519579"><ele>149.0</ele><time>2026-05-01T15:08:18.998Z</time></trkpt><trkpt lat="42.26090380055469" lon="8.682616513532812"><ele>149.0</ele><time>2026-05-01T15:08:19.998Z</time></trkpt><trkpt lat="42.26092823065912" lon="8.682443429101799"><ele>146.2</ele><time>2026-05-01T15:08:20.999Z</time></trkpt><trkpt lat="42.2609331250856" lon="8.682326198623075"><ele>143.4</ele><time>2026-05-01T15:08:21.999Z</time></trkpt><trkpt lat="42.260872443246136" lon="8.682234927070194"><ele>140.6</ele><time>2026-05-01T15:08:22.999Z</time></trkpt><trkpt lat="42.26078491762863" lon="8.68219636433239"><ele>137.8</ele><time>2026-05-01T15:08:23.999Z</time></trkpt><trkpt lat="42.26068966175471" lon="8.682176470808484"><ele>135.0</ele><time>2026-05-01T15:08:24.999Z</time></trkpt><trkpt lat="42.26059730825377" lon="8.682128125341723"><ele>142.2</ele><time>2026-05-01T15:08:25.999Z</time></trkpt><trkpt lat="42.26051857884394" lon="8.682043509704293"><ele>149.4</ele><time>2026-05-01T15:08:27.999Z</time></trkpt><trkpt lat="42.260449771222014" lon="8.681878755343309"><ele>156.60000000000002</ele><time>2026-05-01T15:08:29.999Z</time></trkpt><trkpt lat="42.2604477754614" lon="8.681748555226312"><ele>163.8</ele><time>2026-05-01T15:08:31Z</time></trkpt><trkpt lat="42.260430817999485" lon="8.681613734577677"><ele>171.0</ele><time>2026-05-01T15:08:32Z</time></trkpt><trkpt lat="42.26041199661024" lon="8.681469594530835"><ele>171.0</ele><time>2026-05-01T15:08:33Z</time></trkpt><trkpt lat="42.260392082211865" lon="8.6813089335052"><ele>171.0</ele><time>2026-05-01T15:08:34Z</time></trkpt><trkpt lat="42.260350823994074" lon="8.681116400128346"><ele>171.0</ele><time>2026-05-01T15:08:35Z</time></trkpt><trkpt lat="42.26031605401566" lon="8.68091465695503"><ele>171.0</ele><time>2026-05-01T15:08:36Z</time></trkpt><trkpt lat="42.26025520407309" lon="8.680719610320159"><ele>165.0</ele><time>2026-05-01T15:08:37Z</time></trkpt><trkpt lat="42.26014002773889" lon="8.680550221328984"><ele>159.0</ele><time>2026-05-01T15:08:38Z</time></trkpt><trkpt lat="42.259994889302085" lon="8.680382345650953"><ele>153.0</ele><time>2026-05-01T15:08:39Z</time></trkpt><trkpt lat="42.259862517221435" lon="8.68018849023975"><ele>157.0</ele><time>2026-05-01T15:08:40Z</time></trkpt><trkpt lat="42.259740664827596" lon="8.679964304509008"><ele>161.0</ele><time>2026-05-01T15:08:41Z</time></trkpt><trkpt lat="42.25965937411572" lon="8.679691413551236"><ele>165.0</ele><time>2026-05-01T15:08:42Z</time></trkpt><trkpt lat="42.25955958698027" lon="8.679419876009463"><ele>165.0</ele><time>2026-05-01T15:08:43Z</time></trkpt><trkpt lat="42.25944951888103" lon="8.679140024395078"><ele>165.0</ele><time>2026-05-01T15:08:44Z</time></trkpt><trkpt lat="42.259353432278076" lon="8.678841174381658"><ele>161.0</ele><time>2026-05-01T15:08:45Z</time></trkpt><trkpt lat="42.25924902394214" lon="8.678543426870016"><ele>157.0</ele><time>2026-05-01T15:08:46Z</time></trkpt><trkpt lat="42.259152531431674" lon="8.678253960101193"><ele>157.0</ele><time>2026-05-01T15:08:47Z</time></trkpt><trkpt lat="42.259099631640744" lon="8.677993420334344"><ele>157.0</ele><time>2026-05-01T15:08:48.001Z</time></trkpt><trkpt lat="42.25907165710069" lon="8.677746445977848"><ele>157.0</ele><time>2026-05-01T15:08:49.001Z</time></trkpt><trkpt lat="42.25905455936473" lon="8.677514536345965"><ele>157.33333333333334</ele><time>2026-05-01T15:08:50.001Z</time></trkpt><trkpt lat="42.25902175064088" lon="8.677286616674"><ele>157.66666666666666</ele><time>2026-05-01T15:08:51.001Z</time></trkpt><trkpt lat="42.25899706262871" lon="8.677089540353716"><ele>158.0</ele><time>2026-05-01T15:08:52.001Z</time></trkpt><trkpt lat="42.25891624540007" lon="8.676919373966523"><ele>158.0</ele><time>2026-05-01T15:08:53.001Z</time></trkpt><trkpt lat="42.25881846859468" lon="8.676809876276918"><ele>158.0</ele><time>2026-05-01T15:08:54.001Z</time></trkpt><trkpt lat="42.258702634461535" lon="8.676769599650283"><ele>158.0</ele><time>2026-05-01T15:08:55.001Z</time></trkpt><trkpt lat="42.258567215542904" lon="8.676795320160348"><ele>158.0</ele><time>2026-05-01T15:08:56.001Z</time></trkpt><trkpt lat="42.25843554270004" lon="8.676826534038849"><ele>158.0</ele><time>2026-05-01T15:08:57.001Z</time></trkpt><trkpt lat="42.25828721960769" lon="8.676867606647873"><ele>158.0</ele><time>2026-05-01T15:08:58.001Z</time></trkpt><trkpt lat="42.258135157397625" lon="8.676927828659185"><ele>158.0</ele><time>2026-05-01T15:08:59.001Z</time></trkpt><trkpt lat="42.25797904290099" lon="8.676965722449173"><ele>162.25</ele><time>2026-05-01T15:09:00.001Z</time></trkpt><trkpt lat="42.25782216152654" lon="8.67692729314533"><ele>166.5</ele><time>2026-05-01T15:09:01.001Z</time></trkpt><trkpt lat="42.25766520841101" lon="8.676911689066664"><ele>170.75</ele><time>2026-05-01T15:09:02.001Z</time></trkpt><trkpt lat="42.25754283692329" lon="8.676961890686869"><ele>175.0</ele><time>2026-05-01T15:09:03.001Z</time></trkpt><trkpt lat="42.257434764970576" lon="8.67696337711585"><ele>175.0</ele><time>2026-05-01T15:09:04.001Z</time></trkpt><trkpt lat="42.25737145753716" lon="8.676868960866292"><ele>175.0</ele><time>2026-05-01T15:09:05.001Z</time></trkpt><trkpt lat="42.257311294730506" lon="8.676787219754209"><ele>175.0</ele><time>2026-05-01T15:09:06.001Z</time></trkpt><trkpt lat="42.25730641546748" lon="8.676675016072362"><ele>175.0</ele><time>2026-05-01T15:09:07.001Z</time></trkpt><trkpt lat="42.25736851909989" lon="8.676561381288824"><ele>175.0</ele><time>2026-05-01T15:09:08.001Z</time></trkpt><trkpt lat="42.257408029303484" lon="8.676407100749044"><ele>175.0</ele><time>2026-05-01T15:09:09.001Z</time></trkpt><trkpt lat="42.25746757264625" lon="8.676234472009977"><ele>175.0</ele><time>2026-05-01T15:09:10.001Z</time></trkpt><trkpt lat="42.25754242465518" lon="8.676034986723963"><ele>175.0</ele><time>2026-05-01T15:09:11.001Z</time></trkpt><trkpt lat="42.257649098374685" lon="8.675842491608657"><ele>179.33333333333334</ele><time>2026-05-01T15:09:12.001Z</time></trkpt><trkpt lat="42.257811050395695" lon="8.675691698484826"><ele>183.66666666666666</ele><time>2026-05-01T15:09:13.001Z</time></trkpt><trkpt lat="42.25795634320046" lon="8.675532063902134"><ele>188.0</ele><time>2026-05-01T15:09:14.002Z</time></trkpt><trkpt lat="42.258089838760846" lon="8.675407720878615"><ele>183.25</ele><time>2026-05-01T15:09:15.002Z</time></trkpt><trkpt lat="42.25817541844693" lon="8.67525713792099"><ele>178.5</ele><time>2026-05-01T15:09:16.002Z</time></trkpt><trkpt lat="42.25820497155732" lon="8.67507125349806"><ele>173.75</ele><time>2026-05-01T15:09:17.002Z</time></trkpt><trkpt lat="42.25820452829145" lon="8.674877300376762"><ele>169.0</ele><time>2026-05-01T15:09:18.002Z</time></trkpt><trkpt lat="42.258207694195924" lon="8.674657352680558"><ele>170.0</ele><time>2026-05-01T15:09:19.002Z</time></trkpt><trkpt lat="42.25822783051012" lon="8.674429780776254"><ele>171.0</ele><time>2026-05-01T15:09:20.002Z</time></trkpt><trkpt lat="42.258250044861576" lon="8.674218292552363"><ele>172.0</ele><time>2026-05-01T15:09:21.002Z</time></trkpt><trkpt lat="42.258263723190495" lon="8.6740521466119"><ele>172.0</ele><time>2026-05-01T15:09:22.002Z</time></trkpt><trkpt lat="42.2582326322025" lon="8.67393297060952"><ele>172.0</ele><time>2026-05-01T15:09:23.002Z</time></trkpt><trkpt lat="42.258165318298786" lon="8.673858136832164"><ele>172.0</ele><time>2026-05-01T15:09:24.002Z</time></trkpt><trkpt lat="42.258082843864244" lon="8.673847099938301"><ele>172.0</ele><time>2026-05-01T15:09:25.002Z</time></trkpt><trkpt lat="42.25797659406069" lon="8.673819175057586"><ele>172.0</ele><time>2026-05-01T15:09:26.002Z</time></trkpt><trkpt lat="42.25787017689785" lon="8.67375849341121"><ele>175.25</ele><time>2026-05-01T15:09:27.002Z</time></trkpt><trkpt lat="42.2578068491477" lon="8.673638608492691"><ele>178.5</ele><time>2026-05-01T15:09:28.002Z</time></trkpt><trkpt lat="42.25773525628748" lon="8.673501169422321"><ele>181.75</ele><time>2026-05-01T15:09:29.002Z</time></trkpt><trkpt lat="42.257669150139236" lon="8.673369022654578"><ele>185.0</ele><time>2026-05-01T15:09:30.002Z</time></trkpt><trkpt lat="42.2575629186435" lon="8.673307477839503"><ele>185.0</ele><time>2026-05-01T15:09:31.002Z</time></trkpt><trkpt lat="42.25743886623266" lon="8.67329995528976"><ele>185.0</ele><time>2026-05-01T15:09:32.002Z</time></trkpt><trkpt lat="42.25733111596444" lon="8.673235025195428"><ele>185.0</ele><time>2026-05-01T15:09:33.002Z</time></trkpt><trkpt lat="42.25725743721352" lon="8.673103965062165"><ele>185.0</ele><time>2026-05-01T15:09:34.002Z</time></trkpt><trkpt lat="42.25719005599547" lon="8.672987296736558"><ele>186.8</ele><time>2026-05-01T15:09:35.002Z</time></trkpt><trkpt lat="42.257163896198115" lon="8.672861371602869"><ele>188.6</ele><time>2026-05-01T15:09:36.002Z</time></trkpt><trkpt lat="42.25714710707289" lon="8.67271281746095"><ele>190.39999999999998</ele><time>2026-05-01T15:09:37.002Z</time></trkpt><trkpt lat="42.25712763290766" lon="8.672570716231128"><ele>192.2</ele><time>2026-05-01T15:09:38.002Z</time></trkpt><trkpt lat="42.25706300506509" lon="8.672487547443666"><ele>194.0</ele><time>2026-05-01T15:09:39.002Z</time></trkpt><trkpt lat="42.25696485681936" lon="8.67248345996737"><ele>194.0</ele><time>2026-05-01T15:09:40.002Z</time></trkpt><trkpt lat="42.25683186294374" lon="8.672524496083051"><ele>194.0</ele><time>2026-05-01T15:09:41.002Z</time></trkpt><trkpt lat="42.25668544956719" lon="8.672478673095057"><ele>194.0</ele><time>2026-05-01T15:09:42.002Z</time></trkpt><trkpt lat="42.25652276595992" lon="8.672428259779112"><ele>199.75</ele><time>2026-05-01T15:09:43.002Z</time></trkpt><trkpt lat="42.256391459679456" lon="8.672384380924967"><ele>205.5</ele><time>2026-05-01T15:09:44.002Z</time></trkpt><trkpt lat="42.256319779962155" lon="8.672277519137376"><ele>211.25</ele><time>2026-05-01T15:09:45.002Z</time></trkpt><trkpt lat="42.256243430037195" lon="8.672130328689915"><ele>217.0</ele><time>2026-05-01T15:09:46.003Z</time></trkpt><trkpt lat="42.25614000415132" lon="8.671992875880225"><ele>206.66666666666666</ele><time>2026-05-01T15:09:47.003Z</time></trkpt><trkpt lat="42.25600819020762" lon="8.67189005079198"><ele>196.33333333333331</ele><time>2026-05-01T15:09:48.003Z</time></trkpt><trkpt lat="42.255861319155365" lon="8.671834050713173"><ele>186.0</ele><time>2026-05-01T15:09:49.003Z</time></trkpt><trkpt lat="42.2557172817373" lon="8.671805936828799"><ele>189.4</ele><time>2026-05-01T15:09:50.003Z</time></trkpt><trkpt lat="42.25561472039979" lon="8.671820712361535"><ele>192.8</ele><time>2026-05-01T15:09:51.003Z</time></trkpt><trkpt lat="42.25555444750889" lon="8.671909841648656"><ele>196.20000000000002</ele><time>2026-05-01T15:09:52.003Z</time></trkpt><trkpt lat="42.25550479797111" lon="8.672040328928247"><ele>199.60000000000002</ele><time>2026-05-01T15:09:53.003Z</time></trkpt><trkpt lat="42.25541408275039" lon="8.672164913399026"><ele>203.0</ele><time>2026-05-01T15:09:54.003Z</time></trkpt><trkpt lat="42.2552738065548" lon="8.672225586780861"><ele>205.60000000000002</ele><time>2026-05-01T15:09:55.003Z</time></trkpt><trkpt lat="42.255159709477404" lon="8.672327424600919"><ele>208.20000000000002</ele><time>2026-05-01T15:09:56.003Z</time></trkpt><trkpt lat="42.2550593148387" lon="8.672381881350727"><ele>210.8</ele><time>2026-05-01T15:09:57.003Z</time></trkpt><trkpt lat="42.25497049658686" lon="8.672380044983488"><ele>213.4</ele><time>2026-05-01T15:09:58.003Z</time></trkpt><trkpt lat="42.254912126168435" lon="8.672320852472811"><ele>216.0</ele><time>2026-05-01T15:09:59.003Z</time></trkpt><trkpt lat="42.254912642629684" lon="8.672183807973642"><ele>216.0</ele><time>2026-05-01T15:10:00.003Z</time></trkpt><trkpt lat="42.25489694213394" lon="8.672038192659347"><ele>216.0</ele><time>2026-05-01T15:10:01.003Z</time></trkpt><trkpt lat="42.25485251309903" lon="8.671858359649157"><ele>216.0</ele><time>2026-05-01T15:10:02.003Z</time></trkpt><trkpt lat="42.25481927429029" lon="8.671674130015846"><ele>216.0</ele><time>2026-05-01T15:10:03.003Z</time></trkpt><trkpt lat="42.25478955941422" lon="8.671523387208484"><ele>216.60000000000002</ele><time>2026-05-01T15:10:04.003Z</time></trkpt><trkpt lat="42.25477857009367" lon="8.671393652059034"><ele>217.20000000000002</ele><time>2026-05-01T15:10:05.003Z</time></trkpt><trkpt lat="42.254803792102614" lon="8.67127560117297"><ele>217.79999999999998</ele><time>2026-05-01T15:10:06.003Z</time></trkpt><trkpt lat="42.25489709371871" lon="8.671167693690938"><ele>218.39999999999998</ele><time>2026-05-01T15:10:07.003Z</time></trkpt><trkpt lat="42.25495153208321" lon="8.671005975443332"><ele>219.0</ele><time>2026-05-01T15:10:08.003Z</time></trkpt><trkpt lat="42.255022606413924" lon="8.670849021891275"><ele>219.0</ele><time>2026-05-01T15:10:09.003Z</time></trkpt><trkpt lat="42.255111056323415" lon="8.670729860507937"><ele>219.0</ele><time>2026-05-01T15:10:10.003Z</time></trkpt><trkpt lat="42.255204421941535" lon="8.670592736756559"><ele>219.0</ele><time>2026-05-01T15:10:11.003Z</time></trkpt><trkpt lat="42.25531881683286" lon="8.670461081081562"><ele>219.0</ele><time>2026-05-01T15:10:11.997Z</time></trkpt><trkpt lat="42.2554237713506" lon="8.670365451177124"><ele>224.75</ele><time>2026-05-01T15:10:12.997Z</time></trkpt><trkpt lat="42.25551359570133" lon="8.670265194700892"><ele>230.5</ele><time>2026-05-01T15:10:13.997Z</time></trkpt><trkpt lat="42.255553415877806" lon="8.67010256464837"><ele>236.25</ele><time>2026-05-01T15:10:14.998Z</time></trkpt><trkpt lat="42.255542162244396" lon="8.669914739617559"><ele>242.0</ele><time>2026-05-01T15:10:15.998Z</time></trkpt><trkpt lat="42.255579289949935" lon="8.669771875629955"><ele>236.5</ele><time>2026-05-01T15:10:16.998Z</time></trkpt><trkpt lat="42.255674578952274" lon="8.669720412878787"><ele>231.0</ele><time>2026-05-01T15:10:17.998Z</time></trkpt><trkpt lat="42.25579023676914" lon="8.669796811476566"><ele>225.5</ele><time>2026-05-01T15:10:18.998Z</time></trkpt><trkpt lat="42.255927766422914" lon="8.669821289032182"><ele>220.0</ele><time>2026-05-01T15:10:19.998Z</time></trkpt><trkpt lat="42.25607611083239" lon="8.669867559932339"><ele>220.0</ele><time>2026-05-01T15:10:20.998Z</time></trkpt><trkpt lat="42.2562299259724" lon="8.669894487096315"><ele>220.0</ele><time>2026-05-01T15:10:21.998Z</time></trkpt><trkpt lat="42.256386603222026" lon="8.669917260028138"><ele>220.0</ele><time>2026-05-01T15:10:22.998Z</time></trkpt><trkpt lat="42.25655927345592" lon="8.669882111778632"><ele>219.33333333333331</ele><time>2026-05-01T15:10:23.998Z</time></trkpt><trkpt lat="42.256732872288445" lon="8.669843825678301"><ele>218.66666666666669</ele><time>2026-05-01T15:10:24.998Z</time></trkpt><trkpt lat="42.2568829531254" lon="8.66981015080503"><ele>218.0</ele><time>2026-05-01T15:10:25.999Z</time></trkpt><trkpt lat="42.257016179721944" lon="8.669738331715362"><ele>218.0</ele><time>2026-05-01T15:10:26.999Z</time></trkpt><trkpt lat="42.25714856111182" lon="8.669606945880789"><ele>218.0</ele><time>2026-05-01T15:10:27.999Z</time></trkpt><trkpt lat="42.25727790497423" lon="8.66945209093031"><ele>218.0</ele><time>2026-05-01T15:10:28.999Z</time></trkpt><trkpt lat="42.25738005521678" lon="8.66932513696301"><ele>220.0</ele><time>2026-05-01T15:10:29.999Z</time></trkpt><trkpt lat="42.25746789485152" lon="8.6692059961292"><ele>222.0</ele><time>2026-05-01T15:10:30.999Z</time></trkpt><trkpt lat="42.25752680653467" lon="8.669089470065725"><ele>224.0</ele><time>2026-05-01T15:10:31.999Z</time></trkpt><trkpt lat="42.2575560513902" lon="8.668974839112265"><ele>226.0</ele><time>2026-05-01T15:10:32.999Z</time></trkpt><trkpt lat="42.257555751082194" lon="8.668870249987807"><ele>228.0</ele><time>2026-05-01T15:10:33.999Z</time></trkpt><trkpt lat="42.25751880139205" lon="8.668792700573356"><ele>228.0</ele><time>2026-05-01T15:10:34.999Z</time></trkpt><trkpt lat="42.25746818887239" lon="8.668740264455032"><ele>228.0</ele><time>2026-05-01T15:10:36Z</time></trkpt><trkpt lat="42.257371996076756" lon="8.66874809055768"><ele>228.0</ele><time>2026-05-01T15:10:37Z</time></trkpt><trkpt lat="42.25726430112485" lon="8.66874848978459"><ele>228.0</ele><time>2026-05-01T15:10:38Z</time></trkpt><trkpt lat="42.257146757925035" lon="8.668735189012015"><ele>228.0</ele><time>2026-05-01T15:10:39Z</time></trkpt><trkpt lat="42.25702646303316" lon="8.668716385863299"><ele>231.2</ele><time>2026-05-01T15:10:40Z</time></trkpt><trkpt lat="42.25691681434685" lon="8.668657917120308"><ele>234.4</ele><time>2026-05-01T15:10:41Z</time></trkpt><trkpt lat="42.256826980511434" lon="8.668604964315673"><ele>237.59999999999997</ele><time>2026-05-01T15:10:42Z</time></trkpt><trkpt lat="42.256758548569444" lon="8.668542933245982"><ele>240.79999999999998</ele><time>2026-05-01T15:10:43Z</time></trkpt><trkpt lat="42.256696391994375" lon="8.668479259619092"><ele>244.0</ele><time>2026-05-01T15:10:44Z</time></trkpt><trkpt lat="42.25667159196173" lon="8.668356677554952"><ele>244.0</ele><time>2026-05-01T15:10:45Z</time></trkpt><trkpt lat="42.25659768598753" lon="8.668250517611582"><ele>244.0</ele><time>2026-05-01T15:10:46Z</time></trkpt><trkpt lat="42.25648438712148" lon="8.668132184784204"><ele>244.0</ele><time>2026-05-01T15:10:47Z</time></trkpt><trkpt lat="42.25635885801951" lon="8.668013736024424"><ele>244.0</ele><time>2026-05-01T15:10:48Z</time></trkpt><trkpt lat="42.25624359868109" lon="8.667889641854725"><ele>252.0</ele><time>2026-05-01T15:10:49Z</time></trkpt><trkpt lat="42.2561619999482" lon="8.667736743387708"><ele>260.0</ele><time>2026-05-01T15:10:50Z</time></trkpt><trkpt lat="42.25613198709189" lon="8.667555529855974"><ele>268.0</ele><time>2026-05-01T15:10:51Z</time></trkpt><trkpt lat="42.25607853319319" lon="8.667390085948284"><ele>276.0</ele><time>2026-05-01T15:10:52Z</time></trkpt><trkpt lat="42.25601692702342" lon="8.66724472028745"><ele>276.0</ele><time>2026-05-01T15:10:53.001Z</time></trkpt><trkpt lat="42.25591206319294" lon="8.667129124207888"><ele>276.0</ele><time>2026-05-01T15:10:54.001Z</time></trkpt><trkpt lat="42.255822731442734" lon="8.667026008903136"><ele>276.0</ele><time>2026-05-01T15:10:55.001Z</time></trkpt><trkpt lat="42.25576130665562" lon="8.666915847143017"><ele>276.0</ele><time>2026-05-01T15:10:56.001Z</time></trkpt><trkpt lat="42.255747029892" lon="8.666778536678715"><ele>273.40000000000003</ele><time>2026-05-01T15:10:57.001Z</time></trkpt><trkpt lat="42.25574858588709" lon="8.66665999817106"><ele>270.8</ele><time>2026-05-01T15:10:58.001Z</time></trkpt><trkpt lat="42.255745244022755" lon="8.666517785861041"><ele>268.20000000000005</ele><time>2026-05-01T15:10:59.001Z</time></trkpt><trkpt lat="42.255754710735964" lon="8.666402311541283"><ele>265.6</ele><time>2026-05-01T15:11:00.001Z</time></trkpt><trkpt lat="42.25574041686086" lon="8.666316908863138"><ele>263.0</ele><time>2026-05-01T15:11:01.001Z</time></trkpt><trkpt lat="42.255643313535835" lon="8.666207718899939"><ele>263.6666666666667</ele><time>2026-05-01T15:11:03.001Z</time></trkpt><trkpt lat="42.25556459233997" lon="8.66615372307877"><ele>264.33333333333337</ele><time>2026-05-01T15:11:04.001Z</time></trkpt><trkpt lat="42.255487793329415" lon="8.66610587904309"><ele>265.0</ele><time>2026-05-01T15:11:05.001Z</time></trkpt><trkpt lat="42.255417251156935" lon="8.666059433340079"><ele>265.6666666666667</ele><time>2026-05-01T15:11:06.001Z</time></trkpt><trkpt lat="42.25535126708187" lon="8.666006806441171"><ele>266.3333333333333</ele><time>2026-05-01T15:11:07.001Z</time></trkpt><trkpt lat="42.25528759298425" lon="8.665956744810941"><ele>267.0</ele><time>2026-05-01T15:11:08.001Z</time></trkpt><trkpt lat="42.25521858294158" lon="8.665913623349613"><ele>267.00000000000006</ele><time>2026-05-01T15:11:09.001Z</time></trkpt><trkpt lat="42.25515181024134" lon="8.665900138681966"><ele>267.0</ele><time>2026-05-01T15:11:10.001Z</time></trkpt><trkpt lat="42.25508516265004" lon="8.665917650894913"><ele>267.0</ele><time>2026-05-01T15:11:11.001Z</time></trkpt><trkpt lat="42.255011458559196" lon="8.665925367208203"><ele>267.0</ele><time>2026-05-01T15:11:12.001Z</time></trkpt><trkpt lat="42.254935760352346" lon="8.66597181727921"><ele>267.0</ele><time>2026-05-01T15:11:13.001Z</time></trkpt><trkpt lat="42.25486162568622" lon="8.666001579781772"><ele>267.00000000000006</ele><time>2026-05-01T15:11:14.001Z</time></trkpt><trkpt lat="42.25479431688672" lon="8.666019587653459"><ele>267.0</ele><time>2026-05-01T15:11:15.001Z</time></trkpt><trkpt lat="42.25473136514085" lon="8.665982962174382"><ele>275.0</ele><time>2026-05-01T15:11:16.001Z</time></trkpt><trkpt lat="42.25467026193429" lon="8.6659157047525"><ele>283.0</ele><time>2026-05-01T15:11:17.001Z</time></trkpt><trkpt lat="42.25461782259463" lon="8.665812138318435"><ele>291.0</ele><time>2026-05-01T15:11:18.001Z</time></trkpt><trkpt lat="42.25458589673737" lon="8.665686027027682"><ele>299.0</ele><time>2026-05-01T15:11:19.001Z</time></trkpt><trkpt lat="42.25453728056452" lon="8.665567238019023"><ele>307.0</ele><time>2026-05-01T15:11:20.002Z</time></trkpt><trkpt lat="42.25449565826115" lon="8.665436219029518"><ele>307.0</ele><time>2026-05-01T15:11:21.002Z</time></trkpt><trkpt lat="42.2544741050123" lon="8.665291708861153"><ele>307.0</ele><time>2026-05-01T15:11:22.002Z</time></trkpt><trkpt lat="42.25445033759504" lon="8.665151672329488"><ele>307.0</ele><time>2026-05-01T15:11:23.002Z</time></trkpt><trkpt lat="42.25443598743297" lon="8.665005467141585"><ele>307.0</ele><time>2026-05-01T15:11:24.002Z</time></trkpt><trkpt lat="42.25445632635936" lon="8.66485357357527"><ele>307.0</ele><time>2026-05-01T15:11:25.002Z</time></trkpt><trkpt lat="42.25447625256703" lon="8.664695775565907"><ele>306.0</ele><time>2026-05-01T15:11:26.002Z</time></trkpt><trkpt lat="42.25448415436793" lon="8.664539208772297"><ele>305.0</ele><time>2026-05-01T15:11:27.002Z</time></trkpt><trkpt lat="42.254462611412436" lon="8.664329105410673"><ele>304.0</ele><time>2026-05-01T15:11:28.002Z</time></trkpt><trkpt lat="42.254419032528084" lon="8.664062574007504"><ele>304.0</ele><time>2026-05-01T15:11:29.002Z</time></trkpt><trkpt lat="42.25439447528023" lon="8.663839651988205"><ele>304.0</ele><time>2026-05-01T15:11:30.002Z</time></trkpt><trkpt lat="42.25441457926845" lon="8.663663785795144"><ele>304.0</ele><time>2026-05-01T15:11:31.002Z</time></trkpt><trkpt lat="42.254545002436146" lon="8.663593373823542"><ele>304.0</ele><time>2026-05-01T15:11:32.002Z</time></trkpt><trkpt lat="42.25460652986968" lon="8.66348215211679"><ele>301.8</ele><time>2026-05-01T15:11:33.002Z</time></trkpt><trkpt lat="42.25464319438529" lon="8.663370615028958"><ele>299.59999999999997</ele><time>2026-05-01T15:11:34.002Z</time></trkpt><trkpt lat="42.25460114188041" lon="8.663279962912583"><ele>297.4</ele><time>2026-05-01T15:11:35.002Z</time></trkpt><trkpt lat="42.25450827519577" lon="8.663248894546113"><ele>295.2</ele><time>2026-05-01T15:11:36.002Z</time></trkpt><trkpt lat="42.25439720923374" lon="8.663232250066295"><ele>293.0</ele><time>2026-05-01T15:11:37.002Z</time></trkpt><trkpt lat="42.25429625778247" lon="8.663366339375944"><ele>293.0</ele><time>2026-05-01T15:11:38.002Z</time></trkpt><trkpt lat="42.254251822982084" lon="8.663499737768893"><ele>293.0</ele><time>2026-05-01T15:11:39.002Z</time></trkpt><trkpt lat="42.25424369766764" lon="8.6636804099834"><ele>293.0</ele><time>2026-05-01T15:11:40.002Z</time></trkpt><trkpt lat="42.25425337379989" lon="8.663872550535983"><ele>293.0</ele><time>2026-05-01T15:11:41.002Z</time></trkpt><trkpt lat="42.25425466015871" lon="8.66405960456391"><ele>295.75</ele><time>2026-05-01T15:11:42.002Z</time></trkpt><trkpt lat="42.25425673366535" lon="8.664252998551165"><ele>298.5</ele><time>2026-05-01T15:11:43.002Z</time></trkpt><trkpt lat="42.254252891560434" lon="8.664450835867358"><ele>301.25</ele><time>2026-05-01T15:11:44.002Z</time></trkpt><trkpt lat="42.25420495785628" lon="8.664636757660412"><ele>304.0</ele><time>2026-05-01T15:11:45.002Z</time></trkpt><trkpt lat="42.254168265205564" lon="8.664827852482782"><ele>304.0</ele><time>2026-05-01T15:11:46.002Z</time></trkpt><trkpt lat="42.25415219614615" lon="8.665027889007888"><ele>304.0</ele><time>2026-05-01T15:11:47.002Z</time></trkpt><trkpt lat="42.254127612823645" lon="8.66520405262877"><ele>304.0</ele><time>2026-05-01T15:11:48.002Z</time></trkpt><trkpt lat="42.25412295967433" lon="8.665364917078369"><ele>304.0</ele><time>2026-05-01T15:11:49.002Z</time></trkpt><trkpt lat="42.2541436733212" lon="8.665510198316312"><ele>304.75</ele><time>2026-05-01T15:11:50.002Z</time></trkpt><trkpt lat="42.25420193919189" lon="8.6656615967492"><ele>305.5</ele><time>2026-05-01T15:11:51.002Z</time></trkpt><trkpt lat="42.254251233709084" lon="8.665831272681299"><ele>306.25</ele><time>2026-05-01T15:11:52.003Z</time></trkpt><trkpt lat="42.25425990476971" lon="8.666028705666385"><ele>307.0</ele><time>2026-05-01T15:11:53.003Z</time></trkpt><trkpt lat="42.25428491232576" lon="8.666237937879572"><ele>306.66666666666663</ele><time>2026-05-01T15:11:54.003Z</time></trkpt><trkpt lat="42.25426173236056" lon="8.6664706416766"><ele>306.3333333333333</ele><time>2026-05-01T15:11:55.003Z</time></trkpt><trkpt lat="42.254254291156215" lon="8.666724692119821"><ele>306.0</ele><time>2026-05-01T15:11:56.003Z</time></trkpt><trkpt lat="42.254252068801016" lon="8.66698171550878"><ele>306.0</ele><time>2026-05-01T15:11:57.003Z</time></trkpt><trkpt lat="42.25423920501222" lon="8.667212528629173"><ele>306.0</ele><time>2026-05-01T15:11:58.003Z</time></trkpt><trkpt lat="42.2541845085" lon="8.66737789503658"><ele>306.0</ele><time>2026-05-01T15:11:59.003Z</time></trkpt><trkpt lat="42.254078655380795" lon="8.667480571611897"><ele>306.0</ele><time>2026-05-01T15:12:00.003Z</time></trkpt><trkpt lat="42.253931266247214" lon="8.667624609284825"><ele>312.6666666666667</ele><time>2026-05-01T15:12:01.003Z</time></trkpt><trkpt lat="42.25378199442292" lon="8.667768114447975"><ele>319.33333333333337</ele><time>2026-05-01T15:12:02.003Z</time></trkpt><trkpt lat="42.25365772777563" lon="8.667952615018992"><ele>326.0</ele><time>2026-05-01T15:12:03.003Z</time></trkpt><trkpt lat="42.25358598376911" lon="8.668163787849343"><ele>326.0</ele><time>2026-05-01T15:12:04.003Z</time></trkpt><trkpt lat="42.253553485298895" lon="8.668387253871881"><ele>326.0</ele><time>2026-05-01T15:12:05.003Z</time></trkpt><trkpt lat="42.25357175703601" lon="8.668594953465544"><ele>326.0</ele><time>2026-05-01T15:12:06.003Z</time></trkpt><trkpt lat="42.25365720892751" lon="8.668784590536191"><ele>323.5</ele><time>2026-05-01T15:12:07.003Z</time></trkpt><trkpt lat="42.25377274260352" lon="8.668958225006197"><ele>321.0</ele><time>2026-05-01T15:12:08.003Z</time></trkpt><trkpt lat="42.253805612475" lon="8.669131702635894"><ele>318.5</ele><time>2026-05-01T15:12:09.003Z</time></trkpt><trkpt lat="42.25376101762896" lon="8.669274196102966"><ele>316.0</ele><time>2026-05-01T15:12:10.003Z</time></trkpt><trkpt lat="42.25370856115618" lon="8.66939310518895"><ele>316.0</ele><time>2026-05-01T15:12:11.003Z</time></trkpt><trkpt lat="42.25359777379152" lon="8.669387344521764"><ele>316.0</ele><time>2026-05-01T15:12:12.003Z</time></trkpt><trkpt lat="42.25347782406528" lon="8.669297605236693"><ele>316.0</ele><time>2026-05-01T15:12:13.003Z</time></trkpt><trkpt lat="42.25335817542825" lon="8.669156296207166"><ele>316.0</ele><time>2026-05-01T15:12:14.003Z</time></trkpt><trkpt lat="42.25331821067243" lon="8.668962892357353"><ele>316.0</ele><time>2026-05-01T15:12:15.003Z</time></trkpt><trkpt lat="42.25328769605606" lon="8.668720697766512"><ele>316.0</ele><time>2026-05-01T15:12:16.003Z</time></trkpt><trkpt lat="42.25326199593065" lon="8.668424487177699"><ele>316.0</ele><time>2026-05-01T15:12:17.003Z</time></trkpt><trkpt lat="42.25323779431442" lon="8.668128468471446"><ele>319.3333333333333</ele><time>2026-05-01T15:12:17.998Z</time></trkpt><trkpt lat="42.25321746605432" lon="8.667882949279866"><ele>322.6666666666667</ele><time>2026-05-01T15:12:18.998Z</time></trkpt><trkpt lat="42.253295151894484" lon="8.667677071621801"><ele>326.0</ele><time>2026-05-01T15:12:19.998Z</time></trkpt><trkpt lat="42.253369721897776" lon="8.667399810296246"><ele>332.0</ele><time>2026-05-01T15:12:20.998Z</time></trkpt><trkpt lat="42.25344642943484" lon="8.667104182626494"><ele>338.0</ele><time>2026-05-01T15:12:21.998Z</time></trkpt><trkpt lat="42.25350258595107" lon="8.666773005010608"><ele>343.0</ele><time>2026-05-01T15:12:22.998Z</time></trkpt><trkpt lat="42.25354005951213" lon="8.666411019388216"><ele>348.0</ele><time>2026-05-01T15:12:23.998Z</time></trkpt><trkpt lat="42.25355322825146" lon="8.666079375429133"><ele>350.6666666666667</ele><time>2026-05-01T15:12:24.998Z</time></trkpt><trkpt lat="42.25355341965831" lon="8.665800510407653"><ele>353.33333333333337</ele><time>2026-05-01T15:12:25.998Z</time></trkpt><trkpt lat="42.25351543120596" lon="8.665515748612727"><ele>356.0</ele><time>2026-05-01T15:12:26.999Z</time></trkpt><trkpt lat="42.253460880130305" lon="8.665237031271865"><ele>358.33333333333337</ele><time>2026-05-01T15:12:27.999Z</time></trkpt><trkpt lat="42.25345307827328" lon="8.664992304984317"><ele>360.6666666666667</ele><time>2026-05-01T15:12:28.999Z</time></trkpt><trkpt lat="42.25348241436041" lon="8.66473923361295"><ele>363.0</ele><time>2026-05-01T15:12:29.999Z</time></trkpt><trkpt lat="42.25351795087259" lon="8.664506370455632"><ele>360.75</ele><time>2026-05-01T15:12:30.999Z</time></trkpt><trkpt lat="42.253528250140306" lon="8.664348392694201"><ele>358.5</ele><time>2026-05-01T15:12:31.999Z</time></trkpt><trkpt lat="42.25347480050469" lon="8.664229342306468"><ele>356.25</ele><time>2026-05-01T15:12:32.999Z</time></trkpt><trkpt lat="42.253349603864294" lon="8.664106796410975"><ele>354.0</ele><time>2026-05-01T15:12:33.999Z</time></trkpt><trkpt lat="42.253198038006055" lon="8.663929944653162"><ele>368.0</ele><time>2026-05-01T15:12:34.999Z</time></trkpt><trkpt lat="42.2531196493619" lon="8.663680244883375"><ele>382.0</ele><time>2026-05-01T15:12:35.999Z</time></trkpt><trkpt lat="42.253012686591084" lon="8.66340867668306"><ele>396.0</ele><time>2026-05-01T15:12:36.999Z</time></trkpt><trkpt lat="42.25288791362499" lon="8.6631459420676"><ele>396.0</ele><time>2026-05-01T15:12:37.999Z</time></trkpt><trkpt lat="42.25275459839792" lon="8.662891400615344"><ele>396.0</ele><time>2026-05-01T15:12:38.999Z</time></trkpt><trkpt lat="42.25267103178918" lon="8.662660604701202"><ele>396.0</ele><time>2026-05-01T15:12:40Z</time></trkpt><trkpt lat="42.25261368324822" lon="8.662455501213955"><ele>392.0</ele><time>2026-05-01T15:12:41Z</time></trkpt><trkpt lat="42.25257385537644" lon="8.66228160228194"><ele>388.0</ele><time>2026-05-01T15:12:42Z</time></trkpt><trkpt lat="42.252552605956765" lon="8.662122437076993"><ele>384.0</ele><time>2026-05-01T15:12:43Z</time></trkpt><trkpt lat="42.25253160090587" lon="8.661975718998804"><ele>380.0</ele><time>2026-05-01T15:12:44Z</time></trkpt><trkpt lat="42.25250456043138" lon="8.661830265835102"><ele>378.5</ele><time>2026-05-01T15:12:45Z</time></trkpt><trkpt lat="42.252472250557034" lon="8.66168302508221"><ele>377.0</ele><time>2026-05-01T15:12:46Z</time></trkpt><trkpt lat="42.252434093242904" lon="8.661534857088569"><ele>375.5</ele><time>2026-05-01T15:12:47Z</time></trkpt><trkpt lat="42.252396098303564" lon="8.661375539072752"><ele>374.0</ele><time>2026-05-01T15:12:48Z</time></trkpt><trkpt lat="42.252362655927826" lon="8.661229924171295"><ele>375.0</ele><time>2026-05-01T15:12:49Z</time></trkpt><trkpt lat="42.25235056826287" lon="8.661098667181523"><ele>376.0</ele><time>2026-05-01T15:12:50Z</time></trkpt><trkpt lat="42.25237178978881" lon="8.660971617946812"><ele>377.0</ele><time>2026-05-01T15:12:51Z</time></trkpt><trkpt lat="42.25240643341695" lon="8.660831678258093"><ele>378.0</ele><time>2026-05-01T15:12:52Z</time></trkpt><trkpt lat="42.252462649552754" lon="8.660696120393078"><ele>379.0</ele><time>2026-05-01T15:12:53Z</time></trkpt><trkpt lat="42.252515572281624" lon="8.66053794742996"><ele>379.0</ele><time>2026-05-01T15:12:54Z</time></trkpt><trkpt lat="42.25256809003561" lon="8.660368623198146"><ele>379.0</ele><time>2026-05-01T15:12:55Z</time></trkpt><trkpt lat="42.252607613653005" lon="8.660188440219388"><ele>379.0</ele><time>2026-05-01T15:12:56Z</time></trkpt><trkpt lat="42.252675594096445" lon="8.660028917383645"><ele>379.0</ele><time>2026-05-01T15:12:57.001Z</time></trkpt><trkpt lat="42.25275506712525" lon="8.659885080397915"><ele>381.6</ele><time>2026-05-01T15:12:58.001Z</time></trkpt><trkpt lat="42.252825527349124" lon="8.659778007352655"><ele>384.2</ele><time>2026-05-01T15:12:59.001Z</time></trkpt><trkpt lat="42.252880729401895" lon="8.659649583708436"><ele>386.8</ele><time>2026-05-01T15:13:00.001Z</time></trkpt><trkpt lat="42.25289795698788" lon="8.659501246362028"><ele>389.40000000000003</ele><time>2026-05-01T15:13:01.001Z</time></trkpt><trkpt lat="42.25288853557668" lon="8.65937408593141"><ele>392.0</ele><time>2026-05-01T15:13:02.001Z</time></trkpt><trkpt lat="42.25282393166949" lon="8.659272537087094"><ele>393.8</ele><time>2026-05-01T15:13:03.001Z</time></trkpt><trkpt lat="42.25277453709875" lon="8.659156232697534"><ele>395.6</ele><time>2026-05-01T15:13:04.001Z</time></trkpt><trkpt lat="42.252697351230054" lon="8.659051882748155"><ele>397.40000000000003</ele><time>2026-05-01T15:13:05.001Z</time></trkpt><trkpt lat="42.252655954696685" lon="8.658909729354816"><ele>399.20000000000005</ele><time>2026-05-01T15:13:06.001Z</time></trkpt><trkpt lat="42.25265770658352" lon="8.65875808911252"><ele>401.0</ele><time>2026-05-01T15:13:07.001Z</time></trkpt><trkpt lat="42.252711881431416" lon="8.658618186398998"><ele>402.0</ele><time>2026-05-01T15:13:08.001Z</time></trkpt><trkpt lat="42.25274753929825" lon="8.658501771128218"><ele>403.0</ele><time>2026-05-01T15:13:09.001Z</time></trkpt><trkpt lat="42.25275903255111" lon="8.658393302317604"><ele>404.0</ele><time>2026-05-01T15:13:10.001Z</time></trkpt><trkpt lat="42.25278413855043" lon="8.658260744675083"><ele>405.0</ele><time>2026-05-01T15:13:12.001Z</time></trkpt><trkpt lat="42.252821054426285" lon="8.65811538374659"><ele>406.0</ele><time>2026-05-01T15:13:14.001Z</time></trkpt><trkpt lat="42.25285367963876" lon="8.658003877200178"><ele>406.0</ele><time>2026-05-01T15:13:16.001Z</time></trkpt><trkpt lat="42.25288541238245" lon="8.65787128091466"><ele>406.0</ele><time>2026-05-01T15:13:18.001Z</time></trkpt><trkpt lat="42.25291682002808" lon="8.657701911766308"><ele>406.0</ele><time>2026-05-01T15:13:20.001Z</time></trkpt><trkpt lat="42.25292190359053" lon="8.657596571931437"><ele>406.0</ele><time>2026-05-01T15:13:21.001Z</time></trkpt><trkpt lat="42.2528976395963" lon="8.657497189768225"><ele>406.0</ele><time>2026-05-01T15:13:22.001Z</time></trkpt><trkpt lat="42.25285472257549" lon="8.657406027508719"><ele>406.4</ele><time>2026-05-01T15:13:23.001Z</time></trkpt><trkpt lat="42.25276424028818" lon="8.657357758857314"><ele>406.8</ele><time>2026-05-01T15:13:24.002Z</time></trkpt><trkpt lat="42.252661399025584" lon="8.657364933411692"><ele>407.2</ele><time>2026-05-01T15:13:25.002Z</time></trkpt><trkpt lat="42.252570808784476" lon="8.657461650628443"><ele>407.59999999999997</ele><time>2026-05-01T15:13:26.002Z</time></trkpt><trkpt lat="42.25249534758204" lon="8.657572848695215"><ele>408.0</ele><time>2026-05-01T15:13:27.002Z</time></trkpt><trkpt lat="42.25244733322609" lon="8.657726997214526"><ele>407.33333333333337</ele><time>2026-05-01T15:13:28.002Z</time></trkpt><trkpt lat="42.25240478890689" lon="8.65790132526876"><ele>406.6666666666667</ele><time>2026-05-01T15:13:29.002Z</time></trkpt><trkpt lat="42.25235358163147" lon="8.658105734851562"><ele>406.0</ele><time>2026-05-01T15:13:30.002Z</time></trkpt><trkpt lat="42.25224390763829" lon="8.658297292682347"><ele>409.6666666666667</ele><time>2026-05-01T15:13:31.002Z</time></trkpt><trkpt lat="42.25214094144096" lon="8.65848476872417"><ele>413.33333333333337</ele><time>2026-05-01T15:13:32.002Z</time></trkpt><trkpt lat="42.252025154087654" lon="8.658637012105858"><ele>417.0</ele><time>2026-05-01T15:13:33.002Z</time></trkpt><trkpt lat="42.25189475166132" lon="8.658738467569052"><ele>417.66666666666663</ele><time>2026-05-01T15:13:34.002Z</time></trkpt><trkpt lat="42.25175601510355" lon="8.658817963930282"><ele>418.3333333333333</ele><time>2026-05-01T15:13:35.002Z</time></trkpt><trkpt lat="42.25160726732003" lon="8.658873166572112"><ele>419.0</ele><time>2026-05-01T15:13:36.002Z</time></trkpt><trkpt lat="42.25143291083553" lon="8.658920772352763"><ele>421.3333333333333</ele><time>2026-05-01T15:13:37.002Z</time></trkpt><trkpt lat="42.2512450888754" lon="8.658953680091251"><ele>423.66666666666663</ele><time>2026-05-01T15:13:38.002Z</time></trkpt><trkpt lat="42.25106090360856" lon="8.658977304071591"><ele>426.0</ele><time>2026-05-01T15:13:39.002Z</time></trkpt><trkpt lat="42.25091212391731" lon="8.658968704256132"><ele>426.0</ele><time>2026-05-01T15:13:40.002Z</time></trkpt><trkpt lat="42.2507886390737" lon="8.658923893096814"><ele>426.0</ele><time>2026-05-01T15:13:41.002Z</time></trkpt><trkpt lat="42.250692839145536" lon="8.658837757788339"><ele>426.0</ele><time>2026-05-01T15:13:42.002Z</time></trkpt><trkpt lat="42.2506317162018" lon="8.658733725015669"><ele>426.0</ele><time>2026-05-01T15:13:43.002Z</time></trkpt><trkpt lat="42.250579474249385" lon="8.658686068300733"><ele>426.0</ele><time>2026-05-01T15:13:44.002Z</time></trkpt><trkpt lat="42.25053050080266" lon="8.658605872567964"><ele>423.1666666666667</ele><time>2026-05-01T15:13:47.002Z</time></trkpt><trkpt lat="42.25042801248265" lon="8.658584283510827"><ele>420.33333333333337</ele><time>2026-05-01T15:13:49.002Z</time></trkpt><trkpt lat="42.250349069358386" lon="8.658632824316603"><ele>417.5</ele><time>2026-05-01T15:13:50.002Z</time></trkpt><trkpt lat="42.25028662261229" lon="8.658724181531378"><ele>414.6666666666667</ele><time>2026-05-01T15:13:51.002Z</time></trkpt><trkpt lat="42.25022079455234" lon="8.658786631004135"><ele>411.83333333333337</ele><time>2026-05-01T15:13:52.002Z</time></trkpt><trkpt lat="42.25016488735013" lon="8.658859230586474"><ele>409.0</ele><time>2026-05-01T15:13:53.002Z</time></trkpt><trkpt lat="42.25010038198189" lon="8.65891163511495"><ele>409.00000000000006</ele><time>2026-05-01T15:13:54.002Z</time></trkpt><trkpt lat="42.25001989630318" lon="8.659001907640034"><ele>409.0</ele><time>2026-05-01T15:13:56.003Z</time></trkpt><trkpt lat="42.24995885553736" lon="8.659077772093141"><ele>409.0</ele><time>2026-05-01T15:13:58.003Z</time></trkpt><trkpt lat="42.24988684387037" lon="8.659194563828452"><ele>409.0</ele><time>2026-05-01T15:14:00.003Z</time></trkpt><trkpt lat="42.2498680850336" lon="8.659277668472061"><ele>409.00000000000006</ele><time>2026-05-01T15:14:01.003Z</time></trkpt><trkpt lat="42.24983172789594" lon="8.659366736192473"><ele>409.0</ele><time>2026-05-01T15:14:02.003Z</time></trkpt><trkpt lat="42.24978821943948" lon="8.659467899025216"><ele>410.0</ele><time>2026-05-01T15:14:03.003Z</time></trkpt><trkpt lat="42.24974543230465" lon="8.659582539103317"><ele>411.0</ele><time>2026-05-01T15:14:04.003Z</time></trkpt><trkpt lat="42.249709436910386" lon="8.659714845638199"><ele>412.0</ele><time>2026-05-01T15:14:05.003Z</time></trkpt><trkpt lat="42.249651507951505" lon="8.659839205936875"><ele>413.0</ele><time>2026-05-01T15:14:06.003Z</time></trkpt><trkpt lat="42.249624494271" lon="8.659982937829712"><ele>414.0</ele><time>2026-05-01T15:14:07.003Z</time></trkpt><trkpt lat="42.24957516516812" lon="8.660105669107539"><ele>414.0</ele><time>2026-05-01T15:14:08.003Z</time></trkpt><trkpt lat="42.24952505622189" lon="8.660230273512516"><ele>414.0</ele><time>2026-05-01T15:14:09.003Z</time></trkpt><trkpt lat="42.24946870119568" lon="8.660345430790048"><ele>414.0</ele><time>2026-05-01T15:14:10.003Z</time></trkpt><trkpt lat="42.24940835371709" lon="8.660428074483974"><ele>414.0</ele><time>2026-05-01T15:14:11.003Z</time></trkpt><trkpt lat="42.249337871477614" lon="8.660489658692262"><ele>414.0</ele><time>2026-05-01T15:14:12.003Z</time></trkpt><trkpt lat="42.249241439853655" lon="8.66057469977559"><ele>421.0</ele><time>2026-05-01T15:14:14.003Z</time></trkpt><trkpt lat="42.249126662789855" lon="8.660640044959186"><ele>428.0</ele><time>2026-05-01T15:14:16.003Z</time></trkpt><trkpt lat="42.24906526314281" lon="8.660708297422769"><ele>435.0</ele><time>2026-05-01T15:14:17.003Z</time></trkpt><trkpt lat="42.24898982883552" lon="8.660740420703076"><ele>442.0</ele><time>2026-05-01T15:14:18.003Z</time></trkpt><trkpt lat="42.24891896635269" lon="8.660751497635884"><ele>449.0</ele><time>2026-05-01T15:14:19.003Z</time></trkpt><trkpt lat="42.24885185455118" lon="8.660736973099333"><ele>456.0</ele><time>2026-05-01T15:14:20.003Z</time></trkpt><trkpt lat="42.24879377077524" lon="8.66069307013161"><ele>454.6</ele><time>2026-05-01T15:14:21.003Z</time></trkpt><trkpt lat="42.248748105612" lon="8.660630545754037"><ele>453.20000000000005</ele><time>2026-05-01T15:14:22.003Z</time></trkpt><trkpt lat="42.24870869593268" lon="8.660531365262056"><ele>451.79999999999995</ele><time>2026-05-01T15:14:23.003Z</time></trkpt><trkpt lat="42.24865810886966" lon="8.660400433166993"><ele>450.4</ele><time>2026-05-01T15:14:23.998Z</time></trkpt><trkpt lat="42.24859057291824" lon="8.660257963485952"><ele>449.0</ele><time>2026-05-01T15:14:24.998Z</time></trkpt><trkpt lat="42.24849997281583" lon="8.660113753317418"><ele>449.0</ele><time>2026-05-01T15:14:25.998Z</time></trkpt><trkpt lat="42.24838077568133" lon="8.659986978093091"><ele>449.0</ele><time>2026-05-01T15:14:26.998Z</time></trkpt><trkpt lat="42.24829026797879" lon="8.659851821595998"><ele>449.0</ele><time>2026-05-01T15:14:27.998Z</time></trkpt><trkpt lat="42.248224540809325" lon="8.659727486939586"><ele>449.0</ele><time>2026-05-01T15:14:28.998Z</time></trkpt><trkpt lat="42.248174241744216" lon="8.659601755834576"><ele>448.99999999999994</ele><time>2026-05-01T15:14:29.998Z</time></trkpt><trkpt lat="42.248139295448524" lon="8.659488922273114"><ele>449.0</ele><time>2026-05-01T15:14:30.999Z</time></trkpt><trkpt lat="42.248148463686185" lon="8.65937349394703"><ele>449.0</ele><time>2026-05-01T15:14:31.999Z</time></trkpt><trkpt lat="42.24815222161983" lon="8.659269644452385"><ele>449.0</ele><time>2026-05-01T15:14:32.999Z</time></trkpt><trkpt lat="42.24813686791902" lon="8.65915058505891"><ele>448.99999999999994</ele><time>2026-05-01T15:14:33.999Z</time></trkpt><trkpt lat="42.2481061019007" lon="8.6590260794228"><ele>449.0</ele><time>2026-05-01T15:14:34.999Z</time></trkpt><trkpt lat="42.24805969398546" lon="8.65892030032433"><ele>453.6</ele><time>2026-05-01T15:14:35.999Z</time></trkpt><trkpt lat="42.248002138663054" lon="8.658812912492897"><ele>458.2</ele><time>2026-05-01T15:14:36.999Z</time></trkpt><trkpt lat="42.24793679927823" lon="8.658699479157997"><ele>462.80000000000007</ele><time>2026-05-01T15:14:37.999Z</time></trkpt><trkpt lat="42.24787261663433" lon="8.658591583840167"><ele>467.40000000000003</ele><time>2026-05-01T15:14:38.999Z</time></trkpt><trkpt lat="42.24781420068535" lon="8.658484871662933"><ele>472.0</ele><time>2026-05-01T15:14:39.999Z</time></trkpt><trkpt lat="42.247763467980704" lon="8.658370406939538"><ele>472.00000000000006</ele><time>2026-05-01T15:14:40.999Z</time></trkpt><trkpt lat="42.24773905906537" lon="8.658254801120417"><ele>472.0</ele><time>2026-05-01T15:14:41.999Z</time></trkpt><trkpt lat="42.24773665634066" lon="8.658150953472992"><ele>472.0</ele><time>2026-05-01T15:14:42.999Z</time></trkpt><trkpt lat="42.24777454531738" lon="8.658003127995723"><ele>472.0</ele><time>2026-05-01T15:14:45Z</time></trkpt><trkpt lat="42.2478189954384" lon="8.657929163515556"><ele>472.00000000000006</ele><time>2026-05-01T15:14:46Z</time></trkpt><trkpt lat="42.24788724076339" lon="8.657862938057262"><ele>472.0</ele><time>2026-05-01T15:14:47Z</time></trkpt><trkpt lat="42.247945223255364" lon="8.657792399766652"><ele>470.40000000000003</ele><time>2026-05-01T15:14:48Z</time></trkpt><trkpt lat="42.24795528191229" lon="8.65765929090891"><ele>468.80000000000007</ele><time>2026-05-01T15:14:50Z</time></trkpt><trkpt lat="42.24790111493036" lon="8.657503940358144"><ele>467.2</ele><time>2026-05-01T15:14:52Z</time></trkpt><trkpt lat="42.24784951159017" lon="8.657415913620541"><ele>465.6</ele><time>2026-05-01T15:14:53Z</time></trkpt><trkpt lat="42.247815237903154" lon="8.657317622359825"><ele>464.0</ele><time>2026-05-01T15:14:54Z</time></trkpt><trkpt lat="42.24783941946148" lon="8.657220541869483"><ele>463.99999999999994</ele><time>2026-05-01T15:14:55Z</time></trkpt><trkpt lat="42.247831568148754" lon="8.65713102479656"><ele>464.0</ele><time>2026-05-01T15:14:56Z</time></trkpt><trkpt lat="42.247868333643005" lon="8.65700159705363"><ele>464.0</ele><time>2026-05-01T15:14:58Z</time></trkpt><trkpt lat="42.247864561227814" lon="8.656916472419427"><ele>464.0</ele><time>2026-05-01T15:15:00Z</time></trkpt><trkpt lat="42.24779239604038" lon="8.656802750287374"><ele>463.99999999999994</ele><time>2026-05-01T15:15:03.001Z</time></trkpt><trkpt lat="42.24771853463527" lon="8.656786920019135"><ele>464.0</ele><time>2026-05-01T15:15:06.001Z</time></trkpt><trkpt lat="42.24760465689892" lon="8.65680328822502"><ele>463.8333333333333</ele><time>2026-05-01T15:15:08.001Z</time></trkpt><trkpt lat="42.24752401208733" lon="8.656814077759497"><ele>463.66666666666663</ele><time>2026-05-01T15:15:09.001Z</time></trkpt><trkpt lat="42.247461748007886" lon="8.656789434669331"><ele>463.5</ele><time>2026-05-01T15:15:10.001Z</time></trkpt><trkpt lat="42.247381168128804" lon="8.656669371391732"><ele>463.33333333333337</ele><time>2026-05-01T15:15:12.001Z</time></trkpt><trkpt lat="42.24738640771859" lon="8.656564530297372"><ele>463.1666666666667</ele><time>2026-05-01T15:15:13.001Z</time></trkpt><trkpt lat="42.24739185783061" lon="8.656457164747708"><ele>463.0</ele><time>2026-05-01T15:15:14.001Z</time></trkpt><trkpt lat="42.24741660758182" lon="8.656346765069795"><ele>463.00000000000006</ele><time>2026-05-01T15:15:15.001Z</time></trkpt><trkpt lat="42.247463291855254" lon="8.656237887346256"><ele>463.0</ele><time>2026-05-01T15:15:16.001Z</time></trkpt><trkpt lat="42.24751803320791" lon="8.656148608877453"><ele>463.0</ele><time>2026-05-01T15:15:17.001Z</time></trkpt><trkpt lat="42.24758465328187" lon="8.656107513767779"><ele>463.0</ele><time>2026-05-01T15:15:18.001Z</time></trkpt><trkpt lat="42.24765001353701" lon="8.656090694627183"><ele>463.00000000000006</ele><time>2026-05-01T15:15:19.001Z</time></trkpt><trkpt lat="42.247712562280405" lon="8.656071203642897"><ele>463.0</ele><time>2026-05-01T15:15:20.001Z</time></trkpt><trkpt lat="42.247798253860985" lon="8.655974335854486"><ele>464.00000000000006</ele><time>2026-05-01T15:15:22.001Z</time></trkpt><trkpt lat="42.24782022709187" lon="8.655806749407676"><ele>465.0</ele><time>2026-05-01T15:15:24.001Z</time></trkpt><trkpt lat="42.24782086600089" lon="8.655705787662"><ele>466.0</ele><time>2026-05-01T15:15:25.001Z</time></trkpt><trkpt lat="42.24782338028485" lon="8.655605602643401"><ele>467.0</ele><time>2026-05-01T15:15:26.001Z</time></trkpt><trkpt lat="42.24781604865614" lon="8.65550291131223"><ele>468.00000000000006</ele><time>2026-05-01T15:15:27.001Z</time></trkpt><trkpt lat="42.24779398245684" lon="8.655400154544473"><ele>469.0</ele><time>2026-05-01T15:15:28.001Z</time></trkpt><trkpt lat="42.24776592444148" lon="8.655292960647643"><ele>468.00000000000006</ele><time>2026-05-01T15:15:29.001Z</time></trkpt><trkpt lat="42.2477278640564" lon="8.655187134950111"><ele>467.0</ele><time>2026-05-01T15:15:30.001Z</time></trkpt><trkpt lat="42.247692456443176" lon="8.655091765513216"><ele>466.0</ele><time>2026-05-01T15:15:31.002Z</time></trkpt><trkpt lat="42.24765834622609" lon="8.655002248939148"><ele>465.0</ele><time>2026-05-01T15:15:32.002Z</time></trkpt><trkpt lat="42.2476179922316" lon="8.65491400715519"><ele>464.00000000000006</ele><time>2026-05-01T15:15:33.002Z</time></trkpt><trkpt lat="42.247581868795734" lon="8.654831149981721"><ele>463.0</ele><time>2026-05-01T15:15:34.002Z</time></trkpt><trkpt lat="42.24752447309916" lon="8.654696927509745"><ele>463.0</ele><time>2026-05-01T15:15:36.002Z</time></trkpt><trkpt lat="42.247447401252195" lon="8.654599704377432"><ele>462.99999999999994</ele><time>2026-05-01T15:15:38.002Z</time></trkpt><trkpt lat="42.247385657467916" lon="8.654565383517735"><ele>462.99999999999994</ele><time>2026-05-01T15:15:39.002Z</time></trkpt><trkpt lat="42.24730350689519" lon="8.654559176505291"><ele>463.0</ele><time>2026-05-01T15:15:40.002Z</time></trkpt><trkpt lat="42.24719726390899" lon="8.654548332178717"><ele>463.0</ele><time>2026-05-01T15:15:41.002Z</time></trkpt><trkpt lat="42.24707983167833" lon="8.65459864529869"><ele>467.4</ele><time>2026-05-01T15:15:42.002Z</time></trkpt><trkpt lat="42.24697303161965" lon="8.654646978697208"><ele>471.79999999999995</ele><time>2026-05-01T15:15:43.002Z</time></trkpt><trkpt lat="42.24687565085879" lon="8.65466384504351"><ele>476.2</ele><time>2026-05-01T15:15:44.002Z</time></trkpt><trkpt lat="42.246799845986" lon="8.654613722566666"><ele>480.6</ele><time>2026-05-01T15:15:45.002Z</time></trkpt><trkpt lat="42.24674581678253" lon="8.654517774383336"><ele>485.0</ele><time>2026-05-01T15:15:46.002Z</time></trkpt><trkpt lat="42.246681105022745" lon="8.654392826938357"><ele>478.2</ele><time>2026-05-01T15:15:47.002Z</time></trkpt><trkpt lat="42.2466030463961" lon="8.654301357254784"><ele>471.4</ele><time>2026-05-01T15:15:48.002Z</time></trkpt><trkpt lat="42.246517583694235" lon="8.654247753921167"><ele>464.6</ele><time>2026-05-01T15:15:49.002Z</time></trkpt><trkpt lat="42.246423976743635" lon="8.654268540851096"><ele>457.8</ele><time>2026-05-01T15:15:50.002Z</time></trkpt><trkpt lat="42.24633125656371" lon="8.654331357975568"><ele>451.0</ele><time>2026-05-01T15:15:51.002Z</time></trkpt><trkpt lat="42.246221298020444" lon="8.654314957247566"><ele>451.0</ele><time>2026-05-01T15:15:52.002Z</time></trkpt><trkpt lat="42.24610203777645" lon="8.65426732424101"><ele>451.0</ele><time>2026-05-01T15:15:53.002Z</time></trkpt><trkpt lat="42.24596471884982" lon="8.654243550219157"><ele>451.0</ele><time>2026-05-01T15:15:54.002Z</time></trkpt><trkpt lat="42.245828076317515" lon="8.654189280792872"><ele>451.0</ele><time>2026-05-01T15:15:55.002Z</time></trkpt><trkpt lat="42.24569901590268" lon="8.654151225658563"><ele>455.6</ele><time>2026-05-01T15:15:56.002Z</time></trkpt><trkpt lat="42.24558992999718" lon="8.654103510716384"><ele>460.20000000000005</ele><time>2026-05-01T15:15:57.002Z</time></trkpt><trkpt lat="42.245497458085566" lon="8.654040610161026"><ele>464.79999999999995</ele><time>2026-05-01T15:15:58.002Z</time></trkpt><trkpt lat="42.24544885284976" lon="8.653925155695404"><ele>469.4</ele><time>2026-05-01T15:15:59.002Z</time></trkpt><trkpt lat="42.245378878885745" lon="8.653836410722121"><ele>474.0</ele><time>2026-05-01T15:16:00.002Z</time></trkpt><trkpt lat="42.24531619724131" lon="8.653751739435501"><ele>474.0</ele><time>2026-05-01T15:16:01.002Z</time></trkpt><trkpt lat="42.24520536073125" lon="8.653726096234598"><ele>474.0</ele><time>2026-05-01T15:16:02.002Z</time></trkpt><trkpt lat="42.24506775842049" lon="8.653738521446561"><ele>474.0</ele><time>2026-05-01T15:16:03.002Z</time></trkpt><trkpt lat="42.24492376496126" lon="8.653743377063485"><ele>474.0</ele><time>2026-05-01T15:16:04.003Z</time></trkpt><trkpt lat="42.24477296879236" lon="8.65372495247436"><ele>473.0</ele><time>2026-05-01T15:16:05.003Z</time></trkpt><trkpt lat="42.24461836319192" lon="8.653705410087964"><ele>472.0</ele><time>2026-05-01T15:16:06.003Z</time></trkpt><trkpt lat="42.24446022670717" lon="8.653700263191691"><ele>471.0</ele><time>2026-05-01T15:16:07.003Z</time></trkpt><trkpt lat="42.244305964166294" lon="8.65369652622027"><ele>471.0</ele><time>2026-05-01T15:16:08.003Z</time></trkpt><trkpt lat="42.24417164908288" lon="8.653677892566696"><ele>471.0</ele><time>2026-05-01T15:16:09.003Z</time></trkpt><trkpt lat="42.244058301893524" lon="8.653661568495357"><ele>471.0</ele><time>2026-05-01T15:16:10.003Z</time></trkpt><trkpt lat="42.24396028322488" lon="8.653685920849076"><ele>471.0</ele><time>2026-05-01T15:16:11.003Z</time></trkpt><trkpt lat="42.243864103207656" lon="8.65376452764371"><ele>468.75</ele><time>2026-05-01T15:16:12.003Z</time></trkpt><trkpt lat="42.24375410485766" lon="8.653850538491712"><ele>466.5</ele><time>2026-05-01T15:16:13.003Z</time></trkpt><trkpt lat="42.24362903487956" lon="8.653930559955562"><ele>464.25</ele><time>2026-05-01T15:16:14.003Z</time></trkpt><trkpt lat="42.24349676057203" lon="8.65400856478799"><ele>462.0</ele><time>2026-05-01T15:16:15.003Z</time></trkpt><trkpt lat="42.243372574625944" lon="8.654121913951663"><ele>462.0</ele><time>2026-05-01T15:16:16.003Z</time></trkpt><trkpt lat="42.24325189984874" lon="8.654241000231995"><ele>462.0</ele><time>2026-05-01T15:16:17.003Z</time></trkpt><trkpt lat="42.243148488733496" lon="8.654340346203472"><ele>462.0</ele><time>2026-05-01T15:16:18.003Z</time></trkpt><trkpt lat="42.24305562404064" lon="8.654417303690352"><ele>462.0</ele><time>2026-05-01T15:16:19.003Z</time></trkpt><trkpt lat="42.24296321325609" lon="8.654443035665249"><ele>465.0</ele><time>2026-05-01T15:16:20.003Z</time></trkpt><trkpt lat="42.242880207044315" lon="8.654416134182867"><ele>468.0</ele><time>2026-05-01T15:16:21.003Z</time></trkpt><trkpt lat="42.24281735508742" lon="8.654285048945358"><ele>471.0</ele><time>2026-05-01T15:16:22.003Z</time></trkpt><trkpt lat="42.242792990876055" lon="8.654108443458485"><ele>474.0</ele><time>2026-05-01T15:16:23.003Z</time></trkpt><trkpt lat="42.24277533236662" lon="8.6539040726998"><ele>474.0</ele><time>2026-05-01T15:16:24.003Z</time></trkpt><trkpt lat="42.24274370803137" lon="8.653663952149904"><ele>474.0</ele><time>2026-05-01T15:16:25.003Z</time></trkpt><trkpt lat="42.242733447756066" lon="8.65340711610791"><ele>474.0</ele><time>2026-05-01T15:16:26.003Z</time></trkpt><trkpt lat="42.24271600954186" lon="8.653184370352545"><ele>472.0</ele><time>2026-05-01T15:16:27.003Z</time></trkpt><trkpt lat="42.24269606554055" lon="8.653010065752682"><ele>470.0</ele><time>2026-05-01T15:16:28.003Z</time></trkpt><trkpt lat="42.24265872833689" lon="8.652889013383781"><ele>468.0</ele><time>2026-05-01T15:16:29.003Z</time></trkpt><trkpt lat="42.24258804188406" lon="8.652834921117131"><ele>466.0</ele><time>2026-05-01T15:16:29.998Z</time></trkpt><trkpt lat="42.242490068428374" lon="8.652877763712846"><ele>464.0</ele><time>2026-05-01T15:16:30.998Z</time></trkpt><trkpt lat="42.24239247976839" lon="8.652995040220498"><ele>464.0</ele><time>2026-05-01T15:16:31.998Z</time></trkpt><trkpt lat="42.24229861515577" lon="8.653178192476028"><ele>464.0</ele><time>2026-05-01T15:16:32.998Z</time></trkpt><trkpt lat="42.2421849213731" lon="8.653374387511835"><ele>464.0</ele><time>2026-05-01T15:16:33.998Z</time></trkpt><trkpt lat="42.24208441986573" lon="8.65350529232894"><ele>467.5</ele><time>2026-05-01T15:16:34.998Z</time></trkpt><trkpt lat="42.24198536474053" lon="8.653529223074948"><ele>471.0</ele><time>2026-05-01T15:16:35.998Z</time></trkpt><trkpt lat="42.2419225425725" lon="8.653455002020356"><ele>474.5</ele><time>2026-05-01T15:16:36.998Z</time></trkpt><trkpt lat="42.2418673341053" lon="8.65331112448073"><ele>478.0</ele><time>2026-05-01T15:16:37.999Z</time></trkpt><trkpt lat="42.24174810913014" lon="8.653150185440566"><ele>478.0</ele><time>2026-05-01T15:16:38.999Z</time></trkpt><trkpt lat="42.2416176968509" lon="8.652964917624859"><ele>478.0</ele><time>2026-05-01T15:16:39.999Z</time></trkpt><trkpt lat="42.241479577729805" lon="8.652789515732803"><ele>478.0</ele><time>2026-05-01T15:16:40.999Z</time></trkpt><trkpt lat="42.24132641638446" lon="8.65264115931239"><ele>476.6666666666667</ele><time>2026-05-01T15:16:41.999Z</time></trkpt><trkpt lat="42.24116755745963" lon="8.652523718616346"><ele>475.33333333333337</ele><time>2026-05-01T15:16:42.999Z</time></trkpt><trkpt lat="42.24102597219527" lon="8.65243900252259"><ele>474.0</ele><time>2026-05-01T15:16:43.999Z</time></trkpt><trkpt lat="42.2408946689955" lon="8.652371107114021"><ele>474.0</ele><time>2026-05-01T15:16:44.999Z</time></trkpt><trkpt lat="42.240761485775735" lon="8.652333933357676"><ele>474.0</ele><time>2026-05-01T15:16:45.999Z</time></trkpt><trkpt lat="42.24061950817986" lon="8.652330190801601"><ele>474.0</ele><time>2026-05-01T15:16:46.999Z</time></trkpt><trkpt lat="42.24046072119292" lon="8.65235868471613"><ele>474.0</ele><time>2026-05-01T15:16:47.999Z</time></trkpt><trkpt lat="42.24029039629951" lon="8.652398666032754"><ele>475.0</ele><time>2026-05-01T15:16:48.999Z</time></trkpt><trkpt lat="42.240115747992974" lon="8.652421329240191"><ele>476.0</ele><time>2026-05-01T15:16:49.999Z</time></trkpt><trkpt lat="42.23993838510407" lon="8.652480076612644"><ele>477.0</ele><time>2026-05-01T15:16:51Z</time></trkpt><trkpt lat="42.23975052397906" lon="8.652530921275703"><ele>477.0</ele><time>2026-05-01T15:16:52Z</time></trkpt><trkpt lat="42.23955267967859" lon="8.652583842794533"><ele>477.0</ele><time>2026-05-01T15:16:53Z</time></trkpt><trkpt lat="42.23936409969413" lon="8.65262807908562"><ele>477.0</ele><time>2026-05-01T15:16:54Z</time></trkpt><trkpt lat="42.23919769796245" lon="8.652626143513993"><ele>477.0</ele><time>2026-05-01T15:16:55Z</time></trkpt><trkpt lat="42.23907232891193" lon="8.652586256224028"><ele>477.00000000000006</ele><time>2026-05-01T15:16:56Z</time></trkpt><trkpt lat="42.23902348853684" lon="8.652496404597148"><ele>477.00000000000006</ele><time>2026-05-01T15:16:57Z</time></trkpt><trkpt lat="42.23902370415798" lon="8.652399215972068"><ele>477.0</ele><time>2026-05-01T15:16:58Z</time></trkpt><trkpt lat="42.23903104014087" lon="8.652267548155715"><ele>477.0</ele><time>2026-05-01T15:16:59Z</time></trkpt><trkpt lat="42.23915891156633" lon="8.652151927307047"><ele>477.0</ele><time>2026-05-01T15:17:00Z</time></trkpt><trkpt lat="42.239289412721305" lon="8.652018130908038"><ele>477.0</ele><time>2026-05-01T15:17:01Z</time></trkpt><trkpt lat="42.239389378523235" lon="8.651882602907268"><ele>477.0</ele><time>2026-05-01T15:17:02Z</time></trkpt><trkpt lat="42.239432516665815" lon="8.651689627509704"><ele>478.0</ele><time>2026-05-01T15:17:03Z</time></trkpt><trkpt lat="42.23942902981028" lon="8.651454615668008"><ele>479.0</ele><time>2026-05-01T15:17:04Z</time></trkpt><trkpt lat="42.23943963868472" lon="8.651227414654"><ele>480.0</ele><time>2026-05-01T15:17:05Z</time></trkpt><trkpt lat="42.23954214253202" lon="8.651052064473202"><ele>482.66666666666663</ele><time>2026-05-01T15:17:06Z</time></trkpt><trkpt lat="42.23963629419481" lon="8.650849942368279"><ele>485.3333333333333</ele><time>2026-05-01T15:17:07Z</time></trkpt><trkpt lat="42.23978954821359" lon="8.650764867261005"><ele>488.0</ele><time>2026-05-01T15:17:08Z</time></trkpt><trkpt lat="42.23991225924738" lon="8.650665143463769"><ele>485.3333333333333</ele><time>2026-05-01T15:17:09.001Z</time></trkpt><trkpt lat="42.24001140145254" lon="8.650521868983427"><ele>482.66666666666663</ele><time>2026-05-01T15:17:10.001Z</time></trkpt><trkpt lat="42.240073694968025" lon="8.650327554553895"><ele>480.0</ele><time>2026-05-01T15:17:11.001Z</time></trkpt><trkpt lat="42.24012108065887" lon="8.650101412342309"><ele>480.0</ele><time>2026-05-01T15:17:12.001Z</time></trkpt><trkpt lat="42.24018812744806" lon="8.649890478498937"><ele>480.0</ele><time>2026-05-01T15:17:13.001Z</time></trkpt><trkpt lat="42.24025706570827" lon="8.649691267943215"><ele>480.0</ele><time>2026-05-01T15:17:14.001Z</time></trkpt><trkpt lat="42.24031246955362" lon="8.649498324834537"><ele>482.66666666666663</ele><time>2026-05-01T15:17:15.001Z</time></trkpt><trkpt lat="42.24033920962597" lon="8.64928557246187"><ele>485.3333333333333</ele><time>2026-05-01T15:17:16.001Z</time></trkpt><trkpt lat="42.24033290276171" lon="8.649062584099838"><ele>488.0</ele><time>2026-05-01T15:17:17.001Z</time></trkpt><trkpt lat="42.240310729138734" lon="8.648835626196668"><ele>486.3333333333333</ele><time>2026-05-01T15:17:18.001Z</time></trkpt><trkpt lat="42.24027481921417" lon="8.648602531693411"><ele>484.66666666666663</ele><time>2026-05-01T15:17:19.001Z</time></trkpt><trkpt lat="42.24023129855235" lon="8.648367992053133"><ele>483.0</ele><time>2026-05-01T15:17:20.001Z</time></trkpt><trkpt lat="42.2402009036355" lon="8.648148844036612"><ele>483.0</ele><time>2026-05-01T15:17:21.001Z</time></trkpt><trkpt lat="42.24024828969011" lon="8.647964859872134"><ele>483.0</ele><time>2026-05-01T15:17:22.001Z</time></trkpt><trkpt lat="42.24035027287586" lon="8.647807610956193"><ele>483.0</ele><time>2026-05-01T15:17:23.001Z</time></trkpt><trkpt lat="42.24040652998228" lon="8.647595057896357"><ele>486.66666666666663</ele><time>2026-05-01T15:17:24.001Z</time></trkpt><trkpt lat="42.24047372801258" lon="8.647377554070932"><ele>490.3333333333333</ele><time>2026-05-01T15:17:25.001Z</time></trkpt><trkpt lat="42.24048209916322" lon="8.647164772506516"><ele>494.0</ele><time>2026-05-01T15:17:26.001Z</time></trkpt><trkpt lat="42.24045182769548" lon="8.646922379898745"><ele>494.0</ele><time>2026-05-01T15:17:27.001Z</time></trkpt><trkpt lat="42.240437559799645" lon="8.64666069498627"><ele>494.0</ele><time>2026-05-01T15:17:28.001Z</time></trkpt><trkpt lat="42.2404924491203" lon="8.646383520952105"><ele>494.0</ele><time>2026-05-01T15:17:29.001Z</time></trkpt><trkpt lat="42.24048643072863" lon="8.64610153004841"><ele>491.3333333333333</ele><time>2026-05-01T15:17:30.001Z</time></trkpt><trkpt lat="42.24048171365688" lon="8.64584216095066"><ele>488.66666666666663</ele><time>2026-05-01T15:17:31.001Z</time></trkpt><trkpt lat="42.24050220439835" lon="8.64561751423776"><ele>486.0</ele><time>2026-05-01T15:17:32.001Z</time></trkpt><trkpt lat="42.24053004567851" lon="8.645414167614677"><ele>486.20000000000005</ele><time>2026-05-01T15:17:33.001Z</time></trkpt><trkpt lat="42.24052066131019" lon="8.64525850700509"><ele>486.40000000000003</ele><time>2026-05-01T15:17:34.001Z</time></trkpt><trkpt lat="42.240479096568194" lon="8.645141854412925"><ele>486.6</ele><time>2026-05-01T15:17:35.001Z</time></trkpt><trkpt lat="42.240406068290426" lon="8.64504092252386"><ele>486.8</ele><time>2026-05-01T15:17:36.002Z</time></trkpt><trkpt lat="42.240410891397815" lon="8.644917326551456"><ele>487.0</ele><time>2026-05-01T15:17:37.002Z</time></trkpt><trkpt lat="42.24045088294468" lon="8.644784764628499"><ele>487.0</ele><time>2026-05-01T15:17:38.002Z</time></trkpt><trkpt lat="42.24046735547822" lon="8.644601380246373"><ele>487.0</ele><time>2026-05-01T15:17:39.002Z</time></trkpt><trkpt lat="42.24046728593249" lon="8.644399102999282"><ele>487.0</ele><time>2026-05-01T15:17:40.002Z</time></trkpt><trkpt lat="42.24046984477256" lon="8.644205883607292"><ele>487.0</ele><time>2026-05-01T15:17:41.002Z</time></trkpt><trkpt lat="42.24050047654635" lon="8.644037854821834"><ele>485.0</ele><time>2026-05-01T15:17:42.002Z</time></trkpt><trkpt lat="42.240525630360914" lon="8.643885243764744"><ele>483.0</ele><time>2026-05-01T15:17:43.002Z</time></trkpt><trkpt lat="42.240508303892625" lon="8.64371912320039"><ele>481.0</ele><time>2026-05-01T15:17:44.002Z</time></trkpt><trkpt lat="42.24045829962611" lon="8.643537963873593"><ele>479.0</ele><time>2026-05-01T15:17:45.002Z</time></trkpt><trkpt lat="42.24041167471199" lon="8.643354705469656"><ele>477.75</ele><time>2026-05-01T15:17:46.002Z</time></trkpt><trkpt lat="42.24036464009556" lon="8.643182126199257"><ele>476.5</ele><time>2026-05-01T15:17:47.002Z</time></trkpt><trkpt lat="42.24029633949591" lon="8.64304440843994"><ele>475.25</ele><time>2026-05-01T15:17:48.002Z</time></trkpt><trkpt lat="42.24021049201754" lon="8.642943207480217"><ele>474.0</ele><time>2026-05-01T15:17:49.002Z</time></trkpt><trkpt lat="42.24013157638641" lon="8.642846013970582"><ele>471.79999999999995</ele><time>2026-05-01T15:17:50.002Z</time></trkpt><trkpt lat="42.240073584207536" lon="8.642733112268738"><ele>469.59999999999997</ele><time>2026-05-01T15:17:51.002Z</time></trkpt><trkpt lat="42.24006643821861" lon="8.64260310341512"><ele>467.4</ele><time>2026-05-01T15:17:52.002Z</time></trkpt><trkpt lat="42.240068639127244" lon="8.642489040729714"><ele>465.2</ele><time>2026-05-01T15:17:53.002Z</time></trkpt><trkpt lat="42.24005302811561" lon="8.642361301973246"><ele>463.0</ele><time>2026-05-01T15:17:54.002Z</time></trkpt><trkpt lat="42.24004221159243" lon="8.642209765808992"><ele>463.0</ele><time>2026-05-01T15:17:55.002Z</time></trkpt><trkpt lat="42.24001368669468" lon="8.642051975312105"><ele>463.0</ele><time>2026-05-01T15:17:56.002Z</time></trkpt><trkpt lat="42.23998568339794" lon="8.641892618438504"><ele>463.0</ele><time>2026-05-01T15:17:57.002Z</time></trkpt><trkpt lat="42.23990203561382" lon="8.641780554742239"><ele>463.0</ele><time>2026-05-01T15:17:58.002Z</time></trkpt><trkpt lat="42.23983605355738" lon="8.641673309556976"><ele>463.83333333333337</ele><time>2026-05-01T15:17:59.002Z</time></trkpt><trkpt lat="42.23977073350492" lon="8.641594897676129"><ele>464.6666666666667</ele><time>2026-05-01T15:18:00.002Z</time></trkpt><trkpt lat="42.23972822157204" lon="8.641528183870353"><ele>465.5</ele><time>2026-05-01T15:18:01.002Z</time></trkpt><trkpt lat="42.23964735247951" lon="8.64139682227366"><ele>466.33333333333337</ele><time>2026-05-01T15:18:03.002Z</time></trkpt><trkpt lat="42.239602842251465" lon="8.641331490279557"><ele>467.1666666666667</ele><time>2026-05-01T15:18:04.002Z</time></trkpt><trkpt lat="42.239547415378844" lon="8.64126434062404"><ele>468.0</ele><time>2026-05-01T15:18:05.002Z</time></trkpt><trkpt lat="42.23948407068695" lon="8.641188525074433"><ele>465.0</ele><time>2026-05-01T15:18:06.002Z</time></trkpt><trkpt lat="42.23941342953212" lon="8.641114926324281"><ele>462.0</ele><time>2026-05-01T15:18:07.002Z</time></trkpt><trkpt lat="42.239341187463296" lon="8.641043937285238"><ele>459.0</ele><time>2026-05-01T15:18:08.003Z</time></trkpt><trkpt lat="42.23927275649621" lon="8.640969848020875"><ele>456.0</ele><time>2026-05-01T15:18:09.003Z</time></trkpt><trkpt lat="42.239201859772336" lon="8.64092210081907"><ele>453.0</ele><time>2026-05-01T15:18:10.003Z</time></trkpt><trkpt lat="42.23913521490289" lon="8.640853124779248"><ele>450.0</ele><time>2026-05-01T15:18:11.003Z</time></trkpt><trkpt lat="42.239068624778895" lon="8.640806645122614"><ele>450.0</ele><time>2026-05-01T15:18:12.003Z</time></trkpt><trkpt lat="42.239006871355414" lon="8.640742864042165"><ele>450.0</ele><time>2026-05-01T15:18:13.003Z</time></trkpt><trkpt lat="42.23894144071269" lon="8.640670983887032"><ele>450.0</ele><time>2026-05-01T15:18:14.003Z</time></trkpt><trkpt lat="42.23890333511351" lon="8.64056339642031"><ele>450.0</ele><time>2026-05-01T15:18:15.003Z</time></trkpt><trkpt lat="42.23887705316155" lon="8.640450417586393"><ele>450.0</ele><time>2026-05-01T15:18:16.003Z</time></trkpt><trkpt lat="42.238861687837776" lon="8.640337548424608"><ele>450.0</ele><time>2026-05-01T15:18:17.003Z</time></trkpt><trkpt lat="42.23885515771648" lon="8.64023146543227"><ele>451.3333333333333</ele><time>2026-05-01T15:18:18.003Z</time></trkpt><trkpt lat="42.238839998874326" lon="8.640138088898144"><ele>452.66666666666663</ele><time>2026-05-01T15:18:19.003Z</time></trkpt><trkpt lat="42.23880235928476" lon="8.640054967080873"><ele>454.0</ele><time>2026-05-01T15:18:20.003Z</time></trkpt><trkpt lat="42.23876908311002" lon="8.639968813230825"><ele>455.3333333333333</ele><time>2026-05-01T15:18:21.003Z</time></trkpt><trkpt lat="42.23871123473961" lon="8.639897794556287"><ele>456.66666666666663</ele><time>2026-05-01T15:18:22.003Z</time></trkpt><trkpt lat="42.238652297048006" lon="8.639836841445188"><ele>458.0</ele><time>2026-05-01T15:18:23.003Z</time></trkpt><trkpt lat="42.23858613916126" lon="8.639766507948577"><ele>457.99999999999994</ele><time>2026-05-01T15:18:24.003Z</time></trkpt><trkpt lat="42.23852569217272" lon="8.639699665685116"><ele>458.0</ele><time>2026-05-01T15:18:25.003Z</time></trkpt><trkpt lat="42.23847025516417" lon="8.639638856369231"><ele>458.0</ele><time>2026-05-01T15:18:26.003Z</time></trkpt><trkpt lat="42.23841653486484" lon="8.639582626985234"><ele>458.0</ele><time>2026-05-01T15:18:27.003Z</time></trkpt><trkpt lat="42.23836401638545" lon="8.639532293470303"><ele>457.99999999999994</ele><time>2026-05-01T15:18:28.003Z</time></trkpt><trkpt lat="42.23830271086286" lon="8.639499455202227"><ele>458.0</ele><time>2026-05-01T15:18:29.003Z</time></trkpt><trkpt lat="42.23820088518194" lon="8.639394450260086"><ele>456.99999999999994</ele><time>2026-05-01T15:18:31.003Z</time></trkpt><trkpt lat="42.238123468763156" lon="8.63935775145706"><ele>456.0</ele><time>2026-05-01T15:18:32.003Z</time></trkpt><trkpt lat="42.23803333188389" lon="8.639334915614095"><ele>455.0</ele><time>2026-05-01T15:18:33.003Z</time></trkpt><trkpt lat="42.23793321175552" lon="8.639341698121683"><ele>454.0</ele><time>2026-05-01T15:18:34.003Z</time></trkpt><trkpt lat="42.23785245421648" lon="8.639293249604272"><ele>452.99999999999994</ele><time>2026-05-01T15:18:35.003Z</time></trkpt><trkpt lat="42.2377878987777" lon="8.639247065519369"><ele>452.0</ele><time>2026-05-01T15:18:35.998Z</time></trkpt><trkpt lat="42.23773576796519" lon="8.639159667696134"><ele>452.0</ele><time>2026-05-01T15:18:36.998Z</time></trkpt><trkpt lat="42.23768385731628" lon="8.639054113225962"><ele>452.00000000000006</ele><time>2026-05-01T15:18:37.998Z</time></trkpt><trkpt lat="42.23764164984929" lon="8.638951108579933"><ele>452.00000000000006</ele><time>2026-05-01T15:18:38.998Z</time></trkpt><trkpt lat="42.23765361529079" lon="8.638844506866391"><ele>452.0</ele><time>2026-05-01T15:18:39.998Z</time></trkpt><trkpt lat="42.23772626704345" lon="8.638744157818252"><ele>452.0</ele><time>2026-05-01T15:18:40.998Z</time></trkpt><trkpt lat="42.23774940054974" lon="8.638625399376918"><ele>451.8</ele><time>2026-05-01T15:18:41.998Z</time></trkpt><trkpt lat="42.237790241308275" lon="8.638526896909475"><ele>451.6</ele><time>2026-05-01T15:18:42.998Z</time></trkpt><trkpt lat="42.23781068745083" lon="8.638431940097865"><ele>451.40000000000003</ele><time>2026-05-01T15:18:43.998Z</time></trkpt><trkpt lat="42.23783339870694" lon="8.638349127237127"><ele>451.20000000000005</ele><time>2026-05-01T15:18:44.998Z</time></trkpt><trkpt lat="42.23787806242605" lon="8.638198736901584"><ele>451.0</ele><time>2026-05-01T15:18:46.999Z</time></trkpt><trkpt lat="42.237928692492716" lon="8.638050886109184"><ele>451.00000000000006</ele><time>2026-05-01T15:18:48.999Z</time></trkpt><trkpt lat="42.23795797780615" lon="8.637960922948654"><ele>451.0</ele><time>2026-05-01T15:18:49.999Z</time></trkpt><trkpt lat="42.23798320147189" lon="8.637857706537204"><ele>451.0</ele><time>2026-05-01T15:18:50.999Z</time></trkpt><trkpt lat="42.23801700795601" lon="8.637749233266232"><ele>451.0</ele><time>2026-05-01T15:18:51.999Z</time></trkpt><trkpt lat="42.238046445274094" lon="8.637643286413573"><ele>451.00000000000006</ele><time>2026-05-01T15:18:52.999Z</time></trkpt><trkpt lat="42.238075496514504" lon="8.63754277958208"><ele>451.0</ele><time>2026-05-01T15:18:53.999Z</time></trkpt><trkpt lat="42.23810263030054" lon="8.6374525563705"><ele>450.6666666666667</ele><time>2026-05-01T15:18:54.999Z</time></trkpt><trkpt lat="42.2381294748052" lon="8.637351490027331"><ele>450.33333333333337</ele><time>2026-05-01T15:18:55.999Z</time></trkpt><trkpt lat="42.23815678168235" lon="8.637252920670118"><ele>450.0</ele><time>2026-05-01T15:18:56.999Z</time></trkpt><trkpt lat="42.23818033002357" lon="8.637152632723874"><ele>449.66666666666663</ele><time>2026-05-01T15:18:58Z</time></trkpt><trkpt lat="42.23821824028986" lon="8.637049343019282"><ele>449.3333333333333</ele><time>2026-05-01T15:18:59Z</time></trkpt><trkpt lat="42.23824829105498" lon="8.63696273094376"><ele>449.0</ele><time>2026-05-01T15:19:00Z</time></trkpt><trkpt lat="42.23827040041326" lon="8.636868901796051"><ele>448.49999999999994</ele><time>2026-05-01T15:19:01Z</time></trkpt><trkpt lat="42.23828883890039" lon="8.636785121259942"><ele>448.0</ele><time>2026-05-01T15:19:02Z</time></trkpt><trkpt lat="42.238292372259856" lon="8.636647021181744"><ele>447.5</ele><time>2026-05-01T15:19:04Z</time></trkpt><trkpt lat="42.238232224789364" lon="8.636547605290001"><ele>447.0</ele><time>2026-05-01T15:19:06Z</time></trkpt><trkpt lat="42.23814166692155" lon="8.636526406587551"><ele>446.49999999999994</ele><time>2026-05-01T15:19:08Z</time></trkpt><trkpt lat="42.238069021334496" lon="8.636520593491625"><ele>446.0</ele><time>2026-05-01T15:19:09Z</time></trkpt><trkpt lat="42.23800354708331" lon="8.636511486811946"><ele>446.0</ele><time>2026-05-01T15:19:10Z</time></trkpt><trkpt lat="42.237937453664856" lon="8.63650146059733"><ele>446.0</ele><time>2026-05-01T15:19:11Z</time></trkpt><trkpt lat="42.23786930453258" lon="8.636491710503766"><ele>446.0</ele><time>2026-05-01T15:19:12Z</time></trkpt><trkpt lat="42.23780151887782" lon="8.636486070956979"><ele>446.0</ele><time>2026-05-01T15:19:13Z</time></trkpt><trkpt lat="42.23772982018854" lon="8.63647891783773"><ele>446.0</ele><time>2026-05-01T15:19:14Z</time></trkpt><trkpt lat="42.23765448642017" lon="8.636474471501913"><ele>446.0</ele><time>2026-05-01T15:19:15.001Z</time></trkpt><trkpt lat="42.23757589587567" lon="8.636463210318729"><ele>446.0</ele><time>2026-05-01T15:19:16.001Z</time></trkpt><trkpt lat="42.237490101181855" lon="8.63643691259949"><ele>446.0</ele><time>2026-05-01T15:19:17.001Z</time></trkpt><trkpt lat="42.23741251927097" lon="8.63639791342774"><ele>446.0</ele><time>2026-05-01T15:19:18.001Z</time></trkpt><trkpt lat="42.237338138354865" lon="8.636324878229084"><ele>446.0</ele><time>2026-05-01T15:19:19.001Z</time></trkpt><trkpt lat="42.23728423474599" lon="8.636227055144651"><ele>446.0</ele><time>2026-05-01T15:19:20.001Z</time></trkpt><trkpt lat="42.23724641919899" lon="8.636103805861344"><ele>446.0</ele><time>2026-05-01T15:19:21.001Z</time></trkpt><trkpt lat="42.237245757879194" lon="8.63596925191955"><ele>449.0</ele><time>2026-05-01T15:19:22.001Z</time></trkpt><trkpt lat="42.23723869539957" lon="8.635827057719045"><ele>452.0</ele><time>2026-05-01T15:19:23.001Z</time></trkpt><trkpt lat="42.23723280595577" lon="8.635679864092484"><ele>455.0</ele><time>2026-05-01T15:19:24.001Z</time></trkpt><trkpt lat="42.23722676925492" lon="8.635528990440816"><ele>458.0</ele><time>2026-05-01T15:19:25.001Z</time></trkpt><trkpt lat="42.23721737192538" lon="8.635377126649841"><ele>461.0</ele><time>2026-05-01T15:19:26.001Z</time></trkpt><trkpt lat="42.23720402791396" lon="8.635234663476409"><ele>461.3333333333333</ele><time>2026-05-01T15:19:27.001Z</time></trkpt><trkpt lat="42.237220406539684" lon="8.635097818245395"><ele>461.66666666666663</ele><time>2026-05-01T15:19:28.001Z</time></trkpt><trkpt lat="42.237281599689986" lon="8.634989481148235"><ele>462.0</ele><time>2026-05-01T15:19:29.001Z</time></trkpt><trkpt lat="42.23733730406232" lon="8.634901647083488"><ele>462.33333333333337</ele><time>2026-05-01T15:19:30.001Z</time></trkpt><trkpt lat="42.23739121103088" lon="8.634854495425882"><ele>462.6666666666667</ele><time>2026-05-01T15:19:31.001Z</time></trkpt><trkpt lat="42.23744955559831" lon="8.634809134131396"><ele>463.0</ele><time>2026-05-01T15:19:32.001Z</time></trkpt><trkpt lat="42.237507641627786" lon="8.634739843280606"><ele>463.59999999999997</ele><time>2026-05-01T15:19:33.001Z</time></trkpt><trkpt lat="42.23758585397803" lon="8.634692061997344"><ele>464.19999999999993</ele><time>2026-05-01T15:19:34.001Z</time></trkpt><trkpt lat="42.237665776376126" lon="8.634637501479835"><ele>464.8</ele><time>2026-05-01T15:19:35.001Z</time></trkpt><trkpt lat="42.23774142266502" lon="8.634569752005401"><ele>465.4</ele><time>2026-05-01T15:19:36.001Z</time></trkpt><trkpt lat="42.237808478356314" lon="8.63447632278826"><ele>466.0</ele><time>2026-05-01T15:19:37.001Z</time></trkpt><trkpt lat="42.23786584147343" lon="8.634351109943209"><ele>466.0</ele><time>2026-05-01T15:19:38.001Z</time></trkpt><trkpt lat="42.23791853719696" lon="8.63421243727329"><ele>466.0</ele><time>2026-05-01T15:19:39.001Z</time></trkpt><trkpt lat="42.23796768836102" lon="8.634073051141629"><ele>466.0</ele><time>2026-05-01T15:19:40.001Z</time></trkpt><trkpt lat="42.23801608603357" lon="8.633932942792379"><ele>466.0</ele><time>2026-05-01T15:19:41.001Z</time></trkpt><trkpt lat="42.23805336815476" lon="8.6337876267011"><ele>466.0</ele><time>2026-05-01T15:19:42.002Z</time></trkpt><trkpt lat="42.238068672665364" lon="8.633642165135685"><ele>466.0</ele><time>2026-05-01T15:19:43.002Z</time></trkpt><trkpt lat="42.23804367880103" lon="8.633496371637978"><ele>466.0</ele><time>2026-05-01T15:19:44.002Z</time></trkpt><trkpt lat="42.23801999864593" lon="8.633371100991532"><ele>466.0</ele><time>2026-05-01T15:19:45.002Z</time></trkpt><trkpt lat="42.237971499691" lon="8.633266138508198"><ele>466.0</ele><time>2026-05-01T15:19:46.002Z</time></trkpt><trkpt lat="42.23790949302808" lon="8.633175782954629"><ele>466.8</ele><time>2026-05-01T15:19:47.002Z</time></trkpt><trkpt lat="42.23783667955407" lon="8.63309173938923"><ele>467.6</ele><time>2026-05-01T15:19:48.002Z</time></trkpt><trkpt lat="42.23776097261348" lon="8.633010868627752"><ele>468.4</ele><time>2026-05-01T15:19:49.002Z</time></trkpt><trkpt lat="42.23768044404866" lon="8.632931202241112"><ele>469.2</ele><time>2026-05-01T15:19:50.002Z</time></trkpt><trkpt lat="42.237598354226584" lon="8.632843542676946"><ele>470.0</ele><time>2026-05-01T15:19:51.002Z</time></trkpt><trkpt lat="42.23751668406331" lon="8.632764998542534"><ele>470.0</ele><time>2026-05-01T15:19:52.002Z</time></trkpt><trkpt lat="42.237439822621866" lon="8.632686201929983"><ele>470.0</ele><time>2026-05-01T15:19:53.002Z</time></trkpt><trkpt lat="42.23736653877514" lon="8.632599062613108"><ele>470.0</ele><time>2026-05-01T15:19:54.002Z</time></trkpt><trkpt lat="42.2373073328278" lon="8.632498426275692"><ele>470.0</ele><time>2026-05-01T15:19:55.002Z</time></trkpt><trkpt lat="42.2372596197661" lon="8.632383909117515"><ele>470.0</ele><time>2026-05-01T15:19:56.002Z</time></trkpt><trkpt lat="42.237258058407534" lon="8.632236472543864"><ele>474.5</ele><time>2026-05-01T15:19:57.002Z</time></trkpt><trkpt lat="42.23722725766693" lon="8.632074574521663"><ele>479.0</ele><time>2026-05-01T15:19:58.002Z</time></trkpt><trkpt lat="42.23721694424923" lon="8.631894806968647"><ele>483.5</ele><time>2026-05-01T15:19:59.002Z</time></trkpt><trkpt lat="42.23718846454331" lon="8.631718854662694"><ele>488.0</ele><time>2026-05-01T15:20:00.002Z</time></trkpt><trkpt lat="42.23714201751346" lon="8.63154264962555"><ele>488.5</ele><time>2026-05-01T15:20:01.002Z</time></trkpt><trkpt lat="42.237079858799994" lon="8.631368640518323"><ele>489.0</ele><time>2026-05-01T15:20:02.002Z</time></trkpt><trkpt lat="42.236995041032266" lon="8.631204809740167"><ele>489.5</ele><time>2026-05-01T15:20:03.002Z</time></trkpt><trkpt lat="42.23690837763764" lon="8.631067375433991"><ele>490.0</ele><time>2026-05-01T15:20:04.002Z</time></trkpt><trkpt lat="42.2368181356508" lon="8.630967017926508"><ele>488.75</ele><time>2026-05-01T15:20:05.002Z</time></trkpt><trkpt lat="42.23673181396527" lon="8.630864593501627"><ele>487.5</ele><time>2026-05-01T15:20:06.002Z</time></trkpt><trkpt lat="42.23663989112189" lon="8.630750912847422"><ele>486.25</ele><time>2026-05-01T15:20:07.002Z</time></trkpt><trkpt lat="42.236549323324695" lon="8.630631690573578"><ele>485.0</ele><time>2026-05-01T15:20:08.002Z</time></trkpt><trkpt lat="42.236456829353095" lon="8.630513801450583"><ele>487.5</ele><time>2026-05-01T15:20:09.002Z</time></trkpt><trkpt lat="42.23635989712166" lon="8.630392090387698"><ele>490.0</ele><time>2026-05-01T15:20:10.002Z</time></trkpt><trkpt lat="42.23626653913429" lon="8.63027021374138"><ele>492.5</ele><time>2026-05-01T15:20:11.002Z</time></trkpt><trkpt lat="42.23617072364287" lon="8.630142871624203"><ele>495.0</ele><time>2026-05-01T15:20:12.002Z</time></trkpt><trkpt lat="42.23606599327066" lon="8.630023224022905"><ele>495.0</ele><time>2026-05-01T15:20:13.002Z</time></trkpt><trkpt lat="42.23596403683502" lon="8.629862598795585"><ele>495.0</ele><time>2026-05-01T15:20:14.003Z</time></trkpt><trkpt lat="42.23585371474891" lon="8.62972489136157"><ele>495.0</ele><time>2026-05-01T15:20:15.003Z</time></trkpt><trkpt lat="42.23574775994626" lon="8.629592373952859"><ele>495.0</ele><time>2026-05-01T15:20:16.003Z</time></trkpt><trkpt lat="42.23564105941554" lon="8.62948361544719"><ele>495.0</ele><time>2026-05-01T15:20:17.003Z</time></trkpt><trkpt lat="42.23553078500012" lon="8.629371570448326"><ele>495.0</ele><time>2026-05-01T15:20:18.003Z</time></trkpt><trkpt lat="42.235394256787174" lon="8.629273918649712"><ele>495.0</ele><time>2026-05-01T15:20:19.003Z</time></trkpt><trkpt lat="42.235242872865975" lon="8.629181095727501"><ele>493.66666666666663</ele><time>2026-05-01T15:20:20.003Z</time></trkpt><trkpt lat="42.235089280448385" lon="8.629084503318674"><ele>492.3333333333333</ele><time>2026-05-01T15:20:21.003Z</time></trkpt><trkpt lat="42.234933420979424" lon="8.628982719986046"><ele>491.0</ele><time>2026-05-01T15:20:22.003Z</time></trkpt><trkpt lat="42.234772415282755" lon="8.628868149009525"><ele>494.66666666666663</ele><time>2026-05-01T15:20:23.003Z</time></trkpt><trkpt lat="42.23461696345075" lon="8.628749959865928"><ele>498.33333333333337</ele><time>2026-05-01T15:20:24.003Z</time></trkpt><trkpt lat="42.23446249633393" lon="8.628631460704444"><ele>502.0</ele><time>2026-05-01T15:20:25.003Z</time></trkpt><trkpt lat="42.234321196655884" lon="8.62852115182783"><ele>496.25</ele><time>2026-05-01T15:20:26.003Z</time></trkpt><trkpt lat="42.23418472754018" lon="8.628417198119367"><ele>490.5</ele><time>2026-05-01T15:20:27.003Z</time></trkpt><trkpt lat="42.23405498651542" lon="8.628321981888622"><ele>484.75</ele><time>2026-05-01T15:20:28.003Z</time></trkpt><trkpt lat="42.23392267618121" lon="8.628242472904834"><ele>479.0</ele><time>2026-05-01T15:20:29.003Z</time></trkpt><trkpt lat="42.233790732064314" lon="8.628185155812142"><ele>479.0</ele><time>2026-05-01T15:20:30.003Z</time></trkpt><trkpt lat="42.2336551816277" lon="8.628147639818815"><ele>479.0</ele><time>2026-05-01T15:20:31.003Z</time></trkpt><trkpt lat="42.23351519646271" lon="8.628129436120194"><ele>479.0</ele><time>2026-05-01T15:20:32.003Z</time></trkpt><trkpt lat="42.23336594989211" lon="8.628122234791602"><ele>479.0</ele><time>2026-05-01T15:20:33.003Z</time></trkpt><trkpt lat="42.23321053518318" lon="8.628120328783812"><ele>476.66666666666663</ele><time>2026-05-01T15:20:34.003Z</time></trkpt><trkpt lat="42.23304795609196" lon="8.628127643526353"><ele>474.33333333333337</ele><time>2026-05-01T15:20:35.003Z</time></trkpt><trkpt lat="42.23287624906341" lon="8.628149031106863"><ele>472.0</ele><time>2026-05-01T15:20:36.003Z</time></trkpt><trkpt lat="42.23270293712838" lon="8.628175051656404"><ele>472.0</ele><time>2026-05-01T15:20:37.003Z</time></trkpt><trkpt lat="42.23252042523542" lon="8.628206205869077"><ele>472.0</ele><time>2026-05-01T15:20:38.003Z</time></trkpt><trkpt lat="42.23233497638009" lon="8.628233703074105"><ele>472.0</ele><time>2026-05-01T15:20:39.003Z</time></trkpt><trkpt lat="42.23215673887893" lon="8.62825869223566"><ele>469.33333333333337</ele><time>2026-05-01T15:20:40.003Z</time></trkpt><trkpt lat="42.23197928759754" lon="8.62828204498932"><ele>466.66666666666663</ele><time>2026-05-01T15:20:41.003Z</time></trkpt><trkpt lat="42.231812195622055" lon="8.628303563703454"><ele>464.0</ele><time>2026-05-01T15:20:41.998Z</time></trkpt><trkpt lat="42.23164621963982" lon="8.628324445143752"><ele>464.0</ele><time>2026-05-01T15:20:42.998Z</time></trkpt><trkpt lat="42.231481613921204" lon="8.628340129205482"><ele>464.0</ele><time>2026-05-01T15:20:43.998Z</time></trkpt><trkpt lat="42.23132969303258" lon="8.6283020245989"><ele>464.0</ele><time>2026-05-01T15:20:44.998Z</time></trkpt><trkpt lat="42.23116898059249" lon="8.62826315624196"><ele>462.66666666666663</ele><time>2026-05-01T15:20:45.998Z</time></trkpt><trkpt lat="42.23101937849188" lon="8.628262228839866"><ele>461.33333333333337</ele><time>2026-05-01T15:20:46.998Z</time></trkpt><trkpt lat="42.23085924390651" lon="8.628234097128093"><ele>460.0</ele><time>2026-05-01T15:20:47.998Z</time></trkpt><trkpt lat="42.23072806626012" lon="8.628301491917655"><ele>459.6666666666667</ele><time>2026-05-01T15:20:48.998Z</time></trkpt><trkpt lat="42.230584573260295" lon="8.628419670485762"><ele>459.33333333333337</ele><time>2026-05-01T15:20:49.998Z</time></trkpt><trkpt lat="42.23044264128699" lon="8.628557953308384"><ele>459.0</ele><time>2026-05-01T15:20:50.999Z</time></trkpt><trkpt lat="42.23031722143439" lon="8.628727189976976"><ele>459.0</ele><time>2026-05-01T15:20:51.999Z</time></trkpt><trkpt lat="42.230217837147734" lon="8.628898773959959"><ele>459.0</ele><time>2026-05-01T15:20:52.999Z</time></trkpt><trkpt lat="42.23010504432931" lon="8.629031618189629"><ele>459.0</ele><time>2026-05-01T15:20:53.999Z</time></trkpt><trkpt lat="42.230016438889514" lon="8.629190023951043"><ele>459.0</ele><time>2026-05-01T15:20:54.999Z</time></trkpt><trkpt lat="42.22991770296873" lon="8.62931680358214"><ele>459.0</ele><time>2026-05-01T15:20:55.999Z</time></trkpt><trkpt lat="42.229845465995524" lon="8.629448000367653"><ele>459.0</ele><time>2026-05-01T15:20:56.999Z</time></trkpt><trkpt lat="42.22978064187082" lon="8.629586074799015"><ele>459.0</ele><time>2026-05-01T15:20:57.999Z</time></trkpt><trkpt lat="42.22972769095512" lon="8.629722902259482"><ele>459.5</ele><time>2026-05-01T15:20:58.999Z</time></trkpt><trkpt lat="42.229680834033815" lon="8.629856011730206"><ele>460.0</ele><time>2026-05-01T15:20:59.999Z</time></trkpt><trkpt lat="42.229633265411294" lon="8.630003056743535"><ele>460.5</ele><time>2026-05-01T15:21:00.999Z</time></trkpt><trkpt lat="42.229580157061235" lon="8.630165531863035"><ele>461.0</ele><time>2026-05-01T15:21:01.999Z</time></trkpt><trkpt lat="42.22951511682139" lon="8.630334452367043"><ele>461.0</ele><time>2026-05-01T15:21:03Z</time></trkpt><trkpt lat="42.22943272582353" lon="8.630497544493043"><ele>461.0</ele><time>2026-05-01T15:21:04Z</time></trkpt><trkpt lat="42.2293268126018" lon="8.630645198453314"><ele>461.0</ele><time>2026-05-01T15:21:05Z</time></trkpt><trkpt lat="42.22919667355121" lon="8.630760902118665"><ele>461.0</ele><time>2026-05-01T15:21:06Z</time></trkpt><trkpt lat="42.22904598409127" lon="8.630815663905201"><ele>461.0</ele><time>2026-05-01T15:21:07Z</time></trkpt><trkpt lat="42.22889537606431" lon="8.630833988211242"><ele>461.0</ele><time>2026-05-01T15:21:08Z</time></trkpt><trkpt lat="42.228738642465935" lon="8.630825881706544"><ele>461.3333333333333</ele><time>2026-05-01T15:21:09Z</time></trkpt><trkpt lat="42.22857862092137" lon="8.630829003099853"><ele>461.66666666666663</ele><time>2026-05-01T15:21:10Z</time></trkpt><trkpt lat="42.22842038577744" lon="8.630809225898906"><ele>462.0</ele><time>2026-05-01T15:21:11Z</time></trkpt><trkpt lat="42.228255984484065" lon="8.630795392711573"><ele>462.0</ele><time>2026-05-01T15:21:12Z</time></trkpt><trkpt lat="42.2280937581581" lon="8.63076556303258"><ele>462.0</ele><time>2026-05-01T15:21:13Z</time></trkpt><trkpt lat="42.227929064727626" lon="8.630723913736826"><ele>462.0</ele><time>2026-05-01T15:21:14Z</time></trkpt><trkpt lat="42.227759818104055" lon="8.630677605858775"><ele>462.0</ele><time>2026-05-01T15:21:15Z</time></trkpt><trkpt lat="42.22758519270613" lon="8.630645620486666"><ele>462.0</ele><time>2026-05-01T15:21:16Z</time></trkpt><trkpt lat="42.22740670679061" lon="8.630634518547472"><ele>462.0</ele><time>2026-05-01T15:21:17Z</time></trkpt><trkpt lat="42.22722644398126" lon="8.630642753670896"><ele>460.66666666666663</ele><time>2026-05-01T15:21:18Z</time></trkpt><trkpt lat="42.227045041178975" lon="8.630664537268729"><ele>459.3333333333333</ele><time>2026-05-01T15:21:19Z</time></trkpt><trkpt lat="42.22685546481614" lon="8.630673113491486"><ele>458.0</ele><time>2026-05-01T15:21:20Z</time></trkpt><trkpt lat="42.22667165766396" lon="8.630724175155335"><ele>458.0</ele><time>2026-05-01T15:21:21.001Z</time></trkpt><trkpt lat="42.226483726630434" lon="8.63075242429224"><ele>458.0</ele><time>2026-05-01T15:21:22.001Z</time></trkpt><trkpt lat="42.22630659937859" lon="8.630776288339474"><ele>458.0</ele><time>2026-05-01T15:21:23.001Z</time></trkpt><trkpt lat="42.22614049588024" lon="8.630785779431763"><ele>457.3333333333333</ele><time>2026-05-01T15:21:24.001Z</time></trkpt><trkpt lat="42.225974700335" lon="8.630771207382418"><ele>456.66666666666663</ele><time>2026-05-01T15:21:25.001Z</time></trkpt><trkpt lat="42.225808765953374" lon="8.630704759081738"><ele>456.0</ele><time>2026-05-01T15:21:26.001Z</time></trkpt><trkpt lat="42.22563985716997" lon="8.630686828811038"><ele>455.33333333333337</ele><time>2026-05-01T15:21:27.001Z</time></trkpt><trkpt lat="42.22546902504415" lon="8.630676447984849"><ele>454.6666666666667</ele><time>2026-05-01T15:21:28.001Z</time></trkpt><trkpt lat="42.22528694941495" lon="8.630698866840627"><ele>454.0</ele><time>2026-05-01T15:21:29.001Z</time></trkpt><trkpt lat="42.22510637064554" lon="8.630735825987687"><ele>454.0</ele><time>2026-05-01T15:21:30.001Z</time></trkpt><trkpt lat="42.22494456423212" lon="8.630774165569369"><ele>454.0</ele><time>2026-05-01T15:21:31.001Z</time></trkpt><trkpt lat="42.22479210536928" lon="8.630803443639865"><ele>454.0</ele><time>2026-05-01T15:21:32.001Z</time></trkpt><trkpt lat="42.22466461689986" lon="8.630835361956477"><ele>454.0</ele><time>2026-05-01T15:21:33.001Z</time></trkpt><trkpt lat="42.22454844195862" lon="8.630878281937939"><ele>456.5</ele><time>2026-05-01T15:21:34.001Z</time></trkpt><trkpt lat="42.22443640341575" lon="8.630931649840754"><ele>459.0</ele><time>2026-05-01T15:21:35.001Z</time></trkpt><trkpt lat="42.224318571668775" lon="8.630998519622631"><ele>461.5</ele><time>2026-05-01T15:21:36.001Z</time></trkpt><trkpt lat="42.22419428244028" lon="8.63108062178504"><ele>464.0</ele><time>2026-05-01T15:21:37.001Z</time></trkpt><trkpt lat="42.224076038412974" lon="8.631170344677978"><ele>457.0</ele><time>2026-05-01T15:21:38.001Z</time></trkpt><trkpt lat="42.22397083052223" lon="8.631262305745864"><ele>450.0</ele><time>2026-05-01T15:21:39.001Z</time></trkpt><trkpt lat="42.2238717350349" lon="8.631373844330676"><ele>443.0</ele><time>2026-05-01T15:21:40.001Z</time></trkpt><trkpt lat="42.223776861084765" lon="8.631522460203568"><ele>436.0</ele><time>2026-05-01T15:21:41.001Z</time></trkpt><trkpt lat="42.22368893183399" lon="8.63170235606764"><ele>436.0</ele><time>2026-05-01T15:21:42.001Z</time></trkpt><trkpt lat="42.22360285078431" lon="8.631871222152556"><ele>436.0</ele><time>2026-05-01T15:21:43.001Z</time></trkpt><trkpt lat="42.223526380816665" lon="8.632025365462681"><ele>436.0</ele><time>2026-05-01T15:21:44.001Z</time></trkpt><trkpt lat="42.22345104451667" lon="8.632168815509928"><ele>436.0</ele><time>2026-05-01T15:21:45.001Z</time></trkpt><trkpt lat="42.22337420766128" lon="8.632299889913597"><ele>435.25</ele><time>2026-05-01T15:21:46.001Z</time></trkpt><trkpt lat="42.223272169042346" lon="8.632386731491742"><ele>434.5</ele><time>2026-05-01T15:21:47.001Z</time></trkpt><trkpt lat="42.223161299851554" lon="8.632471210049925"><ele>433.75</ele><time>2026-05-01T15:21:48.002Z</time></trkpt><trkpt lat="42.22301849448137" lon="8.632469010028505"><ele>433.0</ele><time>2026-05-01T15:21:49.002Z</time></trkpt><trkpt lat="42.22287922604678" lon="8.63250943469091"><ele>433.0</ele><time>2026-05-01T15:21:50.002Z</time></trkpt><trkpt lat="42.22275321550938" lon="8.632534878742815"><ele>433.0</ele><time>2026-05-01T15:21:51.002Z</time></trkpt><trkpt lat="42.22263314704028" lon="8.632569342642263"><ele>433.0</ele><time>2026-05-01T15:21:52.002Z</time></trkpt><trkpt lat="42.22252881719634" lon="8.632690706659751"><ele>433.0</ele><time>2026-05-01T15:21:53.002Z</time></trkpt><trkpt lat="42.222417290937194" lon="8.63281737937459"><ele>427.6666666666667</ele><time>2026-05-01T15:21:54.002Z</time></trkpt><trkpt lat="42.222307042256325" lon="8.632963328495574"><ele>422.33333333333337</ele><time>2026-05-01T15:21:55.002Z</time></trkpt><trkpt lat="42.22220679346809" lon="8.633117895988924"><ele>417.0</ele><time>2026-05-01T15:21:56.002Z</time></trkpt><trkpt lat="42.222122166123135" lon="8.633278414581792"><ele>417.0</ele><time>2026-05-01T15:21:57.002Z</time></trkpt><trkpt lat="42.22204712318597" lon="8.633462362737845"><ele>417.0</ele><time>2026-05-01T15:21:58.002Z</time></trkpt><trkpt lat="42.22197145144381" lon="8.633649983068192"><ele>417.0</ele><time>2026-05-01T15:21:59.002Z</time></trkpt><trkpt lat="42.22189908217427" lon="8.633824110539951"><ele>422.0</ele><time>2026-05-01T15:22:00.002Z</time></trkpt><trkpt lat="42.22183478845214" lon="8.634002302978958"><ele>427.0</ele><time>2026-05-01T15:22:01.002Z</time></trkpt><trkpt lat="42.22178610385341" lon="8.634199529485363"><ele>432.0</ele><time>2026-05-01T15:22:02.002Z</time></trkpt><trkpt lat="42.22175029847472" lon="8.634423261613415"><ele>432.0</ele><time>2026-05-01T15:22:03.002Z</time></trkpt><trkpt lat="42.22176046238494" lon="8.634524294323786"><ele>432.0</ele><time>2026-05-01T15:22:04.002Z</time></trkpt><trkpt lat="42.2217660674242" lon="8.634722747282787"><ele>432.0</ele><time>2026-05-01T15:22:05.002Z</time></trkpt><trkpt lat="42.22179032913481" lon="8.634913442368559"><ele>432.0</ele><time>2026-05-01T15:22:06.002Z</time></trkpt><trkpt lat="42.22185521252499" lon="8.635092519569245"><ele>432.0</ele><time>2026-05-01T15:22:07.002Z</time></trkpt><trkpt lat="42.221943564761304" lon="8.635266188675372"><ele>432.0</ele><time>2026-05-01T15:22:08.002Z</time></trkpt><trkpt lat="42.222028766739925" lon="8.635419272075273"><ele>432.0</ele><time>2026-05-01T15:22:09.002Z</time></trkpt><trkpt lat="42.222089617936646" lon="8.635568890093749"><ele>432.0</ele><time>2026-05-01T15:22:10.002Z</time></trkpt><trkpt lat="42.22209098130438" lon="8.635728610971764"><ele>430.0</ele><time>2026-05-01T15:22:11.002Z</time></trkpt><trkpt lat="42.222107827701336" lon="8.635935919553477"><ele>428.0</ele><time>2026-05-01T15:22:12.002Z</time></trkpt><trkpt lat="42.222128121943115" lon="8.63619236191592"><ele>426.0</ele><time>2026-05-01T15:22:13.002Z</time></trkpt><trkpt lat="42.22214994390204" lon="8.636479234109721"><ele>426.0</ele><time>2026-05-01T15:22:14.002Z</time></trkpt><trkpt lat="42.222181297775144" lon="8.636756720057512"><ele>426.0</ele><time>2026-05-01T15:22:15.002Z</time></trkpt><trkpt lat="42.22219798074505" lon="8.63702593043717"><ele>426.0</ele><time>2026-05-01T15:22:16.002Z</time></trkpt><trkpt lat="42.22223542745452" lon="8.637259981253226"><ele>425.33333333333337</ele><time>2026-05-01T15:22:17.002Z</time></trkpt><trkpt lat="42.222314072966086" lon="8.637457151879532"><ele>424.6666666666667</ele><time>2026-05-01T15:22:18.002Z</time></trkpt><trkpt lat="42.22244073764237" lon="8.637619998858247"><ele>424.0</ele><time>2026-05-01T15:22:19.002Z</time></trkpt><trkpt lat="42.222587470146514" lon="8.637777038581948"><ele>427.6666666666667</ele><time>2026-05-01T15:22:20.003Z</time></trkpt><trkpt lat="42.222643387453545" lon="8.638004988550648"><ele>431.33333333333337</ele><time>2026-05-01T15:22:21.003Z</time></trkpt><trkpt lat="42.222683988885194" lon="8.638253701818037"><ele>435.0</ele><time>2026-05-01T15:22:22.003Z</time></trkpt><trkpt lat="42.22272855780217" lon="8.638518122921283"><ele>435.33333333333337</ele><time>2026-05-01T15:22:23.003Z</time></trkpt><trkpt lat="42.2227677036885" lon="8.63877337587779"><ele>435.6666666666667</ele><time>2026-05-01T15:22:24.003Z</time></trkpt><trkpt lat="42.222760345383406" lon="8.638994598359275"><ele>436.0</ele><time>2026-05-01T15:22:25.003Z</time></trkpt><trkpt lat="42.22271034203862" lon="8.639176671740119"><ele>436.0</ele><time>2026-05-01T15:22:26.003Z</time></trkpt><trkpt lat="42.22261792350041" lon="8.639282559164359"><ele>436.0</ele><time>2026-05-01T15:22:27.003Z</time></trkpt><trkpt lat="42.22250519998689" lon="8.639369136678212"><ele>436.0</ele><time>2026-05-01T15:22:28.003Z</time></trkpt><trkpt lat="42.22239834453959" lon="8.639361879998694"><ele>436.0</ele><time>2026-05-01T15:22:29.003Z</time></trkpt><trkpt lat="42.22226163328537" lon="8.639347346357162"><ele>442.0</ele><time>2026-05-01T15:22:30.003Z</time></trkpt><trkpt lat="42.222102060524385" lon="8.63935594469394"><ele>448.0</ele><time>2026-05-01T15:22:31.003Z</time></trkpt><trkpt lat="42.221932253071" lon="8.639430271500535"><ele>454.0</ele><time>2026-05-01T15:22:32.003Z</time></trkpt><trkpt lat="42.221783630385296" lon="8.639563574156565"><ele>454.0</ele><time>2026-05-01T15:22:33.003Z</time></trkpt><trkpt lat="42.22160713961193" lon="8.63963543545658"><ele>454.0</ele><time>2026-05-01T15:22:34.003Z</time></trkpt><trkpt lat="42.221416406798454" lon="8.639691964067499"><ele>454.0</ele><time>2026-05-01T15:22:35.003Z</time></trkpt><trkpt lat="42.22121325750698" lon="8.639756116399218"><ele>446.6666666666667</ele><time>2026-05-01T15:22:36.003Z</time></trkpt><trkpt lat="42.221024935565715" lon="8.639837359192075"><ele>439.33333333333337</ele><time>2026-05-01T15:22:37.003Z</time></trkpt><trkpt lat="42.22086689242323" lon="8.639938839976766"><ele>432.0</ele><time>2026-05-01T15:22:38.003Z</time></trkpt><trkpt lat="42.22072757173244" lon="8.640030242973651"><ele>430.75</ele><time>2026-05-01T15:22:39.003Z</time></trkpt><trkpt lat="42.22060120026186" lon="8.640138584843704"><ele>429.5</ele><time>2026-05-01T15:22:40.003Z</time></trkpt><trkpt lat="42.22048236883764" lon="8.640241129755232"><ele>428.25</ele><time>2026-05-01T15:22:41.003Z</time></trkpt><trkpt lat="42.220373614054246" lon="8.640332923127444"><ele>427.0</ele><time>2026-05-01T15:22:42.003Z</time></trkpt><trkpt lat="42.22028037188958" lon="8.640440872265145"><ele>427.0</ele><time>2026-05-01T15:22:43.003Z</time></trkpt><trkpt lat="42.22021177742025" lon="8.64057665102085"><ele>427.0</ele><time>2026-05-01T15:22:44.003Z</time></trkpt><trkpt lat="42.22014443616989" lon="8.640699540030015"><ele>427.0</ele><time>2026-05-01T15:22:45.003Z</time></trkpt><trkpt lat="42.22007668079644" lon="8.640817937305194"><ele>427.0</ele><time>2026-05-01T15:22:46.003Z</time></trkpt><trkpt lat="42.220002062183795" lon="8.640943098525547"><ele>427.0</ele><time>2026-05-01T15:22:47.003Z</time></trkpt><trkpt lat="42.21992557813401" lon="8.641067697608047"><ele>427.0</ele><time>2026-05-01T15:22:47.998Z</time></trkpt><trkpt lat="42.21983229747534" lon="8.641170809887845"><ele>427.0</ele><time>2026-05-01T15:22:48.998Z</time></trkpt><trkpt lat="42.21973137684579" lon="8.641276564377444"><ele>427.0</ele><time>2026-05-01T15:22:49.998Z</time></trkpt><trkpt lat="42.219625583749036" lon="8.641381543958886"><ele>424.25</ele><time>2026-05-01T15:22:50.998Z</time></trkpt><trkpt lat="42.21952085613554" lon="8.641502789446136"><ele>421.5</ele><time>2026-05-01T15:22:51.998Z</time></trkpt><trkpt lat="42.219418065346176" lon="8.641641171989585"><ele>418.75</ele><time>2026-05-01T15:22:52.998Z</time></trkpt><trkpt lat="42.21932196624408" lon="8.641794724104905"><ele>416.0</ele><time>2026-05-01T15:22:53.998Z</time></trkpt><trkpt lat="42.21922880939711" lon="8.641964009029927"><ele>422.0</ele><time>2026-05-01T15:22:54.998Z</time></trkpt><trkpt lat="42.219141635130114" lon="8.642144863739327"><ele>428.0</ele><time>2026-05-01T15:22:55.999Z</time></trkpt><trkpt lat="42.219062983352465" lon="8.642344618047119"><ele>434.0</ele><time>2026-05-01T15:22:56.999Z</time></trkpt><trkpt lat="42.21898449793329" lon="8.642534604020359"><ele>432.0</ele><time>2026-05-01T15:22:57.999Z</time></trkpt><trkpt lat="42.21887244381272" lon="8.642654855580188"><ele>430.0</ele><time>2026-05-01T15:22:58.999Z</time></trkpt><trkpt lat="42.21875477251608" lon="8.64274373775639"><ele>428.0</ele><time>2026-05-01T15:22:59.999Z</time></trkpt><trkpt lat="42.218622577530965" lon="8.642779439926558"><ele>426.0</ele><time>2026-05-01T15:23:00.999Z</time></trkpt><trkpt lat="42.21848055804522" lon="8.642784850077222"><ele>426.0</ele><time>2026-05-01T15:23:01.999Z</time></trkpt><trkpt lat="42.21833584117706" lon="8.642788075685644"><ele>426.0</ele><time>2026-05-01T15:23:02.999Z</time></trkpt><trkpt lat="42.2181969320831" lon="8.642809745018745"><ele>426.0</ele><time>2026-05-01T15:23:03.999Z</time></trkpt><trkpt lat="42.21806412650757" lon="8.642814498434438"><ele>426.0</ele><time>2026-05-01T15:23:04.999Z</time></trkpt><trkpt lat="42.217938783973885" lon="8.642798295661983"><ele>427.0</ele><time>2026-05-01T15:23:05.999Z</time></trkpt><trkpt lat="42.21781013248888" lon="8.642824933306512"><ele>428.0</ele><time>2026-05-01T15:23:06.999Z</time></trkpt><trkpt lat="42.21767095202791" lon="8.642829523730931"><ele>429.0</ele><time>2026-05-01T15:23:07.999Z</time></trkpt><trkpt lat="42.21752267727922" lon="8.642835747698555"><ele>430.0</ele><time>2026-05-01T15:23:09Z</time></trkpt><trkpt lat="42.217367715040844" lon="8.642844354268115"><ele>426.6666666666667</ele><time>2026-05-01T15:23:10Z</time></trkpt><trkpt lat="42.21720568160216" lon="8.642823595379395"><ele>423.33333333333337</ele><time>2026-05-01T15:23:11Z</time></trkpt><trkpt lat="42.21704971634733" lon="8.642846995886885"><ele>420.0</ele><time>2026-05-01T15:23:12Z</time></trkpt><trkpt lat="42.216909375184485" lon="8.642844052109242"><ele>420.0</ele><time>2026-05-01T15:23:13Z</time></trkpt><trkpt lat="42.2167766078538" lon="8.642851274306091"><ele>420.0</ele><time>2026-05-01T15:23:14Z</time></trkpt><trkpt lat="42.21664893715546" lon="8.642854281529509"><ele>420.0</ele><time>2026-05-01T15:23:15Z</time></trkpt><trkpt lat="42.21651813840545" lon="8.642838506903331"><ele>420.0</ele><time>2026-05-01T15:23:16Z</time></trkpt><trkpt lat="42.21638773613258" lon="8.642775165045634"><ele>422.25</ele><time>2026-05-01T15:23:17Z</time></trkpt><trkpt lat="42.21625927361293" lon="8.642714745221072"><ele>424.5</ele><time>2026-05-01T15:23:18Z</time></trkpt><trkpt lat="42.21613618815628" lon="8.64267600162172"><ele>426.75</ele><time>2026-05-01T15:23:19Z</time></trkpt><trkpt lat="42.216019711811484" lon="8.642632270354758"><ele>429.0</ele><time>2026-05-01T15:23:20Z</time></trkpt><trkpt lat="42.21590298367744" lon="8.642616289238136"><ele>429.0</ele><time>2026-05-01T15:23:21Z</time></trkpt><trkpt lat="42.2157893262858" lon="8.642635270671336"><ele>429.0</ele><time>2026-05-01T15:23:22Z</time></trkpt><trkpt lat="42.215687663896446" lon="8.642697995017674"><ele>429.0</ele><time>2026-05-01T15:23:23Z</time></trkpt><trkpt lat="42.21560326086027" lon="8.642801508459714"><ele>429.0</ele><time>2026-05-01T15:23:24Z</time></trkpt><trkpt lat="42.21553848601047" lon="8.642949528203046"><ele>428.66666666666663</ele><time>2026-05-01T15:23:25Z</time></trkpt><trkpt lat="42.21546707904871" lon="8.643114019700231"><ele>428.3333333333333</ele><time>2026-05-01T15:23:26Z</time></trkpt><trkpt lat="42.21537061395551" lon="8.643285749535613"><ele>428.0</ele><time>2026-05-01T15:23:27Z</time></trkpt><trkpt lat="42.21523382830115" lon="8.643460500440924"><ele>423.3333333333333</ele><time>2026-05-01T15:23:28.001Z</time></trkpt><trkpt lat="42.21510872707032" lon="8.643664921334242"><ele>418.66666666666663</ele><time>2026-05-01T15:23:29.001Z</time></trkpt><trkpt lat="42.21498247858649" lon="8.643871216888508"><ele>414.0</ele><time>2026-05-01T15:23:30.001Z</time></trkpt><trkpt lat="42.214870670557964" lon="8.644054022740708"><ele>414.25</ele><time>2026-05-01T15:23:31.001Z</time></trkpt><trkpt lat="42.214774310740665" lon="8.644212936772199"><ele>414.5</ele><time>2026-05-01T15:23:32.001Z</time></trkpt><trkpt lat="42.214705340425624" lon="8.64436096576159"><ele>414.75</ele><time>2026-05-01T15:23:33.001Z</time></trkpt><trkpt lat="42.214645554567014" lon="8.6444847658887"><ele>415.0</ele><time>2026-05-01T15:23:34.001Z</time></trkpt><trkpt lat="42.21461635104205" lon="8.644628055596202"><ele>415.0</ele><time>2026-05-01T15:23:35.001Z</time></trkpt><trkpt lat="42.21459384604869" lon="8.644820980166209"><ele>415.0</ele><time>2026-05-01T15:23:36.001Z</time></trkpt><trkpt lat="42.21461282121279" lon="8.6450472413154"><ele>415.0</ele><time>2026-05-01T15:23:37.001Z</time></trkpt><trkpt lat="42.21467510642586" lon="8.645236700100876"><ele>414.5</ele><time>2026-05-01T15:23:38.001Z</time></trkpt><trkpt lat="42.21473333062338" lon="8.645408829749963"><ele>414.0</ele><time>2026-05-01T15:23:39.001Z</time></trkpt><trkpt lat="42.21475024525209" lon="8.645582459242037"><ele>413.5</ele><time>2026-05-01T15:23:40.001Z</time></trkpt><trkpt lat="42.21474183583292" lon="8.645748301107158"><ele>413.0</ele><time>2026-05-01T15:23:41.001Z</time></trkpt><trkpt lat="42.21469930911321" lon="8.645901060697291"><ele>413.0</ele><time>2026-05-01T15:23:42.001Z</time></trkpt><trkpt lat="42.214626842420294" lon="8.646058786895383"><ele>413.0</ele><time>2026-05-01T15:23:43.001Z</time></trkpt><trkpt lat="42.2145293928927" lon="8.64619417078849"><ele>413.0</ele><time>2026-05-01T15:23:44.001Z</time></trkpt><trkpt lat="42.214432119943275" lon="8.64631997934183"><ele>413.0</ele><time>2026-05-01T15:23:45.001Z</time></trkpt><trkpt lat="42.21435744739585" lon="8.646446878574329"><ele>411.25</ele><time>2026-05-01T15:23:46.001Z</time></trkpt><trkpt lat="42.21428292703978" lon="8.646555589285448"><ele>409.5</ele><time>2026-05-01T15:23:47.001Z</time></trkpt><trkpt lat="42.2142406084754" lon="8.646693158007524"><ele>407.75</ele><time>2026-05-01T15:23:48.001Z</time></trkpt><trkpt lat="42.21422201129295" lon="8.646840967668673"><ele>406.0</ele><time>2026-05-01T15:23:49.001Z</time></trkpt><trkpt lat="42.214217723679546" lon="8.647003363596912"><ele>405.25</ele><time>2026-05-01T15:23:50.001Z</time></trkpt><trkpt lat="42.21423943230957" lon="8.647179165098823"><ele>404.5</ele><time>2026-05-01T15:23:51.001Z</time></trkpt><trkpt lat="42.21429492966629" lon="8.647359536152937"><ele>403.75</ele><time>2026-05-01T15:23:52.001Z</time></trkpt><trkpt lat="42.21437345250691" lon="8.64752734527045"><ele>403.0</ele><time>2026-05-01T15:23:53.001Z</time></trkpt><trkpt lat="42.214447630520105" lon="8.64767523413069"><ele>403.25</ele><time>2026-05-01T15:23:54.001Z</time></trkpt><trkpt lat="42.21447119005432" lon="8.647831134622802"><ele>403.5</ele><time>2026-05-01T15:23:55.001Z</time></trkpt><trkpt lat="42.21447760032784" lon="8.647984278818683"><ele>403.75</ele><time>2026-05-01T15:23:56.002Z</time></trkpt><trkpt lat="42.21445251050019" lon="8.64814071814962"><ele>404.0</ele><time>2026-05-01T15:23:57.002Z</time></trkpt><trkpt lat="42.214414560453996" lon="8.64834059957276"><ele>404.0</ele><time>2026-05-01T15:23:58.002Z</time></trkpt><trkpt lat="42.21438322532828" lon="8.648570804799526"><ele>404.0</ele><time>2026-05-01T15:23:59.002Z</time></trkpt><trkpt lat="42.214343053364814" lon="8.648788235108603"><ele>404.0</ele><time>2026-05-01T15:24:00.002Z</time></trkpt><trkpt lat="42.21431400512132" lon="8.648980901032226"><ele>401.2</ele><time>2026-05-01T15:24:01.002Z</time></trkpt><trkpt lat="42.21426635685053" lon="8.649134543141782"><ele>398.4</ele><time>2026-05-01T15:24:02.002Z</time></trkpt><trkpt lat="42.214228761098475" lon="8.649266385451208"><ele>395.6</ele><time>2026-05-01T15:24:03.002Z</time></trkpt><trkpt lat="42.214182596140084" lon="8.64939529442661"><ele>392.8</ele><time>2026-05-01T15:24:04.002Z</time></trkpt><trkpt lat="42.214082688452145" lon="8.649462272944136"><ele>390.0</ele><time>2026-05-01T15:24:05.002Z</time></trkpt><trkpt lat="42.21399268160279" lon="8.649538459752845"><ele>387.0</ele><time>2026-05-01T15:24:06.002Z</time></trkpt><trkpt lat="42.213883298871615" lon="8.64956987751837"><ele>384.0</ele><time>2026-05-01T15:24:07.002Z</time></trkpt><trkpt lat="42.21375968574241" lon="8.64953419118515"><ele>381.0</ele><time>2026-05-01T15:24:08.002Z</time></trkpt><trkpt lat="42.21362651158336" lon="8.649505047173037"><ele>378.0</ele><time>2026-05-01T15:24:09.002Z</time></trkpt><trkpt lat="42.21348889524559" lon="8.649497634004732"><ele>378.0</ele><time>2026-05-01T15:24:10.002Z</time></trkpt><trkpt lat="42.21336806557564" lon="8.649482615543114"><ele>378.0</ele><time>2026-05-01T15:24:11.002Z</time></trkpt><trkpt lat="42.213250911843495" lon="8.649499241934858"><ele>378.0</ele><time>2026-05-01T15:24:12.002Z</time></trkpt><trkpt lat="42.213144262035065" lon="8.649552897361172"><ele>378.0</ele><time>2026-05-01T15:24:13.002Z</time></trkpt><trkpt lat="42.21305421879965" lon="8.649643617482573"><ele>381.0</ele><time>2026-05-01T15:24:14.002Z</time></trkpt><trkpt lat="42.21298234302246" lon="8.649757554584804"><ele>384.0</ele><time>2026-05-01T15:24:15.002Z</time></trkpt><trkpt lat="42.21292177500559" lon="8.649905975307735"><ele>387.0</ele><time>2026-05-01T15:24:16.002Z</time></trkpt><trkpt lat="42.2128764579164" lon="8.650073291162318"><ele>390.0</ele><time>2026-05-01T15:24:17.002Z</time></trkpt><trkpt lat="42.21283655485359" lon="8.65023898549491"><ele>386.75</ele><time>2026-05-01T15:24:18.002Z</time></trkpt><trkpt lat="42.21278985669318" lon="8.650391051824785"><ele>383.5</ele><time>2026-05-01T15:24:19.002Z</time></trkpt><trkpt lat="42.212729646993914" lon="8.650536389037423"><ele>380.25</ele><time>2026-05-01T15:24:20.002Z</time></trkpt><trkpt lat="42.212664483348625" lon="8.650684002252243"><ele>377.0</ele><time>2026-05-01T15:24:21.002Z</time></trkpt><trkpt lat="42.212598590700516" lon="8.650836952385367"><ele>377.0</ele><time>2026-05-01T15:24:22.002Z</time></trkpt><trkpt lat="42.21253492896886" lon="8.650973724059952"><ele>377.0</ele><time>2026-05-01T15:24:23.002Z</time></trkpt><trkpt lat="42.212471078553925" lon="8.651109205661662"><ele>377.0</ele><time>2026-05-01T15:24:24.002Z</time></trkpt><trkpt lat="42.2124128851035" lon="8.65124265688768"><ele>377.0</ele><time>2026-05-01T15:24:25.002Z</time></trkpt><trkpt lat="42.21237168744491" lon="8.65139489734458"><ele>375.75</ele><time>2026-05-01T15:24:26.002Z</time></trkpt><trkpt lat="42.212348101202004" lon="8.651563573753052"><ele>374.5</ele><time>2026-05-01T15:24:27.002Z</time></trkpt><trkpt lat="42.21234869166644" lon="8.651748900121738"><ele>373.25</ele><time>2026-05-01T15:24:28.002Z</time></trkpt><trkpt lat="42.212359547273046" lon="8.651985830109991"><ele>372.0</ele><time>2026-05-01T15:24:29.003Z</time></trkpt><trkpt lat="42.21244230723751" lon="8.652239967884064"><ele>372.0</ele><time>2026-05-01T15:24:30.003Z</time></trkpt><trkpt lat="42.212530802385565" lon="8.652514356693151"><ele>372.0</ele><time>2026-05-01T15:24:31.003Z</time></trkpt><trkpt lat="42.21256379635583" lon="8.652783486257455"><ele>372.0</ele><time>2026-05-01T15:24:32.003Z</time></trkpt><trkpt lat="42.21256260640663" lon="8.653053568821047"><ele>370.0</ele><time>2026-05-01T15:24:33.003Z</time></trkpt><trkpt lat="42.212521774856015" lon="8.653339492080699"><ele>368.0</ele><time>2026-05-01T15:24:34.003Z</time></trkpt><trkpt lat="42.21242674767807" lon="8.653638639653956"><ele>373.0</ele><time>2026-05-01T15:24:35.003Z</time></trkpt><trkpt lat="42.21232816301005" lon="8.653985057723622"><ele>378.0</ele><time>2026-05-01T15:24:36.003Z</time></trkpt><trkpt lat="42.21229623730816" lon="8.654377285629009"><ele>377.5</ele><time>2026-05-01T15:24:37.003Z</time></trkpt><trkpt lat="42.21228873606305" lon="8.654801034486171"><ele>377.0</ele><time>2026-05-01T15:24:38.003Z</time></trkpt><trkpt lat="42.212281418518046" lon="8.65524909532525"><ele>374.0</ele><time>2026-05-01T15:24:39.003Z</time></trkpt><trkpt lat="42.21226235313827" lon="8.655670498845131"><ele>371.0</ele><time>2026-05-01T15:24:40.003Z</time></trkpt><trkpt lat="42.212198360293094" lon="8.656031769544404"><ele>366.5</ele><time>2026-05-01T15:24:41.003Z</time></trkpt><trkpt lat="42.21211557214015" lon="8.656399059846814"><ele>362.0</ele><time>2026-05-01T15:24:42.003Z</time></trkpt><trkpt lat="42.21197224797853" lon="8.656742044417404"><ele>355.6666666666667</ele><time>2026-05-01T15:24:43.003Z</time></trkpt><trkpt lat="42.21185433115419" lon="8.657020657387735"><ele>349.3333333333333</ele><time>2026-05-01T15:24:44.003Z</time></trkpt><trkpt lat="42.211768384034244" lon="8.657209486894473"><ele>343.0</ele><time>2026-05-01T15:24:45.003Z</time></trkpt><trkpt lat="42.2116644040478" lon="8.65733107462119"><ele>343.0</ele><time>2026-05-01T15:24:46.003Z</time></trkpt><trkpt lat="42.211509248360905" lon="8.657402223458758"><ele>343.0</ele><time>2026-05-01T15:24:47.003Z</time></trkpt><trkpt lat="42.21131906277382" lon="8.657392519186669"><ele>343.0</ele><time>2026-05-01T15:24:48.003Z</time></trkpt><trkpt lat="42.211145674927955" lon="8.65731479014271"><ele>344.0</ele><time>2026-05-01T15:24:49.003Z</time></trkpt><trkpt lat="42.211018367622806" lon="8.65718250518713"><ele>345.0</ele><time>2026-05-01T15:24:50.003Z</time></trkpt><trkpt lat="42.21092021146672" lon="8.656995462046627"><ele>346.0</ele><time>2026-05-01T15:24:51.003Z</time></trkpt><trkpt lat="42.210847194860314" lon="8.65674049111013"><ele>346.0</ele><time>2026-05-01T15:24:52.003Z</time></trkpt><trkpt lat="42.210782273997005" lon="8.656437122917353"><ele>346.0</ele><time>2026-05-01T15:24:53.003Z</time></trkpt><trkpt lat="42.210697646526164" lon="8.656122761175538"><ele>337.0</ele><time>2026-05-01T15:24:53.998Z</time></trkpt><trkpt lat="42.21060756486516" lon="8.655807309260146"><ele>328.0</ele><time>2026-05-01T15:24:54.998Z</time></trkpt><trkpt lat="42.210520451119145" lon="8.655525983938391"><ele>330.3333333333333</ele><time>2026-05-01T15:24:55.998Z</time></trkpt><trkpt lat="42.21043643131492" lon="8.655270645201089"><ele>332.6666666666667</ele><time>2026-05-01T15:24:56.998Z</time></trkpt><trkpt lat="42.210345881867134" lon="8.655056450771745"><ele>335.0</ele><time>2026-05-01T15:24:57.998Z</time></trkpt><trkpt lat="42.21021189280184" lon="8.654881669518979"><ele>335.0</ele><time>2026-05-01T15:24:58.998Z</time></trkpt><trkpt lat="42.210023631284535" lon="8.65476038500828"><ele>335.0</ele><time>2026-05-01T15:24:59.998Z</time></trkpt><trkpt lat="42.20981306643753" lon="8.654684457507951"><ele>335.0</ele><time>2026-05-01T15:25:00.998Z</time></trkpt><trkpt lat="42.20963130404209" lon="8.654576343497096"><ele>332.0</ele><time>2026-05-01T15:25:01.998Z</time></trkpt><trkpt lat="42.20946148040367" lon="8.65447242086472"><ele>329.0</ele><time>2026-05-01T15:25:02.999Z</time></trkpt><trkpt lat="42.2093240394586" lon="8.654336559369614"><ele>326.0</ele><time>2026-05-01T15:25:03.999Z</time></trkpt><trkpt lat="42.20923313736437" lon="8.654171494088779"><ele>326.0</ele><time>2026-05-01T15:25:04.999Z</time></trkpt><trkpt lat="42.20918772688928" lon="8.653978329511606"><ele>326.0</ele><time>2026-05-01T15:25:05.999Z</time></trkpt><trkpt lat="42.20916906858452" lon="8.653761889879151"><ele>326.0</ele><time>2026-05-01T15:25:06.999Z</time></trkpt><trkpt lat="42.20921109586806" lon="8.653505150600507"><ele>324.0</ele><time>2026-05-01T15:25:07.999Z</time></trkpt><trkpt lat="42.209239665930006" lon="8.653261731074242"><ele>322.0</ele><time>2026-05-01T15:25:08.999Z</time></trkpt><trkpt lat="42.20921049111332" lon="8.653040753320127"><ele>320.0</ele><time>2026-05-01T15:25:09.999Z</time></trkpt><trkpt lat="42.20912073093258" lon="8.652858353014755"><ele>316.33333333333337</ele><time>2026-05-01T15:25:10.999Z</time></trkpt><trkpt lat="42.20897395887998" lon="8.652719952893545"><ele>312.6666666666667</ele><time>2026-05-01T15:25:11.999Z</time></trkpt><trkpt lat="42.20879684919839" lon="8.652631154332006"><ele>309.0</ele><time>2026-05-01T15:25:12.999Z</time></trkpt><trkpt lat="42.2086258282774" lon="8.652526159518834"><ele>309.0</ele><time>2026-05-01T15:25:13.999Z</time></trkpt><trkpt lat="42.20849679450926" lon="8.652357757629986"><ele>309.0</ele><time>2026-05-01T15:25:14.999Z</time></trkpt><trkpt lat="42.20837476753278" lon="8.652156792072308"><ele>309.0</ele><time>2026-05-01T15:25:16Z</time></trkpt><trkpt lat="42.208269794582506" lon="8.651905431558276"><ele>301.5</ele><time>2026-05-01T15:25:17Z</time></trkpt><trkpt lat="42.20813718233483" lon="8.651643060243565"><ele>294.0</ele><time>2026-05-01T15:25:18Z</time></trkpt><trkpt lat="42.208029497951905" lon="8.651354023079243"><ele>296.5</ele><time>2026-05-01T15:25:19Z</time></trkpt><trkpt lat="42.207929857652346" lon="8.651052661174779"><ele>299.0</ele><time>2026-05-01T15:25:20Z</time></trkpt><trkpt lat="42.207879895180646" lon="8.65072520247683"><ele>299.0</ele><time>2026-05-01T15:25:21Z</time></trkpt><trkpt lat="42.2077946611867" lon="8.650397372842862"><ele>299.0</ele><time>2026-05-01T15:25:22Z</time></trkpt><trkpt lat="42.20772884723868" lon="8.650059995508645"><ele>300.5</ele><time>2026-05-01T15:25:23Z</time></trkpt><trkpt lat="42.20765786076063" lon="8.649712921461264"><ele>302.0</ele><time>2026-05-01T15:25:24Z</time></trkpt><trkpt lat="42.207590604254015" lon="8.649357025242224"><ele>302.0</ele><time>2026-05-01T15:25:25Z</time></trkpt><trkpt lat="42.207532154939564" lon="8.64900238089805"><ele>302.0</ele><time>2026-05-01T15:25:26Z</time></trkpt><trkpt lat="42.2074768225616" lon="8.648635764248358"><ele>300.5</ele><time>2026-05-01T15:25:27Z</time></trkpt><trkpt lat="42.20742369138644" lon="8.64827956113255"><ele>299.0</ele><time>2026-05-01T15:25:28Z</time></trkpt><trkpt lat="42.2073755888217" lon="8.647944382396105"><ele>299.0</ele><time>2026-05-01T15:25:29Z</time></trkpt><trkpt lat="42.20733924600453" lon="8.64764043107761"><ele>299.0</ele><time>2026-05-01T15:25:30Z</time></trkpt><trkpt lat="42.207331891224825" lon="8.647351083385843"><ele>299.0</ele><time>2026-05-01T15:25:31Z</time></trkpt><trkpt lat="42.207365799077046" lon="8.647070496215175"><ele>295.33333333333337</ele><time>2026-05-01T15:25:32Z</time></trkpt><trkpt lat="42.2074027766856" lon="8.646818150135154"><ele>291.6666666666667</ele><time>2026-05-01T15:25:33.001Z</time></trkpt><trkpt lat="42.20748516168076" lon="8.646628314959214"><ele>288.0</ele><time>2026-05-01T15:25:34.001Z</time></trkpt><trkpt lat="42.207599775973094" lon="8.646487352279676"><ele>288.0</ele><time>2026-05-01T15:25:35.001Z</time></trkpt><trkpt lat="42.20770321366858" lon="8.646325351899591"><ele>288.0</ele><time>2026-05-01T15:25:36.001Z</time></trkpt><trkpt lat="42.20780572184184" lon="8.64619438945731"><ele>288.0</ele><time>2026-05-01T15:25:37.001Z</time></trkpt><trkpt lat="42.20784733447246" lon="8.64604383778679"><ele>288.0</ele><time>2026-05-01T15:25:38.001Z</time></trkpt><trkpt lat="42.20781963760382" lon="8.645902914118523"><ele>286.5</ele><time>2026-05-01T15:25:39.001Z</time></trkpt><trkpt lat="42.20773442561725" lon="8.645789811506878"><ele>285.0</ele><time>2026-05-01T15:25:40.001Z</time></trkpt><trkpt lat="42.20760991306341" lon="8.64569459273398"><ele>283.5</ele><time>2026-05-01T15:25:41.001Z</time></trkpt><trkpt lat="42.20746745792756" lon="8.645608997901014"><ele>282.0</ele><time>2026-05-01T15:25:42.001Z</time></trkpt><trkpt lat="42.207311247833644" lon="8.645498084264887"><ele>285.3333333333333</ele><time>2026-05-01T15:25:43.001Z</time></trkpt><trkpt lat="42.20715561567615" lon="8.64536095520864"><ele>288.66666666666663</ele><time>2026-05-01T15:25:44.001Z</time></trkpt><trkpt lat="42.20699424461182" lon="8.645275658212437"><ele>292.0</ele><time>2026-05-01T15:25:45.001Z</time></trkpt><trkpt lat="42.20680547781716" lon="8.645274123120076"><ele>283.0</ele><time>2026-05-01T15:25:46.001Z</time></trkpt><trkpt lat="42.20660152786588" lon="8.64531195905648"><ele>274.0</ele><time>2026-05-01T15:25:47.001Z</time></trkpt><trkpt lat="42.20640118069553" lon="8.645254031068724"><ele>265.0</ele><time>2026-05-01T15:25:48.001Z</time></trkpt><trkpt lat="42.20621003647438" lon="8.6451432097263"><ele>265.0</ele><time>2026-05-01T15:25:49.001Z</time></trkpt><trkpt lat="42.206066562709154" lon="8.644980641810625"><ele>265.0</ele><time>2026-05-01T15:25:50.001Z</time></trkpt><trkpt lat="42.205926565832215" lon="8.644798081503241"><ele>265.0</ele><time>2026-05-01T15:25:51.001Z</time></trkpt><trkpt lat="42.205774456451884" lon="8.644610375272975"><ele>263.66666666666663</ele><time>2026-05-01T15:25:52.001Z</time></trkpt><trkpt lat="42.2056364160672" lon="8.644404105169736"><ele>262.3333333333333</ele><time>2026-05-01T15:25:53.001Z</time></trkpt><trkpt lat="42.20549393341263" lon="8.644235252612908"><ele>261.0</ele><time>2026-05-01T15:25:54.001Z</time></trkpt><trkpt lat="42.205330130303274" lon="8.644130361939483"><ele>261.0</ele><time>2026-05-01T15:25:55.001Z</time></trkpt><trkpt lat="42.20514686315459" lon="8.6440789784946"><ele>261.0</ele><time>2026-05-01T15:25:56.001Z</time></trkpt><trkpt lat="42.204963511494945" lon="8.644008339558791"><ele>261.0</ele><time>2026-05-01T15:25:57.001Z</time></trkpt><trkpt lat="42.204827931827516" lon="8.643846136573394"><ele>261.6666666666667</ele><time>2026-05-01T15:25:58.001Z</time></trkpt><trkpt lat="42.20471420376745" lon="8.643651442897376"><ele>262.33333333333337</ele><time>2026-05-01T15:25:59.001Z</time></trkpt><trkpt lat="42.204591364903905" lon="8.643463452206191"><ele>263.0</ele><time>2026-05-01T15:26:00.002Z</time></trkpt><trkpt lat="42.20449027178394" lon="8.643286044037968"><ele>263.0</ele><time>2026-05-01T15:26:01.002Z</time></trkpt><trkpt lat="42.20435861366787" lon="8.643184225458945"><ele>263.0</ele><time>2026-05-01T15:26:02.002Z</time></trkpt><trkpt lat="42.204210324053015" lon="8.643170382017903"><ele>263.0</ele><time>2026-05-01T15:26:03.002Z</time></trkpt><trkpt lat="42.2040646149404" lon="8.64323303614704"><ele>256.6666666666667</ele><time>2026-05-01T15:26:04.002Z</time></trkpt><trkpt lat="42.20390342912066" lon="8.643293037091132"><ele>250.33333333333331</ele><time>2026-05-01T15:26:05.002Z</time></trkpt><trkpt lat="42.20373268030099" lon="8.64329708527128"><ele>244.0</ele><time>2026-05-01T15:26:06.002Z</time></trkpt><trkpt lat="42.20358981185702" lon="8.64321804915565"><ele>244.0</ele><time>2026-05-01T15:26:07.002Z</time></trkpt><trkpt lat="42.20349866383581" lon="8.643112692781388"><ele>244.0</ele><time>2026-05-01T15:26:08.002Z</time></trkpt><trkpt lat="42.20345680296452" lon="8.64296408906714"><ele>244.0</ele><time>2026-05-01T15:26:09.002Z</time></trkpt><trkpt lat="42.203383425550015" lon="8.642775892242815"><ele>244.0</ele><time>2026-05-01T15:26:10.002Z</time></trkpt><trkpt lat="42.203302849032305" lon="8.642553235202671"><ele>247.66666666666666</ele><time>2026-05-01T15:26:11.002Z</time></trkpt><trkpt lat="42.20320282708835" lon="8.64234673337273"><ele>251.33333333333331</ele><time>2026-05-01T15:26:12.002Z</time></trkpt><trkpt lat="42.20312126391665" lon="8.64216303175649"><ele>255.0</ele><time>2026-05-01T15:26:13.002Z</time></trkpt><trkpt lat="42.203080369998965" lon="8.641998006871654"><ele>256.0</ele><time>2026-05-01T15:26:14.002Z</time></trkpt><trkpt lat="42.203112957885885" lon="8.641831212976461"><ele>257.0</ele><time>2026-05-01T15:26:15.002Z</time></trkpt><trkpt lat="42.203152260062645" lon="8.641665941815683"><ele>258.0</ele><time>2026-05-01T15:26:16.002Z</time></trkpt><trkpt lat="42.2032129278192" lon="8.641516260870114"><ele>259.0</ele><time>2026-05-01T15:26:17.002Z</time></trkpt><trkpt lat="42.20321200773403" lon="8.641366391822137"><ele>250.75</ele><time>2026-05-01T15:26:18.002Z</time></trkpt><trkpt lat="42.20313578223236" lon="8.641267865358834"><ele>242.5</ele><time>2026-05-01T15:26:19.002Z</time></trkpt><trkpt lat="42.20302003123432" lon="8.641249443599248"><ele>234.25</ele><time>2026-05-01T15:26:20.002Z</time></trkpt><trkpt lat="42.202879629451196" lon="8.64126036215428"><ele>226.0</ele><time>2026-05-01T15:26:21.002Z</time></trkpt><trkpt lat="42.20273567445173" lon="8.641221623022371"><ele>233.66666666666666</ele><time>2026-05-01T15:26:22.002Z</time></trkpt><trkpt lat="42.202615120120996" lon="8.64108685699816"><ele>241.33333333333331</ele><time>2026-05-01T15:26:23.002Z</time></trkpt><trkpt lat="42.202501916610665" lon="8.640930680494982"><ele>249.0</ele><time>2026-05-01T15:26:24.002Z</time></trkpt><trkpt lat="42.20239354399045" lon="8.640799712913239"><ele>246.75</ele><time>2026-05-01T15:26:25.002Z</time></trkpt><trkpt lat="42.20227567671272" lon="8.64071704483038"><ele>244.5</ele><time>2026-05-01T15:26:26.002Z</time></trkpt><trkpt lat="42.20213272353904" lon="8.640730936597071"><ele>242.25</ele><time>2026-05-01T15:26:27.002Z</time></trkpt><trkpt lat="42.20198173508022" lon="8.640801650407818"><ele>240.0</ele><time>2026-05-01T15:26:28.002Z</time></trkpt><trkpt lat="42.20183295487281" lon="8.64088389168454"><ele>240.0</ele><time>2026-05-01T15:26:29.002Z</time></trkpt><trkpt lat="42.201662905981316" lon="8.640878685910984"><ele>240.0</ele><time>2026-05-01T15:26:30.002Z</time></trkpt><trkpt lat="42.20147286025395" lon="8.640880649641169"><ele>240.0</ele><time>2026-05-01T15:26:31.002Z</time></trkpt><trkpt lat="42.20126185768054" lon="8.640892836436095"><ele>235.0</ele><time>2026-05-01T15:26:32.003Z</time></trkpt><trkpt lat="42.20107807139535" lon="8.640904110008615"><ele>230.0</ele><time>2026-05-01T15:26:33.003Z</time></trkpt><trkpt lat="42.20093396697513" lon="8.640880077084557"><ele>225.0</ele><time>2026-05-01T15:26:34.003Z</time></trkpt><trkpt lat="42.200810524259545" lon="8.640811097478705"><ele>225.0</ele><time>2026-05-01T15:26:35.003Z</time></trkpt><trkpt lat="42.20071441050951" lon="8.640697208144646"><ele>225.0</ele><time>2026-05-01T15:26:36.003Z</time></trkpt><trkpt lat="42.20062529795972" lon="8.640537742370865"><ele>225.0</ele><time>2026-05-01T15:26:37.003Z</time></trkpt><trkpt lat="42.20057292820825" lon="8.640339142403757"><ele>225.0</ele><time>2026-05-01T15:26:38.003Z</time></trkpt><trkpt lat="42.20053928069477" lon="8.640144913473657"><ele>222.75</ele><time>2026-05-01T15:26:39.003Z</time></trkpt><trkpt lat="42.200489893875805" lon="8.639979475969978"><ele>220.5</ele><time>2026-05-01T15:26:40.003Z</time></trkpt><trkpt lat="42.20040323785859" lon="8.639859288310806"><ele>218.25</ele><time>2026-05-01T15:26:41.003Z</time></trkpt><trkpt lat="42.20027535135932" lon="8.63981116979125"><ele>216.0</ele><time>2026-05-01T15:26:42.003Z</time></trkpt><trkpt lat="42.20011915433257" lon="8.639826743869506"><ele>216.0</ele><time>2026-05-01T15:26:43.003Z</time></trkpt><trkpt lat="42.199943088305986" lon="8.639850772898725"><ele>216.0</ele><time>2026-05-01T15:26:44.003Z</time></trkpt><trkpt lat="42.19976056884678" lon="8.639780518780023"><ele>216.0</ele><time>2026-05-01T15:26:45.003Z</time></trkpt><trkpt lat="42.199576348033446" lon="8.63969178537548"><ele>218.0</ele><time>2026-05-01T15:26:46.003Z</time></trkpt><trkpt lat="42.199397760436895" lon="8.639549766447626"><ele>220.0</ele><time>2026-05-01T15:26:47.003Z</time></trkpt><trkpt lat="42.199211168909" lon="8.639420313194469"><ele>222.0</ele><time>2026-05-01T15:26:48.003Z</time></trkpt><trkpt lat="42.19900339333436" lon="8.639345628812722"><ele>214.66666666666669</ele><time>2026-05-01T15:26:49.003Z</time></trkpt><trkpt lat="42.19880892011312" lon="8.639274163856426"><ele>207.33333333333334</ele><time>2026-05-01T15:26:50.003Z</time></trkpt><trkpt lat="42.19862874042786" lon="8.639210104044029"><ele>200.0</ele><time>2026-05-01T15:26:51.003Z</time></trkpt><trkpt lat="42.19846299757908" lon="8.639135485839443"><ele>200.0</ele><time>2026-05-01T15:26:52.003Z</time></trkpt><trkpt lat="42.19832128790867" lon="8.639040586845123"><ele>200.0</ele><time>2026-05-01T15:26:53.003Z</time></trkpt><trkpt lat="42.19822785911555" lon="8.638887306426378"><ele>200.0</ele><time>2026-05-01T15:26:54.003Z</time></trkpt><trkpt lat="42.19816620151309" lon="8.638700520673769"><ele>195.66666666666669</ele><time>2026-05-01T15:26:55.003Z</time></trkpt><trkpt lat="42.19809241047931" lon="8.638493397336525"><ele>191.33333333333334</ele><time>2026-05-01T15:26:56.003Z</time></trkpt><trkpt lat="42.19800390005537" lon="8.638280213631912"><ele>187.0</ele><time>2026-05-01T15:26:57.003Z</time></trkpt><trkpt lat="42.19785330747176" lon="8.63808360196746"><ele>187.0</ele><time>2026-05-01T15:26:58.003Z</time></trkpt><trkpt lat="42.19768760380904" lon="8.637906489767323"><ele>187.0</ele><time>2026-05-01T15:26:59.003Z</time></trkpt><trkpt lat="42.197529775560696" lon="8.637735396166093"><ele>187.0</ele><time>2026-05-01T15:26:59.998Z</time></trkpt><trkpt lat="42.197383545637756" lon="8.637579229440473"><ele>189.33333333333334</ele><time>2026-05-01T15:27:00.998Z</time></trkpt><trkpt lat="42.19722753082616" lon="8.637456725376197"><ele>191.66666666666669</ele><time>2026-05-01T15:27:01.998Z</time></trkpt><trkpt lat="42.197060964585965" lon="8.637393166796917"><ele>194.0</ele><time>2026-05-01T15:27:02.998Z</time></trkpt><trkpt lat="42.196899257742984" lon="8.637325109690623"><ele>194.0</ele><time>2026-05-01T15:27:03.998Z</time></trkpt><trkpt lat="42.19672263526063" lon="8.637250391430152"><ele>194.0</ele><time>2026-05-01T15:27:04.998Z</time></trkpt><trkpt lat="42.196483036404274" lon="8.63741656624821"><ele>187.66666666666669</ele><time>2026-05-01T15:27:05.998Z</time></trkpt><trkpt lat="42.19630305306313" lon="8.63735335663521"><ele>181.33333333333334</ele><time>2026-05-01T15:27:06.998Z</time></trkpt><trkpt lat="42.19611815558439" lon="8.637239986640287"><ele>175.0</ele><time>2026-05-01T15:27:07.998Z</time></trkpt><trkpt lat="42.195939399096524" lon="8.63711568522159"><ele>175.0</ele><time>2026-05-01T15:27:08.999Z</time></trkpt><trkpt lat="42.19576907681949" lon="8.637021256479393"><ele>175.0</ele><time>2026-05-01T15:27:09.999Z</time></trkpt><trkpt lat="42.19560043241134" lon="8.636971864428494"><ele>175.0</ele><time>2026-05-01T15:27:10.999Z</time></trkpt><trkpt lat="42.19544218955646" lon="8.636949759237604"><ele>173.0</ele><time>2026-05-01T15:27:11.999Z</time></trkpt><trkpt lat="42.195309714240175" lon="8.636919637024327"><ele>171.0</ele><time>2026-05-01T15:27:12.999Z</time></trkpt><trkpt lat="42.19521448865469" lon="8.636857390161436"><ele>169.0</ele><time>2026-05-01T15:27:13.999Z</time></trkpt><trkpt lat="42.195155964315774" lon="8.636753147226724"><ele>167.0</ele><time>2026-05-01T15:27:14.999Z</time></trkpt><trkpt lat="42.1951374620992" lon="8.636609001618144"><ele>165.0</ele><time>2026-05-01T15:27:15.999Z</time></trkpt><trkpt lat="42.195168603832315" lon="8.636450336598504"><ele>165.0</ele><time>2026-05-01T15:27:16.999Z</time></trkpt><trkpt lat="42.19524314347746" lon="8.636280502376906"><ele>165.0</ele><time>2026-05-01T15:27:17.999Z</time></trkpt><trkpt lat="42.195346997029255" lon="8.636111456514236"><ele>165.0</ele><time>2026-05-01T15:27:18.999Z</time></trkpt><trkpt lat="42.19545616688344" lon="8.635929115615784"><ele>165.66666666666666</ele><time>2026-05-01T15:27:19.999Z</time></trkpt><trkpt lat="42.19552208624187" lon="8.63571622985119"><ele>166.33333333333331</ele><time>2026-05-01T15:27:20.999Z</time></trkpt><trkpt lat="42.195527686240276" lon="8.635496351424685"><ele>167.0</ele><time>2026-05-01T15:27:22Z</time></trkpt><trkpt lat="42.19547696022349" lon="8.63529570220873"><ele>167.0</ele><time>2026-05-01T15:27:23Z</time></trkpt><trkpt lat="42.19538412504027" lon="8.63512053819954"><ele>167.0</ele><time>2026-05-01T15:27:24Z</time></trkpt><trkpt lat="42.19525889201158" lon="8.635006333116303"><ele>167.0</ele><time>2026-05-01T15:27:25Z</time></trkpt><trkpt lat="42.195101766264536" lon="8.634928726409814"><ele>167.0</ele><time>2026-05-01T15:27:26Z</time></trkpt><trkpt lat="42.194936208059026" lon="8.634821211550397"><ele>167.0</ele><time>2026-05-01T15:27:27Z</time></trkpt><trkpt lat="42.19478627096144" lon="8.63465434140746"><ele>167.0</ele><time>2026-05-01T15:27:28Z</time></trkpt><trkpt lat="42.19464802274984" lon="8.634446953341595"><ele>164.0</ele><time>2026-05-01T15:27:29Z</time></trkpt><trkpt lat="42.19450359749052" lon="8.634236527615599"><ele>161.0</ele><time>2026-05-01T15:27:30Z</time></trkpt><trkpt lat="42.19431114178763" lon="8.634050273081327"><ele>158.0</ele><time>2026-05-01T15:27:31Z</time></trkpt><trkpt lat="42.19407297673002" lon="8.633914911989603"><ele>148.0</ele><time>2026-05-01T15:27:32Z</time></trkpt><trkpt lat="42.19382032012592" lon="8.633789826581463"><ele>138.0</ele><time>2026-05-01T15:27:33Z</time></trkpt><trkpt lat="42.19357961093374" lon="8.633658592748397"><ele>143.0</ele><time>2026-05-01T15:27:34Z</time></trkpt><trkpt lat="42.19334851772166" lon="8.63354855186638"><ele>148.0</ele><time>2026-05-01T15:27:35Z</time></trkpt><trkpt lat="42.19309822835846" lon="8.633481825726745"><ele>148.0</ele><time>2026-05-01T15:27:36Z</time></trkpt><trkpt lat="42.1928391348746" lon="8.633450811782714"><ele>148.0</ele><time>2026-05-01T15:27:37Z</time></trkpt><trkpt lat="42.19261289232914" lon="8.633414157431556"><ele>148.0</ele><time>2026-05-01T15:27:38Z</time></trkpt><trkpt lat="42.19245304120763" lon="8.633370516347615"><ele>148.0</ele><time>2026-05-01T15:27:39.001Z</time></trkpt><trkpt lat="42.19234079251813" lon="8.63332378312593"><ele>148.0</ele><time>2026-05-01T15:27:40.001Z</time></trkpt><trkpt lat="42.19225817953654" lon="8.633270461862935"><ele>148.0</ele><time>2026-05-01T15:27:41.001Z</time></trkpt><trkpt lat="42.192193616580795" lon="8.63318050961646"><ele>140.25</ele><time>2026-05-01T15:27:42.001Z</time></trkpt><trkpt lat="42.19214385533115" lon="8.633018497046066"><ele>132.5</ele><time>2026-05-01T15:27:43.001Z</time></trkpt><trkpt lat="42.192125463474" lon="8.63281839040511"><ele>124.75</ele><time>2026-05-01T15:27:44.001Z</time></trkpt><trkpt lat="42.1921576208049" lon="8.632610604566038"><ele>117.0</ele><time>2026-05-01T15:27:45.001Z</time></trkpt><trkpt lat="42.192234446430724" lon="8.632409533381537"><ele>116.66666666666666</ele><time>2026-05-01T15:27:46.001Z</time></trkpt><trkpt lat="42.19233770584667" lon="8.632220216040142"><ele>116.33333333333333</ele><time>2026-05-01T15:27:47.001Z</time></trkpt><trkpt lat="42.192444133414924" lon="8.632023677943026"><ele>116.0</ele><time>2026-05-01T15:27:48.001Z</time></trkpt><trkpt lat="42.19253580758108" lon="8.631818801769873"><ele>124.0</ele><time>2026-05-01T15:27:49.001Z</time></trkpt><trkpt lat="42.19259179806767" lon="8.631614431880553"><ele>132.0</ele><time>2026-05-01T15:27:50.001Z</time></trkpt><trkpt lat="42.19260044608771" lon="8.631403757918314"><ele>140.0</ele><time>2026-05-01T15:27:51.001Z</time></trkpt><trkpt lat="42.1925587220233" lon="8.631215324199525"><ele>141.0</ele><time>2026-05-01T15:27:52.001Z</time></trkpt><trkpt lat="42.19246354689607" lon="8.631081730431925"><ele>142.0</ele><time>2026-05-01T15:27:53.001Z</time></trkpt><trkpt lat="42.19231218369012" lon="8.631002463279541"><ele>143.0</ele><time>2026-05-01T15:27:54.001Z</time></trkpt><trkpt lat="42.19211018397029" lon="8.63094662877666"><ele>137.33333333333331</ele><time>2026-05-01T15:27:55.001Z</time></trkpt><trkpt lat="42.19190948450721" lon="8.630886182779639"><ele>131.66666666666666</ele><time>2026-05-01T15:27:56.001Z</time></trkpt><trkpt lat="42.191711900926045" lon="8.63081182187067"><ele>126.0</ele><time>2026-05-01T15:27:57.001Z</time></trkpt><trkpt lat="42.19152615390968" lon="8.630721562774283"><ele>122.25</ele><time>2026-05-01T15:27:58.001Z</time></trkpt><trkpt lat="42.1913878559435" lon="8.630630913914803"><ele>118.5</ele><time>2026-05-01T15:27:59.001Z</time></trkpt><trkpt lat="42.19129287472752" lon="8.630529448772716"><ele>114.75</ele><time>2026-05-01T15:28:00.001Z</time></trkpt><trkpt lat="42.19125053843523" lon="8.630407124291619"><ele>111.0</ele><time>2026-05-01T15:28:01.001Z</time></trkpt><trkpt lat="42.19127506797714" lon="8.630254500711766"><ele>111.0</ele><time>2026-05-01T15:28:02.001Z</time></trkpt><trkpt lat="42.191365525671095" lon="8.630112792455925"><ele>111.0</ele><time>2026-05-01T15:28:03.001Z</time></trkpt><trkpt lat="42.19147816015841" lon="8.630020612809098"><ele>111.0</ele><time>2026-05-01T15:28:04.001Z</time></trkpt><trkpt lat="42.19161461571143" lon="8.629979675763375"><ele>111.0</ele><time>2026-05-01T15:28:05.001Z</time></trkpt><trkpt lat="42.191772808980595" lon="8.629940323097825"><ele>113.33333333333334</ele><time>2026-05-01T15:28:06.001Z</time></trkpt><trkpt lat="42.19194900766738" lon="8.629872887403316"><ele>115.66666666666667</ele><time>2026-05-01T15:28:07.002Z</time></trkpt><trkpt lat="42.19213859119182" lon="8.629779546577701"><ele>118.0</ele><time>2026-05-01T15:28:08.002Z</time></trkpt><trkpt lat="42.19234064056812" lon="8.629655036490732"><ele>111.5</ele><time>2026-05-01T15:28:09.002Z</time></trkpt><trkpt lat="42.19255388192678" lon="8.629502747104972"><ele>105.0</ele><time>2026-05-01T15:28:10.002Z</time></trkpt><trkpt lat="42.19279167518825" lon="8.629330173315044"><ele>105.0</ele><time>2026-05-01T15:28:11.002Z</time></trkpt><trkpt lat="42.193041815289554" lon="8.629144463223845"><ele>105.0</ele><time>2026-05-01T15:28:12.002Z</time></trkpt><trkpt lat="42.19326403778416" lon="8.628936374453907"><ele>105.33333333333334</ele><time>2026-05-01T15:28:13.002Z</time></trkpt><trkpt lat="42.19343706151178" lon="8.628712388312364"><ele>105.66666666666667</ele><time>2026-05-01T15:28:14.002Z</time></trkpt><trkpt lat="42.193568879282516" lon="8.628519603181212"><ele>106.0</ele><time>2026-05-01T15:28:15.002Z</time></trkpt><trkpt lat="42.19366712561108" lon="8.628367923868856"><ele>106.0</ele><time>2026-05-01T15:28:16.002Z</time></trkpt><trkpt lat="42.19372468004271" lon="8.6282538043247"><ele>106.0</ele><time>2026-05-01T15:28:17.002Z</time></trkpt><trkpt lat="42.19373953288164" lon="8.628141212264822"><ele>106.0</ele><time>2026-05-01T15:28:18.002Z</time></trkpt><trkpt lat="42.19371380710725" lon="8.628021333034221"><ele>106.0</ele><time>2026-05-01T15:28:19.002Z</time></trkpt><trkpt lat="42.193659280934654" lon="8.627915062754697"><ele>106.0</ele><time>2026-05-01T15:28:20.002Z</time></trkpt><trkpt lat="42.1935659259141" lon="8.627836497304688"><ele>106.0</ele><time>2026-05-01T15:28:21.002Z</time></trkpt><trkpt lat="42.193448895651095" lon="8.62781999130768"><ele>106.0</ele><time>2026-05-01T15:28:22.002Z</time></trkpt><trkpt lat="42.19332991583006" lon="8.62786615568504"><ele>106.0</ele><time>2026-05-01T15:28:23.002Z</time></trkpt><trkpt lat="42.1931886421294" lon="8.627953072398224"><ele>106.0</ele><time>2026-05-01T15:28:24.002Z</time></trkpt><trkpt lat="42.19302973638699" lon="8.628034249074384"><ele>101.33333333333334</ele><time>2026-05-01T15:28:25.002Z</time></trkpt><trkpt lat="42.192855389718474" lon="8.628045311488783"><ele>96.66666666666667</ele><time>2026-05-01T15:28:26.002Z</time></trkpt><trkpt lat="42.19267226351517" lon="8.62798047304413"><ele>92.0</ele><time>2026-05-01T15:28:27.002Z</time></trkpt><trkpt lat="42.19249187078287" lon="8.62786886085641"><ele>89.33333333333334</ele><time>2026-05-01T15:28:28.002Z</time></trkpt><trkpt lat="42.19231997093607" lon="8.627786792558581"><ele>86.66666666666667</ele><time>2026-05-01T15:28:29.002Z</time></trkpt><trkpt lat="42.1921394337663" lon="8.627790430506677"><ele>84.0</ele><time>2026-05-01T15:28:30.002Z</time></trkpt><trkpt lat="42.19195542214438" lon="8.627861815611118"><ele>84.0</ele><time>2026-05-01T15:28:31.002Z</time></trkpt><trkpt lat="42.1917637947864" lon="8.627957172055337"><ele>84.0</ele><time>2026-05-01T15:28:32.002Z</time></trkpt><trkpt lat="42.19155605549033" lon="8.6279950316285"><ele>84.0</ele><time>2026-05-01T15:28:33.002Z</time></trkpt><trkpt lat="42.19133290933213" lon="8.62797442226857"><ele>78.0</ele><time>2026-05-01T15:28:34.002Z</time></trkpt><trkpt lat="42.191079636008254" lon="8.627919065236808"><ele>72.0</ele><time>2026-05-01T15:28:35.002Z</time></trkpt><trkpt lat="42.19078644342588" lon="8.627838756296889"><ele>83.5</ele><time>2026-05-01T15:28:36.002Z</time></trkpt><trkpt lat="42.19047298347858" lon="8.627769329053656"><ele>95.0</ele><time>2026-05-01T15:28:37.002Z</time></trkpt><trkpt lat="42.19013803863312" lon="8.627729187953424"><ele>89.5</ele><time>2026-05-01T15:28:38.002Z</time></trkpt><trkpt lat="42.18978437546766" lon="8.627686843273965"><ele>84.0</ele><time>2026-05-01T15:28:39.003Z</time></trkpt><trkpt lat="42.18942467915952" lon="8.627631884431493"><ele>84.0</ele><time>2026-05-01T15:28:40.003Z</time></trkpt><trkpt lat="42.18912439813771" lon="8.627587860914987"><ele>84.0</ele><time>2026-05-01T15:28:41.003Z</time></trkpt><trkpt lat="42.18886435753906" lon="8.627556532595252"><ele>78.66666666666667</ele><time>2026-05-01T15:28:42.003Z</time></trkpt><trkpt lat="42.18864078688157" lon="8.627521827378478"><ele>73.33333333333334</ele><time>2026-05-01T15:28:43.003Z</time></trkpt><trkpt lat="42.1884541858217" lon="8.62744567126309"><ele>68.0</ele><time>2026-05-01T15:28:44.003Z</time></trkpt><trkpt lat="42.18827676986018" lon="8.627279661855743"><ele>59.66666666666667</ele><time>2026-05-01T15:28:45.003Z</time></trkpt><trkpt lat="42.188140981711" lon="8.62704887982941"><ele>51.333333333333336</ele><time>2026-05-01T15:28:46.003Z</time></trkpt><trkpt lat="42.18805920363024" lon="8.626789632464776"><ele>43.0</ele><time>2026-05-01T15:28:47.003Z</time></trkpt><trkpt lat="42.188028082558446" lon="8.626495366833312"><ele>43.0</ele><time>2026-05-01T15:28:48.003Z</time></trkpt><trkpt lat="42.188019970604486" lon="8.62618466351328"><ele>43.0</ele><time>2026-05-01T15:28:49.003Z</time></trkpt><trkpt lat="42.18799674989584" lon="8.625910387495106"><ele>43.0</ele><time>2026-05-01T15:28:50.003Z</time></trkpt><trkpt lat="42.187965514338295" lon="8.625662527495416"><ele>43.66666666666667</ele><time>2026-05-01T15:28:51.003Z</time></trkpt><trkpt lat="42.1879330754878" lon="8.625402628574584"><ele>44.333333333333336</ele><time>2026-05-01T15:28:52.003Z</time></trkpt><trkpt lat="42.18789715959152" lon="8.625115470154467"><ele>45.0</ele><time>2026-05-01T15:28:53.003Z</time></trkpt><trkpt lat="42.18784649026452" lon="8.624820704366657"><ele>47.0</ele><time>2026-05-01T15:28:54.003Z</time></trkpt><trkpt lat="42.187783374195845" lon="8.624519837022401"><ele>49.0</ele><time>2026-05-01T15:28:55.003Z</time></trkpt><trkpt lat="42.187721740552135" lon="8.624209457101157"><ele>51.0</ele><time>2026-05-01T15:28:56.003Z</time></trkpt><trkpt lat="42.18765696692255" lon="8.623911050395456"><ele>53.0</ele><time>2026-05-01T15:28:57.003Z</time></trkpt><trkpt lat="42.187558154891846" lon="8.623629129206535"><ele>57.5</ele><time>2026-05-01T15:28:58.003Z</time></trkpt><trkpt lat="42.187424634175244" lon="8.623341549275844"><ele>62.0</ele><time>2026-05-01T15:28:59.003Z</time></trkpt><trkpt lat="42.187291764661246" lon="8.62306154834707"><ele>50.5</ele><time>2026-05-01T15:29:00.003Z</time></trkpt><trkpt lat="42.18717446011757" lon="8.6227997784061"><ele>39.0</ele><time>2026-05-01T15:29:01.003Z</time></trkpt><trkpt lat="42.187061009036945" lon="8.622526910206112"><ele>39.0</ele><time>2026-05-01T15:29:02.003Z</time></trkpt><trkpt lat="42.186954277782974" lon="8.622236655369848"><ele>39.0</ele><time>2026-05-01T15:29:03.003Z</time></trkpt><trkpt lat="42.186838486488945" lon="8.621941004021076"><ele>44.0</ele><time>2026-05-01T15:29:04.003Z</time></trkpt><trkpt lat="42.18670105445982" lon="8.621649492039147"><ele>49.0</ele><time>2026-05-01T15:29:05.003Z</time></trkpt><trkpt lat="42.18654179516734" lon="8.621344481652491"><ele>40.0</ele><time>2026-05-01T15:29:05.997Z</time></trkpt><trkpt lat="42.186374571432296" lon="8.621000686482926"><ele>31.0</ele><time>2026-05-01T15:29:06.997Z</time></trkpt><trkpt lat="42.18620060157627" lon="8.620628767371437"><ele>36.0</ele><time>2026-05-01T15:29:07.997Z</time></trkpt><trkpt lat="42.18601638366365" lon="8.620238282199336"><ele>41.0</ele><time>2026-05-01T15:29:08.997Z</time></trkpt><trkpt lat="42.1858397904499" lon="8.619882168724688"><ele>31.0</ele><time>2026-05-01T15:29:09.997Z</time></trkpt><trkpt lat="42.18564812881243" lon="8.619576990465255"><ele>21.0</ele><time>2026-05-01T15:29:10.997Z</time></trkpt><trkpt lat="42.18545392990085" lon="8.619229804923219"><ele>21.0</ele><time>2026-05-01T15:29:11.998Z</time></trkpt><trkpt lat="42.18528595574549" lon="8.618823581137425"><ele>21.0</ele><time>2026-05-01T15:29:12.998Z</time></trkpt><trkpt lat="42.185126315834104" lon="8.61840744697555"><ele>21.0</ele><time>2026-05-01T15:29:13.998Z</time></trkpt><trkpt lat="42.1849899760779" lon="8.618061412933177"><ele>21.0</ele><time>2026-05-01T15:29:14.998Z</time></trkpt><trkpt lat="42.18487483160995" lon="8.617787642032459"><ele>20.0</ele><time>2026-05-01T15:29:15.998Z</time></trkpt><trkpt lat="42.18477534006022" lon="8.617591351911443"><ele>19.0</ele><time>2026-05-01T15:29:16.998Z</time></trkpt><trkpt lat="42.18466709060881" lon="8.617456473282513"><ele>18.0</ele><time>2026-05-01T15:29:17.998Z</time></trkpt><trkpt lat="42.184496524585015" lon="8.61735209353693"><ele>18.0</ele><time>2026-05-01T15:29:18.998Z</time></trkpt><trkpt lat="42.18429875568435" lon="8.617327813516724"><ele>18.0</ele><time>2026-05-01T15:29:19.998Z</time></trkpt><trkpt lat="42.184073516065666" lon="8.617379406790324"><ele>18.0</ele><time>2026-05-01T15:29:20.999Z</time></trkpt><trkpt lat="42.18381548739654" lon="8.617459936067164"><ele>19.0</ele><time>2026-05-01T15:29:21.999Z</time></trkpt><trkpt lat="42.183528469278066" lon="8.617521865471714"><ele>20.0</ele><time>2026-05-01T15:29:22.999Z</time></trkpt><trkpt lat="42.183291518099345" lon="8.617552941944393"><ele>23.333333333333336</ele><time>2026-05-01T15:29:23.999Z</time></trkpt><trkpt lat="42.1831234943407" lon="8.617519121619832"><ele>26.666666666666668</ele><time>2026-05-01T15:29:24.999Z</time></trkpt><trkpt lat="42.18297694945657" lon="8.617408503209127"><ele>30.0</ele><time>2026-05-01T15:29:25.999Z</time></trkpt><trkpt lat="42.18282923858614" lon="8.617225646371388"><ele>25.0</ele><time>2026-05-01T15:29:26.999Z</time></trkpt><trkpt lat="42.18266254660995" lon="8.616969078975758"><ele>20.0</ele><time>2026-05-01T15:29:27.999Z</time></trkpt><trkpt lat="42.18246356410388" lon="8.616721407611596"><ele>30.0</ele><time>2026-05-01T15:29:28.999Z</time></trkpt><trkpt lat="42.182247895262215" lon="8.616469681622211"><ele>40.0</ele><time>2026-05-01T15:29:29.999Z</time></trkpt><trkpt lat="42.182022330423855" lon="8.616222093420156"><ele>30.0</ele><time>2026-05-01T15:29:31Z</time></trkpt><trkpt lat="42.18178287124243" lon="8.61598234470168"><ele>20.0</ele><time>2026-05-01T15:29:32Z</time></trkpt><trkpt lat="42.181516785328625" lon="8.615766269879797"><ele>25.5</ele><time>2026-05-01T15:29:33Z</time></trkpt><trkpt lat="42.1812372296892" lon="8.61554758064387"><ele>31.0</ele><time>2026-05-01T15:29:34Z</time></trkpt><trkpt lat="42.18095344989363" lon="8.615327045604483"><ele>26.0</ele><time>2026-05-01T15:29:35Z</time></trkpt><trkpt lat="42.180685796211414" lon="8.6151257808166"><ele>21.0</ele><time>2026-05-01T15:29:36Z</time></trkpt><trkpt lat="42.180428987521125" lon="8.614949899495091"><ele>21.0</ele><time>2026-05-01T15:29:37Z</time></trkpt><trkpt lat="42.18017408709085" lon="8.614785466006012"><ele>21.0</ele><time>2026-05-01T15:29:38Z</time></trkpt><trkpt lat="42.17991388415912" lon="8.614623899012093"><ele>17.5</ele><time>2026-05-01T15:29:39Z</time></trkpt><trkpt lat="42.17965581077362" lon="8.614450042352615"><ele>14.0</ele><time>2026-05-01T15:29:40Z</time></trkpt><trkpt lat="42.1794009399595" lon="8.614274219452893"><ele>14.0</ele><time>2026-05-01T15:29:41Z</time></trkpt><trkpt lat="42.179158837550155" lon="8.614098104778158"><ele>14.0</ele><time>2026-05-01T15:29:42Z</time></trkpt><trkpt lat="42.17890589322949" lon="8.613944052779859"><ele>13.5</ele><time>2026-05-01T15:29:43Z</time></trkpt><trkpt lat="42.17866178837878" lon="8.613791105534087"><ele>13.0</ele><time>2026-05-01T15:29:44Z</time></trkpt><trkpt lat="42.178420293554574" lon="8.613646053304699"><ele>10.5</ele><time>2026-05-01T15:29:45Z</time></trkpt><trkpt lat="42.17817435578008" lon="8.613508964621195"><ele>8.0</ele><time>2026-05-01T15:29:46Z</time></trkpt><trkpt lat="42.177927164673186" lon="8.613376641052048"><ele>8.0</ele><time>2026-05-01T15:29:47Z</time></trkpt><trkpt lat="42.17768296649121" lon="8.613244729551988"><ele>8.0</ele><time>2026-05-01T15:29:48.001Z</time></trkpt><trkpt lat="42.17743743879685" lon="8.613110529381052"><ele>7.0</ele><time>2026-05-01T15:29:49.001Z</time></trkpt><trkpt lat="42.17718904939192" lon="8.612968290090667"><ele>6.0</ele><time>2026-05-01T15:29:50.001Z</time></trkpt><trkpt lat="42.17694506457912" lon="8.612830035664247"><ele>5.5</ele><time>2026-05-01T15:29:51.001Z</time></trkpt><trkpt lat="42.1767001557436" lon="8.61269287705114"><ele>5.0</ele><time>2026-05-01T15:29:52.001Z</time></trkpt><trkpt lat="42.176457210929364" lon="8.612552395227826"><ele>6.0</ele><time>2026-05-01T15:29:53.001Z</time></trkpt><trkpt lat="42.17620900362284" lon="8.612415246977463"><ele>7.0</ele><time>2026-05-01T15:29:54.001Z</time></trkpt><trkpt lat="42.175962140676276" lon="8.612280139892826"><ele>7.0</ele><time>2026-05-01T15:29:55.001Z</time></trkpt><trkpt lat="42.175712487492966" lon="8.612139955979202"><ele>7.0</ele><time>2026-05-01T15:29:56.001Z</time></trkpt><trkpt lat="42.17546528293701" lon="8.61200309627019"><ele>8.0</ele><time>2026-05-01T15:29:57.001Z</time></trkpt><trkpt lat="42.17521560163582" lon="8.61185933294564"><ele>9.0</ele><time>2026-05-01T15:29:58.001Z</time></trkpt><trkpt lat="42.174971414134944" lon="8.611720089486344"><ele>8.5</ele><time>2026-05-01T15:29:59.001Z</time></trkpt><trkpt lat="42.1747247546534" lon="8.611583903085155"><ele>8.0</ele><time>2026-05-01T15:30:00.001Z</time></trkpt><trkpt lat="42.17447918771284" lon="8.6114471021499"><ele>8.0</ele><time>2026-05-01T15:30:01.001Z</time></trkpt><trkpt lat="42.174231309842746" lon="8.611316938359078"><ele>8.0</ele><time>2026-05-01T15:30:02.001Z</time></trkpt><trkpt lat="42.17399260607395" lon="8.61118384412056"><ele>8.0</ele><time>2026-05-01T15:30:03.001Z</time></trkpt><trkpt lat="42.17376925726001" lon="8.611052427574418"><ele>8.0</ele><time>2026-05-01T15:30:04.001Z</time></trkpt><trkpt lat="42.173585835400544" lon="8.61088812304248"><ele>8.0</ele><time>2026-05-01T15:30:05.001Z</time></trkpt><trkpt lat="42.17342929281826" lon="8.610729959038249"><ele>8.0</ele><time>2026-05-01T15:30:06.001Z</time></trkpt><trkpt lat="42.17330162133736" lon="8.610574745006202"><ele>8.0</ele><time>2026-05-01T15:30:07.001Z</time></trkpt><trkpt lat="42.17317974818289" lon="8.610420603904274"><ele>11.666666666666666</ele><time>2026-05-01T15:30:08.001Z</time></trkpt><trkpt lat="42.17307628600465" lon="8.61023467599897"><ele>15.333333333333332</ele><time>2026-05-01T15:30:09.001Z</time></trkpt><trkpt lat="42.17300388446113" lon="8.610025147609484"><ele>19.0</ele><time>2026-05-01T15:30:10.001Z</time></trkpt><trkpt lat="42.1729305707898" lon="8.609818055894685"><ele>19.0</ele><time>2026-05-01T15:30:11.001Z</time></trkpt><trkpt lat="42.17287129462267" lon="8.60960651738074"><ele>19.0</ele><time>2026-05-01T15:30:12.001Z</time></trkpt><trkpt lat="42.172800846547574" lon="8.609402436554646"><ele>19.0</ele><time>2026-05-01T15:30:13.001Z</time></trkpt><trkpt lat="42.172747450255024" lon="8.609189015374383"><ele>18.666666666666664</ele><time>2026-05-01T15:30:14.001Z</time></trkpt><trkpt lat="42.17268530332058" lon="8.60898563359064"><ele>18.333333333333332</ele><time>2026-05-01T15:30:15.002Z</time></trkpt><trkpt lat="42.17261791382828" lon="8.608800355032653"><ele>18.0</ele><time>2026-05-01T15:30:16.002Z</time></trkpt><trkpt lat="42.172541945019944" lon="8.608619422952863"><ele>18.5</ele><time>2026-05-01T15:30:17.002Z</time></trkpt><trkpt lat="42.17244864807507" lon="8.608468197112174"><ele>19.0</ele><time>2026-05-01T15:30:18.002Z</time></trkpt><trkpt lat="42.1723383719875" lon="8.608368656059593"><ele>19.5</ele><time>2026-05-01T15:30:19.002Z</time></trkpt><trkpt lat="42.17220884574091" lon="8.60830775075874"><ele>20.0</ele><time>2026-05-01T15:30:20.002Z</time></trkpt><trkpt lat="42.172066641048296" lon="8.60829963990304"><ele>20.0</ele><time>2026-05-01T15:30:21.002Z</time></trkpt><trkpt lat="42.171934958244556" lon="8.608303132968723"><ele>20.0</ele><time>2026-05-01T15:30:22.002Z</time></trkpt><trkpt lat="42.171807066270716" lon="8.608354079895946"><ele>20.0</ele><time>2026-05-01T15:30:23.002Z</time></trkpt><trkpt lat="42.171687030760005" lon="8.608440703556262"><ele>20.0</ele><time>2026-05-01T15:30:24.002Z</time></trkpt><trkpt lat="42.171573586268394" lon="8.608534165218737"><ele>19.75</ele><time>2026-05-01T15:30:25.002Z</time></trkpt><trkpt lat="42.17144550431351" lon="8.60862733989241"><ele>19.5</ele><time>2026-05-01T15:30:26.002Z</time></trkpt><trkpt lat="42.17131703633726" lon="8.608709394985045"><ele>19.25</ele><time>2026-05-01T15:30:27.002Z</time></trkpt><trkpt lat="42.171181992165266" lon="8.608769381170703"><ele>19.0</ele><time>2026-05-01T15:30:28.002Z</time></trkpt><trkpt lat="42.171058994496164" lon="8.608853798597972"><ele>20.5</ele><time>2026-05-01T15:30:29.002Z</time></trkpt><trkpt lat="42.170928884190374" lon="8.608914318650076"><ele>22.0</ele><time>2026-05-01T15:30:30.002Z</time></trkpt><trkpt lat="42.17079832252279" lon="8.60897209552263"><ele>23.5</ele><time>2026-05-01T15:30:31.002Z</time></trkpt><trkpt lat="42.170664392739496" lon="8.609018932144068"><ele>25.0</ele><time>2026-05-01T15:30:32.002Z</time></trkpt><trkpt lat="42.17053064959283" lon="8.60905729410803"><ele>26.25</ele><time>2026-05-01T15:30:33.002Z</time></trkpt><trkpt lat="42.170394453228724" lon="8.609092259013146"><ele>27.5</ele><time>2026-05-01T15:30:34.002Z</time></trkpt><trkpt lat="42.17025538777245" lon="8.609119531093562"><ele>28.75</ele><time>2026-05-01T15:30:35.002Z</time></trkpt><trkpt lat="42.1701185513397" lon="8.609140362174756"><ele>30.0</ele><time>2026-05-01T15:30:36.002Z</time></trkpt><trkpt lat="42.169981366054856" lon="8.609134829044985"><ele>32.5</ele><time>2026-05-01T15:30:37.002Z</time></trkpt><trkpt lat="42.16985141532536" lon="8.609085907403747"><ele>35.0</ele><time>2026-05-01T15:30:38.002Z</time></trkpt><trkpt lat="42.169739328587944" lon="8.608995451601162"><ele>37.5</ele><time>2026-05-01T15:30:39.002Z</time></trkpt><trkpt lat="42.16963313412351" lon="8.608891144812992"><ele>40.0</ele><time>2026-05-01T15:30:40.002Z</time></trkpt><trkpt lat="42.169526331906816" lon="8.608780661400191"><ele>40.0</ele><time>2026-05-01T15:30:41.002Z</time></trkpt><trkpt lat="42.16942030277912" lon="8.608665363561169"><ele>40.0</ele><time>2026-05-01T15:30:42.002Z</time></trkpt><trkpt lat="42.16931406401628" lon="8.608549116731092"><ele>40.0</ele><time>2026-05-01T15:30:43.002Z</time></trkpt><trkpt lat="42.1692101601964" lon="8.608435832499838"><ele>40.0</ele><time>2026-05-01T15:30:44.002Z</time></trkpt><trkpt lat="42.169109031711336" lon="8.608316937990526"><ele>41.5</ele><time>2026-05-01T15:30:45.002Z</time></trkpt><trkpt lat="42.16900916433272" lon="8.608197066096405"><ele>43.0</ele><time>2026-05-01T15:30:46.002Z</time></trkpt><trkpt lat="42.16891347103278" lon="8.608073881355532"><ele>44.5</ele><time>2026-05-01T15:30:47.003Z</time></trkpt><trkpt lat="42.16882287083725" lon="8.607935584411344"><ele>46.0</ele><time>2026-05-01T15:30:48.003Z</time></trkpt><trkpt lat="42.16873597712539" lon="8.6077863270072"><ele>46.0</ele><time>2026-05-01T15:30:49.003Z</time></trkpt><trkpt lat="42.168658584633775" lon="8.607624725551235"><ele>46.0</ele><time>2026-05-01T15:30:50.003Z</time></trkpt><trkpt lat="42.168591290158965" lon="8.607452927876995"><ele>46.0</ele><time>2026-05-01T15:30:51.003Z</time></trkpt><trkpt lat="42.168530993163444" lon="8.607274261219718"><ele>46.0</ele><time>2026-05-01T15:30:52.003Z</time></trkpt><trkpt lat="42.168471178477326" lon="8.607096259705623"><ele>46.0</ele><time>2026-05-01T15:30:53.003Z</time></trkpt><trkpt lat="42.16841069684787" lon="8.60691764271532"><ele>46.0</ele><time>2026-05-01T15:30:54.003Z</time></trkpt><trkpt lat="42.168347633407286" lon="8.60673993799315"><ele>46.0</ele><time>2026-05-01T15:30:55.003Z</time></trkpt><trkpt lat="42.168283966677215" lon="8.606561090713974"><ele>46.0</ele><time>2026-05-01T15:30:56.003Z</time></trkpt><trkpt lat="42.16822181055333" lon="8.60638438002711"><ele>51.0</ele><time>2026-05-01T15:30:57.003Z</time></trkpt><trkpt lat="42.16815913972792" lon="8.606207527482182"><ele>56.0</ele><time>2026-05-01T15:30:58.003Z</time></trkpt><trkpt lat="42.16809918475521" lon="8.606031237482703"><ele>61.0</ele><time>2026-05-01T15:30:59.003Z</time></trkpt><trkpt lat="42.16803880006389" lon="8.605853830397184"><ele>66.0</ele><time>2026-05-01T15:31:00.003Z</time></trkpt><trkpt lat="42.16798172232462" lon="8.60567470650583"><ele>66.0</ele><time>2026-05-01T15:31:01.003Z</time></trkpt><trkpt lat="42.167923913669604" lon="8.605490945357408"><ele>66.0</ele><time>2026-05-01T15:31:02.003Z</time></trkpt><trkpt lat="42.167861648432975" lon="8.605305893980931"><ele>66.0</ele><time>2026-05-01T15:31:03.003Z</time></trkpt><trkpt lat="42.16779411689286" lon="8.605122497209377"><ele>63.33333333333333</ele><time>2026-05-01T15:31:04.003Z</time></trkpt><trkpt lat="42.167713817933965" lon="8.604948792757552"><ele>60.666666666666664</ele><time>2026-05-01T15:31:05.003Z</time></trkpt><trkpt lat="42.16761527097922" lon="8.604790226521734"><ele>58.0</ele><time>2026-05-01T15:31:06.003Z</time></trkpt><trkpt lat="42.16750284283139" lon="8.604651159537871"><ele>58.0</ele><time>2026-05-01T15:31:07.003Z</time></trkpt><trkpt lat="42.16738122234682" lon="8.604515662140729"><ele>58.0</ele><time>2026-05-01T15:31:08.003Z</time></trkpt><trkpt lat="42.1672532441004" lon="8.604381856697607"><ele>58.0</ele><time>2026-05-01T15:31:09.003Z</time></trkpt><trkpt lat="42.16712349360492" lon="8.604249408159172"><ele>61.33333333333333</ele><time>2026-05-01T15:31:10.003Z</time></trkpt><trkpt lat="42.1669962294297" lon="8.604115764886481"><ele>64.66666666666667</ele><time>2026-05-01T15:31:11.003Z</time></trkpt><trkpt lat="42.166868038251216" lon="8.603978596524428"><ele>68.0</ele><time>2026-05-01T15:31:11.997Z</time></trkpt><trkpt lat="42.16673488183799" lon="8.603836983335107"><ele>68.0</ele><time>2026-05-01T15:31:12.997Z</time></trkpt><trkpt lat="42.16659888423021" lon="8.603691881597472"><ele>68.0</ele><time>2026-05-01T15:31:13.997Z</time></trkpt><trkpt lat="42.16645891208048" lon="8.603548843526845"><ele>68.0</ele><time>2026-05-01T15:31:14.997Z</time></trkpt><trkpt lat="42.166320472879946" lon="8.603401232046556"><ele>71.33333333333334</ele><time>2026-05-01T15:31:15.998Z</time></trkpt><trkpt lat="42.16618169247421" lon="8.60325237300003"><ele>74.66666666666667</ele><time>2026-05-01T15:31:16.998Z</time></trkpt><trkpt lat="42.16604163125206" lon="8.603105423654208"><ele>78.0</ele><time>2026-05-01T15:31:17.998Z</time></trkpt><trkpt lat="42.165901458201" lon="8.602959636363506"><ele>79.66666666666667</ele><time>2026-05-01T15:31:18.998Z</time></trkpt><trkpt lat="42.165766705667" lon="8.602817008687829"><ele>81.33333333333334</ele><time>2026-05-01T15:31:19.998Z</time></trkpt><trkpt lat="42.165638302262195" lon="8.60268295419221"><ele>83.0</ele><time>2026-05-01T15:31:20.998Z</time></trkpt><trkpt lat="42.16551240091902" lon="8.602553952259226"><ele>83.0</ele><time>2026-05-01T15:31:21.998Z</time></trkpt><trkpt lat="42.16538748186386" lon="8.60242653205158"><ele>83.0</ele><time>2026-05-01T15:31:22.998Z</time></trkpt><trkpt lat="42.16526255236409" lon="8.602304268808497"><ele>83.0</ele><time>2026-05-01T15:31:23.998Z</time></trkpt><trkpt lat="42.165135491019015" lon="8.602187790923145"><ele>83.0</ele><time>2026-05-01T15:31:24.998Z</time></trkpt><trkpt lat="42.165002213645494" lon="8.602087503793905"><ele>83.0</ele><time>2026-05-01T15:31:25.999Z</time></trkpt><trkpt lat="42.16485996570418" lon="8.60201263986325"><ele>83.0</ele><time>2026-05-01T15:31:26.999Z</time></trkpt><trkpt lat="42.164712795614996" lon="8.601963352220002"><ele>79.33333333333334</ele><time>2026-05-01T15:31:27.999Z</time></trkpt><trkpt lat="42.16456311023525" lon="8.601933099593836"><ele>75.66666666666667</ele><time>2026-05-01T15:31:28.999Z</time></trkpt><trkpt lat="42.16441227028926" lon="8.601908760891854"><ele>72.0</ele><time>2026-05-01T15:31:29.999Z</time></trkpt><trkpt lat="42.164258810405684" lon="8.6018843826521"><ele>72.0</ele><time>2026-05-01T15:31:30.999Z</time></trkpt><trkpt lat="42.164109524736546" lon="8.601857387931174"><ele>72.0</ele><time>2026-05-01T15:31:31.999Z</time></trkpt><trkpt lat="42.16396648358331" lon="8.60181371641425"><ele>72.0</ele><time>2026-05-01T15:31:32.999Z</time></trkpt><trkpt lat="42.163833058556925" lon="8.601744383859161"><ele>72.0</ele><time>2026-05-01T15:31:33.999Z</time></trkpt><trkpt lat="42.16372857183262" lon="8.601625581462647"><ele>76.0</ele><time>2026-05-01T15:31:34.999Z</time></trkpt><trkpt lat="42.16363810278654" lon="8.601489427149213"><ele>80.0</ele><time>2026-05-01T15:31:36Z</time></trkpt><trkpt lat="42.16354553035469" lon="8.601344443753293"><ele>84.0</ele><time>2026-05-01T15:31:37Z</time></trkpt><trkpt lat="42.16347299495992" lon="8.601178097827868"><ele>88.0</ele><time>2026-05-01T15:31:38Z</time></trkpt><trkpt lat="42.163403310720945" lon="8.60100427142077"><ele>88.0</ele><time>2026-05-01T15:31:39Z</time></trkpt><trkpt lat="42.16334889913979" lon="8.600819200722565"><ele>88.0</ele><time>2026-05-01T15:31:40Z</time></trkpt><trkpt lat="42.16332321176137" lon="8.600621720651665"><ele>88.0</ele><time>2026-05-01T15:31:41Z</time></trkpt><trkpt lat="42.163323986762556" lon="8.600419101290102"><ele>88.0</ele><time>2026-05-01T15:31:42Z</time></trkpt><trkpt lat="42.16332887042263" lon="8.600217136072633"><ele>87.0</ele><time>2026-05-01T15:31:43Z</time></trkpt><trkpt lat="42.16333155290236" lon="8.600015500545897"><ele>86.0</ele><time>2026-05-01T15:31:44Z</time></trkpt><trkpt lat="42.1633262128129" lon="8.599810173465212"><ele>85.0</ele><time>2026-05-01T15:31:45Z</time></trkpt><trkpt lat="42.16330168835455" lon="8.599605576387235"><ele>84.33333333333333</ele><time>2026-05-01T15:31:46Z</time></trkpt><trkpt lat="42.163249148495396" lon="8.599407936222189"><ele>83.66666666666667</ele><time>2026-05-01T15:31:47Z</time></trkpt><trkpt lat="42.16317186535556" lon="8.599223847052615"><ele>83.0</ele><time>2026-05-01T15:31:48Z</time></trkpt><trkpt lat="42.16307102240719" lon="8.599055287784427"><ele>88.33333333333334</ele><time>2026-05-01T15:31:49Z</time></trkpt><trkpt lat="42.16295443037386" lon="8.598898954210506"><ele>93.66666666666667</ele><time>2026-05-01T15:31:50Z</time></trkpt><trkpt lat="42.16283073833321" lon="8.598748624927223"><ele>99.0</ele><time>2026-05-01T15:31:51Z</time></trkpt><trkpt lat="42.162706383802735" lon="8.598588807721365"><ele>99.0</ele><time>2026-05-01T15:31:52.001Z</time></trkpt><trkpt lat="42.16258427821211" lon="8.59842695861203"><ele>99.0</ele><time>2026-05-01T15:31:53.001Z</time></trkpt><trkpt lat="42.16246076868408" lon="8.5982630822633"><ele>99.0</ele><time>2026-05-01T15:31:54.001Z</time></trkpt><trkpt lat="42.162334271708495" lon="8.598101425362408"><ele>100.0</ele><time>2026-05-01T15:31:55.001Z</time></trkpt><trkpt lat="42.16221114497944" lon="8.597935575402865"><ele>101.0</ele><time>2026-05-01T15:31:56.001Z</time></trkpt><trkpt lat="42.162083366165334" lon="8.597772195163225"><ele>102.0</ele><time>2026-05-01T15:31:57.001Z</time></trkpt><trkpt lat="42.161957934393754" lon="8.597607466584723"><ele>102.0</ele><time>2026-05-01T15:31:58.001Z</time></trkpt><trkpt lat="42.16183020463826" lon="8.59744804649795"><ele>102.0</ele><time>2026-05-01T15:31:59.001Z</time></trkpt><trkpt lat="42.16169467781428" lon="8.597291484087156"><ele>102.0</ele><time>2026-05-01T15:32:00.001Z</time></trkpt><trkpt lat="42.161553717984425" lon="8.597136451190798"><ele>101.0</ele><time>2026-05-01T15:32:01.001Z</time></trkpt><trkpt lat="42.16141774281981" lon="8.597009166432732"><ele>100.0</ele><time>2026-05-01T15:32:02.001Z</time></trkpt><trkpt lat="42.16127712093941" lon="8.59690359158926"><ele>99.0</ele><time>2026-05-01T15:32:03.001Z</time></trkpt><trkpt lat="42.161124257147804" lon="8.596840848477742"><ele>95.0</ele><time>2026-05-01T15:32:04.001Z</time></trkpt><trkpt lat="42.160958183863315" lon="8.596831650110941"><ele>91.0</ele><time>2026-05-01T15:32:05.001Z</time></trkpt><trkpt lat="42.16079455467927" lon="8.596889704989653"><ele>87.0</ele><time>2026-05-01T15:32:06.001Z</time></trkpt><trkpt lat="42.16063570610904" lon="8.596993661991208"><ele>87.66666666666667</ele><time>2026-05-01T15:32:07.001Z</time></trkpt><trkpt lat="42.16046931989841" lon="8.597103792111682"><ele>88.33333333333334</ele><time>2026-05-01T15:32:08.001Z</time></trkpt><trkpt lat="42.16029238953793" lon="8.597192057056995"><ele>89.0</ele><time>2026-05-01T15:32:09.001Z</time></trkpt><trkpt lat="42.16010285523018" lon="8.59721249891697"><ele>89.0</ele><time>2026-05-01T15:32:10.001Z</time></trkpt><trkpt lat="42.15991971564887" lon="8.597259308555516"><ele>89.0</ele><time>2026-05-01T15:32:11.001Z</time></trkpt><trkpt lat="42.15974777455263" lon="8.59731363087849"><ele>89.0</ele><time>2026-05-01T15:32:12.001Z</time></trkpt><trkpt lat="42.15959134128469" lon="8.597385425810826"><ele>84.33333333333334</ele><time>2026-05-01T15:32:13.001Z</time></trkpt><trkpt lat="42.15946183041726" lon="8.597523669213178"><ele>79.66666666666667</ele><time>2026-05-01T15:32:14.001Z</time></trkpt><trkpt lat="42.159372128569295" lon="8.59773284646788"><ele>75.0</ele><time>2026-05-01T15:32:15.001Z</time></trkpt><trkpt lat="42.15933580539812" lon="8.598013309262548"><ele>75.0</ele><time>2026-05-01T15:32:16.001Z</time></trkpt><trkpt lat="42.15932547192436" lon="8.598310686745144"><ele>75.0</ele><time>2026-05-01T15:32:17.001Z</time></trkpt><trkpt lat="42.15932376170088" lon="8.598611133729777"><ele>75.0</ele><time>2026-05-01T15:32:18.002Z</time></trkpt><trkpt lat="42.159333108453694" lon="8.59891373898747"><ele>73.0</ele><time>2026-05-01T15:32:19.002Z</time></trkpt><trkpt lat="42.15931868753451" lon="8.59921491749377"><ele>71.0</ele><time>2026-05-01T15:32:20.002Z</time></trkpt><trkpt lat="42.15930925562" lon="8.599522528593162"><ele>71.0</ele><time>2026-05-01T15:32:21.002Z</time></trkpt><trkpt lat="42.159266859171815" lon="8.599823427266129"><ele>71.0</ele><time>2026-05-01T15:32:22.002Z</time></trkpt><trkpt lat="42.15922255204532" lon="8.600106493937584"><ele>71.0</ele><time>2026-05-01T15:32:23.002Z</time></trkpt><trkpt lat="42.1591803308775" lon="8.600371710717486"><ele>70.33333333333334</ele><time>2026-05-01T15:32:24.002Z</time></trkpt><trkpt lat="42.1591327367396" lon="8.600631260294376"><ele>69.66666666666667</ele><time>2026-05-01T15:32:25.002Z</time></trkpt><trkpt lat="42.15904139799139" lon="8.60085297348872"><ele>69.0</ele><time>2026-05-01T15:32:26.002Z</time></trkpt><trkpt lat="42.158909091225496" lon="8.601041206988079"><ele>67.0</ele><time>2026-05-01T15:32:27.002Z</time></trkpt><trkpt lat="42.158739449446315" lon="8.601167703615337"><ele>65.0</ele><time>2026-05-01T15:32:28.002Z</time></trkpt><trkpt lat="42.1585451614576" lon="8.601253138187158"><ele>63.0</ele><time>2026-05-01T15:32:29.002Z</time></trkpt><trkpt lat="42.158355607553446" lon="8.60134050281746"><ele>63.0</ele><time>2026-05-01T15:32:30.002Z</time></trkpt><trkpt lat="42.15820867111408" lon="8.601471553357014"><ele>63.0</ele><time>2026-05-01T15:32:31.002Z</time></trkpt><trkpt lat="42.158097326621096" lon="8.601641882070407"><ele>63.0</ele><time>2026-05-01T15:32:32.002Z</time></trkpt><trkpt lat="42.158038452140424" lon="8.601872521423777"><ele>56.666666666666664</ele><time>2026-05-01T15:32:33.002Z</time></trkpt><trkpt lat="42.158016443675756" lon="8.602126025612954"><ele>50.33333333333333</ele><time>2026-05-01T15:32:34.002Z</time></trkpt><trkpt lat="42.15800014935734" lon="8.6024069822649"><ele>44.0</ele><time>2026-05-01T15:32:35.002Z</time></trkpt><trkpt lat="42.15799414127659" lon="8.602680551303774"><ele>42.666666666666664</ele><time>2026-05-01T15:32:36.002Z</time></trkpt><trkpt lat="42.15803666759941" lon="8.602966394257955"><ele>41.333333333333336</ele><time>2026-05-01T15:32:37.002Z</time></trkpt><trkpt lat="42.15809805560635" lon="8.603252562105535"><ele>40.0</ele><time>2026-05-01T15:32:38.002Z</time></trkpt><trkpt lat="42.15816786333726" lon="8.603537859485314"><ele>44.0</ele><time>2026-05-01T15:32:39.002Z</time></trkpt><trkpt lat="42.15827015841696" lon="8.603813979744249"><ele>48.0</ele><time>2026-05-01T15:32:40.002Z</time></trkpt><trkpt lat="42.15840288977206" lon="8.604067194026376"><ele>48.0</ele><time>2026-05-01T15:32:41.002Z</time></trkpt><trkpt lat="42.15853506074152" lon="8.604316735724066"><ele>48.0</ele><time>2026-05-01T15:32:42.002Z</time></trkpt><trkpt lat="42.15865497423519" lon="8.604562741226271"><ele>48.0</ele><time>2026-05-01T15:32:43.002Z</time></trkpt><trkpt lat="42.1587246333402" lon="8.604827649041214"><ele>45.666666666666664</ele><time>2026-05-01T15:32:44.002Z</time></trkpt><trkpt lat="42.15874066526859" lon="8.605110328402983"><ele>43.33333333333333</ele><time>2026-05-01T15:32:45.002Z</time></trkpt><trkpt lat="42.158702623874426" lon="8.60539231997335"><ele>41.0</ele><time>2026-05-01T15:32:46.002Z</time></trkpt><trkpt lat="42.15861232043756" lon="8.605646955409023"><ele>40.33333333333333</ele><time>2026-05-01T15:32:47.002Z</time></trkpt><trkpt lat="42.158477492441556" lon="8.605858196838945"><ele>39.666666666666664</ele><time>2026-05-01T15:32:48.002Z</time></trkpt><trkpt lat="42.15830668023629" lon="8.60600783854306"><ele>39.0</ele><time>2026-05-01T15:32:49.002Z</time></trkpt><trkpt lat="42.15811487495162" lon="8.606109747106022"><ele>38.333333333333336</ele><time>2026-05-01T15:32:50.003Z</time></trkpt><trkpt lat="42.15791862084889" lon="8.606124614570906"><ele>37.66666666666667</ele><time>2026-05-01T15:32:51.003Z</time></trkpt><trkpt lat="42.157717964241854" lon="8.60608795925374"><ele>37.0</ele><time>2026-05-01T15:32:52.003Z</time></trkpt><trkpt lat="42.15751360540407" lon="8.606032131522495"><ele>36.0</ele><time>2026-05-01T15:32:53.003Z</time></trkpt><trkpt lat="42.157318474073975" lon="8.60598957666059"><ele>35.0</ele><time>2026-05-01T15:32:54.003Z</time></trkpt><trkpt lat="42.15713566498429" lon="8.605933669577096"><ele>34.0</ele><time>2026-05-01T15:32:55.003Z</time></trkpt><trkpt lat="42.156959806161375" lon="8.605891321474926"><ele>34.0</ele><time>2026-05-01T15:32:56.003Z</time></trkpt><trkpt lat="42.1567814801508" lon="8.605852734708668"><ele>34.0</ele><time>2026-05-01T15:32:57.003Z</time></trkpt><trkpt lat="42.15661582841423" lon="8.605820205952256"><ele>34.0</ele><time>2026-05-01T15:32:58.003Z</time></trkpt><trkpt lat="42.156465226869614" lon="8.605812819835277"><ele>32.25</ele><time>2026-05-01T15:32:59.003Z</time></trkpt><trkpt lat="42.15632888707266" lon="8.605832617019033"><ele>30.5</ele><time>2026-05-01T15:33:00.003Z</time></trkpt><trkpt lat="42.156198988508095" lon="8.60588718913371"><ele>28.75</ele><time>2026-05-01T15:33:01.003Z</time></trkpt><trkpt lat="42.15608246338937" lon="8.605979304809937"><ele>27.0</ele><time>2026-05-01T15:33:02.003Z</time></trkpt><trkpt lat="42.1559659483632" lon="8.60609175466872"><ele>29.666666666666664</ele><time>2026-05-01T15:33:03.003Z</time></trkpt><trkpt lat="42.155861289527486" lon="8.60624907461023"><ele>32.33333333333333</ele><time>2026-05-01T15:33:04.003Z</time></trkpt><trkpt lat="42.155774231207225" lon="8.606416248403413"><ele>35.0</ele><time>2026-05-01T15:33:05.003Z</time></trkpt><trkpt lat="42.15570817902774" lon="8.606611555250415"><ele>32.5</ele><time>2026-05-01T15:33:06.003Z</time></trkpt><trkpt lat="42.15563573896191" lon="8.606799450388241"><ele>30.0</ele><time>2026-05-01T15:33:07.003Z</time></trkpt><trkpt lat="42.155586340114006" lon="8.606985197131285"><ele>27.5</ele><time>2026-05-01T15:33:08.003Z</time></trkpt><trkpt lat="42.15553774772054" lon="8.607159149600319"><ele>25.0</ele><time>2026-05-01T15:33:09.003Z</time></trkpt><trkpt lat="42.155460104662154" lon="8.607307202146465"><ele>25.0</ele><time>2026-05-01T15:33:10.003Z</time></trkpt><trkpt lat="42.15534753347754" lon="8.607415536517957"><ele>25.0</ele><time>2026-05-01T15:33:11.003Z</time></trkpt><trkpt lat="42.15523826320254" lon="8.607530517621766"><ele>25.0</ele><time>2026-05-01T15:33:12.003Z</time></trkpt><trkpt lat="42.15513471620672" lon="8.607649175658862"><ele>25.0</ele><time>2026-05-01T15:33:13.003Z</time></trkpt><trkpt lat="42.155008628196676" lon="8.607698927399117"><ele>25.0</ele><time>2026-05-01T15:33:14.003Z</time></trkpt><trkpt lat="42.15489290243876" lon="8.60771357930928"><ele>25.0</ele><time>2026-05-01T15:33:15.003Z</time></trkpt><trkpt lat="42.15477973259" lon="8.60768424416482"><ele>25.0</ele><time>2026-05-01T15:33:16.003Z</time></trkpt><trkpt lat="42.15466163329516" lon="8.607624704156372"><ele>25.0</ele><time>2026-05-01T15:33:17.003Z</time></trkpt><trkpt lat="42.15455978875466" lon="8.607523258143786"><ele>26.0</ele><time>2026-05-01T15:33:17.998Z</time></trkpt><trkpt lat="42.154463705873106" lon="8.607417173859654"><ele>27.0</ele><time>2026-05-01T15:33:18.998Z</time></trkpt><trkpt lat="42.15436089843497" lon="8.607314152218157"><ele>28.0</ele><time>2026-05-01T15:33:19.998Z</time></trkpt><trkpt lat="42.15425563951178" lon="8.607208942273838"><ele>29.0</ele><time>2026-05-01T15:33:20.998Z</time></trkpt><trkpt lat="42.154138215637026" lon="8.607092460780017"><ele>29.0</ele><time>2026-05-01T15:33:21.998Z</time></trkpt><trkpt lat="42.15401403344766" lon="8.606971729211457"><ele>29.0</ele><time>2026-05-01T15:33:22.998Z</time></trkpt><trkpt lat="42.153880520905595" lon="8.606849557641555"><ele>29.0</ele><time>2026-05-01T15:33:23.998Z</time></trkpt><trkpt lat="42.1537492199061" lon="8.606746780753408"><ele>29.0</ele><time>2026-05-01T15:33:24.998Z</time></trkpt><trkpt lat="42.15362160431195" lon="8.606674629782527"><ele>29.0</ele><time>2026-05-01T15:33:25.999Z</time></trkpt><trkpt lat="42.15348697302321" lon="8.606623976330779"><ele>29.0</ele><time>2026-05-01T15:33:26.999Z</time></trkpt><trkpt lat="42.153345747396244" lon="8.606592499247727"><ele>29.0</ele><time>2026-05-01T15:33:27.999Z</time></trkpt><trkpt lat="42.153201845344505" lon="8.60656962787605"><ele>30.0</ele><time>2026-05-01T15:33:28.999Z</time></trkpt><trkpt lat="42.15305686569248" lon="8.606519033377188"><ele>31.0</ele><time>2026-05-01T15:33:29.999Z</time></trkpt><trkpt lat="42.152900494635745" lon="8.606508167717813"><ele>32.0</ele><time>2026-05-01T15:33:30.999Z</time></trkpt><trkpt lat="42.15274646468672" lon="8.606471808912953"><ele>32.0</ele><time>2026-05-01T15:33:31.999Z</time></trkpt><trkpt lat="42.15258976625497" lon="8.606439563141874"><ele>32.0</ele><time>2026-05-01T15:33:32.999Z</time></trkpt><trkpt lat="42.152431408758325" lon="8.606407178758674"><ele>32.0</ele><time>2026-05-01T15:33:33.999Z</time></trkpt><trkpt lat="42.15228044264294" lon="8.606376590897003"><ele>32.800000000000004</ele><time>2026-05-01T15:33:34.999Z</time></trkpt><trkpt lat="42.15215418006797" lon="8.606350195679655"><ele>33.6</ele><time>2026-05-01T15:33:35.999Z</time></trkpt><trkpt lat="42.1520609528404" lon="8.606324096187718"><ele>34.400000000000006</ele><time>2026-05-01T15:33:36.999Z</time></trkpt><trkpt lat="42.151994484432905" lon="8.606290989558723"><ele>35.2</ele><time>2026-05-01T15:33:37.999Z</time></trkpt><trkpt lat="42.1519124322373" lon="8.606273398173432"><ele>36.0</ele><time>2026-05-01T15:33:40Z</time></trkpt><trkpt lat="42.15182327591552" lon="8.606286792234751"><ele>36.0</ele><time>2026-05-01T15:42:31.001Z</time></trkpt><trkpt lat="42.15175932650254" lon="8.6062722819239"><ele>36.0</ele><time>2026-05-01T15:42:32.001Z</time></trkpt><trkpt lat="42.15168030735986" lon="8.60625400219967"><ele>36.0</ele><time>2026-05-01T15:42:33.001Z</time></trkpt><trkpt lat="42.15158466510749" lon="8.60624108753662"><ele>36.0</ele><time>2026-05-01T15:42:34.001Z</time></trkpt><trkpt lat="42.15148157906735" lon="8.606232032056159"><ele>36.0</ele><time>2026-05-01T15:42:35.001Z</time></trkpt><trkpt lat="42.15137215400861" lon="8.606192427760071"><ele>36.5</ele><time>2026-05-01T15:42:36.001Z</time></trkpt><trkpt lat="42.1512478347444" lon="8.6061759773642"><ele>37.0</ele><time>2026-05-01T15:42:37.001Z</time></trkpt><trkpt lat="42.15111457059396" lon="8.606147626776385"><ele>37.5</ele><time>2026-05-01T15:42:38.001Z</time></trkpt><trkpt lat="42.15098040637467" lon="8.606101969600472"><ele>38.0</ele><time>2026-05-01T15:42:39.001Z</time></trkpt><trkpt lat="42.15084253847561" lon="8.606044829418696"><ele>38.0</ele><time>2026-05-01T15:42:40.001Z</time></trkpt><trkpt lat="42.15070203888912" lon="8.60597801380071"><ele>38.0</ele><time>2026-05-01T15:42:41.001Z</time></trkpt><trkpt lat="42.150561605224745" lon="8.605892035327905"><ele>38.0</ele><time>2026-05-01T15:42:42.001Z</time></trkpt><trkpt lat="42.15040705625907" lon="8.605839366950466"><ele>38.0</ele><time>2026-05-01T15:42:43.001Z</time></trkpt><trkpt lat="42.15024700540788" lon="8.605763437044773"><ele>38.0</ele><time>2026-05-01T15:42:44.001Z</time></trkpt><trkpt lat="42.1500802430263" lon="8.605688398630763"><ele>38.0</ele><time>2026-05-01T15:42:45.001Z</time></trkpt><trkpt lat="42.149915110898434" lon="8.605606324751472"><ele>39.33333333333333</ele><time>2026-05-01T15:42:46.001Z</time></trkpt><trkpt lat="42.14975146553885" lon="8.605516262313714"><ele>40.666666666666664</ele><time>2026-05-01T15:42:47.001Z</time></trkpt><trkpt lat="42.14960318732223" lon="8.605388001467281"><ele>42.0</ele><time>2026-05-01T15:42:48.001Z</time></trkpt><trkpt lat="42.149466163977884" lon="8.605223150146509"><ele>42.0</ele><time>2026-05-01T15:42:49.001Z</time></trkpt><trkpt lat="42.1493397610211" lon="8.605039657317239"><ele>42.0</ele><time>2026-05-01T15:42:50.001Z</time></trkpt><trkpt lat="42.149211230420626" lon="8.60483299423528"><ele>42.0</ele><time>2026-05-01T15:42:51.001Z</time></trkpt><trkpt lat="42.14907622929988" lon="8.604629624693047"><ele>44.33333333333333</ele><time>2026-05-01T15:42:52.001Z</time></trkpt><trkpt lat="42.14893067507424" lon="8.604441127275873"><ele>46.666666666666664</ele><time>2026-05-01T15:42:53.001Z</time></trkpt><trkpt lat="42.14877020167808" lon="8.604266655615373"><ele>49.0</ele><time>2026-05-01T15:42:54.001Z</time></trkpt><trkpt lat="42.148598049338275" lon="8.604085680415967"><ele>49.0</ele><time>2026-05-01T15:42:55.001Z</time></trkpt><trkpt lat="42.14843162314892" lon="8.603911494417193"><ele>49.0</ele><time>2026-05-01T15:42:56.001Z</time></trkpt><trkpt lat="42.14825839884813" lon="8.60375353631977"><ele>49.0</ele><time>2026-05-01T15:42:57.001Z</time></trkpt><trkpt lat="42.14808501290165" lon="8.60362771082772"><ele>49.33333333333333</ele><time>2026-05-01T15:42:58.001Z</time></trkpt><trkpt lat="42.14790294072972" lon="8.603512361504215"><ele>49.66666666666667</ele><time>2026-05-01T15:42:59.001Z</time></trkpt><trkpt lat="42.14771665477808" lon="8.603393024290225"><ele>50.0</ele><time>2026-05-01T15:43:00.001Z</time></trkpt><trkpt lat="42.14752526925425" lon="8.603284892240753"><ele>51.333333333333336</ele><time>2026-05-01T15:43:01.001Z</time></trkpt><trkpt lat="42.14734025082278" lon="8.603197709217962"><ele>52.66666666666667</ele><time>2026-05-01T15:43:02.001Z</time></trkpt><trkpt lat="42.147146454627304" lon="8.603152421715414"><ele>54.0</ele><time>2026-05-01T15:43:03.001Z</time></trkpt><trkpt lat="42.14694594706714" lon="8.603140408323284"><ele>54.0</ele><time>2026-05-01T15:43:04.001Z</time></trkpt><trkpt lat="42.146738203516385" lon="8.603141762833893"><ele>54.0</ele><time>2026-05-01T15:43:05.001Z</time></trkpt><trkpt lat="42.14653448503323" lon="8.603158456932675"><ele>54.0</ele><time>2026-05-01T15:43:06.001Z</time></trkpt><trkpt lat="42.14633012661749" lon="8.603176106536111"><ele>54.66666666666667</ele><time>2026-05-01T15:43:07.001Z</time></trkpt><trkpt lat="42.14611591646173" lon="8.60318870332893"><ele>55.333333333333336</ele><time>2026-05-01T15:43:08.001Z</time></trkpt><trkpt lat="42.14590129796689" lon="8.603191125117995"><ele>56.0</ele><time>2026-05-01T15:43:09.001Z</time></trkpt><trkpt lat="42.145686483212515" lon="8.603176967894788"><ele>59.0</ele><time>2026-05-01T15:43:10.001Z</time></trkpt><trkpt lat="42.14547650637521" lon="8.60310225406269"><ele>62.0</ele><time>2026-05-01T15:43:11.001Z</time></trkpt><trkpt lat="42.145282034744746" lon="8.602986818263854"><ele>65.0</ele><time>2026-05-01T15:43:12.001Z</time></trkpt><trkpt lat="42.14510050530113" lon="8.602841870176649"><ele>63.0</ele><time>2026-05-01T15:43:13.001Z</time></trkpt><trkpt lat="42.14492223966268" lon="8.60270226591745"><ele>61.0</ele><time>2026-05-01T15:43:14.001Z</time></trkpt><trkpt lat="42.144753574289645" lon="8.60262018711912"><ele>59.0</ele><time>2026-05-01T15:43:15.001Z</time></trkpt><trkpt lat="42.14459110659657" lon="8.6025832331575"><ele>59.0</ele><time>2026-05-01T15:43:16.001Z</time></trkpt><trkpt lat="42.14442854910906" lon="8.602609965042669"><ele>59.0</ele><time>2026-05-01T15:43:17.001Z</time></trkpt><trkpt lat="42.144274137406605" lon="8.602693483994392"><ele>59.0</ele><time>2026-05-01T15:43:18.001Z</time></trkpt><trkpt lat="42.144126152427155" lon="8.602806509313602"><ele>59.5</ele><time>2026-05-01T15:43:19.001Z</time></trkpt><trkpt lat="42.14398086674819" lon="8.602891475285844"><ele>60.0</ele><time>2026-05-01T15:43:20.001Z</time></trkpt><trkpt lat="42.143842086480795" lon="8.602876119785977"><ele>60.5</ele><time>2026-05-01T15:43:21.001Z</time></trkpt><trkpt lat="42.14370376462274" lon="8.602833523399356"><ele>61.0</ele><time>2026-05-01T15:43:22.001Z</time></trkpt><trkpt lat="42.14353926048104" lon="8.602785879536853"><ele>61.0</ele><time>2026-05-01T15:43:23.002Z</time></trkpt><trkpt lat="42.1433607228222" lon="8.602743879963748"><ele>61.0</ele><time>2026-05-01T15:43:24.002Z</time></trkpt><trkpt lat="42.14319593693902" lon="8.602688265511624"><ele>61.0</ele><time>2026-05-01T15:43:25.002Z</time></trkpt><trkpt lat="42.14305341594829" lon="8.602635843286787"><ele>65.0</ele><time>2026-05-01T15:43:26.002Z</time></trkpt><trkpt lat="42.142925879379725" lon="8.602563453187061"><ele>69.0</ele><time>2026-05-01T15:43:27.002Z</time></trkpt><trkpt lat="42.14282671565953" lon="8.602422145918826"><ele>73.0</ele><time>2026-05-01T15:43:28.002Z</time></trkpt><trkpt lat="42.142713169641276" lon="8.602279650739439"><ele>77.0</ele><time>2026-05-01T15:43:29.002Z</time></trkpt><trkpt lat="42.1425929959996" lon="8.602150274530475"><ele>77.0</ele><time>2026-05-01T15:43:30.002Z</time></trkpt><trkpt lat="42.142486332180226" lon="8.602008628884622"><ele>77.0</ele><time>2026-05-01T15:43:31.002Z</time></trkpt><trkpt lat="42.14237243722532" lon="8.601891158068343"><ele>77.0</ele><time>2026-05-01T15:43:32.002Z</time></trkpt><trkpt lat="42.14224865895405" lon="8.601799150616891"><ele>77.0</ele><time>2026-05-01T15:43:33.002Z</time></trkpt><trkpt lat="42.14211251311624" lon="8.601730122986995"><ele>75.75</ele><time>2026-05-01T15:43:34.002Z</time></trkpt><trkpt lat="42.14197480104604" lon="8.601664206763214"><ele>74.5</ele><time>2026-05-01T15:43:35.002Z</time></trkpt><trkpt lat="42.14183657183472" lon="8.601607161346854"><ele>73.25</ele><time>2026-05-01T15:43:36.002Z</time></trkpt><trkpt lat="42.14169610773247" lon="8.601544810930728"><ele>72.0</ele><time>2026-05-01T15:43:37.002Z</time></trkpt><trkpt lat="42.14155136488647" lon="8.601512904980853"><ele>72.66666666666667</ele><time>2026-05-01T15:43:38.002Z</time></trkpt><trkpt lat="42.14140294771045" lon="8.601514311811432"><ele>73.33333333333334</ele><time>2026-05-01T15:43:39.002Z</time></trkpt><trkpt lat="42.14125554208377" lon="8.60156915636585"><ele>74.0</ele><time>2026-05-01T15:43:40.002Z</time></trkpt><trkpt lat="42.14111703873585" lon="8.601641865376523"><ele>74.0</ele><time>2026-05-01T15:43:41.002Z</time></trkpt><trkpt lat="42.140985281384076" lon="8.601707934875527"><ele>74.0</ele><time>2026-05-01T15:43:42.002Z</time></trkpt><trkpt lat="42.14085322039596" lon="8.601747326114808"><ele>74.0</ele><time>2026-05-01T15:43:43.002Z</time></trkpt><trkpt lat="42.14071924524426" lon="8.601700665926625"><ele>74.0</ele><time>2026-05-01T15:43:44.002Z</time></trkpt><trkpt lat="42.14058712181525" lon="8.601620733765902"><ele>77.5</ele><time>2026-05-01T15:43:45.002Z</time></trkpt><trkpt lat="42.140441186310206" lon="8.601559697185197"><ele>81.0</ele><time>2026-05-01T15:43:46.002Z</time></trkpt><trkpt lat="42.14032436294772" lon="8.601480771787756"><ele>84.5</ele><time>2026-05-01T15:43:47.002Z</time></trkpt><trkpt lat="42.1402326533626" lon="8.601402476514108"><ele>88.0</ele><time>2026-05-01T15:43:47.999Z</time></trkpt><trkpt lat="42.140158957867015" lon="8.601305651080615"><ele>88.0</ele><time>2026-05-01T15:43:48.999Z</time></trkpt><trkpt lat="42.140141154694284" lon="8.601174772004898"><ele>88.0</ele><time>2026-05-01T15:43:49.999Z</time></trkpt><trkpt lat="42.14010361193385" lon="8.601028069805603"><ele>88.0</ele><time>2026-05-01T15:43:50.999Z</time></trkpt><trkpt lat="42.14007976209802" lon="8.60085458286219"><ele>88.0</ele><time>2026-05-01T15:43:51.999Z</time></trkpt><trkpt lat="42.140034522852" lon="8.600681335840331"><ele>86.75</ele><time>2026-05-01T15:43:52.999Z</time></trkpt><trkpt lat="42.13996845117343" lon="8.600522927794348"><ele>85.5</ele><time>2026-05-01T15:43:53.999Z</time></trkpt><trkpt lat="42.13987837542338" lon="8.600393245432956"><ele>84.25</ele><time>2026-05-01T15:43:54.999Z</time></trkpt><trkpt lat="42.139775534177936" lon="8.60028884357653"><ele>83.0</ele><time>2026-05-01T15:43:55.999Z</time></trkpt><trkpt lat="42.13968770449876" lon="8.600212511378096"><ele>83.0</ele><time>2026-05-01T15:43:56.999Z</time></trkpt><trkpt lat="42.13961243894031" lon="8.60014746364122"><ele>83.0</ele><time>2026-05-01T15:43:57.999Z</time></trkpt><trkpt lat="42.13955174982992" lon="8.60008876057257"><ele>83.0</ele><time>2026-05-01T15:43:58.999Z</time></trkpt><trkpt lat="42.139461609069436" lon="8.60002297750988"><ele>83.0</ele><time>2026-05-01T15:44:00.999Z</time></trkpt><trkpt lat="42.13938328616634" lon="8.599995969333715"><ele>83.0</ele><time>2026-05-01T15:44:03.999Z</time></trkpt><trkpt lat="42.13929940389041" lon="8.599958854106978"><ele>83.0</ele><time>2026-05-01T15:44:05.999Z</time></trkpt><trkpt lat="42.13918984010051" lon="8.599932910566533"><ele>83.0</ele><time>2026-05-01T15:44:07.999Z</time></trkpt><trkpt lat="42.139070151666964" lon="8.599911430704921"><ele>83.0</ele><time>2026-05-01T15:44:09.999Z</time></trkpt><trkpt lat="42.13900550955095" lon="8.599907369504086"><ele>83.0</ele><time>2026-05-01T15:44:10.999Z</time></trkpt><trkpt lat="42.13888315738549" lon="8.5998922398463"><ele>83.0</ele><time>2026-05-01T15:44:12.999Z</time></trkpt><trkpt lat="42.13875542291883" lon="8.599853342500982"><ele>83.0</ele><time>2026-05-01T15:44:14.999Z</time></trkpt><trkpt lat="42.13868136496301" lon="8.59979675533862"><ele>84.16666666666667</ele><time>2026-05-01T15:44:15.999Z</time></trkpt><trkpt lat="42.13860912957098" lon="8.59971518081401"><ele>85.33333333333334</ele><time>2026-05-01T15:44:17Z</time></trkpt><trkpt lat="42.13856855490076" lon="8.59960995605536"><ele>86.5</ele><time>2026-05-01T15:44:18Z</time></trkpt><trkpt lat="42.13852455254499" lon="8.599509366660364"><ele>87.66666666666667</ele><time>2026-05-01T15:44:19Z</time></trkpt><trkpt lat="42.13850275488656" lon="8.599402633514167"><ele>88.83333333333333</ele><time>2026-05-01T15:44:20Z</time></trkpt><trkpt lat="42.13849049665715" lon="8.599289740415717"><ele>90.0</ele><time>2026-05-01T15:44:21Z</time></trkpt><trkpt lat="42.138466278413645" lon="8.599180928446845"><ele>90.0</ele><time>2026-05-01T15:44:22Z</time></trkpt><trkpt lat="42.13846462461289" lon="8.599071315117097"><ele>90.0</ele><time>2026-05-01T15:44:23Z</time></trkpt><trkpt lat="42.13846425166036" lon="8.598961618704333"><ele>90.0</ele><time>2026-05-01T15:44:24Z</time></trkpt><trkpt lat="42.13846586214552" lon="8.59884757223915"><ele>90.0</ele><time>2026-05-01T15:44:25Z</time></trkpt><trkpt lat="42.138466980229055" lon="8.598730670618533"><ele>90.0</ele><time>2026-05-01T15:44:26Z</time></trkpt><trkpt lat="42.13846658719175" lon="8.598612510834819"><ele>90.0</ele><time>2026-05-01T15:44:27Z</time></trkpt><trkpt lat="42.1384632995331" lon="8.598499579648466"><ele>89.83333333333333</ele><time>2026-05-01T15:44:28Z</time></trkpt><trkpt lat="42.13845717949923" lon="8.598387627614906"><ele>89.66666666666667</ele><time>2026-05-01T15:44:29Z</time></trkpt><trkpt lat="42.13844576923701" lon="8.598278744198518"><ele>89.5</ele><time>2026-05-01T15:44:30Z</time></trkpt><trkpt lat="42.13842708479409" lon="8.598166906394878"><ele>89.33333333333334</ele><time>2026-05-01T15:44:31Z</time></trkpt><trkpt lat="42.13839990498842" lon="8.59806107087361"><ele>89.16666666666667</ele><time>2026-05-01T15:44:32Z</time></trkpt><trkpt lat="42.13836763236033" lon="8.597967326144818"><ele>89.0</ele><time>2026-05-01T15:44:33Z</time></trkpt><trkpt lat="42.138324534826154" lon="8.597875304220741"><ele>87.6</ele><time>2026-05-01T15:44:34Z</time></trkpt><trkpt lat="42.13828301322918" lon="8.597801870080076"><ele>86.2</ele><time>2026-05-01T15:44:35Z</time></trkpt><trkpt lat="42.13819110448389" lon="8.597685628003388"><ele>84.8</ele><time>2026-05-01T15:44:37Z</time></trkpt><trkpt lat="42.13808403749974" lon="8.597578804105789"><ele>83.39999999999999</ele><time>2026-05-01T15:44:39Z</time></trkpt><trkpt lat="42.1380235242644" lon="8.597511141672515"><ele>82.0</ele><time>2026-05-01T15:44:40Z</time></trkpt><trkpt lat="42.137957345535014" lon="8.597440994337923"><ele>84.83333333333333</ele><time>2026-05-01T15:44:41Z</time></trkpt><trkpt lat="42.13789054304099" lon="8.597370693128202"><ele>87.66666666666666</ele><time>2026-05-01T15:44:42Z</time></trkpt><trkpt lat="42.137838062747456" lon="8.59730935192319"><ele>90.5</ele><time>2026-05-01T15:44:43Z</time></trkpt><trkpt lat="42.137788858783" lon="8.59725202311211"><ele>93.33333333333333</ele><time>2026-05-01T15:44:44Z</time></trkpt><trkpt lat="42.13773343926531" lon="8.597192745596175"><ele>96.16666666666667</ele><time>2026-05-01T15:44:45Z</time></trkpt><trkpt lat="42.137640582963584" lon="8.597102186479809"><ele>99.0</ele><time>2026-05-01T15:44:47Z</time></trkpt><trkpt lat="42.13758794873013" lon="8.597053183926738"><ele>98.16666666666667</ele><time>2026-05-01T15:44:48Z</time></trkpt><trkpt lat="42.13753406968082" lon="8.596993748620424"><ele>97.33333333333333</ele><time>2026-05-01T15:44:49Z</time></trkpt><trkpt lat="42.13747297067438" lon="8.596931345790976"><ele>96.5</ele><time>2026-05-01T15:44:50Z</time></trkpt><trkpt lat="42.1374022796833" lon="8.596870023428632"><ele>95.66666666666666</ele><time>2026-05-01T15:44:51Z</time></trkpt><trkpt lat="42.13732391790902" lon="8.596819796146603"><ele>94.83333333333333</ele><time>2026-05-01T15:44:52Z</time></trkpt><trkpt lat="42.13724885204788" lon="8.596774005594913"><ele>94.0</ele><time>2026-05-01T15:44:53Z</time></trkpt><trkpt lat="42.13717254820689" lon="8.596732929359499"><ele>94.0</ele><time>2026-05-01T15:44:54Z</time></trkpt><trkpt lat="42.137096829985815" lon="8.596695042180215"><ele>94.0</ele><time>2026-05-01T15:44:55Z</time></trkpt><trkpt lat="42.13702542912631" lon="8.596658745437503"><ele>94.0</ele><time>2026-05-01T15:44:56Z</time></trkpt><trkpt lat="42.13696221020181" lon="8.596593914438948"><ele>94.0</ele><time>2026-05-01T15:44:57Z</time></trkpt><trkpt lat="42.13689965590659" lon="8.596546957943898"><ele>94.0</ele><time>2026-05-01T15:44:58.001Z</time></trkpt><trkpt lat="42.13680231229001" lon="8.5964619208778"><ele>94.0</ele><time>2026-05-01T15:45:00.001Z</time></trkpt><trkpt lat="42.136718242596764" lon="8.596409324827448"><ele>94.0</ele><time>2026-05-01T15:45:02.001Z</time></trkpt><trkpt lat="42.13664621266889" lon="8.596343876230199"><ele>94.0</ele><time>2026-05-01T15:45:04.001Z</time></trkpt><trkpt lat="42.1365684820239" lon="8.59624516168301"><ele>94.0</ele><time>2026-05-01T15:45:07.001Z</time></trkpt><trkpt lat="42.13648097462615" lon="8.596179065439394"><ele>94.0</ele><time>2026-05-01T15:45:09.001Z</time></trkpt><trkpt lat="42.136384142701516" lon="8.5961500540152"><ele>94.0</ele><time>2026-05-01T15:45:11.001Z</time></trkpt><trkpt lat="42.136324136443854" lon="8.596218377889631"><ele>94.0</ele><time>2026-05-01T15:45:13.001Z</time></trkpt><trkpt lat="42.13634297976134" lon="8.59635524242598"><ele>94.0</ele><time>2026-05-01T15:45:15.001Z</time></trkpt><trkpt lat="42.13639092272393" lon="8.596425651837805"><ele>94.0</ele><time>2026-05-01T15:45:16.001Z</time></trkpt><trkpt lat="42.13643620313778" lon="8.596493424666361"><ele>94.0</ele><time>2026-05-01T15:45:17.001Z</time></trkpt><trkpt lat="42.136478418423415" lon="8.596584450338234"><ele>94.0</ele><time>2026-05-01T15:45:18.001Z</time></trkpt><trkpt lat="42.13651905225528" lon="8.596685154118731"><ele>94.0</ele><time>2026-05-01T15:45:19.001Z</time></trkpt><trkpt lat="42.13656388170734" lon="8.596796093967566"><ele>94.0</ele><time>2026-05-01T15:45:20.001Z</time></trkpt><trkpt lat="42.136609050323386" lon="8.596915981135847"><ele>94.0</ele><time>2026-05-01T15:45:21.001Z</time></trkpt><trkpt lat="42.13665760451625" lon="8.597038566473287"><ele>94.0</ele><time>2026-05-01T15:45:22.001Z</time></trkpt><trkpt lat="42.136703794496135" lon="8.597158744269423"><ele>94.0</ele><time>2026-05-01T15:45:23.001Z</time></trkpt><trkpt lat="42.13673925735118" lon="8.59728962708504"><ele>94.0</ele><time>2026-05-01T15:45:24.001Z</time></trkpt><trkpt lat="42.13679457512609" lon="8.597418144423996"><ele>95.2</ele><time>2026-05-01T15:45:25.001Z</time></trkpt><trkpt lat="42.13684775272673" lon="8.597547045251806"><ele>96.4</ele><time>2026-05-01T15:45:26.001Z</time></trkpt><trkpt lat="42.136902724749675" lon="8.597673806068027"><ele>97.6</ele><time>2026-05-01T15:45:27.001Z</time></trkpt><trkpt lat="42.13695987130824" lon="8.597804265254533"><ele>98.8</ele><time>2026-05-01T15:45:28.001Z</time></trkpt><trkpt lat="42.137022911733254" lon="8.597938359566577"><ele>100.0</ele><time>2026-05-01T15:45:29.001Z</time></trkpt><trkpt lat="42.13708736553684" lon="8.598075385720056"><ele>101.25</ele><time>2026-05-01T15:45:30.001Z</time></trkpt><trkpt lat="42.13715115227854" lon="8.598208991074245"><ele>102.5</ele><time>2026-05-01T15:45:31.001Z</time></trkpt><trkpt lat="42.137207929307166" lon="8.598350967016623"><ele>103.75</ele><time>2026-05-01T15:45:32.001Z</time></trkpt><trkpt lat="42.13724645548522" lon="8.59850975907395"><ele>105.0</ele><time>2026-05-01T15:45:33.001Z</time></trkpt><trkpt lat="42.13730789037742" lon="8.59864435821036"><ele>107.25</ele><time>2026-05-01T15:45:34.001Z</time></trkpt><trkpt lat="42.137314968954826" lon="8.598791923396332"><ele>109.5</ele><time>2026-05-01T15:45:35.001Z</time></trkpt><trkpt lat="42.13730998072861" lon="8.598947411012755"><ele>111.75</ele><time>2026-05-01T15:45:36.001Z</time></trkpt><trkpt lat="42.13730837741049" lon="8.599111911231631"><ele>114.0</ele><time>2026-05-01T15:45:37.001Z</time></trkpt><trkpt lat="42.13731501493738" lon="8.59928844790764"><ele>114.0</ele><time>2026-05-01T15:45:38.001Z</time></trkpt><trkpt lat="42.13731133988656" lon="8.599472192798341"><ele>114.0</ele><time>2026-05-01T15:45:39.001Z</time></trkpt><trkpt lat="42.13727884540822" lon="8.599654432632029"><ele>114.0</ele><time>2026-05-01T15:45:40.001Z</time></trkpt><trkpt lat="42.137282584621744" lon="8.59983875450631"><ele>114.0</ele><time>2026-05-01T15:45:41.001Z</time></trkpt><trkpt lat="42.13729896431996" lon="8.600019469828512"><ele>115.5</ele><time>2026-05-01T15:45:42.001Z</time></trkpt><trkpt lat="42.13737026833609" lon="8.600189016186464"><ele>117.0</ele><time>2026-05-01T15:45:43.001Z</time></trkpt><trkpt lat="42.137447692227944" lon="8.600342838724973"><ele>118.5</ele><time>2026-05-01T15:45:44.001Z</time></trkpt><trkpt lat="42.13753013660488" lon="8.600492039702448"><ele>120.0</ele><time>2026-05-01T15:45:45.001Z</time></trkpt><trkpt lat="42.137595105951114" lon="8.60065631353407"><ele>120.0</ele><time>2026-05-01T15:45:46.001Z</time></trkpt><trkpt lat="42.1376599759483" lon="8.600840802261741"><ele>120.0</ele><time>2026-05-01T15:45:47.001Z</time></trkpt><trkpt lat="42.137716481688294" lon="8.601038146064406"><ele>120.0</ele><time>2026-05-01T15:45:48.001Z</time></trkpt><trkpt lat="42.137761203355346" lon="8.60124230226625"><ele>121.33333333333334</ele><time>2026-05-01T15:45:49.001Z</time></trkpt><trkpt lat="42.1377923153296" lon="8.601453716194062"><ele>122.66666666666667</ele><time>2026-05-01T15:45:50.001Z</time></trkpt><trkpt lat="42.137806546245976" lon="8.601673059901731"><ele>124.0</ele><time>2026-05-01T15:45:51.002Z</time></trkpt><trkpt lat="42.13778842035839" lon="8.601895457445245"><ele>124.25</ele><time>2026-05-01T15:45:52.002Z</time></trkpt><trkpt lat="42.13778455859249" lon="8.602096122662466"><ele>124.5</ele><time>2026-05-01T15:45:53.002Z</time></trkpt><trkpt lat="42.13779105455104" lon="8.60228201528848"><ele>124.75</ele><time>2026-05-01T15:45:53.997Z</time></trkpt><trkpt lat="42.13782511993231" lon="8.602448625078946"><ele>125.0</ele><time>2026-05-01T15:45:54.997Z</time></trkpt><trkpt lat="42.13787428323643" lon="8.602586492221619"><ele>125.0</ele><time>2026-05-01T15:45:55.997Z</time></trkpt><trkpt lat="42.137956777932246" lon="8.602686563266275"><ele>125.0</ele><time>2026-05-01T15:45:56.997Z</time></trkpt><trkpt lat="42.138065171256926" lon="8.602759292307942"><ele>125.0</ele><time>2026-05-01T15:45:57.997Z</time></trkpt><trkpt lat="42.138184424948236" lon="8.602803530685465"><ele>125.0</ele><time>2026-05-01T15:45:58.997Z</time></trkpt><trkpt lat="42.138312139417565" lon="8.602829113077496"><ele>125.0</ele><time>2026-05-01T15:45:59.997Z</time></trkpt><trkpt lat="42.13844183288803" lon="8.602850815648376"><ele>125.0</ele><time>2026-05-01T15:46:00.997Z</time></trkpt><trkpt lat="42.138567906357615" lon="8.602884296110762"><ele>125.0</ele><time>2026-05-01T15:46:01.997Z</time></trkpt><trkpt lat="42.13868527841626" lon="8.602942394138923"><ele>125.0</ele><time>2026-05-01T15:46:02.997Z</time></trkpt><trkpt lat="42.13878410582728" lon="8.603036099158869"><ele>125.0</ele><time>2026-05-01T15:46:03.997Z</time></trkpt><trkpt lat="42.13885418330166" lon="8.603156884654668"><ele>125.0</ele><time>2026-05-01T15:46:04.997Z</time></trkpt><trkpt lat="42.138882063541075" lon="8.603303045133"><ele>125.0</ele><time>2026-05-01T15:46:05.997Z</time></trkpt><trkpt lat="42.13890844651303" lon="8.603457799407707"><ele>125.0</ele><time>2026-05-01T15:46:06.997Z</time></trkpt><trkpt lat="42.13894232335934" lon="8.603614539753679"><ele>125.75</ele><time>2026-05-01T15:46:07.997Z</time></trkpt><trkpt lat="42.13895284652416" lon="8.603765190473997"><ele>126.5</ele><time>2026-05-01T15:46:08.997Z</time></trkpt><trkpt lat="42.13892253170274" lon="8.603904455148758"><ele>127.25</ele><time>2026-05-01T15:46:09.997Z</time></trkpt><trkpt lat="42.13888230291992" lon="8.60403694794887"><ele>128.0</ele><time>2026-05-01T15:46:10.998Z</time></trkpt><trkpt lat="42.13881324234516" lon="8.604183235446564"><ele>128.0</ele><time>2026-05-01T15:46:11.998Z</time></trkpt><trkpt lat="42.13874735909006" lon="8.604350393586914"><ele>128.0</ele><time>2026-05-01T15:46:12.998Z</time></trkpt><trkpt lat="42.138675690523044" lon="8.604524908367253"><ele>128.0</ele><time>2026-05-01T15:46:13.998Z</time></trkpt><trkpt lat="42.13859891058709" lon="8.60469441902466"><ele>128.0</ele><time>2026-05-01T15:46:14.998Z</time></trkpt><trkpt lat="42.1385221436526" lon="8.604864908579087"><ele>131.25</ele><time>2026-05-01T15:46:15.998Z</time></trkpt><trkpt lat="42.13845218546155" lon="8.60503673430412"><ele>134.5</ele><time>2026-05-01T15:46:16.998Z</time></trkpt><trkpt lat="42.13838404097539" lon="8.605212411973035"><ele>137.75</ele><time>2026-05-01T15:46:17.998Z</time></trkpt><trkpt lat="42.13833625308888" lon="8.605403281797932"><ele>141.0</ele><time>2026-05-01T15:46:18.998Z</time></trkpt><trkpt lat="42.138280892364364" lon="8.605588906918305"><ele>144.25</ele><time>2026-05-01T15:46:19.998Z</time></trkpt><trkpt lat="42.138237476178425" lon="8.605778781809583"><ele>147.5</ele><time>2026-05-01T15:46:20.998Z</time></trkpt><trkpt lat="42.13819471930303" lon="8.605972916754776"><ele>150.75</ele><time>2026-05-01T15:46:21.998Z</time></trkpt><trkpt lat="42.13815149248978" lon="8.606168883127822"><ele>154.0</ele><time>2026-05-01T15:46:22.998Z</time></trkpt><trkpt lat="42.138124239963275" lon="8.606362540429107"><ele>153.75</ele><time>2026-05-01T15:46:23.999Z</time></trkpt><trkpt lat="42.13812547363682" lon="8.606556154500856"><ele>153.5</ele><time>2026-05-01T15:46:24.999Z</time></trkpt><trkpt lat="42.138160553851506" lon="8.606751399268775"><ele>153.25</ele><time>2026-05-01T15:46:25.999Z</time></trkpt><trkpt lat="42.13822310345369" lon="8.606927140315122"><ele>153.0</ele><time>2026-05-01T15:46:26.999Z</time></trkpt><trkpt lat="42.13829245683042" lon="8.60709587982493"><ele>153.0</ele><time>2026-05-01T15:46:27.999Z</time></trkpt><trkpt lat="42.138361990824954" lon="8.607264105299794"><ele>153.0</ele><time>2026-05-01T15:46:28.999Z</time></trkpt><trkpt lat="42.138440709176706" lon="8.607428595916224"><ele>153.0</ele><time>2026-05-01T15:46:29.999Z</time></trkpt><trkpt lat="42.13853156357474" lon="8.607580383969045"><ele>153.0</ele><time>2026-05-01T15:46:30.999Z</time></trkpt><trkpt lat="42.13863360817114" lon="8.607724418296593"><ele>149.0</ele><time>2026-05-01T15:46:31.999Z</time></trkpt><trkpt lat="42.13873216465421" lon="8.607873040806776"><ele>145.0</ele><time>2026-05-01T15:46:32.999Z</time></trkpt><trkpt lat="42.13882933809669" lon="8.608020287610143"><ele>141.0</ele><time>2026-05-01T15:46:33.999Z</time></trkpt><trkpt lat="42.138931185489646" lon="8.608161833834359"><ele>137.0</ele><time>2026-05-01T15:46:34.999Z</time></trkpt><trkpt lat="42.13904446963635" lon="8.608289139583185"><ele>141.25</ele><time>2026-05-01T15:46:35.999Z</time></trkpt><trkpt lat="42.1391653721554" lon="8.608390402459303"><ele>145.5</ele><time>2026-05-01T15:46:36.999Z</time></trkpt><trkpt lat="42.13929840833644" lon="8.608474310620434"><ele>149.75</ele><time>2026-05-01T15:46:37.999Z</time></trkpt><trkpt lat="42.13943868497737" lon="8.608555704334359"><ele>154.0</ele><time>2026-05-01T15:46:38.999Z</time></trkpt><trkpt lat="42.13954502161898" lon="8.608673127188966"><ele>154.0</ele><time>2026-05-01T15:46:39.999Z</time></trkpt><trkpt lat="42.139676453390656" lon="8.6087595698104"><ele>154.0</ele><time>2026-05-01T15:46:40.999Z</time></trkpt><trkpt lat="42.139789692959795" lon="8.608886541793122"><ele>154.0</ele><time>2026-05-01T15:46:41.999Z</time></trkpt><trkpt lat="42.13988990333784" lon="8.60900234684475"><ele>154.0</ele><time>2026-05-01T15:46:42.999Z</time></trkpt><trkpt lat="42.13999521052731" lon="8.609134339664736"><ele>161.25</ele><time>2026-05-01T15:46:43.999Z</time></trkpt><trkpt lat="42.140083374026666" lon="8.609268441854129"><ele>168.5</ele><time>2026-05-01T15:46:45Z</time></trkpt><trkpt lat="42.14014241239831" lon="8.609431026592"><ele>175.75</ele><time>2026-05-01T15:46:46Z</time></trkpt><trkpt lat="42.140196139042324" lon="8.609562787792655"><ele>183.0</ele><time>2026-05-01T15:46:47Z</time></trkpt><trkpt lat="42.14017958894344" lon="8.609699007537662"><ele>183.75</ele><time>2026-05-01T15:46:48Z</time></trkpt><trkpt lat="42.140159968818324" lon="8.609844991935699"><ele>184.5</ele><time>2026-05-01T15:46:49Z</time></trkpt><trkpt lat="42.140140224215415" lon="8.610003254691586"><ele>185.25</ele><time>2026-05-01T15:46:50Z</time></trkpt><trkpt lat="42.14011261434785" lon="8.610158769651722"><ele>186.0</ele><time>2026-05-01T15:46:51Z</time></trkpt><trkpt lat="42.14008145309947" lon="8.610319963619819"><ele>188.75</ele><time>2026-05-01T15:46:52Z</time></trkpt><trkpt lat="42.14008402824546" lon="8.610494271364157"><ele>191.5</ele><time>2026-05-01T15:46:53Z</time></trkpt><trkpt lat="42.140081755914075" lon="8.610669884250347"><ele>194.25</ele><time>2026-05-01T15:46:54Z</time></trkpt><trkpt lat="42.14008708238294" lon="8.610850450991935"><ele>197.0</ele><time>2026-05-01T15:46:55Z</time></trkpt><trkpt lat="42.14008563811233" lon="8.611040999052355"><ele>200.0</ele><time>2026-05-01T15:46:56Z</time></trkpt><trkpt lat="42.14007540174778" lon="8.611235521824922"><ele>203.0</ele><time>2026-05-01T15:46:57Z</time></trkpt><trkpt lat="42.14008029586846" lon="8.611450250338407"><ele>206.0</ele><time>2026-05-01T15:46:58Z</time></trkpt><trkpt lat="42.14010084801756" lon="8.611663626372046"><ele>206.0</ele><time>2026-05-01T15:46:59Z</time></trkpt><trkpt lat="42.14011562252247" lon="8.611876032809526"><ele>206.0</ele><time>2026-05-01T15:47:00Z</time></trkpt><trkpt lat="42.14013515713131" lon="8.612061130343347"><ele>206.0</ele><time>2026-05-01T15:47:01Z</time></trkpt><trkpt lat="42.14017330261965" lon="8.612219761497638"><ele>206.0</ele><time>2026-05-01T15:47:02Z</time></trkpt><trkpt lat="42.140238316451516" lon="8.612332703363577"><ele>204.5</ele><time>2026-05-01T15:47:03Z</time></trkpt><trkpt lat="42.140338100130386" lon="8.612418163889554"><ele>203.0</ele><time>2026-05-01T15:47:04Z</time></trkpt><trkpt lat="42.140459775375206" lon="8.61249706291314"><ele>201.5</ele><time>2026-05-01T15:47:05Z</time></trkpt><trkpt lat="42.14057361718372" lon="8.61261795609421"><ele>200.0</ele><time>2026-05-01T15:47:06Z</time></trkpt><trkpt lat="42.14069237438658" lon="8.612739190422934"><ele>204.0</ele><time>2026-05-01T15:47:07Z</time></trkpt><trkpt lat="42.1408113435599" lon="8.612874324987324"><ele>208.0</ele><time>2026-05-01T15:47:08Z</time></trkpt><trkpt lat="42.14093753014259" lon="8.613001335987141"><ele>212.0</ele><time>2026-05-01T15:47:09Z</time></trkpt><trkpt lat="42.14104794960991" lon="8.613146115727385"><ele>212.0</ele><time>2026-05-01T15:47:10Z</time></trkpt><trkpt lat="42.14116151235242" lon="8.61329432782825"><ele>212.0</ele><time>2026-05-01T15:47:11Z</time></trkpt><trkpt lat="42.14127202376932" lon="8.613433403385534"><ele>212.0</ele><time>2026-05-01T15:47:12Z</time></trkpt><trkpt lat="42.141379708107976" lon="8.613568499813606"><ele>214.0</ele><time>2026-05-01T15:47:13Z</time></trkpt><trkpt lat="42.14149805273093" lon="8.613694057951369"><ele>216.0</ele><time>2026-05-01T15:47:14Z</time></trkpt><trkpt lat="42.1416274682631" lon="8.613803194223987"><ele>218.0</ele><time>2026-05-01T15:47:15Z</time></trkpt><trkpt lat="42.14177050660999" lon="8.613900456454205"><ele>218.0</ele><time>2026-05-01T15:47:16Z</time></trkpt><trkpt lat="42.14192458277504" lon="8.613986984082743"><ele>218.0</ele><time>2026-05-01T15:47:17.001Z</time></trkpt><trkpt lat="42.142078637788686" lon="8.614071673562258"><ele>218.0</ele><time>2026-05-01T15:47:18.001Z</time></trkpt><trkpt lat="42.14223095892754" lon="8.61417598658233"><ele>218.0</ele><time>2026-05-01T15:47:19.001Z</time></trkpt><trkpt lat="42.1423606569929" lon="8.614317311929133"><ele>218.0</ele><time>2026-05-01T15:47:20.001Z</time></trkpt><trkpt lat="42.142497517513725" lon="8.614443498925812"><ele>218.0</ele><time>2026-05-01T15:47:21.001Z</time></trkpt><trkpt lat="42.14262868597067" lon="8.614573047202745"><ele>219.5</ele><time>2026-05-01T15:47:22.001Z</time></trkpt><trkpt lat="42.14273343310768" lon="8.614707371422833"><ele>221.0</ele><time>2026-05-01T15:47:23.001Z</time></trkpt><trkpt lat="42.142798796838775" lon="8.614863312267511"><ele>222.5</ele><time>2026-05-01T15:47:24.001Z</time></trkpt><trkpt lat="42.142840583454685" lon="8.615044771849119"><ele>224.0</ele><time>2026-05-01T15:47:25.001Z</time></trkpt><trkpt lat="42.142860445455916" lon="8.615238929485658"><ele>221.75</ele><time>2026-05-01T15:47:26.001Z</time></trkpt><trkpt lat="42.14286648910696" lon="8.615443885762776"><ele>219.5</ele><time>2026-05-01T15:47:27.001Z</time></trkpt><trkpt lat="42.142892576386544" lon="8.6156308955331"><ele>217.25</ele><time>2026-05-01T15:47:28.001Z</time></trkpt><trkpt lat="42.14294350732108" lon="8.615802880682285"><ele>215.0</ele><time>2026-05-01T15:47:29.001Z</time></trkpt><trkpt lat="42.14304361187873" lon="8.615954702252518"><ele>215.0</ele><time>2026-05-01T15:47:30.001Z</time></trkpt><trkpt lat="42.14314500120513" lon="8.616098810084377"><ele>215.0</ele><time>2026-05-01T15:47:31.001Z</time></trkpt><trkpt lat="42.143199211555185" lon="8.616272603487642"><ele>215.0</ele><time>2026-05-01T15:47:32.001Z</time></trkpt><trkpt lat="42.143219303944136" lon="8.616455380430772"><ele>215.0</ele><time>2026-05-01T15:47:33.001Z</time></trkpt><trkpt lat="42.14328037198573" lon="8.616618661455469"><ele>221.0</ele><time>2026-05-01T15:47:34.001Z</time></trkpt><trkpt lat="42.143359759454455" lon="8.616774577964502"><ele>227.0</ele><time>2026-05-01T15:47:35.001Z</time></trkpt><trkpt lat="42.14346150068536" lon="8.616923573977548"><ele>233.0</ele><time>2026-05-01T15:47:36.001Z</time></trkpt><trkpt lat="42.14354432677126" lon="8.617091380400216"><ele>239.0</ele><time>2026-05-01T15:47:37.001Z</time></trkpt><trkpt lat="42.1436342851713" lon="8.617250315367556"><ele>239.0</ele><time>2026-05-01T15:47:38.001Z</time></trkpt><trkpt lat="42.14373437313315" lon="8.61739719263142"><ele>239.0</ele><time>2026-05-01T15:47:39.001Z</time></trkpt><trkpt lat="42.1438353841987" lon="8.617540301223377"><ele>239.0</ele><time>2026-05-01T15:47:40.001Z</time></trkpt><trkpt lat="42.14393023926417" lon="8.617684009761037"><ele>239.0</ele><time>2026-05-01T15:47:41.001Z</time></trkpt><trkpt lat="42.14401007607841" lon="8.617832753214655"><ele>247.0</ele><time>2026-05-01T15:47:42.001Z</time></trkpt><trkpt lat="42.14407631788484" lon="8.618001963014747"><ele>255.0</ele><time>2026-05-01T15:47:43.001Z</time></trkpt><trkpt lat="42.14412316549099" lon="8.618186531345913"><ele>263.0</ele><time>2026-05-01T15:47:44.001Z</time></trkpt><trkpt lat="42.14416950982761" lon="8.61838104182899"><ele>271.0</ele><time>2026-05-01T15:47:45.001Z</time></trkpt><trkpt lat="42.14421007150194" lon="8.61859065905653"><ele>271.75</ele><time>2026-05-01T15:47:46.001Z</time></trkpt><trkpt lat="42.14423389575242" lon="8.61878665425808"><ele>272.5</ele><time>2026-05-01T15:47:47.001Z</time></trkpt><trkpt lat="42.1442294682582" lon="8.618967143304257"><ele>273.25</ele><time>2026-05-01T15:47:48.001Z</time></trkpt><trkpt lat="42.14417809619296" lon="8.619134151073313"><ele>274.0</ele><time>2026-05-01T15:47:49.001Z</time></trkpt><trkpt lat="42.14411942907661" lon="8.619322248788407"><ele>275.25</ele><time>2026-05-01T15:47:50.001Z</time></trkpt><trkpt lat="42.144084845786516" lon="8.619515878909448"><ele>276.5</ele><time>2026-05-01T15:47:51.001Z</time></trkpt><trkpt lat="42.144056181393736" lon="8.619709203665275"><ele>277.75</ele><time>2026-05-01T15:47:52.002Z</time></trkpt><trkpt lat="42.14407461631763" lon="8.619904647829207"><ele>279.0</ele><time>2026-05-01T15:47:53.002Z</time></trkpt><trkpt lat="42.14413456458705" lon="8.620090263431448"><ele>279.0</ele><time>2026-05-01T15:47:54.002Z</time></trkpt><trkpt lat="42.14419717534524" lon="8.620264021702512"><ele>279.0</ele><time>2026-05-01T15:47:55.002Z</time></trkpt><trkpt lat="42.1442372607115" lon="8.62045276375567"><ele>279.0</ele><time>2026-05-01T15:47:56.002Z</time></trkpt><trkpt lat="42.14427796846053" lon="8.620631547106628"><ele>279.0</ele><time>2026-05-01T15:47:57.002Z</time></trkpt><trkpt lat="42.14430629226454" lon="8.620815226291072"><ele>279.5</ele><time>2026-05-01T15:47:58.002Z</time></trkpt><trkpt lat="42.14431324549073" lon="8.620994380000555"><ele>280.0</ele><time>2026-05-01T15:47:59.002Z</time></trkpt><trkpt lat="42.144287047809236" lon="8.62116447856683"><ele>280.5</ele><time>2026-05-01T15:47:59.995Z</time></trkpt><trkpt lat="42.14420996841669" lon="8.621306643432053"><ele>281.0</ele><time>2026-05-01T15:48:00.995Z</time></trkpt><trkpt lat="42.14413724630304" lon="8.62147110272641"><ele>282.75</ele><time>2026-05-01T15:48:01.995Z</time></trkpt><trkpt lat="42.14408377884364" lon="8.621633663549002"><ele>284.5</ele><time>2026-05-01T15:48:02.995Z</time></trkpt><trkpt lat="42.144094788546305" lon="8.621828255117773"><ele>286.25</ele><time>2026-05-01T15:48:03.995Z</time></trkpt><trkpt lat="42.14414786274084" lon="8.622004837160317"><ele>288.0</ele><time>2026-05-01T15:48:04.995Z</time></trkpt><trkpt lat="42.14424287499496" lon="8.622143411785437"><ele>288.0</ele><time>2026-05-01T15:48:05.996Z</time></trkpt><trkpt lat="42.14432622239805" lon="8.622286248846732"><ele>288.0</ele><time>2026-05-01T15:48:06.996Z</time></trkpt><trkpt lat="42.14441175464595" lon="8.62243866150485"><ele>288.0</ele><time>2026-05-01T15:48:07.996Z</time></trkpt><trkpt lat="42.144492856824925" lon="8.62257100722517"><ele>288.0</ele><time>2026-05-01T15:48:08.996Z</time></trkpt><trkpt lat="42.14458296566403" lon="8.622711842219411"><ele>283.75</ele><time>2026-05-01T15:48:09.996Z</time></trkpt><trkpt lat="42.14467412124591" lon="8.622855668925455"><ele>279.5</ele><time>2026-05-01T15:48:10.996Z</time></trkpt><trkpt lat="42.14475658158749" lon="8.623013660386542"><ele>275.25</ele><time>2026-05-01T15:48:11.996Z</time></trkpt><trkpt lat="42.14483941015315" lon="8.62317701504406"><ele>271.0</ele><time>2026-05-01T15:48:12.996Z</time></trkpt><trkpt lat="42.14492140029703" lon="8.62334873288204"><ele>280.75</ele><time>2026-05-01T15:48:13.996Z</time></trkpt><trkpt lat="42.14498562942612" lon="8.623532038152495"><ele>290.5</ele><time>2026-05-01T15:48:14.997Z</time></trkpt><trkpt lat="42.145028151026274" lon="8.6237072257567"><ele>300.25</ele><time>2026-05-01T15:48:15.997Z</time></trkpt><trkpt lat="42.145026572149135" lon="8.623884194855746"><ele>310.0</ele><time>2026-05-01T15:48:16.997Z</time></trkpt><trkpt lat="42.14500439337272" lon="8.624081389304068"><ele>310.0</ele><time>2026-05-01T15:48:17.997Z</time></trkpt><trkpt lat="42.144977125674416" lon="8.624276425926663"><ele>310.0</ele><time>2026-05-01T15:48:18.997Z</time></trkpt><trkpt lat="42.144937809406386" lon="8.624472633478984"><ele>310.0</ele><time>2026-05-01T15:48:19.997Z</time></trkpt><trkpt lat="42.14487620859107" lon="8.624662543416818"><ele>305.3333333333333</ele><time>2026-05-01T15:48:20.997Z</time></trkpt><trkpt lat="42.14480196185251" lon="8.624845169363818"><ele>300.6666666666667</ele><time>2026-05-01T15:48:21.997Z</time></trkpt><trkpt lat="42.144722885795986" lon="8.62502097698408"><ele>296.0</ele><time>2026-05-01T15:48:22.998Z</time></trkpt><trkpt lat="42.144634818868205" lon="8.625179360816809"><ele>301.0</ele><time>2026-05-01T15:48:23.998Z</time></trkpt><trkpt lat="42.1445383836105" lon="8.62532028063119"><ele>306.0</ele><time>2026-05-01T15:48:24.998Z</time></trkpt><trkpt lat="42.14443984898356" lon="8.625441347754318"><ele>311.0</ele><time>2026-05-01T15:48:25.998Z</time></trkpt><trkpt lat="42.144344047720615" lon="8.625548645627184"><ele>316.0</ele><time>2026-05-01T15:48:26.998Z</time></trkpt><trkpt lat="42.14428107216211" lon="8.625671438623472"><ele>316.0</ele><time>2026-05-01T15:48:27.998Z</time></trkpt><trkpt lat="42.144236735405514" lon="8.625808423649277"><ele>316.0</ele><time>2026-05-01T15:48:28.998Z</time></trkpt><trkpt lat="42.14420761735247" lon="8.625990752235873"><ele>316.0</ele><time>2026-05-01T15:48:29.998Z</time></trkpt><trkpt lat="42.14417824659731" lon="8.626181734793972"><ele>316.0</ele><time>2026-05-01T15:48:30.998Z</time></trkpt><trkpt lat="42.14416372261603" lon="8.626354432401762"><ele>317.75</ele><time>2026-05-01T15:48:31.998Z</time></trkpt><trkpt lat="42.144160604693205" lon="8.626514564270948"><ele>319.5</ele><time>2026-05-01T15:48:32.998Z</time></trkpt><trkpt lat="42.14414197175663" lon="8.626686675762485"><ele>321.25</ele><time>2026-05-01T15:48:33.998Z</time></trkpt><trkpt lat="42.14414894415082" lon="8.626858322123342"><ele>323.0</ele><time>2026-05-01T15:48:34.998Z</time></trkpt><trkpt lat="42.14417436304505" lon="8.627024603906918"><ele>324.0</ele><time>2026-05-01T15:48:35.999Z</time></trkpt><trkpt lat="42.14418229372895" lon="8.627186875606984"><ele>325.0</ele><time>2026-05-01T15:48:36.999Z</time></trkpt><trkpt lat="42.144167145597166" lon="8.627346149648167"><ele>326.0</ele><time>2026-05-01T15:48:37.999Z</time></trkpt><trkpt lat="42.14416309990857" lon="8.62749941349348"><ele>327.0</ele><time>2026-05-01T15:48:38.999Z</time></trkpt><trkpt lat="42.144134478164915" lon="8.627628532443325"><ele>327.0</ele><time>2026-05-01T15:48:39.999Z</time></trkpt><trkpt lat="42.14408437890917" lon="8.627745630530699"><ele>327.0</ele><time>2026-05-01T15:48:40.999Z</time></trkpt><trkpt lat="42.14400260304999" lon="8.62784140323835"><ele>327.0</ele><time>2026-05-01T15:48:41.999Z</time></trkpt><trkpt lat="42.14390504169888" lon="8.627912172237245"><ele>327.0</ele><time>2026-05-01T15:48:42.999Z</time></trkpt><trkpt lat="42.14379753411268" lon="8.62795685479268"><ele>327.0</ele><time>2026-05-01T15:48:43.999Z</time></trkpt><trkpt lat="42.14367832068966" lon="8.627967620922963"><ele>327.5</ele><time>2026-05-01T15:48:44.999Z</time></trkpt><trkpt lat="42.14355837388802" lon="8.627974710857567"><ele>328.0</ele><time>2026-05-01T15:48:45.999Z</time></trkpt><trkpt lat="42.14343088750163" lon="8.628009941378261"><ele>328.5</ele><time>2026-05-01T15:48:46.999Z</time></trkpt><trkpt lat="42.14330517126507" lon="8.628040975226227"><ele>329.0</ele><time>2026-05-01T15:48:47.999Z</time></trkpt><trkpt lat="42.14318434043962" lon="8.628090417023637"><ele>329.0</ele><time>2026-05-01T15:48:48.999Z</time></trkpt><trkpt lat="42.14307627293173" lon="8.628138678543111"><ele>329.0</ele><time>2026-05-01T15:48:49.999Z</time></trkpt><trkpt lat="42.14296680690661" lon="8.628155095061395"><ele>329.0</ele><time>2026-05-01T15:48:50.999Z</time></trkpt><trkpt lat="42.14285804521494" lon="8.628196947538923"><ele>329.0</ele><time>2026-05-01T15:48:51.999Z</time></trkpt><trkpt lat="42.14273829154334" lon="8.62823028527663"><ele>329.0</ele><time>2026-05-01T15:48:52.999Z</time></trkpt><trkpt lat="42.142621280804" lon="8.628261981436472"><ele>329.0</ele><time>2026-05-01T15:48:53.999Z</time></trkpt><trkpt lat="42.142533148604414" lon="8.628326542984185"><ele>329.0</ele><time>2026-05-01T15:48:54.999Z</time></trkpt><trkpt lat="42.14248583005306" lon="8.628416178684319"><ele>329.0</ele><time>2026-05-01T15:48:55.999Z</time></trkpt><trkpt lat="42.142491122331485" lon="8.628524962197382"><ele>329.0</ele><time>2026-05-01T15:48:57Z</time></trkpt><trkpt lat="42.142557074412984" lon="8.628623003458172"><ele>329.0</ele><time>2026-05-01T15:48:58Z</time></trkpt><trkpt lat="42.142643139169955" lon="8.628684878055026"><ele>329.0</ele><time>2026-05-01T15:48:59Z</time></trkpt><trkpt lat="42.14273635999694" lon="8.628700072081973"><ele>329.0</ele><time>2026-05-01T15:49:00Z</time></trkpt><trkpt lat="42.142836074019506" lon="8.628666580211158"><ele>329.0</ele><time>2026-05-01T15:49:01Z</time></trkpt><trkpt lat="42.14293176189765" lon="8.628607029267021"><ele>329.0</ele><time>2026-05-01T15:49:02Z</time></trkpt><trkpt lat="42.14303342918916" lon="8.628534801847167"><ele>329.0</ele><time>2026-05-01T15:49:03Z</time></trkpt><trkpt lat="42.143137719107344" lon="8.628475820276812"><ele>329.0</ele><time>2026-05-01T15:49:04Z</time></trkpt><trkpt lat="42.14325062280771" lon="8.628442215234456"><ele>329.0</ele><time>2026-05-01T15:49:05Z</time></trkpt><trkpt lat="42.143367074088545" lon="8.62844044902375"><ele>329.0</ele><time>2026-05-01T15:49:06Z</time></trkpt><trkpt lat="42.14347889833404" lon="8.62847952435777"><ele>331.75</ele><time>2026-05-01T15:49:07Z</time></trkpt><trkpt lat="42.1435832491143" lon="8.628575314109847"><ele>334.5</ele><time>2026-05-01T15:49:08Z</time></trkpt><trkpt lat="42.14370090074179" lon="8.628635864723975"><ele>337.25</ele><time>2026-05-01T15:49:09Z</time></trkpt><trkpt lat="42.14380813876503" lon="8.62872613385515"><ele>340.0</ele><time>2026-05-01T15:49:10Z</time></trkpt><trkpt lat="42.14391355358781" lon="8.62880419682198"><ele>343.75</ele><time>2026-05-01T15:49:11Z</time></trkpt><trkpt lat="42.14402022477852" lon="8.628871373100575"><ele>347.5</ele><time>2026-05-01T15:49:12Z</time></trkpt><trkpt lat="42.14412962602043" lon="8.62890597585392"><ele>351.25</ele><time>2026-05-01T15:49:13Z</time></trkpt><trkpt lat="42.14424540268604" lon="8.628916564759516"><ele>355.0</ele><time>2026-05-01T15:49:14Z</time></trkpt><trkpt lat="42.14436356097933" lon="8.62890414199144"><ele>357.5</ele><time>2026-05-01T15:49:15Z</time></trkpt><trkpt lat="42.14448665585464" lon="8.628879756211827"><ele>360.0</ele><time>2026-05-01T15:49:16Z</time></trkpt><trkpt lat="42.14460893380255" lon="8.62885263499502"><ele>362.5</ele><time>2026-05-01T15:49:17Z</time></trkpt><trkpt lat="42.144736440910364" lon="8.628796283235365"><ele>365.0</ele><time>2026-05-01T15:49:18Z</time></trkpt><trkpt lat="42.144867188689595" lon="8.628740237639219"><ele>367.25</ele><time>2026-05-01T15:49:19Z</time></trkpt><trkpt lat="42.145001590587185" lon="8.628730877434522"><ele>369.5</ele><time>2026-05-01T15:49:20Z</time></trkpt><trkpt lat="42.145146875692134" lon="8.628712664245544"><ele>371.75</ele><time>2026-05-01T15:49:21Z</time></trkpt><trkpt lat="42.145292590251955" lon="8.628724022300625"><ele>374.0</ele><time>2026-05-01T15:49:22Z</time></trkpt><trkpt lat="42.1454384496549" lon="8.628729979736189"><ele>374.0</ele><time>2026-05-01T15:49:23Z</time></trkpt><trkpt lat="42.14557341098678" lon="8.628707790115401"><ele>374.0</ele><time>2026-05-01T15:49:24Z</time></trkpt><trkpt lat="42.14568122370209" lon="8.62863710734059"><ele>374.0</ele><time>2026-05-01T15:49:25Z</time></trkpt><trkpt lat="42.145771143293686" lon="8.628542766248385"><ele>374.0</ele><time>2026-05-01T15:49:26.001Z</time></trkpt><trkpt lat="42.145839716708394" lon="8.628420761761744"><ele>374.0</ele><time>2026-05-01T15:49:27.001Z</time></trkpt><trkpt lat="42.14587747196986" lon="8.628266747330656"><ele>374.0</ele><time>2026-05-01T15:49:28.001Z</time></trkpt><trkpt lat="42.14589616951283" lon="8.628099751103502"><ele>374.0</ele><time>2026-05-01T15:49:29.001Z</time></trkpt><trkpt lat="42.145897980127195" lon="8.627913718890913"><ele>374.0</ele><time>2026-05-01T15:49:30.001Z</time></trkpt><trkpt lat="42.14589921216214" lon="8.627723484656851"><ele>373.75</ele><time>2026-05-01T15:49:31.001Z</time></trkpt><trkpt lat="42.14590696510516" lon="8.627553363604738"><ele>373.5</ele><time>2026-05-01T15:49:32.001Z</time></trkpt><trkpt lat="42.145935775768706" lon="8.627410617755558"><ele>373.25</ele><time>2026-05-01T15:49:33.001Z</time></trkpt><trkpt lat="42.14600331367307" lon="8.6272931595977"><ele>373.0</ele><time>2026-05-01T15:49:34.001Z</time></trkpt><trkpt lat="42.14610018121701" lon="8.627215611748554"><ele>373.0</ele><time>2026-05-01T15:49:35.001Z</time></trkpt><trkpt lat="42.1462134868127" lon="8.627200376745375"><ele>373.0</ele><time>2026-05-01T15:49:36.001Z</time></trkpt><trkpt lat="42.14632377964708" lon="8.627230869047084"><ele>373.0</ele><time>2026-05-01T15:49:37.001Z</time></trkpt><trkpt lat="42.14642320242431" lon="8.627305142858113"><ele>373.0</ele><time>2026-05-01T15:49:38.001Z</time></trkpt><trkpt lat="42.146507412118076" lon="8.627425429661493"><ele>376.25</ele><time>2026-05-01T15:49:39.001Z</time></trkpt><trkpt lat="42.14660609705963" lon="8.627528561562197"><ele>379.5</ele><time>2026-05-01T15:49:40.001Z</time></trkpt><trkpt lat="42.14666519055569" lon="8.62767415921978"><ele>382.75</ele><time>2026-05-01T15:49:41.001Z</time></trkpt><trkpt lat="42.146695676348706" lon="8.627824484966869"><ele>386.0</ele><time>2026-05-01T15:49:42.001Z</time></trkpt><trkpt lat="42.14671362202933" lon="8.627993671419118"><ele>387.5</ele><time>2026-05-01T15:49:43.001Z</time></trkpt><trkpt lat="42.14673082525915" lon="8.628171063180277"><ele>389.0</ele><time>2026-05-01T15:49:44.001Z</time></trkpt><trkpt lat="42.14674236800022" lon="8.628344766059428"><ele>390.5</ele><time>2026-05-01T15:49:45.001Z</time></trkpt><trkpt lat="42.14674953197095" lon="8.628514072033177"><ele>392.0</ele><time>2026-05-01T15:49:46.001Z</time></trkpt><trkpt lat="42.14675004568147" lon="8.628683229653356"><ele>394.75</ele><time>2026-05-01T15:49:47.001Z</time></trkpt><trkpt lat="42.14675978382596" lon="8.628854679703855"><ele>397.5</ele><time>2026-05-01T15:49:48.001Z</time></trkpt><trkpt lat="42.1467171228413" lon="8.629019428316463"><ele>400.25</ele><time>2026-05-01T15:49:49.001Z</time></trkpt><trkpt lat="42.14667524809607" lon="8.629182435573803"><ele>403.0</ele><time>2026-05-01T15:49:50.001Z</time></trkpt><trkpt lat="42.146622318164134" lon="8.62933120899511"><ele>403.0</ele><time>2026-05-01T15:49:51.001Z</time></trkpt><trkpt lat="42.14655090145351" lon="8.629455318901558"><ele>403.0</ele><time>2026-05-01T15:49:52.001Z</time></trkpt><trkpt lat="42.14647286205399" lon="8.629575208535163"><ele>403.0</ele><time>2026-05-01T15:49:53.001Z</time></trkpt><trkpt lat="42.14639351252712" lon="8.6296992245895"><ele>403.0</ele><time>2026-05-01T15:49:54.001Z</time></trkpt><trkpt lat="42.14632529263157" lon="8.629823655732672"><ele>403.25</ele><time>2026-05-01T15:49:55.001Z</time></trkpt><trkpt lat="42.14625881658513" lon="8.629957859371851"><ele>403.5</ele><time>2026-05-01T15:49:56.001Z</time></trkpt><trkpt lat="42.14622021718544" lon="8.630110825592986"><ele>403.75</ele><time>2026-05-01T15:49:57.001Z</time></trkpt><trkpt lat="42.14614395312051" lon="8.63023996169224"><ele>404.0</ele><time>2026-05-01T15:49:58.001Z</time></trkpt><trkpt lat="42.14607719156127" lon="8.630378992754087"><ele>408.5</ele><time>2026-05-01T15:49:59.002Z</time></trkpt><trkpt lat="42.14601972184656" lon="8.630523472411664"><ele>413.0</ele><time>2026-05-01T15:50:00.002Z</time></trkpt><trkpt lat="42.145973129991184" lon="8.630683208538148"><ele>417.5</ele><time>2026-05-01T15:50:01.002Z</time></trkpt><trkpt lat="42.14591988504367" lon="8.630851267106873"><ele>422.0</ele><time>2026-05-01T15:50:02.002Z</time></trkpt><trkpt lat="42.14587056953445" lon="8.631034229995562"><ele>424.0</ele><time>2026-05-01T15:50:03.002Z</time></trkpt><trkpt lat="42.14582635055813" lon="8.63121107874415"><ele>426.0</ele><time>2026-05-01T15:50:04.002Z</time></trkpt><trkpt lat="42.14577736241458" lon="8.631384294591047"><ele>428.0</ele><time>2026-05-01T15:50:05.002Z</time></trkpt><trkpt lat="42.145721652860246" lon="8.63155820676662"><ele>430.0</ele><time>2026-05-01T15:50:05.996Z</time></trkpt><trkpt lat="42.14563285044474" lon="8.631704515975192"><ele>430.0</ele><time>2026-05-01T15:50:06.996Z</time></trkpt><trkpt lat="42.145579546336144" lon="8.631865106614981"><ele>430.0</ele><time>2026-05-01T15:50:07.996Z</time></trkpt><trkpt lat="42.145580130901514" lon="8.632035318396385"><ele>430.0</ele><time>2026-05-01T15:50:08.996Z</time></trkpt><trkpt lat="42.145604347209726" lon="8.632200310720885"><ele>430.0</ele><time>2026-05-01T15:50:09.996Z</time></trkpt><trkpt lat="42.145655393459" lon="8.632357064213405"><ele>431.5</ele><time>2026-05-01T15:50:10.997Z</time></trkpt><trkpt lat="42.14571143565462" lon="8.632497137267201"><ele>433.0</ele><time>2026-05-01T15:50:11.997Z</time></trkpt><trkpt lat="42.14576631673246" lon="8.632631981887863"><ele>434.5</ele><time>2026-05-01T15:50:12.997Z</time></trkpt><trkpt lat="42.145833552094764" lon="8.632758216208929"><ele>436.0</ele><time>2026-05-01T15:50:13.997Z</time></trkpt><trkpt lat="42.14592424389352" lon="8.632872427571845"><ele>436.0</ele><time>2026-05-01T15:50:14.997Z</time></trkpt><trkpt lat="42.14603655198261" lon="8.632987168576024"><ele>436.0</ele><time>2026-05-01T15:50:15.997Z</time></trkpt><trkpt lat="42.146159365768746" lon="8.633099011325593"><ele>436.0</ele><time>2026-05-01T15:50:16.998Z</time></trkpt><trkpt lat="42.14628665984889" lon="8.633208675244754"><ele>436.0</ele><time>2026-05-01T15:50:17.998Z</time></trkpt><trkpt lat="42.14639266653847" lon="8.633353567887239"><ele>436.0</ele><time>2026-05-01T15:50:18.998Z</time></trkpt><trkpt lat="42.14651687702078" lon="8.633483476494533"><ele>436.0</ele><time>2026-05-01T15:50:19.998Z</time></trkpt><trkpt lat="42.1466186041734" lon="8.633645673543647"><ele>436.0</ele><time>2026-05-01T15:50:20.998Z</time></trkpt><trkpt lat="42.146715115636596" lon="8.633796969469717"><ele>437.75</ele><time>2026-05-01T15:50:21.998Z</time></trkpt><trkpt lat="42.14680493576743" lon="8.633954795791022"><ele>439.5</ele><time>2026-05-01T15:50:22.998Z</time></trkpt><trkpt lat="42.14689128267477" lon="8.634117072177526"><ele>441.25</ele><time>2026-05-01T15:50:23.999Z</time></trkpt><trkpt lat="42.14697585794579" lon="8.634282655941751"><ele>443.0</ele><time>2026-05-01T15:50:24.999Z</time></trkpt><trkpt lat="42.14706588234817" lon="8.634451339000222"><ele>439.25</ele><time>2026-05-01T15:50:25.999Z</time></trkpt><trkpt lat="42.14715911624403" lon="8.634604121618294"><ele>435.5</ele><time>2026-05-01T15:50:26.999Z</time></trkpt><trkpt lat="42.14723762578691" lon="8.63477970216657"><ele>431.75</ele><time>2026-05-01T15:50:27.999Z</time></trkpt><trkpt lat="42.1472954372143" lon="8.634964046555194"><ele>428.0</ele><time>2026-05-01T15:50:28.999Z</time></trkpt><trkpt lat="42.14736869897963" lon="8.635143595467378"><ele>434.25</ele><time>2026-05-01T15:50:29.999Z</time></trkpt><trkpt lat="42.147440686681605" lon="8.63532246742541"><ele>440.5</ele><time>2026-05-01T15:50:30.999Z</time></trkpt><trkpt lat="42.1475041856094" lon="8.63548494217179"><ele>446.75</ele><time>2026-05-01T15:50:31.999Z</time></trkpt><trkpt lat="42.147572828508174" lon="8.635604873895748"><ele>453.0</ele><time>2026-05-01T15:50:33Z</time></trkpt><trkpt lat="42.14761179336589" lon="8.635711502783892"><ele>453.0</ele><time>2026-05-01T15:50:34Z</time></trkpt><trkpt lat="42.147641041788305" lon="8.635793126298625"><ele>453.0</ele><time>2026-05-01T15:50:35Z</time></trkpt><trkpt lat="42.147697305881216" lon="8.635917269778114"><ele>453.0</ele><time>2026-05-01T15:50:37Z</time></trkpt><trkpt lat="42.147739966698296" lon="8.63599266791634"><ele>453.0</ele><time>2026-05-01T15:50:39Z</time></trkpt><trkpt lat="42.14778879963235" lon="8.636135945805172"><ele>453.0</ele><time>2026-05-01T15:50:41Z</time></trkpt><trkpt lat="42.14783617245366" lon="8.636195078382201"><ele>453.0</ele><time>2026-05-01T15:50:42Z</time></trkpt><trkpt lat="42.14787121464402" lon="8.636268675242984"><ele>451.8333333333333</ele><time>2026-05-01T15:50:43Z</time></trkpt><trkpt lat="42.147905892187815" lon="8.636342330763268"><ele>450.66666666666663</ele><time>2026-05-01T15:50:44Z</time></trkpt><trkpt lat="42.147939791389085" lon="8.636415398389698"><ele>449.5</ele><time>2026-05-01T15:50:45Z</time></trkpt><trkpt lat="42.14800537742436" lon="8.636502957582772"><ele>448.3333333333333</ele><time>2026-05-01T15:50:47Z</time></trkpt><trkpt lat="42.14810137912052" lon="8.636566074796749"><ele>447.16666666666663</ele><time>2026-05-01T15:50:49.001Z</time></trkpt><trkpt lat="42.148158283905325" lon="8.636617738665038"><ele>446.0</ele><time>2026-05-01T15:50:50.001Z</time></trkpt><trkpt lat="42.148211418288994" lon="8.63666824325586"><ele>448.6</ele><time>2026-05-01T15:50:51.001Z</time></trkpt><trkpt lat="42.14830720421676" lon="8.636747344168505"><ele>451.20000000000005</ele><time>2026-05-01T15:50:53.001Z</time></trkpt><trkpt lat="42.14839638160851" lon="8.636838872944324"><ele>453.79999999999995</ele><time>2026-05-01T15:50:55.001Z</time></trkpt><trkpt lat="42.14847167120924" lon="8.636966447968117"><ele>456.4</ele><time>2026-05-01T15:50:57.001Z</time></trkpt><trkpt lat="42.14855486829519" lon="8.637040724766123"><ele>459.0</ele><time>2026-05-01T15:50:59.001Z</time></trkpt><trkpt lat="42.14862524594041" lon="8.637123693527485"><ele>459.0</ele><time>2026-05-01T15:51:01.001Z</time></trkpt><trkpt lat="42.14871740727694" lon="8.637212287966284"><ele>459.0</ele><time>2026-05-01T15:51:03.001Z</time></trkpt><trkpt lat="42.14877350448197" lon="8.637253479683888"><ele>459.0</ele><time>2026-05-01T15:51:04.001Z</time></trkpt><trkpt lat="42.148829440006686" lon="8.637292696333501"><ele>459.0</ele><time>2026-05-01T15:51:05.001Z</time></trkpt><trkpt lat="42.14888555453336" lon="8.637335488697751"><ele>459.0</ele><time>2026-05-01T15:51:06.001Z</time></trkpt><trkpt lat="42.14898128594214" lon="8.637442519906594"><ele>459.0</ele><time>2026-05-01T15:51:08.001Z</time></trkpt><trkpt lat="42.149036295303766" lon="8.637484372363415"><ele>460.2</ele><time>2026-05-01T15:51:09.001Z</time></trkpt><trkpt lat="42.14911474691337" lon="8.637600578367971"><ele>461.4</ele><time>2026-05-01T15:51:11.001Z</time></trkpt><trkpt lat="42.149152335697515" lon="8.637752877562253"><ele>462.6</ele><time>2026-05-01T15:51:13.001Z</time></trkpt><trkpt lat="42.149158418662914" lon="8.637839557462991"><ele>463.8</ele><time>2026-05-01T15:51:14.002Z</time></trkpt><trkpt lat="42.149156160538325" lon="8.638004222196882"><ele>465.0</ele><time>2026-05-01T15:51:16.002Z</time></trkpt><trkpt lat="42.14914993695139" lon="8.638089445873016"><ele>465.0</ele><time>2026-05-01T15:51:17.002Z</time></trkpt><trkpt lat="42.14914660795932" lon="8.638180282193439"><ele>465.0</ele><time>2026-05-01T15:51:18.002Z</time></trkpt><trkpt lat="42.14914239578285" lon="8.638291427166639"><ele>465.0</ele><time>2026-05-01T15:51:19.002Z</time></trkpt><trkpt lat="42.149157044776814" lon="8.638393036041972"><ele>465.0</ele><time>2026-05-01T15:51:20.002Z</time></trkpt><trkpt lat="42.14916195893704" lon="8.638508723817848"><ele>465.0</ele><time>2026-05-01T15:51:21.002Z</time></trkpt><trkpt lat="42.14919412705763" lon="8.638622776138858"><ele>465.0</ele><time>2026-05-01T15:51:22.002Z</time></trkpt><trkpt lat="42.149225461446804" lon="8.638726595229311"><ele>463.0</ele><time>2026-05-01T15:51:23.002Z</time></trkpt><trkpt lat="42.14926028642608" lon="8.638834670858554"><ele>461.0</ele><time>2026-05-01T15:51:24.002Z</time></trkpt><trkpt lat="42.14929944474602" lon="8.638936371666372"><ele>459.0</ele><time>2026-05-01T15:51:25.002Z</time></trkpt><trkpt lat="42.14933744353674" lon="8.639031310528495"><ele>457.0</ele><time>2026-05-01T15:51:26.002Z</time></trkpt><trkpt lat="42.14938154251277" lon="8.639119885066144"><ele>455.0</ele><time>2026-05-01T15:51:27.002Z</time></trkpt><trkpt lat="42.14939342405653" lon="8.639219489653986"><ele>453.0</ele><time>2026-05-01T15:51:28.002Z</time></trkpt><trkpt lat="42.149409741607876" lon="8.639306467618255"><ele>453.0</ele><time>2026-05-01T15:51:29.002Z</time></trkpt><trkpt lat="42.1494229384144" lon="8.639399814242804"><ele>453.0</ele><time>2026-05-01T15:51:30.002Z</time></trkpt><trkpt lat="42.149434637139215" lon="8.63950496384818"><ele>453.0</ele><time>2026-05-01T15:51:31.002Z</time></trkpt><trkpt lat="42.149443750167" lon="8.63962266057685"><ele>453.0</ele><time>2026-05-01T15:51:32.002Z</time></trkpt><trkpt lat="42.14944097368997" lon="8.639742869969083"><ele>453.0</ele><time>2026-05-01T15:51:33.002Z</time></trkpt><trkpt lat="42.14946269459803" lon="8.639868979818235"><ele>453.0</ele><time>2026-05-01T15:51:34.002Z</time></trkpt><trkpt lat="42.14947907147356" lon="8.639996403140717"><ele>450.8333333333333</ele><time>2026-05-01T15:51:35.002Z</time></trkpt><trkpt lat="42.14950466871119" lon="8.640117591206314"><ele>448.66666666666663</ele><time>2026-05-01T15:51:36.002Z</time></trkpt><trkpt lat="42.14953665258851" lon="8.640220353503262"><ele>446.5</ele><time>2026-05-01T15:51:37.002Z</time></trkpt><trkpt lat="42.14956918481873" lon="8.640318993555255"><ele>444.3333333333333</ele><time>2026-05-01T15:51:38.002Z</time></trkpt><trkpt lat="42.149593832855516" lon="8.640417562374095"><ele>442.16666666666663</ele><time>2026-05-01T15:51:39.002Z</time></trkpt><trkpt lat="42.149589859446756" lon="8.640517307031356"><ele>440.0</ele><time>2026-05-01T15:51:40.002Z</time></trkpt><trkpt lat="42.1495861305451" lon="8.640612066758939"><ele>439.71428571428567</ele><time>2026-05-01T15:51:41.002Z</time></trkpt><trkpt lat="42.1495795807919" lon="8.640700871813184"><ele>439.42857142857144</ele><time>2026-05-01T15:51:42.002Z</time></trkpt><trkpt lat="42.14957171140753" lon="8.640796757853785"><ele>439.1428571428571</ele><time>2026-05-01T15:51:43.002Z</time></trkpt><trkpt lat="42.14956175747267" lon="8.640905061629315"><ele>438.85714285714283</ele><time>2026-05-01T15:51:44.002Z</time></trkpt><trkpt lat="42.14954983021961" lon="8.641004639185777"><ele>438.57142857142856</ele><time>2026-05-01T15:51:45.003Z</time></trkpt><trkpt lat="42.14953944206154" lon="8.641104149736005"><ele>438.2857142857143</ele><time>2026-05-01T15:51:46.003Z</time></trkpt><trkpt lat="42.149530505404336" lon="8.641211314614711"><ele>438.0</ele><time>2026-05-01T15:51:47.003Z</time></trkpt><trkpt lat="42.14951919137142" lon="8.641314234037537"><ele>438.0</ele><time>2026-05-01T15:51:48.003Z</time></trkpt><trkpt lat="42.14950094058807" lon="8.641419453288082"><ele>438.0</ele><time>2026-05-01T15:51:49.003Z</time></trkpt><trkpt lat="42.149480190113145" lon="8.641512693160463"><ele>438.0</ele><time>2026-05-01T15:51:50.003Z</time></trkpt><trkpt lat="42.149458579611576" lon="8.641607510087631"><ele>438.0</ele><time>2026-05-01T15:51:51.003Z</time></trkpt><trkpt lat="42.149444968519404" lon="8.641709901605111"><ele>438.0</ele><time>2026-05-01T15:51:52.003Z</time></trkpt><trkpt lat="42.1494344172589" lon="8.64181570929086"><ele>438.0</ele><time>2026-05-01T15:51:53.003Z</time></trkpt><trkpt lat="42.1494240973552" lon="8.641945036071737"><ele>439.59999999999997</ele><time>2026-05-01T15:51:54.003Z</time></trkpt><trkpt lat="42.14941644672097" lon="8.642080029124955"><ele>441.19999999999993</ele><time>2026-05-01T15:51:55.003Z</time></trkpt><trkpt lat="42.149374615568256" lon="8.642210099291134"><ele>442.8</ele><time>2026-05-01T15:51:56.003Z</time></trkpt><trkpt lat="42.14932785427129" lon="8.642330473685815"><ele>444.4</ele><time>2026-05-01T15:51:57.003Z</time></trkpt><trkpt lat="42.149272909643926" lon="8.642460198328337"><ele>446.0</ele><time>2026-05-01T15:51:58.003Z</time></trkpt><trkpt lat="42.14921805958799" lon="8.642584193252757"><ele>446.0</ele><time>2026-05-01T15:51:59.003Z</time></trkpt><trkpt lat="42.149175379752634" lon="8.642717006153845"><ele>446.0</ele><time>2026-05-01T15:52:00.003Z</time></trkpt><trkpt lat="42.14910963576988" lon="8.642828061443463"><ele>446.0</ele><time>2026-05-01T15:52:01.003Z</time></trkpt><trkpt lat="42.14905775826829" lon="8.642929109218468"><ele>446.0</ele><time>2026-05-01T15:52:02.003Z</time></trkpt><trkpt lat="42.14900937611719" lon="8.643022389925592"><ele>446.0</ele><time>2026-05-01T15:52:03.003Z</time></trkpt><trkpt lat="42.14897066039752" lon="8.643104395500044"><ele>444.42857142857144</ele><time>2026-05-01T15:52:04.003Z</time></trkpt><trkpt lat="42.14892916332261" lon="8.643188663999155"><ele>442.85714285714283</ele><time>2026-05-01T15:52:05.003Z</time></trkpt><trkpt lat="42.148856617101714" lon="8.64322415343872"><ele>441.28571428571433</ele><time>2026-05-01T15:52:06.003Z</time></trkpt><trkpt lat="42.14878765669315" lon="8.643247994160284"><ele>439.7142857142857</ele><time>2026-05-01T15:52:07.003Z</time></trkpt><trkpt lat="42.148721581328175" lon="8.643277610081325"><ele>438.14285714285717</ele><time>2026-05-01T15:52:08.003Z</time></trkpt><trkpt lat="42.1486528446334" lon="8.643310860632795"><ele>436.5714285714286</ele><time>2026-05-01T15:52:09.003Z</time></trkpt><trkpt lat="42.14860063833585" lon="8.643363940211627"><ele>435.0</ele><time>2026-05-01T15:52:10.003Z</time></trkpt><trkpt lat="42.14851791478947" lon="8.643445209901383"><ele>435.0</ele><time>2026-05-01T15:52:11.998Z</time></trkpt><trkpt lat="42.14853074591797" lon="8.643537002001025"><ele>435.0</ele><time>2026-05-01T15:52:12.998Z</time></trkpt><trkpt lat="42.14862643312826" lon="8.643559909151577"><ele>435.0</ele><time>2026-05-01T15:52:13.998Z</time></trkpt><trkpt lat="42.148739113272356" lon="8.6435231908342"><ele>435.0</ele><time>2026-05-01T15:52:15.998Z</time></trkpt><trkpt lat="42.14879995531314" lon="8.643550068777733"><ele>435.0</ele><time>2026-05-01T15:52:16.998Z</time></trkpt><trkpt lat="42.14886857341368" lon="8.64357741399961"><ele>435.0</ele><time>2026-05-01T15:52:17.998Z</time></trkpt><trkpt lat="42.14893209710026" lon="8.643626221962457"><ele>436.00000000000006</ele><time>2026-05-01T15:52:18.998Z</time></trkpt><trkpt lat="42.14896797721339" lon="8.643705054169102"><ele>437.0</ele><time>2026-05-01T15:52:19.999Z</time></trkpt><trkpt lat="42.14899881232048" lon="8.64379783436539"><ele>438.0</ele><time>2026-05-01T15:52:20.999Z</time></trkpt><trkpt lat="42.14901927898997" lon="8.64389643766007"><ele>439.0</ele><time>2026-05-01T15:52:21.999Z</time></trkpt><trkpt lat="42.14904111815976" lon="8.643995242766689"><ele>440.0</ele><time>2026-05-01T15:52:22.999Z</time></trkpt><trkpt lat="42.149054716269795" lon="8.64409446270146"><ele>441.00000000000006</ele><time>2026-05-01T15:52:23.999Z</time></trkpt><trkpt lat="42.149063598751944" lon="8.6441970556114"><ele>442.0</ele><time>2026-05-01T15:52:24.999Z</time></trkpt><trkpt lat="42.14907077381782" lon="8.644304502030481"><ele>442.00000000000006</ele><time>2026-05-01T15:52:25.999Z</time></trkpt><trkpt lat="42.14908024788926" lon="8.644424021049765"><ele>442.0</ele><time>2026-05-01T15:52:26.999Z</time></trkpt><trkpt lat="42.14909394672207" lon="8.64454965818684"><ele>442.0</ele><time>2026-05-01T15:52:27.999Z</time></trkpt><trkpt lat="42.1490999271627" lon="8.644675390692383"><ele>442.0</ele><time>2026-05-01T15:52:28.999Z</time></trkpt><trkpt lat="42.149092075780985" lon="8.644794137677748"><ele>442.00000000000006</ele><time>2026-05-01T15:52:29.999Z</time></trkpt><trkpt lat="42.14907172631671" lon="8.644886914842479"><ele>442.0</ele><time>2026-05-01T15:52:30.999Z</time></trkpt><trkpt lat="42.14898850657963" lon="8.645013500173286"><ele>440.40000000000003</ele><time>2026-05-01T15:52:33Z</time></trkpt><trkpt lat="42.14893962872118" lon="8.645102941975068"><ele>438.80000000000007</ele><time>2026-05-01T15:52:34Z</time></trkpt><trkpt lat="42.14888776614898" lon="8.645197845648337"><ele>437.2</ele><time>2026-05-01T15:52:35Z</time></trkpt><trkpt lat="42.14883365216581" lon="8.645296869269805"><ele>435.6</ele><time>2026-05-01T15:52:36Z</time></trkpt><trkpt lat="42.14877535399574" lon="8.645403549447323"><ele>434.0</ele><time>2026-05-01T15:52:37Z</time></trkpt><trkpt lat="42.14871648764972" lon="8.645509193700546"><ele>434.0</ele><time>2026-05-01T15:52:38Z</time></trkpt><trkpt lat="42.14866530790027" lon="8.645612700819765"><ele>434.0</ele><time>2026-05-01T15:52:39Z</time></trkpt><trkpt lat="42.14860312205347" lon="8.645712341926963"><ele>434.0</ele><time>2026-05-01T15:52:40Z</time></trkpt><trkpt lat="42.14853488859938" lon="8.645810080432156"><ele>434.0</ele><time>2026-05-01T15:52:41Z</time></trkpt><trkpt lat="42.14846924276674" lon="8.64590266570515"><ele>434.0</ele><time>2026-05-01T15:52:42Z</time></trkpt><trkpt lat="42.14841175447594" lon="8.645993592159906"><ele>433.99999999999994</ele><time>2026-05-01T15:52:43Z</time></trkpt><trkpt lat="42.14836105258086" lon="8.64608665243713"><ele>434.0</ele><time>2026-05-01T15:52:44Z</time></trkpt><trkpt lat="42.148305405100466" lon="8.64617101781831"><ele>434.0</ele><time>2026-05-01T15:52:45Z</time></trkpt><trkpt lat="42.14825154453355" lon="8.646268231147344"><ele>434.0</ele><time>2026-05-01T15:52:46Z</time></trkpt><trkpt lat="42.14816476192178" lon="8.64633569950766"><ele>433.99999999999994</ele><time>2026-05-01T15:52:47Z</time></trkpt><trkpt lat="42.14810146270105" lon="8.64641155606147"><ele>434.0</ele><time>2026-05-01T15:52:48Z</time></trkpt><trkpt lat="42.1480615539018" lon="8.64649222668997"><ele>431.49999999999994</ele><time>2026-05-01T15:52:49Z</time></trkpt><trkpt lat="42.14801329185346" lon="8.646562955017904"><ele>429.0</ele><time>2026-05-01T15:52:50Z</time></trkpt><trkpt lat="42.147985845994334" lon="8.646655060388971"><ele>426.5</ele><time>2026-05-01T15:52:51.001Z</time></trkpt><trkpt lat="42.14795530276359" lon="8.646742905311001"><ele>424.0</ele><time>2026-05-01T15:52:52.001Z</time></trkpt><trkpt lat="42.14784868952653" lon="8.6468112126934"><ele>421.49999999999994</ele><time>2026-05-01T15:52:54.001Z</time></trkpt><trkpt lat="42.147786539788385" lon="8.646854168550128"><ele>419.0</ele><time>2026-05-01T15:52:55.001Z</time></trkpt><trkpt lat="42.14766897932172" lon="8.646911402083136"><ele>418.99999999999994</ele><time>2026-05-01T15:52:57.001Z</time></trkpt><trkpt lat="42.1475898931191" lon="8.646945135567343"><ele>419.0</ele><time>2026-05-01T15:52:58.001Z</time></trkpt><trkpt lat="42.147517880100914" lon="8.646994033002182"><ele>419.0</ele><time>2026-05-01T15:52:59.001Z</time></trkpt><trkpt lat="42.14744998995563" lon="8.647067300824634"><ele>419.0</ele><time>2026-05-01T15:53:00.001Z</time></trkpt><trkpt lat="42.14736628502471" lon="8.64711830530183"><ele>418.99999999999994</ele><time>2026-05-01T15:53:01.001Z</time></trkpt><trkpt lat="42.14728877012526" lon="8.647190741798406"><ele>419.0</ele><time>2026-05-01T15:53:02.001Z</time></trkpt><trkpt lat="42.14720526773051" lon="8.64728371876241"><ele>418.0</ele><time>2026-05-01T15:53:03.001Z</time></trkpt><trkpt lat="42.14714208970128" lon="8.647387417807497"><ele>417.0</ele><time>2026-05-01T15:53:04.001Z</time></trkpt><trkpt lat="42.14706723670642" lon="8.647468614912656"><ele>416.0</ele><time>2026-05-01T15:53:05.001Z</time></trkpt><trkpt lat="42.14700446855266" lon="8.64755802027998"><ele>415.0</ele><time>2026-05-01T15:53:06.001Z</time></trkpt><trkpt lat="42.14695265053926" lon="8.647652337004605"><ele>414.0</ele><time>2026-05-01T15:53:07.001Z</time></trkpt><trkpt lat="42.14691485052193" lon="8.647756160197451"><ele>413.0</ele><time>2026-05-01T15:53:08.001Z</time></trkpt><trkpt lat="42.146856210410895" lon="8.647835122206763"><ele>412.0</ele><time>2026-05-01T15:53:09.001Z</time></trkpt><trkpt lat="42.14680513733997" lon="8.6479156964716"><ele>411.0</ele><time>2026-05-01T15:53:10.001Z</time></trkpt><trkpt lat="42.14674033222074" lon="8.647988596198392"><ele>410.0</ele><time>2026-05-01T15:53:11.001Z</time></trkpt><trkpt lat="42.14669918223653" lon="8.648111315778845"><ele>409.0</ele><time>2026-05-01T15:53:12.001Z</time></trkpt><trkpt lat="42.146615680345526" lon="8.648190547177963"><ele>408.0</ele><time>2026-05-01T15:53:13.001Z</time></trkpt><trkpt lat="42.146530106725315" lon="8.64826622524998"><ele>408.0</ele><time>2026-05-01T15:53:14.001Z</time></trkpt><trkpt lat="42.1464478997945" lon="8.64834061965368"><ele>408.0</ele><time>2026-05-01T15:53:15.001Z</time></trkpt><trkpt lat="42.146374271591114" lon="8.648435411148258"><ele>408.0</ele><time>2026-05-01T15:53:16.001Z</time></trkpt><trkpt lat="42.146313642193036" lon="8.64854137954457"><ele>408.0</ele><time>2026-05-01T15:53:17.001Z</time></trkpt><trkpt lat="42.146254215281715" lon="8.648654777085339"><ele>408.0</ele><time>2026-05-01T15:53:18.001Z</time></trkpt><trkpt lat="42.14620265631787" lon="8.648779600579546"><ele>409.4</ele><time>2026-05-01T15:53:19.002Z</time></trkpt><trkpt lat="42.146168900747575" lon="8.648904591101573"><ele>410.79999999999995</ele><time>2026-05-01T15:53:20.002Z</time></trkpt><trkpt lat="42.14614628779788" lon="8.649028884112589"><ele>412.2</ele><time>2026-05-01T15:53:21.002Z</time></trkpt><trkpt lat="42.14614082852481" lon="8.64915234780906"><ele>413.6</ele><time>2026-05-01T15:53:22.002Z</time></trkpt><trkpt lat="42.146148282712865" lon="8.649275421951335"><ele>415.0</ele><time>2026-05-01T15:53:23.002Z</time></trkpt><trkpt lat="42.14616561361081" lon="8.649387613203396"><ele>416.2</ele><time>2026-05-01T15:53:24.002Z</time></trkpt><trkpt lat="42.14615500343931" lon="8.649483570121332"><ele>417.4</ele><time>2026-05-01T15:53:25.002Z</time></trkpt><trkpt lat="42.1460872794128" lon="8.649634047348425"><ele>418.6</ele><time>2026-05-01T15:53:27.002Z</time></trkpt><trkpt lat="42.146035999154556" lon="8.649700866843961"><ele>419.8</ele><time>2026-05-01T15:53:28.002Z</time></trkpt><trkpt lat="42.145970491506894" lon="8.649788901312851"><ele>421.0</ele><time>2026-05-01T15:53:29.002Z</time></trkpt><trkpt lat="42.14589673408771" lon="8.649873442846035"><ele>421.0</ele><time>2026-05-01T15:53:30.002Z</time></trkpt><trkpt lat="42.145832740763055" lon="8.64996582371367"><ele>421.0</ele><time>2026-05-01T15:53:31.002Z</time></trkpt><trkpt lat="42.14580941559696" lon="8.650082255849696"><ele>421.0</ele><time>2026-05-01T15:53:32.002Z</time></trkpt><trkpt lat="42.145782757532814" lon="8.65019801784362"><ele>421.0</ele><time>2026-05-01T15:53:33.002Z</time></trkpt><trkpt lat="42.14577413256134" lon="8.650333881805071"><ele>421.0</ele><time>2026-05-01T15:53:34.002Z</time></trkpt><trkpt lat="42.145753883780216" lon="8.650475759775249"><ele>421.20000000000005</ele><time>2026-05-01T15:53:35.002Z</time></trkpt><trkpt lat="42.14575358316958" lon="8.650619223390132"><ele>421.40000000000003</ele><time>2026-05-01T15:53:36.002Z</time></trkpt><trkpt lat="42.145766436887705" lon="8.650749319114844"><ele>421.6</ele><time>2026-05-01T15:53:37.002Z</time></trkpt><trkpt lat="42.14576469503355" lon="8.65089050857808"><ele>421.8</ele><time>2026-05-01T15:53:38.002Z</time></trkpt><trkpt lat="42.14577401509867" lon="8.651011538538715"><ele>422.0</ele><time>2026-05-01T15:53:39.002Z</time></trkpt><trkpt lat="42.14579436462599" lon="8.651126831506035"><ele>421.16666666666663</ele><time>2026-05-01T15:53:40.002Z</time></trkpt><trkpt lat="42.14579533411663" lon="8.651242953152021"><ele>420.3333333333333</ele><time>2026-05-01T15:53:41.002Z</time></trkpt><trkpt lat="42.14580562244462" lon="8.651356729451358"><ele>419.5</ele><time>2026-05-01T15:53:42.002Z</time></trkpt><trkpt lat="42.14584204076384" lon="8.65145615503625"><ele>418.66666666666663</ele><time>2026-05-01T15:53:43.002Z</time></trkpt><trkpt lat="42.145890598105964" lon="8.651536545496043"><ele>417.8333333333333</ele><time>2026-05-01T15:53:44.002Z</time></trkpt><trkpt lat="42.14593478413274" lon="8.651614330649371"><ele>417.0</ele><time>2026-05-01T15:53:45.002Z</time></trkpt><trkpt lat="42.14595296993809" lon="8.651777909989514"><ele>417.0</ele><time>2026-05-01T15:53:47.002Z</time></trkpt><trkpt lat="42.14588708009737" lon="8.651844499814057"><ele>417.0</ele><time>2026-05-01T15:53:48.002Z</time></trkpt><trkpt lat="42.14584870087018" lon="8.651986767006074"><ele>417.0</ele><time>2026-05-01T15:53:50.002Z</time></trkpt><trkpt lat="42.145813754878745" lon="8.652147362624037"><ele>417.0</ele><time>2026-05-01T15:53:52.003Z</time></trkpt><trkpt lat="42.145778297999755" lon="8.6522295255984"><ele>417.0</ele><time>2026-05-01T15:53:53.003Z</time></trkpt><trkpt lat="42.14574456607493" lon="8.652324279325335"><ele>413.1666666666667</ele><time>2026-05-01T15:53:54.003Z</time></trkpt><trkpt lat="42.145695522162676" lon="8.652409419999769"><ele>409.33333333333337</ele><time>2026-05-01T15:53:55.003Z</time></trkpt><trkpt lat="42.145628241682616" lon="8.652466367321956"><ele>405.5</ele><time>2026-05-01T15:53:56.003Z</time></trkpt><trkpt lat="42.145554766617394" lon="8.652524721878901"><ele>401.6666666666667</ele><time>2026-05-01T15:53:57.003Z</time></trkpt><trkpt lat="42.14547415651302" lon="8.65256345698491"><ele>397.83333333333337</ele><time>2026-05-01T15:53:58.003Z</time></trkpt><trkpt lat="42.145378917146736" lon="8.652569878411747"><ele>394.0</ele><time>2026-05-01T15:53:59.003Z</time></trkpt><trkpt lat="42.145299107180996" lon="8.652613503042764"><ele>394.0</ele><time>2026-05-01T15:54:00.003Z</time></trkpt><trkpt lat="42.14523950578674" lon="8.652717039465546"><ele>394.0</ele><time>2026-05-01T15:54:01.003Z</time></trkpt><trkpt lat="42.14517885219411" lon="8.65282572336884"><ele>394.0</ele><time>2026-05-01T15:54:02.003Z</time></trkpt><trkpt lat="42.145134262180505" lon="8.652942659308396"><ele>394.0</ele><time>2026-05-01T15:54:03.003Z</time></trkpt><trkpt lat="42.145109591918796" lon="8.65305860777956"><ele>394.0</ele><time>2026-05-01T15:54:04.003Z</time></trkpt><trkpt lat="42.145107885344096" lon="8.653176689274382"><ele>394.50000000000006</ele><time>2026-05-01T15:54:05.003Z</time></trkpt><trkpt lat="42.145099829232" lon="8.653295995540057"><ele>395.0</ele><time>2026-05-01T15:54:06.003Z</time></trkpt><trkpt lat="42.14510093952504" lon="8.653418545420399"><ele>395.5</ele><time>2026-05-01T15:54:07.003Z</time></trkpt><trkpt lat="42.145077928886096" lon="8.65354181483049"><ele>396.0</ele><time>2026-05-01T15:54:08.003Z</time></trkpt><trkpt lat="42.14509042119537" lon="8.653657263922598"><ele>396.50000000000006</ele><time>2026-05-01T15:54:09.003Z</time></trkpt><trkpt lat="42.14508076256297" lon="8.653767287309465"><ele>397.0</ele><time>2026-05-01T15:54:10.003Z</time></trkpt><trkpt lat="42.14509410954368" lon="8.653874270929062"><ele>397.00000000000006</ele><time>2026-05-01T15:54:11.003Z</time></trkpt><trkpt lat="42.14510878388763" lon="8.653975261466945"><ele>397.0</ele><time>2026-05-01T15:54:12.003Z</time></trkpt><trkpt lat="42.145125498321605" lon="8.654068004142427"><ele>397.0</ele><time>2026-05-01T15:54:13.003Z</time></trkpt><trkpt lat="42.145146743869915" lon="8.654153265914928"><ele>397.0</ele><time>2026-05-01T15:54:14.003Z</time></trkpt><trkpt lat="42.14521648814047" lon="8.654288117932605"><ele>397.00000000000006</ele><time>2026-05-01T15:54:16.003Z</time></trkpt><trkpt lat="42.14527101749824" lon="8.654338212138661"><ele>397.0</ele><time>2026-05-01T15:54:17.003Z</time></trkpt><trkpt lat="42.14533231377493" lon="8.65436637944881"><ele>397.0</ele><time>2026-05-01T15:54:17.998Z</time></trkpt><trkpt lat="42.14545083399786" lon="8.65440725073037"><ele>397.0</ele><time>2026-05-01T15:54:19.998Z</time></trkpt><trkpt lat="42.14557272903674" lon="8.654417490529411"><ele>397.0</ele><time>2026-05-01T15:54:21.998Z</time></trkpt><trkpt lat="42.14569045437587" lon="8.654403103717309"><ele>397.0</ele><time>2026-05-01T15:54:23.998Z</time></trkpt><trkpt lat="42.145806297188145" lon="8.654403343144272"><ele>397.7142857142857</ele><time>2026-05-01T15:54:25.998Z</time></trkpt><trkpt lat="42.145875376108386" lon="8.65442940318375"><ele>398.42857142857144</ele><time>2026-05-01T15:54:26.999Z</time></trkpt><trkpt lat="42.145943413577626" lon="8.654436697438499"><ele>399.1428571428571</ele><time>2026-05-01T15:54:27.999Z</time></trkpt><trkpt lat="42.14601571120641" lon="8.654444448429492"><ele>399.8571428571429</ele><time>2026-05-01T15:54:28.999Z</time></trkpt><trkpt lat="42.146089008440356" lon="8.654431351311352"><ele>400.5714285714286</ele><time>2026-05-01T15:54:29.999Z</time></trkpt><trkpt lat="42.14616126148596" lon="8.654455381504985"><ele>401.2857142857143</ele><time>2026-05-01T15:54:30.999Z</time></trkpt><trkpt lat="42.146236093801846" lon="8.654474038622899"><ele>402.0</ele><time>2026-05-01T15:54:31.999Z</time></trkpt><trkpt lat="42.14631234761947" lon="8.654484716145923"><ele>402.0</ele><time>2026-05-01T15:54:32.999Z</time></trkpt><trkpt lat="42.14638535945003" lon="8.654480467611643"><ele>402.0</ele><time>2026-05-01T15:54:33.999Z</time></trkpt><trkpt lat="42.14645698199224" lon="8.654460986311852"><ele>402.0</ele><time>2026-05-01T15:54:34.999Z</time></trkpt><trkpt lat="42.14652522315378" lon="8.654453399568052"><ele>402.0</ele><time>2026-05-01T15:54:35.999Z</time></trkpt><trkpt lat="42.14659443176012" lon="8.654444486424023"><ele>402.0</ele><time>2026-05-01T15:54:36.999Z</time></trkpt><trkpt lat="42.14665834865243" lon="8.654438797093881"><ele>402.0</ele><time>2026-05-01T15:54:37.999Z</time></trkpt><trkpt lat="42.14672156165196" lon="8.654452806592284"><ele>402.0</ele><time>2026-05-01T15:54:38.999Z</time></trkpt><trkpt lat="42.1468395880378" lon="8.654497116808514"><ele>395.20000000000005</ele><time>2026-05-01T15:54:41Z</time></trkpt><trkpt lat="42.14688947951037" lon="8.654550027752208"><ele>388.4</ele><time>2026-05-01T15:54:42Z</time></trkpt><trkpt lat="42.14700832428461" lon="8.654587337382624"><ele>381.6</ele><time>2026-05-01T15:54:44Z</time></trkpt><trkpt lat="42.14713237535256" lon="8.65458520145159"><ele>374.79999999999995</ele><time>2026-05-01T15:54:46Z</time></trkpt><trkpt lat="42.14719448351276" lon="8.654623348452658"><ele>368.0</ele><time>2026-05-01T15:54:47Z</time></trkpt><trkpt lat="42.14724950699776" lon="8.654689498653939"><ele>368.0</ele><time>2026-05-01T15:54:48Z</time></trkpt><trkpt lat="42.147296477779896" lon="8.654763658035966"><ele>368.0</ele><time>2026-05-01T15:54:49Z</time></trkpt><trkpt lat="42.147340559882295" lon="8.654831007829046"><ele>368.0</ele><time>2026-05-01T15:54:50Z</time></trkpt><trkpt lat="42.1473886086213" lon="8.654889423295813"><ele>368.0</ele><time>2026-05-01T15:54:51Z</time></trkpt><trkpt lat="42.14743502269072" lon="8.654948801707077"><ele>368.0</ele><time>2026-05-01T15:54:52Z</time></trkpt><trkpt lat="42.147506606499796" lon="8.654952651386875"><ele>368.0</ele><time>2026-05-01T15:54:53Z</time></trkpt><trkpt lat="42.14760177625135" lon="8.6550507300984"><ele>369.14285714285717</ele><time>2026-05-01T15:54:55Z</time></trkpt><trkpt lat="42.1475947343869" lon="8.65516059686995"><ele>370.2857142857143</ele><time>2026-05-01T15:54:56Z</time></trkpt><trkpt lat="42.14762924637815" lon="8.655235459871637"><ele>371.42857142857144</ele><time>2026-05-01T15:54:57.001Z</time></trkpt><trkpt lat="42.147689267733675" lon="8.655300999163597"><ele>372.57142857142856</ele><time>2026-05-01T15:54:58.001Z</time></trkpt><trkpt lat="42.147746393333485" lon="8.655381946456632"><ele>373.71428571428567</ele><time>2026-05-01T15:54:59.001Z</time></trkpt><trkpt lat="42.1477945323481" lon="8.655462777700942"><ele>374.85714285714283</ele><time>2026-05-01T15:55:00.001Z</time></trkpt><trkpt lat="42.1478128184739" lon="8.655545724467451"><ele>376.0</ele><time>2026-05-01T15:55:01.001Z</time></trkpt><trkpt lat="42.14774461362178" lon="8.655611122033388"><ele>376.0</ele><time>2026-05-01T15:55:02.001Z</time></trkpt><trkpt lat="42.14762674086577" lon="8.655646075752372"><ele>376.0</ele><time>2026-05-01T15:55:04.001Z</time></trkpt><trkpt lat="42.14754915188183" lon="8.655676583299044"><ele>376.0</ele><time>2026-05-01T15:55:05.001Z</time></trkpt><trkpt lat="42.147464064081625" lon="8.65571600521721"><ele>376.0</ele><time>2026-05-01T15:55:06.001Z</time></trkpt><trkpt lat="42.14737868375051" lon="8.655743550860278"><ele>376.0</ele><time>2026-05-01T15:55:07.001Z</time></trkpt><trkpt lat="42.14729975134716" lon="8.655802027659325"><ele>371.6</ele><time>2026-05-01T15:55:08.001Z</time></trkpt><trkpt lat="42.14721946665616" lon="8.655844866287307"><ele>367.20000000000005</ele><time>2026-05-01T15:55:09.001Z</time></trkpt><trkpt lat="42.14716450971444" lon="8.655952828736217"><ele>362.79999999999995</ele><time>2026-05-01T15:55:10.001Z</time></trkpt><trkpt lat="42.147121239661786" lon="8.65606267567215"><ele>358.4</ele><time>2026-05-01T15:55:11.001Z</time></trkpt><trkpt lat="42.147060470291486" lon="8.656168380516483"><ele>354.0</ele><time>2026-05-01T15:55:12.001Z</time></trkpt><trkpt lat="42.14701549908895" lon="8.656288263548603"><ele>354.0</ele><time>2026-05-01T15:55:13.001Z</time></trkpt><trkpt lat="42.146972553456166" lon="8.656404375068853"><ele>354.0</ele><time>2026-05-01T15:55:14.001Z</time></trkpt><trkpt lat="42.146933595387765" lon="8.65652355184094"><ele>354.0</ele><time>2026-05-01T15:55:15.001Z</time></trkpt><trkpt lat="42.146916880258416" lon="8.656639548923735"><ele>354.0</ele><time>2026-05-01T15:55:16.001Z</time></trkpt><trkpt lat="42.14694893977632" lon="8.656756867659036"><ele>354.0</ele><time>2026-05-01T15:55:17.001Z</time></trkpt><trkpt lat="42.1469747005013" lon="8.65685960248205"><ele>354.0</ele><time>2026-05-01T15:55:18.001Z</time></trkpt><trkpt lat="42.14705802379454" lon="8.656907440932336"><ele>354.0</ele><time>2026-05-01T15:55:19.001Z</time></trkpt><trkpt lat="42.14713787046191" lon="8.656914876538004"><ele>354.0</ele><time>2026-05-01T15:55:20.001Z</time></trkpt><trkpt lat="42.147209008730066" lon="8.656905475291675"><ele>354.0</ele><time>2026-05-01T15:55:21.001Z</time></trkpt><trkpt lat="42.14727411651407" lon="8.656902310254369"><ele>354.0</ele><time>2026-05-01T15:55:22.001Z</time></trkpt><trkpt lat="42.14734300505901" lon="8.656922979649279"><ele>354.0</ele><time>2026-05-01T15:55:23.001Z</time></trkpt><trkpt lat="42.1474153403667" lon="8.656905221039928"><ele>354.42857142857144</ele><time>2026-05-01T15:55:24.002Z</time></trkpt><trkpt lat="42.14748175165611" lon="8.656930097555987"><ele>354.85714285714283</ele><time>2026-05-01T15:55:25.002Z</time></trkpt><trkpt lat="42.147526854522816" lon="8.65701583432107"><ele>355.2857142857143</ele><time>2026-05-01T15:55:26.002Z</time></trkpt><trkpt lat="42.14755290459985" lon="8.657097536274561"><ele>355.7142857142857</ele><time>2026-05-01T15:55:27.002Z</time></trkpt><trkpt lat="42.14756179688116" lon="8.657182047783422"><ele>356.1428571428571</ele><time>2026-05-01T15:55:28.002Z</time></trkpt><trkpt lat="42.147581224635864" lon="8.657279262710656"><ele>356.57142857142856</ele><time>2026-05-01T15:55:29.002Z</time></trkpt><trkpt lat="42.14762123472554" lon="8.657384632800557"><ele>357.0</ele><time>2026-05-01T15:55:30.002Z</time></trkpt><trkpt lat="42.14763132516568" lon="8.657502481896742"><ele>357.0</ele><time>2026-05-01T15:55:31.002Z</time></trkpt><trkpt lat="42.14765987356373" lon="8.657617763214343"><ele>357.0</ele><time>2026-05-01T15:55:32.002Z</time></trkpt><trkpt lat="42.147708088429205" lon="8.657737019396961"><ele>357.0</ele><time>2026-05-01T15:55:33.002Z</time></trkpt><trkpt lat="42.14774199640954" lon="8.657864036004186"><ele>357.0</ele><time>2026-05-01T15:55:34.002Z</time></trkpt><trkpt lat="42.1477757318888" lon="8.657985385372028"><ele>357.0</ele><time>2026-05-01T15:55:35.002Z</time></trkpt><trkpt lat="42.147802842971764" lon="8.65811185372816"><ele>354.5</ele><time>2026-05-01T15:55:36.002Z</time></trkpt><trkpt lat="42.147838411037995" lon="8.658228390691365"><ele>352.0</ele><time>2026-05-01T15:55:37.002Z</time></trkpt><trkpt lat="42.14782384466546" lon="8.658343469160934"><ele>349.5</ele><time>2026-05-01T15:55:38.002Z</time></trkpt><trkpt lat="42.14783207900631" lon="8.658448745816465"><ele>347.0</ele><time>2026-05-01T15:55:39.002Z</time></trkpt><trkpt lat="42.14784033347141" lon="8.658554281243598"><ele>344.5</ele><time>2026-05-01T15:55:40.002Z</time></trkpt><trkpt lat="42.147844402175565" lon="8.658650926098344"><ele>342.0</ele><time>2026-05-01T15:55:41.002Z</time></trkpt><trkpt lat="42.147841086561606" lon="8.658739854948767"><ele>341.99999999999994</ele><time>2026-05-01T15:55:42.002Z</time></trkpt><trkpt lat="42.14783004199806" lon="8.658829502378852"><ele>342.0</ele><time>2026-05-01T15:55:43.002Z</time></trkpt><trkpt lat="42.14781823213743" lon="8.658919561787926"><ele>342.0</ele><time>2026-05-01T15:55:44.002Z</time></trkpt><trkpt lat="42.14780217162092" lon="8.65900695079625"><ele>342.0</ele><time>2026-05-01T15:55:45.002Z</time></trkpt><trkpt lat="42.147781419025044" lon="8.659098368486642"><ele>342.0</ele><time>2026-05-01T15:55:46.002Z</time></trkpt><trkpt lat="42.14775754038901" lon="8.65918700982489"><ele>341.99999999999994</ele><time>2026-05-01T15:55:47.002Z</time></trkpt><trkpt lat="42.147732343759735" lon="8.659279858988226"><ele>342.0</ele><time>2026-05-01T15:55:48.002Z</time></trkpt><trkpt lat="42.14772065068337" lon="8.65938153966897"><ele>343.8333333333333</ele><time>2026-05-01T15:55:49.002Z</time></trkpt><trkpt lat="42.14767359745958" lon="8.65947553306355"><ele>345.6666666666667</ele><time>2026-05-01T15:55:50.002Z</time></trkpt><trkpt lat="42.14762845319695" lon="8.659556397935294"><ele>347.5</ele><time>2026-05-01T15:55:51.002Z</time></trkpt><trkpt lat="42.14757127482685" lon="8.659630085569798"><ele>349.33333333333337</ele><time>2026-05-01T15:55:52.002Z</time></trkpt><trkpt lat="42.147497458691845" lon="8.659642911945241"><ele>351.1666666666667</ele><time>2026-05-01T15:55:53.002Z</time></trkpt><trkpt lat="42.147400119989335" lon="8.659658688964472"><ele>353.0</ele><time>2026-05-01T15:55:54.002Z</time></trkpt><trkpt lat="42.14729409798205" lon="8.659681461166244"><ele>348.0</ele><time>2026-05-01T15:55:55.002Z</time></trkpt><trkpt lat="42.14720692434578" lon="8.659714690734708"><ele>343.0</ele><time>2026-05-01T15:55:56.003Z</time></trkpt><trkpt lat="42.14714107097499" lon="8.659775412860363"><ele>338.0</ele><time>2026-05-01T15:55:57.003Z</time></trkpt><trkpt lat="42.147086772005586" lon="8.659843630133741"><ele>333.0</ele><time>2026-05-01T15:55:58.003Z</time></trkpt><trkpt lat="42.14704027817871" lon="8.65992516648594"><ele>328.0</ele><time>2026-05-01T15:55:59.003Z</time></trkpt><trkpt lat="42.14703576525962" lon="8.66006437118601"><ele>323.0</ele><time>2026-05-01T15:56:00.003Z</time></trkpt><trkpt lat="42.147069607360514" lon="8.660175073080561"><ele>320.79999999999995</ele><time>2026-05-01T15:56:01.003Z</time></trkpt><trkpt lat="42.14705437037524" lon="8.66028603989398"><ele>318.59999999999997</ele><time>2026-05-01T15:56:02.003Z</time></trkpt><trkpt lat="42.14704336165869" lon="8.660402241705336"><ele>316.4</ele><time>2026-05-01T15:56:03.003Z</time></trkpt><trkpt lat="42.14703162711133" lon="8.660531483197001"><ele>314.2</ele><time>2026-05-01T15:56:04.003Z</time></trkpt><trkpt lat="42.14701907614407" lon="8.660653381283606"><ele>312.0</ele><time>2026-05-01T15:56:05.003Z</time></trkpt><trkpt lat="42.14701120291462" lon="8.660778271800043"><ele>312.0</ele><time>2026-05-01T15:56:06.003Z</time></trkpt><trkpt lat="42.14705767397492" lon="8.66090340869805"><ele>312.0</ele><time>2026-05-01T15:56:07.003Z</time></trkpt><trkpt lat="42.1470962614445" lon="8.661024231690243"><ele>312.0</ele><time>2026-05-01T15:56:08.003Z</time></trkpt><trkpt lat="42.147140550444085" lon="8.661135737841109"><ele>312.0</ele><time>2026-05-01T15:56:09.003Z</time></trkpt><trkpt lat="42.14715409535291" lon="8.661261623498516"><ele>312.0</ele><time>2026-05-01T15:56:10.003Z</time></trkpt><trkpt lat="42.14715363436314" lon="8.66137664921179"><ele>311.1666666666667</ele><time>2026-05-01T15:56:11.003Z</time></trkpt><trkpt lat="42.14712812042572" lon="8.661482686028757"><ele>310.3333333333333</ele><time>2026-05-01T15:56:12.003Z</time></trkpt><trkpt lat="42.14709998095855" lon="8.661587400095252"><ele>309.5</ele><time>2026-05-01T15:56:13.003Z</time></trkpt><trkpt lat="42.14705679767857" lon="8.661682580219086"><ele>308.66666666666663</ele><time>2026-05-01T15:56:14.003Z</time></trkpt><trkpt lat="42.14699811728589" lon="8.661768373154562"><ele>307.8333333333333</ele><time>2026-05-01T15:56:15.003Z</time></trkpt><trkpt lat="42.14695075305179" lon="8.661871912068424"><ele>307.0</ele><time>2026-05-01T15:56:16.003Z</time></trkpt><trkpt lat="42.14692325703583" lon="8.661984063991158"><ele>307.0</ele><time>2026-05-01T15:56:17.003Z</time></trkpt><trkpt lat="42.14692973097686" lon="8.662106994128116"><ele>307.0</ele><time>2026-05-01T15:56:18.003Z</time></trkpt><trkpt lat="42.146926785296984" lon="8.66222328431095"><ele>307.0</ele><time>2026-05-01T15:56:19.003Z</time></trkpt><trkpt lat="42.14692550570188" lon="8.66233705812631"><ele>307.0</ele><time>2026-05-01T15:56:20.003Z</time></trkpt><trkpt lat="42.14690231495238" lon="8.66245108207034"><ele>307.0</ele><time>2026-05-01T15:56:21.003Z</time></trkpt><trkpt lat="42.146892079592135" lon="8.662560974342956"><ele>307.0</ele><time>2026-05-01T15:56:22.003Z</time></trkpt><trkpt lat="42.1468881959562" lon="8.662682158973535"><ele>306.66666666666663</ele><time>2026-05-01T15:56:23.003Z</time></trkpt><trkpt lat="42.14689823247143" lon="8.662793004793153"><ele>306.3333333333333</ele><time>2026-05-01T15:56:23.998Z</time></trkpt><trkpt lat="42.14693702289198" lon="8.662899249913544"><ele>306.0</ele><time>2026-05-01T15:56:24.998Z</time></trkpt><trkpt lat="42.14694808136341" lon="8.66301259717583"><ele>305.6666666666667</ele><time>2026-05-01T15:56:25.998Z</time></trkpt><trkpt lat="42.14691490806053" lon="8.663112748630981"><ele>305.33333333333337</ele><time>2026-05-01T15:56:26.998Z</time></trkpt><trkpt lat="42.146888713250185" lon="8.6632214352227"><ele>305.0</ele><time>2026-05-01T15:56:27.998Z</time></trkpt><trkpt lat="42.14683678969397" lon="8.663296045146105"><ele>305.0</ele><time>2026-05-01T15:56:28.998Z</time></trkpt><trkpt lat="42.14677388622879" lon="8.66335756441777"><ele>305.0</ele><time>2026-05-01T15:56:29.999Z</time></trkpt><trkpt lat="42.1467131478246" lon="8.663421220647802"><ele>305.0</ele><time>2026-05-01T15:56:30.999Z</time></trkpt><trkpt lat="42.14665468836746" lon="8.663484841753109"><ele>305.0</ele><time>2026-05-01T15:56:31.999Z</time></trkpt><trkpt lat="42.14659951492563" lon="8.663555340697107"><ele>305.0</ele><time>2026-05-01T15:56:32.999Z</time></trkpt><trkpt lat="42.14653419721934" lon="8.663602521437161"><ele>305.0</ele><time>2026-05-01T15:56:33.999Z</time></trkpt><trkpt lat="42.14646116084749" lon="8.663630100181049"><ele>305.0</ele><time>2026-05-01T15:56:34.999Z</time></trkpt><trkpt lat="42.14641212268515" lon="8.66371413047635"><ele>305.0</ele><time>2026-05-01T15:56:35.999Z</time></trkpt><trkpt lat="42.14639878214204" lon="8.663833844567149"><ele>305.0</ele><time>2026-05-01T15:56:36.999Z</time></trkpt><trkpt lat="42.14648147332512" lon="8.66394438628577"><ele>305.0</ele><time>2026-05-01T15:56:37.999Z</time></trkpt><trkpt lat="42.146537153037215" lon="8.664031045138868"><ele>305.0</ele><time>2026-05-01T15:56:38.999Z</time></trkpt><trkpt lat="42.14658233654522" lon="8.664120727963926"><ele>305.0</ele><time>2026-05-01T15:56:39.999Z</time></trkpt><trkpt lat="42.14657974714884" lon="8.664228898095441"><ele>305.0</ele><time>2026-05-01T15:56:40.999Z</time></trkpt><trkpt lat="42.14655014703421" lon="8.664322472865766"><ele>305.0</ele><time>2026-05-01T15:56:41.999Z</time></trkpt><trkpt lat="42.146515127595684" lon="8.664407360227514"><ele>305.0</ele><time>2026-05-01T15:56:42.999Z</time></trkpt><trkpt lat="42.146476412916286" lon="8.664505922470862"><ele>305.0</ele><time>2026-05-01T15:56:44Z</time></trkpt><trkpt lat="42.14642745055082" lon="8.664607527962616"><ele>305.0</ele><time>2026-05-01T15:56:45Z</time></trkpt><trkpt lat="42.14637374633286" lon="8.66470893581147"><ele>300.6</ele><time>2026-05-01T15:56:46Z</time></trkpt><trkpt lat="42.146308267397586" lon="8.664794039806509"><ele>296.2</ele><time>2026-05-01T15:56:47Z</time></trkpt><trkpt lat="42.14622234419398" lon="8.664819448099633"><ele>291.8</ele><time>2026-05-01T15:56:48Z</time></trkpt><trkpt lat="42.146134470548645" lon="8.66479572009501"><ele>287.4</ele><time>2026-05-01T15:56:49Z</time></trkpt><trkpt lat="42.14603899033562" lon="8.664777067411764"><ele>283.0</ele><time>2026-05-01T15:56:50Z</time></trkpt><trkpt lat="42.145944264607195" lon="8.66476034362476"><ele>283.0</ele><time>2026-05-01T15:56:51Z</time></trkpt><trkpt lat="42.14584580346202" lon="8.664795842541986"><ele>283.0</ele><time>2026-05-01T15:56:52Z</time></trkpt><trkpt lat="42.1457517650714" lon="8.664803179212655"><ele>283.0</ele><time>2026-05-01T15:56:53Z</time></trkpt><trkpt lat="42.145668017919995" lon="8.664860879707184"><ele>283.0</ele><time>2026-05-01T15:56:54Z</time></trkpt><trkpt lat="42.145610999665145" lon="8.664967324442829"><ele>283.0</ele><time>2026-05-01T15:56:55Z</time></trkpt><trkpt lat="42.14561271921432" lon="8.665103827075537"><ele>279.8333333333333</ele><time>2026-05-01T15:56:56Z</time></trkpt><trkpt lat="42.14562337329881" lon="8.665229959596239"><ele>276.66666666666663</ele><time>2026-05-01T15:56:57Z</time></trkpt><trkpt lat="42.14560230403147" lon="8.665346689473722"><ele>273.5</ele><time>2026-05-01T15:56:58Z</time></trkpt><trkpt lat="42.14558917352203" lon="8.665453544806013"><ele>270.3333333333333</ele><time>2026-05-01T15:56:59Z</time></trkpt><trkpt lat="42.1455819613476" lon="8.665565405403319"><ele>267.1666666666667</ele><time>2026-05-01T15:57:00Z</time></trkpt><trkpt lat="42.14558026472265" lon="8.66567522745017"><ele>264.0</ele><time>2026-05-01T15:57:01Z</time></trkpt><trkpt lat="42.1456161603682" lon="8.665785688167501"><ele>265.6666666666667</ele><time>2026-05-01T15:57:02.001Z</time></trkpt><trkpt lat="42.145650626064665" lon="8.665885702654586"><ele>267.3333333333333</ele><time>2026-05-01T15:57:03.001Z</time></trkpt><trkpt lat="42.14569761436145" lon="8.665970096966884"><ele>269.0</ele><time>2026-05-01T15:57:04.001Z</time></trkpt><trkpt lat="42.145758299889344" lon="8.666036371114382"><ele>270.66666666666663</ele><time>2026-05-01T15:57:05.001Z</time></trkpt><trkpt lat="42.14582834633031" lon="8.666076150233515"><ele>272.3333333333333</ele><time>2026-05-01T15:57:06.001Z</time></trkpt><trkpt lat="42.14590263882757" lon="8.666092509867969"><ele>274.0</ele><time>2026-05-01T15:57:07.001Z</time></trkpt><trkpt lat="42.145978831895455" lon="8.66608709083169"><ele>274.0</ele><time>2026-05-01T15:57:08.001Z</time></trkpt><trkpt lat="42.14605221981356" lon="8.666073314786516"><ele>274.0</ele><time>2026-05-01T15:57:09.001Z</time></trkpt><trkpt lat="42.146129034357465" lon="8.66606506954156"><ele>274.0</ele><time>2026-05-01T15:57:10.001Z</time></trkpt><trkpt lat="42.14620507654325" lon="8.666066612620648"><ele>274.0</ele><time>2026-05-01T15:57:11.001Z</time></trkpt><trkpt lat="42.14628008706618" lon="8.666087403770762"><ele>274.0</ele><time>2026-05-01T15:57:12.001Z</time></trkpt><trkpt lat="42.146348914296176" lon="8.666124768708913"><ele>274.0</ele><time>2026-05-01T15:57:13.001Z</time></trkpt><trkpt lat="42.146407045646384" lon="8.666184164392938"><ele>272.66666666666663</ele><time>2026-05-01T15:57:14.001Z</time></trkpt><trkpt lat="42.14647893907072" lon="8.666230711988346"><ele>271.3333333333333</ele><time>2026-05-01T15:57:15.001Z</time></trkpt><trkpt lat="42.14655580008077" lon="8.66626145841377"><ele>270.0</ele><time>2026-05-01T15:57:16.001Z</time></trkpt><trkpt lat="42.14661112786239" lon="8.666334149369558"><ele>268.6666666666667</ele><time>2026-05-01T15:57:17.001Z</time></trkpt><trkpt lat="42.14663772885999" lon="8.666434577628284"><ele>267.33333333333337</ele><time>2026-05-01T15:57:18.001Z</time></trkpt><trkpt lat="42.14658958124443" lon="8.666534735517313"><ele>266.0</ele><time>2026-05-01T15:57:19.001Z</time></trkpt><trkpt lat="42.146576241069305" lon="8.666638027868919"><ele>266.0</ele><time>2026-05-01T15:57:20.001Z</time></trkpt><trkpt lat="42.14655052874201" lon="8.66673202135869"><ele>266.0</ele><time>2026-05-01T15:57:21.001Z</time></trkpt><trkpt lat="42.14651055536754" lon="8.666820612185147"><ele>266.0</ele><time>2026-05-01T15:57:22.001Z</time></trkpt><trkpt lat="42.146442738601024" lon="8.666880037343027"><ele>266.0</ele><time>2026-05-01T15:57:23.001Z</time></trkpt><trkpt lat="42.14638631515021" lon="8.666965171367154"><ele>266.0</ele><time>2026-05-01T15:57:24.001Z</time></trkpt><trkpt lat="42.14634831465892" lon="8.667074609426251"><ele>266.0</ele><time>2026-05-01T15:57:25.001Z</time></trkpt><trkpt lat="42.146357618210004" lon="8.667202294475583"><ele>261.1666666666667</ele><time>2026-05-01T15:57:26.001Z</time></trkpt><trkpt lat="42.146359481764094" lon="8.667318722319784"><ele>256.33333333333337</ele><time>2026-05-01T15:57:27.001Z</time></trkpt><trkpt lat="42.146363043548526" lon="8.667435541535077"><ele>251.5</ele><time>2026-05-01T15:57:28.001Z</time></trkpt><trkpt lat="42.14636518615311" lon="8.667545206486057"><ele>246.66666666666669</ele><time>2026-05-01T15:57:29.002Z</time></trkpt><trkpt lat="42.1463466266626" lon="8.667654560483435"><ele>241.83333333333334</ele><time>2026-05-01T15:57:30.002Z</time></trkpt><trkpt lat="42.14634936380485" lon="8.667764591414228"><ele>237.0</ele><time>2026-05-01T15:57:31.002Z</time></trkpt><trkpt lat="42.14638053209461" lon="8.667878309391721"><ele>235.83333333333334</ele><time>2026-05-01T15:57:32.002Z</time></trkpt><trkpt lat="42.146400622025816" lon="8.667989293077309"><ele>234.66666666666669</ele><time>2026-05-01T15:57:33.002Z</time></trkpt><trkpt lat="42.146416749424084" lon="8.668103931174759"><ele>233.5</ele><time>2026-05-01T15:57:34.002Z</time></trkpt><trkpt lat="42.14643038827845" lon="8.668222191785588"><ele>232.33333333333334</ele><time>2026-05-01T15:57:35.002Z</time></trkpt><trkpt lat="42.14644350134642" lon="8.668341088506388"><ele>231.16666666666669</ele><time>2026-05-01T15:57:36.002Z</time></trkpt><trkpt lat="42.146457140514094" lon="8.668457812116406"><ele>230.0</ele><time>2026-05-01T15:57:37.002Z</time></trkpt><trkpt lat="42.14647462543344" lon="8.668566075834054"><ele>230.8</ele><time>2026-05-01T15:57:38.002Z</time></trkpt><trkpt lat="42.146566431784464" lon="8.668642965579982"><ele>231.6</ele><time>2026-05-01T15:57:39.002Z</time></trkpt><trkpt lat="42.14664584324808" lon="8.668694528046833"><ele>232.39999999999998</ele><time>2026-05-01T15:57:40.002Z</time></trkpt><trkpt lat="42.14673047103281" lon="8.668722728879814"><ele>233.2</ele><time>2026-05-01T15:57:41.002Z</time></trkpt><trkpt lat="42.14681571407833" lon="8.668748376916293"><ele>234.0</ele><time>2026-05-01T15:57:42.002Z</time></trkpt><trkpt lat="42.146903863136785" lon="8.668792066360334"><ele>234.0</ele><time>2026-05-01T15:57:43.002Z</time></trkpt><trkpt lat="42.14699878838977" lon="8.668842130905874"><ele>234.0</ele><time>2026-05-01T15:57:44.002Z</time></trkpt><trkpt lat="42.147091604893696" lon="8.668885615266696"><ele>234.0</ele><time>2026-05-01T15:57:45.002Z</time></trkpt><trkpt lat="42.147162933662266" lon="8.6689267315862"><ele>234.0</ele><time>2026-05-01T15:57:46.002Z</time></trkpt><trkpt lat="42.14721234111222" lon="8.669002655356293"><ele>234.0</ele><time>2026-05-01T15:57:47.002Z</time></trkpt><trkpt lat="42.147183254542256" lon="8.669121953718856"><ele>234.0</ele><time>2026-05-01T15:57:48.002Z</time></trkpt><trkpt lat="42.147174590121345" lon="8.66925441668371"><ele>234.0</ele><time>2026-05-01T15:57:49.002Z</time></trkpt><trkpt lat="42.14717721522072" lon="8.669398611336971"><ele>234.0</ele><time>2026-05-01T15:57:50.002Z</time></trkpt><trkpt lat="42.1471683452272" lon="8.669549248822403"><ele>234.0</ele><time>2026-05-01T15:57:51.002Z</time></trkpt><trkpt lat="42.14715787976263" lon="8.66970733015162"><ele>234.0</ele><time>2026-05-01T15:57:52.002Z</time></trkpt><trkpt lat="42.14714921972562" lon="8.669871942225402"><ele>230.6</ele><time>2026-05-01T15:57:53.002Z</time></trkpt><trkpt lat="42.14716817906598" lon="8.670031011372387"><ele>227.2</ele><time>2026-05-01T15:57:54.002Z</time></trkpt><trkpt lat="42.147183313831626" lon="8.670179961092865"><ele>223.79999999999998</ele><time>2026-05-01T15:57:55.002Z</time></trkpt><trkpt lat="42.14720368305392" lon="8.670307619948247"><ele>220.39999999999998</ele><time>2026-05-01T15:57:56.002Z</time></trkpt><trkpt lat="42.14722137438455" lon="8.67041556777063"><ele>217.0</ele><time>2026-05-01T15:57:57.002Z</time></trkpt><trkpt lat="42.14729910081" lon="8.670482185889378"><ele>216.8</ele><time>2026-05-01T15:57:58.002Z</time></trkpt><trkpt lat="42.147375148199465" lon="8.670541576972393"><ele>216.6</ele><time>2026-05-01T15:57:59.002Z</time></trkpt><trkpt lat="42.147454598947284" lon="8.670596573043488"><ele>216.40000000000003</ele><time>2026-05-01T15:58:00.002Z</time></trkpt><trkpt lat="42.14753186312669" lon="8.670673014565324"><ele>216.20000000000002</ele><time>2026-05-01T15:58:01.003Z</time></trkpt><trkpt lat="42.14763139699288" lon="8.670688343906805"><ele>216.0</ele><time>2026-05-01T15:58:02.003Z</time></trkpt><trkpt lat="42.147714894614744" lon="8.670732017257734"><ele>216.0</ele><time>2026-05-01T15:58:03.003Z</time></trkpt><trkpt lat="42.147771332990125" lon="8.670830169145319"><ele>216.0</ele><time>2026-05-01T15:58:04.003Z</time></trkpt><trkpt lat="42.147819042588466" lon="8.670923446089036"><ele>216.0</ele><time>2026-05-01T15:58:05.003Z</time></trkpt><trkpt lat="42.14779627382777" lon="8.671048758563874"><ele>216.0</ele><time>2026-05-01T15:58:06.003Z</time></trkpt><trkpt lat="42.14775069560297" lon="8.67114075748559"><ele>216.0</ele><time>2026-05-01T15:58:07.003Z</time></trkpt><trkpt lat="42.14772085928768" lon="8.671246140205845"><ele>216.0</ele><time>2026-05-01T15:58:08.003Z</time></trkpt><trkpt lat="42.14769883647863" lon="8.671355039293848"><ele>214.60000000000002</ele><time>2026-05-01T15:58:09.003Z</time></trkpt><trkpt lat="42.14769201400518" lon="8.67147836937849"><ele>213.20000000000002</ele><time>2026-05-01T15:58:10.003Z</time></trkpt><trkpt lat="42.147698543425214" lon="8.671601266933065"><ele>211.8</ele><time>2026-05-01T15:58:11.003Z</time></trkpt><trkpt lat="42.14772575433487" lon="8.67172168620911"><ele>210.39999999999998</ele><time>2026-05-01T15:58:12.003Z</time></trkpt><trkpt lat="42.14772680116878" lon="8.671846137400589"><ele>209.0</ele><time>2026-05-01T15:58:13.003Z</time></trkpt><trkpt lat="42.14777456234249" lon="8.671957124753789"><ele>209.00000000000003</ele><time>2026-05-01T15:58:14.003Z</time></trkpt><trkpt lat="42.14782071628605" lon="8.67205584325972"><ele>209.0</ele><time>2026-05-01T15:58:15.003Z</time></trkpt><trkpt lat="42.14787362863071" lon="8.672134980295475"><ele>209.0</ele><time>2026-05-01T15:58:16.003Z</time></trkpt><trkpt lat="42.14796116245459" lon="8.672145200483927"><ele>209.0</ele><time>2026-05-01T15:58:17.003Z</time></trkpt><trkpt lat="42.14803871560958" lon="8.67204898595648"><ele>209.00000000000003</ele><time>2026-05-01T15:58:18.003Z</time></trkpt><trkpt lat="42.14809646063732" lon="8.671970065434186"><ele>209.0</ele><time>2026-05-01T15:58:19.003Z</time></trkpt><trkpt lat="42.14815811880823" lon="8.671897137570328"><ele>208.33333333333334</ele><time>2026-05-01T15:58:20.003Z</time></trkpt><trkpt lat="42.148219879247655" lon="8.671825521359668"><ele>207.66666666666669</ele><time>2026-05-01T15:58:21.003Z</time></trkpt><trkpt lat="42.14827268649934" lon="8.671743783936405"><ele>207.0</ele><time>2026-05-01T15:58:22.003Z</time></trkpt><trkpt lat="42.1483064296773" lon="8.671636933807905"><ele>206.33333333333331</ele><time>2026-05-01T15:58:23.003Z</time></trkpt><trkpt lat="42.148313818134206" lon="8.671512382152146"><ele>205.66666666666666</ele><time>2026-05-01T15:58:24.003Z</time></trkpt><trkpt lat="42.14831074343484" lon="8.671389071925367"><ele>205.0</ele><time>2026-05-01T15:58:25.003Z</time></trkpt><trkpt lat="42.1483224938293" lon="8.671279281682231"><ele>205.0</ele><time>2026-05-01T15:58:26.003Z</time></trkpt><trkpt lat="42.14835647656577" lon="8.67119571772115"><ele>205.0</ele><time>2026-05-01T15:58:27.003Z</time></trkpt><trkpt lat="42.1484241935648" lon="8.671134459550455"><ele>205.0</ele><time>2026-05-01T15:58:28.003Z</time></trkpt><trkpt lat="42.14855489943452" lon="8.671194147679186"><ele>205.0</ele><time>2026-05-01T15:58:29.998Z</time></trkpt><trkpt lat="42.14864282943265" lon="8.67120207768046"><ele>205.0</ele><time>2026-05-01T15:58:30.998Z</time></trkpt><trkpt lat="42.14872553418446" lon="8.671235977270472"><ele>205.0</ele><time>2026-05-01T15:58:31.998Z</time></trkpt><trkpt lat="42.14882016899827" lon="8.671214272888255"><ele>205.0</ele><time>2026-05-01T15:58:32.998Z</time></trkpt><trkpt lat="42.14890707104881" lon="8.671178251205037"><ele>205.0</ele><time>2026-05-01T15:58:33.999Z</time></trkpt><trkpt lat="42.14897892865555" lon="8.67109686856415"><ele>205.0</ele><time>2026-05-01T15:58:34.999Z</time></trkpt><trkpt lat="42.149035514797085" lon="8.670996140602998"><ele>205.0</ele><time>2026-05-01T15:58:35.999Z</time></trkpt><trkpt lat="42.149095521890516" lon="8.670918036023199"><ele>206.16666666666666</ele><time>2026-05-01T15:58:36.999Z</time></trkpt><trkpt lat="42.14916451014811" lon="8.67088856961294"><ele>207.33333333333331</ele><time>2026-05-01T15:58:37.999Z</time></trkpt><trkpt lat="42.14923095929119" lon="8.670920829797378"><ele>208.5</ele><time>2026-05-01T15:58:38.999Z</time></trkpt><trkpt lat="42.14926445677806" lon="8.671027089409623"><ele>209.66666666666669</ele><time>2026-05-01T15:58:39.999Z</time></trkpt><trkpt lat="42.14928607138908" lon="8.67113084840142"><ele>210.83333333333334</ele><time>2026-05-01T15:58:40.999Z</time></trkpt><trkpt lat="42.1493354120304" lon="8.671229084776996"><ele>212.0</ele><time>2026-05-01T15:58:41.999Z</time></trkpt><trkpt lat="42.14938451694487" lon="8.671334011267106"><ele>208.2</ele><time>2026-05-01T15:58:42.999Z</time></trkpt><trkpt lat="42.149440853605256" lon="8.671448832730967"><ele>204.39999999999998</ele><time>2026-05-01T15:58:43.999Z</time></trkpt><trkpt lat="42.149493193815296" lon="8.671564874945346"><ele>200.60000000000002</ele><time>2026-05-01T15:58:44.999Z</time></trkpt><trkpt lat="42.149545433402736" lon="8.671691854520361"><ele>196.8</ele><time>2026-05-01T15:58:45.999Z</time></trkpt><trkpt lat="42.149606250414045" lon="8.671818166284142"><ele>193.0</ele><time>2026-05-01T15:58:46.999Z</time></trkpt><trkpt lat="42.149667945599" lon="8.671945478618238"><ele>190.8</ele><time>2026-05-01T15:58:47.999Z</time></trkpt><trkpt lat="42.149719934006974" lon="8.672073988439715"><ele>188.60000000000002</ele><time>2026-05-01T15:58:49Z</time></trkpt><trkpt lat="42.14972203746311" lon="8.67220117559122"><ele>186.39999999999998</ele><time>2026-05-01T15:58:50Z</time></trkpt><trkpt lat="42.149696146001936" lon="8.672326811531084"><ele>184.2</ele><time>2026-05-01T15:58:51Z</time></trkpt><trkpt lat="42.14969324524436" lon="8.67244652986289"><ele>182.0</ele><time>2026-05-01T15:58:52Z</time></trkpt><trkpt lat="42.14971887434929" lon="8.672543546633142"><ele>182.0</ele><time>2026-05-01T15:58:53Z</time></trkpt><trkpt lat="42.14974866166275" lon="8.672624059160103"><ele>182.0</ele><time>2026-05-01T15:58:54Z</time></trkpt><trkpt lat="42.14984257017649" lon="8.67262791453592"><ele>182.0</ele><time>2026-05-01T15:58:55Z</time></trkpt><trkpt lat="42.149911667672086" lon="8.67263190592974"><ele>182.0</ele><time>2026-05-01T15:58:56Z</time></trkpt><trkpt lat="42.14996751105927" lon="8.672769840266664"><ele>182.0</ele><time>2026-05-01T15:58:58Z</time></trkpt><trkpt lat="42.14991235279859" lon="8.67287578653985"><ele>182.0</ele><time>2026-05-01T15:58:59Z</time></trkpt><trkpt lat="42.149893675662476" lon="8.672990752492415"><ele>183.0</ele><time>2026-05-01T15:59:00Z</time></trkpt><trkpt lat="42.14988794138961" lon="8.67309178893816"><ele>184.0</ele><time>2026-05-01T15:59:01Z</time></trkpt><trkpt lat="42.1499400984748" lon="8.673194685760272"><ele>185.0</ele><time>2026-05-01T15:59:02Z</time></trkpt><trkpt lat="42.15001557156639" lon="8.673282757008952"><ele>186.0</ele><time>2026-05-01T15:59:03Z</time></trkpt><trkpt lat="42.15008851963827" lon="8.67337758449776"><ele>187.0</ele><time>2026-05-01T15:59:04Z</time></trkpt><trkpt lat="42.15010679655232" lon="8.673519872345596"><ele>184.0</ele><time>2026-05-01T15:59:05Z</time></trkpt><trkpt lat="42.15012210678198" lon="8.673671755581736"><ele>181.0</ele><time>2026-05-01T15:59:06Z</time></trkpt><trkpt lat="42.150136892544694" lon="8.673829379581502"><ele>178.0</ele><time>2026-05-01T15:59:07.001Z</time></trkpt><trkpt lat="42.15014637036897" lon="8.673996696904368"><ele>175.0</ele><time>2026-05-01T15:59:08.001Z</time></trkpt><trkpt lat="42.15018210295104" lon="8.67415844082258"><ele>175.0</ele><time>2026-05-01T15:59:09.001Z</time></trkpt><trkpt lat="42.15016735951474" lon="8.67430298182399"><ele>175.0</ele><time>2026-05-01T15:59:10.001Z</time></trkpt><trkpt lat="42.15016342406623" lon="8.674442750423356"><ele>175.0</ele><time>2026-05-01T15:59:11.001Z</time></trkpt><trkpt lat="42.150157163985845" lon="8.674581813129551"><ele>175.0</ele><time>2026-05-01T15:59:12.001Z</time></trkpt><trkpt lat="42.150147239771684" lon="8.674713338652774"><ele>175.0</ele><time>2026-05-01T15:59:13.001Z</time></trkpt><trkpt lat="42.150134864441036" lon="8.674841370566856"><ele>173.5</ele><time>2026-05-01T15:59:14.001Z</time></trkpt><trkpt lat="42.150130868046915" lon="8.674961166158734"><ele>172.0</ele><time>2026-05-01T15:59:15.001Z</time></trkpt><trkpt lat="42.15013390331599" lon="8.675077770778117"><ele>170.5</ele><time>2026-05-01T15:59:16.001Z</time></trkpt><trkpt lat="42.1501500159986" lon="8.675188018010113"><ele>169.0</ele><time>2026-05-01T15:59:17.001Z</time></trkpt><trkpt lat="42.150188836493946" lon="8.675286359274027"><ele>167.5</ele><time>2026-05-01T15:59:18.001Z</time></trkpt><trkpt lat="42.15024066723438" lon="8.67537497855338"><ele>166.0</ele><time>2026-05-01T15:59:19.001Z</time></trkpt><trkpt lat="42.15027166815981" lon="8.675490222258238"><ele>164.20000000000002</ele><time>2026-05-01T15:59:20.001Z</time></trkpt><trkpt lat="42.150239517088636" lon="8.675640736763503"><ele>162.4</ele><time>2026-05-01T15:59:21.001Z</time></trkpt><trkpt lat="42.15022091399391" lon="8.675788091208256"><ele>160.6</ele><time>2026-05-01T15:59:22.001Z</time></trkpt><trkpt lat="42.15022046899032" lon="8.675920743716103"><ele>158.8</ele><time>2026-05-01T15:59:23.001Z</time></trkpt><trkpt lat="42.15022432919232" lon="8.676031878719632"><ele>157.0</ele><time>2026-05-01T15:59:24.001Z</time></trkpt><trkpt lat="42.15027590096938" lon="8.676116101186672"><ele>157.0</ele><time>2026-05-01T15:59:25.001Z</time></trkpt><trkpt lat="42.150380701755445" lon="8.676121686043702"><ele>157.0</ele><time>2026-05-01T15:59:26.001Z</time></trkpt><trkpt lat="42.150462502859966" lon="8.676116998815319"><ele>157.0</ele><time>2026-05-01T15:59:27.001Z</time></trkpt><trkpt lat="42.15054475327019" lon="8.676076499355876"><ele>157.0</ele><time>2026-05-01T15:59:28.001Z</time></trkpt><trkpt lat="42.150616348673935" lon="8.67599830735147"><ele>157.0</ele><time>2026-05-01T15:59:29.001Z</time></trkpt><trkpt lat="42.15068608574353" lon="8.675890669739657"><ele>158.6</ele><time>2026-05-01T15:59:30.001Z</time></trkpt><trkpt lat="42.15073285330375" lon="8.6757601780643"><ele>160.2</ele><time>2026-05-01T15:59:31.001Z</time></trkpt><trkpt lat="42.1508089770232" lon="8.675639569992466"><ele>161.8</ele><time>2026-05-01T15:59:32.001Z</time></trkpt><trkpt lat="42.15087323439796" lon="8.675533669200695"><ele>163.4</ele><time>2026-05-01T15:59:33.001Z</time></trkpt><trkpt lat="42.15094936044541" lon="8.675493344059733"><ele>165.0</ele><time>2026-05-01T15:59:34.001Z</time></trkpt><trkpt lat="42.15101954917406" lon="8.675512988093645"><ele>165.0</ele><time>2026-05-01T15:59:35.002Z</time></trkpt><trkpt lat="42.1510485474693" lon="8.675610071103904"><ele>165.0</ele><time>2026-05-01T15:59:36.002Z</time></trkpt><trkpt lat="42.1511038690323" lon="8.675751518565944"><ele>165.0</ele><time>2026-05-01T15:59:38.002Z</time></trkpt><trkpt lat="42.151135004696215" lon="8.675834641437419"><ele>165.0</ele><time>2026-05-01T15:59:39.002Z</time></trkpt><trkpt lat="42.15114913401979" lon="8.675940843361786"><ele>165.0</ele><time>2026-05-01T15:59:40.002Z</time></trkpt><trkpt lat="42.151171160690154" lon="8.676044513089513"><ele>165.0</ele><time>2026-05-01T15:59:41.002Z</time></trkpt><trkpt lat="42.151195626255706" lon="8.676156572994701"><ele>162.83333333333334</ele><time>2026-05-01T15:59:42.002Z</time></trkpt><trkpt lat="42.15121623898572" lon="8.67627226359242"><ele>160.66666666666666</ele><time>2026-05-01T15:59:43.002Z</time></trkpt><trkpt lat="42.15125511073717" lon="8.67638280372523"><ele>158.5</ele><time>2026-05-01T15:59:44.002Z</time></trkpt><trkpt lat="42.151312117906144" lon="8.676448434309677"><ele>156.33333333333331</ele><time>2026-05-01T15:59:45.002Z</time></trkpt><trkpt lat="42.15137335932461" lon="8.676523556826197"><ele>154.16666666666666</ele><time>2026-05-01T15:59:46.002Z</time></trkpt><trkpt lat="42.15143104399224" lon="8.676631928018319"><ele>152.0</ele><time>2026-05-01T15:59:47.002Z</time></trkpt><trkpt lat="42.15150448297328" lon="8.676728949839047"><ele>153.33333333333331</ele><time>2026-05-01T15:59:48.002Z</time></trkpt><trkpt lat="42.15158089032807" lon="8.676801546952085"><ele>154.66666666666666</ele><time>2026-05-01T15:59:49.002Z</time></trkpt><trkpt lat="42.151652362643105" lon="8.676849406111828"><ele>156.0</ele><time>2026-05-01T15:59:50.002Z</time></trkpt><trkpt lat="42.15174668026036" lon="8.676808345803687"><ele>157.33333333333334</ele><time>2026-05-01T15:59:51.002Z</time></trkpt><trkpt lat="42.1518282183861" lon="8.676835950410352"><ele>158.66666666666669</ele><time>2026-05-01T15:59:52.002Z</time></trkpt><trkpt lat="42.15190862168665" lon="8.676871737927968"><ele>160.0</ele><time>2026-05-01T15:59:53.002Z</time></trkpt><trkpt lat="42.151978766002046" lon="8.676923317102693"><ele>157.4</ele><time>2026-05-01T15:59:54.002Z</time></trkpt><trkpt lat="42.15203027501741" lon="8.677015283442893"><ele>154.8</ele><time>2026-05-01T15:59:55.002Z</time></trkpt><trkpt lat="42.15209270445638" lon="8.677125749322387"><ele>152.2</ele><time>2026-05-01T15:59:56.002Z</time></trkpt><trkpt lat="42.15214894329307" lon="8.677246477780686"><ele>149.6</ele><time>2026-05-01T15:59:57.002Z</time></trkpt><trkpt lat="42.15219796684656" lon="8.67736550101659"><ele>147.0</ele><time>2026-05-01T15:59:58.002Z</time></trkpt><trkpt lat="42.152223757337175" lon="8.677489382811164"><ele>147.0</ele><time>2026-05-01T15:59:59.002Z</time></trkpt><trkpt lat="42.1522301289574" lon="8.677614375678285"><ele>147.0</ele><time>2026-05-01T16:00:00.002Z</time></trkpt><trkpt lat="42.15225694936005" lon="8.677725595912301"><ele>147.0</ele><time>2026-05-01T16:00:01.002Z</time></trkpt><trkpt lat="42.15232155010293" lon="8.6778224454309"><ele>147.0</ele><time>2026-05-01T16:00:02.002Z</time></trkpt><trkpt lat="42.15242363488758" lon="8.677886616477904"><ele>147.0</ele><time>2026-05-01T16:00:03.002Z</time></trkpt><trkpt lat="42.15249283778456" lon="8.677993073883465"><ele>148.5</ele><time>2026-05-01T16:00:04.002Z</time></trkpt><trkpt lat="42.1525660674969" lon="8.678092876853583"><ele>150.0</ele><time>2026-05-01T16:00:05.002Z</time></trkpt><trkpt lat="42.15264892892061" lon="8.678174491424889"><ele>151.5</ele><time>2026-05-01T16:00:06.002Z</time></trkpt><trkpt lat="42.15270983196046" lon="8.678252965217123"><ele>153.0</ele><time>2026-05-01T16:00:07.002Z</time></trkpt><trkpt lat="42.15273824832755" lon="8.67834674719879"><ele>154.5</ele><time>2026-05-01T16:00:08.003Z</time></trkpt><trkpt lat="42.15272777470535" lon="8.678442164618541"><ele>156.0</ele><time>2026-05-01T16:00:09.003Z</time></trkpt><trkpt lat="42.15270227354958" lon="8.678535801001566"><ele>154.66666666666666</ele><time>2026-05-01T16:00:10.003Z</time></trkpt><trkpt lat="42.152663392704504" lon="8.678639800707908"><ele>153.33333333333334</ele><time>2026-05-01T16:00:11.003Z</time></trkpt><trkpt lat="42.1526228382477" lon="8.678739721443566"><ele>152.0</ele><time>2026-05-01T16:00:12.003Z</time></trkpt><trkpt lat="42.15257197191011" lon="8.678843235754929"><ele>150.66666666666669</ele><time>2026-05-01T16:00:13.003Z</time></trkpt><trkpt lat="42.15250656009743" lon="8.678928415418888"><ele>149.33333333333334</ele><time>2026-05-01T16:00:14.003Z</time></trkpt><trkpt lat="42.152461731675565" lon="8.679028305046636"><ele>148.0</ele><time>2026-05-01T16:00:15.003Z</time></trkpt><trkpt lat="42.15243404814263" lon="8.679137547745773"><ele>148.0</ele><time>2026-05-01T16:00:16.003Z</time></trkpt><trkpt lat="42.15247116776533" lon="8.679276213989267"><ele>148.0</ele><time>2026-05-01T16:00:17.003Z</time></trkpt><trkpt lat="42.15251718686636" lon="8.679398527076238"><ele>148.0</ele><time>2026-05-01T16:00:18.003Z</time></trkpt><trkpt lat="42.15257351044167" lon="8.679511646636039"><ele>148.0</ele><time>2026-05-01T16:00:19.003Z</time></trkpt><trkpt lat="42.15263730008769" lon="8.679626129141965"><ele>148.0</ele><time>2026-05-01T16:00:20.003Z</time></trkpt><trkpt lat="42.152670435809895" lon="8.679737476771502"><ele>146.66666666666669</ele><time>2026-05-01T16:00:21.003Z</time></trkpt><trkpt lat="42.15265520462537" lon="8.679837064452103"><ele>145.33333333333334</ele><time>2026-05-01T16:00:22.003Z</time></trkpt><trkpt lat="42.15259298685334" lon="8.679897331185465"><ele>144.0</ele><time>2026-05-01T16:00:23.003Z</time></trkpt><trkpt lat="42.15250762803852" lon="8.679909107711392"><ele>142.66666666666666</ele><time>2026-05-01T16:00:24.003Z</time></trkpt><trkpt lat="42.15241866157164" lon="8.679880471221347"><ele>141.33333333333331</ele><time>2026-05-01T16:00:25.003Z</time></trkpt><trkpt lat="42.15232506162729" lon="8.679860107851319"><ele>140.0</ele><time>2026-05-01T16:00:26.003Z</time></trkpt><trkpt lat="42.15222505428536" lon="8.679854788906427"><ele>138.0</ele><time>2026-05-01T16:00:27.003Z</time></trkpt><trkpt lat="42.1521522293285" lon="8.679848485251753"><ele>136.0</ele><time>2026-05-01T16:00:28.003Z</time></trkpt><trkpt lat="42.15208635709089" lon="8.679845725196568"><ele>134.0</ele><time>2026-05-01T16:00:29.003Z</time></trkpt><trkpt lat="42.15201408272342" lon="8.679844504860483"><ele>132.0</ele><time>2026-05-01T16:00:30.003Z</time></trkpt><trkpt lat="42.151939823770675" lon="8.679835343520672"><ele>130.0</ele><time>2026-05-01T16:00:31.003Z</time></trkpt><trkpt lat="42.151860145706216" lon="8.679798677656395"><ele>128.0</ele><time>2026-05-01T16:00:32.003Z</time></trkpt><trkpt lat="42.151792712293975" lon="8.679748638689567"><ele>126.0</ele><time>2026-05-01T16:00:33.003Z</time></trkpt><trkpt lat="42.15173597822549" lon="8.679690005612152"><ele>126.0</ele><time>2026-05-01T16:00:34.003Z</time></trkpt><trkpt lat="42.15168940309775" lon="8.679615094792176"><ele>126.0</ele><time>2026-05-01T16:00:35.003Z</time></trkpt><trkpt lat="42.15166151739666" lon="8.679527177073092"><ele>126.0</ele><time>2026-05-01T16:00:35.999Z</time></trkpt><trkpt lat="42.151649127749494" lon="8.679423903298625"><ele>126.0</ele><time>2026-05-01T16:00:36.999Z</time></trkpt><trkpt lat="42.15161804486595" lon="8.679340086347068"><ele>126.0</ele><time>2026-05-01T16:00:37.999Z</time></trkpt><trkpt lat="42.15157416085309" lon="8.679264132884521"><ele>126.0</ele><time>2026-05-01T16:00:38.999Z</time></trkpt><trkpt lat="42.15151237285539" lon="8.679220500421557"><ele>126.0</ele><time>2026-05-01T16:00:39.999Z</time></trkpt><trkpt lat="42.15144433218938" lon="8.679208651546443"><ele>126.57142857142857</ele><time>2026-05-01T16:00:40.999Z</time></trkpt><trkpt lat="42.151372728966706" lon="8.679238331768069"><ele>127.14285714285714</ele><time>2026-05-01T16:00:41.999Z</time></trkpt><trkpt lat="42.15131085696263" lon="8.679275706229795"><ele>127.71428571428572</ele><time>2026-05-01T16:00:42.999Z</time></trkpt><trkpt lat="42.151248818006934" lon="8.679318221414208"><ele>128.28571428571428</ele><time>2026-05-01T16:00:43.999Z</time></trkpt><trkpt lat="42.15118211905199" lon="8.679347077142628"><ele>128.85714285714286</ele><time>2026-05-01T16:00:44.999Z</time></trkpt><trkpt lat="42.15111124562775" lon="8.679381094930182"><ele>129.42857142857144</ele><time>2026-05-01T16:00:45.999Z</time></trkpt><trkpt lat="42.151037732215954" lon="8.679422234874542"><ele>130.0</ele><time>2026-05-01T16:00:46.999Z</time></trkpt><trkpt lat="42.15096023268261" lon="8.679479688166433"><ele>127.50000000000001</ele><time>2026-05-01T16:00:47.999Z</time></trkpt><trkpt lat="42.15089590939969" lon="8.679547349295893"><ele>125.0</ele><time>2026-05-01T16:00:48.999Z</time></trkpt><trkpt lat="42.15083867544374" lon="8.679610427293307"><ele>122.5</ele><time>2026-05-01T16:00:49.999Z</time></trkpt><trkpt lat="42.15078098101813" lon="8.679651045864283"><ele>120.0</ele><time>2026-05-01T16:00:51Z</time></trkpt><trkpt lat="42.150673164016006" lon="8.679670222270737"><ele>117.50000000000001</ele><time>2026-05-01T16:00:53Z</time></trkpt><trkpt lat="42.15056675088393" lon="8.67959749554017"><ele>115.0</ele><time>2026-05-01T16:00:55Z</time></trkpt><trkpt lat="42.150506350552874" lon="8.679559162113378"><ele>114.83333333333334</ele><time>2026-05-01T16:00:56Z</time></trkpt><trkpt lat="42.15043972472288" lon="8.679512699664041"><ele>114.66666666666667</ele><time>2026-05-01T16:00:57Z</time></trkpt><trkpt lat="42.150366840179636" lon="8.679469978400533"><ele>114.5</ele><time>2026-05-01T16:00:58Z</time></trkpt><trkpt lat="42.15029683235179" lon="8.679433340476454"><ele>114.33333333333334</ele><time>2026-05-01T16:00:59Z</time></trkpt><trkpt lat="42.150227227840055" lon="8.679387982226471"><ele>114.16666666666667</ele><time>2026-05-01T16:01:00Z</time></trkpt><trkpt lat="42.15016566549976" lon="8.679325939667502"><ele>114.0</ele><time>2026-05-01T16:01:01Z</time></trkpt><trkpt lat="42.15012566538617" lon="8.679246304682671"><ele>114.0</ele><time>2026-05-01T16:01:02Z</time></trkpt><trkpt lat="42.15011003920581" lon="8.679152310415663"><ele>113.99999999999999</ele><time>2026-05-01T16:01:03Z</time></trkpt><trkpt lat="42.150116870447775" lon="8.679051737400327"><ele>114.0</ele><time>2026-05-01T16:01:04Z</time></trkpt><trkpt lat="42.15009194216326" lon="8.678971191179702"><ele>114.0</ele><time>2026-05-01T16:01:05Z</time></trkpt><trkpt lat="42.15003484142775" lon="8.678915164691725"><ele>113.99999999999999</ele><time>2026-05-01T16:01:06Z</time></trkpt><trkpt lat="42.149962275179455" lon="8.678904819265163"><ele>114.0</ele><time>2026-05-01T16:01:07Z</time></trkpt><trkpt lat="42.149888569412305" lon="8.67891587940479"><ele>114.0</ele><time>2026-05-01T16:01:08Z</time></trkpt><trkpt lat="42.149809786119384" lon="8.67891682959854"><ele>111.66666666666667</ele><time>2026-05-01T16:01:09Z</time></trkpt><trkpt lat="42.14973741319328" lon="8.678937450025268"><ele>109.33333333333334</ele><time>2026-05-01T16:01:10Z</time></trkpt><trkpt lat="42.149658146122206" lon="8.67893423624829"><ele>107.0</ele><time>2026-05-01T16:01:11.001Z</time></trkpt><trkpt lat="42.14957824327833" lon="8.678916807323139"><ele>104.66666666666667</ele><time>2026-05-01T16:01:12.001Z</time></trkpt><trkpt lat="42.14948884678535" lon="8.678877446189574"><ele>102.33333333333334</ele><time>2026-05-01T16:01:13.001Z</time></trkpt><trkpt lat="42.14940191376166" lon="8.678831109560955"><ele>100.0</ele><time>2026-05-01T16:01:14.001Z</time></trkpt><trkpt lat="42.14931206316668" lon="8.678786717035855"><ele>100.00000000000001</ele><time>2026-05-01T16:01:15.001Z</time></trkpt><trkpt lat="42.14922245996178" lon="8.67874817054815"><ele>100.0</ele><time>2026-05-01T16:01:16.001Z</time></trkpt><trkpt lat="42.149135714829185" lon="8.678739898875763"><ele>100.0</ele><time>2026-05-01T16:01:17.001Z</time></trkpt><trkpt lat="42.14905828117908" lon="8.67876119336983"><ele>100.0</ele><time>2026-05-01T16:01:18.001Z</time></trkpt><trkpt lat="42.14899232703669" lon="8.678832986537918"><ele>100.00000000000001</ele><time>2026-05-01T16:01:19.001Z</time></trkpt><trkpt lat="42.1489434244148" lon="8.67893080507317"><ele>100.0</ele><time>2026-05-01T16:01:20.001Z</time></trkpt><trkpt lat="42.14890878384284" lon="8.679020366023066"><ele>100.16666666666667</ele><time>2026-05-01T16:01:21.001Z</time></trkpt><trkpt lat="42.14887495549501" lon="8.67912217595191"><ele>100.33333333333334</ele><time>2026-05-01T16:01:22.001Z</time></trkpt><trkpt lat="42.1488512074634" lon="8.679223439511274"><ele>100.5</ele><time>2026-05-01T16:01:23.001Z</time></trkpt><trkpt lat="42.1488376316776" lon="8.679331948616854"><ele>100.66666666666666</ele><time>2026-05-01T16:01:24.001Z</time></trkpt><trkpt lat="42.14884652611218" lon="8.679436255922363"><ele>100.83333333333333</ele><time>2026-05-01T16:01:25.001Z</time></trkpt><trkpt lat="42.14887912028121" lon="8.679537103784629"><ele>101.0</ele><time>2026-05-01T16:01:26.001Z</time></trkpt><trkpt lat="42.148924554858354" lon="8.679646525425987"><ele>101.0</ele><time>2026-05-01T16:01:27.001Z</time></trkpt><trkpt lat="42.148959136683565" lon="8.679756531259688"><ele>101.0</ele><time>2026-05-01T16:01:28.001Z</time></trkpt><trkpt lat="42.14898423281323" lon="8.679850795882407"><ele>101.0</ele><time>2026-05-01T16:01:29.001Z</time></trkpt><trkpt lat="42.148927316866185" lon="8.679986597294532"><ele>101.0</ele><time>2026-05-01T16:01:31.001Z</time></trkpt><trkpt lat="42.14879001493142" lon="8.679955346259703"><ele>101.0</ele><time>2026-05-01T16:01:33.001Z</time></trkpt><trkpt lat="42.14871666289742" lon="8.679949500943692"><ele>101.0</ele><time>2026-05-01T16:01:34.001Z</time></trkpt><trkpt lat="42.14864131922411" lon="8.67999329244497"><ele>101.0</ele><time>2026-05-01T16:01:35.001Z</time></trkpt><trkpt lat="42.1485717888227" lon="8.680070831141895"><ele>101.0</ele><time>2026-05-01T16:01:36.001Z</time></trkpt><trkpt lat="42.148498159407026" lon="8.680157216221263"><ele>101.0</ele><time>2026-05-01T16:01:37.001Z</time></trkpt><trkpt lat="42.14842673413731" lon="8.680255829723407"><ele>101.0</ele><time>2026-05-01T16:01:38.001Z</time></trkpt><trkpt lat="42.14835540881607" lon="8.680343349093572"><ele>103.33333333333333</ele><time>2026-05-01T16:01:39.001Z</time></trkpt><trkpt lat="42.14828076573526" lon="8.680409844175543"><ele>105.66666666666666</ele><time>2026-05-01T16:01:40.002Z</time></trkpt><trkpt lat="42.1482081770869" lon="8.680471459216335"><ele>108.0</ele><time>2026-05-01T16:01:41.002Z</time></trkpt><trkpt lat="42.14813462346361" lon="8.680493559425617"><ele>110.33333333333334</ele><time>2026-05-01T16:01:42.002Z</time></trkpt><trkpt lat="42.148043422011895" lon="8.68051246134722"><ele>112.66666666666667</ele><time>2026-05-01T16:01:43.002Z</time></trkpt><trkpt lat="42.147953391091036" lon="8.68052291086221"><ele>115.0</ele><time>2026-05-01T16:01:44.002Z</time></trkpt><trkpt lat="42.147870592034884" lon="8.680532426593885"><ele>115.00000000000001</ele><time>2026-05-01T16:01:45.002Z</time></trkpt><trkpt lat="42.14779314509817" lon="8.680530404743754"><ele>115.0</ele><time>2026-05-01T16:01:46.002Z</time></trkpt><trkpt lat="42.14772138068473" lon="8.680511133409215"><ele>115.0</ele><time>2026-05-01T16:01:47.002Z</time></trkpt><trkpt lat="42.147642080478775" lon="8.680497129486167"><ele>115.0</ele><time>2026-05-01T16:01:48.002Z</time></trkpt><trkpt lat="42.147562894421206" lon="8.680524154351092"><ele>115.00000000000001</ele><time>2026-05-01T16:01:49.002Z</time></trkpt><trkpt lat="42.14749166469113" lon="8.680584165762241"><ele>115.0</ele><time>2026-05-01T16:01:50.002Z</time></trkpt><trkpt lat="42.14742666483755" lon="8.680651452436075"><ele>115.0</ele><time>2026-05-01T16:01:51.002Z</time></trkpt><trkpt lat="42.14734293521301" lon="8.680698213914852"><ele>115.0</ele><time>2026-05-01T16:01:52.002Z</time></trkpt><trkpt lat="42.14725330863583" lon="8.68071871723072"><ele>115.0</ele><time>2026-05-01T16:01:53.002Z</time></trkpt><trkpt lat="42.14716968369659" lon="8.680743000726741"><ele>115.0</ele><time>2026-05-01T16:01:54.002Z</time></trkpt><trkpt lat="42.147080081941866" lon="8.680797784016821"><ele>115.0</ele><time>2026-05-01T16:01:55.002Z</time></trkpt><trkpt lat="42.14698871915882" lon="8.680862042394223"><ele>115.0</ele><time>2026-05-01T16:01:56.002Z</time></trkpt><trkpt lat="42.14690229622776" lon="8.680922622532208"><ele>115.0</ele><time>2026-05-01T16:01:57.002Z</time></trkpt><trkpt lat="42.146810343761366" lon="8.68096478981934"><ele>115.0</ele><time>2026-05-01T16:01:58.002Z</time></trkpt><trkpt lat="42.146731854569985" lon="8.680972734605282"><ele>115.0</ele><time>2026-05-01T16:01:59.002Z</time></trkpt><trkpt lat="42.14664622953625" lon="8.680922692321253"><ele>115.0</ele><time>2026-05-01T16:02:00.002Z</time></trkpt><trkpt lat="42.146565350922565" lon="8.680858979544267"><ele>117.83333333333334</ele><time>2026-05-01T16:02:01.002Z</time></trkpt><trkpt lat="42.14647996869404" lon="8.680803778211567"><ele>120.66666666666667</ele><time>2026-05-01T16:02:02.002Z</time></trkpt><trkpt lat="42.146394164166075" lon="8.680761138189833"><ele>123.5</ele><time>2026-05-01T16:02:03.002Z</time></trkpt><trkpt lat="42.1463069421957" lon="8.680724306204075"><ele>126.33333333333334</ele><time>2026-05-01T16:02:04.002Z</time></trkpt><trkpt lat="42.14622595586913" lon="8.680691414167757"><ele>129.16666666666666</ele><time>2026-05-01T16:02:05.002Z</time></trkpt><trkpt lat="42.1461494830561" lon="8.680652501722586"><ele>132.0</ele><time>2026-05-01T16:02:06.002Z</time></trkpt><trkpt lat="42.14607611947769" lon="8.680600001229102"><ele>132.0</ele><time>2026-05-01T16:02:07.002Z</time></trkpt><trkpt lat="42.14600574953877" lon="8.680551724439432"><ele>132.0</ele><time>2026-05-01T16:02:08.002Z</time></trkpt><trkpt lat="42.14594339359575" lon="8.680493917727837"><ele>132.0</ele><time>2026-05-01T16:02:09.002Z</time></trkpt><trkpt lat="42.14590553124238" lon="8.680420817075781"><ele>132.0</ele><time>2026-05-01T16:02:10.002Z</time></trkpt><trkpt lat="42.145893073041364" lon="8.680326952164068"><ele>132.0</ele><time>2026-05-01T16:02:11.002Z</time></trkpt><trkpt lat="42.14589895119864" lon="8.680217598007582"><ele>132.0</ele><time>2026-05-01T16:02:12.003Z</time></trkpt><trkpt lat="42.14590352029164" lon="8.680107068957277"><ele>130.83333333333334</ele><time>2026-05-01T16:02:13.003Z</time></trkpt><trkpt lat="42.14589815151102" lon="8.679991185481933"><ele>129.66666666666666</ele><time>2026-05-01T16:02:14.003Z</time></trkpt><trkpt lat="42.1458936860917" lon="8.67986796235056"><ele>128.5</ele><time>2026-05-01T16:02:15.003Z</time></trkpt><trkpt lat="42.145890721393926" lon="8.679750196232416"><ele>127.33333333333333</ele><time>2026-05-01T16:02:16.003Z</time></trkpt><trkpt lat="42.14588571416482" lon="8.679632382676083"><ele>126.16666666666666</ele><time>2026-05-01T16:02:17.003Z</time></trkpt><trkpt lat="42.145869827686326" lon="8.679528717037591"><ele>125.0</ele><time>2026-05-01T16:02:18.003Z</time></trkpt><trkpt lat="42.14583407012776" lon="8.679440174445121"><ele>125.33333333333333</ele><time>2026-05-01T16:02:19.003Z</time></trkpt><trkpt lat="42.14577562080757" lon="8.679380106036174"><ele>125.66666666666666</ele><time>2026-05-01T16:02:20.003Z</time></trkpt><trkpt lat="42.14569501494972" lon="8.6793537776909"><ele>126.0</ele><time>2026-05-01T16:02:21.003Z</time></trkpt><trkpt lat="42.145606179595816" lon="8.679335082222545"><ele>126.33333333333334</ele><time>2026-05-01T16:02:22.003Z</time></trkpt><trkpt lat="42.14550969254277" lon="8.679313249970413"><ele>126.66666666666667</ele><time>2026-05-01T16:02:23.003Z</time></trkpt><trkpt lat="42.14541850254064" lon="8.679272312246953"><ele>127.0</ele><time>2026-05-01T16:02:24.003Z</time></trkpt><trkpt lat="42.145324414569195" lon="8.679231810225687"><ele>127.0</ele><time>2026-05-01T16:02:25.003Z</time></trkpt><trkpt lat="42.145226595070596" lon="8.67919804402229"><ele>126.99999999999999</ele><time>2026-05-01T16:02:26.003Z</time></trkpt><trkpt lat="42.14512177678579" lon="8.679198131211422"><ele>126.99999999999999</ele><time>2026-05-01T16:02:27.003Z</time></trkpt><trkpt lat="42.145022458554415" lon="8.679223574424828"><ele>127.0</ele><time>2026-05-01T16:02:28.003Z</time></trkpt><trkpt lat="42.14492475792921" lon="8.679275870183291"><ele>127.0</ele><time>2026-05-01T16:02:29.003Z</time></trkpt><trkpt lat="42.14483051761909" lon="8.67935099816233"><ele>127.19999999999999</ele><time>2026-05-01T16:02:30.003Z</time></trkpt><trkpt lat="42.144747549446464" lon="8.679446309128393"><ele>127.39999999999999</ele><time>2026-05-01T16:02:31.003Z</time></trkpt><trkpt lat="42.14467794893716" lon="8.679559333757135"><ele>127.60000000000001</ele><time>2026-05-01T16:02:32.003Z</time></trkpt><trkpt lat="42.144618291604985" lon="8.67968726384715"><ele>127.80000000000001</ele><time>2026-05-01T16:02:33.003Z</time></trkpt><trkpt lat="42.14455806429988" lon="8.679809000924028"><ele>128.0</ele><time>2026-05-01T16:02:34.003Z</time></trkpt><trkpt lat="42.14449168161658" lon="8.679932390172054"><ele>128.0</ele><time>2026-05-01T16:02:35.003Z</time></trkpt><trkpt lat="42.144423726460325" lon="8.680052471047823"><ele>128.0</ele><time>2026-05-01T16:02:36.003Z</time></trkpt><trkpt lat="42.14435404602714" lon="8.680173392795647"><ele>128.0</ele><time>2026-05-01T16:02:37.003Z</time></trkpt><trkpt lat="42.14428732823776" lon="8.680297543394797"><ele>128.0</ele><time>2026-05-01T16:02:38.003Z</time></trkpt><trkpt lat="42.14422447275666" lon="8.68041509560497"><ele>128.0</ele><time>2026-05-01T16:02:39.003Z</time></trkpt><trkpt lat="42.14416722992457" lon="8.680522582867756"><ele>127.80000000000001</ele><time>2026-05-01T16:02:40.003Z</time></trkpt><trkpt lat="42.14411010020573" lon="8.68062447570227"><ele>127.60000000000001</ele><time>2026-05-01T16:02:41.003Z</time></trkpt><trkpt lat="42.144045881598075" lon="8.680718750070046"><ele>127.39999999999999</ele><time>2026-05-01T16:02:41.998Z</time></trkpt><trkpt lat="42.143976776585085" lon="8.68082076359521"><ele>127.19999999999999</ele><time>2026-05-01T16:02:42.998Z</time></trkpt><trkpt lat="42.14390576361859" lon="8.680926395582457"><ele>127.0</ele><time>2026-05-01T16:02:43.998Z</time></trkpt><trkpt lat="42.143833539501124" lon="8.681028692072942"><ele>132.0</ele><time>2026-05-01T16:02:44.998Z</time></trkpt><trkpt lat="42.14375804912585" lon="8.681134941425675"><ele>137.0</ele><time>2026-05-01T16:02:45.999Z</time></trkpt><trkpt lat="42.143678955342075" lon="8.681239763559066"><ele>142.0</ele><time>2026-05-01T16:02:46.999Z</time></trkpt><trkpt lat="42.143596825936015" lon="8.681348939280229"><ele>147.0</ele><time>2026-05-01T16:02:47.999Z</time></trkpt><trkpt lat="42.14350971674971" lon="8.681452943730758"><ele>147.0</ele><time>2026-05-01T16:02:48.999Z</time></trkpt><trkpt lat="42.14342382562312" lon="8.681555292746445"><ele>147.0</ele><time>2026-05-01T16:02:49.999Z</time></trkpt><trkpt lat="42.14334405138021" lon="8.681654592093558"><ele>147.0</ele><time>2026-05-01T16:02:50.999Z</time></trkpt><trkpt lat="42.14328234292049" lon="8.681756336961811"><ele>147.0</ele><time>2026-05-01T16:02:51.999Z</time></trkpt><trkpt lat="42.14326198487569" lon="8.681854354758189"><ele>147.0</ele><time>2026-05-01T16:02:52.999Z</time></trkpt><trkpt lat="42.143288537822826" lon="8.681950980910193"><ele>148.2</ele><time>2026-05-01T16:02:53.999Z</time></trkpt><trkpt lat="42.14334600861734" lon="8.682047244302115"><ele>149.39999999999998</ele><time>2026-05-01T16:02:54.999Z</time></trkpt><trkpt lat="42.14342281114221" lon="8.682151920449341"><ele>150.60000000000002</ele><time>2026-05-01T16:02:55.999Z</time></trkpt><trkpt lat="42.14350809852985" lon="8.682241729913615"><ele>151.8</ele><time>2026-05-01T16:02:56.999Z</time></trkpt><trkpt lat="42.14356235022772" lon="8.682350311394208"><ele>153.0</ele><time>2026-05-01T16:02:57.999Z</time></trkpt><trkpt lat="42.143583186948106" lon="8.682456218023058"><ele>153.0</ele><time>2026-05-01T16:02:58.999Z</time></trkpt><trkpt lat="42.143563824728815" lon="8.68255590003859"><ele>153.0</ele><time>2026-05-01T16:02:59.999Z</time></trkpt><trkpt lat="42.14351676461181" lon="8.682638368365247"><ele>153.0</ele><time>2026-05-01T16:03:00.999Z</time></trkpt><trkpt lat="42.14345557250697" lon="8.682727683742439"><ele>153.0</ele><time>2026-05-01T16:03:02Z</time></trkpt><trkpt lat="42.143388332981786" lon="8.682819717435438"><ele>153.0</ele><time>2026-05-01T16:03:03Z</time></trkpt><trkpt lat="42.1433319565292" lon="8.682940607057597"><ele>153.0</ele><time>2026-05-01T16:03:04Z</time></trkpt><trkpt lat="42.14330665951762" lon="8.683070812926056"><ele>153.16666666666666</ele><time>2026-05-01T16:03:05Z</time></trkpt><trkpt lat="42.14331001955967" lon="8.68320451961303"><ele>153.33333333333334</ele><time>2026-05-01T16:03:06Z</time></trkpt><trkpt lat="42.14333127373854" lon="8.68332639520042"><ele>153.5</ele><time>2026-05-01T16:03:07Z</time></trkpt><trkpt lat="42.14334640981139" lon="8.683430312112602"><ele>153.66666666666669</ele><time>2026-05-01T16:03:08Z</time></trkpt><trkpt lat="42.143327882548945" lon="8.683527581233268"><ele>153.83333333333334</ele><time>2026-05-01T16:03:09Z</time></trkpt><trkpt lat="42.143266104063414" lon="8.683605878870937"><ele>154.0</ele><time>2026-05-01T16:03:10Z</time></trkpt><trkpt lat="42.143179932250746" lon="8.683665212792471"><ele>153.5</ele><time>2026-05-01T16:03:11Z</time></trkpt><trkpt lat="42.143085514078" lon="8.683698528264083"><ele>153.0</ele><time>2026-05-01T16:03:12Z</time></trkpt><trkpt lat="42.14298464253969" lon="8.683706197624124"><ele>152.5</ele><time>2026-05-01T16:03:13Z</time></trkpt><trkpt lat="42.14289546352023" lon="8.68370675071664"><ele>152.0</ele><time>2026-05-01T16:03:14Z</time></trkpt><trkpt lat="42.142821851210776" lon="8.683724336741372"><ele>151.5</ele><time>2026-05-01T16:03:15Z</time></trkpt><trkpt lat="42.14275971858033" lon="8.683755603236627"><ele>151.0</ele><time>2026-05-01T16:03:16Z</time></trkpt><trkpt lat="42.14265772960025" lon="8.683841384139484"><ele>151.00000000000003</ele><time>2026-05-01T16:03:18Z</time></trkpt><trkpt lat="42.14261119095632" lon="8.683902104931562"><ele>151.0</ele><time>2026-05-01T16:03:19Z</time></trkpt><trkpt lat="42.14257689916828" lon="8.68398031691187"><ele>151.0</ele><time>2026-05-01T16:03:20Z</time></trkpt><trkpt lat="42.14255738370215" lon="8.68407323152734"><ele>151.0</ele><time>2026-05-01T16:03:21Z</time></trkpt><trkpt lat="42.14255192776746" lon="8.684164794250666"><ele>151.0</ele><time>2026-05-01T16:03:22.001Z</time></trkpt><trkpt lat="42.1425410396287" lon="8.684260578954408"><ele>151.00000000000003</ele><time>2026-05-01T16:03:23.001Z</time></trkpt><trkpt lat="42.14251841547889" lon="8.684358404782351"><ele>151.0</ele><time>2026-05-01T16:03:24.001Z</time></trkpt><trkpt lat="42.14248165055746" lon="8.684454955319499"><ele>151.5</ele><time>2026-05-01T16:03:25.001Z</time></trkpt><trkpt lat="42.14243075186654" lon="8.684547567202285"><ele>152.0</ele><time>2026-05-01T16:03:26.001Z</time></trkpt><trkpt lat="42.14237313125239" lon="8.684625467197572"><ele>152.5</ele><time>2026-05-01T16:03:27.001Z</time></trkpt><trkpt lat="42.14230332012569" lon="8.68468816117132"><ele>153.0</ele><time>2026-05-01T16:03:28.001Z</time></trkpt><trkpt lat="42.14222710760276" lon="8.684734749623454"><ele>153.5</ele><time>2026-05-01T16:03:29.001Z</time></trkpt><trkpt lat="42.142147477252045" lon="8.684748480861451"><ele>154.0</ele><time>2026-05-01T16:03:30.001Z</time></trkpt><trkpt lat="42.14206926435036" lon="8.684721242906692"><ele>154.0</ele><time>2026-05-01T16:03:31.001Z</time></trkpt><trkpt lat="42.14199726077346" lon="8.684662598780344"><ele>154.0</ele><time>2026-05-01T16:03:32.001Z</time></trkpt><trkpt lat="42.14192203621353" lon="8.684609796343759"><ele>154.0</ele><time>2026-05-01T16:03:33.001Z</time></trkpt><trkpt lat="42.14184223014369" lon="8.684569300262826"><ele>154.0</ele><time>2026-05-01T16:03:34.001Z</time></trkpt><trkpt lat="42.14176124046496" lon="8.684554621098469"><ele>154.0</ele><time>2026-05-01T16:03:35.001Z</time></trkpt><trkpt lat="42.1416869101034" lon="8.684578582163844"><ele>154.0</ele><time>2026-05-01T16:03:36.001Z</time></trkpt><trkpt lat="42.14163236464279" lon="8.684647226374556"><ele>154.0</ele><time>2026-05-01T16:03:37.001Z</time></trkpt><trkpt lat="42.14160278807133" lon="8.684744094438768"><ele>154.0</ele><time>2026-05-01T16:03:38.001Z</time></trkpt><trkpt lat="42.14158863925524" lon="8.684852290598005"><ele>154.0</ele><time>2026-05-01T16:03:39.001Z</time></trkpt><trkpt lat="42.141580130102284" lon="8.684961870037629"><ele>154.0</ele><time>2026-05-01T16:03:40.001Z</time></trkpt><trkpt lat="42.14156599223158" lon="8.685077113911206"><ele>154.0</ele><time>2026-05-01T16:03:41.001Z</time></trkpt><trkpt lat="42.1415469227485" lon="8.685192336842116"><ele>154.0</ele><time>2026-05-01T16:03:42.001Z</time></trkpt><trkpt lat="42.14152656397053" lon="8.685324910091756"><ele>153.4</ele><time>2026-05-01T16:03:43.001Z</time></trkpt><trkpt lat="42.14150937994821" lon="8.685466602666496"><ele>152.8</ele><time>2026-05-01T16:03:44.001Z</time></trkpt><trkpt lat="42.14149865367108" lon="8.685615023647834"><ele>152.2</ele><time>2026-05-01T16:03:45.001Z</time></trkpt><trkpt lat="42.141483887308596" lon="8.685754884353729"><ele>151.6</ele><time>2026-05-01T16:03:46.001Z</time></trkpt><trkpt lat="42.14146134188655" lon="8.685891273959571"><ele>151.0</ele><time>2026-05-01T16:03:47.001Z</time></trkpt><trkpt lat="42.14142696219399" lon="8.686017914654164"><ele>152.6</ele><time>2026-05-01T16:03:48.001Z</time></trkpt><trkpt lat="42.141372108444074" lon="8.686127643184536"><ele>154.2</ele><time>2026-05-01T16:03:49.001Z</time></trkpt><trkpt lat="42.14129661887486" lon="8.686211525780159"><ele>155.8</ele><time>2026-05-01T16:03:50.001Z</time></trkpt><trkpt lat="42.14120310926061" lon="8.686261716287252"><ele>157.4</ele><time>2026-05-01T16:03:51.002Z</time></trkpt><trkpt lat="42.141094778563044" lon="8.686275429748688"><ele>159.0</ele><time>2026-05-01T16:03:52.002Z</time></trkpt><trkpt lat="42.14098536101132" lon="8.686285535906224"><ele>159.0</ele><time>2026-05-01T16:03:53.002Z</time></trkpt><trkpt lat="42.14088831133599" lon="8.68631239357248"><ele>159.0</ele><time>2026-05-01T16:03:54.002Z</time></trkpt><trkpt lat="42.140794725500356" lon="8.686350682603138"><ele>159.0</ele><time>2026-05-01T16:03:55.002Z</time></trkpt><trkpt lat="42.14070365870857" lon="8.686386537180145"><ele>159.0</ele><time>2026-05-01T16:03:56.002Z</time></trkpt><trkpt lat="42.14061977439285" lon="8.686433519171162"><ele>159.0</ele><time>2026-05-01T16:03:57.002Z</time></trkpt><trkpt lat="42.14055524778887" lon="8.686506458119265"><ele>158.42857142857142</ele><time>2026-05-01T16:03:58.002Z</time></trkpt><trkpt lat="42.14052817155741" lon="8.686597098806375"><ele>157.85714285714286</ele><time>2026-05-01T16:03:59.002Z</time></trkpt><trkpt lat="42.14052932910392" lon="8.686692655066134"><ele>157.28571428571428</ele><time>2026-05-01T16:04:00.002Z</time></trkpt><trkpt lat="42.14053668229935" lon="8.686784340212428"><ele>156.71428571428572</ele><time>2026-05-01T16:04:01.002Z</time></trkpt><trkpt lat="42.1405466689116" lon="8.686881135015255"><ele>156.14285714285714</ele><time>2026-05-01T16:04:02.002Z</time></trkpt><trkpt lat="42.14055452989906" lon="8.686984781135152"><ele>155.57142857142858</ele><time>2026-05-01T16:04:03.002Z</time></trkpt><trkpt lat="42.14056110388422" lon="8.687101426842885"><ele>155.0</ele><time>2026-05-01T16:04:04.002Z</time></trkpt><trkpt lat="42.140569507767346" lon="8.687239328917467"><ele>153.0</ele><time>2026-05-01T16:04:05.002Z</time></trkpt><trkpt lat="42.14058022122737" lon="8.68737947130441"><ele>151.0</ele><time>2026-05-01T16:04:06.002Z</time></trkpt><trkpt lat="42.14060164047823" lon="8.68753340227966"><ele>149.0</ele><time>2026-05-01T16:04:07.002Z</time></trkpt><trkpt lat="42.14062023832195" lon="8.687678182897212"><ele>147.0</ele><time>2026-05-01T16:04:08.002Z</time></trkpt><trkpt lat="42.14062360369031" lon="8.687823652536084"><ele>145.0</ele><time>2026-05-01T16:04:09.002Z</time></trkpt><trkpt lat="42.14063991773491" lon="8.687952200563345"><ele>147.75</ele><time>2026-05-01T16:04:10.002Z</time></trkpt><trkpt lat="42.140710258190936" lon="8.688066341356727"><ele>150.5</ele><time>2026-05-01T16:04:11.002Z</time></trkpt><trkpt lat="42.14080515957342" lon="8.688170105144174"><ele>153.25</ele><time>2026-05-01T16:04:12.002Z</time></trkpt><trkpt lat="42.14088351374709" lon="8.68829145618852"><ele>156.0</ele><time>2026-05-01T16:04:13.002Z</time></trkpt><trkpt lat="42.14092386286406" lon="8.6884361128475"><ele>156.0</ele><time>2026-05-01T16:04:14.002Z</time></trkpt><trkpt lat="42.140934424261545" lon="8.688591872577277"><ele>156.0</ele><time>2026-05-01T16:04:15.002Z</time></trkpt><trkpt lat="42.1409306934349" lon="8.688748645253979"><ele>156.0</ele><time>2026-05-01T16:04:16.002Z</time></trkpt><trkpt lat="42.140933547481765" lon="8.688905206665918"><ele>156.0</ele><time>2026-05-01T16:04:17.002Z</time></trkpt><trkpt lat="42.140935367145175" lon="8.689065026367476"><ele>153.5</ele><time>2026-05-01T16:04:18.002Z</time></trkpt><trkpt lat="42.14093058651451" lon="8.689228726657223"><ele>151.0</ele><time>2026-05-01T16:04:19.002Z</time></trkpt><trkpt lat="42.140930705878425" lon="8.689396859882072"><ele>148.5</ele><time>2026-05-01T16:04:20.002Z</time></trkpt><trkpt lat="42.14093590246407" lon="8.689570046793328"><ele>146.0</ele><time>2026-05-01T16:04:21.002Z</time></trkpt><trkpt lat="42.14094446818697" lon="8.689745852277913"><ele>144.4</ele><time>2026-05-01T16:04:22.002Z</time></trkpt><trkpt lat="42.140955068045976" lon="8.689910227661608"><ele>142.8</ele><time>2026-05-01T16:04:23.003Z</time></trkpt><trkpt lat="42.14097084063311" lon="8.690049988585947"><ele>141.20000000000002</ele><time>2026-05-01T16:04:24.003Z</time></trkpt><trkpt lat="42.141016470334094" lon="8.690158010086687"><ele>139.6</ele><time>2026-05-01T16:04:25.003Z</time></trkpt><trkpt lat="42.14108023548182" lon="8.69018392445032"><ele>138.0</ele><time>2026-05-01T16:04:26.003Z</time></trkpt><trkpt lat="42.14115001209894" lon="8.690149048263704"><ele>138.0</ele><time>2026-05-01T16:04:27.003Z</time></trkpt><trkpt lat="42.141221035520374" lon="8.690078715600574"><ele>138.0</ele><time>2026-05-01T16:04:28.003Z</time></trkpt><trkpt lat="42.14128794469686" lon="8.689997353805607"><ele>138.0</ele><time>2026-05-01T16:04:29.003Z</time></trkpt><trkpt lat="42.14136232973183" lon="8.689915294460612"><ele>138.0</ele><time>2026-05-01T16:04:30.003Z</time></trkpt><trkpt lat="42.14144420120077" lon="8.689841061247016"><ele>138.0</ele><time>2026-05-01T16:04:31.003Z</time></trkpt><trkpt lat="42.141531374311406" lon="8.689764768530518"><ele>137.6</ele><time>2026-05-01T16:04:32.003Z</time></trkpt><trkpt lat="42.14162638551483" lon="8.689696510836582"><ele>137.20000000000002</ele><time>2026-05-01T16:04:33.003Z</time></trkpt><trkpt lat="42.1417210171843" lon="8.689621858399475"><ele>136.8</ele><time>2026-05-01T16:04:34.003Z</time></trkpt><trkpt lat="42.1418105509276" lon="8.689525239352166"><ele>136.4</ele><time>2026-05-01T16:04:35.003Z</time></trkpt><trkpt lat="42.141887326606444" lon="8.689429213912932"><ele>136.0</ele><time>2026-05-01T16:04:36.003Z</time></trkpt><trkpt lat="42.1419684467374" lon="8.689347768445579"><ele>140.8</ele><time>2026-05-01T16:04:37.003Z</time></trkpt><trkpt lat="42.14205080284133" lon="8.689254428740806"><ele>145.6</ele><time>2026-05-01T16:04:38.003Z</time></trkpt><trkpt lat="42.142149528640736" lon="8.689197493165812"><ele>150.4</ele><time>2026-05-01T16:04:39.003Z</time></trkpt><trkpt lat="42.14223298613604" lon="8.689096727337615"><ele>155.2</ele><time>2026-05-01T16:04:40.003Z</time></trkpt><trkpt lat="42.142313710278394" lon="8.688988141471539"><ele>160.0</ele><time>2026-05-01T16:04:41.003Z</time></trkpt><trkpt lat="42.14238069309451" lon="8.688862467521291"><ele>160.2</ele><time>2026-05-01T16:04:42.003Z</time></trkpt><trkpt lat="42.14246508497469" lon="8.688766300387863"><ele>160.4</ele><time>2026-05-01T16:04:43.003Z</time></trkpt><trkpt lat="42.14253260454053" lon="8.688670918506945"><ele>160.60000000000002</ele><time>2026-05-01T16:04:44.003Z</time></trkpt><trkpt lat="42.14257651564632" lon="8.688594312659877"><ele>160.8</ele><time>2026-05-01T16:04:45.003Z</time></trkpt><trkpt lat="42.1426420700115" lon="8.688563163551352"><ele>161.0</ele><time>2026-05-01T16:04:46.003Z</time></trkpt><trkpt lat="42.14276210244438" lon="8.688534749724191"><ele>159.57142857142858</ele><time>2026-05-01T16:04:47.997Z</time></trkpt><trkpt lat="42.14282097289877" lon="8.688601622825432"><ele>158.14285714285714</ele><time>2026-05-01T16:04:48.998Z</time></trkpt><trkpt lat="42.14288000475264" lon="8.688640017461909"><ele>156.71428571428572</ele><time>2026-05-01T16:04:49.998Z</time></trkpt><trkpt lat="42.142940210688955" lon="8.688690636854156"><ele>155.28571428571428</ele><time>2026-05-01T16:04:50.998Z</time></trkpt><trkpt lat="42.14300494531058" lon="8.688739097511796"><ele>153.85714285714286</ele><time>2026-05-01T16:04:51.998Z</time></trkpt><trkpt lat="42.143083144736295" lon="8.688764718940654"><ele>152.42857142857144</ele><time>2026-05-01T16:04:52.998Z</time></trkpt><trkpt lat="42.143157592252955" lon="8.68879939408032"><ele>151.0</ele><time>2026-05-01T16:04:53.998Z</time></trkpt><trkpt lat="42.14321589608918" lon="8.68884704861379"><ele>151.0</ele><time>2026-05-01T16:04:54.998Z</time></trkpt><trkpt lat="42.14325184144365" lon="8.688917678847224"><ele>151.0</ele><time>2026-05-01T16:04:55.998Z</time></trkpt><trkpt lat="42.14325710106726" lon="8.689049239241877"><ele>151.0</ele><time>2026-05-01T16:04:57.998Z</time></trkpt><trkpt lat="42.143148834739286" lon="8.689124931087118"><ele>151.0</ele><time>2026-05-01T16:04:58.999Z</time></trkpt><trkpt lat="42.14310663254519" lon="8.689224595306904"><ele>151.0</ele><time>2026-05-01T16:04:59.999Z</time></trkpt><trkpt lat="42.14307092739252" lon="8.689337155167971"><ele>145.0</ele><time>2026-05-01T16:05:00.999Z</time></trkpt><trkpt lat="42.14305109111982" lon="8.68947031164533"><ele>139.0</ele><time>2026-05-01T16:05:01.999Z</time></trkpt><trkpt lat="42.14304948676574" lon="8.689625375707536"><ele>133.0</ele><time>2026-05-01T16:05:02.999Z</time></trkpt><trkpt lat="42.143058750111045" lon="8.689791354456876"><ele>127.0</ele><time>2026-05-01T16:05:03.999Z</time></trkpt><trkpt lat="42.14306608909543" lon="8.689961450801777"><ele>127.0</ele><time>2026-05-01T16:05:04.999Z</time></trkpt><trkpt lat="42.143049245094176" lon="8.690123816461552"><ele>127.0</ele><time>2026-05-01T16:05:05.999Z</time></trkpt><trkpt lat="42.14305780430519" lon="8.690288119111445"><ele>127.0</ele><time>2026-05-01T16:05:06.999Z</time></trkpt><trkpt lat="42.143053950965054" lon="8.690443686464395"><ele>127.0</ele><time>2026-05-01T16:05:07.999Z</time></trkpt><trkpt lat="42.14305900074352" lon="8.690591814054166"><ele>128.4</ele><time>2026-05-01T16:05:08.999Z</time></trkpt><trkpt lat="42.14309284126101" lon="8.69072913029599"><ele>129.79999999999998</ele><time>2026-05-01T16:05:10Z</time></trkpt><trkpt lat="42.143145014963345" lon="8.69084778892442"><ele>131.2</ele><time>2026-05-01T16:05:11Z</time></trkpt><trkpt lat="42.14320968431271" lon="8.690965139778974"><ele>132.6</ele><time>2026-05-01T16:05:12Z</time></trkpt><trkpt lat="42.14328174926496" lon="8.691088061003317"><ele>134.0</ele><time>2026-05-01T16:05:13Z</time></trkpt><trkpt lat="42.14336159684408" lon="8.69120455465047"><ele>131.2</ele><time>2026-05-01T16:05:14Z</time></trkpt><trkpt lat="42.14344484867102" lon="8.69130973718959"><ele>128.4</ele><time>2026-05-01T16:05:15Z</time></trkpt><trkpt lat="42.14354157590613" lon="8.69136967057682"><ele>125.6</ele><time>2026-05-01T16:05:16Z</time></trkpt><trkpt lat="42.143646673159836" lon="8.691393248120244"><ele>122.8</ele><time>2026-05-01T16:05:17Z</time></trkpt><trkpt lat="42.14371244127758" lon="8.691449611932008"><ele>120.0</ele><time>2026-05-01T16:05:18Z</time></trkpt><trkpt lat="42.14371962030684" lon="8.691561236407134"><ele>120.0</ele><time>2026-05-01T16:05:19Z</time></trkpt><trkpt lat="42.143680419157604" lon="8.69167526721102"><ele>120.0</ele><time>2026-05-01T16:05:20Z</time></trkpt><trkpt lat="42.14360429179901" lon="8.691760830679586"><ele>120.0</ele><time>2026-05-01T16:05:21Z</time></trkpt><trkpt lat="42.1435443302234" lon="8.691863337577406"><ele>120.0</ele><time>2026-05-01T16:05:22Z</time></trkpt><trkpt lat="42.143449119345476" lon="8.691913667254983"><ele>120.0</ele><time>2026-05-01T16:05:23Z</time></trkpt><trkpt lat="42.143394296859945" lon="8.69200983660003"><ele>118.8</ele><time>2026-05-01T16:05:24Z</time></trkpt><trkpt lat="42.14334903128858" lon="8.692109441562241"><ele>117.6</ele><time>2026-05-01T16:05:25Z</time></trkpt><trkpt lat="42.14331943586847" lon="8.692238024379204"><ele>116.4</ele><time>2026-05-01T16:05:26Z</time></trkpt><trkpt lat="42.14330591703237" lon="8.692386102153522"><ele>115.2</ele><time>2026-05-01T16:05:27.001Z</time></trkpt><trkpt lat="42.14331023847007" lon="8.692541258632305"><ele>114.0</ele><time>2026-05-01T16:05:28.001Z</time></trkpt><trkpt lat="42.143322583172285" lon="8.692693358458259"><ele>111.80000000000001</ele><time>2026-05-01T16:05:29.001Z</time></trkpt><trkpt lat="42.14336022657135" lon="8.692830763888932"><ele>109.60000000000001</ele><time>2026-05-01T16:05:30.001Z</time></trkpt><trkpt lat="42.14342374554544" lon="8.69293025435303"><ele>107.4</ele><time>2026-05-01T16:05:31.001Z</time></trkpt><trkpt lat="42.14351070847866" lon="8.69298565715932"><ele>105.2</ele><time>2026-05-01T16:05:32.001Z</time></trkpt><trkpt lat="42.14361403516457" lon="8.693009228004481"><ele>103.0</ele><time>2026-05-01T16:05:33.001Z</time></trkpt><trkpt lat="42.1437248750343" lon="8.692994862739102"><ele>103.0</ele><time>2026-05-01T16:05:34.001Z</time></trkpt><trkpt lat="42.14382366203132" lon="8.692960557034574"><ele>103.0</ele><time>2026-05-01T16:05:35.001Z</time></trkpt><trkpt lat="42.14391213735421" lon="8.69299541585388"><ele>103.0</ele><time>2026-05-01T16:05:36.001Z</time></trkpt><trkpt lat="42.14395243343865" lon="8.693118100594052"><ele>103.0</ele><time>2026-05-01T16:05:37.001Z</time></trkpt><trkpt lat="42.14395325260835" lon="8.69322613658745"><ele>103.0</ele><time>2026-05-01T16:05:38.001Z</time></trkpt><trkpt lat="42.14392312289455" lon="8.693341507010837"><ele>103.0</ele><time>2026-05-01T16:05:39.001Z</time></trkpt><trkpt lat="42.14389767216222" lon="8.693476519288684"><ele>103.0</ele><time>2026-05-01T16:05:40.001Z</time></trkpt><trkpt lat="42.14385574607667" lon="8.693608034883693"><ele>103.0</ele><time>2026-05-01T16:05:41.001Z</time></trkpt><trkpt lat="42.14377286103369" lon="8.69369893768405"><ele>103.0</ele><time>2026-05-01T16:05:42.001Z</time></trkpt><trkpt lat="42.14372725673673" lon="8.693796987269327"><ele>103.0</ele><time>2026-05-01T16:05:43.001Z</time></trkpt><trkpt lat="42.143700335228594" lon="8.693907040996468"><ele>102.50000000000001</ele><time>2026-05-01T16:05:44.001Z</time></trkpt><trkpt lat="42.14370390884447" lon="8.694034843582594"><ele>102.0</ele><time>2026-05-01T16:05:45.001Z</time></trkpt><trkpt lat="42.14369836433921" lon="8.694158397228888"><ele>101.5</ele><time>2026-05-01T16:05:46.001Z</time></trkpt><trkpt lat="42.143702659089286" lon="8.694285224359094"><ele>101.0</ele><time>2026-05-01T16:05:47.001Z</time></trkpt><trkpt lat="42.14369297128477" lon="8.694400587473309"><ele>100.50000000000001</ele><time>2026-05-01T16:05:48.001Z</time></trkpt><trkpt lat="42.143690908872195" lon="8.694501321886436"><ele>100.0</ele><time>2026-05-01T16:05:49.001Z</time></trkpt><trkpt lat="42.14367341637826" lon="8.69459288019859"><ele>100.00000000000001</ele><time>2026-05-01T16:05:50.001Z</time></trkpt><trkpt lat="42.14363436403573" lon="8.694662326981772"><ele>100.0</ele><time>2026-05-01T16:05:51.001Z</time></trkpt><trkpt lat="42.14354924449651" lon="8.694653051561456"><ele>100.0</ele><time>2026-05-01T16:05:52.001Z</time></trkpt><trkpt lat="42.14348693758255" lon="8.69463153122305"><ele>100.0</ele><time>2026-05-01T16:05:53.002Z</time></trkpt><trkpt lat="42.143423672140294" lon="8.694634254800691"><ele>100.00000000000001</ele><time>2026-05-01T16:05:54.002Z</time></trkpt><trkpt lat="42.14329295860352" lon="8.694655479851392"><ele>100.0</ele><time>2026-05-01T16:05:56.002Z</time></trkpt><trkpt lat="42.14321734036176" lon="8.694693193970336"><ele>97.33333333333334</ele><time>2026-05-01T16:05:57.002Z</time></trkpt><trkpt lat="42.143143877855515" lon="8.694737787417944"><ele>94.66666666666667</ele><time>2026-05-01T16:05:58.002Z</time></trkpt><trkpt lat="42.143078708536315" lon="8.69480245338458"><ele>92.0</ele><time>2026-05-01T16:05:59.002Z</time></trkpt><trkpt lat="42.14307375570253" lon="8.694929734623768"><ele>89.33333333333334</ele><time>2026-05-01T16:06:00.002Z</time></trkpt><trkpt lat="42.14306809827649" lon="8.69503013531778"><ele>86.66666666666667</ele><time>2026-05-01T16:06:01.002Z</time></trkpt><trkpt lat="42.14308211699845" lon="8.695140387837542"><ele>84.0</ele><time>2026-05-01T16:06:02.002Z</time></trkpt><trkpt lat="42.14307618434096" lon="8.6952495792396"><ele>84.66666666666667</ele><time>2026-05-01T16:06:03.002Z</time></trkpt><trkpt lat="42.14309374779357" lon="8.69535095849404"><ele>85.33333333333333</ele><time>2026-05-01T16:06:04.002Z</time></trkpt><trkpt lat="42.14312989727012" lon="8.695438098163788"><ele>86.0</ele><time>2026-05-01T16:06:05.002Z</time></trkpt><trkpt lat="42.143167194921844" lon="8.69551882139112"><ele>86.66666666666666</ele><time>2026-05-01T16:06:06.002Z</time></trkpt><trkpt lat="42.14321397953145" lon="8.695588094089013"><ele>87.33333333333333</ele><time>2026-05-01T16:06:07.002Z</time></trkpt><trkpt lat="42.143231534165736" lon="8.695670886121693"><ele>88.0</ele><time>2026-05-01T16:06:08.002Z</time></trkpt><trkpt lat="42.14323226307629" lon="8.695828524087418"><ele>88.0</ele><time>2026-05-01T16:06:10.002Z</time></trkpt><trkpt lat="42.14315724301096" lon="8.69595214639855"><ele>88.0</ele><time>2026-05-01T16:06:12.002Z</time></trkpt><trkpt lat="42.143118012224" lon="8.696026389043318"><ele>88.0</ele><time>2026-05-01T16:06:13.002Z</time></trkpt><trkpt lat="42.14307511441813" lon="8.696118116951618"><ele>88.0</ele><time>2026-05-01T16:06:14.002Z</time></trkpt><trkpt lat="42.14305089368513" lon="8.696217868302346"><ele>88.0</ele><time>2026-05-01T16:06:15.002Z</time></trkpt><trkpt lat="42.14301111748979" lon="8.696309512391359"><ele>88.0</ele><time>2026-05-01T16:06:16.002Z</time></trkpt><trkpt lat="42.14297635614124" lon="8.696410887732753"><ele>87.85714285714286</ele><time>2026-05-01T16:06:17.002Z</time></trkpt><trkpt lat="42.14295484996408" lon="8.696512563087266"><ele>87.71428571428571</ele><time>2026-05-01T16:06:18.002Z</time></trkpt><trkpt lat="42.14291393692141" lon="8.696591838334205"><ele>87.57142857142857</ele><time>2026-05-01T16:06:19.002Z</time></trkpt><trkpt lat="42.14288537093097" lon="8.696677863599694"><ele>87.42857142857143</ele><time>2026-05-01T16:06:20.002Z</time></trkpt><trkpt lat="42.14282790715236" lon="8.696731554922927"><ele>87.28571428571429</ele><time>2026-05-01T16:06:21.002Z</time></trkpt><trkpt lat="42.1427589100886" lon="8.696761039162585"><ele>87.14285714285714</ele><time>2026-05-01T16:06:22.002Z</time></trkpt><trkpt lat="42.14268703046191" lon="8.69672866193423"><ele>87.0</ele><time>2026-05-01T16:06:23.002Z</time></trkpt><trkpt lat="42.14260880492444" lon="8.696728721465076"><ele>87.0</ele><time>2026-05-01T16:06:24.002Z</time></trkpt><trkpt lat="42.14251626493299" lon="8.696734995749974"><ele>87.0</ele><time>2026-05-01T16:06:25.003Z</time></trkpt><trkpt lat="42.14241630547474" lon="8.696728842628303"><ele>87.0</ele><time>2026-05-01T16:06:26.003Z</time></trkpt><trkpt lat="42.14231129712717" lon="8.696734246932401"><ele>87.0</ele><time>2026-05-01T16:06:27.003Z</time></trkpt><trkpt lat="42.142227673317535" lon="8.696744125889401"><ele>87.0</ele><time>2026-05-01T16:06:28.003Z</time></trkpt><trkpt lat="42.14215631710218" lon="8.696760994118895"><ele>87.0</ele><time>2026-05-01T16:06:29.003Z</time></trkpt><trkpt lat="42.142090021271564" lon="8.69681190816158"><ele>87.0</ele><time>2026-05-01T16:06:30.003Z</time></trkpt><trkpt lat="42.1420260721403" lon="8.696865064602418"><ele>87.0</ele><time>2026-05-01T16:06:31.003Z</time></trkpt><trkpt lat="42.14195589856269" lon="8.696920653254784"><ele>87.0</ele><time>2026-05-01T16:06:32.003Z</time></trkpt><trkpt lat="42.14187292783409" lon="8.696984072979491"><ele>87.0</ele><time>2026-05-01T16:06:33.003Z</time></trkpt><trkpt lat="42.14177733509173" lon="8.697053559435568"><ele>87.0</ele><time>2026-05-01T16:06:34.003Z</time></trkpt><trkpt lat="42.1416690522542" lon="8.697128301480351"><ele>83.75</ele><time>2026-05-01T16:06:35.003Z</time></trkpt><trkpt lat="42.14154366691447" lon="8.69716934162491"><ele>80.5</ele><time>2026-05-01T16:06:36.003Z</time></trkpt><trkpt lat="42.1414327301699" lon="8.697230716397543"><ele>77.25</ele><time>2026-05-01T16:06:37.003Z</time></trkpt><trkpt lat="42.141322746141874" lon="8.697223469531503"><ele>74.0</ele><time>2026-05-01T16:06:38.003Z</time></trkpt><trkpt lat="42.141223749397675" lon="8.697208821424944"><ele>74.0</ele><time>2026-05-01T16:06:39.003Z</time></trkpt><trkpt lat="42.141138619222836" lon="8.697208821424896"><ele>74.0</ele><time>2026-05-01T16:06:40.003Z</time></trkpt><trkpt lat="42.14106349909726" lon="8.697235014203534"><ele>74.0</ele><time>2026-05-01T16:06:41.003Z</time></trkpt><trkpt lat="42.14100881961357" lon="8.697337382237583"><ele>74.0</ele><time>2026-05-01T16:06:42.003Z</time></trkpt><trkpt lat="42.14094213886161" lon="8.697434454568894"><ele>74.0</ele><time>2026-05-01T16:06:43.003Z</time></trkpt><trkpt lat="42.140859113532976" lon="8.697525096886855"><ele>74.0</ele><time>2026-05-01T16:06:44.003Z</time></trkpt><trkpt lat="42.14074584715796" lon="8.697549456334835"><ele>74.0</ele><time>2026-05-01T16:06:45.003Z</time></trkpt><trkpt lat="42.14064392794153" lon="8.697631340884596"><ele>74.0</ele><time>2026-05-01T16:06:46.003Z</time></trkpt><trkpt lat="42.140537179382996" lon="8.697691055801764"><ele>74.0</ele><time>2026-05-01T16:06:47.003Z</time></trkpt><trkpt lat="42.140436507826415" lon="8.697784285009119"><ele>72.0</ele><time>2026-05-01T16:06:48.003Z</time></trkpt><trkpt lat="42.14034782101492" lon="8.697904741904813"><ele>70.0</ele><time>2026-05-01T16:06:49.003Z</time></trkpt><trkpt lat="42.14024857775555" lon="8.698001977472698"><ele>68.0</ele><time>2026-05-01T16:06:50.003Z</time></trkpt><trkpt lat="42.14015498253515" lon="8.698117661166142"><ele>66.0</ele><time>2026-05-01T16:06:51.003Z</time></trkpt><trkpt lat="42.140053302698576" lon="8.698219481147452"><ele>66.0</ele><time>2026-05-01T16:06:52.003Z</time></trkpt><trkpt lat="42.13994515024031" lon="8.698290637000678"><ele>66.0</ele><time>2026-05-01T16:06:53.003Z</time></trkpt><trkpt lat="42.139864812658566" lon="8.698409941676069"><ele>66.0</ele><time>2026-05-01T16:06:53.998Z</time></trkpt><trkpt lat="42.13978769547139" lon="8.698513188417865"><ele>66.0</ele><time>2026-05-01T16:06:54.998Z</time></trkpt><trkpt lat="42.13971997688807" lon="8.698615465179936"><ele>63.599999999999994</ele><time>2026-05-01T16:06:55.998Z</time></trkpt><trkpt lat="42.139656623425964" lon="8.698723219874553"><ele>61.199999999999996</ele><time>2026-05-01T16:06:56.998Z</time></trkpt><trkpt lat="42.139600179196215" lon="8.698845198235054"><ele>58.800000000000004</ele><time>2026-05-01T16:06:57.999Z</time></trkpt><trkpt lat="42.1395453667313" lon="8.698974000827251"><ele>56.400000000000006</ele><time>2026-05-01T16:06:58.999Z</time></trkpt><trkpt lat="42.13950809664903" lon="8.699115597995537"><ele>54.0</ele><time>2026-05-01T16:06:59.999Z</time></trkpt><trkpt lat="42.139503580581625" lon="8.699264567359693"><ele>53.0</ele><time>2026-05-01T16:07:00.999Z</time></trkpt><trkpt lat="42.139529647241254" lon="8.699417886487847"><ele>52.0</ele><time>2026-05-01T16:07:01.999Z</time></trkpt><trkpt lat="42.13958656693495" lon="8.699567261560958"><ele>51.0</ele><time>2026-05-01T16:07:02.999Z</time></trkpt><trkpt lat="42.139644380250886" lon="8.699711791905894"><ele>50.0</ele><time>2026-05-01T16:07:03.999Z</time></trkpt><trkpt lat="42.1396381428955" lon="8.699870902920246"><ele>50.0</ele><time>2026-05-01T16:07:04.999Z</time></trkpt><trkpt lat="42.13958205097116" lon="8.699988229906488"><ele>50.0</ele><time>2026-05-01T16:07:05.999Z</time></trkpt><trkpt lat="42.13954077771422" lon="8.700118100093748"><ele>50.0</ele><time>2026-05-01T16:07:06.999Z</time></trkpt><trkpt lat="42.139522208061926" lon="8.700243167821226"><ele>50.0</ele><time>2026-05-01T16:07:07.999Z</time></trkpt><trkpt lat="42.13950265020084" lon="8.700350335092308"><ele>50.0</ele><time>2026-05-01T16:07:08.999Z</time></trkpt><trkpt lat="42.139507238298876" lon="8.700454645730082"><ele>49.16666666666667</ele><time>2026-05-01T16:07:09.999Z</time></trkpt><trkpt lat="42.13951795050078" lon="8.700551312709223"><ele>48.333333333333336</ele><time>2026-05-01T16:07:10.999Z</time></trkpt><trkpt lat="42.13952391621461" lon="8.700657987819566"><ele>47.5</ele><time>2026-05-01T16:07:11.999Z</time></trkpt><trkpt lat="42.1395403247181" lon="8.700768862879375"><ele>46.66666666666667</ele><time>2026-05-01T16:07:13Z</time></trkpt><trkpt lat="42.139573143885315" lon="8.70087346792016"><ele>45.833333333333336</ele><time>2026-05-01T16:07:14Z</time></trkpt><trkpt lat="42.13961813037082" lon="8.700968469609565"><ele>45.0</ele><time>2026-05-01T16:07:15Z</time></trkpt><trkpt lat="42.13967553872695" lon="8.701062705209099"><ele>44.333333333333336</ele><time>2026-05-01T16:07:16Z</time></trkpt><trkpt lat="42.13973521243036" lon="8.701167855190107"><ele>43.666666666666664</ele><time>2026-05-01T16:07:17Z</time></trkpt><trkpt lat="42.13976696834889" lon="8.701280597380364"><ele>43.0</ele><time>2026-05-01T16:07:18Z</time></trkpt><trkpt lat="42.13977712170612" lon="8.701394866985588"><ele>42.33333333333333</ele><time>2026-05-01T16:07:19Z</time></trkpt><trkpt lat="42.13976552812765" lon="8.701509198847353"><ele>41.666666666666664</ele><time>2026-05-01T16:07:20Z</time></trkpt><trkpt lat="42.13971922960896" lon="8.70160246926237"><ele>41.0</ele><time>2026-05-01T16:07:21Z</time></trkpt><trkpt lat="42.139725225258985" lon="8.70171704952052"><ele>41.0</ele><time>2026-05-01T16:07:22Z</time></trkpt><trkpt lat="42.13971804520766" lon="8.701848249624076"><ele>41.0</ele><time>2026-05-01T16:07:23Z</time></trkpt><trkpt lat="42.139717258149744" lon="8.701982910692625"><ele>41.0</ele><time>2026-05-01T16:07:24Z</time></trkpt><trkpt lat="42.13971963687673" lon="8.702113163849546"><ele>41.0</ele><time>2026-05-01T16:07:25Z</time></trkpt><trkpt lat="42.139721592874054" lon="8.702238869588681"><ele>41.0</ele><time>2026-05-01T16:07:26Z</time></trkpt><trkpt lat="42.13973536604526" lon="8.70234585748946"><ele>41.166666666666664</ele><time>2026-05-01T16:07:27Z</time></trkpt><trkpt lat="42.13977031158126" lon="8.702441377263003"><ele>41.33333333333333</ele><time>2026-05-01T16:07:28Z</time></trkpt><trkpt lat="42.13982665781478" lon="8.70251352219534"><ele>41.5</ele><time>2026-05-01T16:07:29Z</time></trkpt><trkpt lat="42.13988555892121" lon="8.702572776745464"><ele>41.666666666666664</ele><time>2026-05-01T16:07:30Z</time></trkpt><trkpt lat="42.139934185212745" lon="8.70264674021125"><ele>41.833333333333336</ele><time>2026-05-01T16:07:31.001Z</time></trkpt><trkpt lat="42.13993647429977" lon="8.70274842867204"><ele>42.0</ele><time>2026-05-01T16:07:32.001Z</time></trkpt><trkpt lat="42.13991967304188" lon="8.702864750495328"><ele>43.2</ele><time>2026-05-01T16:07:33.001Z</time></trkpt><trkpt lat="42.13992878518762" lon="8.70300514195471"><ele>44.400000000000006</ele><time>2026-05-01T16:07:34.001Z</time></trkpt><trkpt lat="42.139955953120406" lon="8.703154969759504"><ele>45.599999999999994</ele><time>2026-05-01T16:07:35.001Z</time></trkpt><trkpt lat="42.14003558486589" lon="8.703280570113273"><ele>46.8</ele><time>2026-05-01T16:07:36.001Z</time></trkpt><trkpt lat="42.14009759553097" lon="8.703390585835464"><ele>48.0</ele><time>2026-05-01T16:07:37.001Z</time></trkpt><trkpt lat="42.14009964936976" lon="8.703503122448836"><ele>47.4</ele><time>2026-05-01T16:07:38.001Z</time></trkpt><trkpt lat="42.14007639743327" lon="8.703594642098752"><ele>46.8</ele><time>2026-05-01T16:07:39.001Z</time></trkpt><trkpt lat="42.139998794284544" lon="8.703665242942508"><ele>46.2</ele><time>2026-05-01T16:07:40.001Z</time></trkpt><trkpt lat="42.13995404913876" lon="8.70378552990045"><ele>45.6</ele><time>2026-05-01T16:07:41.001Z</time></trkpt><trkpt lat="42.13993731958633" lon="8.703923831278873"><ele>45.0</ele><time>2026-05-01T16:07:42.001Z</time></trkpt><trkpt lat="42.13992674586308" lon="8.704080804818737"><ele>45.0</ele><time>2026-05-01T16:07:43.001Z</time></trkpt><trkpt lat="42.13993926823195" lon="8.704250400980918"><ele>45.0</ele><time>2026-05-01T16:07:44.001Z</time></trkpt><trkpt lat="42.139961794771125" lon="8.70441308600669"><ele>45.0</ele><time>2026-05-01T16:07:45.001Z</time></trkpt><trkpt lat="42.140013742477706" lon="8.704571183392302"><ele>45.0</ele><time>2026-05-01T16:07:46.001Z</time></trkpt><trkpt lat="42.14009249100529" lon="8.704720056718218"><ele>43.0</ele><time>2026-05-01T16:07:47.001Z</time></trkpt><trkpt lat="42.14019074198938" lon="8.704846038128313"><ele>41.0</ele><time>2026-05-01T16:07:48.001Z</time></trkpt><trkpt lat="42.14028351611717" lon="8.704955622482215"><ele>39.0</ele><time>2026-05-01T16:07:49.001Z</time></trkpt><trkpt lat="42.140355253830684" lon="8.705068021574704"><ele>37.0</ele><time>2026-05-01T16:07:50.001Z</time></trkpt><trkpt lat="42.14039172843069" lon="8.705193050082617"><ele>36.0</ele><time>2026-05-01T16:07:51.001Z</time></trkpt><trkpt lat="42.14034585296305" lon="8.705355782558653"><ele>35.0</ele><time>2026-05-01T16:07:52.001Z</time></trkpt><trkpt lat="42.14035725600514" lon="8.705499132183002"><ele>34.0</ele><time>2026-05-01T16:07:53.001Z</time></trkpt><trkpt lat="42.140380430082416" lon="8.705620105244149"><ele>33.0</ele><time>2026-05-01T16:07:54.001Z</time></trkpt><trkpt lat="42.14045178172095" lon="8.705744271379034"><ele>32.0</ele><time>2026-05-01T16:07:55.001Z</time></trkpt><trkpt lat="42.14052458014386" lon="8.70588682451479"><ele>32.0</ele><time>2026-05-01T16:07:56.001Z</time></trkpt><trkpt lat="42.14055087087828" lon="8.706055989658692"><ele>32.0</ele><time>2026-05-01T16:07:57.001Z</time></trkpt><trkpt lat="42.14057065947676" lon="8.70622881979419"><ele>32.0</ele><time>2026-05-01T16:07:58.001Z</time></trkpt><trkpt lat="42.1405691629827" lon="8.706407590990956"><ele>32.0</ele><time>2026-05-01T16:07:59.002Z</time></trkpt><trkpt lat="42.14058029602428" lon="8.706591110800455"><ele>30.75</ele><time>2026-05-01T16:08:00.002Z</time></trkpt><trkpt lat="42.14057331752521" lon="8.706761857649418"><ele>29.5</ele><time>2026-05-01T16:08:01.002Z</time></trkpt><trkpt lat="42.14059273502178" lon="8.706915767612125"><ele>28.25</ele><time>2026-05-01T16:08:02.002Z</time></trkpt><trkpt lat="42.1406394051455" lon="8.707057119424684"><ele>27.0</ele><time>2026-05-01T16:08:03.002Z</time></trkpt><trkpt lat="42.14072236801532" lon="8.707187308881279"><ele>26.6</ele><time>2026-05-01T16:08:04.002Z</time></trkpt><trkpt lat="42.14079111862258" lon="8.707306991914491"><ele>26.200000000000003</ele><time>2026-05-01T16:08:05.002Z</time></trkpt><trkpt lat="42.140827902696884" lon="8.707426135668138"><ele>25.8</ele><time>2026-05-01T16:08:06.002Z</time></trkpt><trkpt lat="42.140821056779444" lon="8.707545362196955"><ele>25.4</ele><time>2026-05-01T16:08:07.002Z</time></trkpt><trkpt lat="42.14073301726842" lon="8.707618325209289"><ele>25.0</ele><time>2026-05-01T16:08:08.002Z</time></trkpt><trkpt lat="42.140689654073256" lon="8.707716374046605"><ele>24.166666666666668</ele><time>2026-05-01T16:08:09.002Z</time></trkpt><trkpt lat="42.14066375653687" lon="8.707822039669196"><ele>23.333333333333336</ele><time>2026-05-01T16:08:10.002Z</time></trkpt><trkpt lat="42.140629670700584" lon="8.70792550230476"><ele>22.5</ele><time>2026-05-01T16:08:11.002Z</time></trkpt><trkpt lat="42.14066367563645" lon="8.708043195902691"><ele>21.666666666666668</ele><time>2026-05-01T16:08:12.002Z</time></trkpt><trkpt lat="42.14069571764251" lon="8.708152460590592"><ele>20.833333333333336</ele><time>2026-05-01T16:08:13.002Z</time></trkpt><trkpt lat="42.14072162976567" lon="8.708265867111557"><ele>20.0</ele><time>2026-05-01T16:08:14.002Z</time></trkpt><trkpt lat="42.14073583593221" lon="8.708398834597235"><ele>21.6</ele><time>2026-05-01T16:08:15.002Z</time></trkpt><trkpt lat="42.1407380134253" lon="8.708537312471202"><ele>23.2</ele><time>2026-05-01T16:08:16.002Z</time></trkpt><trkpt lat="42.14074021644125" lon="8.708672955785959"><ele>24.799999999999997</ele><time>2026-05-01T16:08:17.002Z</time></trkpt><trkpt lat="42.140742502105546" lon="8.708811092677038"><ele>26.4</ele><time>2026-05-01T16:08:18.002Z</time></trkpt><trkpt lat="42.14075506769188" lon="8.708938783164994"><ele>28.0</ele><time>2026-05-01T16:08:19.002Z</time></trkpt><trkpt lat="42.14079462954712" lon="8.709061970022761"><ele>28.0</ele><time>2026-05-01T16:08:20.002Z</time></trkpt><trkpt lat="42.14084309349667" lon="8.709180314768522"><ele>27.999999999999996</ele><time>2026-05-01T16:08:21.002Z</time></trkpt><trkpt lat="42.14087678145128" lon="8.709309210562724"><ele>27.999999999999996</ele><time>2026-05-01T16:08:22.002Z</time></trkpt><trkpt lat="42.14090536195666" lon="8.70944681245683"><ele>28.0</ele><time>2026-05-01T16:08:23.002Z</time></trkpt><trkpt lat="42.14093644120414" lon="8.709575274623202"><ele>28.0</ele><time>2026-05-01T16:08:24.002Z</time></trkpt><trkpt lat="42.14097056531861" lon="8.709697125886516"><ele>26.833333333333336</ele><time>2026-05-01T16:08:25.002Z</time></trkpt><trkpt lat="42.14101868752715" lon="8.709791303707789"><ele>25.666666666666668</ele><time>2026-05-01T16:08:26.002Z</time></trkpt><trkpt lat="42.14108679870129" lon="8.709837292394287"><ele>24.5</ele><time>2026-05-01T16:08:27.002Z</time></trkpt><trkpt lat="42.14116735932954" lon="8.709834672732056"><ele>23.333333333333336</ele><time>2026-05-01T16:08:28.002Z</time></trkpt><trkpt lat="42.14124975520109" lon="8.709791736278873"><ele>22.166666666666668</ele><time>2026-05-01T16:08:29.002Z</time></trkpt><trkpt lat="42.14134264136086" lon="8.709774473713727"><ele>21.0</ele><time>2026-05-01T16:08:30.002Z</time></trkpt><trkpt lat="42.141446034505165" lon="8.709783189698152"><ele>21.0</ele><time>2026-05-01T16:08:31.002Z</time></trkpt><trkpt lat="42.14154255930717" lon="8.709800658526119"><ele>21.0</ele><time>2026-05-01T16:08:32.003Z</time></trkpt><trkpt lat="42.141616634346086" lon="8.709819656744415"><ele>21.0</ele><time>2026-05-01T16:08:33.003Z</time></trkpt><trkpt lat="42.1416737793628" lon="8.709918682980089"><ele>21.0</ele><time>2026-05-01T16:08:35.003Z</time></trkpt><trkpt lat="42.141590177635365" lon="8.7100442157895"><ele>21.0</ele><time>2026-05-01T16:08:37.003Z</time></trkpt><trkpt lat="42.14150170426949" lon="8.710070234322057"><ele>21.0</ele><time>2026-05-01T16:08:38.003Z</time></trkpt><trkpt lat="42.14144521242091" lon="8.71014529402386"><ele>21.0</ele><time>2026-05-01T16:08:39.003Z</time></trkpt><trkpt lat="42.14143345773404" lon="8.71027644972498"><ele>21.0</ele><time>2026-05-01T16:08:40.003Z</time></trkpt><trkpt lat="42.14142068805332" lon="8.710414970381061"><ele>21.0</ele><time>2026-05-01T16:08:41.003Z</time></trkpt><trkpt lat="42.14142099675448" lon="8.710574155637945"><ele>21.0</ele><time>2026-05-01T16:08:42.003Z</time></trkpt><trkpt lat="42.14142151188063" lon="8.710726846125153"><ele>20.5</ele><time>2026-05-01T16:08:43.003Z</time></trkpt><trkpt lat="42.14143415726818" lon="8.71087994185231"><ele>20.0</ele><time>2026-05-01T16:08:44.003Z</time></trkpt><trkpt lat="42.14147124860138" lon="8.711039600920204"><ele>19.5</ele><time>2026-05-01T16:08:45.003Z</time></trkpt><trkpt lat="42.14152723735686" lon="8.71118541158935"><ele>19.0</ele><time>2026-05-01T16:08:46.003Z</time></trkpt><trkpt lat="42.14158634098358" lon="8.711321879546729"><ele>21.5</ele><time>2026-05-01T16:08:47.003Z</time></trkpt><trkpt lat="42.141643042527555" lon="8.711462553558329"><ele>24.0</ele><time>2026-05-01T16:08:48.003Z</time></trkpt><trkpt lat="42.141706926023495" lon="8.71159230578606"><ele>26.5</ele><time>2026-05-01T16:08:49.003Z</time></trkpt><trkpt lat="42.14177107082517" lon="8.711717183198312"><ele>29.0</ele><time>2026-05-01T16:08:50.003Z</time></trkpt><trkpt lat="42.14183509781811" lon="8.711846046255188"><ele>27.6</ele><time>2026-05-01T16:08:51.003Z</time></trkpt><trkpt lat="42.14190080827363" lon="8.71196707555328"><ele>26.2</ele><time>2026-05-01T16:08:52.003Z</time></trkpt><trkpt lat="42.141967742530795" lon="8.71208767408625"><ele>24.8</ele><time>2026-05-01T16:08:53.003Z</time></trkpt><trkpt lat="42.14203130718259" lon="8.712212169790659"><ele>23.400000000000002</ele><time>2026-05-01T16:08:54.003Z</time></trkpt><trkpt lat="42.14209244999114" lon="8.712337408251374"><ele>22.0</ele><time>2026-05-01T16:08:55.003Z</time></trkpt><trkpt lat="42.14215280620469" lon="8.7124656531155"><ele>22.0</ele><time>2026-05-01T16:08:56.003Z</time></trkpt><trkpt lat="42.1422094253372" lon="8.712598500167354"><ele>22.0</ele><time>2026-05-01T16:08:57.003Z</time></trkpt><trkpt lat="42.14226678920489" lon="8.712730553613147"><ele>22.0</ele><time>2026-05-01T16:08:58.003Z</time></trkpt><trkpt lat="42.1423216184423" lon="8.712866006397228"><ele>22.0</ele><time>2026-05-01T16:08:59.003Z</time></trkpt><trkpt lat="42.142375506652584" lon="8.712993509101794"><ele>21.8</ele><time>2026-05-01T16:08:59.998Z</time></trkpt><trkpt lat="42.14243143290763" lon="8.713125761530438"><ele>21.6</ele><time>2026-05-01T16:09:00.998Z</time></trkpt><trkpt lat="42.142484038406394" lon="8.713258445657388"><ele>21.400000000000002</ele><time>2026-05-01T16:09:01.998Z</time></trkpt><trkpt lat="42.14254974963739" lon="8.71337681635749"><ele>21.200000000000003</ele><time>2026-05-01T16:09:02.998Z</time></trkpt><trkpt lat="42.142619449959376" lon="8.713491676195842"><ele>21.0</ele><time>2026-05-01T16:09:03.998Z</time></trkpt><trkpt lat="42.14268931279323" lon="8.713606151836444"><ele>21.0</ele><time>2026-05-01T16:09:04.999Z</time></trkpt><trkpt lat="42.14275915752672" lon="8.713716801843686"><ele>21.0</ele><time>2026-05-01T16:09:05.999Z</time></trkpt><trkpt lat="42.14282984138319" lon="8.713822249542693"><ele>21.0</ele><time>2026-05-01T16:09:06.999Z</time></trkpt><trkpt lat="42.14289470547159" lon="8.713922623615048"><ele>21.0</ele><time>2026-05-01T16:09:07.999Z</time></trkpt><trkpt lat="42.14295523018902" lon="8.714026278130353"><ele>21.0</ele><time>2026-05-01T16:09:08.999Z</time></trkpt><trkpt lat="42.1430126298565" lon="8.714133732176135"><ele>21.0</ele><time>2026-05-01T16:09:09.999Z</time></trkpt><trkpt lat="42.143080977335316" lon="8.714230873182709"><ele>21.0</ele><time>2026-05-01T16:09:10.999Z</time></trkpt><trkpt lat="42.14314564367351" lon="8.714336720873321"><ele>21.0</ele><time>2026-05-01T16:09:11.999Z</time></trkpt><trkpt lat="42.143217817405144" lon="8.714432340513095"><ele>21.0</ele><time>2026-05-01T16:09:12.999Z</time></trkpt><trkpt lat="42.14329951449131" lon="8.714521620655823"><ele>21.0</ele><time>2026-05-01T16:09:13.999Z</time></trkpt><trkpt lat="42.14339159495294" lon="8.714585706026096"><ele>21.6</ele><time>2026-05-01T16:09:14.999Z</time></trkpt><trkpt lat="42.143486268903615" lon="8.714613425234578"><ele>22.200000000000003</ele><time>2026-05-01T16:09:15.999Z</time></trkpt><trkpt lat="42.143575394718155" lon="8.714607514759235"><ele>22.799999999999997</ele><time>2026-05-01T16:09:16.999Z</time></trkpt><trkpt lat="42.14366909994378" lon="8.7145998983494"><ele>23.4</ele><time>2026-05-01T16:09:17.999Z</time></trkpt><trkpt lat="42.1437551694476" lon="8.714632631021203"><ele>24.0</ele><time>2026-05-01T16:09:18.999Z</time></trkpt><trkpt lat="42.143816831027344" lon="8.714715389648406"><ele>24.0</ele><time>2026-05-01T16:09:20Z</time></trkpt><trkpt lat="42.143887745137555" lon="8.714770397475899"><ele>24.0</ele><time>2026-05-01T16:09:21Z</time></trkpt><trkpt lat="42.14394155285276" lon="8.714856063996557"><ele>24.0</ele><time>2026-05-01T16:09:22Z</time></trkpt><trkpt lat="42.14401014341821" lon="8.714917231895697"><ele>24.0</ele><time>2026-05-01T16:09:23Z</time></trkpt><trkpt lat="42.144087499330716" lon="8.714957667511005"><ele>24.0</ele><time>2026-05-01T16:09:24Z</time></trkpt><trkpt lat="42.14417292398004" lon="8.71495791402504"><ele>24.0</ele><time>2026-05-01T16:09:25Z</time></trkpt><trkpt lat="42.144261874304426" lon="8.714919149231761"><ele>25.0</ele><time>2026-05-01T16:09:26Z</time></trkpt><trkpt lat="42.14433827800003" lon="8.714853342870752"><ele>26.0</ele><time>2026-05-01T16:09:27Z</time></trkpt><trkpt lat="42.14440038542399" lon="8.714771764340538"><ele>27.0</ele><time>2026-05-01T16:09:28Z</time></trkpt><trkpt lat="42.14446235426239" lon="8.714718624427352"><ele>28.0</ele><time>2026-05-01T16:09:29Z</time></trkpt><trkpt lat="42.144530960334556" lon="8.714724215079269"><ele>29.0</ele><time>2026-05-01T16:09:30Z</time></trkpt><trkpt lat="42.14459585469552" lon="8.714807517766882"><ele>30.0</ele><time>2026-05-01T16:09:31Z</time></trkpt><trkpt lat="42.144673205238426" lon="8.71482397453794"><ele>30.0</ele><time>2026-05-01T16:09:32Z</time></trkpt><trkpt lat="42.14476794926493" lon="8.71481968660179"><ele>30.0</ele><time>2026-05-01T16:09:33Z</time></trkpt><trkpt lat="42.14486755727822" lon="8.714827622300122"><ele>30.0</ele><time>2026-05-01T16:09:34Z</time></trkpt><trkpt lat="42.14497014495464" lon="8.714856342072933"><ele>30.0</ele><time>2026-05-01T16:09:35Z</time></trkpt><trkpt lat="42.145077303203415" lon="8.714897870967237"><ele>30.0</ele><time>2026-05-01T16:09:36Z</time></trkpt><trkpt lat="42.14518426181568" lon="8.714935239090481"><ele>30.4</ele><time>2026-05-01T16:09:37Z</time></trkpt><trkpt lat="42.1452901184336" lon="8.714970122579077"><ele>30.8</ele><time>2026-05-01T16:09:38Z</time></trkpt><trkpt lat="42.14538313846037" lon="8.715001902065097"><ele>31.200000000000003</ele><time>2026-05-01T16:09:39Z</time></trkpt><trkpt lat="42.14546909579511" lon="8.715031745887277"><ele>31.6</ele><time>2026-05-01T16:09:40.001Z</time></trkpt><trkpt lat="42.14553402736261" lon="8.71506176943873"><ele>32.0</ele><time>2026-05-01T16:09:41.001Z</time></trkpt><trkpt lat="42.14561114764213" lon="8.715168853429255"><ele>33.0</ele><time>2026-05-01T16:09:43.001Z</time></trkpt><trkpt lat="42.14555231510137" lon="8.71528458880504"><ele>34.0</ele><time>2026-05-01T16:09:45.001Z</time></trkpt><trkpt lat="42.1455292662922" lon="8.715391176992362"><ele>35.0</ele><time>2026-05-01T16:09:47.001Z</time></trkpt><trkpt lat="42.14541374424267" lon="8.715435569604013"><ele>36.0</ele><time>2026-05-01T16:09:49.001Z</time></trkpt><trkpt lat="42.14533889344737" lon="8.715398185560247"><ele>37.0</ele><time>2026-05-01T16:09:50.001Z</time></trkpt><trkpt lat="42.14525722004763" lon="8.715394318220524"><ele>37.0</ele><time>2026-05-01T16:09:51.001Z</time></trkpt><trkpt lat="42.145166213625544" lon="8.715395493221896"><ele>37.0</ele><time>2026-05-01T16:09:52.001Z</time></trkpt><trkpt lat="42.14506514523627" lon="8.715420075675432"><ele>37.0</ele><time>2026-05-01T16:09:53.001Z</time></trkpt><trkpt lat="42.144953988988725" lon="8.715441736490883"><ele>37.0</ele><time>2026-05-01T16:09:54.001Z</time></trkpt><trkpt lat="42.14483858050737" lon="8.715480772308416"><ele>37.0</ele><time>2026-05-01T16:09:55.001Z</time></trkpt><trkpt lat="42.14471708665786" lon="8.715493591943993"><ele>35.6</ele><time>2026-05-01T16:09:56.001Z</time></trkpt><trkpt lat="42.14459877562032" lon="8.715531173319112"><ele>34.2</ele><time>2026-05-01T16:09:57.001Z</time></trkpt><trkpt lat="42.144492866960015" lon="8.715576555422723"><ele>32.8</ele><time>2026-05-01T16:09:58.001Z</time></trkpt><trkpt lat="42.14441525619437" lon="8.715653736818817"><ele>31.4</ele><time>2026-05-01T16:09:59.001Z</time></trkpt><trkpt lat="42.144344610304465" lon="8.715715222038513"><ele>30.0</ele><time>2026-05-01T16:10:00.001Z</time></trkpt><trkpt lat="42.14432696503564" lon="8.715842087963066"><ele>30.0</ele><time>2026-05-01T16:10:01.001Z</time></trkpt><trkpt lat="42.144326407964975" lon="8.715964815389638"><ele>30.0</ele><time>2026-05-01T16:10:02.001Z</time></trkpt><trkpt lat="42.14435016581618" lon="8.716076963007845"><ele>30.0</ele><time>2026-05-01T16:10:03.001Z</time></trkpt><trkpt lat="42.144447782508195" lon="8.716148301470119"><ele>30.0</ele><time>2026-05-01T16:10:04.001Z</time></trkpt><trkpt lat="42.1445246491331" lon="8.716204822736618"><ele>30.0</ele><time>2026-05-01T16:10:05.001Z</time></trkpt><trkpt lat="42.14460382967958" lon="8.71625787783343"><ele>31.8</ele><time>2026-05-01T16:10:06.001Z</time></trkpt><trkpt lat="42.14467524929908" lon="8.716322796907473"><ele>33.6</ele><time>2026-05-01T16:10:07.001Z</time></trkpt><trkpt lat="42.14468898019941" lon="8.716425671860504"><ele>35.4</ele><time>2026-05-01T16:10:08.002Z</time></trkpt><trkpt lat="42.1446536904463" lon="8.716586747882971"><ele>37.2</ele><time>2026-05-01T16:10:10.002Z</time></trkpt><trkpt lat="42.144561474703515" lon="8.716602849746275"><ele>39.0</ele><time>2026-05-01T16:10:11.002Z</time></trkpt><trkpt lat="42.144488392360195" lon="8.716675074375848"><ele>39.0</ele><time>2026-05-01T16:10:12.002Z</time></trkpt><trkpt lat="42.14441356102056" lon="8.716758502612294"><ele>39.0</ele><time>2026-05-01T16:10:13.002Z</time></trkpt><trkpt lat="42.144348960252636" lon="8.716848715292622"><ele>39.0</ele><time>2026-05-01T16:10:14.002Z</time></trkpt><trkpt lat="42.14429417319685" lon="8.71690672352382"><ele>39.0</ele><time>2026-05-01T16:10:15.002Z</time></trkpt><trkpt lat="42.14423188577012" lon="8.716951839060693"><ele>39.0</ele><time>2026-05-01T16:10:17.002Z</time></trkpt><trkpt lat="42.14417595440417" lon="8.717017110486715"><ele>39.0</ele><time>2026-05-01T16:10:20.002Z</time></trkpt><trkpt lat="42.144230624034236" lon="8.717137131289531"><ele>39.833333333333336</ele><time>2026-05-01T16:10:21.002Z</time></trkpt><trkpt lat="42.144269083253" lon="8.717217716572144"><ele>40.666666666666664</ele><time>2026-05-01T16:10:22.002Z</time></trkpt><trkpt lat="42.14430387192972" lon="8.717309527403062"><ele>41.5</ele><time>2026-05-01T16:10:23.002Z</time></trkpt><trkpt lat="42.14434009228737" lon="8.717416253012313"><ele>42.33333333333333</ele><time>2026-05-01T16:10:24.002Z</time></trkpt><trkpt lat="42.14437969674068" lon="8.717526947125972"><ele>43.166666666666664</ele><time>2026-05-01T16:10:25.002Z</time></trkpt><trkpt lat="42.14441269907069" lon="8.71762271077349"><ele>44.0</ele><time>2026-05-01T16:10:26.002Z</time></trkpt><trkpt lat="42.1444382410837" lon="8.71771033222892"><ele>44.5</ele><time>2026-05-01T16:10:27.002Z</time></trkpt><trkpt lat="42.14446871716132" lon="8.717804306722266"><ele>45.0</ele><time>2026-05-01T16:10:28.002Z</time></trkpt><trkpt lat="42.14450434548271" lon="8.717910644964364"><ele>45.5</ele><time>2026-05-01T16:10:29.002Z</time></trkpt><trkpt lat="42.144542809994284" lon="8.718020487712995"><ele>46.0</ele><time>2026-05-01T16:10:30.002Z</time></trkpt><trkpt lat="42.14458205014805" lon="8.71813397040374"><ele>46.5</ele><time>2026-05-01T16:10:31.002Z</time></trkpt><trkpt lat="42.144623046454285" lon="8.718250330584839"><ele>47.0</ele><time>2026-05-01T16:10:32.002Z</time></trkpt><trkpt lat="42.144666841924305" lon="8.718370406703894"><ele>47.0</ele><time>2026-05-01T16:10:33.002Z</time></trkpt><trkpt lat="42.14471109287985" lon="8.718497712200657"><ele>47.0</ele><time>2026-05-01T16:10:34.002Z</time></trkpt><trkpt lat="42.14476554164232" lon="8.718619769228177"><ele>47.0</ele><time>2026-05-01T16:10:35.002Z</time></trkpt><trkpt lat="42.14482343055412" lon="8.718744648826371"><ele>47.0</ele><time>2026-05-01T16:10:36.002Z</time></trkpt><trkpt lat="42.14488553835187" lon="8.718876727095473"><ele>47.0</ele><time>2026-05-01T16:10:37.002Z</time></trkpt><trkpt lat="42.144950284626766" lon="8.719008500392976"><ele>47.0</ele><time>2026-05-01T16:10:38.002Z</time></trkpt><trkpt lat="42.14501858852428" lon="8.719147689854827"><ele>47.0</ele><time>2026-05-01T16:10:39.002Z</time></trkpt><trkpt lat="42.14508761398189" lon="8.71929048784547"><ele>47.0</ele><time>2026-05-01T16:10:40.003Z</time></trkpt><trkpt lat="42.14515761753427" lon="8.719439611355943"><ele>47.0</ele><time>2026-05-01T16:10:41.003Z</time></trkpt><trkpt lat="42.14523495315086" lon="8.719595059511906"><ele>48.33333333333333</ele><time>2026-05-01T16:10:42.003Z</time></trkpt><trkpt lat="42.14531633179085" lon="8.719758358270939"><ele>49.666666666666664</ele><time>2026-05-01T16:10:43.003Z</time></trkpt><trkpt lat="42.14540212955325" lon="8.719923944081206"><ele>51.0</ele><time>2026-05-01T16:10:44.003Z</time></trkpt><trkpt lat="42.145490362587" lon="8.720098373579674"><ele>51.0</ele><time>2026-05-01T16:10:45.003Z</time></trkpt><trkpt lat="42.145581550007556" lon="8.720285177358857"><ele>51.0</ele><time>2026-05-01T16:10:46.003Z</time></trkpt><trkpt lat="42.14567416208838" lon="8.720483319679321"><ele>51.0</ele><time>2026-05-01T16:10:47.003Z</time></trkpt><trkpt lat="42.145766836480355" lon="8.720682548988252"><ele>51.0</ele><time>2026-05-01T16:10:48.003Z</time></trkpt><trkpt lat="42.145860088252505" lon="8.720889264889022"><ele>51.0</ele><time>2026-05-01T16:10:49.003Z</time></trkpt><trkpt lat="42.14595587922286" lon="8.72110874710315"><ele>51.0</ele><time>2026-05-01T16:10:50.003Z</time></trkpt><trkpt lat="42.146047311127944" lon="8.721337018756609"><ele>51.66666666666667</ele><time>2026-05-01T16:10:51.003Z</time></trkpt><trkpt lat="42.146131484301456" lon="8.721577975608588"><ele>52.333333333333336</ele><time>2026-05-01T16:10:52.003Z</time></trkpt><trkpt lat="42.146212198187484" lon="8.721825879537288"><ele>53.0</ele><time>2026-05-01T16:10:53.003Z</time></trkpt><trkpt lat="42.146299738669974" lon="8.722079204344633"><ele>53.0</ele><time>2026-05-01T16:10:54.003Z</time></trkpt><trkpt lat="42.14639301528828" lon="8.722329211058025"><ele>53.0</ele><time>2026-05-01T16:10:55.003Z</time></trkpt><trkpt lat="42.14648924239664" lon="8.7225752804068"><ele>53.0</ele><time>2026-05-01T16:10:56.003Z</time></trkpt><trkpt lat="42.146591775924534" lon="8.722819763720581"><ele>53.66666666666667</ele><time>2026-05-01T16:10:57.003Z</time></trkpt><trkpt lat="42.14670914062624" lon="8.723055670108243"><ele>54.33333333333333</ele><time>2026-05-01T16:10:58.003Z</time></trkpt><trkpt lat="42.14684893360528" lon="8.72327924272194"><ele>55.0</ele><time>2026-05-01T16:10:59.003Z</time></trkpt><trkpt lat="42.14700714556693" lon="8.72348267415258"><ele>55.0</ele><time>2026-05-01T16:11:00.003Z</time></trkpt><trkpt lat="42.14718137836836" lon="8.723673325020442"><ele>55.0</ele><time>2026-05-01T16:11:01.003Z</time></trkpt><trkpt lat="42.147362899726645" lon="8.723865289530128"><ele>53.0</ele><time>2026-05-01T16:11:02.003Z</time></trkpt><trkpt lat="42.147541659654074" lon="8.724069228642616"><ele>51.0</ele><time>2026-05-01T16:11:03.003Z</time></trkpt><trkpt lat="42.14771968995759" lon="8.724283660236148"><ele>50.0</ele><time>2026-05-01T16:11:04.003Z</time></trkpt><trkpt lat="42.14790269120863" lon="8.72449315991652"><ele>49.0</ele><time>2026-05-01T16:11:05.003Z</time></trkpt><trkpt lat="42.1480842511326" lon="8.72469415901502"><ele>49.5</ele><time>2026-05-01T16:11:05.997Z</time></trkpt><trkpt lat="42.1482788480197" lon="8.724857773437032"><ele>50.0</ele><time>2026-05-01T16:11:06.997Z</time></trkpt><trkpt lat="42.148488949549495" lon="8.724973476516219"><ele>50.0</ele><time>2026-05-01T16:11:07.997Z</time></trkpt><trkpt lat="42.148704939506764" lon="8.725017483908024"><ele>50.0</ele><time>2026-05-01T16:11:08.997Z</time></trkpt><trkpt lat="42.14890399555324" lon="8.72502041324061"><ele>50.0</ele><time>2026-05-01T16:11:09.998Z</time></trkpt><trkpt lat="42.149085987037914" lon="8.725035965007864"><ele>50.66666666666667</ele><time>2026-05-01T16:11:10.998Z</time></trkpt><trkpt lat="42.1492368642655" lon="8.725141735821555"><ele>51.33333333333333</ele><time>2026-05-01T16:11:11.998Z</time></trkpt><trkpt lat="42.14938906692124" lon="8.725286812404052"><ele>52.0</ele><time>2026-05-01T16:11:12.998Z</time></trkpt><trkpt lat="42.14953533704627" lon="8.725484547997198"><ele>58.0</ele><time>2026-05-01T16:11:13.998Z</time></trkpt><trkpt lat="42.1496804822374" lon="8.725703373524981"><ele>64.0</ele><time>2026-05-01T16:11:14.998Z</time></trkpt><trkpt lat="42.14980491535655" lon="8.725945595248882"><ele>70.0</ele><time>2026-05-01T16:11:15.998Z</time></trkpt><trkpt lat="42.14992997742728" lon="8.726201320363161"><ele>70.5</ele><time>2026-05-01T16:11:16.998Z</time></trkpt><trkpt lat="42.15005904214469" lon="8.726455234592136"><ele>71.0</ele><time>2026-05-01T16:11:17.998Z</time></trkpt><trkpt lat="42.150190642025905" lon="8.726707402682191"><ele>80.0</ele><time>2026-05-01T16:11:18.998Z</time></trkpt><trkpt lat="42.150340613807245" lon="8.726945308868224"><ele>89.0</ele><time>2026-05-01T16:11:19.999Z</time></trkpt><trkpt lat="42.15051463105817" lon="8.727147665988722"><ele>89.0</ele><time>2026-05-01T16:11:20.999Z</time></trkpt><trkpt lat="42.15069666535602" lon="8.72734483701766"><ele>89.0</ele><time>2026-05-01T16:11:21.999Z</time></trkpt><trkpt lat="42.15086007265319" lon="8.727561822873003"><ele>88.33333333333334</ele><time>2026-05-01T16:11:22.999Z</time></trkpt><trkpt lat="42.15102394494214" lon="8.72776391373223"><ele>87.66666666666667</ele><time>2026-05-01T16:11:23.999Z</time></trkpt><trkpt lat="42.151166870556224" lon="8.727985826107913"><ele>87.0</ele><time>2026-05-01T16:11:24.999Z</time></trkpt><trkpt lat="42.15127855430265" lon="8.728239056634886"><ele>87.0</ele><time>2026-05-01T16:11:25.999Z</time></trkpt><trkpt lat="42.15135998414194" lon="8.728465843267495"><ele>87.0</ele><time>2026-05-01T16:11:26.999Z</time></trkpt><trkpt lat="42.15138755454785" lon="8.728656959902125"><ele>87.0</ele><time>2026-05-01T16:11:27.999Z</time></trkpt><trkpt lat="42.151371988772084" lon="8.72882449106781"><ele>89.33333333333333</ele><time>2026-05-01T16:11:28.999Z</time></trkpt><trkpt lat="42.15129193598938" lon="8.729012922519823"><ele>91.66666666666666</ele><time>2026-05-01T16:11:30Z</time></trkpt><trkpt lat="42.15123912733156" lon="8.729234224434046"><ele>94.0</ele><time>2026-05-01T16:11:31Z</time></trkpt><trkpt lat="42.15122529794829" lon="8.7294778727483"><ele>96.66666666666666</ele><time>2026-05-01T16:11:32Z</time></trkpt><trkpt lat="42.15124012166498" lon="8.729725410263015"><ele>99.33333333333333</ele><time>2026-05-01T16:11:33Z</time></trkpt><trkpt lat="42.15124309274017" lon="8.729985226586491"><ele>102.0</ele><time>2026-05-01T16:11:34Z</time></trkpt><trkpt lat="42.151220218119285" lon="8.73024030645392"><ele>102.0</ele><time>2026-05-01T16:11:35Z</time></trkpt><trkpt lat="42.15118455264828" lon="8.730498067584094"><ele>102.0</ele><time>2026-05-01T16:11:36Z</time></trkpt><trkpt lat="42.151120383845125" lon="8.730745829057255"><ele>102.0</ele><time>2026-05-01T16:11:37Z</time></trkpt><trkpt lat="42.151057235460705" lon="8.731000871386186"><ele>100.0</ele><time>2026-05-01T16:11:38Z</time></trkpt><trkpt lat="42.15098741962847" lon="8.7312580262"><ele>98.0</ele><time>2026-05-01T16:11:39Z</time></trkpt><trkpt lat="42.150893234617044" lon="8.73150873774311"><ele>96.0</ele><time>2026-05-01T16:11:40Z</time></trkpt><trkpt lat="42.15080101046392" lon="8.731761597223207"><ele>97.33333333333334</ele><time>2026-05-01T16:11:41Z</time></trkpt><trkpt lat="42.1507180463313" lon="8.732007613073119"><ele>98.66666666666667</ele><time>2026-05-01T16:11:42Z</time></trkpt><trkpt lat="42.15065340180172" lon="8.732224778455379"><ele>100.0</ele><time>2026-05-01T16:11:43Z</time></trkpt><trkpt lat="42.150620107309614" lon="8.732424505165886"><ele>102.25</ele><time>2026-05-01T16:11:44Z</time></trkpt><trkpt lat="42.1506381092052" lon="8.732616292625126"><ele>104.5</ele><time>2026-05-01T16:11:45Z</time></trkpt><trkpt lat="42.150722117932474" lon="8.73278624750142"><ele>106.75</ele><time>2026-05-01T16:11:46Z</time></trkpt><trkpt lat="42.150850021997584" lon="8.732880979889524"><ele>109.0</ele><time>2026-05-01T16:11:47.001Z</time></trkpt><trkpt lat="42.1510010230612" lon="8.7328911353157"><ele>109.0</ele><time>2026-05-01T16:11:48.001Z</time></trkpt><trkpt lat="42.151149446729086" lon="8.732817809506647"><ele>109.0</ele><time>2026-05-01T16:11:49.001Z</time></trkpt><trkpt lat="42.15129276153974" lon="8.732698590206589"><ele>109.0</ele><time>2026-05-01T16:11:50.001Z</time></trkpt><trkpt lat="42.1514277279955" lon="8.732735773420668"><ele>109.0</ele><time>2026-05-01T16:11:51.001Z</time></trkpt><trkpt lat="42.15152149647691" lon="8.73284629004095"><ele>109.0</ele><time>2026-05-01T16:11:52.001Z</time></trkpt><trkpt lat="42.151551309695094" lon="8.733016369001906"><ele>109.0</ele><time>2026-05-01T16:11:53.001Z</time></trkpt><trkpt lat="42.15162121017138" lon="8.733226414475965"><ele>109.0</ele><time>2026-05-01T16:11:54.001Z</time></trkpt><trkpt lat="42.151671961714655" lon="8.733471526686992"><ele>111.33333333333334</ele><time>2026-05-01T16:11:55.001Z</time></trkpt><trkpt lat="42.15173663331175" lon="8.733714481642036"><ele>113.66666666666666</ele><time>2026-05-01T16:11:56.001Z</time></trkpt><trkpt lat="42.151803240686064" lon="8.733956255736148"><ele>116.0</ele><time>2026-05-01T16:11:57.001Z</time></trkpt><trkpt lat="42.15186792374458" lon="8.734204032988051"><ele>119.33333333333333</ele><time>2026-05-01T16:11:58.001Z</time></trkpt><trkpt lat="42.15193854308325" lon="8.734457866133274"><ele>122.66666666666666</ele><time>2026-05-01T16:11:59.001Z</time></trkpt><trkpt lat="42.15202335382798" lon="8.73470163527149"><ele>126.0</ele><time>2026-05-01T16:12:00.001Z</time></trkpt><trkpt lat="42.152118978235016" lon="8.734931185190526"><ele>126.0</ele><time>2026-05-01T16:12:01.001Z</time></trkpt><trkpt lat="42.15222330310892" lon="8.735140602376928"><ele>126.0</ele><time>2026-05-01T16:12:02.001Z</time></trkpt><trkpt lat="42.15234041463602" lon="8.735323828162464"><ele>126.0</ele><time>2026-05-01T16:12:03.001Z</time></trkpt><trkpt lat="42.15247366623731" lon="8.735464469957087"><ele>124.75</ele><time>2026-05-01T16:12:04.001Z</time></trkpt><trkpt lat="42.15259791276295" lon="8.735586578247334"><ele>123.5</ele><time>2026-05-01T16:12:05.001Z</time></trkpt><trkpt lat="42.152662099471634" lon="8.735732589455422"><ele>122.25</ele><time>2026-05-01T16:12:06.001Z</time></trkpt><trkpt lat="42.152635357312" lon="8.735886032705052"><ele>121.0</ele><time>2026-05-01T16:12:07.001Z</time></trkpt><trkpt lat="42.1525578450726" lon="8.736016929249315"><ele>122.33333333333334</ele><time>2026-05-01T16:12:08.001Z</time></trkpt><trkpt lat="42.152440411539416" lon="8.736147633770942"><ele>123.66666666666666</ele><time>2026-05-01T16:12:09.001Z</time></trkpt><trkpt lat="42.15231977798761" lon="8.736296941710773"><ele>125.0</ele><time>2026-05-01T16:12:10.001Z</time></trkpt><trkpt lat="42.15222100148378" lon="8.73647834662766"><ele>129.0</ele><time>2026-05-01T16:12:11.001Z</time></trkpt><trkpt lat="42.15215272338108" lon="8.73669031616708"><ele>133.0</ele><time>2026-05-01T16:12:12.001Z</time></trkpt><trkpt lat="42.1521056907195" lon="8.736916622172155"><ele>137.0</ele><time>2026-05-01T16:12:13.001Z</time></trkpt><trkpt lat="42.15207419901988" lon="8.737159871200149"><ele>138.0</ele><time>2026-05-01T16:12:14.002Z</time></trkpt><trkpt lat="42.152075721947476" lon="8.737413148284146"><ele>139.0</ele><time>2026-05-01T16:12:15.002Z</time></trkpt><trkpt lat="42.15211350443855" lon="8.73765060339511"><ele>140.0</ele><time>2026-05-01T16:12:16.002Z</time></trkpt><trkpt lat="42.15219450040895" lon="8.73785116825364"><ele>142.66666666666666</ele><time>2026-05-01T16:12:17.002Z</time></trkpt><trkpt lat="42.15231844983123" lon="8.738015591038018"><ele>145.33333333333334</ele><time>2026-05-01T16:12:18.002Z</time></trkpt><trkpt lat="42.1524290384244" lon="8.738171296648709"><ele>148.0</ele><time>2026-05-01T16:12:19.002Z</time></trkpt><trkpt lat="42.152462196765235" lon="8.738387127850812"><ele>148.33333333333334</ele><time>2026-05-01T16:12:20.002Z</time></trkpt><trkpt lat="42.152457768263616" lon="8.738605278266325"><ele>148.66666666666666</ele><time>2026-05-01T16:12:21.002Z</time></trkpt><trkpt lat="42.15240725386148" lon="8.738809059521877"><ele>149.0</ele><time>2026-05-01T16:12:22.002Z</time></trkpt><trkpt lat="42.15231081512432" lon="8.738966900392048"><ele>149.0</ele><time>2026-05-01T16:12:23.002Z</time></trkpt><trkpt lat="42.15219629189995" lon="8.739122409431276"><ele>149.0</ele><time>2026-05-01T16:12:24.002Z</time></trkpt><trkpt lat="42.15207457145669" lon="8.739277024244254"><ele>149.0</ele><time>2026-05-01T16:12:25.002Z</time></trkpt><trkpt lat="42.15199487090646" lon="8.739440778372263"><ele>149.25</ele><time>2026-05-01T16:12:26.002Z</time></trkpt><trkpt lat="42.1519716287244" lon="8.739617374863917"><ele>149.5</ele><time>2026-05-01T16:12:27.002Z</time></trkpt><trkpt lat="42.152004458637606" lon="8.739794577278719"><ele>149.75</ele><time>2026-05-01T16:12:28.002Z</time></trkpt><trkpt lat="42.15208473210672" lon="8.739958451412004"><ele>150.0</ele><time>2026-05-01T16:12:29.002Z</time></trkpt><trkpt lat="42.1521423171535" lon="8.740120017100415"><ele>150.25</ele><time>2026-05-01T16:12:30.002Z</time></trkpt><trkpt lat="42.152130106782124" lon="8.74028133174885"><ele>150.5</ele><time>2026-05-01T16:12:31.002Z</time></trkpt><trkpt lat="42.15203196048224" lon="8.740390869827024"><ele>150.75</ele><time>2026-05-01T16:12:32.002Z</time></trkpt><trkpt lat="42.151903101117696" lon="8.740435885275778"><ele>151.0</ele><time>2026-05-01T16:12:33.002Z</time></trkpt><trkpt lat="42.1517424574338" lon="8.740448377185816"><ele>151.0</ele><time>2026-05-01T16:12:34.002Z</time></trkpt><trkpt lat="42.15157108933038" lon="8.740450405585172"><ele>151.0</ele><time>2026-05-01T16:12:35.002Z</time></trkpt><trkpt lat="42.1514140815618" lon="8.740415820024086"><ele>151.0</ele><time>2026-05-01T16:12:36.002Z</time></trkpt><trkpt lat="42.15129087850108" lon="8.740278011096999"><ele>153.33333333333334</ele><time>2026-05-01T16:12:37.002Z</time></trkpt><trkpt lat="42.15115916770828" lon="8.740137049499724"><ele>155.66666666666666</ele><time>2026-05-01T16:12:38.002Z</time></trkpt><trkpt lat="42.15104740031336" lon="8.739968127599305"><ele>158.0</ele><time>2026-05-01T16:12:39.002Z</time></trkpt><trkpt lat="42.15089964120145" lon="8.739887100046467"><ele>158.0</ele><time>2026-05-01T16:12:40.002Z</time></trkpt><trkpt lat="42.15073278914603" lon="8.739868062895285"><ele>158.0</ele><time>2026-05-01T16:12:41.002Z</time></trkpt><trkpt lat="42.15055872326662" lon="8.73991463029933"><ele>158.0</ele><time>2026-05-01T16:12:42.002Z</time></trkpt><trkpt lat="42.15038614966839" lon="8.740017487519797"><ele>160.66666666666666</ele><time>2026-05-01T16:12:43.002Z</time></trkpt><trkpt lat="42.15022227417665" lon="8.740114024852453"><ele>163.33333333333334</ele><time>2026-05-01T16:12:44.002Z</time></trkpt><trkpt lat="42.15005112428763" lon="8.740156789328635"><ele>166.0</ele><time>2026-05-01T16:12:45.002Z</time></trkpt><trkpt lat="42.14990708469161" lon="8.740172392481817"><ele>168.75</ele><time>2026-05-01T16:12:46.003Z</time></trkpt><trkpt lat="42.14978854916821" lon="8.740225723823313"><ele>171.5</ele><time>2026-05-01T16:12:47.003Z</time></trkpt><trkpt lat="42.14971913041314" lon="8.740361466249858"><ele>174.25</ele><time>2026-05-01T16:12:48.003Z</time></trkpt><trkpt lat="42.14969046151951" lon="8.740565931382402"><ele>177.0</ele><time>2026-05-01T16:12:49.003Z</time></trkpt><trkpt lat="42.14970694557971" lon="8.740814768789479"><ele>177.0</ele><time>2026-05-01T16:12:50.003Z</time></trkpt><trkpt lat="42.14973471997377" lon="8.741047288262461"><ele>177.0</ele><time>2026-05-01T16:12:51.003Z</time></trkpt><trkpt lat="42.149757510588394" lon="8.741286415167018"><ele>177.0</ele><time>2026-05-01T16:12:52.003Z</time></trkpt><trkpt lat="42.149770624315295" lon="8.74152652629302"><ele>178.33333333333334</ele><time>2026-05-01T16:12:53.003Z</time></trkpt><trkpt lat="42.14978560426968" lon="8.74176717526484"><ele>179.66666666666669</ele><time>2026-05-01T16:12:54.003Z</time></trkpt><trkpt lat="42.14979522994088" lon="8.742005639866544"><ele>181.0</ele><time>2026-05-01T16:12:55.003Z</time></trkpt><trkpt lat="42.14980670572009" lon="8.74225123388495"><ele>183.66666666666669</ele><time>2026-05-01T16:12:56.003Z</time></trkpt><trkpt lat="42.14982276904052" lon="8.742494921500674"><ele>186.33333333333334</ele><time>2026-05-01T16:12:57.003Z</time></trkpt><trkpt lat="42.149839415528504" lon="8.742741194120423"><ele>189.0</ele><time>2026-05-01T16:12:58.003Z</time></trkpt><trkpt lat="42.149852408600985" lon="8.742978748300633"><ele>189.66666666666666</ele><time>2026-05-01T16:12:59.003Z</time></trkpt><trkpt lat="42.149872033997084" lon="8.74320715514016"><ele>190.33333333333331</ele><time>2026-05-01T16:13:00.003Z</time></trkpt><trkpt lat="42.1499113668885" lon="8.743413081922277"><ele>191.0</ele><time>2026-05-01T16:13:01.003Z</time></trkpt><trkpt lat="42.149992828721416" lon="8.743594499855565"><ele>191.0</ele><time>2026-05-01T16:13:02.003Z</time></trkpt><trkpt lat="42.15009825897317" lon="8.743750832345764"><ele>191.0</ele><time>2026-05-01T16:13:03.003Z</time></trkpt><trkpt lat="42.150206188940516" lon="8.743913084280829"><ele>191.0</ele><time>2026-05-01T16:13:04.003Z</time></trkpt><trkpt lat="42.150308629149045" lon="8.744087381227377"><ele>191.0</ele><time>2026-05-01T16:13:05.003Z</time></trkpt><trkpt lat="42.1503890434541" lon="8.74428360787659"><ele>191.0</ele><time>2026-05-01T16:13:06.003Z</time></trkpt><trkpt lat="42.15048208897464" lon="8.744471336108836"><ele>191.0</ele><time>2026-05-01T16:13:07.003Z</time></trkpt><trkpt lat="42.150544269155006" lon="8.744684436108733"><ele>194.0</ele><time>2026-05-01T16:13:08.003Z</time></trkpt><trkpt lat="42.150593271425514" lon="8.744907740805646"><ele>197.0</ele><time>2026-05-01T16:13:09.003Z</time></trkpt><trkpt lat="42.1506323398826" lon="8.745143163987919"><ele>200.0</ele><time>2026-05-01T16:13:10.003Z</time></trkpt><trkpt lat="42.150680179733826" lon="8.745389618892792"><ele>199.0</ele><time>2026-05-01T16:13:11.003Z</time></trkpt><trkpt lat="42.15073081152416" lon="8.745644976676193"><ele>198.0</ele><time>2026-05-01T16:13:11.997Z</time></trkpt><trkpt lat="42.15078141301502" lon="8.745904625767015"><ele>197.0</ele><time>2026-05-01T16:13:12.997Z</time></trkpt><trkpt lat="42.15083524897302" lon="8.746175306009782"><ele>199.33333333333334</ele><time>2026-05-01T16:13:13.998Z</time></trkpt><trkpt lat="42.15089528663861" lon="8.7464532854901"><ele>201.66666666666669</ele><time>2026-05-01T16:13:14.998Z</time></trkpt><trkpt lat="42.15096235463975" lon="8.746731709553238"><ele>204.0</ele><time>2026-05-01T16:13:15.998Z</time></trkpt><trkpt lat="42.15103931610865" lon="8.747011188185217"><ele>206.0</ele><time>2026-05-01T16:13:16.998Z</time></trkpt><trkpt lat="42.15112168317915" lon="8.74729077042227"><ele>208.0</ele><time>2026-05-01T16:13:17.998Z</time></trkpt><trkpt lat="42.15121213154594" lon="8.747571418311457"><ele>209.33333333333331</ele><time>2026-05-01T16:13:18.998Z</time></trkpt><trkpt lat="42.15131409073228" lon="8.747841185610406"><ele>210.66666666666669</ele><time>2026-05-01T16:13:19.998Z</time></trkpt><trkpt lat="42.15143023747378" lon="8.748087710741736"><ele>212.0</ele><time>2026-05-01T16:13:20.998Z</time></trkpt><trkpt lat="42.1515669215875" lon="8.748295649587543"><ele>212.0</ele><time>2026-05-01T16:13:21.998Z</time></trkpt><trkpt lat="42.15172994788405" lon="8.748452493740086"><ele>212.0</ele><time>2026-05-01T16:13:22.999Z</time></trkpt><trkpt lat="42.151910072805" lon="8.748579036998146"><ele>212.0</ele><time>2026-05-01T16:13:23.999Z</time></trkpt><trkpt lat="42.15204051135549" lon="8.748759270927064"><ele>218.33333333333334</ele><time>2026-05-01T16:13:24.999Z</time></trkpt><trkpt lat="42.152156188846554" lon="8.748969180999625"><ele>224.66666666666669</ele><time>2026-05-01T16:13:25.999Z</time></trkpt><trkpt lat="42.15225881438342" lon="8.749221710396993"><ele>231.0</ele><time>2026-05-01T16:13:26.999Z</time></trkpt><trkpt lat="42.152351480259206" lon="8.749500366648522"><ele>228.0</ele><time>2026-05-01T16:13:27.999Z</time></trkpt><trkpt lat="42.152421157490174" lon="8.749780019831048"><ele>225.0</ele><time>2026-05-01T16:13:28.999Z</time></trkpt><trkpt lat="42.1524677456627" lon="8.750070153314216"><ele>222.0</ele><time>2026-05-01T16:13:29.999Z</time></trkpt><trkpt lat="42.15246957496861" lon="8.75034210140419"><ele>222.0</ele><time>2026-05-01T16:13:30.999Z</time></trkpt><trkpt lat="42.152444788966136" lon="8.7506313649782"><ele>222.0</ele><time>2026-05-01T16:13:31.999Z</time></trkpt><trkpt lat="42.15241824391497" lon="8.750933570722749"><ele>222.0</ele><time>2026-05-01T16:13:32.999Z</time></trkpt><trkpt lat="42.15238122894419" lon="8.751225181155402"><ele>228.33333333333331</ele><time>2026-05-01T16:13:33.999Z</time></trkpt><trkpt lat="42.152263273226744" lon="8.751464685859137"><ele>234.66666666666666</ele><time>2026-05-01T16:13:35Z</time></trkpt><trkpt lat="42.152124946757496" lon="8.751692654444032"><ele>241.0</ele><time>2026-05-01T16:13:36Z</time></trkpt><trkpt lat="42.15199342490282" lon="8.751935771174484"><ele>241.0</ele><time>2026-05-01T16:13:37Z</time></trkpt><trkpt lat="42.1518642046267" lon="8.752126700663243"><ele>241.0</ele><time>2026-05-01T16:13:38Z</time></trkpt><trkpt lat="42.151771690749314" lon="8.752324167461445"><ele>241.0</ele><time>2026-05-01T16:13:39Z</time></trkpt><trkpt lat="42.15173914174422" lon="8.752525471605201"><ele>241.66666666666666</ele><time>2026-05-01T16:13:40Z</time></trkpt><trkpt lat="42.151767811907916" lon="8.75274130152044"><ele>242.33333333333331</ele><time>2026-05-01T16:13:41Z</time></trkpt><trkpt lat="42.151869936647344" lon="8.752904823297698"><ele>243.0</ele><time>2026-05-01T16:13:42Z</time></trkpt><trkpt lat="42.1520007072907" lon="8.753062388995545"><ele>243.0</ele><time>2026-05-01T16:13:43Z</time></trkpt><trkpt lat="42.152097360210014" lon="8.753251321380123"><ele>243.0</ele><time>2026-05-01T16:13:44Z</time></trkpt><trkpt lat="42.15215513170898" lon="8.753424645810314"><ele>243.0</ele><time>2026-05-01T16:13:45Z</time></trkpt><trkpt lat="42.15214409046606" lon="8.75358185583609"><ele>243.0</ele><time>2026-05-01T16:13:46Z</time></trkpt><trkpt lat="42.15207101641812" lon="8.753716630021358"><ele>242.66666666666669</ele><time>2026-05-01T16:13:47Z</time></trkpt><trkpt lat="42.151954121165424" lon="8.753839812951774"><ele>242.33333333333334</ele><time>2026-05-01T16:13:48Z</time></trkpt><trkpt lat="42.15179116471515" lon="8.753910857720124"><ele>242.0</ele><time>2026-05-01T16:13:49Z</time></trkpt><trkpt lat="42.15161803869354" lon="8.754001882741147"><ele>246.33333333333334</ele><time>2026-05-01T16:13:50Z</time></trkpt><trkpt lat="42.15144808810404" lon="8.754085556717248"><ele>250.66666666666669</ele><time>2026-05-01T16:13:51Z</time></trkpt><trkpt lat="42.15131633321438" lon="8.754228993373001"><ele>255.0</ele><time>2026-05-01T16:13:52.001Z</time></trkpt><trkpt lat="42.1512298305954" lon="8.75441670225212"><ele>255.0</ele><time>2026-05-01T16:13:53.001Z</time></trkpt><trkpt lat="42.15120152725539" lon="8.75462943129546"><ele>255.0</ele><time>2026-05-01T16:13:54.001Z</time></trkpt><trkpt lat="42.15125194724428" lon="8.754833721562362"><ele>255.0</ele><time>2026-05-01T16:13:55.001Z</time></trkpt><trkpt lat="42.15130031782719" lon="8.755031891249075"><ele>255.0</ele><time>2026-05-01T16:13:56.001Z</time></trkpt><trkpt lat="42.15133031819576" lon="8.755192768168424"><ele>255.0</ele><time>2026-05-01T16:13:57.001Z</time></trkpt><trkpt lat="42.151364981201716" lon="8.755334003394225"><ele>255.0</ele><time>2026-05-01T16:13:58.001Z</time></trkpt><trkpt lat="42.151815239795894" lon="8.755374401965684"><ele>255.66666666666669</ele><time>2026-05-01T16:13:59.001Z</time></trkpt><trkpt lat="42.151908573051124" lon="8.755571952520349"><ele>256.33333333333337</ele><time>2026-05-01T16:14:00.001Z</time></trkpt><trkpt lat="42.151954076753896" lon="8.75579898048222"><ele>257.0</ele><time>2026-05-01T16:14:01.001Z</time></trkpt><trkpt lat="42.15196404781456" lon="8.756054493510092"><ele>260.33333333333337</ele><time>2026-05-01T16:14:02.001Z</time></trkpt><trkpt lat="42.15196678319236" lon="8.756314577971157"><ele>263.6666666666667</ele><time>2026-05-01T16:14:03.001Z</time></trkpt><trkpt lat="42.151967057670795" lon="8.75657579056127"><ele>267.0</ele><time>2026-05-01T16:14:04.001Z</time></trkpt><trkpt lat="42.15196700908139" lon="8.756810164131979"><ele>270.0</ele><time>2026-05-01T16:14:05.001Z</time></trkpt><trkpt lat="42.151998011400536" lon="8.757004905169962"><ele>273.0</ele><time>2026-05-01T16:14:06.001Z</time></trkpt><trkpt lat="42.152077804082516" lon="8.757151468461533"><ele>276.0</ele><time>2026-05-01T16:14:07.001Z</time></trkpt><trkpt lat="42.152190751060935" lon="8.757195741322116"><ele>279.0</ele><time>2026-05-01T16:14:08.001Z</time></trkpt><trkpt lat="42.15230303424335" lon="8.75714890003506"><ele>277.3333333333333</ele><time>2026-05-01T16:14:09.001Z</time></trkpt><trkpt lat="42.15239542454123" lon="8.756999122654078"><ele>275.66666666666663</ele><time>2026-05-01T16:14:10.001Z</time></trkpt><trkpt lat="42.15244700090065" lon="8.75677842270136"><ele>274.0</ele><time>2026-05-01T16:14:11.001Z</time></trkpt><trkpt lat="42.15247874447198" lon="8.75652495937509"><ele>273.0</ele><time>2026-05-01T16:14:12.001Z</time></trkpt><trkpt lat="42.15251628878757" lon="8.756272817608698"><ele>272.0</ele><time>2026-05-01T16:14:13.001Z</time></trkpt><trkpt lat="42.152556169260976" lon="8.756040530223833"><ele>271.0</ele><time>2026-05-01T16:14:14.001Z</time></trkpt><trkpt lat="42.15262205077383" lon="8.75583427892331"><ele>269.0</ele><time>2026-05-01T16:14:15.001Z</time></trkpt><trkpt lat="42.15272948803456" lon="8.755671504467067"><ele>267.0</ele><time>2026-05-01T16:14:16.001Z</time></trkpt><trkpt lat="42.15286926037073" lon="8.755563994535345"><ele>265.0</ele><time>2026-05-01T16:14:17.001Z</time></trkpt><trkpt lat="42.15301827917215" lon="8.755497311480234"><ele>265.0</ele><time>2026-05-01T16:14:18.001Z</time></trkpt><trkpt lat="42.153165968175905" lon="8.75544516854904"><ele>265.0</ele><time>2026-05-01T16:14:19.002Z</time></trkpt><trkpt lat="42.153312851803854" lon="8.755403196809247"><ele>265.0</ele><time>2026-05-01T16:14:20.002Z</time></trkpt><trkpt lat="42.15345626646415" lon="8.755353758301109"><ele>264.75</ele><time>2026-05-01T16:14:21.002Z</time></trkpt><trkpt lat="42.15358998729765" lon="8.755283234058975"><ele>264.5</ele><time>2026-05-01T16:14:22.002Z</time></trkpt><trkpt lat="42.1536972198488" lon="8.755158777835558"><ele>264.25</ele><time>2026-05-01T16:14:23.002Z</time></trkpt><trkpt lat="42.153799634954375" lon="8.755008482600491"><ele>264.0</ele><time>2026-05-01T16:14:24.002Z</time></trkpt><trkpt lat="42.153919070579455" lon="8.75489637333576"><ele>267.5</ele><time>2026-05-01T16:14:25.002Z</time></trkpt><trkpt lat="42.15404675705908" lon="8.754813760143568"><ele>271.0</ele><time>2026-05-01T16:14:26.002Z</time></trkpt><trkpt lat="42.15417786014546" lon="8.754804247431201"><ele>274.5</ele><time>2026-05-01T16:14:27.002Z</time></trkpt><trkpt lat="42.154281579294555" lon="8.754858701355026"><ele>278.0</ele><time>2026-05-01T16:14:28.002Z</time></trkpt><trkpt lat="42.15436245347146" lon="8.754963305413023"><ele>278.0</ele><time>2026-05-01T16:14:29.002Z</time></trkpt><trkpt lat="42.15442775414571" lon="8.75511538513301"><ele>278.0</ele><time>2026-05-01T16:14:30.002Z</time></trkpt><trkpt lat="42.154492510918665" lon="8.755284951148255"><ele>278.0</ele><time>2026-05-01T16:14:31.002Z</time></trkpt><trkpt lat="42.15456306700135" lon="8.755457257385194"><ele>278.0</ele><time>2026-05-01T16:14:32.002Z</time></trkpt><trkpt lat="42.154629408830765" lon="8.75564139532141"><ele>281.75</ele><time>2026-05-01T16:14:33.002Z</time></trkpt><trkpt lat="42.154686546792206" lon="8.755800780207652"><ele>285.5</ele><time>2026-05-01T16:14:34.002Z</time></trkpt><trkpt lat="42.15474290350979" lon="8.755939358559214"><ele>289.25</ele><time>2026-05-01T16:14:35.002Z</time></trkpt><trkpt lat="42.15479046208518" lon="8.756082250826445"><ele>293.0</ele><time>2026-05-01T16:14:36.002Z</time></trkpt><trkpt lat="42.154843318521316" lon="8.756239025229352"><ele>293.0</ele><time>2026-05-01T16:14:37.002Z</time></trkpt><trkpt lat="42.154893687997955" lon="8.756406226128759"><ele>293.0</ele><time>2026-05-01T16:14:38.002Z</time></trkpt><trkpt lat="42.15494611251583" lon="8.756572649745312"><ele>293.0</ele><time>2026-05-01T16:14:39.002Z</time></trkpt><trkpt lat="42.15500539975003" lon="8.756717201556906"><ele>293.0</ele><time>2026-05-01T16:14:40.002Z</time></trkpt><trkpt lat="42.15505888076231" lon="8.75683399310136"><ele>293.0</ele><time>2026-05-01T16:14:41.002Z</time></trkpt><trkpt lat="42.155138199035186" lon="8.756907971024203"><ele>293.0</ele><time>2026-05-01T16:14:42.002Z</time></trkpt><trkpt lat="42.15523527128176" lon="8.75692042527165"><ele>293.0</ele><time>2026-05-01T16:14:43.002Z</time></trkpt><trkpt lat="42.15533531127445" lon="8.756894851563136"><ele>293.0</ele><time>2026-05-01T16:14:44.002Z</time></trkpt><trkpt lat="42.15544498221038" lon="8.756826199815894"><ele>293.0</ele><time>2026-05-01T16:14:45.002Z</time></trkpt><trkpt lat="42.15555637171714" lon="8.756716986347474"><ele>293.0</ele><time>2026-05-01T16:14:46.002Z</time></trkpt><trkpt lat="42.15566853901124" lon="8.756594643888077"><ele>293.0</ele><time>2026-05-01T16:14:47.002Z</time></trkpt><trkpt lat="42.15579418423795" lon="8.756498013061346"><ele>293.0</ele><time>2026-05-01T16:14:48.002Z</time></trkpt><trkpt lat="42.15594357777327" lon="8.756446212978393"><ele>293.0</ele><time>2026-05-01T16:14:49.002Z</time></trkpt><trkpt lat="42.156094053712565" lon="8.756393888019925"><ele>294.6666666666667</ele><time>2026-05-01T16:14:50.002Z</time></trkpt><trkpt lat="42.15623879749936" lon="8.756302314235521"><ele>296.3333333333333</ele><time>2026-05-01T16:14:51.002Z</time></trkpt><trkpt lat="42.15639483747534" lon="8.7562322561845"><ele>298.0</ele><time>2026-05-01T16:14:52.003Z</time></trkpt><trkpt lat="42.15656012474397" lon="8.75622045055531"><ele>301.0</ele><time>2026-05-01T16:14:53.003Z</time></trkpt><trkpt lat="42.156723861574434" lon="8.756252265970838"><ele>304.0</ele><time>2026-05-01T16:14:54.003Z</time></trkpt><trkpt lat="42.15687644354254" lon="8.756338378799395"><ele>307.0</ele><time>2026-05-01T16:14:55.003Z</time></trkpt><trkpt lat="42.15704238744378" lon="8.75639981282111"><ele>307.0</ele><time>2026-05-01T16:14:56.003Z</time></trkpt><trkpt lat="42.15719491882444" lon="8.756496143426821"><ele>307.0</ele><time>2026-05-01T16:14:57.003Z</time></trkpt><trkpt lat="42.15731921196073" lon="8.756624084721775"><ele>307.0</ele><time>2026-05-01T16:14:58.003Z</time></trkpt><trkpt lat="42.15741308621646" lon="8.756797408364685"><ele>311.0</ele><time>2026-05-01T16:14:59.003Z</time></trkpt><trkpt lat="42.15748150869664" lon="8.75699368301617"><ele>315.0</ele><time>2026-05-01T16:15:00.003Z</time></trkpt><trkpt lat="42.15753812088163" lon="8.757202640736464"><ele>319.0</ele><time>2026-05-01T16:15:01.003Z</time></trkpt><trkpt lat="42.15761226405498" lon="8.757393368758622"><ele>319.0</ele><time>2026-05-01T16:15:02.003Z</time></trkpt><trkpt lat="42.1577071453775" lon="8.757551349249612"><ele>319.0</ele><time>2026-05-01T16:15:03.003Z</time></trkpt><trkpt lat="42.15780302726238" lon="8.75766774795559"><ele>319.0</ele><time>2026-05-01T16:15:04.003Z</time></trkpt><trkpt lat="42.15790889615957" lon="8.757680332302952"><ele>319.0</ele><time>2026-05-01T16:15:05.003Z</time></trkpt><trkpt lat="42.1580226404929" lon="8.757615399064683"><ele>319.0</ele><time>2026-05-01T16:15:06.003Z</time></trkpt><trkpt lat="42.15810716945308" lon="8.75747528365235"><ele>319.0</ele><time>2026-05-01T16:15:07.003Z</time></trkpt><trkpt lat="42.15813706591346" lon="8.757280688195316"><ele>319.0</ele><time>2026-05-01T16:15:08.003Z</time></trkpt><trkpt lat="42.1581573017613" lon="8.757084309517863"><ele>319.0</ele><time>2026-05-01T16:15:09.003Z</time></trkpt><trkpt lat="42.15817366720043" lon="8.756891434066564"><ele>317.75</ele><time>2026-05-01T16:15:10.003Z</time></trkpt><trkpt lat="42.15819237962175" lon="8.756685215590306"><ele>316.5</ele><time>2026-05-01T16:15:11.003Z</time></trkpt><trkpt lat="42.15821822929713" lon="8.756497765862322"><ele>315.25</ele><time>2026-05-01T16:15:12.003Z</time></trkpt><trkpt lat="42.1583021148505" lon="8.75635716865475"><ele>314.0</ele><time>2026-05-01T16:15:13.003Z</time></trkpt><trkpt lat="42.15841672730994" lon="8.756290467968238"><ele>314.0</ele><time>2026-05-01T16:15:14.003Z</time></trkpt><trkpt lat="42.15851985387063" lon="8.756325068877686"><ele>314.0</ele><time>2026-05-01T16:15:15.003Z</time></trkpt><trkpt lat="42.15859241455861" lon="8.756437217794392"><ele>314.0</ele><time>2026-05-01T16:15:16.003Z</time></trkpt><trkpt lat="42.158661526110016" lon="8.756601328912915"><ele>314.0</ele><time>2026-05-01T16:15:17.003Z</time></trkpt><trkpt lat="42.15875223979024" lon="8.75676307346243"><ele>315.6666666666667</ele><time>2026-05-01T16:15:17.998Z</time></trkpt><trkpt lat="42.15886901441307" lon="8.756941078784736"><ele>317.3333333333333</ele><time>2026-05-01T16:15:18.998Z</time></trkpt><trkpt lat="42.15899650267515" lon="8.757122418476081"><ele>319.0</ele><time>2026-05-01T16:15:19.998Z</time></trkpt><trkpt lat="42.15913593517445" lon="8.757299806011382"><ele>321.66666666666663</ele><time>2026-05-01T16:15:20.998Z</time></trkpt><trkpt lat="42.15929356661697" lon="8.757467888043676"><ele>324.3333333333333</ele><time>2026-05-01T16:15:21.999Z</time></trkpt><trkpt lat="42.15945649825616" lon="8.757624977821118"><ele>327.0</ele><time>2026-05-01T16:15:22.999Z</time></trkpt><trkpt lat="42.15962626743966" lon="8.757753577612991"><ele>331.0</ele><time>2026-05-01T16:15:23.999Z</time></trkpt><trkpt lat="42.15981343366588" lon="8.757834658399183"><ele>335.0</ele><time>2026-05-01T16:15:24.999Z</time></trkpt><trkpt lat="42.159984561018604" lon="8.757892676014947"><ele>339.0</ele><time>2026-05-01T16:15:25.999Z</time></trkpt><trkpt lat="42.160146057711756" lon="8.757989541528003"><ele>339.0</ele><time>2026-05-01T16:15:26.999Z</time></trkpt><trkpt lat="42.16025539909646" lon="8.758172329448882"><ele>339.0</ele><time>2026-05-01T16:15:27.999Z</time></trkpt><trkpt lat="42.16037429413219" lon="8.758383213738702"><ele>339.0</ele><time>2026-05-01T16:15:28.999Z</time></trkpt><trkpt lat="42.16047430596073" lon="8.758619153333875"><ele>347.6666666666667</ele><time>2026-05-01T16:15:29.999Z</time></trkpt><trkpt lat="42.16052615416136" lon="8.75888568987263"><ele>356.33333333333337</ele><time>2026-05-01T16:15:30.999Z</time></trkpt><trkpt lat="42.1605931207375" lon="8.759170503251628"><ele>365.0</ele><time>2026-05-01T16:15:31.999Z</time></trkpt><trkpt lat="42.160676274853394" lon="8.75944029812547"><ele>358.0</ele><time>2026-05-01T16:15:32.999Z</time></trkpt><trkpt lat="42.16082279008482" lon="8.759694078510195"><ele>351.0</ele><time>2026-05-01T16:15:33.999Z</time></trkpt><trkpt lat="42.1609830894659" lon="8.759944908958323"><ele>351.0</ele><time>2026-05-01T16:15:34.999Z</time></trkpt><trkpt lat="42.16113745269057" lon="8.760196875835307"><ele>351.0</ele><time>2026-05-01T16:15:35.999Z</time></trkpt><trkpt lat="42.161270508660856" lon="8.760462435481625"><ele>350.3333333333333</ele><time>2026-05-01T16:15:37Z</time></trkpt><trkpt lat="42.161402634149546" lon="8.760690370477723"><ele>349.66666666666663</ele><time>2026-05-01T16:15:38Z</time></trkpt><trkpt lat="42.16151460276739" lon="8.760886415279037"><ele>349.0</ele><time>2026-05-01T16:15:39Z</time></trkpt><trkpt lat="42.16158011873952" lon="8.7610653528082"><ele>349.0</ele><time>2026-05-01T16:15:40Z</time></trkpt><trkpt lat="42.16156377585636" lon="8.761247962416551"><ele>349.0</ele><time>2026-05-01T16:15:41Z</time></trkpt><trkpt lat="42.16153954570513" lon="8.76149042688314"><ele>349.0</ele><time>2026-05-01T16:15:42Z</time></trkpt><trkpt lat="42.16157199349374" lon="8.76176269791443"><ele>352.0</ele><time>2026-05-01T16:15:43Z</time></trkpt><trkpt lat="42.161643803689735" lon="8.762035714373637"><ele>355.0</ele><time>2026-05-01T16:15:44Z</time></trkpt><trkpt lat="42.16170237454807" lon="8.762322004894644"><ele>358.0</ele><time>2026-05-01T16:15:45Z</time></trkpt><trkpt lat="42.16176513853771" lon="8.762602639617244"><ele>362.66666666666663</ele><time>2026-05-01T16:15:46Z</time></trkpt><trkpt lat="42.16181936583944" lon="8.762880974099781"><ele>367.3333333333333</ele><time>2026-05-01T16:15:47Z</time></trkpt><trkpt lat="42.16186486724848" lon="8.763163700110198"><ele>372.0</ele><time>2026-05-01T16:15:48Z</time></trkpt><trkpt lat="42.161876813542285" lon="8.76344913657913"><ele>373.6666666666667</ele><time>2026-05-01T16:15:49Z</time></trkpt><trkpt lat="42.16187378984542" lon="8.763741074957048"><ele>375.33333333333337</ele><time>2026-05-01T16:15:50Z</time></trkpt><trkpt lat="42.161870437244865" lon="8.764031828260286"><ele>377.0</ele><time>2026-05-01T16:15:51Z</time></trkpt><trkpt lat="42.16186656867372" lon="8.764306668284108"><ele>371.0</ele><time>2026-05-01T16:15:52Z</time></trkpt><trkpt lat="42.16186073923593" lon="8.764549258934371"><ele>365.0</ele><time>2026-05-01T16:15:53Z</time></trkpt><trkpt lat="42.161824688606224" lon="8.764757938622838"><ele>359.0</ele><time>2026-05-01T16:15:54Z</time></trkpt><trkpt lat="42.161746527534646" lon="8.76492105175854"><ele>359.0</ele><time>2026-05-01T16:15:55.001Z</time></trkpt><trkpt lat="42.16163399716191" lon="8.76503244570938"><ele>359.0</ele><time>2026-05-01T16:15:56.001Z</time></trkpt><trkpt lat="42.16151180698056" lon="8.765158182721263"><ele>359.0</ele><time>2026-05-01T16:15:57.001Z</time></trkpt><trkpt lat="42.16141110451473" lon="8.765317137303144"><ele>359.0</ele><time>2026-05-01T16:15:58.001Z</time></trkpt><trkpt lat="42.16136635867793" lon="8.765551959236989"><ele>366.6666666666667</ele><time>2026-05-01T16:15:59.001Z</time></trkpt><trkpt lat="42.16130822594379" lon="8.765782361803929"><ele>374.3333333333333</ele><time>2026-05-01T16:16:00.001Z</time></trkpt><trkpt lat="42.16123330771074" lon="8.76597825694497"><ele>382.0</ele><time>2026-05-01T16:16:01.001Z</time></trkpt><trkpt lat="42.16112691245238" lon="8.766137557533673"><ele>382.0</ele><time>2026-05-01T16:16:02.001Z</time></trkpt><trkpt lat="42.16102025558035" lon="8.766317505690026"><ele>382.0</ele><time>2026-05-01T16:16:03.001Z</time></trkpt><trkpt lat="42.16092457693745" lon="8.766494071162505"><ele>382.0</ele><time>2026-05-01T16:16:04.001Z</time></trkpt><trkpt lat="42.16087308112741" lon="8.766710525910302"><ele>380.3333333333333</ele><time>2026-05-01T16:16:05.001Z</time></trkpt><trkpt lat="42.16085479830019" lon="8.766960892045992"><ele>378.6666666666667</ele><time>2026-05-01T16:16:06.001Z</time></trkpt><trkpt lat="42.16082020254127" lon="8.767225950650573"><ele>377.0</ele><time>2026-05-01T16:16:07.001Z</time></trkpt><trkpt lat="42.16078969012783" lon="8.767481901373436"><ele>375.6666666666667</ele><time>2026-05-01T16:16:08.001Z</time></trkpt><trkpt lat="42.16075935936744" lon="8.767736328313536"><ele>374.3333333333333</ele><time>2026-05-01T16:16:09.001Z</time></trkpt><trkpt lat="42.16074843184664" lon="8.76799373768119"><ele>373.0</ele><time>2026-05-01T16:16:10.001Z</time></trkpt><trkpt lat="42.16070995367575" lon="8.76824040011173"><ele>384.66666666666663</ele><time>2026-05-01T16:16:11.001Z</time></trkpt><trkpt lat="42.16064906372233" lon="8.768484129668606"><ele>396.3333333333333</ele><time>2026-05-01T16:16:12.001Z</time></trkpt><trkpt lat="42.16056849701343" lon="8.768714282315395"><ele>408.0</ele><time>2026-05-01T16:16:13.001Z</time></trkpt><trkpt lat="42.160480507197555" lon="8.768930422579253"><ele>408.0</ele><time>2026-05-01T16:16:14.001Z</time></trkpt><trkpt lat="42.16040108048791" lon="8.769158183028779"><ele>408.0</ele><time>2026-05-01T16:16:15.001Z</time></trkpt><trkpt lat="42.160329686908305" lon="8.769393504414529"><ele>408.0</ele><time>2026-05-01T16:16:16.001Z</time></trkpt><trkpt lat="42.16026022095913" lon="8.769626658701721"><ele>405.33333333333337</ele><time>2026-05-01T16:16:17.001Z</time></trkpt><trkpt lat="42.16020443246694" lon="8.769845936087137"><ele>402.6666666666667</ele><time>2026-05-01T16:16:18.001Z</time></trkpt><trkpt lat="42.16017953187185" lon="8.77006222274298"><ele>400.0</ele><time>2026-05-01T16:16:19.001Z</time></trkpt><trkpt lat="42.16019726799387" lon="8.770285121388358"><ele>397.75</ele><time>2026-05-01T16:16:20.001Z</time></trkpt><trkpt lat="42.16022015661215" lon="8.770495877001771"><ele>395.5</ele><time>2026-05-01T16:16:21.001Z</time></trkpt><trkpt lat="42.160210243123025" lon="8.770688469076132"><ele>393.25</ele><time>2026-05-01T16:16:22.002Z</time></trkpt><trkpt lat="42.1601565763817" lon="8.770864697487752"><ele>391.0</ele><time>2026-05-01T16:16:23.002Z</time></trkpt><trkpt lat="42.16003925057142" lon="8.770996215033563"><ele>393.25</ele><time>2026-05-01T16:16:24.002Z</time></trkpt><trkpt lat="42.15990693169601" lon="8.771095197417985"><ele>395.5</ele><time>2026-05-01T16:16:25.002Z</time></trkpt><trkpt lat="42.15976662056944" lon="8.771128985366769"><ele>397.75</ele><time>2026-05-01T16:16:26.002Z</time></trkpt><trkpt lat="42.159630410897606" lon="8.771081434899513"><ele>400.0</ele><time>2026-05-01T16:16:27.002Z</time></trkpt><trkpt lat="42.159505902097344" lon="8.770990514831418"><ele>400.0</ele><time>2026-05-01T16:16:28.002Z</time></trkpt><trkpt lat="42.15938581351278" lon="8.770917111977669"><ele>400.0</ele><time>2026-05-01T16:16:29.002Z</time></trkpt><trkpt lat="42.15927733553881" lon="8.770950026704073"><ele>400.0</ele><time>2026-05-01T16:16:30.002Z</time></trkpt><trkpt lat="42.15918209079456" lon="8.771071395439948"><ele>400.0</ele><time>2026-05-01T16:16:31.002Z</time></trkpt><trkpt lat="42.15912319163601" lon="8.771224765592896"><ele>400.0</ele><time>2026-05-01T16:16:32.002Z</time></trkpt><trkpt lat="42.15909335642313" lon="8.771423567428213"><ele>400.0</ele><time>2026-05-01T16:16:33.002Z</time></trkpt><trkpt lat="42.15908428355216" lon="8.771647968308415"><ele>400.0</ele><time>2026-05-01T16:16:34.002Z</time></trkpt><trkpt lat="42.15906531265587" lon="8.771872678441886"><ele>412.33333333333337</ele><time>2026-05-01T16:16:35.002Z</time></trkpt><trkpt lat="42.15902774975558" lon="8.772097319964113"><ele>424.66666666666663</ele><time>2026-05-01T16:16:36.002Z</time></trkpt><trkpt lat="42.15899231794189" lon="8.77232301861806"><ele>437.0</ele><time>2026-05-01T16:16:37.002Z</time></trkpt><trkpt lat="42.15898048397689" lon="8.772555669447145"><ele>438.0</ele><time>2026-05-01T16:16:38.002Z</time></trkpt><trkpt lat="42.15900705497632" lon="8.772786512428295"><ele>439.0</ele><time>2026-05-01T16:16:39.002Z</time></trkpt><trkpt lat="42.15905797183689" lon="8.773022513453002"><ele>440.0</ele><time>2026-05-01T16:16:40.002Z</time></trkpt><trkpt lat="42.15907593139302" lon="8.773258673487298"><ele>440.0</ele><time>2026-05-01T16:16:41.002Z</time></trkpt><trkpt lat="42.15903847240433" lon="8.773494292117434"><ele>440.0</ele><time>2026-05-01T16:16:42.002Z</time></trkpt><trkpt lat="42.15896068962993" lon="8.773720524346954"><ele>440.0</ele><time>2026-05-01T16:16:43.002Z</time></trkpt><trkpt lat="42.15884594872429" lon="8.773925346553153"><ele>440.0</ele><time>2026-05-01T16:16:44.002Z</time></trkpt><trkpt lat="42.15875814751311" lon="8.774144121378043"><ele>440.0</ele><time>2026-05-01T16:16:45.002Z</time></trkpt><trkpt lat="42.1587206694692" lon="8.774379719739985"><ele>440.0</ele><time>2026-05-01T16:16:46.002Z</time></trkpt><trkpt lat="42.15873582578414" lon="8.774629459805848"><ele>440.0</ele><time>2026-05-01T16:16:47.002Z</time></trkpt><trkpt lat="42.15877606142119" lon="8.774881730594137"><ele>440.0</ele><time>2026-05-01T16:16:48.002Z</time></trkpt><trkpt lat="42.158777441288805" lon="8.775133181939145"><ele>440.0</ele><time>2026-05-01T16:16:49.002Z</time></trkpt><trkpt lat="42.15872536190428" lon="8.775381361745541"><ele>440.66666666666663</ele><time>2026-05-01T16:16:50.002Z</time></trkpt><trkpt lat="42.15866350608983" lon="8.775610882462962"><ele>441.33333333333337</ele><time>2026-05-01T16:16:51.002Z</time></trkpt><trkpt lat="42.158608031354824" lon="8.775815467082872"><ele>442.0</ele><time>2026-05-01T16:16:52.002Z</time></trkpt><trkpt lat="42.15860008271788" lon="8.776004424829356"><ele>442.75</ele><time>2026-05-01T16:16:53.002Z</time></trkpt><trkpt lat="42.158656584718706" lon="8.77616549962452"><ele>443.5</ele><time>2026-05-01T16:16:54.002Z</time></trkpt><trkpt lat="42.15877120147895" lon="8.77627263697815"><ele>444.25</ele><time>2026-05-01T16:16:55.003Z</time></trkpt><trkpt lat="42.15892762561352" lon="8.776301884430868"><ele>445.0</ele><time>2026-05-01T16:16:56.003Z</time></trkpt><trkpt lat="42.159090018803305" lon="8.77630468247572"><ele>438.33333333333337</ele><time>2026-05-01T16:16:57.003Z</time></trkpt><trkpt lat="42.15923456321792" lon="8.776387834547856"><ele>431.66666666666663</ele><time>2026-05-01T16:16:58.003Z</time></trkpt><trkpt lat="42.15935672894749" lon="8.776541589322697"><ele>425.0</ele><time>2026-05-01T16:16:59.003Z</time></trkpt><trkpt lat="42.15943426892169" lon="8.776730631642517"><ele>428.0</ele><time>2026-05-01T16:17:00.003Z</time></trkpt><trkpt lat="42.159441333258826" lon="8.776930620731605"><ele>431.0</ele><time>2026-05-01T16:17:01.003Z</time></trkpt><trkpt lat="42.15939632812595" lon="8.77715714447714"><ele>434.0</ele><time>2026-05-01T16:17:02.003Z</time></trkpt><trkpt lat="42.15926412141275" lon="8.777380781922274"><ele>434.0</ele><time>2026-05-01T16:17:03.003Z</time></trkpt><trkpt lat="42.159182664119314" lon="8.777630834271088"><ele>434.0</ele><time>2026-05-01T16:17:04.003Z</time></trkpt><trkpt lat="42.15910030989375" lon="8.77788364004761"><ele>434.0</ele><time>2026-05-01T16:17:05.003Z</time></trkpt><trkpt lat="42.159045344537944" lon="8.778124042720375"><ele>438.0</ele><time>2026-05-01T16:17:06.003Z</time></trkpt><trkpt lat="42.159002806005226" lon="8.778314830185156"><ele>442.0</ele><time>2026-05-01T16:17:07.003Z</time></trkpt><trkpt lat="42.15902270613921" lon="8.77847314079648"><ele>446.0</ele><time>2026-05-01T16:17:08.003Z</time></trkpt><trkpt lat="42.15909368907021" lon="8.778607424569623"><ele>450.0</ele><time>2026-05-01T16:17:09.003Z</time></trkpt><trkpt lat="42.159215593493805" lon="8.778663409455152"><ele>450.0</ele><time>2026-05-01T16:17:10.003Z</time></trkpt><trkpt lat="42.159356151539804" lon="8.778647491346325"><ele>450.0</ele><time>2026-05-01T16:17:11.003Z</time></trkpt><trkpt lat="42.159519147795315" lon="8.778588290852555"><ele>450.0</ele><time>2026-05-01T16:17:12.003Z</time></trkpt><trkpt lat="42.15968257003069" lon="8.77858167138965"><ele>450.0</ele><time>2026-05-01T16:17:13.003Z</time></trkpt><trkpt lat="42.15982963037164" lon="8.778651093911204"><ele>450.0</ele><time>2026-05-01T16:17:14.003Z</time></trkpt><trkpt lat="42.15995854746606" lon="8.778771249386608"><ele>450.0</ele><time>2026-05-01T16:17:15.003Z</time></trkpt><trkpt lat="42.160060865062796" lon="8.778943926391275"><ele>447.66666666666663</ele><time>2026-05-01T16:17:16.003Z</time></trkpt><trkpt lat="42.16011221210725" lon="8.779153237792892"><ele>445.3333333333333</ele><time>2026-05-01T16:17:17.003Z</time></trkpt><trkpt lat="42.16016165898659" lon="8.77939296614874"><ele>443.0</ele><time>2026-05-01T16:17:18.003Z</time></trkpt><trkpt lat="42.16022789707458" lon="8.779652538390758"><ele>448.3333333333333</ele><time>2026-05-01T16:17:19.003Z</time></trkpt><trkpt lat="42.160261512132934" lon="8.779924506060535"><ele>453.66666666666663</ele><time>2026-05-01T16:17:20.003Z</time></trkpt><trkpt lat="42.16030707313839" lon="8.780192109883314"><ele>459.0</ele><time>2026-05-01T16:17:21.003Z</time></trkpt><trkpt lat="42.16034655131915" lon="8.780466281966929"><ele>461.33333333333337</ele><time>2026-05-01T16:17:22.003Z</time></trkpt><trkpt lat="42.160370723221355" lon="8.780719952377673"><ele>463.6666666666667</ele><time>2026-05-01T16:17:23.003Z</time></trkpt><trkpt lat="42.16035702750192" lon="8.78095138912111"><ele>466.0</ele><time>2026-05-01T16:17:23.998Z</time></trkpt><trkpt lat="42.16029208974868" lon="8.781170803159718"><ele>467.0</ele><time>2026-05-01T16:17:24.998Z</time></trkpt><trkpt lat="42.16025077963273" lon="8.78141825897257"><ele>468.0</ele><time>2026-05-01T16:17:25.999Z</time></trkpt><trkpt lat="42.160249566166115" lon="8.781679007833217"><ele>469.0</ele><time>2026-05-01T16:17:26.999Z</time></trkpt><trkpt lat="42.160258275484324" lon="8.78189173458268"><ele>469.2</ele><time>2026-05-01T16:17:27.999Z</time></trkpt><trkpt lat="42.16025905764897" lon="8.782056239313976"><ele>469.4</ele><time>2026-05-01T16:17:28.999Z</time></trkpt><trkpt lat="42.16027687093703" lon="8.782173855745693"><ele>469.6</ele><time>2026-05-01T16:17:29.999Z</time></trkpt><trkpt lat="42.160309125375825" lon="8.7822722799731"><ele>469.8</ele><time>2026-05-01T16:17:30.999Z</time></trkpt><trkpt lat="42.160356130980986" lon="8.782377405577"><ele>470.0</ele><time>2026-05-01T16:17:32.999Z</time></trkpt><trkpt lat="42.16040443487108" lon="8.782485832846984"><ele>470.0</ele><time>2026-05-01T16:17:36.999Z</time></trkpt><trkpt lat="42.16046533084985" lon="8.78256321755703"><ele>470.0</ele><time>2026-05-01T16:17:37.999Z</time></trkpt><trkpt lat="42.16052801914492" lon="8.782659184479888"><ele>470.0</ele><time>2026-05-01T16:17:38.999Z</time></trkpt><trkpt lat="42.160598908429996" lon="8.782769340034335"><ele>470.0</ele><time>2026-05-01T16:17:39.999Z</time></trkpt><trkpt lat="42.160663567795886" lon="8.782905449308805"><ele>470.0</ele><time>2026-05-01T16:17:40.999Z</time></trkpt><trkpt lat="42.160746382768" lon="8.78301583317796"><ele>468.25</ele><time>2026-05-01T16:17:42Z</time></trkpt><trkpt lat="42.1608216960276" lon="8.78314169877409"><ele>466.5</ele><time>2026-05-01T16:17:43Z</time></trkpt><trkpt lat="42.16090360773225" lon="8.783267672884268"><ele>464.75</ele><time>2026-05-01T16:17:44Z</time></trkpt><trkpt lat="42.160988427859785" lon="8.783394022406886"><ele>463.0</ele><time>2026-05-01T16:17:45Z</time></trkpt><trkpt lat="42.16107438817327" lon="8.78352279553406"><ele>470.25</ele><time>2026-05-01T16:17:46Z</time></trkpt><trkpt lat="42.161165484243874" lon="8.783655939929778"><ele>477.5</ele><time>2026-05-01T16:17:47Z</time></trkpt><trkpt lat="42.16126111100397" lon="8.783794346755286"><ele>484.75</ele><time>2026-05-01T16:17:48Z</time></trkpt><trkpt lat="42.16136138175519" lon="8.783941253063208"><ele>492.0</ele><time>2026-05-01T16:17:49Z</time></trkpt><trkpt lat="42.161463150123424" lon="8.784095713108874"><ele>488.0</ele><time>2026-05-01T16:17:50Z</time></trkpt><trkpt lat="42.16156970387495" lon="8.78425186743555"><ele>484.0</ele><time>2026-05-01T16:17:51Z</time></trkpt><trkpt lat="42.161676675654725" lon="8.784403661183672"><ele>480.0</ele><time>2026-05-01T16:17:52Z</time></trkpt><trkpt lat="42.16177534891842" lon="8.78454366880189"><ele>480.0</ele><time>2026-05-01T16:17:53Z</time></trkpt><trkpt lat="42.161852714209694" lon="8.784673973220535"><ele>480.0</ele><time>2026-05-01T16:17:54Z</time></trkpt><trkpt lat="42.1619138860686" lon="8.784817061096051"><ele>480.0</ele><time>2026-05-01T16:17:55Z</time></trkpt><trkpt lat="42.161948756221626" lon="8.784979463616969"><ele>480.0</ele><time>2026-05-01T16:17:56Z</time></trkpt><trkpt lat="42.16195411750094" lon="8.785151448700056"><ele>481.75</ele><time>2026-05-01T16:17:57Z</time></trkpt><trkpt lat="42.16195204679171" lon="8.785324865313159"><ele>483.5</ele><time>2026-05-01T16:17:58Z</time></trkpt><trkpt lat="42.16194421490602" lon="8.785503634657545"><ele>485.25</ele><time>2026-05-01T16:17:59Z</time></trkpt><trkpt lat="42.16192142704046" lon="8.785682579366492"><ele>487.0</ele><time>2026-05-01T16:18:00Z</time></trkpt><trkpt lat="42.16189230478733" lon="8.785863660227568"><ele>489.25</ele><time>2026-05-01T16:18:01.001Z</time></trkpt><trkpt lat="42.16186806984813" lon="8.786052646021698"><ele>491.5</ele><time>2026-05-01T16:18:02.001Z</time></trkpt><trkpt lat="42.16184238097298" lon="8.786243269123835"><ele>493.75</ele><time>2026-05-01T16:18:03.001Z</time></trkpt><trkpt lat="42.16187062828429" lon="8.78643203368945"><ele>496.0</ele><time>2026-05-01T16:18:04.001Z</time></trkpt><trkpt lat="42.16195219901411" lon="8.786592013867368"><ele>496.0</ele><time>2026-05-01T16:18:05.001Z</time></trkpt><trkpt lat="42.16208931479809" lon="8.786705197695229"><ele>496.0</ele><time>2026-05-01T16:18:06.001Z</time></trkpt><trkpt lat="42.1622364506361" lon="8.786774680165767"><ele>496.0</ele><time>2026-05-01T16:18:07.001Z</time></trkpt><trkpt lat="42.16238065723519" lon="8.78686893065118"><ele>495.25</ele><time>2026-05-01T16:18:08.001Z</time></trkpt><trkpt lat="42.16253241514413" lon="8.786915685761583"><ele>494.5</ele><time>2026-05-01T16:18:09.001Z</time></trkpt><trkpt lat="42.16265301522809" lon="8.78700496028904"><ele>493.75</ele><time>2026-05-01T16:18:10.001Z</time></trkpt><trkpt lat="42.16273391543121" lon="8.78711872495805"><ele>493.0</ele><time>2026-05-01T16:18:11.001Z</time></trkpt><trkpt lat="42.16281060252983" lon="8.7872614992722"><ele>493.0</ele><time>2026-05-01T16:18:12.001Z</time></trkpt><trkpt lat="42.162893112607705" lon="8.787376101128679"><ele>492.99999999999994</ele><time>2026-05-01T16:18:13.001Z</time></trkpt><trkpt lat="42.16298166198319" lon="8.787435410458507"><ele>492.99999999999994</ele><time>2026-05-01T16:18:14.001Z</time></trkpt><trkpt lat="42.16306611414372" lon="8.787474246491522"><ele>493.0</ele><time>2026-05-01T16:18:15.001Z</time></trkpt><trkpt lat="42.16314911207544" lon="8.787475105721095"><ele>493.0</ele><time>2026-05-01T16:18:16.001Z</time></trkpt><trkpt lat="42.16324287535615" lon="8.787457389484105"><ele>492.0</ele><time>2026-05-01T16:18:17.001Z</time></trkpt><trkpt lat="42.163335077667426" lon="8.787427525481627"><ele>490.99999999999994</ele><time>2026-05-01T16:18:18.001Z</time></trkpt><trkpt lat="42.16342165919552" lon="8.78738064286109"><ele>489.99999999999994</ele><time>2026-05-01T16:18:19.001Z</time></trkpt><trkpt lat="42.16351314445311" lon="8.787368008723256"><ele>489.0</ele><time>2026-05-01T16:18:20.001Z</time></trkpt><trkpt lat="42.163606539707274" lon="8.787378926366435"><ele>488.0</ele><time>2026-05-01T16:18:21.001Z</time></trkpt><trkpt lat="42.16369003554168" lon="8.787419853601866"><ele>487.99999999999994</ele><time>2026-05-01T16:18:22.001Z</time></trkpt><trkpt lat="42.16375010263951" lon="8.787469751900163"><ele>488.0</ele><time>2026-05-01T16:18:23.001Z</time></trkpt><trkpt lat="42.163834172386316" lon="8.787555576985255"><ele>488.0</ele><time>2026-05-01T16:18:25.001Z</time></trkpt><trkpt lat="42.16391123430424" lon="8.787655598526442"><ele>488.0</ele><time>2026-05-01T16:18:27.001Z</time></trkpt><trkpt lat="42.16397933152636" lon="8.78767984057768"><ele>487.99999999999994</ele><time>2026-05-01T16:18:28.001Z</time></trkpt><trkpt lat="42.16406007315131" lon="8.787652635924745"><ele>488.0</ele><time>2026-05-01T16:18:29.001Z</time></trkpt><trkpt lat="42.16414157655367" lon="8.787600292636746"><ele>489.0</ele><time>2026-05-01T16:18:30.002Z</time></trkpt><trkpt lat="42.16422525003814" lon="8.787532795091204"><ele>489.99999999999994</ele><time>2026-05-01T16:18:31.002Z</time></trkpt><trkpt lat="42.16431401657035" lon="8.787464308453847"><ele>490.99999999999994</ele><time>2026-05-01T16:18:32.002Z</time></trkpt><trkpt lat="42.16441029383666" lon="8.787400970741066"><ele>492.0</ele><time>2026-05-01T16:18:33.002Z</time></trkpt><trkpt lat="42.16451108748701" lon="8.787349155200285"><ele>493.0</ele><time>2026-05-01T16:18:34.002Z</time></trkpt><trkpt lat="42.164594863733285" lon="8.787338269132539"><ele>493.00000000000006</ele><time>2026-05-01T16:18:35.002Z</time></trkpt><trkpt lat="42.164662460128305" lon="8.787350783488545"><ele>493.0</ele><time>2026-05-01T16:18:36.002Z</time></trkpt><trkpt lat="42.16475273674003" lon="8.787374731997827"><ele>493.0</ele><time>2026-05-01T16:18:38.002Z</time></trkpt><trkpt lat="42.164805805196906" lon="8.787429547852447"><ele>493.0</ele><time>2026-05-01T16:18:41.002Z</time></trkpt><trkpt lat="42.16489627352998" lon="8.787451753087959"><ele>493.00000000000006</ele><time>2026-05-01T16:18:55.002Z</time></trkpt><trkpt lat="42.16496137697969" lon="8.787503850228822"><ele>493.0</ele><time>2026-05-01T16:18:57.002Z</time></trkpt><trkpt lat="42.165017532156874" lon="8.78754962204359"><ele>493.6666666666667</ele><time>2026-05-01T16:18:59.002Z</time></trkpt><trkpt lat="42.16507841957185" lon="8.78759033584984"><ele>494.33333333333337</ele><time>2026-05-01T16:19:01.002Z</time></trkpt><trkpt lat="42.16515491908433" lon="8.787649861213529"><ele>495.0</ele><time>2026-05-01T16:19:03.003Z</time></trkpt><trkpt lat="42.16521409171483" lon="8.78768189305776"><ele>495.66666666666663</ele><time>2026-05-01T16:19:04.003Z</time></trkpt><trkpt lat="42.16528020529479" lon="8.787737807051615"><ele>496.3333333333333</ele><time>2026-05-01T16:19:05.003Z</time></trkpt><trkpt lat="42.16537823493604" lon="8.787832116548273"><ele>497.0</ele><time>2026-05-01T16:19:07.003Z</time></trkpt><trkpt lat="42.165425384457265" lon="8.787890477576955"><ele>496.99999999999994</ele><time>2026-05-01T16:19:08.003Z</time></trkpt><trkpt lat="42.16548540020905" lon="8.78794639290784"><ele>497.0</ele><time>2026-05-01T16:19:09.003Z</time></trkpt><trkpt lat="42.165554619602396" lon="8.787999246580991"><ele>497.0</ele><time>2026-05-01T16:19:10.003Z</time></trkpt><trkpt lat="42.16562481328119" lon="8.788055995933197"><ele>497.0</ele><time>2026-05-01T16:19:11.003Z</time></trkpt><trkpt lat="42.16569463742414" lon="8.788116756169732"><ele>496.99999999999994</ele><time>2026-05-01T16:19:12.003Z</time></trkpt><trkpt lat="42.16576484504622" lon="8.78817660690957"><ele>497.0</ele><time>2026-05-01T16:19:13.003Z</time></trkpt><trkpt lat="42.165833131217504" lon="8.788233894389686"><ele>498.3333333333333</ele><time>2026-05-01T16:19:14.003Z</time></trkpt><trkpt lat="42.16588737691691" lon="8.788288070382386"><ele>499.66666666666663</ele><time>2026-05-01T16:19:15.003Z</time></trkpt><trkpt lat="42.16595242075757" lon="8.788362061956704"><ele>501.0</ele><time>2026-05-01T16:19:17.003Z</time></trkpt><trkpt lat="42.16602416218153" lon="8.788387984071607"><ele>502.33333333333337</ele><time>2026-05-01T16:21:49Z</time></trkpt><trkpt lat="42.16611965762877" lon="8.788453869989702"><ele>503.6666666666667</ele><time>2026-05-01T16:21:51Z</time></trkpt><trkpt lat="42.16617941171417" lon="8.788490202834868"><ele>505.0</ele><time>2026-05-01T16:21:52Z</time></trkpt><trkpt lat="42.166279193219914" lon="8.78854538685873"><ele>505.00000000000006</ele><time>2026-05-01T16:21:54Z</time></trkpt><trkpt lat="42.16634356025866" lon="8.788574455863252"><ele>505.0</ele><time>2026-05-01T16:21:55Z</time></trkpt><trkpt lat="42.166413308100545" lon="8.788607390289608"><ele>505.0</ele><time>2026-05-01T16:21:56Z</time></trkpt><trkpt lat="42.16648764977827" lon="8.78864558016182"><ele>505.0</ele><time>2026-05-01T16:21:57Z</time></trkpt><trkpt lat="42.16656890126057" lon="8.78868602786792"><ele>505.00000000000006</ele><time>2026-05-01T16:21:58Z</time></trkpt><trkpt lat="42.16666079700331" lon="8.788711995525098"><ele>505.0</ele><time>2026-05-01T16:21:59Z</time></trkpt><trkpt lat="42.16674169368884" lon="8.78877340133201"><ele>508.83333333333337</ele><time>2026-05-01T16:22:00.001Z</time></trkpt><trkpt lat="42.166808371978824" lon="8.788841357053133"><ele>512.6666666666667</ele><time>2026-05-01T16:22:01.001Z</time></trkpt><trkpt lat="42.16686781638316" lon="8.78892955843015"><ele>516.5</ele><time>2026-05-01T16:22:02.001Z</time></trkpt><trkpt lat="42.166929370461396" lon="8.789020483068603"><ele>520.3333333333334</ele><time>2026-05-01T16:22:03.001Z</time></trkpt><trkpt lat="42.16698162253556" lon="8.78911469987396"><ele>524.1666666666666</ele><time>2026-05-01T16:22:04.001Z</time></trkpt><trkpt lat="42.16703038149573" lon="8.789210717620476"><ele>528.0</ele><time>2026-05-01T16:22:05.001Z</time></trkpt><trkpt lat="42.167074020677795" lon="8.789299799880016"><ele>526.8333333333334</ele><time>2026-05-01T16:22:06.001Z</time></trkpt><trkpt lat="42.16711778812879" lon="8.78938803895018"><ele>525.6666666666666</ele><time>2026-05-01T16:22:07.001Z</time></trkpt><trkpt lat="42.167160748927124" lon="8.789475185578574"><ele>524.5</ele><time>2026-05-01T16:22:08.001Z</time></trkpt><trkpt lat="42.16719848517848" lon="8.789557408418286"><ele>523.3333333333333</ele><time>2026-05-01T16:22:09.001Z</time></trkpt><trkpt lat="42.16723054376431" lon="8.789632543809088"><ele>522.1666666666666</ele><time>2026-05-01T16:22:10.001Z</time></trkpt><trkpt lat="42.16727924482931" lon="8.78974752715973"><ele>521.0</ele><time>2026-05-01T16:22:12.001Z</time></trkpt><trkpt lat="42.16732406825009" lon="8.789821801124626"><ele>522.1666666666666</ele><time>2026-05-01T16:22:24.001Z</time></trkpt><trkpt lat="42.167393361298664" lon="8.789894915936573"><ele>523.3333333333333</ele><time>2026-05-01T16:22:26.001Z</time></trkpt><trkpt lat="42.16744600637411" lon="8.789947368883062"><ele>524.5</ele><time>2026-05-01T16:22:27.001Z</time></trkpt><trkpt lat="42.167502150724296" lon="8.79001744974272"><ele>525.6666666666666</ele><time>2026-05-01T16:22:28.001Z</time></trkpt><trkpt lat="42.16756550385106" lon="8.790086262637873"><ele>526.8333333333334</ele><time>2026-05-01T16:22:29.001Z</time></trkpt><trkpt lat="42.16763765209219" lon="8.790161577390137"><ele>528.0</ele><time>2026-05-01T16:22:30.001Z</time></trkpt><trkpt lat="42.16772173260509" lon="8.790225640367849"><ele>528.0</ele><time>2026-05-01T16:22:31.001Z</time></trkpt><trkpt lat="42.16781050879071" lon="8.79027165538969"><ele>528.0</ele><time>2026-05-01T16:22:32.001Z</time></trkpt><trkpt lat="42.16790012707148" lon="8.790311317381972"><ele>528.0</ele><time>2026-05-01T16:22:33.001Z</time></trkpt><trkpt lat="42.16799054770761" lon="8.790328249719437"><ele>528.0</ele><time>2026-05-01T16:22:34.001Z</time></trkpt><trkpt lat="42.16807979187467" lon="8.790329380285879"><ele>528.0</ele><time>2026-05-01T16:22:35.001Z</time></trkpt><trkpt lat="42.16817002802533" lon="8.790305062347562"><ele>532.6</ele><time>2026-05-01T16:22:36.001Z</time></trkpt><trkpt lat="42.168260260591765" lon="8.790248273812235"><ele>537.1999999999999</ele><time>2026-05-01T16:22:37.001Z</time></trkpt><trkpt lat="42.16833885569643" lon="8.790188222395201"><ele>541.8</ele><time>2026-05-01T16:22:38.001Z</time></trkpt><trkpt lat="42.168419954391545" lon="8.790127573398905"><ele>546.4</ele><time>2026-05-01T16:22:39.001Z</time></trkpt><trkpt lat="42.16849410989559" lon="8.790058422218456"><ele>551.0</ele><time>2026-05-01T16:22:40.001Z</time></trkpt><trkpt lat="42.16857974747169" lon="8.79003148760069"><ele>551.0</ele><time>2026-05-01T16:22:41.001Z</time></trkpt><trkpt lat="42.168657392705924" lon="8.790034101635026"><ele>551.0</ele><time>2026-05-01T16:22:42.001Z</time></trkpt><trkpt lat="42.168724812317784" lon="8.79006433227259"><ele>551.0</ele><time>2026-05-01T16:22:43.001Z</time></trkpt><trkpt lat="42.16878306627063" lon="8.790103286874896"><ele>551.0</ele><time>2026-05-01T16:22:44.001Z</time></trkpt><trkpt lat="42.1688474165133" lon="8.790160515407424"><ele>551.0</ele><time>2026-05-01T16:22:46.001Z</time></trkpt><trkpt lat="42.16893579398814" lon="8.790231780944941"><ele>551.0</ele><time>2026-05-01T16:23:06.002Z</time></trkpt><trkpt lat="42.169057945285275" lon="8.790312411671286"><ele>555.0</ele><time>2026-05-01T16:23:08.002Z</time></trkpt><trkpt lat="42.16912659556511" lon="8.790368259080173"><ele>559.0</ele><time>2026-05-01T16:23:09.002Z</time></trkpt><trkpt lat="42.1691941873797" lon="8.790443968675085"><ele>563.0</ele><time>2026-05-01T16:23:10.002Z</time></trkpt><trkpt lat="42.169266061965" lon="8.790525762650523"><ele>567.0</ele><time>2026-05-01T16:23:11.002Z</time></trkpt><trkpt lat="42.169334438183554" lon="8.790618629479901"><ele>571.0</ele><time>2026-05-01T16:23:12.002Z</time></trkpt><trkpt lat="42.16939389987916" lon="8.79070452421479"><ele>575.0</ele><time>2026-05-01T16:23:13.002Z</time></trkpt><trkpt lat="42.16943923518546" lon="8.790784630676608"><ele>575.0</ele><time>2026-05-01T16:23:14.002Z</time></trkpt><trkpt lat="42.169480335024424" lon="8.790862110662497"><ele>575.0</ele><time>2026-05-01T16:23:15.002Z</time></trkpt><trkpt lat="42.16952003262868" lon="8.790930113642233"><ele>575.0</ele><time>2026-05-01T16:23:16.002Z</time></trkpt><trkpt lat="42.16955722491619" lon="8.791000511895211"><ele>575.0</ele><time>2026-05-01T16:23:17.002Z</time></trkpt><trkpt lat="42.16959283061866" lon="8.791071612300911"><ele>575.0</ele><time>2026-05-01T16:23:18.002Z</time></trkpt><trkpt lat="42.16963315054743" lon="8.791139929456547"><ele>575.0</ele><time>2026-05-01T16:23:19.002Z</time></trkpt><trkpt lat="42.16967406268091" lon="8.791207784278129"><ele>575.0</ele><time>2026-05-01T16:23:20.002Z</time></trkpt><trkpt lat="42.16972637853923" lon="8.791299672293425"><ele>574.3333333333333</ele><time>2026-05-01T16:23:22.002Z</time></trkpt><trkpt lat="42.169779485090814" lon="8.791389768939105"><ele>573.6666666666666</ele><time>2026-05-01T16:23:33.002Z</time></trkpt><trkpt lat="42.169851362424296" lon="8.791452727286478"><ele>573.0</ele><time>2026-05-01T16:23:35.002Z</time></trkpt><trkpt lat="42.169962820458906" lon="8.791494829061033"><ele>572.3333333333334</ele><time>2026-05-01T16:23:37.002Z</time></trkpt><trkpt lat="42.1700251202886" lon="8.791534960916056"><ele>571.6666666666667</ele><time>2026-05-01T16:23:38.002Z</time></trkpt><trkpt lat="42.170095053039546" lon="8.791558547045048"><ele>571.0</ele><time>2026-05-01T16:23:39.002Z</time></trkpt><trkpt lat="42.170160574659455" lon="8.791580647110031"><ele>573.1666666666667</ele><time>2026-05-01T16:23:40.002Z</time></trkpt><trkpt lat="42.17022574530194" lon="8.79160001455026"><ele>575.3333333333334</ele><time>2026-05-01T16:23:41.003Z</time></trkpt><trkpt lat="42.17030496691787" lon="8.791600159594852"><ele>577.5</ele><time>2026-05-01T16:23:41.999Z</time></trkpt><trkpt lat="42.17038235296036" lon="8.791643454380434"><ele>579.6666666666666</ele><time>2026-05-01T16:23:42.999Z</time></trkpt><trkpt lat="42.17046591954925" lon="8.791665991452891"><ele>581.8333333333333</ele><time>2026-05-01T16:23:43.999Z</time></trkpt><trkpt lat="42.170554337442404" lon="8.791689836815204"><ele>584.0</ele><time>2026-05-01T16:23:44.999Z</time></trkpt><trkpt lat="42.17064472263945" lon="8.791696879769434"><ele>582.1666666666666</ele><time>2026-05-01T16:23:45.999Z</time></trkpt><trkpt lat="42.170729059061" lon="8.791731336297865"><ele>580.3333333333333</ele><time>2026-05-01T16:23:46.999Z</time></trkpt><trkpt lat="42.170801699208994" lon="8.791768815523092"><ele>578.5</ele><time>2026-05-01T16:23:47.999Z</time></trkpt><trkpt lat="42.170865108494546" lon="8.791811941468229"><ele>576.6666666666666</ele><time>2026-05-01T16:23:48.999Z</time></trkpt><trkpt lat="42.170921478176005" lon="8.79185360178858"><ele>574.8333333333334</ele><time>2026-05-01T16:23:49.999Z</time></trkpt><trkpt lat="42.17101999082875" lon="8.791932738187485"><ele>573.0</ele><time>2026-05-01T16:23:51.999Z</time></trkpt><trkpt lat="42.17111201027423" lon="8.792000970911554"><ele>573.0</ele><time>2026-05-01T16:23:53.999Z</time></trkpt><trkpt lat="42.17120520968629" lon="8.792068451450897"><ele>573.0</ele><time>2026-05-01T16:23:55.999Z</time></trkpt><trkpt lat="42.171293719419296" lon="8.792158269880662"><ele>573.0</ele><time>2026-05-01T16:23:57.999Z</time></trkpt><trkpt lat="42.17139083536897" lon="8.792239288928323"><ele>573.0</ele><time>2026-05-01T16:24:00Z</time></trkpt><trkpt lat="42.17147448902749" lon="8.7923028137848"><ele>573.0</ele><time>2026-05-01T16:24:02Z</time></trkpt><trkpt lat="42.17155604248565" lon="8.792329159920982"><ele>576.8333333333334</ele><time>2026-05-01T16:24:05Z</time></trkpt><trkpt lat="42.17163192496007" lon="8.792353637972482"><ele>580.6666666666666</ele><time>2026-05-01T16:24:27.001Z</time></trkpt><trkpt lat="42.17170317631782" lon="8.792347585641886"><ele>584.5</ele><time>2026-05-01T16:24:29.001Z</time></trkpt><trkpt lat="42.17177494304368" lon="8.792379219769014"><ele>588.3333333333333</ele><time>2026-05-01T16:24:31.001Z</time></trkpt><trkpt lat="42.17187935585274" lon="8.792405217745099"><ele>592.1666666666666</ele><time>2026-05-01T16:24:33.001Z</time></trkpt><trkpt lat="42.17199448226323" lon="8.792422048353343"><ele>596.0</ele><time>2026-05-01T16:24:35.001Z</time></trkpt><trkpt lat="42.1721097138545" lon="8.792477034727995"><ele>596.0</ele><time>2026-05-01T16:24:37.001Z</time></trkpt><trkpt lat="42.17216964099479" lon="8.792505285184161"><ele>596.0</ele><time>2026-05-01T16:24:38.001Z</time></trkpt><trkpt lat="42.17223134034806" lon="8.792530541421531"><ele>596.0</ele><time>2026-05-01T16:24:39.001Z</time></trkpt><trkpt lat="42.172293742116345" lon="8.792560680041973"><ele>596.0</ele><time>2026-05-01T16:24:40.001Z</time></trkpt><trkpt lat="42.17235780323064" lon="8.792594832562799"><ele>596.0</ele><time>2026-05-01T16:24:41.001Z</time></trkpt><trkpt lat="42.172428209974505" lon="8.792638817573058"><ele>596.0</ele><time>2026-05-01T16:24:42.001Z</time></trkpt><trkpt lat="42.17250866149537" lon="8.792680439281279"><ele>596.0</ele><time>2026-05-01T16:24:43.001Z</time></trkpt><trkpt lat="42.172596586258145" lon="8.79272682472777"><ele>593.5</ele><time>2026-05-01T16:24:44.001Z</time></trkpt><trkpt lat="42.17269340058643" lon="8.792776951091616"><ele>591.0</ele><time>2026-05-01T16:24:45.001Z</time></trkpt><trkpt lat="42.17280641895297" lon="8.79283203481472"><ele>588.5</ele><time>2026-05-01T16:24:46.001Z</time></trkpt><trkpt lat="42.17292843693382" lon="8.792904756678707"><ele>586.0</ele><time>2026-05-01T16:24:47.001Z</time></trkpt><trkpt lat="42.17305992794028" lon="8.792976182372303"><ele>592.6666666666667</ele><time>2026-05-01T16:24:48.001Z</time></trkpt><trkpt lat="42.173205063159614" lon="8.79304318501301"><ele>599.3333333333334</ele><time>2026-05-01T16:24:49.001Z</time></trkpt><trkpt lat="42.17335537375754" lon="8.793116587159233"><ele>606.0</ele><time>2026-05-01T16:24:50.001Z</time></trkpt><trkpt lat="42.17350726883423" lon="8.793190364812121"><ele>606.0</ele><time>2026-05-01T16:24:51.001Z</time></trkpt><trkpt lat="42.17364890501501" lon="8.793283037625457"><ele>606.0</ele><time>2026-05-01T16:24:52.001Z</time></trkpt><trkpt lat="42.17376870523664" lon="8.793405962467732"><ele>606.0</ele><time>2026-05-01T16:24:53.001Z</time></trkpt><trkpt lat="42.17386654165592" lon="8.793567843351381"><ele>612.6666666666666</ele><time>2026-05-01T16:24:54.001Z</time></trkpt><trkpt lat="42.17394249511718" lon="8.793745949436847"><ele>619.3333333333333</ele><time>2026-05-01T16:24:55.001Z</time></trkpt><trkpt lat="42.17400531325725" lon="8.793937222889511"><ele>626.0</ele><time>2026-05-01T16:24:56.002Z</time></trkpt><trkpt lat="42.17407136050373" lon="8.794127630559021"><ele>626.0</ele><time>2026-05-01T16:24:57.002Z</time></trkpt><trkpt lat="42.174160196057564" lon="8.794299237646019"><ele>626.0</ele><time>2026-05-01T16:24:58.002Z</time></trkpt><trkpt lat="42.17427220866723" lon="8.794453446610966"><ele>626.0</ele><time>2026-05-01T16:24:59.002Z</time></trkpt><trkpt lat="42.17438795516472" lon="8.794604959582173"><ele>620.0</ele><time>2026-05-01T16:25:00.002Z</time></trkpt><trkpt lat="42.174502117285854" lon="8.794766764829422"><ele>614.0</ele><time>2026-05-01T16:25:01.002Z</time></trkpt><trkpt lat="42.174614621293685" lon="8.79494329079039"><ele>608.0</ele><time>2026-05-01T16:25:02.002Z</time></trkpt><trkpt lat="42.174735926733526" lon="8.795121544601608"><ele>612.0</ele><time>2026-05-01T16:25:03.002Z</time></trkpt><trkpt lat="42.17486699157876" lon="8.795293734401843"><ele>616.0</ele><time>2026-05-01T16:25:04.002Z</time></trkpt><trkpt lat="42.17501977658291" lon="8.7954597163127"><ele>620.0</ele><time>2026-05-01T16:25:05.002Z</time></trkpt><trkpt lat="42.17516103711987" lon="8.795611918193977"><ele>620.0</ele><time>2026-05-01T16:25:06.002Z</time></trkpt><trkpt lat="42.17528263141574" lon="8.795829442168978"><ele>620.0</ele><time>2026-05-01T16:25:07.002Z</time></trkpt><trkpt lat="42.17533627452393" lon="8.796054014326277"><ele>620.0</ele><time>2026-05-01T16:25:08.002Z</time></trkpt><trkpt lat="42.17543865807148" lon="8.796227535319547"><ele>615.0</ele><time>2026-05-01T16:25:09.002Z</time></trkpt><trkpt lat="42.175579705632025" lon="8.796402093326407"><ele>610.0</ele><time>2026-05-01T16:25:10.002Z</time></trkpt><trkpt lat="42.1757602204744" lon="8.796544638805573"><ele>605.0</ele><time>2026-05-01T16:25:11.002Z</time></trkpt><trkpt lat="42.175853206137155" lon="8.796760605448306"><ele>610.6666666666666</ele><time>2026-05-01T16:25:12.002Z</time></trkpt><trkpt lat="42.17590975957004" lon="8.796991775405196"><ele>616.3333333333334</ele><time>2026-05-01T16:25:13.002Z</time></trkpt><trkpt lat="42.17598466961058" lon="8.797227929765704"><ele>622.0</ele><time>2026-05-01T16:25:14.002Z</time></trkpt><trkpt lat="42.17607655836959" lon="8.797411021772337"><ele>622.0</ele><time>2026-05-01T16:25:15.002Z</time></trkpt><trkpt lat="42.17620077977984" lon="8.797542527712755"><ele>622.0</ele><time>2026-05-01T16:25:16.002Z</time></trkpt><trkpt lat="42.17634238916732" lon="8.797587138401406"><ele>622.0</ele><time>2026-05-01T16:25:17.002Z</time></trkpt><trkpt lat="42.176465310552615" lon="8.797499222270146"><ele>622.0</ele><time>2026-05-01T16:25:18.002Z</time></trkpt><trkpt lat="42.17660552658395" lon="8.797411550691718"><ele>627.3333333333334</ele><time>2026-05-01T16:25:19.002Z</time></trkpt><trkpt lat="42.17677153022409" lon="8.797286017777433"><ele>632.6666666666666</ele><time>2026-05-01T16:25:20.002Z</time></trkpt><trkpt lat="42.17694352722397" lon="8.797246496930528"><ele>638.0</ele><time>2026-05-01T16:25:21.002Z</time></trkpt><trkpt lat="42.17710293109625" lon="8.797292966059238"><ele>638.0</ele><time>2026-05-01T16:25:22.002Z</time></trkpt><trkpt lat="42.177193502994385" lon="8.797417483385114"><ele>638.0</ele><time>2026-05-01T16:25:23.002Z</time></trkpt><trkpt lat="42.17733358902973" lon="8.797560789452506"><ele>638.0</ele><time>2026-05-01T16:25:24.002Z</time></trkpt><trkpt lat="42.177495762157534" lon="8.797729093347767"><ele>637.3333333333333</ele><time>2026-05-01T16:25:25.002Z</time></trkpt><trkpt lat="42.177649977849676" lon="8.79789835733247"><ele>636.6666666666666</ele><time>2026-05-01T16:25:26.002Z</time></trkpt><trkpt lat="42.17776733431952" lon="8.798114300819302"><ele>636.0</ele><time>2026-05-01T16:25:27.002Z</time></trkpt><trkpt lat="42.17787543918603" lon="8.798333929593602"><ele>635.6666666666666</ele><time>2026-05-01T16:25:28.002Z</time></trkpt><trkpt lat="42.17799209696563" lon="8.798503616237802"><ele>635.3333333333333</ele><time>2026-05-01T16:25:29.002Z</time></trkpt><trkpt lat="42.17809516573938" lon="8.798606618635898"><ele>635.0</ele><time>2026-05-01T16:25:30.002Z</time></trkpt><trkpt lat="42.1782525556856" lon="8.798578224099712"><ele>635.0</ele><time>2026-05-01T16:25:31.002Z</time></trkpt><trkpt lat="42.17844010616908" lon="8.79850166174976"><ele>635.0</ele><time>2026-05-01T16:25:32.003Z</time></trkpt><trkpt lat="42.178650591849355" lon="8.79847498591475"><ele>635.0</ele><time>2026-05-01T16:25:33.003Z</time></trkpt><trkpt lat="42.17886161740384" lon="8.79838338829142"><ele>645.5</ele><time>2026-05-01T16:25:34.003Z</time></trkpt><trkpt lat="42.17907798507708" lon="8.798253458351342"><ele>656.0</ele><time>2026-05-01T16:25:35.003Z</time></trkpt><trkpt lat="42.17929808151488" lon="8.79810204788548"><ele>656.0</ele><time>2026-05-01T16:25:36.003Z</time></trkpt><trkpt lat="42.179503823586536" lon="8.798000708469745"><ele>656.0</ele><time>2026-05-01T16:25:37.003Z</time></trkpt><trkpt lat="42.179680671653266" lon="8.797906488936476"><ele>656.0</ele><time>2026-05-01T16:25:38.003Z</time></trkpt><trkpt lat="42.17984893098475" lon="8.797890900429584"><ele>655.0</ele><time>2026-05-01T16:25:39.003Z</time></trkpt><trkpt lat="42.18004567802671" lon="8.797933471836934"><ele>654.0</ele><time>2026-05-01T16:25:40.003Z</time></trkpt><trkpt lat="42.18026532262352" lon="8.797995820766756"><ele>653.0</ele><time>2026-05-01T16:25:41.003Z</time></trkpt><trkpt lat="42.180495014241366" lon="8.798052582847912"><ele>656.3333333333333</ele><time>2026-05-01T16:25:42.003Z</time></trkpt><trkpt lat="42.180714939668256" lon="8.798121991762917"><ele>659.6666666666666</ele><time>2026-05-01T16:25:43.003Z</time></trkpt><trkpt lat="42.18092014836842" lon="8.798184118351069"><ele>663.0</ele><time>2026-05-01T16:25:44.003Z</time></trkpt><trkpt lat="42.18110897774483" lon="8.798217734620088"><ele>663.0</ele><time>2026-05-01T16:25:45.003Z</time></trkpt><trkpt lat="42.181285063423736" lon="8.798160382358734"><ele>663.0</ele><time>2026-05-01T16:25:46.003Z</time></trkpt><trkpt lat="42.18146751436779" lon="8.798032878260187"><ele>663.0</ele><time>2026-05-01T16:25:47.003Z</time></trkpt><trkpt lat="42.181649692290954" lon="8.797875681960882"><ele>664.0</ele><time>2026-05-01T16:25:47.999Z</time></trkpt><trkpt lat="42.18186642950409" lon="8.797793555436524"><ele>665.0</ele><time>2026-05-01T16:25:48.999Z</time></trkpt><trkpt lat="42.182056257005215" lon="8.797606713001533"><ele>673.0</ele><time>2026-05-01T16:25:49.999Z</time></trkpt><trkpt lat="42.18225459163358" lon="8.797473838582855"><ele>681.0</ele><time>2026-05-01T16:25:50.999Z</time></trkpt><trkpt lat="42.182462348563" lon="8.79743533879706"><ele>689.0</ele><time>2026-05-01T16:25:51.999Z</time></trkpt><trkpt lat="42.18267638199221" lon="8.797429691916498"><ele>689.0</ele><time>2026-05-01T16:25:52.999Z</time></trkpt><trkpt lat="42.182873857723166" lon="8.79743559029805"><ele>689.0</ele><time>2026-05-01T16:25:53.999Z</time></trkpt><trkpt lat="42.18302302448862" lon="8.797485091062919"><ele>689.0</ele><time>2026-05-01T16:25:54.999Z</time></trkpt><trkpt lat="42.183114237275326" lon="8.797628726081339"><ele>688.3333333333333</ele><time>2026-05-01T16:25:55.999Z</time></trkpt><trkpt lat="42.183222819345055" lon="8.797811965809936"><ele>687.6666666666666</ele><time>2026-05-01T16:25:56.999Z</time></trkpt><trkpt lat="42.183361668493504" lon="8.798002662205077"><ele>687.0</ele><time>2026-05-01T16:25:57.999Z</time></trkpt><trkpt lat="42.18354021524288" lon="8.798167973857355"><ele>687.0</ele><time>2026-05-01T16:25:58.999Z</time></trkpt><trkpt lat="42.18374559763994" lon="8.798327687829683"><ele>687.0</ele><time>2026-05-01T16:25:59.999Z</time></trkpt><trkpt lat="42.18393963116393" lon="8.798522644647544"><ele>690.0</ele><time>2026-05-01T16:26:00.999Z</time></trkpt><trkpt lat="42.18413590676913" lon="8.798721397204586"><ele>693.0</ele><time>2026-05-01T16:26:01.999Z</time></trkpt><trkpt lat="42.18434393267523" lon="8.798918634279255"><ele>693.0</ele><time>2026-05-01T16:26:02.999Z</time></trkpt><trkpt lat="42.184567574015645" lon="8.799129158078873"><ele>693.0</ele><time>2026-05-01T16:26:03.999Z</time></trkpt><trkpt lat="42.184802132595365" lon="8.79934434804296"><ele>696.5</ele><time>2026-05-01T16:26:04.999Z</time></trkpt><trkpt lat="42.1850357471971" lon="8.79954202104723"><ele>700.0</ele><time>2026-05-01T16:26:05.999Z</time></trkpt><trkpt lat="42.18524375601203" lon="8.799699110961832"><ele>700.0</ele><time>2026-05-01T16:26:06.999Z</time></trkpt><trkpt lat="42.18540654610903" lon="8.799871907305278"><ele>700.0</ele><time>2026-05-01T16:26:08Z</time></trkpt><trkpt lat="42.18551447490688" lon="8.800049904351905"><ele>700.0</ele><time>2026-05-01T16:26:09Z</time></trkpt><trkpt lat="42.1855739836243" lon="8.800268795080193"><ele>705.0</ele><time>2026-05-01T16:26:10Z</time></trkpt><trkpt lat="42.18561669877023" lon="8.800538001271876"><ele>710.0</ele><time>2026-05-01T16:26:11Z</time></trkpt><trkpt lat="42.18571938868345" lon="8.800778870841665"><ele>715.0</ele><time>2026-05-01T16:26:12Z</time></trkpt><trkpt lat="42.18587079928603" lon="8.80098358750888"><ele>704.5</ele><time>2026-05-01T16:26:13Z</time></trkpt><trkpt lat="42.18607303714766" lon="8.80120670655071"><ele>694.0</ele><time>2026-05-01T16:26:14Z</time></trkpt><trkpt lat="42.186276184971476" lon="8.801454440862145"><ele>694.0</ele><time>2026-05-01T16:26:15Z</time></trkpt><trkpt lat="42.186484293841914" lon="8.801722588733007"><ele>694.0</ele><time>2026-05-01T16:26:16Z</time></trkpt><trkpt lat="42.186696121671574" lon="8.801997844899025"><ele>700.0</ele><time>2026-05-01T16:26:17Z</time></trkpt><trkpt lat="42.18689295496505" lon="8.80225903468745"><ele>706.0</ele><time>2026-05-01T16:26:18Z</time></trkpt><trkpt lat="42.18705569243532" lon="8.802458300142465"><ele>706.0</ele><time>2026-05-01T16:26:19Z</time></trkpt><trkpt lat="42.18720944646225" lon="8.802596509554604"><ele>706.0</ele><time>2026-05-01T16:26:20Z</time></trkpt><trkpt lat="42.18740645863031" lon="8.802681534489757"><ele>706.0</ele><time>2026-05-01T16:26:21Z</time></trkpt><trkpt lat="42.187616370819406" lon="8.80273030258323"><ele>708.6666666666667</ele><time>2026-05-01T16:26:22Z</time></trkpt><trkpt lat="42.18780343069753" lon="8.802855473536628"><ele>711.3333333333334</ele><time>2026-05-01T16:26:23Z</time></trkpt><trkpt lat="42.18792801616195" lon="8.803002959320272"><ele>714.0</ele><time>2026-05-01T16:26:24Z</time></trkpt><trkpt lat="42.18803727323313" lon="8.80314467952434"><ele>714.0</ele><time>2026-05-01T16:26:25Z</time></trkpt><trkpt lat="42.18813171074993" lon="8.803309874078575"><ele>714.0</ele><time>2026-05-01T16:26:26Z</time></trkpt><trkpt lat="42.188093098402675" lon="8.80372346595096"><ele>707.5</ele><time>2026-05-01T16:26:27Z</time></trkpt><trkpt lat="42.188158379605305" lon="8.80404662406701"><ele>701.0</ele><time>2026-05-01T16:26:28Z</time></trkpt><trkpt lat="42.18824982334102" lon="8.80436724690094"><ele>709.6666666666666</ele><time>2026-05-01T16:26:29Z</time></trkpt><trkpt lat="42.18832098621532" lon="8.804631726643715"><ele>718.3333333333334</ele><time>2026-05-01T16:26:30Z</time></trkpt><trkpt lat="42.188395263528136" lon="8.804827831614974"><ele>727.0</ele><time>2026-05-01T16:26:31Z</time></trkpt><trkpt lat="42.188497572983266" lon="8.804953021769405"><ele>727.0</ele><time>2026-05-01T16:26:32.001Z</time></trkpt><trkpt lat="42.1886573185593" lon="8.805052527329776"><ele>727.0</ele><time>2026-05-01T16:26:33.001Z</time></trkpt><trkpt lat="42.18887010713082" lon="8.805112456267699"><ele>727.0</ele><time>2026-05-01T16:26:34.001Z</time></trkpt><trkpt lat="42.18905859848894" lon="8.805247934683079"><ele>729.0</ele><time>2026-05-01T16:26:35.001Z</time></trkpt><trkpt lat="42.18920883181144" lon="8.805468435261295"><ele>731.0</ele><time>2026-05-01T16:26:36.001Z</time></trkpt><trkpt lat="42.18932147391435" lon="8.805690479292581"><ele>733.0</ele><time>2026-05-01T16:26:37.001Z</time></trkpt><trkpt lat="42.18938918729711" lon="8.805981717479577"><ele>731.3333333333334</ele><time>2026-05-01T16:26:38.001Z</time></trkpt><trkpt lat="42.189508523901544" lon="8.806197001975711"><ele>729.6666666666666</ele><time>2026-05-01T16:26:39.001Z</time></trkpt><trkpt lat="42.18967788415299" lon="8.806341236369533"><ele>728.0</ele><time>2026-05-01T16:26:40.001Z</time></trkpt><trkpt lat="42.189840006880964" lon="8.806421696888442"><ele>736.0</ele><time>2026-05-01T16:26:41.001Z</time></trkpt><trkpt lat="42.19000911203591" lon="8.806434910720203"><ele>744.0</ele><time>2026-05-01T16:26:42.001Z</time></trkpt><trkpt lat="42.19019275622265" lon="8.806379238415873"><ele>752.0</ele><time>2026-05-01T16:26:43.001Z</time></trkpt><trkpt lat="42.190370169484986" lon="8.806307380092258"><ele>752.0</ele><time>2026-05-01T16:26:44.001Z</time></trkpt><trkpt lat="42.19057489854901" lon="8.80632565257907"><ele>752.0</ele><time>2026-05-01T16:26:45.001Z</time></trkpt><trkpt lat="42.19078188172426" lon="8.806424993900686"><ele>752.0</ele><time>2026-05-01T16:26:46.001Z</time></trkpt><trkpt lat="42.19093972390403" lon="8.80656741816101"><ele>752.3333333333333</ele><time>2026-05-01T16:26:47.001Z</time></trkpt><trkpt lat="42.19107673023144" lon="8.806759019397914"><ele>752.6666666666666</ele><time>2026-05-01T16:26:48.001Z</time></trkpt><trkpt lat="42.19123039830821" lon="8.806987741381118"><ele>753.0</ele><time>2026-05-01T16:26:49.001Z</time></trkpt><trkpt lat="42.191404570336864" lon="8.807217028573545"><ele>748.5</ele><time>2026-05-01T16:26:50.001Z</time></trkpt><trkpt lat="42.19158696698884" lon="8.807455185978409"><ele>744.0</ele><time>2026-05-01T16:26:51.001Z</time></trkpt><trkpt lat="42.19177358346606" lon="8.807699337349476"><ele>744.0</ele><time>2026-05-01T16:26:52.001Z</time></trkpt><trkpt lat="42.19196064205603" lon="8.807934498096467"><ele>744.0</ele><time>2026-05-01T16:26:53.001Z</time></trkpt><trkpt lat="42.19215151797833" lon="8.808168603549865"><ele>745.0</ele><time>2026-05-01T16:26:54.001Z</time></trkpt><trkpt lat="42.19234060124351" lon="8.80841545179218"><ele>746.0</ele><time>2026-05-01T16:26:55.001Z</time></trkpt><trkpt lat="42.19252250910453" lon="8.80865921837836"><ele>747.0</ele><time>2026-05-01T16:26:56.001Z</time></trkpt><trkpt lat="42.19270654255811" lon="8.808898450576347"><ele>748.0</ele><time>2026-05-01T16:26:57.001Z</time></trkpt><trkpt lat="42.192884087727634" lon="8.809133311261444"><ele>750.0</ele><time>2026-05-01T16:26:58.001Z</time></trkpt><trkpt lat="42.193055041655676" lon="8.809377459349125"><ele>752.0</ele><time>2026-05-01T16:26:59.001Z</time></trkpt><trkpt lat="42.19322210219506" lon="8.809618950692489"><ele>752.0</ele><time>2026-05-01T16:27:00.001Z</time></trkpt><trkpt lat="42.19338971993869" lon="8.80985687998917"><ele>752.0</ele><time>2026-05-01T16:27:01.001Z</time></trkpt><trkpt lat="42.19354819033718" lon="8.81010645831383"><ele>756.5</ele><time>2026-05-01T16:27:02.001Z</time></trkpt><trkpt lat="42.193710792710746" lon="8.810352594963351"><ele>761.0</ele><time>2026-05-01T16:27:03.002Z</time></trkpt><trkpt lat="42.19387866635109" lon="8.810590464636816"><ele>762.0</ele><time>2026-05-01T16:27:04.002Z</time></trkpt><trkpt lat="42.19405529384424" lon="8.81082708950832"><ele>763.0</ele><time>2026-05-01T16:27:05.002Z</time></trkpt><trkpt lat="42.19422022013672" lon="8.811055923493784"><ele>764.0</ele><time>2026-05-01T16:27:06.002Z</time></trkpt><trkpt lat="42.19438119341188" lon="8.81128902988914"><ele>765.0</ele><time>2026-05-01T16:27:07.002Z</time></trkpt><trkpt lat="42.194533494194964" lon="8.811532357291465"><ele>765.0</ele><time>2026-05-01T16:27:08.002Z</time></trkpt><trkpt lat="42.19467205595739" lon="8.811797389713405"><ele>765.0</ele><time>2026-05-01T16:27:09.002Z</time></trkpt><trkpt lat="42.19479749740858" lon="8.812077478702626"><ele>767.5</ele><time>2026-05-01T16:27:10.002Z</time></trkpt><trkpt lat="42.19489991544301" lon="8.812369063356666"><ele>770.0</ele><time>2026-05-01T16:27:11.002Z</time></trkpt><trkpt lat="42.19501069133376" lon="8.81265783354405"><ele>774.0</ele><time>2026-05-01T16:27:12.002Z</time></trkpt><trkpt lat="42.195126751061224" lon="8.812942865904008"><ele>778.0</ele><time>2026-05-01T16:27:13.002Z</time></trkpt><trkpt lat="42.19524581887578" lon="8.813229209422083"><ele>782.0</ele><time>2026-05-01T16:27:14.002Z</time></trkpt><trkpt lat="42.195370325905785" lon="8.813513836967248"><ele>786.0</ele><time>2026-05-01T16:27:15.002Z</time></trkpt><trkpt lat="42.19550033248778" lon="8.8137931922034"><ele>786.0</ele><time>2026-05-01T16:27:16.002Z</time></trkpt><trkpt lat="42.195610045803264" lon="8.814094134930436"><ele>786.0</ele><time>2026-05-01T16:27:17.002Z</time></trkpt><trkpt lat="42.19571706926972" lon="8.814401609819562"><ele>784.5</ele><time>2026-05-01T16:27:18.002Z</time></trkpt><trkpt lat="42.19580677421198" lon="8.814714013397456"><ele>783.0</ele><time>2026-05-01T16:27:19.002Z</time></trkpt><trkpt lat="42.195900786973965" lon="8.815030544939196"><ele>785.0</ele><time>2026-05-01T16:27:20.002Z</time></trkpt><trkpt lat="42.19598502093497" lon="8.81534462527715"><ele>787.0</ele><time>2026-05-01T16:27:21.002Z</time></trkpt><trkpt lat="42.196067281219825" lon="8.81565253765562"><ele>787.0</ele><time>2026-05-01T16:27:22.002Z</time></trkpt><trkpt lat="42.19615380587162" lon="8.815930274926632"><ele>787.0</ele><time>2026-05-01T16:27:23.002Z</time></trkpt><trkpt lat="42.19625680357846" lon="8.816175204225754"><ele>787.0</ele><time>2026-05-01T16:27:24.002Z</time></trkpt><trkpt lat="42.19639619151541" lon="8.816354699846135"><ele>789.6666666666666</ele><time>2026-05-01T16:27:25.002Z</time></trkpt><trkpt lat="42.19658280834232" lon="8.816475548806274"><ele>792.3333333333333</ele><time>2026-05-01T16:27:26.002Z</time></trkpt><trkpt lat="42.19679384546776" lon="8.816559277530082"><ele>795.0</ele><time>2026-05-01T16:27:27.002Z</time></trkpt><trkpt lat="42.19702565797721" lon="8.816623949868307"><ele>795.0</ele><time>2026-05-01T16:27:28.002Z</time></trkpt><trkpt lat="42.19724595245134" lon="8.816698846233567"><ele>795.0</ele><time>2026-05-01T16:27:29.002Z</time></trkpt><trkpt lat="42.19746174025745" lon="8.81678660126563"><ele>796.3333333333333</ele><time>2026-05-01T16:27:30.002Z</time></trkpt><trkpt lat="42.19766007207925" lon="8.816897263533178"><ele>797.6666666666666</ele><time>2026-05-01T16:27:31.002Z</time></trkpt><trkpt lat="42.19783069306106" lon="8.81695453253151"><ele>799.0</ele><time>2026-05-01T16:27:32.002Z</time></trkpt><trkpt lat="42.197961281768336" lon="8.816912621478291"><ele>799.0</ele><time>2026-05-01T16:27:33.002Z</time></trkpt><trkpt lat="42.19807668659508" lon="8.816819771128776"><ele>799.0</ele><time>2026-05-01T16:27:34.002Z</time></trkpt><trkpt lat="42.19818613300377" lon="8.816630333716784"><ele>799.0</ele><time>2026-05-01T16:27:35.002Z</time></trkpt><trkpt lat="42.19833695355409" lon="8.816500298899978"><ele>803.6666666666666</ele><time>2026-05-01T16:27:36.003Z</time></trkpt><trkpt lat="42.19850308267952" lon="8.816431501027704"><ele>808.3333333333333</ele><time>2026-05-01T16:27:37.003Z</time></trkpt><trkpt lat="42.198677749048365" lon="8.8164621676421"><ele>813.0</ele><time>2026-05-01T16:27:38.003Z</time></trkpt><trkpt lat="42.19888401215898" lon="8.81652386330864"><ele>816.0</ele><time>2026-05-01T16:27:39.003Z</time></trkpt><trkpt lat="42.19909436568089" lon="8.816620079442705"><ele>819.0</ele><time>2026-05-01T16:27:40.003Z</time></trkpt><trkpt lat="42.19931127648213" lon="8.81674260230578"><ele>810.5</ele><time>2026-05-01T16:27:41.003Z</time></trkpt><trkpt lat="42.1995401999456" lon="8.81687211729871"><ele>802.0</ele><time>2026-05-01T16:27:42.003Z</time></trkpt><trkpt lat="42.19977597288638" lon="8.817005017248908"><ele>809.0</ele><time>2026-05-01T16:27:43.003Z</time></trkpt><trkpt lat="42.20001905873942" lon="8.817136730071605"><ele>816.0</ele><time>2026-05-01T16:27:44.003Z</time></trkpt><trkpt lat="42.20027423000014" lon="8.817240239565898"><ele>816.0</ele><time>2026-05-01T16:27:45.003Z</time></trkpt><trkpt lat="42.20051639979427" lon="8.81728957024938"><ele>816.0</ele><time>2026-05-01T16:27:46.003Z</time></trkpt><trkpt lat="42.200692666165004" lon="8.817448953825384"><ele>821.5</ele><time>2026-05-01T16:27:47.003Z</time></trkpt><trkpt lat="42.200835984501914" lon="8.817653439243534"><ele>827.0</ele><time>2026-05-01T16:27:48.003Z</time></trkpt><trkpt lat="42.200994557464824" lon="8.81790624196475"><ele>827.0</ele><time>2026-05-01T16:27:49.003Z</time></trkpt><trkpt lat="42.201156022054604" lon="8.818150190518088"><ele>827.0</ele><time>2026-05-01T16:27:50.003Z</time></trkpt><trkpt lat="42.201292762104615" lon="8.81834071399551"><ele>827.0</ele><time>2026-05-01T16:27:51.003Z</time></trkpt><trkpt lat="42.20142318465299" lon="8.818472521004159"><ele>828.6666666666667</ele><time>2026-05-01T16:27:52.003Z</time></trkpt><trkpt lat="42.20158745546562" lon="8.818510383235882"><ele>830.3333333333333</ele><time>2026-05-01T16:27:53.003Z</time></trkpt><trkpt lat="42.20178999559312" lon="8.818483629555343"><ele>832.0</ele><time>2026-05-01T16:27:53.999Z</time></trkpt><trkpt lat="42.20199751498599" lon="8.818475784850822"><ele>832.0</ele><time>2026-05-01T16:27:54.999Z</time></trkpt><trkpt lat="42.20216752216804" lon="8.818572901302344"><ele>832.0</ele><time>2026-05-01T16:27:55.999Z</time></trkpt><trkpt lat="42.20234445566313" lon="8.818720663882532"><ele>832.0</ele><time>2026-05-01T16:27:56.999Z</time></trkpt><trkpt lat="42.20252782322018" lon="8.818894622575112"><ele>841.0</ele><time>2026-05-01T16:27:57.999Z</time></trkpt><trkpt lat="42.20271447755876" lon="8.819080092694652"><ele>850.0</ele><time>2026-05-01T16:27:58.999Z</time></trkpt><trkpt lat="42.20292129266554" lon="8.819188984582087"><ele>850.0</ele><time>2026-05-01T16:27:59.999Z</time></trkpt><trkpt lat="42.203151434125196" lon="8.819290263638637"><ele>850.0</ele><time>2026-05-01T16:28:00.999Z</time></trkpt><trkpt lat="42.20339582159901" lon="8.819380715579149"><ele>852.0</ele><time>2026-05-01T16:28:01.999Z</time></trkpt><trkpt lat="42.203656342346704" lon="8.819472379140144"><ele>854.0</ele><time>2026-05-01T16:28:02.999Z</time></trkpt><trkpt lat="42.203907238302975" lon="8.819580861449346"><ele>857.3333333333334</ele><time>2026-05-01T16:28:03.999Z</time></trkpt><trkpt lat="42.20412502056892" lon="8.819703977389342"><ele>860.6666666666667</ele><time>2026-05-01T16:28:04.999Z</time></trkpt><trkpt lat="42.20433314989225" lon="8.819748846344654"><ele>864.0</ele><time>2026-05-01T16:28:06Z</time></trkpt><trkpt lat="42.20453414714682" lon="8.819688566670798"><ele>864.0</ele><time>2026-05-01T16:28:07Z</time></trkpt><trkpt lat="42.20473453219292" lon="8.819561729607866"><ele>864.0</ele><time>2026-05-01T16:28:08Z</time></trkpt><trkpt lat="42.20492149589988" lon="8.819454669895203"><ele>864.0</ele><time>2026-05-01T16:28:09Z</time></trkpt><trkpt lat="42.205090281141025" lon="8.819391519523784"><ele>867.0</ele><time>2026-05-01T16:28:10Z</time></trkpt><trkpt lat="42.205265276676755" lon="8.819409893442563"><ele>870.0</ele><time>2026-05-01T16:28:11Z</time></trkpt><trkpt lat="42.20545426654356" lon="8.819401441427082"><ele>873.0</ele><time>2026-05-01T16:28:12Z</time></trkpt><trkpt lat="42.20557419060683" lon="8.81932758437743"><ele>877.0</ele><time>2026-05-01T16:28:13Z</time></trkpt><trkpt lat="42.20564264372329" lon="8.819180341709789"><ele>881.0</ele><time>2026-05-01T16:28:14Z</time></trkpt><trkpt lat="42.20564874976664" lon="8.818968252130327"><ele>885.0</ele><time>2026-05-01T16:28:15Z</time></trkpt><trkpt lat="42.205705260526244" lon="8.818772314859983"><ele>889.0</ele><time>2026-05-01T16:28:16Z</time></trkpt><trkpt lat="42.205776725672656" lon="8.818667322534273"><ele>889.0</ele><time>2026-05-01T16:28:17Z</time></trkpt><trkpt lat="42.20588244314762" lon="8.818629359216633"><ele>889.0</ele><time>2026-05-01T16:28:18Z</time></trkpt><trkpt lat="42.206005831399004" lon="8.81861596671775"><ele>889.0</ele><time>2026-05-01T16:28:19Z</time></trkpt><trkpt lat="42.20614228576073" lon="8.818636200492504"><ele>889.0</ele><time>2026-05-01T16:28:20Z</time></trkpt><trkpt lat="42.20626065194412" lon="8.818711407230165"><ele>889.0</ele><time>2026-05-01T16:28:21Z</time></trkpt><trkpt lat="42.20636719391526" lon="8.818849471549523"><ele>889.0</ele><time>2026-05-01T16:28:22Z</time></trkpt><trkpt lat="42.20648790180992" lon="8.819004757940554"><ele>889.0</ele><time>2026-05-01T16:28:23Z</time></trkpt><trkpt lat="42.2066175811526" lon="8.81911556171857"><ele>887.0</ele><time>2026-05-01T16:28:24Z</time></trkpt><trkpt lat="42.20675435959129" lon="8.819216688635542"><ele>885.0</ele><time>2026-05-01T16:28:25Z</time></trkpt><trkpt lat="42.20687883675323" lon="8.81933702527399"><ele>883.0</ele><time>2026-05-01T16:28:26Z</time></trkpt><trkpt lat="42.20702924701955" lon="8.81939008689265"><ele>883.0</ele><time>2026-05-01T16:28:27.001Z</time></trkpt><trkpt lat="42.20716849419383" lon="8.819428726142055"><ele>883.0</ele><time>2026-05-01T16:28:28.001Z</time></trkpt><trkpt lat="42.207315276632706" lon="8.81936417500139"><ele>883.0</ele><time>2026-05-01T16:28:29.001Z</time></trkpt><trkpt lat="42.20746214195955" lon="8.81931839288445"><ele>883.0</ele><time>2026-05-01T16:28:30.001Z</time></trkpt><trkpt lat="42.20760906390288" lon="8.81929841105743"><ele>886.5</ele><time>2026-05-01T16:28:31.001Z</time></trkpt><trkpt lat="42.20774093148873" lon="8.819337971361701"><ele>890.0</ele><time>2026-05-01T16:28:32.001Z</time></trkpt><trkpt lat="42.20786310089007" lon="8.819444319245534"><ele>893.5</ele><time>2026-05-01T16:28:33.001Z</time></trkpt><trkpt lat="42.20796525648825" lon="8.819587700504888"><ele>897.0</ele><time>2026-05-01T16:28:34.001Z</time></trkpt><trkpt lat="42.20807017431475" lon="8.819745467853437"><ele>901.3333333333333</ele><time>2026-05-01T16:28:35.001Z</time></trkpt><trkpt lat="42.20818425510913" lon="8.81990019868114"><ele>905.6666666666666</ele><time>2026-05-01T16:28:36.001Z</time></trkpt><trkpt lat="42.20832146446777" lon="8.820018886197769"><ele>910.0</ele><time>2026-05-01T16:28:37.001Z</time></trkpt><trkpt lat="42.20845914703776" lon="8.82014931284572"><ele>906.3333333333333</ele><time>2026-05-01T16:28:38.001Z</time></trkpt><trkpt lat="42.20857992856991" lon="8.82029777557292"><ele>902.6666666666667</ele><time>2026-05-01T16:28:39.001Z</time></trkpt><trkpt lat="42.20871567051778" lon="8.82043612418665"><ele>899.0</ele><time>2026-05-01T16:28:40.001Z</time></trkpt><trkpt lat="42.20885399257373" lon="8.820545266013957"><ele>899.0</ele><time>2026-05-01T16:28:41.001Z</time></trkpt><trkpt lat="42.2089558023961" lon="8.820631218853588"><ele>899.0</ele><time>2026-05-01T16:28:42.001Z</time></trkpt><trkpt lat="42.20910220038128" lon="8.820656205845786"><ele>899.0</ele><time>2026-05-01T16:28:43.001Z</time></trkpt><trkpt lat="42.20925248467089" lon="8.820650456839275"><ele>899.0</ele><time>2026-05-01T16:28:44.001Z</time></trkpt><trkpt lat="42.20941937148737" lon="8.820672121594907"><ele>903.6666666666667</ele><time>2026-05-01T16:28:45.001Z</time></trkpt><trkpt lat="42.20958715930452" lon="8.820675798833873"><ele>908.3333333333333</ele><time>2026-05-01T16:28:46.001Z</time></trkpt><trkpt lat="42.209759120201305" lon="8.820662063769033"><ele>913.0</ele><time>2026-05-01T16:28:47.001Z</time></trkpt><trkpt lat="42.20991914020571" lon="8.82065043417057"><ele>918.3333333333333</ele><time>2026-05-01T16:28:48.001Z</time></trkpt><trkpt lat="42.21007421401661" lon="8.820574563017647"><ele>923.6666666666667</ele><time>2026-05-01T16:28:49.001Z</time></trkpt><trkpt lat="42.210212341994875" lon="8.820443705079644"><ele>929.0</ele><time>2026-05-01T16:28:50.001Z</time></trkpt><trkpt lat="42.21034372426262" lon="8.82032230729038"><ele>929.0</ele><time>2026-05-01T16:28:51.001Z</time></trkpt><trkpt lat="42.21046538753837" lon="8.820304747386702"><ele>929.0</ele><time>2026-05-01T16:28:52.001Z</time></trkpt><trkpt lat="42.21057215504853" lon="8.820342182166602"><ele>929.0</ele><time>2026-05-01T16:28:53.001Z</time></trkpt><trkpt lat="42.21067364979847" lon="8.820460779320841"><ele>929.0</ele><time>2026-05-01T16:28:54.001Z</time></trkpt><trkpt lat="42.21077221834376" lon="8.820614737747913"><ele>931.3333333333334</ele><time>2026-05-01T16:28:55.001Z</time></trkpt><trkpt lat="42.210908252397644" lon="8.820774570899525"><ele>933.6666666666667</ele><time>2026-05-01T16:28:56.002Z</time></trkpt><trkpt lat="42.21105261038783" lon="8.820927832687493"><ele>936.0</ele><time>2026-05-01T16:28:57.002Z</time></trkpt><trkpt lat="42.21118871916853" lon="8.821100534272244"><ele>934.0</ele><time>2026-05-01T16:28:58.002Z</time></trkpt><trkpt lat="42.211312658798235" lon="8.821292060594024"><ele>932.0</ele><time>2026-05-01T16:28:59.002Z</time></trkpt><trkpt lat="42.21141253766945" lon="8.821483065010181"><ele>930.0</ele><time>2026-05-01T16:29:00.002Z</time></trkpt><trkpt lat="42.211504622124885" lon="8.821683866496482"><ele>930.75</ele><time>2026-05-01T16:29:01.002Z</time></trkpt><trkpt lat="42.2115971595575" lon="8.821864890821693"><ele>931.5</ele><time>2026-05-01T16:29:02.002Z</time></trkpt><trkpt lat="42.21169167839845" lon="8.822004664266233"><ele>932.25</ele><time>2026-05-01T16:29:03.002Z</time></trkpt><trkpt lat="42.21178428892475" lon="8.822090413074918"><ele>933.0</ele><time>2026-05-01T16:29:04.002Z</time></trkpt><trkpt lat="42.211872754587255" lon="8.822138743595072"><ele>933.0</ele><time>2026-05-01T16:29:05.002Z</time></trkpt><trkpt lat="42.211950648891396" lon="8.822137635539475"><ele>933.0</ele><time>2026-05-01T16:29:06.002Z</time></trkpt><trkpt lat="42.21202416713123" lon="8.822115147659554"><ele>933.0</ele><time>2026-05-01T16:29:07.002Z</time></trkpt><trkpt lat="42.212101382236476" lon="8.822079612126599"><ele>933.0</ele><time>2026-05-01T16:29:08.002Z</time></trkpt><trkpt lat="42.21220167035787" lon="8.822052255287531"><ele>933.0</ele><time>2026-05-01T16:29:09.002Z</time></trkpt><trkpt lat="42.21230670819721" lon="8.822001794098941"><ele>933.0</ele><time>2026-05-01T16:29:10.002Z</time></trkpt><trkpt lat="42.21241770513987" lon="8.821936229127157"><ele>932.5</ele><time>2026-05-01T16:29:11.002Z</time></trkpt><trkpt lat="42.21253938459267" lon="8.821854680988361"><ele>932.0</ele><time>2026-05-01T16:29:12.002Z</time></trkpt><trkpt lat="42.212671550787086" lon="8.821764486150789"><ele>931.5</ele><time>2026-05-01T16:29:13.002Z</time></trkpt><trkpt lat="42.212815617819615" lon="8.821671944469987"><ele>931.0</ele><time>2026-05-01T16:29:14.002Z</time></trkpt><trkpt lat="42.21296639562419" lon="8.821573879252266"><ele>931.0</ele><time>2026-05-01T16:29:15.002Z</time></trkpt><trkpt lat="42.21310819490012" lon="8.821449467439578"><ele>931.0</ele><time>2026-05-01T16:29:16.002Z</time></trkpt><trkpt lat="42.2132591964485" lon="8.821377954353679"><ele>931.0</ele><time>2026-05-01T16:29:17.002Z</time></trkpt><trkpt lat="42.21341397606864" lon="8.821361588171188"><ele>934.6666666666666</ele><time>2026-05-01T16:29:18.002Z</time></trkpt><trkpt lat="42.213566873418955" lon="8.821412606461564"><ele>938.3333333333333</ele><time>2026-05-01T16:29:19.002Z</time></trkpt><trkpt lat="42.21371337566631" lon="8.82147396195832"><ele>942.0</ele><time>2026-05-01T16:29:20.002Z</time></trkpt><trkpt lat="42.21386041380497" lon="8.821493568571979"><ele>946.0</ele><time>2026-05-01T16:29:21.002Z</time></trkpt><trkpt lat="42.21400898409117" lon="8.82147938367448"><ele>950.0</ele><time>2026-05-01T16:29:22.002Z</time></trkpt><trkpt lat="42.214164618906" lon="8.821455849174109"><ele>954.0</ele><time>2026-05-01T16:29:23.002Z</time></trkpt><trkpt lat="42.21431318178707" lon="8.821397777658929"><ele>954.0</ele><time>2026-05-01T16:29:24.002Z</time></trkpt><trkpt lat="42.214456489860105" lon="8.821372650692588"><ele>954.0</ele><time>2026-05-01T16:29:25.002Z</time></trkpt><trkpt lat="42.2145765801562" lon="8.821387884164208"><ele>954.0</ele><time>2026-05-01T16:29:26.002Z</time></trkpt><trkpt lat="42.214679373009155" lon="8.821480708409206"><ele>954.0</ele><time>2026-05-01T16:29:27.002Z</time></trkpt><trkpt lat="42.214771712452325" lon="8.82160276012502"><ele>955.0</ele><time>2026-05-01T16:29:28.002Z</time></trkpt><trkpt lat="42.21485686654399" lon="8.821748302316372"><ele>956.0</ele><time>2026-05-01T16:29:29.003Z</time></trkpt><trkpt lat="42.21495270390013" lon="8.821890586455181"><ele>957.0</ele><time>2026-05-01T16:29:30.003Z</time></trkpt><trkpt lat="42.21507769186755" lon="8.821986138270091"><ele>958.0</ele><time>2026-05-01T16:29:31.003Z</time></trkpt><trkpt lat="42.21523184804418" lon="8.822032187177998"><ele>958.0</ele><time>2026-05-01T16:29:32.003Z</time></trkpt><trkpt lat="42.21539301090796" lon="8.822028406476564"><ele>958.0</ele><time>2026-05-01T16:29:33.003Z</time></trkpt><trkpt lat="42.21556895617601" lon="8.821955023905002"><ele>958.0</ele><time>2026-05-01T16:29:34.003Z</time></trkpt><trkpt lat="42.21573518163663" lon="8.821935383431612"><ele>965.0</ele><time>2026-05-01T16:29:35.003Z</time></trkpt><trkpt lat="42.21588315091562" lon="8.82196741056175"><ele>972.0</ele><time>2026-05-01T16:29:36.003Z</time></trkpt><trkpt lat="42.216030989910095" lon="8.822028127617457"><ele>979.0</ele><time>2026-05-01T16:29:37.003Z</time></trkpt><trkpt lat="42.21616893730429" lon="8.822126716119735"><ele>979.0</ele><time>2026-05-01T16:29:38.003Z</time></trkpt><trkpt lat="42.216261436136435" lon="8.82227066055448"><ele>979.0</ele><time>2026-05-01T16:29:39.003Z</time></trkpt><trkpt lat="42.21634927112557" lon="8.822445162812215"><ele>979.0</ele><time>2026-05-01T16:29:40.003Z</time></trkpt><trkpt lat="42.21645914313653" lon="8.822593022964346"><ele>980.0</ele><time>2026-05-01T16:29:41.003Z</time></trkpt><trkpt lat="42.216574592331135" lon="8.822740016092734"><ele>981.0</ele><time>2026-05-01T16:29:42.003Z</time></trkpt><trkpt lat="42.21670945082655" lon="8.822849956901994"><ele>982.0</ele><time>2026-05-01T16:29:43.003Z</time></trkpt><trkpt lat="42.21684676955492" lon="8.822913364853283"><ele>982.0</ele><time>2026-05-01T16:29:44.003Z</time></trkpt><trkpt lat="42.216993829572765" lon="8.822911386071484"><ele>982.0</ele><time>2026-05-01T16:29:45.003Z</time></trkpt><trkpt lat="42.21715384197506" lon="8.822894529819822"><ele>982.0</ele><time>2026-05-01T16:29:46.003Z</time></trkpt><trkpt lat="42.21729791350004" lon="8.822916315579567"><ele>987.0</ele><time>2026-05-01T16:29:47.003Z</time></trkpt><trkpt lat="42.21739831144776" lon="8.823020100118383"><ele>992.0</ele><time>2026-05-01T16:29:48.003Z</time></trkpt><trkpt lat="42.217508454652226" lon="8.823144496332114"><ele>997.0</ele><time>2026-05-01T16:29:49.003Z</time></trkpt><trkpt lat="42.217631806601936" lon="8.823270081683894"><ele>1002.0</ele><time>2026-05-01T16:29:50.003Z</time></trkpt><trkpt lat="42.217771175428304" lon="8.82337486010174"><ele>1002.0</ele><time>2026-05-01T16:29:51.003Z</time></trkpt><trkpt lat="42.217934966954154" lon="8.823417572348443"><ele>1002.0</ele><time>2026-05-01T16:29:52.003Z</time></trkpt><trkpt lat="42.21810105476074" lon="8.823478203553789"><ele>1002.0</ele><time>2026-05-01T16:29:53.003Z</time></trkpt><trkpt lat="42.21824364518995" lon="8.823581466687452"><ele>1003.0</ele><time>2026-05-01T16:29:54.003Z</time></trkpt><trkpt lat="42.21838659535197" lon="8.823722572550416"><ele>1004.0</ele><time>2026-05-01T16:29:55.003Z</time></trkpt><trkpt lat="42.21854073901931" lon="8.82385359482808"><ele>1005.0</ele><time>2026-05-01T16:29:56.003Z</time></trkpt><trkpt lat="42.21868732636145" lon="8.824003151116008"><ele>1005.0</ele><time>2026-05-01T16:29:57.003Z</time></trkpt><trkpt lat="42.218829306456975" lon="8.82414513090885"><ele>1005.0</ele><time>2026-05-01T16:29:58.003Z</time></trkpt><trkpt lat="42.21897479386025" lon="8.824303428219373"><ele>1005.0</ele><time>2026-05-01T16:29:59.003Z</time></trkpt><trkpt lat="42.21912592201709" lon="8.824479997544094"><ele>1009.3333333333333</ele><time>2026-05-01T16:30:00Z</time></trkpt><trkpt lat="42.21927974124359" lon="8.82466080393192"><ele>1013.6666666666666</ele><time>2026-05-01T16:30:01Z</time></trkpt><trkpt lat="42.219443544866266" lon="8.824844925180313"><ele>1018.0</ele><time>2026-05-01T16:30:02Z</time></trkpt><trkpt lat="42.21961222185294" lon="8.825033652900505"><ele>1012.0</ele><time>2026-05-01T16:30:03Z</time></trkpt><trkpt lat="42.219772366374166" lon="8.82523797321303"><ele>1006.0</ele><time>2026-05-01T16:30:04Z</time></trkpt><trkpt lat="42.219934672177146" lon="8.825424285359402"><ele>1000.0</ele><time>2026-05-01T16:30:05Z</time></trkpt><trkpt lat="42.220094607312916" lon="8.825607064894811"><ele>1008.0</ele><time>2026-05-01T16:30:06Z</time></trkpt><trkpt lat="42.220253155550566" lon="8.8257868946276"><ele>1016.0</ele><time>2026-05-01T16:30:07Z</time></trkpt><trkpt lat="42.22041103455311" lon="8.825968606700876"><ele>1024.0</ele><time>2026-05-01T16:30:08Z</time></trkpt><trkpt lat="42.220572938337014" lon="8.826153645752855"><ele>1034.6666666666665</ele><time>2026-05-01T16:30:09Z</time></trkpt><trkpt lat="42.220729638575804" lon="8.826332737565664"><ele>1045.3333333333333</ele><time>2026-05-01T16:30:10Z</time></trkpt><trkpt lat="42.2208868924738" lon="8.826488541610978"><ele>1056.0</ele><time>2026-05-01T16:30:11Z</time></trkpt><trkpt lat="42.22102917582873" lon="8.826652232133593"><ele>1056.0</ele><time>2026-05-01T16:30:12Z</time></trkpt><trkpt lat="42.22116492407955" lon="8.826806921759381"><ele>1056.0</ele><time>2026-05-01T16:30:13Z</time></trkpt><trkpt lat="42.2212902993962" lon="8.826944741239116"><ele>1056.0</ele><time>2026-05-01T16:30:14Z</time></trkpt><trkpt lat="42.221408456987405" lon="8.827057802140052"><ele>1058.75</ele><time>2026-05-01T16:30:15Z</time></trkpt><trkpt lat="42.22154473179648" lon="8.8271188752753"><ele>1061.5</ele><time>2026-05-01T16:30:16Z</time></trkpt><trkpt lat="42.22166854089026" lon="8.827178094142779"><ele>1064.25</ele><time>2026-05-01T16:30:17Z</time></trkpt><trkpt lat="42.221754843039605" lon="8.82726446057563"><ele>1067.0</ele><time>2026-05-01T16:30:18Z</time></trkpt><trkpt lat="42.22182324164154" lon="8.827389810157976"><ele>1067.0</ele><time>2026-05-01T16:30:19Z</time></trkpt><trkpt lat="42.221853613382265" lon="8.827576042445585"><ele>1067.0</ele><time>2026-05-01T16:30:20Z</time></trkpt><trkpt lat="42.221892225015566" lon="8.827794887932619"><ele>1067.0</ele><time>2026-05-01T16:30:21Z</time></trkpt><trkpt lat="42.22196094628095" lon="8.82801876425162"><ele>1066.3333333333335</ele><time>2026-05-01T16:30:22Z</time></trkpt><trkpt lat="42.22201460077282" lon="8.828258741132261"><ele>1065.6666666666667</ele><time>2026-05-01T16:30:23Z</time></trkpt><trkpt lat="42.22205427098043" lon="8.828499486542626"><ele>1065.0</ele><time>2026-05-01T16:30:24Z</time></trkpt><trkpt lat="42.222094858190424" lon="8.828715189965497"><ele>1065.0</ele><time>2026-05-01T16:30:25Z</time></trkpt><trkpt lat="42.22216893841819" lon="8.828880555035164"><ele>1065.0</ele><time>2026-05-01T16:30:26Z</time></trkpt><trkpt lat="42.222295949234734" lon="8.82901430970341"><ele>1065.0</ele><time>2026-05-01T16:30:27Z</time></trkpt><trkpt lat="42.22241883984646" lon="8.829169551283227"><ele>1076.6666666666667</ele><time>2026-05-01T16:30:28Z</time></trkpt><trkpt lat="42.22252932944507" lon="8.82935291544955"><ele>1088.3333333333335</ele><time>2026-05-01T16:30:29Z</time></trkpt><trkpt lat="42.22263017729941" lon="8.829539052187796"><ele>1100.0</ele><time>2026-05-01T16:30:30.001Z</time></trkpt><trkpt lat="42.22272922070096" lon="8.829707169319908"><ele>1100.0</ele><time>2026-05-01T16:30:31.001Z</time></trkpt><trkpt lat="42.222857178546874" lon="8.829822050837874"><ele>1100.0</ele><time>2026-05-01T16:30:32.001Z</time></trkpt><trkpt lat="42.223009336892744" lon="8.829854715358554"><ele>1100.0</ele><time>2026-05-01T16:30:33.001Z</time></trkpt><trkpt lat="42.22316675184799" lon="8.829856785458524"><ele>1102.0</ele><time>2026-05-01T16:30:34.001Z</time></trkpt><trkpt lat="42.22332963239153" lon="8.82988731733755"><ele>1104.0</ele><time>2026-05-01T16:30:35.001Z</time></trkpt><trkpt lat="42.223490147246444" lon="8.829890799794684"><ele>1106.0</ele><time>2026-05-01T16:30:36.001Z</time></trkpt><trkpt lat="42.22365761453415" lon="8.829933515253957"><ele>1106.0</ele><time>2026-05-01T16:30:37.001Z</time></trkpt><trkpt lat="42.22382053755956" lon="8.829979364640627"><ele>1106.0</ele><time>2026-05-01T16:30:38.001Z</time></trkpt><trkpt lat="42.223978747549246" lon="8.830052076009189"><ele>1106.0</ele><time>2026-05-01T16:30:39.001Z</time></trkpt><trkpt lat="42.2241016607978" lon="8.830189269149967"><ele>1104.3333333333335</ele><time>2026-05-01T16:30:40.001Z</time></trkpt><trkpt lat="42.22423560342364" lon="8.830322938293659"><ele>1102.6666666666667</ele><time>2026-05-01T16:30:41.001Z</time></trkpt><trkpt lat="42.224355307123524" lon="8.830488203414893"><ele>1101.0</ele><time>2026-05-01T16:30:42.001Z</time></trkpt><trkpt lat="42.224491468093376" lon="8.830651964501783"><ele>1101.0</ele><time>2026-05-01T16:30:43.001Z</time></trkpt><trkpt lat="42.224626824688734" lon="8.8308190384335"><ele>1101.0</ele><time>2026-05-01T16:30:44.001Z</time></trkpt><trkpt lat="42.22473601262516" lon="8.830997733942096"><ele>1101.0</ele><time>2026-05-01T16:30:45.001Z</time></trkpt><trkpt lat="42.22478224404415" lon="8.8312341064559"><ele>1095.6666666666667</ele><time>2026-05-01T16:30:46.001Z</time></trkpt><trkpt lat="42.224846256967076" lon="8.831485200153406"><ele>1090.3333333333335</ele><time>2026-05-01T16:30:47.001Z</time></trkpt><trkpt lat="42.224881545861656" lon="8.831753139550624"><ele>1085.0</ele><time>2026-05-01T16:30:48.001Z</time></trkpt><trkpt lat="42.224920260745485" lon="8.831999999345424"><ele>1085.0</ele><time>2026-05-01T16:30:49.001Z</time></trkpt><trkpt lat="42.22496836107604" lon="8.8322288960877"><ele>1085.0</ele><time>2026-05-01T16:30:50.001Z</time></trkpt><trkpt lat="42.225025500164016" lon="8.832445239737156"><ele>1085.0</ele><time>2026-05-01T16:30:51.001Z</time></trkpt><trkpt lat="42.225103445123175" lon="8.83264543655562"><ele>1087.6666666666667</ele><time>2026-05-01T16:30:52.001Z</time></trkpt><trkpt lat="42.22522310528394" lon="8.832806517185238"><ele>1090.3333333333333</ele><time>2026-05-01T16:30:53.001Z</time></trkpt><trkpt lat="42.22537185390397" lon="8.832906100405467"><ele>1093.0</ele><time>2026-05-01T16:30:54.001Z</time></trkpt><trkpt lat="42.22553266544411" lon="8.832957887580037"><ele>1087.5</ele><time>2026-05-01T16:30:55.001Z</time></trkpt><trkpt lat="42.22567173969094" lon="8.83301339095848"><ele>1082.0</ele><time>2026-05-01T16:30:56.001Z</time></trkpt><trkpt lat="42.225771256169715" lon="8.833120051635849"><ele>1076.5</ele><time>2026-05-01T16:30:57.001Z</time></trkpt><trkpt lat="42.225800079591735" lon="8.833287505092937"><ele>1071.0</ele><time>2026-05-01T16:30:58.001Z</time></trkpt><trkpt lat="42.22579724777443" lon="8.833472763694584"><ele>1070.3333333333333</ele><time>2026-05-01T16:30:59.001Z</time></trkpt><trkpt lat="42.225776454415396" lon="8.833683476097699"><ele>1069.6666666666665</ele><time>2026-05-01T16:31:00.001Z</time></trkpt><trkpt lat="42.22572965593589" lon="8.833901721897163"><ele>1069.0</ele><time>2026-05-01T16:31:01.001Z</time></trkpt><trkpt lat="42.22571259299965" lon="8.834139377007933"><ele>1068.6666666666665</ele><time>2026-05-01T16:31:02.002Z</time></trkpt><trkpt lat="42.225743958598414" lon="8.834389658456018"><ele>1068.3333333333333</ele><time>2026-05-01T16:31:03.002Z</time></trkpt><trkpt lat="42.225809642606556" lon="8.834640373311121"><ele>1068.0</ele><time>2026-05-01T16:31:04.002Z</time></trkpt><trkpt lat="42.22587339059866" lon="8.834896174759098"><ele>1066.6666666666667</ele><time>2026-05-01T16:31:05.002Z</time></trkpt><trkpt lat="42.22590862651118" lon="8.835142901669808"><ele>1065.3333333333335</ele><time>2026-05-01T16:31:06.002Z</time></trkpt><trkpt lat="42.22591997530321" lon="8.835396023321035"><ele>1064.0</ele><time>2026-05-01T16:31:07.002Z</time></trkpt><trkpt lat="42.225927785875896" lon="8.835642135541798"><ele>1064.0</ele><time>2026-05-01T16:31:08.002Z</time></trkpt><trkpt lat="42.22594750194824" lon="8.835869518513851"><ele>1064.0</ele><time>2026-05-01T16:31:09.002Z</time></trkpt><trkpt lat="42.22595834457033" lon="8.83606346404222"><ele>1064.0</ele><time>2026-05-01T16:31:10.002Z</time></trkpt><trkpt lat="42.22590473257394" lon="8.836216913384703"><ele>1064.0</ele><time>2026-05-01T16:31:11.002Z</time></trkpt><trkpt lat="42.225817113893484" lon="8.83632669586923"><ele>1062.0</ele><time>2026-05-01T16:31:12.002Z</time></trkpt><trkpt lat="42.225741784974" lon="8.836465962086303"><ele>1060.0</ele><time>2026-05-01T16:31:13.002Z</time></trkpt><trkpt lat="42.22565823123094" lon="8.836588604649949"><ele>1058.0</ele><time>2026-05-01T16:31:14.002Z</time></trkpt><trkpt lat="42.225622374644004" lon="8.836753242434188"><ele>1056.0</ele><time>2026-05-01T16:31:15.002Z</time></trkpt><trkpt lat="42.22563952945256" lon="8.836934381224713"><ele>1056.3333333333333</ele><time>2026-05-01T16:31:16.002Z</time></trkpt><trkpt lat="42.225725542229064" lon="8.837105666191182"><ele>1056.6666666666665</ele><time>2026-05-01T16:31:17.002Z</time></trkpt><trkpt lat="42.22586088918293" lon="8.83724718774403"><ele>1057.0</ele><time>2026-05-01T16:31:18.002Z</time></trkpt><trkpt lat="42.2260065567868" lon="8.837390796088272"><ele>1057.0</ele><time>2026-05-01T16:31:19.002Z</time></trkpt><trkpt lat="42.22614719032965" lon="8.837555422168162"><ele>1057.0</ele><time>2026-05-01T16:31:20.002Z</time></trkpt><trkpt lat="42.22628968624204" lon="8.837732410097443"><ele>1057.0</ele><time>2026-05-01T16:31:21.002Z</time></trkpt><trkpt lat="42.22643198041706" lon="8.837905965785039"><ele>1052.3333333333333</ele><time>2026-05-01T16:31:22.002Z</time></trkpt><trkpt lat="42.226561275506995" lon="8.838076419725724"><ele>1047.6666666666667</ele><time>2026-05-01T16:31:23.002Z</time></trkpt><trkpt lat="42.22668515934232" lon="8.838276642055815"><ele>1043.0</ele><time>2026-05-01T16:31:24.002Z</time></trkpt><trkpt lat="42.226780391797305" lon="8.838506569685853"><ele>1043.0</ele><time>2026-05-01T16:31:25.002Z</time></trkpt><trkpt lat="42.22681723340845" lon="8.838753250199513"><ele>1043.0</ele><time>2026-05-01T16:31:26.002Z</time></trkpt><trkpt lat="42.22684482740162" lon="8.83901562837649"><ele>1043.0</ele><time>2026-05-01T16:31:27.002Z</time></trkpt><trkpt lat="42.2268740788295" lon="8.839280453507051"><ele>1043.6666666666667</ele><time>2026-05-01T16:31:28.002Z</time></trkpt><trkpt lat="42.22689958691045" lon="8.839533619597473"><ele>1044.3333333333333</ele><time>2026-05-01T16:31:29.002Z</time></trkpt><trkpt lat="42.226941863434774" lon="8.839760818491312"><ele>1045.0</ele><time>2026-05-01T16:31:30.002Z</time></trkpt><trkpt lat="42.22698751433313" lon="8.839973124843281"><ele>1051.3333333333333</ele><time>2026-05-01T16:31:31.002Z</time></trkpt><trkpt lat="42.22704126277144" lon="8.84017229584184"><ele>1057.6666666666667</ele><time>2026-05-01T16:31:32.002Z</time></trkpt><trkpt lat="42.22714170446962" lon="8.840350890678156"><ele>1064.0</ele><time>2026-05-01T16:31:33.002Z</time></trkpt><trkpt lat="42.22728196544986" lon="8.840509173046753"><ele>1052.6666666666667</ele><time>2026-05-01T16:31:34.002Z</time></trkpt><trkpt lat="42.22744792949677" lon="8.840636569263344"><ele>1041.3333333333333</ele><time>2026-05-01T16:31:35.002Z</time></trkpt><trkpt lat="42.227624942155806" lon="8.840717098235865"><ele>1030.0</ele><time>2026-05-01T16:31:36.003Z</time></trkpt><trkpt lat="42.22780542550314" lon="8.84075498628546"><ele>1030.0</ele><time>2026-05-01T16:31:37.003Z</time></trkpt><trkpt lat="42.22797876189469" lon="8.840779177794369"><ele>1030.0</ele><time>2026-05-01T16:31:38.003Z</time></trkpt><trkpt lat="42.22813579032422" lon="8.840841908842933"><ele>1030.0</ele><time>2026-05-01T16:31:39.003Z</time></trkpt><trkpt lat="42.2282784237391" lon="8.84094515515078"><ele>1031.0</ele><time>2026-05-01T16:31:40.003Z</time></trkpt><trkpt lat="42.22843175081236" lon="8.841056446592326"><ele>1032.0</ele><time>2026-05-01T16:31:41.003Z</time></trkpt><trkpt lat="42.22855824444575" lon="8.84120278664342"><ele>1033.0</ele><time>2026-05-01T16:31:42.003Z</time></trkpt><trkpt lat="42.22866117151527" lon="8.841351340741433"><ele>1033.0</ele><time>2026-05-01T16:31:43.003Z</time></trkpt><trkpt lat="42.228728097699296" lon="8.841529098421004"><ele>1033.0</ele><time>2026-05-01T16:31:44.003Z</time></trkpt><trkpt lat="42.22875193181734" lon="8.841749740533603"><ele>1033.0</ele><time>2026-05-01T16:31:45.003Z</time></trkpt><trkpt lat="42.22877604900676" lon="8.841985926936124"><ele>1036.6666666666665</ele><time>2026-05-01T16:31:46.003Z</time></trkpt><trkpt lat="42.228824677820384" lon="8.84220434883188"><ele>1040.3333333333333</ele><time>2026-05-01T16:31:47.003Z</time></trkpt><trkpt lat="42.22891107449304" lon="8.842403463621391"><ele>1044.0</ele><time>2026-05-01T16:31:48.003Z</time></trkpt><trkpt lat="42.229020839728356" lon="8.842587777928454"><ele>1031.0</ele><time>2026-05-01T16:31:49.003Z</time></trkpt><trkpt lat="42.22912755999601" lon="8.842761855057018"><ele>1018.0</ele><time>2026-05-01T16:31:50.003Z</time></trkpt><trkpt lat="42.229211572990714" lon="8.842937622200232"><ele>1005.0</ele><time>2026-05-01T16:31:51.003Z</time></trkpt><trkpt lat="42.22926209310989" lon="8.843128727352891"><ele>1005.0</ele><time>2026-05-01T16:31:52.003Z</time></trkpt><trkpt lat="42.22923980236713" lon="8.843323851579484"><ele>1005.0</ele><time>2026-05-01T16:31:53.003Z</time></trkpt><trkpt lat="42.2292439167864" lon="8.84352175078341"><ele>1005.0</ele><time>2026-05-01T16:31:54.003Z</time></trkpt><trkpt lat="42.2292164255774" lon="8.843720708175102"><ele>1005.0</ele><time>2026-05-01T16:31:55.003Z</time></trkpt><trkpt lat="42.22920710306739" lon="8.843937539051332"><ele>1004.3333333333333</ele><time>2026-05-01T16:31:56.003Z</time></trkpt><trkpt lat="42.22921633847289" lon="8.844158921441934"><ele>1003.6666666666666</ele><time>2026-05-01T16:31:57.003Z</time></trkpt><trkpt lat="42.22920811651684" lon="8.84438718453917"><ele>1003.0</ele><time>2026-05-01T16:31:58.003Z</time></trkpt><trkpt lat="42.229151605073" lon="8.844602159087259"><ele>1006.3333333333333</ele><time>2026-05-01T16:31:59.003Z</time></trkpt><trkpt lat="42.22906083517856" lon="8.844804609756308"><ele>1009.6666666666667</ele><time>2026-05-01T16:32:00.003Z</time></trkpt><trkpt lat="42.22895896971959" lon="8.845017154357944"><ele>1013.0</ele><time>2026-05-01T16:32:01.003Z</time></trkpt><trkpt lat="42.22886928515403" lon="8.845224231925744"><ele>1013.0</ele><time>2026-05-01T16:32:02.003Z</time></trkpt><trkpt lat="42.22879462837087" lon="8.845422061757679"><ele>1013.0</ele><time>2026-05-01T16:32:03.003Z</time></trkpt><trkpt lat="42.22877003676577" lon="8.845639761662703"><ele>1013.0</ele><time>2026-05-01T16:32:04.003Z</time></trkpt><trkpt lat="42.22880443450217" lon="8.845876109363681"><ele>1015.0</ele><time>2026-05-01T16:32:05.003Z</time></trkpt><trkpt lat="42.22886202591495" lon="8.846118277834405"><ele>1017.0</ele><time>2026-05-01T16:32:06Z</time></trkpt><trkpt lat="42.22890628045852" lon="8.846361864466253"><ele>1019.0</ele><time>2026-05-01T16:32:07Z</time></trkpt><trkpt lat="42.228901097452294" lon="8.846591707868344"><ele>1020.0</ele><time>2026-05-01T16:32:08Z</time></trkpt><trkpt lat="42.228927828554646" lon="8.846800894129458"><ele>1021.0</ele><time>2026-05-01T16:32:09Z</time></trkpt><trkpt lat="42.2289784213423" lon="8.846989529007287"><ele>1022.0</ele><time>2026-05-01T16:32:10Z</time></trkpt><trkpt lat="42.22909422079904" lon="8.847129197116805"><ele>1018.3333333333334</ele><time>2026-05-01T16:32:11Z</time></trkpt><trkpt lat="42.229245516753736" lon="8.847191728666623"><ele>1014.6666666666667</ele><time>2026-05-01T16:32:12Z</time></trkpt><trkpt lat="42.22940701466135" lon="8.847205045425126"><ele>1011.0</ele><time>2026-05-01T16:32:13Z</time></trkpt><trkpt lat="42.22958504423753" lon="8.847174471053764"><ele>1011.0</ele><time>2026-05-01T16:32:14Z</time></trkpt><trkpt lat="42.22977567558606" lon="8.84714314595615"><ele>1011.0</ele><time>2026-05-01T16:32:15Z</time></trkpt><trkpt lat="42.229965885158535" lon="8.847121457930772"><ele>1011.0</ele><time>2026-05-01T16:32:16Z</time></trkpt><trkpt lat="42.230150935245376" lon="8.847122776716226"><ele>1010.0</ele><time>2026-05-01T16:32:17Z</time></trkpt><trkpt lat="42.23032013283868" lon="8.847150071214108"><ele>1009.0</ele><time>2026-05-01T16:32:18Z</time></trkpt><trkpt lat="42.230493317600725" lon="8.847213679098932"><ele>1008.0</ele><time>2026-05-01T16:32:19Z</time></trkpt><trkpt lat="42.230657007356626" lon="8.84727559235351"><ele>1005.5</ele><time>2026-05-01T16:32:20Z</time></trkpt><trkpt lat="42.23080858520908" lon="8.847323843698565"><ele>1003.0</ele><time>2026-05-01T16:32:21Z</time></trkpt><trkpt lat="42.23094682087207" lon="8.847366846645064"><ele>1000.5</ele><time>2026-05-01T16:32:22Z</time></trkpt><trkpt lat="42.23108600262665" lon="8.847430910989749"><ele>998.0</ele><time>2026-05-01T16:32:23Z</time></trkpt><trkpt lat="42.23120582257055" lon="8.847557082981236"><ele>1005.6666666666667</ele><time>2026-05-01T16:32:24Z</time></trkpt><trkpt lat="42.23128324302325" lon="8.84773128936185"><ele>1013.3333333333333</ele><time>2026-05-01T16:32:25Z</time></trkpt><trkpt lat="42.23137213620258" lon="8.847924569670866"><ele>1021.0</ele><time>2026-05-01T16:32:26Z</time></trkpt><trkpt lat="42.23146234187006" lon="8.848129093636866"><ele>1011.6666666666666</ele><time>2026-05-01T16:32:27Z</time></trkpt><trkpt lat="42.23154799765612" lon="8.848337709562244"><ele>1002.3333333333333</ele><time>2026-05-01T16:32:28Z</time></trkpt><trkpt lat="42.23160539249924" lon="8.848578064708954"><ele>993.0</ele><time>2026-05-01T16:32:29Z</time></trkpt><trkpt lat="42.231594314192535" lon="8.848833713443382"><ele>993.0</ele><time>2026-05-01T16:32:30Z</time></trkpt><trkpt lat="42.23158269304232" lon="8.849095324263313"><ele>993.0</ele><time>2026-05-01T16:32:31Z</time></trkpt><trkpt lat="42.23159711447964" lon="8.849343791895851"><ele>993.0</ele><time>2026-05-01T16:32:32Z</time></trkpt><trkpt lat="42.231601581101465" lon="8.849576927494024"><ele>993.6666666666667</ele><time>2026-05-01T16:32:33Z</time></trkpt><trkpt lat="42.2316498901433" lon="8.849819135451437"><ele>994.3333333333334</ele><time>2026-05-01T16:32:34Z</time></trkpt><trkpt lat="42.23170894749738" lon="8.850067272843793"><ele>995.0</ele><time>2026-05-01T16:32:35Z</time></trkpt><trkpt lat="42.231755162865745" lon="8.85032755505135"><ele>996.0</ele><time>2026-05-01T16:32:36Z</time></trkpt><trkpt lat="42.23180542239438" lon="8.850581648394561"><ele>997.0</ele><time>2026-05-01T16:32:37.001Z</time></trkpt><trkpt lat="42.231844684729445" lon="8.850816985327347"><ele>998.0</ele><time>2026-05-01T16:32:38.001Z</time></trkpt><trkpt lat="42.23188190789644" lon="8.851039896026723"><ele>994.6666666666667</ele><time>2026-05-01T16:32:39.001Z</time></trkpt><trkpt lat="42.23188197689724" lon="8.851263105635871"><ele>991.3333333333333</ele><time>2026-05-01T16:32:40.001Z</time></trkpt><trkpt lat="42.23184569128124" lon="8.851474841073907"><ele>988.0</ele><time>2026-05-01T16:32:41.001Z</time></trkpt><trkpt lat="42.231784297067456" lon="8.851687070948472"><ele>984.3333333333333</ele><time>2026-05-01T16:32:42.001Z</time></trkpt><trkpt lat="42.23171277105234" lon="8.851911700398523"><ele>980.6666666666667</ele><time>2026-05-01T16:32:43.001Z</time></trkpt><trkpt lat="42.23163945301746" lon="8.85211885234277"><ele>977.0</ele><time>2026-05-01T16:32:44.001Z</time></trkpt><trkpt lat="42.23159207065054" lon="8.852325023431487"><ele>977.0</ele><time>2026-05-01T16:32:45.001Z</time></trkpt><trkpt lat="42.2315751385622" lon="8.852527816628124"><ele>977.0</ele><time>2026-05-01T16:32:46.001Z</time></trkpt><trkpt lat="42.23161678900221" lon="8.852725982670432"><ele>977.0</ele><time>2026-05-01T16:32:47.001Z</time></trkpt><trkpt lat="42.23170596005353" lon="8.852923744294495"><ele>982.0</ele><time>2026-05-01T16:32:48.001Z</time></trkpt><trkpt lat="42.23181668675579" lon="8.853134029530805"><ele>987.0</ele><time>2026-05-01T16:32:49.001Z</time></trkpt><trkpt lat="42.23190537380281" lon="8.853376237841795"><ele>992.0</ele><time>2026-05-01T16:32:50.001Z</time></trkpt><trkpt lat="42.23200394171011" lon="8.853620022309707"><ele>996.0</ele><time>2026-05-01T16:32:51.001Z</time></trkpt><trkpt lat="42.23208731796939" lon="8.85385402618081"><ele>1000.0</ele><time>2026-05-01T16:32:52.001Z</time></trkpt><trkpt lat="42.23212572279986" lon="8.85409077552292"><ele>1004.0</ele><time>2026-05-01T16:32:53.001Z</time></trkpt><trkpt lat="42.23220520317997" lon="8.854307173087955"><ele>1007.6666666666667</ele><time>2026-05-01T16:32:54.001Z</time></trkpt><trkpt lat="42.232284214558746" lon="8.854508715503242"><ele>1011.3333333333333</ele><time>2026-05-01T16:32:55.001Z</time></trkpt><trkpt lat="42.232417537643734" lon="8.854681147599047"><ele>1015.0</ele><time>2026-05-01T16:32:56.001Z</time></trkpt><trkpt lat="42.232559007615635" lon="8.854871947793297"><ele>1004.6666666666666</ele><time>2026-05-01T16:32:57.001Z</time></trkpt><trkpt lat="42.2326665940446" lon="8.855074294412708"><ele>994.3333333333333</ele><time>2026-05-01T16:32:58.001Z</time></trkpt><trkpt lat="42.232738397059435" lon="8.85528820803838"><ele>984.0</ele><time>2026-05-01T16:32:59.001Z</time></trkpt><trkpt lat="42.23281156644441" lon="8.85548205490633"><ele>984.0</ele><time>2026-05-01T16:33:00.001Z</time></trkpt><trkpt lat="42.232895314098826" lon="8.855636468116076"><ele>984.0</ele><time>2026-05-01T16:33:01.001Z</time></trkpt><trkpt lat="42.23298284016124" lon="8.855745634675756"><ele>984.0</ele><time>2026-05-01T16:33:02.001Z</time></trkpt><trkpt lat="42.233097240783934" lon="8.855816670447341"><ele>984.0</ele><time>2026-05-01T16:33:03.001Z</time></trkpt><trkpt lat="42.23322709920048" lon="8.85580638329656"><ele>977.5</ele><time>2026-05-01T16:33:04.001Z</time></trkpt><trkpt lat="42.233357376518086" lon="8.855749769757855"><ele>971.0</ele><time>2026-05-01T16:33:05.001Z</time></trkpt><trkpt lat="42.23348974890968" lon="8.85576425776368"><ele>964.5</ele><time>2026-05-01T16:33:06.001Z</time></trkpt><trkpt lat="42.233589823613734" lon="8.85585687133688"><ele>958.0</ele><time>2026-05-01T16:33:07.001Z</time></trkpt><trkpt lat="42.23368135060791" lon="8.855991446843355"><ele>958.0</ele><time>2026-05-01T16:33:08.001Z</time></trkpt><trkpt lat="42.23373551464664" lon="8.856177324065621"><ele>958.0</ele><time>2026-05-01T16:33:09.002Z</time></trkpt><trkpt lat="42.233734098091546" lon="8.856379936928935"><ele>958.0</ele><time>2026-05-01T16:33:10.002Z</time></trkpt><trkpt lat="42.233711647492065" lon="8.856568717309447"><ele>958.0</ele><time>2026-05-01T16:33:11.002Z</time></trkpt><trkpt lat="42.23372899362561" lon="8.856713343902761"><ele>955.8</ele><time>2026-05-01T16:33:12.002Z</time></trkpt><trkpt lat="42.233750374787945" lon="8.856821691234357"><ele>953.5999999999999</ele><time>2026-05-01T16:33:13.002Z</time></trkpt><trkpt lat="42.23382435752695" lon="8.856908008145014"><ele>951.4000000000001</ele><time>2026-05-01T16:33:14.002Z</time></trkpt><trkpt lat="42.23393541575221" lon="8.856922683231968"><ele>949.2</ele><time>2026-05-01T16:33:15.002Z</time></trkpt><trkpt lat="42.234047600219725" lon="8.85684957782832"><ele>947.0</ele><time>2026-05-01T16:33:16.002Z</time></trkpt><trkpt lat="42.234112808399935" lon="8.856703234762549"><ele>946.5</ele><time>2026-05-01T16:33:17.002Z</time></trkpt><trkpt lat="42.23409333557904" lon="8.856540851187424"><ele>946.0</ele><time>2026-05-01T16:33:18.002Z</time></trkpt><trkpt lat="42.234028676657054" lon="8.85636688645785"><ele>945.5</ele><time>2026-05-01T16:33:19.002Z</time></trkpt><trkpt lat="42.23395416663872" lon="8.85616287005491"><ele>945.0</ele><time>2026-05-01T16:33:20.002Z</time></trkpt><trkpt lat="42.233892758452875" lon="8.855930078769077"><ele>947.6666666666667</ele><time>2026-05-01T16:33:21.002Z</time></trkpt><trkpt lat="42.23382799159054" lon="8.855692291310296"><ele>950.3333333333334</ele><time>2026-05-01T16:33:22.002Z</time></trkpt><trkpt lat="42.23374635683197" lon="8.855481287891104"><ele>953.0</ele><time>2026-05-01T16:33:23.002Z</time></trkpt><trkpt lat="42.233632314076175" lon="8.855307965580351"><ele>953.0</ele><time>2026-05-01T16:33:24.002Z</time></trkpt><trkpt lat="42.23348830049213" lon="8.855188395362095"><ele>953.0</ele><time>2026-05-01T16:33:25.002Z</time></trkpt><trkpt lat="42.23333204547753" lon="8.855115893507568"><ele>953.0</ele><time>2026-05-01T16:33:26.002Z</time></trkpt><trkpt lat="42.2332203058396" lon="8.854958939717028"><ele>958.0</ele><time>2026-05-01T16:33:27.002Z</time></trkpt><trkpt lat="42.233155186567" lon="8.854753331805487"><ele>963.0</ele><time>2026-05-01T16:33:28.002Z</time></trkpt><trkpt lat="42.23304838137023" lon="8.854591537892084"><ele>968.0</ele><time>2026-05-01T16:33:29.002Z</time></trkpt><trkpt lat="42.232953939073475" lon="8.854433820487259"><ele>964.0</ele><time>2026-05-01T16:33:30.002Z</time></trkpt><trkpt lat="42.23286894886318" lon="8.854285883357337"><ele>960.0</ele><time>2026-05-01T16:33:31.002Z</time></trkpt><trkpt lat="42.232846165904405" lon="8.854113506069206"><ele>956.0</ele><time>2026-05-01T16:33:32.002Z</time></trkpt><trkpt lat="42.23291252825853" lon="8.85396515805901"><ele>952.0</ele><time>2026-05-01T16:33:33.002Z</time></trkpt><trkpt lat="42.23297659352384" lon="8.853821530804955"><ele>952.0</ele><time>2026-05-01T16:33:34.002Z</time></trkpt><trkpt lat="42.2330205808104" lon="8.853681586327427"><ele>952.0</ele><time>2026-05-01T16:33:35.002Z</time></trkpt><trkpt lat="42.23302852603514" lon="8.85353268459263"><ele>952.0</ele><time>2026-05-01T16:33:36.002Z</time></trkpt><trkpt lat="42.23298073723828" lon="8.853350986408758"><ele>952.0</ele><time>2026-05-01T16:33:37.002Z</time></trkpt><trkpt lat="42.23293551124872" lon="8.853143462864324"><ele>949.3333333333333</ele><time>2026-05-01T16:33:38.002Z</time></trkpt><trkpt lat="42.23294171554206" lon="8.852910152326599"><ele>946.6666666666667</ele><time>2026-05-01T16:33:39.002Z</time></trkpt><trkpt lat="42.23293165561292" lon="8.852657000528252"><ele>944.0</ele><time>2026-05-01T16:33:40.002Z</time></trkpt><trkpt lat="42.232942870388996" lon="8.85240919455389"><ele>941.6666666666667</ele><time>2026-05-01T16:33:41.002Z</time></trkpt><trkpt lat="42.23295182530787" lon="8.85219194192709"><ele>939.3333333333333</ele><time>2026-05-01T16:33:42.003Z</time></trkpt><trkpt lat="42.232977606294064" lon="8.851989788553642"><ele>937.0</ele><time>2026-05-01T16:33:43.003Z</time></trkpt><trkpt lat="42.233037093235545" lon="8.851809785880972"><ele>939.6666666666666</ele><time>2026-05-01T16:33:44.003Z</time></trkpt><trkpt lat="42.23311888269347" lon="8.851639734211806"><ele>942.3333333333333</ele><time>2026-05-01T16:33:45.003Z</time></trkpt><trkpt lat="42.233196624953166" lon="8.851448912374936"><ele>945.0</ele><time>2026-05-01T16:33:46.003Z</time></trkpt><trkpt lat="42.233235688998676" lon="8.851240001787934"><ele>933.0</ele><time>2026-05-01T16:33:47.003Z</time></trkpt><trkpt lat="42.23324016049772" lon="8.851018807125698"><ele>921.0</ele><time>2026-05-01T16:33:48.003Z</time></trkpt><trkpt lat="42.233218694584394" lon="8.85080474934517"><ele>909.0</ele><time>2026-05-01T16:33:49.003Z</time></trkpt><trkpt lat="42.23320291167184" lon="8.850594917585981"><ele>909.3333333333333</ele><time>2026-05-01T16:33:50.003Z</time></trkpt><trkpt lat="42.233198472546555" lon="8.85038681532386"><ele>909.6666666666666</ele><time>2026-05-01T16:33:51.003Z</time></trkpt><trkpt lat="42.233244675481444" lon="8.850186009339987"><ele>910.0</ele><time>2026-05-01T16:33:52.003Z</time></trkpt><trkpt lat="42.23330257136553" lon="8.849990541506312"><ele>910.0</ele><time>2026-05-01T16:33:53.003Z</time></trkpt><trkpt lat="42.23339045980925" lon="8.849837481121186"><ele>910.0</ele><time>2026-05-01T16:33:54.003Z</time></trkpt><trkpt lat="42.23351449846539" lon="8.849749605543627"><ele>910.0</ele><time>2026-05-01T16:33:55.003Z</time></trkpt><trkpt lat="42.23362622683361" lon="8.849643945809206"><ele>910.0</ele><time>2026-05-01T16:33:56.003Z</time></trkpt><trkpt lat="42.233737961662065" lon="8.849551818043496"><ele>910.0</ele><time>2026-05-01T16:33:57.003Z</time></trkpt><trkpt lat="42.233806524191536" lon="8.849381685967007"><ele>910.0</ele><time>2026-05-01T16:33:58.003Z</time></trkpt><trkpt lat="42.23382928470995" lon="8.849159184219822"><ele>910.0</ele><time>2026-05-01T16:33:59.003Z</time></trkpt><trkpt lat="42.233856702312934" lon="8.848905434940049"><ele>913.6666666666666</ele><time>2026-05-01T16:34:00.003Z</time></trkpt><trkpt lat="42.233896454700115" lon="8.848662335806509"><ele>917.3333333333333</ele><time>2026-05-01T16:34:01.003Z</time></trkpt><trkpt lat="42.23393827018013" lon="8.848435885034972"><ele>921.0</ele><time>2026-05-01T16:34:02.003Z</time></trkpt><trkpt lat="42.233968807051916" lon="8.848217451660306"><ele>910.6666666666667</ele><time>2026-05-01T16:34:03.003Z</time></trkpt><trkpt lat="42.23399262941631" lon="8.848018364748187"><ele>900.3333333333334</ele><time>2026-05-01T16:34:04.003Z</time></trkpt><trkpt lat="42.2340149441011" lon="8.84782707287563"><ele>890.0</ele><time>2026-05-01T16:34:05.003Z</time></trkpt><trkpt lat="42.23402486582193" lon="8.84760046169324"><ele>888.6666666666667</ele><time>2026-05-01T16:34:06.003Z</time></trkpt><trkpt lat="42.23402149527276" lon="8.84735328835842"><ele>887.3333333333333</ele><time>2026-05-01T16:34:07.003Z</time></trkpt><trkpt lat="42.2339959220314" lon="8.847100047876117"><ele>886.0</ele><time>2026-05-01T16:34:08.003Z</time></trkpt><trkpt lat="42.23393387819888" lon="8.84687100273226"><ele>889.5</ele><time>2026-05-01T16:34:09.003Z</time></trkpt><trkpt lat="42.23382165306665" lon="8.846696354252789"><ele>893.0</ele><time>2026-05-01T16:34:10.003Z</time></trkpt><trkpt lat="42.23369937248068" lon="8.846575788300584"><ele>896.5</ele><time>2026-05-01T16:34:11.003Z</time></trkpt><trkpt lat="42.233640001517735" lon="8.846453315939147"><ele>900.0</ele><time>2026-05-01T16:34:12Z</time></trkpt><trkpt lat="42.23366346462428" lon="8.846349686020066"><ele>900.0</ele><time>2026-05-01T16:34:13Z</time></trkpt><trkpt lat="42.2337626485986" lon="8.846314202341901"><ele>900.0</ele><time>2026-05-01T16:34:14Z</time></trkpt><trkpt lat="42.233847989860855" lon="8.846345780141272"><ele>900.0</ele><time>2026-05-01T16:34:15Z</time></trkpt><trkpt lat="42.233924953871984" lon="8.846396177937047"><ele>900.0</ele><time>2026-05-01T16:34:16Z</time></trkpt><trkpt lat="42.23397044391918" lon="8.846544169209809"><ele>900.0</ele><time>2026-05-01T16:34:17Z</time></trkpt><trkpt lat="42.23405349547637" lon="8.846697317832051"><ele>895.3333333333333</ele><time>2026-05-01T16:34:18Z</time></trkpt><trkpt lat="42.234154278555046" lon="8.846869470587277"><ele>890.6666666666666</ele><time>2026-05-01T16:34:19Z</time></trkpt><trkpt lat="42.23426148215347" lon="8.847062907889848"><ele>886.0</ele><time>2026-05-01T16:34:20Z</time></trkpt><trkpt lat="42.23435392893976" lon="8.847291275570816"><ele>886.0</ele><time>2026-05-01T16:34:21Z</time></trkpt><trkpt lat="42.2344198599921" lon="8.8475472216578"><ele>886.0</ele><time>2026-05-01T16:34:22Z</time></trkpt><trkpt lat="42.234479183653235" lon="8.847831714297426"><ele>886.0</ele><time>2026-05-01T16:34:23Z</time></trkpt><trkpt lat="42.23452418342493" lon="8.848135065146586"><ele>887.0</ele><time>2026-05-01T16:34:24Z</time></trkpt><trkpt lat="42.23455110391653" lon="8.848437551385944"><ele>888.0</ele><time>2026-05-01T16:34:25Z</time></trkpt><trkpt lat="42.23458410574606" lon="8.848710590009297"><ele>889.0</ele><time>2026-05-01T16:34:26Z</time></trkpt><trkpt lat="42.23459906360138" lon="8.84892873114217"><ele>889.0</ele><time>2026-05-01T16:34:27Z</time></trkpt><trkpt lat="42.2346456839997" lon="8.849086240101595"><ele>889.0</ele><time>2026-05-01T16:34:28Z</time></trkpt><trkpt lat="42.23472962724781" lon="8.849176104289109"><ele>889.0</ele><time>2026-05-01T16:34:29Z</time></trkpt><trkpt lat="42.23483928039823" lon="8.849155223603733"><ele>889.0</ele><time>2026-05-01T16:34:30Z</time></trkpt><trkpt lat="42.23493260357244" lon="8.849043848835716"><ele>882.75</ele><time>2026-05-01T16:34:31Z</time></trkpt><trkpt lat="42.23497053106832" lon="8.848892507232154"><ele>876.5</ele><time>2026-05-01T16:34:32Z</time></trkpt><trkpt lat="42.23492904619275" lon="8.84873608199957"><ele>870.25</ele><time>2026-05-01T16:34:33Z</time></trkpt><trkpt lat="42.23484282301119" lon="8.8485471454671"><ele>864.0</ele><time>2026-05-01T16:34:34Z</time></trkpt><trkpt lat="42.23482134554923" lon="8.848333409334412"><ele>863.6666666666667</ele><time>2026-05-01T16:34:35Z</time></trkpt><trkpt lat="42.2348706170891" lon="8.848147927260518"><ele>863.3333333333334</ele><time>2026-05-01T16:34:36Z</time></trkpt><trkpt lat="42.23493580010069" lon="8.847954264414215"><ele>863.0</ele><time>2026-05-01T16:34:37Z</time></trkpt><trkpt lat="42.234996958237964" lon="8.847731406762495"><ele>862.0</ele><time>2026-05-01T16:34:38Z</time></trkpt><trkpt lat="42.23501948664093" lon="8.84747614340087"><ele>861.0</ele><time>2026-05-01T16:34:39Z</time></trkpt><trkpt lat="42.23502749750682" lon="8.847240489140507"><ele>860.0</ele><time>2026-05-01T16:34:40Z</time></trkpt><trkpt lat="42.23506180821395" lon="8.84703145582011"><ele>860.0</ele><time>2026-05-01T16:34:41Z</time></trkpt><trkpt lat="42.23514258891574" lon="8.846846822320014"><ele>860.0</ele><time>2026-05-01T16:34:42.001Z</time></trkpt><trkpt lat="42.235265959410604" lon="8.846719441059433"><ele>860.0</ele><time>2026-05-01T16:34:43.001Z</time></trkpt><trkpt lat="42.235380754943115" lon="8.846575660395137"><ele>858.3333333333334</ele><time>2026-05-01T16:34:44.001Z</time></trkpt><trkpt lat="42.2355144885991" lon="8.846433944405229"><ele>856.6666666666667</ele><time>2026-05-01T16:34:45.001Z</time></trkpt><trkpt lat="42.235643056400455" lon="8.846294397175111"><ele>855.0</ele><time>2026-05-01T16:34:46.001Z</time></trkpt><trkpt lat="42.235770622607326" lon="8.846176931506502"><ele>852.25</ele><time>2026-05-01T16:34:47.001Z</time></trkpt><trkpt lat="42.235907155366306" lon="8.846105192626684"><ele>849.5</ele><time>2026-05-01T16:34:48.001Z</time></trkpt><trkpt lat="42.23604741874541" lon="8.846134601673075"><ele>846.75</ele><time>2026-05-01T16:34:49.001Z</time></trkpt><trkpt lat="42.23616868095245" lon="8.846186747732016"><ele>844.0</ele><time>2026-05-01T16:34:50.001Z</time></trkpt><trkpt lat="42.236270515507954" lon="8.84633807522251"><ele>844.0</ele><time>2026-05-01T16:34:51.001Z</time></trkpt><trkpt lat="42.23638029276381" lon="8.846502490112572"><ele>844.0</ele><time>2026-05-01T16:34:52.001Z</time></trkpt><trkpt lat="42.23646274200227" lon="8.846708203727426"><ele>844.0</ele><time>2026-05-01T16:34:53.001Z</time></trkpt><trkpt lat="42.23653833976516" lon="8.846907224926683"><ele>839.75</ele><time>2026-05-01T16:34:54.001Z</time></trkpt><trkpt lat="42.23661202977792" lon="8.84705940769946"><ele>835.5</ele><time>2026-05-01T16:34:55.001Z</time></trkpt><trkpt lat="42.23669885028444" lon="8.847164613806845"><ele>831.25</ele><time>2026-05-01T16:34:56.001Z</time></trkpt><trkpt lat="42.23680915381814" lon="8.847203217463756"><ele>827.0</ele><time>2026-05-01T16:34:57.001Z</time></trkpt><trkpt lat="42.23692630334228" lon="8.847154281949335"><ele>827.0</ele><time>2026-05-01T16:34:58.001Z</time></trkpt><trkpt lat="42.237051263790995" lon="8.847046990889739"><ele>827.0</ele><time>2026-05-01T16:34:59.001Z</time></trkpt><trkpt lat="42.23717862528965" lon="8.846920424789248"><ele>827.0</ele><time>2026-05-01T16:35:00.001Z</time></trkpt><trkpt lat="42.23731206750225" lon="8.846810662524609"><ele>825.75</ele><time>2026-05-01T16:35:01.001Z</time></trkpt><trkpt lat="42.237436986947976" lon="8.84671249757076"><ele>824.5</ele><time>2026-05-01T16:35:02.001Z</time></trkpt><trkpt lat="42.2375432976835" lon="8.84659101337085"><ele>823.25</ele><time>2026-05-01T16:35:03.001Z</time></trkpt><trkpt lat="42.23761762426092" lon="8.84643972613795"><ele>822.0</ele><time>2026-05-01T16:35:04.001Z</time></trkpt><trkpt lat="42.23766553350203" lon="8.84625461426929"><ele>822.0</ele><time>2026-05-01T16:35:05.001Z</time></trkpt><trkpt lat="42.2376665101863" lon="8.846038505446145"><ele>822.0</ele><time>2026-05-01T16:35:06.001Z</time></trkpt><trkpt lat="42.23766776701161" lon="8.845805348144209"><ele>822.0</ele><time>2026-05-01T16:35:07.001Z</time></trkpt><trkpt lat="42.23765687370683" lon="8.845582337635816"><ele>823.0</ele><time>2026-05-01T16:35:08.001Z</time></trkpt><trkpt lat="42.237639998336476" lon="8.845374656669199"><ele>824.0</ele><time>2026-05-01T16:35:09.001Z</time></trkpt><trkpt lat="42.23761079674932" lon="8.845177006311024"><ele>825.0</ele><time>2026-05-01T16:35:10.001Z</time></trkpt><trkpt lat="42.23758155590659" lon="8.84497790540846"><ele>823.5</ele><time>2026-05-01T16:35:11.001Z</time></trkpt><trkpt lat="42.23752006042123" lon="8.844810431902854"><ele>822.0</ele><time>2026-05-01T16:35:12.001Z</time></trkpt><trkpt lat="42.237414671201726" lon="8.844697495755431"><ele>820.5</ele><time>2026-05-01T16:35:13.001Z</time></trkpt><trkpt lat="42.23727612725619" lon="8.84463818658187"><ele>819.0</ele><time>2026-05-01T16:35:14.002Z</time></trkpt><trkpt lat="42.2371559072526" lon="8.844599696950471"><ele>819.0</ele><time>2026-05-01T16:35:15.002Z</time></trkpt><trkpt lat="42.23705393293702" lon="8.844560873853798"><ele>819.0</ele><time>2026-05-01T16:35:16.002Z</time></trkpt><trkpt lat="42.23697475663439" lon="8.84452424087276"><ele>819.0</ele><time>2026-05-01T16:35:17.002Z</time></trkpt><trkpt lat="42.2368790544209" lon="8.844473205464713"><ele>819.0</ele><time>2026-05-01T16:35:19.002Z</time></trkpt><trkpt lat="42.236823909252806" lon="8.844394839486721"><ele>819.0</ele><time>2026-05-01T16:35:22.002Z</time></trkpt><trkpt lat="42.236698042254744" lon="8.84441221217404"><ele>819.0</ele><time>2026-05-01T16:35:24.002Z</time></trkpt><trkpt lat="42.23661891796698" lon="8.844464077489018"><ele>819.0</ele><time>2026-05-01T16:35:25.002Z</time></trkpt><trkpt lat="42.23653054813137" lon="8.844509187507759"><ele>819.0</ele><time>2026-05-01T16:35:26.002Z</time></trkpt><trkpt lat="42.23642623454123" lon="8.844546110814585"><ele>819.0</ele><time>2026-05-01T16:35:27.002Z</time></trkpt><trkpt lat="42.23631589322754" lon="8.844530482968416"><ele>819.0</ele><time>2026-05-01T16:35:28.002Z</time></trkpt><trkpt lat="42.23621533022709" lon="8.844502407300782"><ele>819.6666666666666</ele><time>2026-05-01T16:35:29.002Z</time></trkpt><trkpt lat="42.2361331865482" lon="8.84446807515697"><ele>820.3333333333333</ele><time>2026-05-01T16:35:30.002Z</time></trkpt><trkpt lat="42.23606194900886" lon="8.844439823073008"><ele>821.0</ele><time>2026-05-01T16:35:31.002Z</time></trkpt><trkpt lat="42.23599801634588" lon="8.844420567877842"><ele>821.6666666666666</ele><time>2026-05-01T16:35:32.002Z</time></trkpt><trkpt lat="42.23586949481547" lon="8.844393067715488"><ele>822.3333333333333</ele><time>2026-05-01T16:35:34.002Z</time></trkpt><trkpt lat="42.23578736081603" lon="8.844396856824236"><ele>823.0</ele><time>2026-05-01T16:35:35.002Z</time></trkpt><trkpt lat="42.235703250655156" lon="8.844408759890722"><ele>822.8</ele><time>2026-05-01T16:35:36.002Z</time></trkpt><trkpt lat="42.23560695990996" lon="8.844435305965332"><ele>822.5999999999999</ele><time>2026-05-01T16:35:37.002Z</time></trkpt><trkpt lat="42.23550840408883" lon="8.844480676832928"><ele>822.4000000000001</ele><time>2026-05-01T16:35:38.002Z</time></trkpt><trkpt lat="42.2354158465482" lon="8.84452541913951"><ele>822.2</ele><time>2026-05-01T16:35:39.002Z</time></trkpt><trkpt lat="42.23533320645922" lon="8.844558913723295"><ele>822.0</ele><time>2026-05-01T16:35:40.002Z</time></trkpt><trkpt lat="42.235261223530635" lon="8.844590753211115"><ele>822.0</ele><time>2026-05-01T16:35:41.002Z</time></trkpt><trkpt lat="42.23518694074928" lon="8.844565092696511"><ele>822.0</ele><time>2026-05-01T16:35:42.002Z</time></trkpt><trkpt lat="42.235129336531735" lon="8.844462211720424"><ele>822.0</ele><time>2026-05-01T16:35:43.002Z</time></trkpt><trkpt lat="42.23509107853674" lon="8.844343997487284"><ele>822.0</ele><time>2026-05-01T16:35:44.002Z</time></trkpt><trkpt lat="42.23505029102732" lon="8.844214652988208"><ele>822.0</ele><time>2026-05-01T16:35:45.002Z</time></trkpt><trkpt lat="42.23499161874197" lon="8.844078430200689"><ele>819.8</ele><time>2026-05-01T16:35:46.002Z</time></trkpt><trkpt lat="42.23495664527037" lon="8.8439282131707"><ele>817.6</ele><time>2026-05-01T16:35:47.003Z</time></trkpt><trkpt lat="42.23492103017308" lon="8.843806803565606"><ele>815.4</ele><time>2026-05-01T16:35:48.003Z</time></trkpt><trkpt lat="42.234891683621605" lon="8.843687488992453"><ele>813.1999999999999</ele><time>2026-05-01T16:35:49.003Z</time></trkpt><trkpt lat="42.23483721651884" lon="8.84358744131873"><ele>811.0</ele><time>2026-05-01T16:35:50.003Z</time></trkpt><trkpt lat="42.234791341551244" lon="8.843498765707588"><ele>813.25</ele><time>2026-05-01T16:35:51.003Z</time></trkpt><trkpt lat="42.2347236617333" lon="8.843414550460041"><ele>815.5</ele><time>2026-05-01T16:35:52.003Z</time></trkpt><trkpt lat="42.23463094086914" lon="8.843348313018542"><ele>817.75</ele><time>2026-05-01T16:35:53.003Z</time></trkpt><trkpt lat="42.2345119660172" lon="8.843281669353779"><ele>820.0</ele><time>2026-05-01T16:35:54.003Z</time></trkpt><trkpt lat="42.23439289302106" lon="8.843193260251889"><ele>820.0</ele><time>2026-05-01T16:35:55.003Z</time></trkpt><trkpt lat="42.23428710784195" lon="8.843082978448757"><ele>820.0</ele><time>2026-05-01T16:35:56.003Z</time></trkpt><trkpt lat="42.2342157219487" lon="8.842955783196714"><ele>820.0</ele><time>2026-05-01T16:35:57.003Z</time></trkpt><trkpt lat="42.23415590413342" lon="8.842837736533607"><ele>820.0</ele><time>2026-05-01T16:35:58.003Z</time></trkpt><trkpt lat="42.2340833979515" lon="8.842704522100892"><ele>821.5</ele><time>2026-05-01T16:35:59.003Z</time></trkpt><trkpt lat="42.23400460762534" lon="8.842555386371941"><ele>823.0</ele><time>2026-05-01T16:36:00.003Z</time></trkpt><trkpt lat="42.23393237323498" lon="8.842401364515682"><ele>824.5</ele><time>2026-05-01T16:36:01.003Z</time></trkpt><trkpt lat="42.23386205772711" lon="8.842271119904565"><ele>826.0</ele><time>2026-05-01T16:36:02.003Z</time></trkpt><trkpt lat="42.233791042217455" lon="8.842174091621342"><ele>825.9999999999999</ele><time>2026-05-01T16:36:03.003Z</time></trkpt><trkpt lat="42.233710233162334" lon="8.842118240372193"><ele>826.0</ele><time>2026-05-01T16:36:04.003Z</time></trkpt><trkpt lat="42.23363167081089" lon="8.842124362339094"><ele>826.0</ele><time>2026-05-01T16:36:05.003Z</time></trkpt><trkpt lat="42.23356468845864" lon="8.842127681701339"><ele>826.0</ele><time>2026-05-01T16:36:06.003Z</time></trkpt><trkpt lat="42.23349142514704" lon="8.842094541525066"><ele>825.9999999999999</ele><time>2026-05-01T16:36:07.003Z</time></trkpt><trkpt lat="42.23345162924927" lon="8.841996897039595"><ele>826.0</ele><time>2026-05-01T16:36:08.003Z</time></trkpt><trkpt lat="42.233392073902635" lon="8.84190650817318"><ele>825.0</ele><time>2026-05-01T16:36:09.003Z</time></trkpt><trkpt lat="42.23336541415824" lon="8.841782308769174"><ele>824.0</ele><time>2026-05-01T16:36:10.003Z</time></trkpt><trkpt lat="42.23334048430983" lon="8.841651364762413"><ele>823.0</ele><time>2026-05-01T16:36:11.003Z</time></trkpt><trkpt lat="42.23333225449809" lon="8.84152399624594"><ele>822.0</ele><time>2026-05-01T16:36:12.003Z</time></trkpt><trkpt lat="42.23334809946946" lon="8.841407654635317"><ele>821.0</ele><time>2026-05-01T16:36:13.003Z</time></trkpt><trkpt lat="42.233387314419055" lon="8.841313799145132"><ele>821.0</ele><time>2026-05-01T16:36:14.003Z</time></trkpt><trkpt lat="42.2334416933062" lon="8.841237557424606"><ele>821.0</ele><time>2026-05-01T16:36:15.003Z</time></trkpt><trkpt lat="42.23352794803978" lon="8.841277751732521"><ele>821.0</ele><time>2026-05-01T16:36:16.003Z</time></trkpt><trkpt lat="42.233615121578254" lon="8.841271897495632"><ele>821.0</ele><time>2026-05-01T16:36:17.003Z</time></trkpt><trkpt lat="42.2337219295472" lon="8.841280674283025"><ele>821.0</ele><time>2026-05-01T16:36:18Z</time></trkpt><trkpt lat="42.23384481476232" lon="8.84126568643257"><ele>821.0</ele><time>2026-05-01T16:36:19Z</time></trkpt><trkpt lat="42.23395876701642" lon="8.841169720630438"><ele>821.0</ele><time>2026-05-01T16:36:20Z</time></trkpt><trkpt lat="42.2340468704149" lon="8.84106221784221"><ele>821.0</ele><time>2026-05-01T16:36:21Z</time></trkpt><trkpt lat="42.234090589834466" lon="8.840921378057761"><ele>821.0</ele><time>2026-05-01T16:36:22Z</time></trkpt><trkpt lat="42.23412187011726" lon="8.84075485068493"><ele>821.0</ele><time>2026-05-01T16:36:23Z</time></trkpt><trkpt lat="42.23414790828707" lon="8.840588062025647"><ele>821.0</ele><time>2026-05-01T16:36:24Z</time></trkpt><trkpt lat="42.23417037612326" lon="8.840441149409736"><ele>821.0</ele><time>2026-05-01T16:36:25Z</time></trkpt><trkpt lat="42.23417665216248" lon="8.840285036897535"><ele>821.0</ele><time>2026-05-01T16:36:26Z</time></trkpt><trkpt lat="42.23417202195794" lon="8.840129774354768"><ele>821.0</ele><time>2026-05-01T16:36:27Z</time></trkpt><trkpt lat="42.23416341427002" lon="8.839983720247323"><ele>821.0</ele><time>2026-05-01T16:36:28Z</time></trkpt><trkpt lat="42.23415851799152" lon="8.839848824482626"><ele>821.0</ele><time>2026-05-01T16:36:29Z</time></trkpt><trkpt lat="42.234157326917014" lon="8.839728904839276"><ele>821.0</ele><time>2026-05-01T16:36:30Z</time></trkpt><trkpt lat="42.23415093709198" lon="8.839612368400465"><ele>821.0</ele><time>2026-05-01T16:36:31Z</time></trkpt><trkpt lat="42.234119834614155" lon="8.839502432451903"><ele>821.0</ele><time>2026-05-01T16:36:32Z</time></trkpt><trkpt lat="42.23407518816769" lon="8.839399864009293"><ele>821.0</ele><time>2026-05-01T16:36:33Z</time></trkpt><trkpt lat="42.23396750704773" lon="8.839385597488954"><ele>821.0</ele><time>2026-05-01T16:36:34Z</time></trkpt><trkpt lat="42.23388611694394" lon="8.839428606040244"><ele>821.0</ele><time>2026-05-01T16:36:35Z</time></trkpt><trkpt lat="42.23381724212086" lon="8.839506271408759"><ele>821.0</ele><time>2026-05-01T16:36:36Z</time></trkpt><trkpt lat="42.233736945411216" lon="8.839581661807204"><ele>824.8</ele><time>2026-05-01T16:36:37Z</time></trkpt><trkpt lat="42.23364185084858" lon="8.83964067996081"><ele>828.5999999999999</ele><time>2026-05-01T16:36:38Z</time></trkpt><trkpt lat="42.23353737363366" lon="8.83962812472502"><ele>832.4</ele><time>2026-05-01T16:36:39Z</time></trkpt><trkpt lat="42.233443531123406" lon="8.839578963238568"><ele>836.2</ele><time>2026-05-01T16:36:40Z</time></trkpt><trkpt lat="42.23337067945626" lon="8.839512946679307"><ele>840.0</ele><time>2026-05-01T16:36:41Z</time></trkpt><trkpt lat="42.23332349071817" lon="8.83938709723917"><ele>837.75</ele><time>2026-05-01T16:36:42Z</time></trkpt><trkpt lat="42.233288303178156" lon="8.839237019392533"><ele>835.5</ele><time>2026-05-01T16:36:43Z</time></trkpt><trkpt lat="42.23325602679536" lon="8.839073149512103"><ele>833.25</ele><time>2026-05-01T16:36:44Z</time></trkpt><trkpt lat="42.233222468748224" lon="8.83891177969141"><ele>831.0</ele><time>2026-05-01T16:36:45Z</time></trkpt><trkpt lat="42.23319610765639" lon="8.838763626911147"><ele>836.5999999999999</ele><time>2026-05-01T16:36:46Z</time></trkpt><trkpt lat="42.233138571101684" lon="8.838661128559718"><ele>842.2</ele><time>2026-05-01T16:36:47Z</time></trkpt><trkpt lat="42.23305486934944" lon="8.838602225102754"><ele>847.8000000000001</ele><time>2026-05-01T16:36:48Z</time></trkpt><trkpt lat="42.23293919538606" lon="8.838565002319918"><ele>853.4000000000001</ele><time>2026-05-01T16:36:49Z</time></trkpt><trkpt lat="42.232816023540046" lon="8.838531463768431"><ele>859.0</ele><time>2026-05-01T16:36:50.001Z</time></trkpt><trkpt lat="42.23267894252244" lon="8.838495977115937"><ele>861.3333333333333</ele><time>2026-05-01T16:36:51.001Z</time></trkpt><trkpt lat="42.232529606537824" lon="8.83845205126051"><ele>863.6666666666667</ele><time>2026-05-01T16:36:52.001Z</time></trkpt><trkpt lat="42.23237078909169" lon="8.838403529851828"><ele>866.0</ele><time>2026-05-01T16:36:53.001Z</time></trkpt><trkpt lat="42.232210248223254" lon="8.838335360869062"><ele>866.0</ele><time>2026-05-01T16:36:54.001Z</time></trkpt><trkpt lat="42.23206736808594" lon="8.838231217414469"><ele>866.0</ele><time>2026-05-01T16:36:55.001Z</time></trkpt><trkpt lat="42.23195191449884" lon="8.83812484399162"><ele>866.0</ele><time>2026-05-01T16:36:56.001Z</time></trkpt><trkpt lat="42.23186331580209" lon="8.838023590126335"><ele>866.0</ele><time>2026-05-01T16:36:57.001Z</time></trkpt><trkpt lat="42.23180697845199" lon="8.837926327530317"><ele>866.0</ele><time>2026-05-01T16:36:58.001Z</time></trkpt><trkpt lat="42.231773714777304" lon="8.837826289051804"><ele>865.9999999999999</ele><time>2026-05-01T16:36:59.001Z</time></trkpt><trkpt lat="42.2318060542225" lon="8.83770090286444"><ele>865.9999999999999</ele><time>2026-05-01T16:37:00.001Z</time></trkpt><trkpt lat="42.231858175486245" lon="8.837569368944814"><ele>866.0</ele><time>2026-05-01T16:37:01.001Z</time></trkpt><trkpt lat="42.23194080398979" lon="8.837433362916963"><ele>866.0</ele><time>2026-05-01T16:37:02.001Z</time></trkpt><trkpt lat="42.23202487832792" lon="8.83727848780142"><ele>865.25</ele><time>2026-05-01T16:37:03.001Z</time></trkpt><trkpt lat="42.23205774031644" lon="8.837110587420026"><ele>864.5</ele><time>2026-05-01T16:37:04.001Z</time></trkpt><trkpt lat="42.23205689324949" lon="8.836941413614998"><ele>863.75</ele><time>2026-05-01T16:37:05.001Z</time></trkpt><trkpt lat="42.232024409089895" lon="8.836764182044458"><ele>863.0</ele><time>2026-05-01T16:37:06.001Z</time></trkpt><trkpt lat="42.23198876095094" lon="8.83660531889259"><ele>863.0</ele><time>2026-05-01T16:37:07.001Z</time></trkpt><trkpt lat="42.23193463161763" lon="8.836428583506569"><ele>863.0</ele><time>2026-05-01T16:37:08.001Z</time></trkpt><trkpt lat="42.23185295943629" lon="8.836265521737376"><ele>863.0</ele><time>2026-05-01T16:37:09.001Z</time></trkpt><trkpt lat="42.23174580574052" lon="8.836109702439366"><ele>863.0</ele><time>2026-05-01T16:37:10.001Z</time></trkpt><trkpt lat="42.23162117700131" lon="8.835968053245061"><ele>866.0</ele><time>2026-05-01T16:37:11.001Z</time></trkpt><trkpt lat="42.231478245437295" lon="8.835831603934711"><ele>869.0</ele><time>2026-05-01T16:37:12.001Z</time></trkpt><trkpt lat="42.23133548022381" lon="8.835701771850461"><ele>872.0</ele><time>2026-05-01T16:37:13.001Z</time></trkpt><trkpt lat="42.23121611205787" lon="8.835557173517795"><ele>872.0</ele><time>2026-05-01T16:37:14.001Z</time></trkpt><trkpt lat="42.231093178314325" lon="8.835428101745975"><ele>872.0</ele><time>2026-05-01T16:37:15.001Z</time></trkpt><trkpt lat="42.231007116187165" lon="8.835299295068275"><ele>872.0</ele><time>2026-05-01T16:37:16.001Z</time></trkpt><trkpt lat="42.23096110063297" lon="8.835160300376863"><ele>872.0</ele><time>2026-05-01T16:37:17.001Z</time></trkpt><trkpt lat="42.2309297700198" lon="8.834989550414997"><ele>867.75</ele><time>2026-05-01T16:37:18.001Z</time></trkpt><trkpt lat="42.23089282434768" lon="8.834810172548032"><ele>863.5</ele><time>2026-05-01T16:37:19.001Z</time></trkpt><trkpt lat="42.23085683986584" lon="8.834625115700957"><ele>859.25</ele><time>2026-05-01T16:37:20.001Z</time></trkpt><trkpt lat="42.230852009474454" lon="8.834428920819613"><ele>855.0</ele><time>2026-05-01T16:37:21.002Z</time></trkpt><trkpt lat="42.230860878124965" lon="8.83425332270797"><ele>855.0</ele><time>2026-05-01T16:37:22.002Z</time></trkpt><trkpt lat="42.2308902553671" lon="8.834106336140168"><ele>855.0</ele><time>2026-05-01T16:37:23.002Z</time></trkpt><trkpt lat="42.230957914899015" lon="8.834010683069689"><ele>855.0</ele><time>2026-05-01T16:37:24.002Z</time></trkpt><trkpt lat="42.23103898399941" lon="8.833914908928216"><ele>855.0</ele><time>2026-05-01T16:37:25.002Z</time></trkpt><trkpt lat="42.23114886832284" lon="8.83384253500753"><ele>855.0</ele><time>2026-05-01T16:37:26.002Z</time></trkpt><trkpt lat="42.23128193083182" lon="8.833787068690441"><ele>855.0</ele><time>2026-05-01T16:37:27.002Z</time></trkpt><trkpt lat="42.231430820473406" lon="8.833732530540917"><ele>855.0</ele><time>2026-05-01T16:37:28.002Z</time></trkpt><trkpt lat="42.23158634124379" lon="8.833667019671088"><ele>855.0</ele><time>2026-05-01T16:37:29.002Z</time></trkpt><trkpt lat="42.231750829613" lon="8.833612209464413"><ele>850.3333333333333</ele><time>2026-05-01T16:37:30.002Z</time></trkpt><trkpt lat="42.23193935459614" lon="8.833588799850828"><ele>845.6666666666666</ele><time>2026-05-01T16:37:31.002Z</time></trkpt><trkpt lat="42.2321282140777" lon="8.833586089954567"><ele>841.0</ele><time>2026-05-01T16:37:32.002Z</time></trkpt><trkpt lat="42.23229894088185" lon="8.833597512336897"><ele>838.3333333333333</ele><time>2026-05-01T16:37:33.002Z</time></trkpt><trkpt lat="42.23248137941284" lon="8.833632122788895"><ele>835.6666666666667</ele><time>2026-05-01T16:37:34.002Z</time></trkpt><trkpt lat="42.23264981778042" lon="8.833651332046314"><ele>833.0</ele><time>2026-05-01T16:37:35.002Z</time></trkpt><trkpt lat="42.232799824970414" lon="8.833680707666993"><ele>833.0</ele><time>2026-05-01T16:37:36.002Z</time></trkpt><trkpt lat="42.23291132327682" lon="8.833584560360986"><ele>833.0</ele><time>2026-05-01T16:37:37.002Z</time></trkpt><trkpt lat="42.232971394389324" lon="8.833414279403497"><ele>833.0</ele><time>2026-05-01T16:37:38.002Z</time></trkpt><trkpt lat="42.23306130390848" lon="8.833239829711744"><ele>833.0</ele><time>2026-05-01T16:37:39.002Z</time></trkpt><trkpt lat="42.23313209325823" lon="8.833075303125238"><ele>838.0</ele><time>2026-05-01T16:37:40.002Z</time></trkpt><trkpt lat="42.23325483136842" lon="8.833008646101124"><ele>843.0</ele><time>2026-05-01T16:37:41.002Z</time></trkpt><trkpt lat="42.23339401750484" lon="8.832985078004274"><ele>848.0</ele><time>2026-05-01T16:37:42.002Z</time></trkpt><trkpt lat="42.2335516632643" lon="8.832979131900412"><ele>853.0</ele><time>2026-05-01T16:37:43.002Z</time></trkpt><trkpt lat="42.23370563533671" lon="8.832975422397155"><ele>853.0</ele><time>2026-05-01T16:37:44.002Z</time></trkpt><trkpt lat="42.2338505425441" lon="8.83295094769451"><ele>853.0</ele><time>2026-05-01T16:37:45.002Z</time></trkpt><trkpt lat="42.23397752896864" lon="8.832924240143711"><ele>853.0</ele><time>2026-05-01T16:37:46.002Z</time></trkpt><trkpt lat="42.23409173636653" lon="8.832862462698266"><ele>853.0</ele><time>2026-05-01T16:37:47.002Z</time></trkpt><trkpt lat="42.23419857753628" lon="8.832759812350421"><ele>854.25</ele><time>2026-05-01T16:37:48.002Z</time></trkpt><trkpt lat="42.23428844089377" lon="8.83262667366363"><ele>855.5</ele><time>2026-05-01T16:37:49.002Z</time></trkpt><trkpt lat="42.23434933125294" lon="8.83248631836582"><ele>856.75</ele><time>2026-05-01T16:37:50.002Z</time></trkpt><trkpt lat="42.23437379339147" lon="8.83234276165143"><ele>858.0</ele><time>2026-05-01T16:37:51.002Z</time></trkpt><trkpt lat="42.23435106971553" lon="8.832199897168842"><ele>858.0</ele><time>2026-05-01T16:37:52.002Z</time></trkpt><trkpt lat="42.23428888782516" lon="8.83206412781253"><ele>858.0</ele><time>2026-05-01T16:37:53.002Z</time></trkpt><trkpt lat="42.23419448094186" lon="8.83196140955392"><ele>858.0</ele><time>2026-05-01T16:37:54.003Z</time></trkpt><trkpt lat="42.23409592438529" lon="8.831893736136914"><ele>858.0</ele><time>2026-05-01T16:37:55.003Z</time></trkpt><trkpt lat="42.23403889603825" lon="8.831798724832169"><ele>858.0</ele><time>2026-05-01T16:37:56.003Z</time></trkpt><trkpt lat="42.23402676815756" lon="8.831708397681444"><ele>859.0</ele><time>2026-05-01T16:37:57.003Z</time></trkpt><trkpt lat="42.2340266659863" lon="8.831616011718578"><ele>860.0</ele><time>2026-05-01T16:37:58.003Z</time></trkpt><trkpt lat="42.23404638026646" lon="8.8315135045777"><ele>861.0</ele><time>2026-05-01T16:37:59.003Z</time></trkpt><trkpt lat="42.234081568800306" lon="8.831407032480408"><ele>862.0</ele><time>2026-05-01T16:38:00.003Z</time></trkpt><trkpt lat="42.23412457919935" lon="8.831294524689858"><ele>863.0</ele><time>2026-05-01T16:38:01.003Z</time></trkpt><trkpt lat="42.23415864279903" lon="8.83116422543438"><ele>864.0</ele><time>2026-05-01T16:38:02.003Z</time></trkpt><trkpt lat="42.2342058704276" lon="8.831031590584946"><ele>866.25</ele><time>2026-05-01T16:38:03.003Z</time></trkpt><trkpt lat="42.23423404067338" lon="8.830870075360467"><ele>868.5</ele><time>2026-05-01T16:38:04.003Z</time></trkpt><trkpt lat="42.234261102874335" lon="8.830685285311159"><ele>870.75</ele><time>2026-05-01T16:38:05.003Z</time></trkpt><trkpt lat="42.23430758979404" lon="8.830479230722657"><ele>873.0</ele><time>2026-05-01T16:38:06.003Z</time></trkpt><trkpt lat="42.234396199263045" lon="8.83027337616495"><ele>876.3333333333333</ele><time>2026-05-01T16:38:07.003Z</time></trkpt><trkpt lat="42.234438620558095" lon="8.830052801967629"><ele>879.6666666666666</ele><time>2026-05-01T16:38:08.003Z</time></trkpt><trkpt lat="42.234474977672264" lon="8.829840389405819"><ele>883.0</ele><time>2026-05-01T16:38:09.003Z</time></trkpt><trkpt lat="42.23450664366085" lon="8.829650903691377"><ele>883.0</ele><time>2026-05-01T16:38:10.003Z</time></trkpt><trkpt lat="42.23453275497542" lon="8.829487189482393"><ele>883.0</ele><time>2026-05-01T16:38:11.003Z</time></trkpt><trkpt lat="42.23451146279718" lon="8.829344465028692"><ele>883.0</ele><time>2026-05-01T16:38:12.003Z</time></trkpt><trkpt lat="42.23446027706266" lon="8.82920299286388"><ele>883.0</ele><time>2026-05-01T16:38:13.003Z</time></trkpt><trkpt lat="42.23440607940081" lon="8.829050877697153"><ele>882.75</ele><time>2026-05-01T16:38:14.003Z</time></trkpt><trkpt lat="42.234355921473856" lon="8.828879583271823"><ele>882.5</ele><time>2026-05-01T16:38:15.003Z</time></trkpt><trkpt lat="42.234304826589884" lon="8.828689903045213"><ele>882.25</ele><time>2026-05-01T16:38:16.003Z</time></trkpt><trkpt lat="42.2342506490942" lon="8.82851483095683"><ele>882.0</ele><time>2026-05-01T16:38:17.003Z</time></trkpt><trkpt lat="42.23420196769223" lon="8.828344478694852"><ele>879.5</ele><time>2026-05-01T16:38:18.003Z</time></trkpt><trkpt lat="42.234165883029064" lon="8.828180601885927"><ele>877.0</ele><time>2026-05-01T16:38:19.003Z</time></trkpt><trkpt lat="42.23417764719046" lon="8.828015339156522"><ele>874.5</ele><time>2026-05-01T16:38:20.003Z</time></trkpt><trkpt lat="42.23413962799253" lon="8.82788624609896"><ele>872.0</ele><time>2026-05-01T16:38:21.003Z</time></trkpt><trkpt lat="42.23408632934615" lon="8.827772965220161"><ele>872.0</ele><time>2026-05-01T16:38:22.003Z</time></trkpt><trkpt lat="42.233988641913506" lon="8.827717984374372"><ele>872.0</ele><time>2026-05-01T16:38:23.003Z</time></trkpt><trkpt lat="42.23391009696876" lon="8.82763240875048"><ele>872.0</ele><time>2026-05-01T16:38:23.999Z</time></trkpt><trkpt lat="42.233865763864486" lon="8.827517460190656"><ele>872.0</ele><time>2026-05-01T16:38:24.999Z</time></trkpt><trkpt lat="42.23388093668643" lon="8.827408687117668"><ele>872.0</ele><time>2026-05-01T16:38:25.999Z</time></trkpt><trkpt lat="42.23395760074163" lon="8.82736431359684"><ele>870.4000000000001</ele><time>2026-05-01T16:38:26.999Z</time></trkpt><trkpt lat="42.23402156096778" lon="8.827282122140229"><ele>868.8000000000001</ele><time>2026-05-01T16:38:27.999Z</time></trkpt><trkpt lat="42.23408187717747" lon="8.827177862582474"><ele>867.2</ele><time>2026-05-01T16:38:28.999Z</time></trkpt><trkpt lat="42.23410541291474" lon="8.827029327503631"><ele>865.6</ele><time>2026-05-01T16:38:29.999Z</time></trkpt><trkpt lat="42.23410268672132" lon="8.826870907013863"><ele>864.0</ele><time>2026-05-01T16:38:30.999Z</time></trkpt><trkpt lat="42.23404595827332" lon="8.826709562328606"><ele>862.75</ele><time>2026-05-01T16:38:31.999Z</time></trkpt><trkpt lat="42.233995604281354" lon="8.826528754004308"><ele>861.5</ele><time>2026-05-01T16:38:32.999Z</time></trkpt><trkpt lat="42.23395866951759" lon="8.826341871538451"><ele>860.25</ele><time>2026-05-01T16:38:33.999Z</time></trkpt><trkpt lat="42.23391139359979" lon="8.826173082706601"><ele>859.0</ele><time>2026-05-01T16:38:35Z</time></trkpt><trkpt lat="42.233831473357085" lon="8.826028479351313"><ele>863.0</ele><time>2026-05-01T16:38:36Z</time></trkpt><trkpt lat="42.2337202189927" lon="8.825906812029528"><ele>867.0</ele><time>2026-05-01T16:38:37Z</time></trkpt><trkpt lat="42.23363290861143" lon="8.82575239255007"><ele>871.0</ele><time>2026-05-01T16:38:38Z</time></trkpt><trkpt lat="42.23354641541679" lon="8.825619221828072"><ele>875.0</ele><time>2026-05-01T16:38:39Z</time></trkpt><trkpt lat="42.23347640639972" lon="8.825474773833482"><ele>875.0</ele><time>2026-05-01T16:38:40Z</time></trkpt><trkpt lat="42.23338558220558" lon="8.825359712575432"><ele>875.0</ele><time>2026-05-01T16:38:41Z</time></trkpt><trkpt lat="42.233283827455054" lon="8.825273537802477"><ele>875.0</ele><time>2026-05-01T16:38:42Z</time></trkpt><trkpt lat="42.23317320293758" lon="8.8251950098448"><ele>875.0</ele><time>2026-05-01T16:38:43Z</time></trkpt><trkpt lat="42.23306152932123" lon="8.825088409463026"><ele>872.3333333333334</ele><time>2026-05-01T16:38:44Z</time></trkpt><trkpt lat="42.232922891874004" lon="8.825042991262833"><ele>869.6666666666667</ele><time>2026-05-01T16:38:45Z</time></trkpt><trkpt lat="42.23279126916832" lon="8.82494432090604"><ele>867.0</ele><time>2026-05-01T16:38:46Z</time></trkpt><trkpt lat="42.23265162135977" lon="8.824843129618841"><ele>867.0</ele><time>2026-05-01T16:38:47Z</time></trkpt><trkpt lat="42.232502573189386" lon="8.824744096914472"><ele>867.0</ele><time>2026-05-01T16:38:48Z</time></trkpt><trkpt lat="42.23235285552184" lon="8.824661228012308"><ele>867.0</ele><time>2026-05-01T16:38:49Z</time></trkpt><trkpt lat="42.23222213995521" lon="8.824563188478633"><ele>866.5</ele><time>2026-05-01T16:38:50Z</time></trkpt><trkpt lat="42.23209915274537" lon="8.824478547391593"><ele>866.0</ele><time>2026-05-01T16:38:51Z</time></trkpt><trkpt lat="42.231984049196036" lon="8.82440017420963"><ele>865.5</ele><time>2026-05-01T16:38:52Z</time></trkpt><trkpt lat="42.231879914792955" lon="8.824315910791697"><ele>865.0</ele><time>2026-05-01T16:38:53Z</time></trkpt><trkpt lat="42.23178707249152" lon="8.824244894314923"><ele>865.0</ele><time>2026-05-01T16:38:54Z</time></trkpt><trkpt lat="42.23175281094119" lon="8.824114736153463"><ele>865.0</ele><time>2026-05-01T16:38:55Z</time></trkpt><trkpt lat="42.231728395456685" lon="8.824005996275737"><ele>865.0</ele><time>2026-05-01T16:38:56Z</time></trkpt><trkpt lat="42.231786955742294" lon="8.82390844874638"><ele>865.0</ele><time>2026-05-01T16:38:57Z</time></trkpt><trkpt lat="42.231846619547824" lon="8.82379958724175"><ele>865.0</ele><time>2026-05-01T16:38:58Z</time></trkpt><trkpt lat="42.231934697873946" lon="8.823691948801502"><ele>865.0</ele><time>2026-05-01T16:38:59Z</time></trkpt><trkpt lat="42.232023822621024" lon="8.823557031428471"><ele>865.0</ele><time>2026-05-01T16:39:00.001Z</time></trkpt><trkpt lat="42.23210084524033" lon="8.82339513477475"><ele>865.0</ele><time>2026-05-01T16:39:01.001Z</time></trkpt><trkpt lat="42.23213443425466" lon="8.823204425727388"><ele>865.0</ele><time>2026-05-01T16:39:02.001Z</time></trkpt><trkpt lat="42.2321425059428" lon="8.823008921899588"><ele>866.75</ele><time>2026-05-01T16:39:03.001Z</time></trkpt><trkpt lat="42.23216574343552" lon="8.822853158948748"><ele>868.5</ele><time>2026-05-01T16:39:04.001Z</time></trkpt><trkpt lat="42.23222752444858" lon="8.822729319454481"><ele>870.25</ele><time>2026-05-01T16:39:05.001Z</time></trkpt><trkpt lat="42.23231973521941" lon="8.822641561910004"><ele>872.0</ele><time>2026-05-01T16:39:06.001Z</time></trkpt><trkpt lat="42.232423121803905" lon="8.822563207305201"><ele>866.25</ele><time>2026-05-01T16:39:07.001Z</time></trkpt><trkpt lat="42.23252453136255" lon="8.822443922480755"><ele>860.5</ele><time>2026-05-01T16:39:08.001Z</time></trkpt><trkpt lat="42.23262424868974" lon="8.822303656610279"><ele>854.75</ele><time>2026-05-01T16:39:09.001Z</time></trkpt><trkpt lat="42.232702918145065" lon="8.822116649870246"><ele>849.0</ele><time>2026-05-01T16:39:10.001Z</time></trkpt><trkpt lat="42.23278587824009" lon="8.821910447447328"><ele>853.6666666666667</ele><time>2026-05-01T16:39:11.001Z</time></trkpt><trkpt lat="42.23288436560123" lon="8.821725229710658"><ele>858.3333333333334</ele><time>2026-05-01T16:39:12.001Z</time></trkpt><trkpt lat="42.23299165583625" lon="8.821571090636912"><ele>863.0</ele><time>2026-05-01T16:39:13.001Z</time></trkpt><trkpt lat="42.23308626298627" lon="8.821426771051144"><ele>863.5999999999999</ele><time>2026-05-01T16:39:14.001Z</time></trkpt><trkpt lat="42.23316011148567" lon="8.821289666226336"><ele>864.1999999999999</ele><time>2026-05-01T16:39:15.001Z</time></trkpt><trkpt lat="42.233211948530155" lon="8.821166354281235"><ele>864.8</ele><time>2026-05-01T16:39:16.001Z</time></trkpt><trkpt lat="42.23322803893237" lon="8.82105506733482"><ele>865.4</ele><time>2026-05-01T16:39:17.001Z</time></trkpt><trkpt lat="42.233196674128806" lon="8.820954186073974"><ele>866.0</ele><time>2026-05-01T16:39:18.001Z</time></trkpt><trkpt lat="42.23313327141946" lon="8.820884528125589"><ele>866.0</ele><time>2026-05-01T16:39:19.001Z</time></trkpt><trkpt lat="42.23305887019617" lon="8.820811214630425"><ele>865.9999999999999</ele><time>2026-05-01T16:39:20.001Z</time></trkpt><trkpt lat="42.23296066773014" lon="8.8207306088673"><ele>865.9999999999999</ele><time>2026-05-01T16:39:21.001Z</time></trkpt><trkpt lat="42.23286698774824" lon="8.820644503623809"><ele>866.0</ele><time>2026-05-01T16:39:22.001Z</time></trkpt><trkpt lat="42.2327871889164" lon="8.820546751639473"><ele>866.0</ele><time>2026-05-01T16:39:23.001Z</time></trkpt><trkpt lat="42.232773027988856" lon="8.820402818576001"><ele>866.0</ele><time>2026-05-01T16:39:24.001Z</time></trkpt><trkpt lat="42.232856836067384" lon="8.820257041724242"><ele>866.0</ele><time>2026-05-01T16:39:25.001Z</time></trkpt><trkpt lat="42.23289157605229" lon="8.820078934743487"><ele>866.0</ele><time>2026-05-01T16:39:26.001Z</time></trkpt><trkpt lat="42.232911293737494" lon="8.819884674027882"><ele>866.0</ele><time>2026-05-01T16:39:27.001Z</time></trkpt><trkpt lat="42.23293729846672" lon="8.81968626629934"><ele>865.5</ele><time>2026-05-01T16:39:28.001Z</time></trkpt><trkpt lat="42.232993458224016" lon="8.819512148083613"><ele>865.0</ele><time>2026-05-01T16:39:29.001Z</time></trkpt><trkpt lat="42.233089759930046" lon="8.819374475654124"><ele>864.5</ele><time>2026-05-01T16:39:30.001Z</time></trkpt><trkpt lat="42.23316994487397" lon="8.819205817329927"><ele>864.0</ele><time>2026-05-01T16:39:31.001Z</time></trkpt><trkpt lat="42.233257054575574" lon="8.819065809537717"><ele>855.5</ele><time>2026-05-01T16:39:32.002Z</time></trkpt><trkpt lat="42.233365315778535" lon="8.818978954456906"><ele>847.0</ele><time>2026-05-01T16:39:33.002Z</time></trkpt><trkpt lat="42.23348857274176" lon="8.81894985796837"><ele>838.5</ele><time>2026-05-01T16:39:34.002Z</time></trkpt><trkpt lat="42.23358225672319" lon="8.818867503471413"><ele>830.0</ele><time>2026-05-01T16:39:35.002Z</time></trkpt><trkpt lat="42.23368713382534" lon="8.818787689598233"><ele>830.0</ele><time>2026-05-01T16:39:36.002Z</time></trkpt><trkpt lat="42.23379242314112" lon="8.818651777249544"><ele>830.0</ele><time>2026-05-01T16:39:37.002Z</time></trkpt><trkpt lat="42.2338796741994" lon="8.818499669462703"><ele>830.0</ele><time>2026-05-01T16:39:38.002Z</time></trkpt><trkpt lat="42.23391494966551" lon="8.81832849201026"><ele>830.0</ele><time>2026-05-01T16:39:39.002Z</time></trkpt><trkpt lat="42.23391941526473" lon="8.818165352172102"><ele>828.5</ele><time>2026-05-01T16:39:40.002Z</time></trkpt><trkpt lat="42.23391148647916" lon="8.817989955654983"><ele>827.0</ele><time>2026-05-01T16:39:41.002Z</time></trkpt><trkpt lat="42.233920547625765" lon="8.817822417606825"><ele>825.5</ele><time>2026-05-01T16:39:42.002Z</time></trkpt><trkpt lat="42.23395239957265" lon="8.817641507727206"><ele>824.0</ele><time>2026-05-01T16:39:43.002Z</time></trkpt><trkpt lat="42.23400991544511" lon="8.81747290806952"><ele>824.0</ele><time>2026-05-01T16:39:44.002Z</time></trkpt><trkpt lat="42.23409806023051" lon="8.817318809621215"><ele>824.0</ele><time>2026-05-01T16:39:45.002Z</time></trkpt><trkpt lat="42.234187487116586" lon="8.817176188864568"><ele>824.0</ele><time>2026-05-01T16:39:46.002Z</time></trkpt><trkpt lat="42.23424138270832" lon="8.817016781151096"><ele>824.0</ele><time>2026-05-01T16:39:47.002Z</time></trkpt><trkpt lat="42.23426854644594" lon="8.816834108078654"><ele>824.25</ele><time>2026-05-01T16:39:48.002Z</time></trkpt><trkpt lat="42.23427308964911" lon="8.816653023994373"><ele>824.5</ele><time>2026-05-01T16:39:49.002Z</time></trkpt><trkpt lat="42.23425317091444" lon="8.816464430658215"><ele>824.75</ele><time>2026-05-01T16:39:50.002Z</time></trkpt><trkpt lat="42.234215014396824" lon="8.816272793362781"><ele>825.0</ele><time>2026-05-01T16:39:51.002Z</time></trkpt><trkpt lat="42.234162785115366" lon="8.816088468482244"><ele>824.75</ele><time>2026-05-01T16:39:52.002Z</time></trkpt><trkpt lat="42.234121334771224" lon="8.815915620388049"><ele>824.5</ele><time>2026-05-01T16:39:53.002Z</time></trkpt><trkpt lat="42.23411262860235" lon="8.815743660578239"><ele>824.25</ele><time>2026-05-01T16:39:54.002Z</time></trkpt><trkpt lat="42.23414161168225" lon="8.815582252220667"><ele>824.0</ele><time>2026-05-01T16:39:55.002Z</time></trkpt><trkpt lat="42.23421133541009" lon="8.815449801353939"><ele>824.0</ele><time>2026-05-01T16:39:56.002Z</time></trkpt><trkpt lat="42.234308764479735" lon="8.815369179378688"><ele>824.0</ele><time>2026-05-01T16:39:57.002Z</time></trkpt><trkpt lat="42.23440492368201" lon="8.815287750387462"><ele>824.0</ele><time>2026-05-01T16:39:58.002Z</time></trkpt><trkpt lat="42.234465136307406" lon="8.81516941818155"><ele>824.0</ele><time>2026-05-01T16:39:59.002Z</time></trkpt><trkpt lat="42.23447034834723" lon="8.815019199499593"><ele>824.0</ele><time>2026-05-01T16:40:00.002Z</time></trkpt><trkpt lat="42.23444289813207" lon="8.814855584134575"><ele>824.75</ele><time>2026-05-01T16:40:01.002Z</time></trkpt><trkpt lat="42.23439307086813" lon="8.814682138896845"><ele>825.5</ele><time>2026-05-01T16:40:02.002Z</time></trkpt><trkpt lat="42.23431985180196" lon="8.814517719485025"><ele>826.25</ele><time>2026-05-01T16:40:03.002Z</time></trkpt><trkpt lat="42.23422522668215" lon="8.8143785493226"><ele>827.0</ele><time>2026-05-01T16:40:04.002Z</time></trkpt><trkpt lat="42.23415868173307" lon="8.81424734566348"><ele>827.8</ele><time>2026-05-01T16:40:05.003Z</time></trkpt><trkpt lat="42.234159346613374" lon="8.814120663680137"><ele>828.6</ele><time>2026-05-01T16:40:06.003Z</time></trkpt><trkpt lat="42.234218673951695" lon="8.814010085885487"><ele>829.4</ele><time>2026-05-01T16:40:07.003Z</time></trkpt><trkpt lat="42.23433574013652" lon="8.813970758580291"><ele>830.1999999999999</ele><time>2026-05-01T16:40:08.003Z</time></trkpt><trkpt lat="42.23445883033038" lon="8.81392682228647"><ele>831.0</ele><time>2026-05-01T16:40:09.003Z</time></trkpt><trkpt lat="42.234599505674964" lon="8.813876506401703"><ele>831.0</ele><time>2026-05-01T16:40:10.003Z</time></trkpt><trkpt lat="42.23476069318793" lon="8.813838600179475"><ele>831.0</ele><time>2026-05-01T16:40:11.003Z</time></trkpt><trkpt lat="42.23492373672391" lon="8.813794694472977"><ele>831.0</ele><time>2026-05-01T16:40:12.003Z</time></trkpt><trkpt lat="42.23506876625053" lon="8.813750389156219"><ele>830.25</ele><time>2026-05-01T16:40:13.003Z</time></trkpt><trkpt lat="42.235193983230076" lon="8.813664662599704"><ele>829.5</ele><time>2026-05-01T16:40:14.003Z</time></trkpt><trkpt lat="42.23528473770859" lon="8.813524708608748"><ele>828.75</ele><time>2026-05-01T16:40:15.003Z</time></trkpt><trkpt lat="42.23532417554755" lon="8.813360444515155"><ele>828.0</ele><time>2026-05-01T16:40:16.003Z</time></trkpt><trkpt lat="42.23533339655135" lon="8.813200031753755"><ele>828.0</ele><time>2026-05-01T16:40:17.003Z</time></trkpt><trkpt lat="42.23536850184935" lon="8.813050316652284"><ele>828.0</ele><time>2026-05-01T16:40:18.003Z</time></trkpt><trkpt lat="42.23546764963726" lon="8.812982676224722"><ele>828.0</ele><time>2026-05-01T16:40:19.003Z</time></trkpt><trkpt lat="42.23556393395268" lon="8.812942537527404"><ele>828.0</ele><time>2026-05-01T16:40:20.003Z</time></trkpt><trkpt lat="42.23567347920872" lon="8.812964633231031"><ele>828.0</ele><time>2026-05-01T16:40:21.003Z</time></trkpt><trkpt lat="42.2357935411145" lon="8.812981234785067"><ele>828.0</ele><time>2026-05-01T16:40:22.003Z</time></trkpt><trkpt lat="42.23590127470008" lon="8.813016527003942"><ele>828.0</ele><time>2026-05-01T16:40:23.003Z</time></trkpt><trkpt lat="42.23599963747033" lon="8.812985107767151"><ele>828.0</ele><time>2026-05-01T16:40:24.003Z</time></trkpt><trkpt lat="42.236066013318904" lon="8.812876618991545"><ele>828.0</ele><time>2026-05-01T16:40:25.003Z</time></trkpt><trkpt lat="42.23611899760352" lon="8.812736488467245"><ele>828.0</ele><time>2026-05-01T16:40:26.003Z</time></trkpt><trkpt lat="42.236214553040845" lon="8.812632192997377"><ele>828.0</ele><time>2026-05-01T16:40:27.003Z</time></trkpt><trkpt lat="42.23632423638654" lon="8.812563165389784"><ele>828.0</ele><time>2026-05-01T16:40:28.003Z</time></trkpt><trkpt lat="42.23644959922432" lon="8.812487109755475"><ele>828.0</ele><time>2026-05-01T16:40:29.003Z</time></trkpt><trkpt lat="42.236566500355316" lon="8.812369999184192"><ele>828.0</ele><time>2026-05-01T16:40:29.999Z</time></trkpt><trkpt lat="42.23668100097377" lon="8.81224209001143"><ele>819.6666666666667</ele><time>2026-05-01T16:40:30.999Z</time></trkpt><trkpt lat="42.23681685374756" lon="8.812124820924502"><ele>811.3333333333334</ele><time>2026-05-01T16:40:31.999Z</time></trkpt><trkpt lat="42.236931928437116" lon="8.811989368334848"><ele>803.0</ele><time>2026-05-01T16:40:32.999Z</time></trkpt><trkpt lat="42.23703863662876" lon="8.811852502987307"><ele>810.3333333333334</ele><time>2026-05-01T16:40:33.999Z</time></trkpt><trkpt lat="42.237116315109716" lon="8.811669986820961"><ele>817.6666666666667</ele><time>2026-05-01T16:40:34.999Z</time></trkpt><trkpt lat="42.23716767613441" lon="8.811461093254454"><ele>825.0</ele><time>2026-05-01T16:40:35.999Z</time></trkpt><trkpt lat="42.237215408725966" lon="8.81124799051058"><ele>825.0</ele><time>2026-05-01T16:40:37Z</time></trkpt><trkpt lat="42.23729669360571" lon="8.811060082407694"><ele>825.0</ele><time>2026-05-01T16:40:38Z</time></trkpt><trkpt lat="42.237440660959535" lon="8.810927050685233"><ele>825.0</ele><time>2026-05-01T16:40:39Z</time></trkpt><trkpt lat="42.237544005695696" lon="8.810733053940139"><ele>818.0</ele><time>2026-05-01T16:40:40Z</time></trkpt><trkpt lat="42.23764952572658" lon="8.810559105876022"><ele>811.0</ele><time>2026-05-01T16:40:41Z</time></trkpt><trkpt lat="42.23776332120491" lon="8.810415799379593"><ele>804.0</ele><time>2026-05-01T16:40:42Z</time></trkpt><trkpt lat="42.23788858538789" lon="8.810313037415023"><ele>804.0</ele><time>2026-05-01T16:40:43Z</time></trkpt><trkpt lat="42.2380000758771" lon="8.810201081355487"><ele>804.0</ele><time>2026-05-01T16:40:44Z</time></trkpt><trkpt lat="42.23807027386419" lon="8.810038381365224"><ele>804.0</ele><time>2026-05-01T16:40:45Z</time></trkpt><trkpt lat="42.238114594196546" lon="8.809848285808087"><ele>804.0</ele><time>2026-05-01T16:40:46Z</time></trkpt><trkpt lat="42.23813794413996" lon="8.80965897984833"><ele>805.5</ele><time>2026-05-01T16:40:47Z</time></trkpt><trkpt lat="42.23813823336405" lon="8.809483628795403"><ele>807.0</ele><time>2026-05-01T16:40:48Z</time></trkpt><trkpt lat="42.23814586818766" lon="8.80931823447506"><ele>808.5</ele><time>2026-05-01T16:40:49Z</time></trkpt><trkpt lat="42.23811936215043" lon="8.809163773403045"><ele>810.0</ele><time>2026-05-01T16:40:50Z</time></trkpt><trkpt lat="42.238106093944445" lon="8.809004316084488"><ele>810.0</ele><time>2026-05-01T16:40:51Z</time></trkpt><trkpt lat="42.23807700233215" lon="8.808839357805212"><ele>810.0</ele><time>2026-05-01T16:40:52Z</time></trkpt><trkpt lat="42.23804187387461" lon="8.808673726712671"><ele>810.0</ele><time>2026-05-01T16:40:53Z</time></trkpt><trkpt lat="42.237992355968885" lon="8.808510366707203"><ele>810.0</ele><time>2026-05-01T16:40:54Z</time></trkpt><trkpt lat="42.23792827208032" lon="8.808361500124924"><ele>805.25</ele><time>2026-05-01T16:40:55Z</time></trkpt><trkpt lat="42.23784873137839" lon="8.808238449806113"><ele>800.5</ele><time>2026-05-01T16:40:56Z</time></trkpt><trkpt lat="42.23775166250024" lon="8.808153694579318"><ele>795.75</ele><time>2026-05-01T16:40:57Z</time></trkpt><trkpt lat="42.23764085427711" lon="8.808130185675834"><ele>791.0</ele><time>2026-05-01T16:40:58Z</time></trkpt><trkpt lat="42.237522108857334" lon="8.80814034821044"><ele>791.0</ele><time>2026-05-01T16:40:59Z</time></trkpt><trkpt lat="42.23739935792467" lon="8.808154903261787"><ele>791.0</ele><time>2026-05-01T16:41:00Z</time></trkpt><trkpt lat="42.237271400790696" lon="8.808176900503579"><ele>791.0</ele><time>2026-05-01T16:41:01Z</time></trkpt><trkpt lat="42.23713206704053" lon="8.80823189010317"><ele>791.0</ele><time>2026-05-01T16:41:02.001Z</time></trkpt><trkpt lat="42.23698399588009" lon="8.808310916526471"><ele>793.5</ele><time>2026-05-01T16:41:03.001Z</time></trkpt><trkpt lat="42.236856047108766" lon="8.808421166944274"><ele>796.0</ele><time>2026-05-01T16:41:04.001Z</time></trkpt><trkpt lat="42.23673886264866" lon="8.808526875926928"><ele>798.5</ele><time>2026-05-01T16:41:05.001Z</time></trkpt><trkpt lat="42.236626533893265" lon="8.808635338557242"><ele>801.0</ele><time>2026-05-01T16:41:06.001Z</time></trkpt><trkpt lat="42.23652212433586" lon="8.80873951179197"><ele>800.0</ele><time>2026-05-01T16:41:07.001Z</time></trkpt><trkpt lat="42.23641911489073" lon="8.808826045724341"><ele>799.0</ele><time>2026-05-01T16:41:08.001Z</time></trkpt><trkpt lat="42.23631266921318" lon="8.808889359128612"><ele>798.0</ele><time>2026-05-01T16:41:09.001Z</time></trkpt><trkpt lat="42.2362023389448" lon="8.808906459540086"><ele>797.0</ele><time>2026-05-01T16:41:10.001Z</time></trkpt><trkpt lat="42.23609158369108" lon="8.808916616843483"><ele>797.0</ele><time>2026-05-01T16:41:11.001Z</time></trkpt><trkpt lat="42.23598988746093" lon="8.808853850677819"><ele>797.0</ele><time>2026-05-01T16:41:12.001Z</time></trkpt><trkpt lat="42.23588577298497" lon="8.808778675656459"><ele>797.0</ele><time>2026-05-01T16:41:13.001Z</time></trkpt><trkpt lat="42.23576430988033" lon="8.808704753836496"><ele>797.0</ele><time>2026-05-01T16:41:14.001Z</time></trkpt><trkpt lat="42.23564669024222" lon="8.808600347424015"><ele>794.6666666666667</ele><time>2026-05-01T16:41:15.001Z</time></trkpt><trkpt lat="42.235511412662824" lon="8.808508538335042"><ele>792.3333333333333</ele><time>2026-05-01T16:41:16.001Z</time></trkpt><trkpt lat="42.23536875726081" lon="8.80842140457861"><ele>790.0</ele><time>2026-05-01T16:41:17.001Z</time></trkpt><trkpt lat="42.23522736821729" lon="8.808333359973004"><ele>790.0</ele><time>2026-05-01T16:41:18.001Z</time></trkpt><trkpt lat="42.23509460546127" lon="8.808242217240144"><ele>790.0</ele><time>2026-05-01T16:41:19.001Z</time></trkpt><trkpt lat="42.23497712745166" lon="8.808129776246465"><ele>790.0</ele><time>2026-05-01T16:41:20.001Z</time></trkpt><trkpt lat="42.23485593914972" lon="8.808027949221158"><ele>790.0</ele><time>2026-05-01T16:41:21.001Z</time></trkpt><trkpt lat="42.23474802055107" lon="8.807910622666375"><ele>793.5</ele><time>2026-05-01T16:41:22.001Z</time></trkpt><trkpt lat="42.234652678661064" lon="8.807764864145955"><ele>797.0</ele><time>2026-05-01T16:41:23.001Z</time></trkpt><trkpt lat="42.23457299211841" lon="8.807618598967094"><ele>800.5</ele><time>2026-05-01T16:41:24.001Z</time></trkpt><trkpt lat="42.23454666559355" lon="8.807439319963734"><ele>804.0</ele><time>2026-05-01T16:41:25.001Z</time></trkpt><trkpt lat="42.23456080669409" lon="8.807258478362355"><ele>804.0</ele><time>2026-05-01T16:41:26.001Z</time></trkpt><trkpt lat="42.23459183516471" lon="8.80707944821587"><ele>804.0</ele><time>2026-05-01T16:41:27.001Z</time></trkpt><trkpt lat="42.23460525225288" lon="8.806906649086908"><ele>804.0</ele><time>2026-05-01T16:41:28.001Z</time></trkpt><trkpt lat="42.23457795869523" lon="8.806738545915392"><ele>804.0</ele><time>2026-05-01T16:41:29.001Z</time></trkpt><trkpt lat="42.234503405893626" lon="8.806592951318015"><ele>801.25</ele><time>2026-05-01T16:41:30.001Z</time></trkpt><trkpt lat="42.23441408490378" lon="8.806455379097795"><ele>798.5</ele><time>2026-05-01T16:41:31.001Z</time></trkpt><trkpt lat="42.234338913797195" lon="8.806308322298104"><ele>795.75</ele><time>2026-05-01T16:41:32.002Z</time></trkpt><trkpt lat="42.23429766530878" lon="8.806143973732867"><ele>793.0</ele><time>2026-05-01T16:41:33.002Z</time></trkpt><trkpt lat="42.234268744215576" lon="8.805974606024382"><ele>787.25</ele><time>2026-05-01T16:41:34.002Z</time></trkpt><trkpt lat="42.234223237017105" lon="8.805814844535805"><ele>781.5</ele><time>2026-05-01T16:41:35.002Z</time></trkpt><trkpt lat="42.23415181249996" lon="8.805663681116672"><ele>775.75</ele><time>2026-05-01T16:41:36.002Z</time></trkpt><trkpt lat="42.2340650072643" lon="8.805516142071301"><ele>770.0</ele><time>2026-05-01T16:41:37.002Z</time></trkpt><trkpt lat="42.23398585158411" lon="8.805361215582412"><ele>774.5</ele><time>2026-05-01T16:41:38.002Z</time></trkpt><trkpt lat="42.23395232405746" lon="8.805173535129242"><ele>779.0</ele><time>2026-05-01T16:41:39.002Z</time></trkpt><trkpt lat="42.23392118874356" lon="8.80498850690455"><ele>783.5</ele><time>2026-05-01T16:41:40.002Z</time></trkpt><trkpt lat="42.23385492891248" lon="8.804820902449915"><ele>788.0</ele><time>2026-05-01T16:41:41.002Z</time></trkpt><trkpt lat="42.23376906226692" lon="8.80467984570489"><ele>788.0</ele><time>2026-05-01T16:41:42.002Z</time></trkpt><trkpt lat="42.23368506143436" lon="8.804577610318477"><ele>788.0</ele><time>2026-05-01T16:41:43.002Z</time></trkpt><trkpt lat="42.23365028475923" lon="8.804463050342466"><ele>788.0</ele><time>2026-05-01T16:41:44.002Z</time></trkpt><trkpt lat="42.233653792245086" lon="8.804323218243107"><ele>788.0</ele><time>2026-05-01T16:41:45.002Z</time></trkpt><trkpt lat="42.23370968939584" lon="8.804177360249465"><ele>788.0</ele><time>2026-05-01T16:41:46.002Z</time></trkpt><trkpt lat="42.233724117040346" lon="8.80402951557273"><ele>785.0</ele><time>2026-05-01T16:41:47.002Z</time></trkpt><trkpt lat="42.23374435467491" lon="8.803889543846513"><ele>782.0</ele><time>2026-05-01T16:41:48.002Z</time></trkpt><trkpt lat="42.233756500752634" lon="8.803752036068795"><ele>779.0</ele><time>2026-05-01T16:41:49.002Z</time></trkpt><trkpt lat="42.23375420276095" lon="8.803624080967767"><ele>776.0</ele><time>2026-05-01T16:41:50.002Z</time></trkpt><trkpt lat="42.23373496145058" lon="8.803509697081768"><ele>773.0</ele><time>2026-05-01T16:41:51.002Z</time></trkpt><trkpt lat="42.23369607207149" lon="8.803407485304598"><ele>769.6666666666667</ele><time>2026-05-01T16:41:52.002Z</time></trkpt><trkpt lat="42.233640858764566" lon="8.80331459890193"><ele>766.3333333333334</ele><time>2026-05-01T16:41:53.002Z</time></trkpt><trkpt lat="42.233584394662216" lon="8.803228647270279"><ele>763.0</ele><time>2026-05-01T16:41:54.002Z</time></trkpt><trkpt lat="42.233514009383676" lon="8.803166287148711"><ele>759.6666666666667</ele><time>2026-05-01T16:41:55.002Z</time></trkpt><trkpt lat="42.233430132387575" lon="8.80310755477383"><ele>756.3333333333334</ele><time>2026-05-01T16:41:56.002Z</time></trkpt><trkpt lat="42.23334504072588" lon="8.803066648564704"><ele>753.0</ele><time>2026-05-01T16:41:57.002Z</time></trkpt><trkpt lat="42.23325701334457" lon="8.80302655313139"><ele>753.0</ele><time>2026-05-01T16:41:58.002Z</time></trkpt><trkpt lat="42.23318027538528" lon="8.802985243915874"><ele>753.0</ele><time>2026-05-01T16:41:59.002Z</time></trkpt><trkpt lat="42.23310993903791" lon="8.802932938470107"><ele>753.0</ele><time>2026-05-01T16:42:00.002Z</time></trkpt><trkpt lat="42.23304709632051" lon="8.802871883614767"><ele>753.0</ele><time>2026-05-01T16:42:01.002Z</time></trkpt><trkpt lat="42.233017558033815" lon="8.802789944435004"><ele>753.0</ele><time>2026-05-01T16:42:02.002Z</time></trkpt><trkpt lat="42.23304460228739" lon="8.802685581758695"><ele>753.0</ele><time>2026-05-01T16:42:03.002Z</time></trkpt><trkpt lat="42.233081216484464" lon="8.802596179772335"><ele>755.8333333333334</ele><time>2026-05-01T16:42:04.003Z</time></trkpt><trkpt lat="42.23310242832006" lon="8.802484251442321"><ele>758.6666666666667</ele><time>2026-05-01T16:42:05.003Z</time></trkpt><trkpt lat="42.23309904032734" lon="8.80236205538888"><ele>761.5</ele><time>2026-05-01T16:42:06.003Z</time></trkpt><trkpt lat="42.23308243912539" lon="8.80224842802524"><ele>764.3333333333334</ele><time>2026-05-01T16:42:07.003Z</time></trkpt><trkpt lat="42.23306660048435" lon="8.802142972437553"><ele>767.1666666666667</ele><time>2026-05-01T16:42:08.003Z</time></trkpt><trkpt lat="42.23305354066191" lon="8.802039251526299"><ele>770.0</ele><time>2026-05-01T16:42:09.003Z</time></trkpt><trkpt lat="42.23304921459205" lon="8.801938155777751"><ele>770.0000000000001</ele><time>2026-05-01T16:42:10.003Z</time></trkpt><trkpt lat="42.23307031165541" lon="8.801841071395504"><ele>770.0</ele><time>2026-05-01T16:42:11.003Z</time></trkpt><trkpt lat="42.23311327716021" lon="8.801755526455414"><ele>770.0</ele><time>2026-05-01T16:42:12.003Z</time></trkpt><trkpt lat="42.233168518738196" lon="8.801671543060404"><ele>770.0</ele><time>2026-05-01T16:42:13.003Z</time></trkpt><trkpt lat="42.23323324360459" lon="8.801582887905125"><ele>770.0000000000001</ele><time>2026-05-01T16:42:14.003Z</time></trkpt><trkpt lat="42.23330593818958" lon="8.801495568566098"><ele>770.0</ele><time>2026-05-01T16:42:15.003Z</time></trkpt><trkpt lat="42.233383681013784" lon="8.801412758330919"><ele>763.6666666666667</ele><time>2026-05-01T16:42:16.003Z</time></trkpt><trkpt lat="42.233442728410296" lon="8.80133507806288"><ele>757.3333333333334</ele><time>2026-05-01T16:42:17.003Z</time></trkpt><trkpt lat="42.2334788547242" lon="8.801246784395556"><ele>751.0</ele><time>2026-05-01T16:42:18.003Z</time></trkpt><trkpt lat="42.233472721835966" lon="8.801146392823856"><ele>744.6666666666667</ele><time>2026-05-01T16:42:19.003Z</time></trkpt><trkpt lat="42.233433220120304" lon="8.80105078324626"><ele>738.3333333333334</ele><time>2026-05-01T16:42:20.003Z</time></trkpt><trkpt lat="42.23338662357947" lon="8.800956285041579"><ele>732.0</ele><time>2026-05-01T16:42:21.003Z</time></trkpt><trkpt lat="42.23329972034658" lon="8.800921802215855"><ele>731.1666666666666</ele><time>2026-05-01T16:42:22.003Z</time></trkpt><trkpt lat="42.233226755659025" lon="8.80086946704958"><ele>730.3333333333334</ele><time>2026-05-01T16:42:23.003Z</time></trkpt><trkpt lat="42.23312893096591" lon="8.800857990212124"><ele>729.5</ele><time>2026-05-01T16:42:24.003Z</time></trkpt><trkpt lat="42.23304237184585" lon="8.800870090214282"><ele>728.6666666666667</ele><time>2026-05-01T16:42:25.003Z</time></trkpt><trkpt lat="42.23295763315128" lon="8.800883393845687"><ele>727.8333333333334</ele><time>2026-05-01T16:42:26.003Z</time></trkpt><trkpt lat="42.232873062824204" lon="8.800827191679433"><ele>727.0</ele><time>2026-05-01T16:42:27.003Z</time></trkpt><trkpt lat="42.23278649755162" lon="8.800787924731113"><ele>729.0</ele><time>2026-05-01T16:42:28.003Z</time></trkpt><trkpt lat="42.23271121860539" lon="8.800755396306213"><ele>731.0</ele><time>2026-05-01T16:42:29.003Z</time></trkpt><trkpt lat="42.23264091400763" lon="8.800723998853439"><ele>733.0</ele><time>2026-05-01T16:42:30.003Z</time></trkpt><trkpt lat="42.23257198930818" lon="8.800691715119221"><ele>735.0</ele><time>2026-05-01T16:42:31.003Z</time></trkpt><trkpt lat="42.23251020225841" lon="8.800665719036616"><ele>737.0</ele><time>2026-05-01T16:42:32.003Z</time></trkpt><trkpt lat="42.232478496403786" lon="8.8005761442174"><ele>739.0</ele><time>2026-05-01T16:42:33.003Z</time></trkpt><trkpt lat="42.23250050258849" lon="8.800469050963551"><ele>741.0</ele><time>2026-05-01T16:42:34.003Z</time></trkpt><trkpt lat="42.23250070546076" lon="8.80035340197118"><ele>741.0</ele><time>2026-05-01T16:42:35.003Z</time></trkpt><trkpt lat="42.23251637110417" lon="8.800240723494797"><ele>741.0</ele><time>2026-05-01T16:42:36Z</time></trkpt><trkpt lat="42.23252336532306" lon="8.800140190827667"><ele>741.0</ele><time>2026-05-01T16:42:37Z</time></trkpt><trkpt lat="42.232531568400844" lon="8.80003535886596"><ele>741.0</ele><time>2026-05-01T16:42:38Z</time></trkpt><trkpt lat="42.232478466877765" lon="8.799949764893249"><ele>741.0</ele><time>2026-05-01T16:42:39Z</time></trkpt><trkpt lat="42.23244241727162" lon="8.79985388937522"><ele>741.0</ele><time>2026-05-01T16:42:40Z</time></trkpt><trkpt lat="42.23238750217935" lon="8.799762364221104"><ele>742.5999999999999</ele><time>2026-05-01T16:42:41Z</time></trkpt><trkpt lat="42.23232590432772" lon="8.799662442182544"><ele>744.2</ele><time>2026-05-01T16:42:42Z</time></trkpt><trkpt lat="42.23225013973643" lon="8.799585258046813"><ele>745.8</ele><time>2026-05-01T16:42:43Z</time></trkpt><trkpt lat="42.23218498874544" lon="8.799499807866919"><ele>747.4000000000001</ele><time>2026-05-01T16:42:44Z</time></trkpt><trkpt lat="42.232115205615855" lon="8.79942321310604"><ele>749.0</ele><time>2026-05-01T16:42:45Z</time></trkpt><trkpt lat="42.23204570375538" lon="8.799356915479983"><ele>746.5</ele><time>2026-05-01T16:42:46Z</time></trkpt><trkpt lat="42.23198004449911" lon="8.79929470206379"><ele>744.0</ele><time>2026-05-01T16:42:47Z</time></trkpt><trkpt lat="42.23192910768755" lon="8.799212413762131"><ele>741.5</ele><time>2026-05-01T16:42:48Z</time></trkpt><trkpt lat="42.23186097671061" lon="8.799163953741006"><ele>739.0</ele><time>2026-05-01T16:42:49Z</time></trkpt><trkpt lat="42.23182114854277" lon="8.799079413171782"><ele>736.5</ele><time>2026-05-01T16:42:50Z</time></trkpt><trkpt lat="42.231765768307476" lon="8.799018747995653"><ele>734.0</ele><time>2026-05-01T16:42:51Z</time></trkpt><trkpt lat="42.231745753500086" lon="8.798927022434812"><ele>734.0</ele><time>2026-05-01T16:42:52Z</time></trkpt><trkpt lat="42.23176969600788" lon="8.798836828814949"><ele>734.0</ele><time>2026-05-01T16:42:53Z</time></trkpt><trkpt lat="42.231823924706305" lon="8.798786551928535"><ele>734.0</ele><time>2026-05-01T16:42:54Z</time></trkpt><trkpt lat="42.23189942150271" lon="8.798760048268402"><ele>734.0</ele><time>2026-05-01T16:42:55Z</time></trkpt><trkpt lat="42.23198409594668" lon="8.79876007853996"><ele>734.0</ele><time>2026-05-01T16:42:56Z</time></trkpt><trkpt lat="42.23207375245892" lon="8.798776792207546"><ele>734.0</ele><time>2026-05-01T16:42:57Z</time></trkpt><trkpt lat="42.232175715587886" lon="8.798793672218512"><ele>734.0</ele><time>2026-05-01T16:42:58Z</time></trkpt><trkpt lat="42.2322805311852" lon="8.798813599949924"><ele>734.0</ele><time>2026-05-01T16:42:59Z</time></trkpt><trkpt lat="42.23238739196346" lon="8.798840369494156"><ele>734.0</ele><time>2026-05-01T16:43:00Z</time></trkpt><trkpt lat="42.232498024136994" lon="8.798857543082583"><ele>734.0</ele><time>2026-05-01T16:43:01Z</time></trkpt><trkpt lat="42.23260969855227" lon="8.798838400488812"><ele>734.0</ele><time>2026-05-01T16:43:02Z</time></trkpt><trkpt lat="42.232719263541796" lon="8.798775808829571"><ele>732.0</ele><time>2026-05-01T16:43:03Z</time></trkpt><trkpt lat="42.232820408979705" lon="8.798687676973845"><ele>730.0</ele><time>2026-05-01T16:43:04Z</time></trkpt><trkpt lat="42.232897534808345" lon="8.798577929195863"><ele>728.0</ele><time>2026-05-01T16:43:05Z</time></trkpt><trkpt lat="42.23294516238835" lon="8.798447436169871"><ele>726.0</ele><time>2026-05-01T16:43:06Z</time></trkpt><trkpt lat="42.23296727081056" lon="8.798302425798129"><ele>726.0</ele><time>2026-05-01T16:43:07.001Z</time></trkpt><trkpt lat="42.232976556023964" lon="8.798153812087005"><ele>726.0</ele><time>2026-05-01T16:43:08.001Z</time></trkpt><trkpt lat="42.232982581609335" lon="8.798014809272253"><ele>726.0</ele><time>2026-05-01T16:43:09.001Z</time></trkpt><trkpt lat="42.23296633157555" lon="8.79788318613971"><ele>726.0</ele><time>2026-05-01T16:43:10.001Z</time></trkpt><trkpt lat="42.232946610132245" lon="8.797753880833117"><ele>726.0</ele><time>2026-05-01T16:43:11.001Z</time></trkpt><trkpt lat="42.23289870077018" lon="8.797645197900403"><ele>726.3333333333334</ele><time>2026-05-01T16:43:12.001Z</time></trkpt><trkpt lat="42.232851742561955" lon="8.797542037842861"><ele>726.6666666666666</ele><time>2026-05-01T16:43:13.001Z</time></trkpt><trkpt lat="42.23286259929225" lon="8.797427838164207"><ele>727.0</ele><time>2026-05-01T16:43:14.001Z</time></trkpt><trkpt lat="42.23291612202555" lon="8.797345510297609"><ele>727.3333333333333</ele><time>2026-05-01T16:43:15.001Z</time></trkpt><trkpt lat="42.233001150542286" lon="8.797341780774218"><ele>727.6666666666666</ele><time>2026-05-01T16:43:16.001Z</time></trkpt><trkpt lat="42.233083195684266" lon="8.79727760730513"><ele>728.0</ele><time>2026-05-01T16:43:17.001Z</time></trkpt><trkpt lat="42.233179442689476" lon="8.797214481317743"><ele>723.5</ele><time>2026-05-01T16:43:18.001Z</time></trkpt><trkpt lat="42.23327557911801" lon="8.797119218454172"><ele>719.0</ele><time>2026-05-01T16:43:19.001Z</time></trkpt><trkpt lat="42.23337136517434" lon="8.79700495379017"><ele>714.5</ele><time>2026-05-01T16:43:20.001Z</time></trkpt><trkpt lat="42.23345557103433" lon="8.796890159480672"><ele>710.0</ele><time>2026-05-01T16:43:21.001Z</time></trkpt><trkpt lat="42.23352313612161" lon="8.796775517351533"><ele>710.0</ele><time>2026-05-01T16:43:22.001Z</time></trkpt><trkpt lat="42.2335784603274" lon="8.796677738469146"><ele>710.0</ele><time>2026-05-01T16:43:23.001Z</time></trkpt><trkpt lat="42.233577153153114" lon="8.796551308170061"><ele>710.0</ele><time>2026-05-01T16:43:24.001Z</time></trkpt><trkpt lat="42.23350310181239" lon="8.796447800284238"><ele>710.0</ele><time>2026-05-01T16:43:25.001Z</time></trkpt><trkpt lat="42.23344894194805" lon="8.796315568214565"><ele>710.0</ele><time>2026-05-01T16:43:26.001Z</time></trkpt><trkpt lat="42.23345005315843" lon="8.796150707364056"><ele>710.0</ele><time>2026-05-01T16:43:27.001Z</time></trkpt><trkpt lat="42.23345593364703" lon="8.795993652342295"><ele>710.0</ele><time>2026-05-01T16:43:28.001Z</time></trkpt><trkpt lat="42.23346303846493" lon="8.795845937452706"><ele>710.0</ele><time>2026-05-01T16:43:29.001Z</time></trkpt><trkpt lat="42.23347834596816" lon="8.795694817040209"><ele>710.0</ele><time>2026-05-01T16:43:30.001Z</time></trkpt><trkpt lat="42.23350248953973" lon="8.795548417905707"><ele>710.0</ele><time>2026-05-01T16:43:31.001Z</time></trkpt><trkpt lat="42.23357789057074" lon="8.795442091924363"><ele>710.0</ele><time>2026-05-01T16:43:32.001Z</time></trkpt><trkpt lat="42.23366875737501" lon="8.795371200150973"><ele>710.0</ele><time>2026-05-01T16:43:33.001Z</time></trkpt><trkpt lat="42.23375718625842" lon="8.795286568733891"><ele>710.0</ele><time>2026-05-01T16:43:34.001Z</time></trkpt><trkpt lat="42.23382018695034" lon="8.795170743361338"><ele>710.0</ele><time>2026-05-01T16:43:35.001Z</time></trkpt><trkpt lat="42.233869094260925" lon="8.795023743346992"><ele>712.5</ele><time>2026-05-01T16:43:36.001Z</time></trkpt><trkpt lat="42.23389255367126" lon="8.794842949203971"><ele>715.0</ele><time>2026-05-01T16:43:37.001Z</time></trkpt><trkpt lat="42.233918877503136" lon="8.794663262838943"><ele>717.5</ele><time>2026-05-01T16:43:38.001Z</time></trkpt><trkpt lat="42.233946558846355" lon="8.794475735924848"><ele>720.0</ele><time>2026-05-01T16:43:39.002Z</time></trkpt><trkpt lat="42.233998731673616" lon="8.794305198796426"><ele>710.75</ele><time>2026-05-01T16:43:40.002Z</time></trkpt><trkpt lat="42.234095746864675" lon="8.794180385128408"><ele>701.5</ele><time>2026-05-01T16:43:41.002Z</time></trkpt><trkpt lat="42.23414091742762" lon="8.794025600464831"><ele>692.25</ele><time>2026-05-01T16:43:42.002Z</time></trkpt><trkpt lat="42.23418830304545" lon="8.79387541180265"><ele>683.0</ele><time>2026-05-01T16:43:43.002Z</time></trkpt><trkpt lat="42.23421910090035" lon="8.793720215449222"><ele>683.0</ele><time>2026-05-01T16:43:44.002Z</time></trkpt><trkpt lat="42.2342224054335" lon="8.793567164612574"><ele>683.0</ele><time>2026-05-01T16:43:45.002Z</time></trkpt><trkpt lat="42.234240346414985" lon="8.793420193524137"><ele>683.0</ele><time>2026-05-01T16:43:46.002Z</time></trkpt><trkpt lat="42.23425974489957" lon="8.793273344036344"><ele>683.0</ele><time>2026-05-01T16:43:47.002Z</time></trkpt><trkpt lat="42.234281860122245" lon="8.7931326989212"><ele>683.0</ele><time>2026-05-01T16:43:48.002Z</time></trkpt><trkpt lat="42.234318317194855" lon="8.792986776397077"><ele>685.0</ele><time>2026-05-01T16:43:49.002Z</time></trkpt><trkpt lat="42.23437447310347" lon="8.792847697044719"><ele>687.0</ele><time>2026-05-01T16:43:50.002Z</time></trkpt><trkpt lat="42.23443868712089" lon="8.792719519009985"><ele>689.0</ele><time>2026-05-01T16:43:51.002Z</time></trkpt><trkpt lat="42.23448968720881" lon="8.792587147007586"><ele>691.0</ele><time>2026-05-01T16:43:52.002Z</time></trkpt><trkpt lat="42.234526222664854" lon="8.79243951914582"><ele>693.25</ele><time>2026-05-01T16:43:53.002Z</time></trkpt><trkpt lat="42.234571470551316" lon="8.792287290494404"><ele>695.5</ele><time>2026-05-01T16:43:54.002Z</time></trkpt><trkpt lat="42.23458483375903" lon="8.792114488803719"><ele>697.75</ele><time>2026-05-01T16:43:55.002Z</time></trkpt><trkpt lat="42.23462380291064" lon="8.791944417344538"><ele>700.0</ele><time>2026-05-01T16:43:56.002Z</time></trkpt><trkpt lat="42.23467705356262" lon="8.791784101667625"><ele>702.5</ele><time>2026-05-01T16:43:57.002Z</time></trkpt><trkpt lat="42.234736735965484" lon="8.791635434276495"><ele>705.0</ele><time>2026-05-01T16:43:58.002Z</time></trkpt><trkpt lat="42.2347767961364" lon="8.791485131027148"><ele>707.5</ele><time>2026-05-01T16:43:59.002Z</time></trkpt><trkpt lat="42.2347903340693" lon="8.79132239637695"><ele>710.0</ele><time>2026-05-01T16:44:00.002Z</time></trkpt><trkpt lat="42.23477503745413" lon="8.79115413635884"><ele>708.25</ele><time>2026-05-01T16:44:01.002Z</time></trkpt><trkpt lat="42.2347499378022" lon="8.790999086602445"><ele>706.5</ele><time>2026-05-01T16:44:02.002Z</time></trkpt><trkpt lat="42.23470890013463" lon="8.790852498741534"><ele>704.75</ele><time>2026-05-01T16:44:03.002Z</time></trkpt><trkpt lat="42.234644544078776" lon="8.79071605603263"><ele>703.0</ele><time>2026-05-01T16:44:04.002Z</time></trkpt><trkpt lat="42.23457566537982" lon="8.790596684505212"><ele>703.0</ele><time>2026-05-01T16:44:05.002Z</time></trkpt><trkpt lat="42.23453493091505" lon="8.790464396819607"><ele>703.0</ele><time>2026-05-01T16:44:06.002Z</time></trkpt><trkpt lat="42.23452010900907" lon="8.790331556218526"><ele>703.0</ele><time>2026-05-01T16:44:07.002Z</time></trkpt><trkpt lat="42.23450785559187" lon="8.790205083758629"><ele>703.0</ele><time>2026-05-01T16:44:08.002Z</time></trkpt><trkpt lat="42.23449238364737" lon="8.790082023844006"><ele>703.0</ele><time>2026-05-01T16:44:09.002Z</time></trkpt><trkpt lat="42.234473723765845" lon="8.789961545064536"><ele>700.5</ele><time>2026-05-01T16:44:10.002Z</time></trkpt><trkpt lat="42.2344523510747" lon="8.789843675734566"><ele>698.0</ele><time>2026-05-01T16:44:11.002Z</time></trkpt><trkpt lat="42.234433286900575" lon="8.789724992805047"><ele>695.5</ele><time>2026-05-01T16:44:12.002Z</time></trkpt><trkpt lat="42.23437324529791" lon="8.789635018628708"><ele>693.0</ele><time>2026-05-01T16:44:13.003Z</time></trkpt><trkpt lat="42.23435614217927" lon="8.78952688251534"><ele>690.5</ele><time>2026-05-01T16:44:14.003Z</time></trkpt><trkpt lat="42.23439117478975" lon="8.789425198607658"><ele>688.0</ele><time>2026-05-01T16:44:15.003Z</time></trkpt><trkpt lat="42.2344590548069" lon="8.789363395134606"><ele>688.0</ele><time>2026-05-01T16:44:16.003Z</time></trkpt><trkpt lat="42.23454000686306" lon="8.789345371281144"><ele>688.0</ele><time>2026-05-01T16:44:17.003Z</time></trkpt><trkpt lat="42.234628849526736" lon="8.789344472518938"><ele>688.0</ele><time>2026-05-01T16:44:18.003Z</time></trkpt><trkpt lat="42.23472936309392" lon="8.78934500479013"><ele>688.0</ele><time>2026-05-01T16:44:19.003Z</time></trkpt><trkpt lat="42.23483072754159" lon="8.789332780820514"><ele>688.0</ele><time>2026-05-01T16:44:20.003Z</time></trkpt><trkpt lat="42.23491503917577" lon="8.789277565441342"><ele>681.25</ele><time>2026-05-01T16:44:21.003Z</time></trkpt><trkpt lat="42.23498898863089" lon="8.7891649194819"><ele>674.5</ele><time>2026-05-01T16:44:22.003Z</time></trkpt><trkpt lat="42.23503991625222" lon="8.789024822517996"><ele>667.75</ele><time>2026-05-01T16:44:23.003Z</time></trkpt><trkpt lat="42.235079196385556" lon="8.78886761684682"><ele>661.0</ele><time>2026-05-01T16:44:24.003Z</time></trkpt><trkpt lat="42.23512238391584" lon="8.788696351172337"><ele>661.0</ele><time>2026-05-01T16:44:25.003Z</time></trkpt><trkpt lat="42.23517569953314" lon="8.788527973709703"><ele>661.0</ele><time>2026-05-01T16:44:26.003Z</time></trkpt><trkpt lat="42.23523235947024" lon="8.788373878681947"><ele>661.0</ele><time>2026-05-01T16:44:27.003Z</time></trkpt><trkpt lat="42.235290849268736" lon="8.788244227922375"><ele>661.0</ele><time>2026-05-01T16:44:28.003Z</time></trkpt><trkpt lat="42.23536298299367" lon="8.788130709808948"><ele>660.0</ele><time>2026-05-01T16:44:29.003Z</time></trkpt><trkpt lat="42.235441796277314" lon="8.788036892841802"><ele>659.0</ele><time>2026-05-01T16:44:30.003Z</time></trkpt><trkpt lat="42.23552042765591" lon="8.787967651387376"><ele>658.0</ele><time>2026-05-01T16:44:31.003Z</time></trkpt><trkpt lat="42.23559606283686" lon="8.787915217766951"><ele>657.0</ele><time>2026-05-01T16:44:32.003Z</time></trkpt><trkpt lat="42.23566513350435" lon="8.787890349833745"><ele>656.0</ele><time>2026-05-01T16:44:33.003Z</time></trkpt><trkpt lat="42.23573114002846" lon="8.787913294499857"><ele>655.0</ele><time>2026-05-01T16:44:34.003Z</time></trkpt><trkpt lat="42.23578336063089" lon="8.787964419633372"><ele>655.0</ele><time>2026-05-01T16:44:35.003Z</time></trkpt><trkpt lat="42.23586417740302" lon="8.788041346121288"><ele>655.0</ele><time>2026-05-01T16:44:37.003Z</time></trkpt><trkpt lat="42.23597237005765" lon="8.788126388659574"><ele>655.0</ele><time>2026-05-01T16:44:39.003Z</time></trkpt><trkpt lat="42.2360966383804" lon="8.788026637169386"><ele>655.0</ele><time>2026-05-01T16:44:41.003Z</time></trkpt><trkpt lat="42.23615338973475" lon="8.787959613862702"><ele>655.0</ele><time>2026-05-01T16:44:41.999Z</time></trkpt><trkpt lat="42.236220013188984" lon="8.787892694964693"><ele>655.0</ele><time>2026-05-01T16:44:42.999Z</time></trkpt><trkpt lat="42.23628946795062" lon="8.787828042705312"><ele>655.0</ele><time>2026-05-01T16:44:43.999Z</time></trkpt><trkpt lat="42.23636262476185" lon="8.787768729925444"><ele>655.0</ele><time>2026-05-01T16:44:44.999Z</time></trkpt><trkpt lat="42.23644288203808" lon="8.787733576675217"><ele>655.0</ele><time>2026-05-01T16:44:45.999Z</time></trkpt><trkpt lat="42.23653142549229" lon="8.787739082197985"><ele>655.0</ele><time>2026-05-01T16:44:46.999Z</time></trkpt><trkpt lat="42.23661408062451" lon="8.787809732438356"><ele>655.0</ele><time>2026-05-01T16:44:47.999Z</time></trkpt><trkpt lat="42.23670356580375" lon="8.78782286190113"><ele>656.0</ele><time>2026-05-01T16:44:48.999Z</time></trkpt><trkpt lat="42.23679046456002" lon="8.78782182023415"><ele>657.0</ele><time>2026-05-01T16:44:50Z</time></trkpt><trkpt lat="42.23685929804913" lon="8.787715540064642"><ele>658.0</ele><time>2026-05-01T16:44:51Z</time></trkpt><trkpt lat="42.23693875642775" lon="8.787629777192251"><ele>659.0</ele><time>2026-05-01T16:44:52Z</time></trkpt><trkpt lat="42.23704240890653" lon="8.787606411446868"><ele>660.0</ele><time>2026-05-01T16:44:53Z</time></trkpt><trkpt lat="42.23714345885006" lon="8.787681103737151"><ele>658.0</ele><time>2026-05-01T16:44:54Z</time></trkpt><trkpt lat="42.23725725395859" lon="8.787714859631315"><ele>656.0</ele><time>2026-05-01T16:44:55Z</time></trkpt><trkpt lat="42.23735857547551" lon="8.787746306243152"><ele>654.0</ele><time>2026-05-01T16:44:56Z</time></trkpt><trkpt lat="42.237455914510385" lon="8.787755710105543"><ele>652.0</ele><time>2026-05-01T16:44:57Z</time></trkpt><trkpt lat="42.23754310591821" lon="8.787653513353485"><ele>650.0</ele><time>2026-05-01T16:44:58Z</time></trkpt><trkpt lat="42.237615906915366" lon="8.787568268893345"><ele>650.0</ele><time>2026-05-01T16:44:59Z</time></trkpt><trkpt lat="42.23769992091341" lon="8.787559302008654"><ele>650.0</ele><time>2026-05-01T16:45:00Z</time></trkpt><trkpt lat="42.237781584135945" lon="8.787579711796832"><ele>650.0</ele><time>2026-05-01T16:45:01Z</time></trkpt><trkpt lat="42.23786039604745" lon="8.787647395031014"><ele>650.0</ele><time>2026-05-01T16:45:02Z</time></trkpt><trkpt lat="42.23794520772938" lon="8.787726384658813"><ele>650.0</ele><time>2026-05-01T16:45:03Z</time></trkpt><trkpt lat="42.23800293734393" lon="8.787828554274668"><ele>645.8</ele><time>2026-05-01T16:45:04Z</time></trkpt><trkpt lat="42.238040221419936" lon="8.787955454629694"><ele>641.6</ele><time>2026-05-01T16:45:05Z</time></trkpt><trkpt lat="42.23808343237279" lon="8.788078706179142"><ele>637.4</ele><time>2026-05-01T16:45:06Z</time></trkpt><trkpt lat="42.23812161460058" lon="8.788205793834264"><ele>633.2</ele><time>2026-05-01T16:45:07Z</time></trkpt><trkpt lat="42.23816632032893" lon="8.788321795328713"><ele>629.0</ele><time>2026-05-01T16:45:08Z</time></trkpt><trkpt lat="42.238194809178026" lon="8.78843188147587"><ele>629.0</ele><time>2026-05-01T16:45:09Z</time></trkpt><trkpt lat="42.23823465764494" lon="8.78851120298673"><ele>629.0</ele><time>2026-05-01T16:45:10Z</time></trkpt><trkpt lat="42.23829666600984" lon="8.788581666612027"><ele>629.0</ele><time>2026-05-01T16:45:11Z</time></trkpt><trkpt lat="42.23838277799002" lon="8.788546288516763"><ele>629.0</ele><time>2026-05-01T16:45:12Z</time></trkpt><trkpt lat="42.23845609280323" lon="8.788499639801387"><ele>629.0</ele><time>2026-05-01T16:45:13Z</time></trkpt><trkpt lat="42.23854366989565" lon="8.788464977360448"><ele>629.0</ele><time>2026-05-01T16:45:14Z</time></trkpt><trkpt lat="42.23862424976664" lon="8.788394854602739"><ele>629.0</ele><time>2026-05-01T16:45:15Z</time></trkpt><trkpt lat="42.23868566739469" lon="8.788301100203684"><ele>629.0</ele><time>2026-05-01T16:45:16Z</time></trkpt><trkpt lat="42.23872529436465" lon="8.788179243542887"><ele>629.0</ele><time>2026-05-01T16:45:17.001Z</time></trkpt><trkpt lat="42.23875634703923" lon="8.78803877559571"><ele>629.0</ele><time>2026-05-01T16:45:18.001Z</time></trkpt><trkpt lat="42.2387840336143" lon="8.787885741703946"><ele>629.0</ele><time>2026-05-01T16:45:19.001Z</time></trkpt><trkpt lat="42.23879430439711" lon="8.787734233072454"><ele>629.8</ele><time>2026-05-01T16:45:20.001Z</time></trkpt><trkpt lat="42.23884242795748" lon="8.787602215494603"><ele>630.5999999999999</ele><time>2026-05-01T16:45:21.001Z</time></trkpt><trkpt lat="42.238927648652265" lon="8.78751193480722"><ele>631.4</ele><time>2026-05-01T16:45:22.001Z</time></trkpt><trkpt lat="42.2390319661342" lon="8.787492028082017"><ele>632.1999999999999</ele><time>2026-05-01T16:45:23.001Z</time></trkpt><trkpt lat="42.23913944322104" lon="8.78745364596847"><ele>633.0</ele><time>2026-05-01T16:45:24.001Z</time></trkpt><trkpt lat="42.2392513795926" lon="8.787422489505651"><ele>633.0</ele><time>2026-05-01T16:45:25.001Z</time></trkpt><trkpt lat="42.239375838502276" lon="8.787431322632623"><ele>633.0</ele><time>2026-05-01T16:45:26.001Z</time></trkpt><trkpt lat="42.23948789169373" lon="8.787445204861035"><ele>633.0</ele><time>2026-05-01T16:45:27.001Z</time></trkpt><trkpt lat="42.23959882414107" lon="8.787455100840383"><ele>633.0</ele><time>2026-05-01T16:45:28.001Z</time></trkpt><trkpt lat="42.239706035484474" lon="8.787446744290568"><ele>628.1999999999999</ele><time>2026-05-01T16:45:29.001Z</time></trkpt><trkpt lat="42.23980661927659" lon="8.787423153515485"><ele>623.4</ele><time>2026-05-01T16:45:30.001Z</time></trkpt><trkpt lat="42.23990306075988" lon="8.78738626441859"><ele>618.5999999999999</ele><time>2026-05-01T16:45:31.001Z</time></trkpt><trkpt lat="42.239990153262866" lon="8.787319733604898"><ele>613.8</ele><time>2026-05-01T16:45:32.001Z</time></trkpt><trkpt lat="42.24007246732631" lon="8.787235012249594"><ele>609.0</ele><time>2026-05-01T16:45:33.001Z</time></trkpt><trkpt lat="42.240149575583345" lon="8.787149278603549"><ele>609.0</ele><time>2026-05-01T16:45:34.001Z</time></trkpt><trkpt lat="42.24022158007782" lon="8.787067941273396"><ele>609.0</ele><time>2026-05-01T16:45:35.001Z</time></trkpt><trkpt lat="42.2403008367343" lon="8.787008273175156"><ele>609.0</ele><time>2026-05-01T16:45:36.001Z</time></trkpt><trkpt lat="42.24037997111806" lon="8.786918375204198"><ele>609.0</ele><time>2026-05-01T16:45:37.001Z</time></trkpt><trkpt lat="42.24043990736848" lon="8.786788352778851"><ele>609.0</ele><time>2026-05-01T16:45:38.001Z</time></trkpt><trkpt lat="42.24049959972954" lon="8.78665805928074"><ele>604.0</ele><time>2026-05-01T16:45:39.001Z</time></trkpt><trkpt lat="42.240557419553454" lon="8.786534864777751"><ele>599.0</ele><time>2026-05-01T16:45:40.001Z</time></trkpt><trkpt lat="42.24061789091484" lon="8.786412624993352"><ele>594.0</ele><time>2026-05-01T16:45:41.001Z</time></trkpt><trkpt lat="42.24069139149196" lon="8.78630060549791"><ele>589.0</ele><time>2026-05-01T16:45:42.001Z</time></trkpt><trkpt lat="42.240749865666" lon="8.786162477258674"><ele>584.0</ele><time>2026-05-01T16:45:43.001Z</time></trkpt><trkpt lat="42.24083213137805" lon="8.78603226545712"><ele>592.25</ele><time>2026-05-01T16:45:44.001Z</time></trkpt><trkpt lat="42.240907496143244" lon="8.78589719511676"><ele>600.5</ele><time>2026-05-01T16:45:45.001Z</time></trkpt><trkpt lat="42.240968781651716" lon="8.785766928711409"><ele>608.75</ele><time>2026-05-01T16:45:46.001Z</time></trkpt><trkpt lat="42.24100835705478" lon="8.78562852054685"><ele>617.0</ele><time>2026-05-01T16:45:47.001Z</time></trkpt><trkpt lat="42.24104132937653" lon="8.785480454769958"><ele>617.0</ele><time>2026-05-01T16:45:48.002Z</time></trkpt><trkpt lat="42.24108857960909" lon="8.785335722456226"><ele>617.0</ele><time>2026-05-01T16:45:49.002Z</time></trkpt><trkpt lat="42.24113874980191" lon="8.785203078942022"><ele>617.0</ele><time>2026-05-01T16:45:50.002Z</time></trkpt><trkpt lat="42.24120011205306" lon="8.785087961695353"><ele>617.0</ele><time>2026-05-01T16:45:51.002Z</time></trkpt><trkpt lat="42.24128319904828" lon="8.784998676293256"><ele>617.0</ele><time>2026-05-01T16:45:52.002Z</time></trkpt><trkpt lat="42.241370030911035" lon="8.784932607581327"><ele>620.6</ele><time>2026-05-01T16:45:53.002Z</time></trkpt><trkpt lat="42.24145988119634" lon="8.784867425442895"><ele>624.2</ele><time>2026-05-01T16:45:54.002Z</time></trkpt><trkpt lat="42.2415523996602" lon="8.784805420324949"><ele>627.8</ele><time>2026-05-01T16:45:55.002Z</time></trkpt><trkpt lat="42.241650956630984" lon="8.784757612966292"><ele>631.4</ele><time>2026-05-01T16:45:56.002Z</time></trkpt><trkpt lat="42.24169911202325" lon="8.784620717533667"><ele>635.0</ele><time>2026-05-01T16:45:57.002Z</time></trkpt><trkpt lat="42.24174053475531" lon="8.784480710877423"><ele>629.25</ele><time>2026-05-01T16:45:58.002Z</time></trkpt><trkpt lat="42.24182178808866" lon="8.784357325801066"><ele>623.5</ele><time>2026-05-01T16:45:59.002Z</time></trkpt><trkpt lat="42.2419213796615" lon="8.784255004183633"><ele>617.75</ele><time>2026-05-01T16:46:00.002Z</time></trkpt><trkpt lat="42.242023958469105" lon="8.784153727679664"><ele>612.0</ele><time>2026-05-01T16:46:01.002Z</time></trkpt><trkpt lat="42.24213595573599" lon="8.784079345369733"><ele>612.0</ele><time>2026-05-01T16:46:02.002Z</time></trkpt><trkpt lat="42.24223260980688" lon="8.783994848390293"><ele>612.0</ele><time>2026-05-01T16:46:03.002Z</time></trkpt><trkpt lat="42.24229345808893" lon="8.783871917907742"><ele>612.0</ele><time>2026-05-01T16:46:04.002Z</time></trkpt><trkpt lat="42.24237038285194" lon="8.783769795676179"><ele>612.0</ele><time>2026-05-01T16:46:05.002Z</time></trkpt><trkpt lat="42.242477925671686" lon="8.783737021142343"><ele>612.0</ele><time>2026-05-01T16:46:06.002Z</time></trkpt><trkpt lat="42.242583895094256" lon="8.783748299099512"><ele>610.4</ele><time>2026-05-01T16:46:07.002Z</time></trkpt><trkpt lat="42.242680569156164" lon="8.783768594562929"><ele>608.8000000000001</ele><time>2026-05-01T16:46:08.002Z</time></trkpt><trkpt lat="42.24277907023994" lon="8.783757495096266"><ele>607.2</ele><time>2026-05-01T16:46:09.002Z</time></trkpt><trkpt lat="42.24286598588021" lon="8.783691982104646"><ele>605.6</ele><time>2026-05-01T16:46:10.002Z</time></trkpt><trkpt lat="42.24292264946043" lon="8.783577488897462"><ele>604.0</ele><time>2026-05-01T16:46:11.002Z</time></trkpt><trkpt lat="42.242973357448754" lon="8.783448353030076"><ele>604.0</ele><time>2026-05-01T16:46:12.002Z</time></trkpt><trkpt lat="42.24300022778894" lon="8.783300814665585"><ele>604.0</ele><time>2026-05-01T16:46:13.002Z</time></trkpt><trkpt lat="42.24299994112743" lon="8.783158418911151"><ele>604.0</ele><time>2026-05-01T16:46:14.002Z</time></trkpt><trkpt lat="42.24299573865401" lon="8.783028598739602"><ele>604.0</ele><time>2026-05-01T16:46:15.002Z</time></trkpt><trkpt lat="42.24299706601898" lon="8.782914366184317"><ele>604.0</ele><time>2026-05-01T16:46:16.002Z</time></trkpt><trkpt lat="42.243005403312026" lon="8.782828647545044"><ele>604.0</ele><time>2026-05-01T16:46:17.002Z</time></trkpt><trkpt lat="42.243049146323415" lon="8.78273439476082"><ele>604.0</ele><time>2026-05-01T16:46:19.002Z</time></trkpt><trkpt lat="42.243114704616296" lon="8.782706231282656"><ele>604.0</ele><time>2026-05-01T16:46:27.003Z</time></trkpt><trkpt lat="42.2431974199332" lon="8.782672119379765"><ele>604.0</ele><time>2026-05-01T16:46:30.003Z</time></trkpt><trkpt lat="42.2432407982346" lon="8.782589052438766"><ele>604.0</ele><time>2026-05-01T16:46:31.003Z</time></trkpt><trkpt lat="42.24325702135003" lon="8.782486899100675"><ele>604.0</ele><time>2026-05-01T16:46:32.003Z</time></trkpt><trkpt lat="42.243274168673864" lon="8.782372213674734"><ele>597.5</ele><time>2026-05-01T16:46:33.003Z</time></trkpt><trkpt lat="42.24328969631828" lon="8.782238118173929"><ele>591.0</ele><time>2026-05-01T16:46:34.003Z</time></trkpt><trkpt lat="42.24330913804091" lon="8.782092519040193"><ele>584.5</ele><time>2026-05-01T16:46:35.003Z</time></trkpt><trkpt lat="42.2433265498316" lon="8.78193694777492"><ele>578.0</ele><time>2026-05-01T16:46:36.003Z</time></trkpt><trkpt lat="42.243333657994654" lon="8.781764032119337"><ele>577.75</ele><time>2026-05-01T16:46:37.003Z</time></trkpt><trkpt lat="42.24331683685901" lon="8.781576767382736"><ele>577.5</ele><time>2026-05-01T16:46:38.003Z</time></trkpt><trkpt lat="42.243275868186636" lon="8.781382844152276"><ele>577.25</ele><time>2026-05-01T16:46:39.003Z</time></trkpt><trkpt lat="42.24319965060727" lon="8.78120812981491"><ele>577.0</ele><time>2026-05-01T16:46:40.003Z</time></trkpt><trkpt lat="42.24308762810963" lon="8.781065728580499"><ele>582.3333333333334</ele><time>2026-05-01T16:46:41.003Z</time></trkpt><trkpt lat="42.242946409075785" lon="8.78096083711532"><ele>587.6666666666666</ele><time>2026-05-01T16:46:42.003Z</time></trkpt><trkpt lat="42.24279521763628" lon="8.780877329297892"><ele>593.0</ele><time>2026-05-01T16:46:43.003Z</time></trkpt><trkpt lat="42.2426632608379" lon="8.780758660798133"><ele>593.0</ele><time>2026-05-01T16:46:44.003Z</time></trkpt><trkpt lat="42.242558548256284" lon="8.78062020809445"><ele>593.0</ele><time>2026-05-01T16:46:45.003Z</time></trkpt><trkpt lat="42.242504497601836" lon="8.780441489796369"><ele>593.0</ele><time>2026-05-01T16:46:46.003Z</time></trkpt><trkpt lat="42.24245721761657" lon="8.78023198753887"><ele>587.3333333333333</ele><time>2026-05-01T16:46:47.003Z</time></trkpt><trkpt lat="42.24240454708897" lon="8.78002078695535"><ele>581.6666666666666</ele><time>2026-05-01T16:46:48Z</time></trkpt><trkpt lat="42.242337024808634" lon="8.779811477299184"><ele>576.0</ele><time>2026-05-01T16:46:49Z</time></trkpt><trkpt lat="42.2422554642489" lon="8.779612427746377"><ele>582.0</ele><time>2026-05-01T16:46:50Z</time></trkpt><trkpt lat="42.24218219038687" lon="8.779425463651652"><ele>588.0</ele><time>2026-05-01T16:46:51Z</time></trkpt><trkpt lat="42.24210930441396" lon="8.779246412566234"><ele>594.0</ele><time>2026-05-01T16:46:52Z</time></trkpt><trkpt lat="42.242031702621624" lon="8.7790686015749"><ele>594.0</ele><time>2026-05-01T16:46:53Z</time></trkpt><trkpt lat="42.241946629159976" lon="8.778894022056656"><ele>594.0</ele><time>2026-05-01T16:46:54Z</time></trkpt><trkpt lat="42.24185501527726" lon="8.778726825490551"><ele>594.0</ele><time>2026-05-01T16:46:55Z</time></trkpt><trkpt lat="42.241761889894555" lon="8.778586927755399"><ele>594.0</ele><time>2026-05-01T16:46:56Z</time></trkpt><trkpt lat="42.24165357434492" lon="8.778481400968763"><ele>591.75</ele><time>2026-05-01T16:46:57Z</time></trkpt><trkpt lat="42.241533475999354" lon="8.778423053404012"><ele>589.5</ele><time>2026-05-01T16:46:58Z</time></trkpt><trkpt lat="42.24140372137509" lon="8.778413813845006"><ele>587.25</ele><time>2026-05-01T16:46:59Z</time></trkpt><trkpt lat="42.24126303411553" lon="8.778430979168473"><ele>585.0</ele><time>2026-05-01T16:47:00Z</time></trkpt><trkpt lat="42.24113305080287" lon="8.77839445361317"><ele>585.0</ele><time>2026-05-01T16:47:01Z</time></trkpt><trkpt lat="42.241034572500524" lon="8.778292388123898"><ele>585.0</ele><time>2026-05-01T16:47:02Z</time></trkpt><trkpt lat="42.24093652415759" lon="8.778170113315964"><ele>585.0</ele><time>2026-05-01T16:47:03Z</time></trkpt><trkpt lat="42.24084532792313" lon="8.778034354678184"><ele>585.0</ele><time>2026-05-01T16:47:04Z</time></trkpt><trkpt lat="42.24073783305457" lon="8.777925407476578"><ele>585.0</ele><time>2026-05-01T16:47:05Z</time></trkpt><trkpt lat="42.24064114130639" lon="8.77781604999205"><ele>585.0</ele><time>2026-05-01T16:47:06Z</time></trkpt><trkpt lat="42.24054571177347" lon="8.777707531533913"><ele>585.0</ele><time>2026-05-01T16:47:07Z</time></trkpt><trkpt lat="42.24043060905151" lon="8.777655724134839"><ele>585.0</ele><time>2026-05-01T16:47:08Z</time></trkpt><trkpt lat="42.24032257467129" lon="8.77760802138527"><ele>585.5</ele><time>2026-05-01T16:47:09Z</time></trkpt><trkpt lat="42.24021577643851" lon="8.77755935519972"><ele>586.0</ele><time>2026-05-01T16:47:10Z</time></trkpt><trkpt lat="42.2400995018401" lon="8.777513369598836"><ele>586.5</ele><time>2026-05-01T16:47:11Z</time></trkpt><trkpt lat="42.24000559485809" lon="8.777403895923262"><ele>587.0</ele><time>2026-05-01T16:47:12Z</time></trkpt><trkpt lat="42.23999057500709" lon="8.777226636662782"><ele>587.0</ele><time>2026-05-01T16:47:13Z</time></trkpt><trkpt lat="42.23997183652421" lon="8.777058888414278"><ele>587.0</ele><time>2026-05-01T16:47:14Z</time></trkpt><trkpt lat="42.2399561457122" lon="8.776902186271363"><ele>587.0</ele><time>2026-05-01T16:47:15Z</time></trkpt><trkpt lat="42.23992070213048" lon="8.776765630494282"><ele>587.0</ele><time>2026-05-01T16:47:16Z</time></trkpt><trkpt lat="42.23990793099746" lon="8.776602028018871"><ele>589.6</ele><time>2026-05-01T16:47:17Z</time></trkpt><trkpt lat="42.23988178829676" lon="8.776455359082936"><ele>592.2</ele><time>2026-05-01T16:47:18Z</time></trkpt><trkpt lat="42.23984281901817" lon="8.776330792544941"><ele>594.8</ele><time>2026-05-01T16:47:19Z</time></trkpt><trkpt lat="42.23979668435012" lon="8.776225062808372"><ele>597.4</ele><time>2026-05-01T16:47:20Z</time></trkpt><trkpt lat="42.23972759582482" lon="8.776151219325255"><ele>600.0</ele><time>2026-05-01T16:47:21Z</time></trkpt><trkpt lat="42.23964380291403" lon="8.776070539879427"><ele>600.0</ele><time>2026-05-01T16:47:22.001Z</time></trkpt><trkpt lat="42.239524207748175" lon="8.776029003229107"><ele>600.0</ele><time>2026-05-01T16:47:23.001Z</time></trkpt><trkpt lat="42.23940688281827" lon="8.775974262225319"><ele>600.0</ele><time>2026-05-01T16:47:24.001Z</time></trkpt><trkpt lat="42.23927925171695" lon="8.775922160016268"><ele>600.0</ele><time>2026-05-01T16:47:25.001Z</time></trkpt><trkpt lat="42.239153376133494" lon="8.775890404400242"><ele>600.0</ele><time>2026-05-01T16:47:26.001Z</time></trkpt><trkpt lat="42.23903738074972" lon="8.77590133410823"><ele>600.0</ele><time>2026-05-01T16:47:27.001Z</time></trkpt><trkpt lat="42.238937951006626" lon="8.77593985531763"><ele>600.0</ele><time>2026-05-01T16:47:28.001Z</time></trkpt><trkpt lat="42.23884920700473" lon="8.775957899475657"><ele>600.0</ele><time>2026-05-01T16:47:29.001Z</time></trkpt><trkpt lat="42.238769788625774" lon="8.775916983870836"><ele>600.0</ele><time>2026-05-01T16:47:30.001Z</time></trkpt><trkpt lat="42.23872322915354" lon="8.775817967771735"><ele>600.0</ele><time>2026-05-01T16:47:31.001Z</time></trkpt><trkpt lat="42.23870983913939" lon="8.775684539349283"><ele>600.0</ele><time>2026-05-01T16:47:32.001Z</time></trkpt><trkpt lat="42.23870260179161" lon="8.775533561184035"><ele>600.0</ele><time>2026-05-01T16:47:33.001Z</time></trkpt><trkpt lat="42.23869170009171" lon="8.775357464478684"><ele>600.0</ele><time>2026-05-01T16:47:34.001Z</time></trkpt><trkpt lat="42.238673700078074" lon="8.775170646369153"><ele>596.3333333333334</ele><time>2026-05-01T16:47:35.001Z</time></trkpt><trkpt lat="42.23865259148164" lon="8.774972388352712"><ele>592.6666666666667</ele><time>2026-05-01T16:47:36.001Z</time></trkpt><trkpt lat="42.238621649150765" lon="8.774759959441099"><ele>589.0</ele><time>2026-05-01T16:47:37.001Z</time></trkpt><trkpt lat="42.238581992535174" lon="8.774535380403268"><ele>585.3333333333334</ele><time>2026-05-01T16:47:38.001Z</time></trkpt><trkpt lat="42.238537622633075" lon="8.774296565649227"><ele>581.6666666666666</ele><time>2026-05-01T16:47:39.001Z</time></trkpt><trkpt lat="42.23850223853545" lon="8.774072721586172"><ele>578.0</ele><time>2026-05-01T16:47:40.001Z</time></trkpt><trkpt lat="42.23845314909076" lon="8.773870086029675"><ele>578.0</ele><time>2026-05-01T16:47:41.001Z</time></trkpt><trkpt lat="42.238382834104826" lon="8.773690073311556"><ele>578.0</ele><time>2026-05-01T16:47:42.001Z</time></trkpt><trkpt lat="42.23830637532857" lon="8.773530732445058"><ele>578.0</ele><time>2026-05-01T16:47:43.001Z</time></trkpt><trkpt lat="42.238206827367" lon="8.773417254374706"><ele>578.0</ele><time>2026-05-01T16:47:44.001Z</time></trkpt><trkpt lat="42.238075262088785" lon="8.773366226758075"><ele>576.25</ele><time>2026-05-01T16:47:45.001Z</time></trkpt><trkpt lat="42.237928108035774" lon="8.7733692164662"><ele>574.5</ele><time>2026-05-01T16:47:46.001Z</time></trkpt><trkpt lat="42.237778708391126" lon="8.773402694397639"><ele>572.75</ele><time>2026-05-01T16:47:47.001Z</time></trkpt><trkpt lat="42.23764258982377" lon="8.773459453325364"><ele>571.0</ele><time>2026-05-01T16:47:48.001Z</time></trkpt><trkpt lat="42.23751875653416" lon="8.77350825420033"><ele>571.0</ele><time>2026-05-01T16:47:49.001Z</time></trkpt><trkpt lat="42.237405672159014" lon="8.773533833191843"><ele>571.0</ele><time>2026-05-01T16:47:50.001Z</time></trkpt><trkpt lat="42.23731421967304" lon="8.77346190245291"><ele>571.0</ele><time>2026-05-01T16:47:51.001Z</time></trkpt><trkpt lat="42.23725871030539" lon="8.773364549110457"><ele>571.0</ele><time>2026-05-01T16:47:52.001Z</time></trkpt><trkpt lat="42.23723249461383" lon="8.773247462295497"><ele>571.0</ele><time>2026-05-01T16:47:53.002Z</time></trkpt><trkpt lat="42.237189380424354" lon="8.773112397552875"><ele>571.0</ele><time>2026-05-01T16:47:54.002Z</time></trkpt><trkpt lat="42.237210462437524" lon="8.772966492648198"><ele>571.0</ele><time>2026-05-01T16:47:55.002Z</time></trkpt><trkpt lat="42.23729779952562" lon="8.772852778404234"><ele>571.0</ele><time>2026-05-01T16:47:56.002Z</time></trkpt><trkpt lat="42.23739399668208" lon="8.772745956448905"><ele>571.0</ele><time>2026-05-01T16:47:57.002Z</time></trkpt><trkpt lat="42.23746894995824" lon="8.772628269491115"><ele>570.0</ele><time>2026-05-01T16:47:58.002Z</time></trkpt><trkpt lat="42.237513477506795" lon="8.772511019709185"><ele>569.0</ele><time>2026-05-01T16:47:59.002Z</time></trkpt><trkpt lat="42.23749832856832" lon="8.772379323026975"><ele>568.0</ele><time>2026-05-01T16:48:00.002Z</time></trkpt><trkpt lat="42.23743528025445" lon="8.772244579029303"><ele>567.0</ele><time>2026-05-01T16:48:01.002Z</time></trkpt><trkpt lat="42.237384539652446" lon="8.772099381277412"><ele>566.0</ele><time>2026-05-01T16:48:02.002Z</time></trkpt><trkpt lat="42.23736953054026" lon="8.771970668666254"><ele>568.4</ele><time>2026-05-01T16:48:03.002Z</time></trkpt><trkpt lat="42.23738584524675" lon="8.771848689632868"><ele>570.8</ele><time>2026-05-01T16:48:04.002Z</time></trkpt><trkpt lat="42.237462362176075" lon="8.771765038357566"><ele>573.1999999999999</ele><time>2026-05-01T16:48:05.002Z</time></trkpt><trkpt lat="42.237564488621466" lon="8.771769085569698"><ele>575.6</ele><time>2026-05-01T16:48:06.002Z</time></trkpt><trkpt lat="42.23766553018974" lon="8.771766181119563"><ele>578.0</ele><time>2026-05-01T16:48:07.002Z</time></trkpt><trkpt lat="42.23778626969717" lon="8.771760719694829"><ele>578.0</ele><time>2026-05-01T16:48:08.002Z</time></trkpt><trkpt lat="42.237920243119724" lon="8.771776285049334"><ele>578.0</ele><time>2026-05-01T16:48:09.002Z</time></trkpt><trkpt lat="42.2380605144148" lon="8.771786558274837"><ele>578.0</ele><time>2026-05-01T16:48:10.002Z</time></trkpt><trkpt lat="42.23820973332169" lon="8.771777797223733"><ele>578.0</ele><time>2026-05-01T16:48:11.002Z</time></trkpt><trkpt lat="42.23834621119531" lon="8.771736527093497"><ele>574.5</ele><time>2026-05-01T16:48:12.002Z</time></trkpt><trkpt lat="42.238460027412344" lon="8.771654877543304"><ele>571.0</ele><time>2026-05-01T16:48:13.002Z</time></trkpt><trkpt lat="42.2385448615651" lon="8.771526670651879"><ele>567.5</ele><time>2026-05-01T16:48:14.002Z</time></trkpt><trkpt lat="42.23860676019512" lon="8.771359429820764"><ele>564.0</ele><time>2026-05-01T16:48:15.002Z</time></trkpt><trkpt lat="42.23866777545093" lon="8.771176254650117"><ele>564.6666666666666</ele><time>2026-05-01T16:48:16.002Z</time></trkpt><trkpt lat="42.23875078659335" lon="8.770998905259516"><ele>565.3333333333333</ele><time>2026-05-01T16:48:17.002Z</time></trkpt><trkpt lat="42.23886374032075" lon="8.770831870063708"><ele>566.0</ele><time>2026-05-01T16:48:18.002Z</time></trkpt><trkpt lat="42.23897909261299" lon="8.77067702228271"><ele>566.0</ele><time>2026-05-01T16:48:19.002Z</time></trkpt><trkpt lat="42.23909129056048" lon="8.770554508282464"><ele>566.0</ele><time>2026-05-01T16:48:20.002Z</time></trkpt><trkpt lat="42.239212390795664" lon="8.770467719196944"><ele>566.0</ele><time>2026-05-01T16:48:21.002Z</time></trkpt><trkpt lat="42.23933707935796" lon="8.770416749126772"><ele>566.0</ele><time>2026-05-01T16:48:22.002Z</time></trkpt><trkpt lat="42.23946372659657" lon="8.770454903422147"><ele>566.0</ele><time>2026-05-01T16:48:23.002Z</time></trkpt><trkpt lat="42.23953739629255" lon="8.770565873632485"><ele>566.0</ele><time>2026-05-01T16:48:24.002Z</time></trkpt><trkpt lat="42.239589877885265" lon="8.770690715358805"><ele>566.0</ele><time>2026-05-01T16:48:25.002Z</time></trkpt><trkpt lat="42.23963678725487" lon="8.77083717604597"><ele>566.0</ele><time>2026-05-01T16:48:26.003Z</time></trkpt><trkpt lat="42.23960158924653" lon="8.770999144240308"><ele>565.5</ele><time>2026-05-01T16:48:27.003Z</time></trkpt><trkpt lat="42.23959934650779" lon="8.771180333655256"><ele>565.0</ele><time>2026-05-01T16:48:28.003Z</time></trkpt><trkpt lat="42.23965378756903" lon="8.771358787594352"><ele>564.5</ele><time>2026-05-01T16:48:29.003Z</time></trkpt><trkpt lat="42.239733862572265" lon="8.77153269439188"><ele>564.0</ele><time>2026-05-01T16:48:30.003Z</time></trkpt><trkpt lat="42.23984429924271" lon="8.771688986876782"><ele>564.0</ele><time>2026-05-01T16:48:31.003Z</time></trkpt><trkpt lat="42.23998328450821" lon="8.771807106398947"><ele>564.0</ele><time>2026-05-01T16:48:32.003Z</time></trkpt><trkpt lat="42.240144139053" lon="8.771876912050262"><ele>564.0</ele><time>2026-05-01T16:48:33.003Z</time></trkpt><trkpt lat="42.2403186007512" lon="8.771916584847071"><ele>556.6666666666666</ele><time>2026-05-01T16:48:34.003Z</time></trkpt><trkpt lat="42.24049317104252" lon="8.771948346981885"><ele>549.3333333333333</ele><time>2026-05-01T16:48:35.003Z</time></trkpt><trkpt lat="42.24066646259673" lon="8.771982151888139"><ele>542.0</ele><time>2026-05-01T16:48:36.003Z</time></trkpt><trkpt lat="42.2408183249069" lon="8.772065775747228"><ele>542.0</ele><time>2026-05-01T16:48:37.003Z</time></trkpt><trkpt lat="42.24094885553065" lon="8.772180144962734"><ele>542.0</ele><time>2026-05-01T16:48:38.003Z</time></trkpt><trkpt lat="42.24109519267113" lon="8.772288380760878"><ele>542.0</ele><time>2026-05-01T16:48:39.003Z</time></trkpt><trkpt lat="42.24125135038574" lon="8.77236030907983"><ele>542.0</ele><time>2026-05-01T16:48:40.003Z</time></trkpt><trkpt lat="42.241412308751826" lon="8.772404549651403"><ele>542.0</ele><time>2026-05-01T16:48:41.003Z</time></trkpt><trkpt lat="42.24158133134186" lon="8.772394139257187"><ele>542.0</ele><time>2026-05-01T16:48:42.003Z</time></trkpt><trkpt lat="42.24175447283748" lon="8.772358525321911"><ele>545.3333333333333</ele><time>2026-05-01T16:48:43.003Z</time></trkpt><trkpt lat="42.24192230602563" lon="8.772344727359062"><ele>548.6666666666666</ele><time>2026-05-01T16:48:44.003Z</time></trkpt><trkpt lat="42.24205897832849" lon="8.772452078792371"><ele>552.0</ele><time>2026-05-01T16:48:45.003Z</time></trkpt><trkpt lat="42.24221514808144" lon="8.772563241338148"><ele>556.6666666666666</ele><time>2026-05-01T16:48:46.003Z</time></trkpt><trkpt lat="42.242391449338044" lon="8.772636537800807"><ele>561.3333333333333</ele><time>2026-05-01T16:48:47.003Z</time></trkpt><trkpt lat="42.24255297104491" lon="8.772703700024852"><ele>566.0</ele><time>2026-05-01T16:48:48.003Z</time></trkpt><trkpt lat="42.242703441456186" lon="8.77274688562532"><ele>554.5</ele><time>2026-05-01T16:48:49.003Z</time></trkpt><trkpt lat="42.242839023386125" lon="8.77277589303157"><ele>543.0</ele><time>2026-05-01T16:48:50.003Z</time></trkpt><trkpt lat="42.24296246172011" lon="8.772803967085457"><ele>531.5</ele><time>2026-05-01T16:48:51.003Z</time></trkpt><trkpt lat="42.24307104367021" lon="8.772785163092639"><ele>520.0</ele><time>2026-05-01T16:48:52.003Z</time></trkpt><trkpt lat="42.243166456776336" lon="8.772697929735772"><ele>526.0</ele><time>2026-05-01T16:48:53.003Z</time></trkpt><trkpt lat="42.243247300382315" lon="8.77258862901236"><ele>532.0</ele><time>2026-05-01T16:48:54Z</time></trkpt><trkpt lat="42.24332596110081" lon="8.772470494059979"><ele>538.0</ele><time>2026-05-01T16:48:55Z</time></trkpt><trkpt lat="42.24338370721094" lon="8.772339751296496"><ele>544.0</ele><time>2026-05-01T16:48:56Z</time></trkpt><trkpt lat="42.24339486370476" lon="8.772206349140195"><ele>550.0</ele><time>2026-05-01T16:48:57Z</time></trkpt><trkpt lat="42.24335465738247" lon="8.77207237144887"><ele>550.0</ele><time>2026-05-01T16:48:58Z</time></trkpt><trkpt lat="42.24331035474353" lon="8.77193178399466"><ele>550.0</ele><time>2026-05-01T16:48:59Z</time></trkpt><trkpt lat="42.24332020714296" lon="8.771781715283568"><ele>550.0</ele><time>2026-05-01T16:49:00Z</time></trkpt><trkpt lat="42.24340707840055" lon="8.771662448476354"><ele>550.0</ele><time>2026-05-01T16:49:01Z</time></trkpt><trkpt lat="42.243463374810055" lon="8.771520497226982"><ele>557.75</ele><time>2026-05-01T16:49:02Z</time></trkpt><trkpt lat="42.24354082508769" lon="8.771406769111714"><ele>565.5</ele><time>2026-05-01T16:49:03Z</time></trkpt><trkpt lat="42.24363179489217" lon="8.771336160071804"><ele>573.25</ele><time>2026-05-01T16:49:04Z</time></trkpt><trkpt lat="42.24374634492787" lon="8.771358086861067"><ele>581.0</ele><time>2026-05-01T16:49:05Z</time></trkpt><trkpt lat="42.24386562825956" lon="8.771317028197888"><ele>577.75</ele><time>2026-05-01T16:49:06Z</time></trkpt><trkpt lat="42.243990412523075" lon="8.771300511380574"><ele>574.5</ele><time>2026-05-01T16:49:07Z</time></trkpt><trkpt lat="42.24409841694509" lon="8.771246273724778"><ele>571.25</ele><time>2026-05-01T16:49:08Z</time></trkpt><trkpt lat="42.24418533673632" lon="8.771147175293292"><ele>568.0</ele><time>2026-05-01T16:49:09Z</time></trkpt><trkpt lat="42.244250074867395" lon="8.77101457839322"><ele>568.0</ele><time>2026-05-01T16:49:10Z</time></trkpt><trkpt lat="42.24431129045879" lon="8.770866068735277"><ele>568.0</ele><time>2026-05-01T16:49:11Z</time></trkpt><trkpt lat="42.24437659740372" lon="8.770718440080675"><ele>568.0</ele><time>2026-05-01T16:49:12Z</time></trkpt><trkpt lat="42.24444183896209" lon="8.770578531031429"><ele>568.0</ele><time>2026-05-01T16:49:13Z</time></trkpt><trkpt lat="42.244505586771965" lon="8.770455653450961"><ele>568.0</ele><time>2026-05-01T16:49:14Z</time></trkpt><trkpt lat="42.24457184847316" lon="8.770355737423165"><ele>568.0</ele><time>2026-05-01T16:49:15Z</time></trkpt><trkpt lat="42.24465068683664" lon="8.770283301075521"><ele>568.0</ele><time>2026-05-01T16:49:16Z</time></trkpt><trkpt lat="42.244752432873085" lon="8.770291902254629"><ele>568.0</ele><time>2026-05-01T16:49:17Z</time></trkpt><trkpt lat="42.244851151012625" lon="8.77033628267892"><ele>568.0</ele><time>2026-05-01T16:49:18Z</time></trkpt><trkpt lat="42.24497521237641" lon="8.770349756762581"><ele>560.5</ele><time>2026-05-01T16:49:19Z</time></trkpt><trkpt lat="42.245099234180984" lon="8.7703921023837"><ele>553.0</ele><time>2026-05-01T16:49:20Z</time></trkpt><trkpt lat="42.24522004159524" lon="8.770489316079631"><ele>545.5</ele><time>2026-05-01T16:49:21Z</time></trkpt><trkpt lat="42.24534706777183" lon="8.77059772956789"><ele>538.0</ele><time>2026-05-01T16:49:22Z</time></trkpt><trkpt lat="42.24547005925336" lon="8.77070701434727"><ele>538.0</ele><time>2026-05-01T16:49:23Z</time></trkpt><trkpt lat="42.24559263194678" lon="8.770789593710075"><ele>538.0</ele><time>2026-05-01T16:49:24Z</time></trkpt><trkpt lat="42.245724951050136" lon="8.770821316240825"><ele>538.0</ele><time>2026-05-01T16:49:25Z</time></trkpt><trkpt lat="42.2458529283497" lon="8.770894601730918"><ele>538.0</ele><time>2026-05-01T16:49:26.001Z</time></trkpt><trkpt lat="42.24599421851628" lon="8.77094410270097"><ele>540.5</ele><time>2026-05-01T16:49:27.001Z</time></trkpt><trkpt lat="42.246132166472535" lon="8.770960966040882"><ele>543.0</ele><time>2026-05-01T16:49:28.001Z</time></trkpt><trkpt lat="42.24625975665872" lon="8.771001715856755"><ele>545.5</ele><time>2026-05-01T16:49:29.001Z</time></trkpt><trkpt lat="42.24637984076594" lon="8.771034789403235"><ele>548.0</ele><time>2026-05-01T16:49:30.001Z</time></trkpt><trkpt lat="42.246496177796374" lon="8.771070864421393"><ele>548.8</ele><time>2026-05-01T16:49:31.001Z</time></trkpt><trkpt lat="42.24660721869041" lon="8.771104857242554"><ele>549.5999999999999</ele><time>2026-05-01T16:49:32.001Z</time></trkpt><trkpt lat="42.246714670247826" lon="8.771129004441013"><ele>550.4000000000001</ele><time>2026-05-01T16:49:33.001Z</time></trkpt><trkpt lat="42.246817820307555" lon="8.771121836939257"><ele>551.2</ele><time>2026-05-01T16:49:34.001Z</time></trkpt><trkpt lat="42.246907543884475" lon="8.771066942822555"><ele>552.0</ele><time>2026-05-01T16:49:35.001Z</time></trkpt><trkpt lat="42.246964150705324" lon="8.77097177127991"><ele>552.0</ele><time>2026-05-01T16:49:36.001Z</time></trkpt><trkpt lat="42.24699302351668" lon="8.770854360090095"><ele>552.0</ele><time>2026-05-01T16:49:37.001Z</time></trkpt><trkpt lat="42.246988984557305" lon="8.770737252048573"><ele>552.0</ele><time>2026-05-01T16:49:38.001Z</time></trkpt><trkpt lat="42.24695609723915" lon="8.770614542176139"><ele>552.0</ele><time>2026-05-01T16:49:39.001Z</time></trkpt><trkpt lat="42.246903206514595" lon="8.770493664258666"><ele>552.0</ele><time>2026-05-01T16:49:40.001Z</time></trkpt><trkpt lat="42.24684819239894" lon="8.770364111804284"><ele>552.0</ele><time>2026-05-01T16:49:41.001Z</time></trkpt><trkpt lat="42.246795512252646" lon="8.77022038345433"><ele>552.0</ele><time>2026-05-01T16:49:42.001Z</time></trkpt><trkpt lat="42.246741260886814" lon="8.770077648685026"><ele>552.0</ele><time>2026-05-01T16:49:43.001Z</time></trkpt><trkpt lat="42.24669570310877" lon="8.769932406662107"><ele>552.0</ele><time>2026-05-01T16:49:44.001Z</time></trkpt><trkpt lat="42.2466984535378" lon="8.769779658687355"><ele>550.2</ele><time>2026-05-01T16:49:45.001Z</time></trkpt><trkpt lat="42.24670218555586" lon="8.769621508850527"><ele>548.4000000000001</ele><time>2026-05-01T16:49:46.001Z</time></trkpt><trkpt lat="42.246728081923216" lon="8.769479176757981"><ele>546.5999999999999</ele><time>2026-05-01T16:49:47.001Z</time></trkpt><trkpt lat="42.24672848321259" lon="8.769344002503114"><ele>544.8</ele><time>2026-05-01T16:49:48.001Z</time></trkpt><trkpt lat="42.24669620872024" lon="8.769225003414544"><ele>543.0</ele><time>2026-05-01T16:49:49.001Z</time></trkpt><trkpt lat="42.246644106550136" lon="8.769123501934414"><ele>540.1666666666666</ele><time>2026-05-01T16:49:50.001Z</time></trkpt><trkpt lat="42.24659146042612" lon="8.769021312779232"><ele>537.3333333333334</ele><time>2026-05-01T16:49:51.001Z</time></trkpt><trkpt lat="42.24654679568052" lon="8.768924135815205"><ele>534.5</ele><time>2026-05-01T16:49:52.001Z</time></trkpt><trkpt lat="42.24650462833005" lon="8.768829686609823"><ele>531.6666666666667</ele><time>2026-05-01T16:49:53.001Z</time></trkpt><trkpt lat="42.24646544142912" lon="8.768745202412056"><ele>528.8333333333334</ele><time>2026-05-01T16:49:54.001Z</time></trkpt><trkpt lat="42.24642613925956" lon="8.768672922698368"><ele>526.0</ele><time>2026-05-01T16:49:55.001Z</time></trkpt><trkpt lat="42.24635216354768" lon="8.768584611172653"><ele>532.0</ele><time>2026-05-01T16:49:57.001Z</time></trkpt><trkpt lat="42.24629076923536" lon="8.768520890953384"><ele>538.0</ele><time>2026-05-01T16:51:32.001Z</time></trkpt><trkpt lat="42.246235492038075" lon="8.768462755175651"><ele>544.0</ele><time>2026-05-01T16:51:35.001Z</time></trkpt><trkpt lat="42.246181751526976" lon="8.768404448108432"><ele>550.0</ele><time>2026-05-01T16:51:37.001Z</time></trkpt><trkpt lat="42.24611907701548" lon="8.76829619002364"><ele>556.0</ele><time>2026-05-01T16:51:39.001Z</time></trkpt><trkpt lat="42.2460857218591" lon="8.768204744815737"><ele>562.0</ele><time>2026-05-01T16:51:40.001Z</time></trkpt><trkpt lat="42.24609381634899" lon="8.768070807349845"><ele>562.0</ele><time>2026-05-01T16:51:41.001Z</time></trkpt><trkpt lat="42.24607440639216" lon="8.767934951322323"><ele>562.0</ele><time>2026-05-01T16:51:42.001Z</time></trkpt><trkpt lat="42.246054493351906" lon="8.767786801682481"><ele>562.0</ele><time>2026-05-01T16:51:43.001Z</time></trkpt><trkpt lat="42.24609304651816" lon="8.767652730041089"><ele>562.0</ele><time>2026-05-01T16:51:44.001Z</time></trkpt><trkpt lat="42.246190114404826" lon="8.76758054114948"><ele>562.0</ele><time>2026-05-01T16:51:45.001Z</time></trkpt><trkpt lat="42.246274086900826" lon="8.767533627006616"><ele>562.0</ele><time>2026-05-01T16:51:46.001Z</time></trkpt><trkpt lat="42.24635535798359" lon="8.767460774104864"><ele>562.0</ele><time>2026-05-01T16:51:47.001Z</time></trkpt><trkpt lat="42.24642698284245" lon="8.767369657314148"><ele>562.0</ele><time>2026-05-01T16:51:48.001Z</time></trkpt><trkpt lat="42.246504717711815" lon="8.767304602505337"><ele>562.0</ele><time>2026-05-01T16:51:49.001Z</time></trkpt><trkpt lat="42.24658503646758" lon="8.767252403276249"><ele>562.0</ele><time>2026-05-01T16:51:50.001Z</time></trkpt><trkpt lat="42.24665732065195" lon="8.767216465963239"><ele>558.5</ele><time>2026-05-01T16:51:51.001Z</time></trkpt><trkpt lat="42.24674385471233" lon="8.767208343842697"><ele>555.0</ele><time>2026-05-01T16:51:53.001Z</time></trkpt><trkpt lat="42.24680839521398" lon="8.767194864607081"><ele>551.5</ele><time>2026-05-01T16:52:04.002Z</time></trkpt><trkpt lat="42.24688595421281" lon="8.767108276118524"><ele>548.0</ele><time>2026-05-01T16:52:47.003Z</time></trkpt><trkpt lat="42.246963049814475" lon="8.767048083305623"><ele>544.5</ele><time>2026-05-01T16:52:48.003Z</time></trkpt><trkpt lat="42.2470246896636" lon="8.766944279115274"><ele>541.0</ele><time>2026-05-01T16:52:49.003Z</time></trkpt><trkpt lat="42.247118003559244" lon="8.766848545466358"><ele>541.0</ele><time>2026-05-01T16:52:50.003Z</time></trkpt><trkpt lat="42.24721794746545" lon="8.76675503409367"><ele>541.0</ele><time>2026-05-01T16:52:51.003Z</time></trkpt><trkpt lat="42.247314437946876" lon="8.766663736554282"><ele>541.0</ele><time>2026-05-01T16:52:52.003Z</time></trkpt><trkpt lat="42.247407668384895" lon="8.766572144197266"><ele>541.0</ele><time>2026-05-01T16:52:53.003Z</time></trkpt><trkpt lat="42.24750095574195" lon="8.76648447278833"><ele>534.6</ele><time>2026-05-01T16:52:54.003Z</time></trkpt><trkpt lat="42.24758589763125" lon="8.766406157477679"><ele>528.2</ele><time>2026-05-01T16:52:55.003Z</time></trkpt><trkpt lat="42.247661686908074" lon="8.766332578654586"><ele>521.8</ele><time>2026-05-01T16:52:56.003Z</time></trkpt><trkpt lat="42.24771900481536" lon="8.766247908797261"><ele>515.4</ele><time>2026-05-01T16:52:57.003Z</time></trkpt><trkpt lat="42.24775146022247" lon="8.76614594059937"><ele>509.0</ele><time>2026-05-01T16:52:58.003Z</time></trkpt><trkpt lat="42.247747249540886" lon="8.76601987931598"><ele>509.0</ele><time>2026-05-01T16:52:59.003Z</time></trkpt><trkpt lat="42.24770071379893" lon="8.765893068492717"><ele>509.0</ele><time>2026-05-01T16:53:00.003Z</time></trkpt><trkpt lat="42.24764005543935" lon="8.76576715119123"><ele>509.0</ele><time>2026-05-01T16:53:01.003Z</time></trkpt><trkpt lat="42.24756698214503" lon="8.765635788503698"><ele>509.0</ele><time>2026-05-01T16:53:02.003Z</time></trkpt><trkpt lat="42.24747173255202" lon="8.765493205281292"><ele>509.0</ele><time>2026-05-01T16:53:03.003Z</time></trkpt><trkpt lat="42.247354653738576" lon="8.765339588552749"><ele>509.0</ele><time>2026-05-01T16:53:04.003Z</time></trkpt><trkpt lat="42.2472285276351" lon="8.765172374203082"><ele>509.0</ele><time>2026-05-01T16:53:05.003Z</time></trkpt><trkpt lat="42.247103147577434" lon="8.765001361890217"><ele>515.3333333333333</ele><time>2026-05-01T16:53:06Z</time></trkpt><trkpt lat="42.2469984329017" lon="8.764828163789842"><ele>521.6666666666666</ele><time>2026-05-01T16:53:07Z</time></trkpt><trkpt lat="42.24688244913842" lon="8.764697418300008"><ele>528.0</ele><time>2026-05-01T16:53:08Z</time></trkpt><trkpt lat="42.24678987172672" lon="8.76455105692519"><ele>528.0</ele><time>2026-05-01T16:53:09Z</time></trkpt><trkpt lat="42.246733525520135" lon="8.764377523716915"><ele>528.0</ele><time>2026-05-01T16:53:10Z</time></trkpt><trkpt lat="42.246712892058056" lon="8.76420301649683"><ele>528.0</ele><time>2026-05-01T16:53:11Z</time></trkpt><trkpt lat="42.24671429718219" lon="8.764029825619835"><ele>528.0</ele><time>2026-05-01T16:53:12Z</time></trkpt><trkpt lat="42.246735602892926" lon="8.763852955777889"><ele>528.6666666666666</ele><time>2026-05-01T16:53:13Z</time></trkpt><trkpt lat="42.246816030001376" lon="8.76369522796671"><ele>529.3333333333333</ele><time>2026-05-01T16:53:14Z</time></trkpt><trkpt lat="42.24693210756222" lon="8.7635446484276"><ele>530.0</ele><time>2026-05-01T16:53:15Z</time></trkpt><trkpt lat="42.2470723451588" lon="8.763414948091889"><ele>530.0</ele><time>2026-05-01T16:53:16Z</time></trkpt><trkpt lat="42.24722406538167" lon="8.763301613666584"><ele>530.0</ele><time>2026-05-01T16:53:17Z</time></trkpt><trkpt lat="42.247386527416666" lon="8.763213349813245"><ele>530.0</ele><time>2026-05-01T16:53:18Z</time></trkpt><trkpt lat="42.24754140584367" lon="8.763130814798345"><ele>523.25</ele><time>2026-05-01T16:53:19Z</time></trkpt><trkpt lat="42.247684523385686" lon="8.763074249046351"><ele>516.5</ele><time>2026-05-01T16:53:20Z</time></trkpt><trkpt lat="42.24779232507569" lon="8.762967547258343"><ele>509.75</ele><time>2026-05-01T16:53:21Z</time></trkpt><trkpt lat="42.2478550932855" lon="8.76281378697726"><ele>503.0</ele><time>2026-05-01T16:53:22Z</time></trkpt><trkpt lat="42.24787168506482" lon="8.762628414327267"><ele>503.0</ele><time>2026-05-01T16:53:23Z</time></trkpt><trkpt lat="42.24786411191232" lon="8.762435249719523"><ele>503.0</ele><time>2026-05-01T16:53:24Z</time></trkpt><trkpt lat="42.24784798002565" lon="8.762227331724388"><ele>503.0</ele><time>2026-05-01T16:53:25Z</time></trkpt><trkpt lat="42.24781725771355" lon="8.762005075919891"><ele>498.66666666666663</ele><time>2026-05-01T16:53:26Z</time></trkpt><trkpt lat="42.247765059622026" lon="8.761780052933563"><ele>494.33333333333337</ele><time>2026-05-01T16:53:27Z</time></trkpt><trkpt lat="42.24771781836045" lon="8.76156367726115"><ele>490.0</ele><time>2026-05-01T16:53:28Z</time></trkpt><trkpt lat="42.24768288271754" lon="8.761372360344893"><ele>490.0</ele><time>2026-05-01T16:53:29Z</time></trkpt><trkpt lat="42.247659416312096" lon="8.761211633482"><ele>490.0</ele><time>2026-05-01T16:53:30Z</time></trkpt><trkpt lat="42.24758346663648" lon="8.761085355678702"><ele>490.0</ele><time>2026-05-01T16:53:31Z</time></trkpt><trkpt lat="42.247434165086254" lon="8.761010730458652"><ele>490.0</ele><time>2026-05-01T16:53:32Z</time></trkpt><trkpt lat="42.24732016741017" lon="8.76088808473903"><ele>499.5</ele><time>2026-05-01T16:53:33Z</time></trkpt><trkpt lat="42.24722496647381" lon="8.760766912043279"><ele>509.0</ele><time>2026-05-01T16:53:34Z</time></trkpt><trkpt lat="42.247167919243786" lon="8.760632777937525"><ele>518.5</ele><time>2026-05-01T16:53:35Z</time></trkpt><trkpt lat="42.247163709043846" lon="8.76048589142662"><ele>528.0</ele><time>2026-05-01T16:53:36.001Z</time></trkpt><trkpt lat="42.2471713646553" lon="8.760348447672243"><ele>528.0</ele><time>2026-05-01T16:53:37.001Z</time></trkpt><trkpt lat="42.24725089946019" lon="8.760248396048123"><ele>528.0</ele><time>2026-05-01T16:53:38.001Z</time></trkpt><trkpt lat="42.24738555872416" lon="8.760263106681812"><ele>528.0</ele><time>2026-05-01T16:53:39.001Z</time></trkpt><trkpt lat="42.24750495286248" lon="8.760326889229496"><ele>528.0</ele><time>2026-05-01T16:53:40.001Z</time></trkpt><trkpt lat="42.24764568766232" lon="8.760413111451422"><ele>514.75</ele><time>2026-05-01T16:53:41.001Z</time></trkpt><trkpt lat="42.24775517277476" lon="8.760563057163798"><ele>501.5</ele><time>2026-05-01T16:53:42.001Z</time></trkpt><trkpt lat="42.24787926989772" lon="8.760645628866836"><ele>488.25</ele><time>2026-05-01T16:53:43.001Z</time></trkpt><trkpt lat="42.24800501503196" lon="8.760666800604188"><ele>475.0</ele><time>2026-05-01T16:53:44.001Z</time></trkpt><trkpt lat="42.24813230304069" lon="8.760603670505033"><ele>472.75</ele><time>2026-05-01T16:53:45.001Z</time></trkpt><trkpt lat="42.248250811468374" lon="8.760533818391112"><ele>470.5</ele><time>2026-05-01T16:53:46.001Z</time></trkpt><trkpt lat="42.24835481297794" lon="8.76059032634656"><ele>468.25</ele><time>2026-05-01T16:53:47.001Z</time></trkpt><trkpt lat="42.248435590252534" lon="8.760715197204698"><ele>466.0</ele><time>2026-05-01T16:53:48.001Z</time></trkpt><trkpt lat="42.2484715958082" lon="8.760896391762536"><ele>459.5</ele><time>2026-05-01T16:53:49.001Z</time></trkpt><trkpt lat="42.24851602764777" lon="8.761091916437488"><ele>453.0</ele><time>2026-05-01T16:53:50.001Z</time></trkpt><trkpt lat="42.24858874346314" lon="8.761230867856233"><ele>446.5</ele><time>2026-05-01T16:53:51.001Z</time></trkpt><trkpt lat="42.24867896010282" lon="8.761334080845279"><ele>440.0</ele><time>2026-05-01T16:53:52.001Z</time></trkpt><trkpt lat="42.24882041021312" lon="8.761402047731435"><ele>445.3333333333333</ele><time>2026-05-01T16:53:53.001Z</time></trkpt><trkpt lat="42.24898946912803" lon="8.761425761742675"><ele>450.66666666666663</ele><time>2026-05-01T16:53:54.001Z</time></trkpt><trkpt lat="42.249173096625" lon="8.761468301062678"><ele>456.0</ele><time>2026-05-01T16:53:55.001Z</time></trkpt><trkpt lat="42.249342942458696" lon="8.761552295731889"><ele>456.0</ele><time>2026-05-01T16:53:56.001Z</time></trkpt><trkpt lat="42.249507508820614" lon="8.76164641382977"><ele>456.0</ele><time>2026-05-01T16:53:57.001Z</time></trkpt><trkpt lat="42.24964464272362" lon="8.761778315402646"><ele>456.0</ele><time>2026-05-01T16:53:58.001Z</time></trkpt><trkpt lat="42.24978051916426" lon="8.761934521460573"><ele>449.0</ele><time>2026-05-01T16:53:59.001Z</time></trkpt><trkpt lat="42.249892982156815" lon="8.762096488249169"><ele>442.0</ele><time>2026-05-01T16:54:00.001Z</time></trkpt><trkpt lat="42.2499648039324" lon="8.762288421751425"><ele>435.0</ele><time>2026-05-01T16:54:01.001Z</time></trkpt><trkpt lat="42.250034809483076" lon="8.762514454774402"><ele>423.5</ele><time>2026-05-01T16:54:02.001Z</time></trkpt><trkpt lat="42.250100843443946" lon="8.762737023554074"><ele>412.0</ele><time>2026-05-01T16:54:03.001Z</time></trkpt><trkpt lat="42.250172185695966" lon="8.762897757357408"><ele>400.5</ele><time>2026-05-01T16:54:04.001Z</time></trkpt><trkpt lat="42.2502440376154" lon="8.763025247304189"><ele>389.0</ele><time>2026-05-01T16:54:05.001Z</time></trkpt><trkpt lat="42.250356092925394" lon="8.763116439692652"><ele>389.0</ele><time>2026-05-01T16:54:06.001Z</time></trkpt><trkpt lat="42.2504919008675" lon="8.763182197205502"><ele>389.0</ele><time>2026-05-01T16:54:07.001Z</time></trkpt><trkpt lat="42.25058129284381" lon="8.763316043931692"><ele>389.0</ele><time>2026-05-01T16:54:08.001Z</time></trkpt><trkpt lat="42.250630624542346" lon="8.763497954743475"><ele>389.0</ele><time>2026-05-01T16:54:09.001Z</time></trkpt><trkpt lat="42.25071901374621" lon="8.763645800658358"><ele>391.75</ele><time>2026-05-01T16:54:10.001Z</time></trkpt><trkpt lat="42.25080302530228" lon="8.763775038610286"><ele>394.5</ele><time>2026-05-01T16:54:11.001Z</time></trkpt><trkpt lat="42.25090764551431" lon="8.76384913761301"><ele>397.25</ele><time>2026-05-01T16:54:12.002Z</time></trkpt><trkpt lat="42.25102516807074" lon="8.763834625663184"><ele>400.0</ele><time>2026-05-01T16:54:13.002Z</time></trkpt><trkpt lat="42.25115455763924" lon="8.76376100279408"><ele>400.0</ele><time>2026-05-01T16:54:14.002Z</time></trkpt><trkpt lat="42.25128512909343" lon="8.763688567526264"><ele>400.0</ele><time>2026-05-01T16:54:15.002Z</time></trkpt><trkpt lat="42.2513918154308" lon="8.763632671293738"><ele>400.0</ele><time>2026-05-01T16:54:16.002Z</time></trkpt><trkpt lat="42.25145750815388" lon="8.763547713303117"><ele>400.0</ele><time>2026-05-01T16:54:17.002Z</time></trkpt><trkpt lat="42.251476311940806" lon="8.763421235953171"><ele>400.0</ele><time>2026-05-01T16:54:18.002Z</time></trkpt><trkpt lat="42.251444544964045" lon="8.763258913512068"><ele>414.33333333333337</ele><time>2026-05-01T16:54:19.002Z</time></trkpt><trkpt lat="42.251394679293355" lon="8.763066310169977"><ele>428.66666666666663</ele><time>2026-05-01T16:54:20.002Z</time></trkpt><trkpt lat="42.25134446921961" lon="8.762840506077788"><ele>443.0</ele><time>2026-05-01T16:54:21.002Z</time></trkpt><trkpt lat="42.2513043864839" lon="8.762587712653563"><ele>445.3333333333333</ele><time>2026-05-01T16:54:22.002Z</time></trkpt><trkpt lat="42.25127013117118" lon="8.762328348569405"><ele>447.66666666666663</ele><time>2026-05-01T16:54:23.002Z</time></trkpt><trkpt lat="42.25124167333954" lon="8.76207734169511"><ele>450.0</ele><time>2026-05-01T16:54:24.002Z</time></trkpt><trkpt lat="42.25121571424931" lon="8.761857158098971"><ele>450.5</ele><time>2026-05-01T16:54:25.002Z</time></trkpt><trkpt lat="42.25120203107262" lon="8.761653151052633"><ele>451.0</ele><time>2026-05-01T16:54:26.002Z</time></trkpt><trkpt lat="42.25120863727727" lon="8.761470841956832"><ele>451.5</ele><time>2026-05-01T16:54:27.002Z</time></trkpt><trkpt lat="42.2512517247624" lon="8.761303560124313"><ele>452.0</ele><time>2026-05-01T16:54:28.002Z</time></trkpt><trkpt lat="42.25137904601782" lon="8.761206541429102"><ele>443.3333333333333</ele><time>2026-05-01T16:54:29.002Z</time></trkpt><trkpt lat="42.251535276273174" lon="8.761097392258002"><ele>434.66666666666663</ele><time>2026-05-01T16:54:30.002Z</time></trkpt><trkpt lat="42.25164388842243" lon="8.760929277706712"><ele>426.0</ele><time>2026-05-01T16:54:31.002Z</time></trkpt><trkpt lat="42.251755159601544" lon="8.760806986411405"><ele>426.0</ele><time>2026-05-01T16:54:32.002Z</time></trkpt><trkpt lat="42.25187575981781" lon="8.760771011724245"><ele>426.0</ele><time>2026-05-01T16:54:33.002Z</time></trkpt><trkpt lat="42.25200655882752" lon="8.76074172835572"><ele>426.0</ele><time>2026-05-01T16:54:34.002Z</time></trkpt><trkpt lat="42.25209979554487" lon="8.760688835375104"><ele>426.0</ele><time>2026-05-01T16:54:35.002Z</time></trkpt><trkpt lat="42.252171934967116" lon="8.760600613796505"><ele>426.0</ele><time>2026-05-01T16:54:36.002Z</time></trkpt><trkpt lat="42.252217045190534" lon="8.76045381551874"><ele>426.0</ele><time>2026-05-01T16:54:37.002Z</time></trkpt><trkpt lat="42.252240935202245" lon="8.760270836320945"><ele>426.0</ele><time>2026-05-01T16:54:38.002Z</time></trkpt><trkpt lat="42.252259814525736" lon="8.76010398453564"><ele>426.0</ele><time>2026-05-01T16:54:39.002Z</time></trkpt><trkpt lat="42.252250146002524" lon="8.759956309465707"><ele>431.25</ele><time>2026-05-01T16:54:40.002Z</time></trkpt><trkpt lat="42.252186736402116" lon="8.759819894929793"><ele>436.5</ele><time>2026-05-01T16:54:41.002Z</time></trkpt><trkpt lat="42.25210518315393" lon="8.759701688591463"><ele>441.75</ele><time>2026-05-01T16:54:42.002Z</time></trkpt><trkpt lat="42.252059150881045" lon="8.759570235229043"><ele>447.0</ele><time>2026-05-01T16:54:43.002Z</time></trkpt><trkpt lat="42.25209450805077" lon="8.759400742208886"><ele>450.66666666666663</ele><time>2026-05-01T16:54:44.002Z</time></trkpt><trkpt lat="42.25212994970635" lon="8.759194258672059"><ele>454.3333333333333</ele><time>2026-05-01T16:54:45.002Z</time></trkpt><trkpt lat="42.252164975928075" lon="8.75896608457836"><ele>458.0</ele><time>2026-05-01T16:54:46.002Z</time></trkpt><trkpt lat="42.25220295161865" lon="8.758735304123341"><ele>446.3333333333333</ele><time>2026-05-01T16:54:47.002Z</time></trkpt><trkpt lat="42.25230889271187" lon="8.758561250139534"><ele>434.66666666666663</ele><time>2026-05-01T16:54:48.003Z</time></trkpt><trkpt lat="42.252421731790896" lon="8.75841190773993"><ele>423.0</ele><time>2026-05-01T16:54:49.003Z</time></trkpt><trkpt lat="42.25254996065353" lon="8.75832407287265"><ele>423.0</ele><time>2026-05-01T16:54:50.003Z</time></trkpt><trkpt lat="42.25267169126717" lon="8.758358716615433"><ele>423.0</ele><time>2026-05-01T16:54:51.003Z</time></trkpt><trkpt lat="42.252800045135736" lon="8.758398644269612"><ele>423.0</ele><time>2026-05-01T16:54:52.003Z</time></trkpt><trkpt lat="42.25291192730544" lon="8.758387625294716"><ele>423.0</ele><time>2026-05-01T16:54:53.003Z</time></trkpt><trkpt lat="42.2530164417344" lon="8.75835060105901"><ele>423.0</ele><time>2026-05-01T16:54:54.003Z</time></trkpt><trkpt lat="42.25309274397909" lon="8.758165402088602"><ele>423.0</ele><time>2026-05-01T16:54:55.003Z</time></trkpt><trkpt lat="42.253171420861825" lon="8.757995139523302"><ele>423.0</ele><time>2026-05-01T16:54:56.003Z</time></trkpt><trkpt lat="42.25326756053804" lon="8.757858157280493"><ele>423.0</ele><time>2026-05-01T16:54:57.003Z</time></trkpt><trkpt lat="42.25339844135242" lon="8.75785726958855"><ele>416.5</ele><time>2026-05-01T16:54:58.003Z</time></trkpt><trkpt lat="42.25350616740532" lon="8.757907351110406"><ele>410.0</ele><time>2026-05-01T16:54:59.003Z</time></trkpt><trkpt lat="42.25365698951701" lon="8.757974052210836"><ele>403.5</ele><time>2026-05-01T16:55:00.003Z</time></trkpt><trkpt lat="42.253819699987574" lon="8.75800740113931"><ele>397.0</ele><time>2026-05-01T16:55:01.003Z</time></trkpt><trkpt lat="42.253987192054396" lon="8.75802898760347"><ele>394.25</ele><time>2026-05-01T16:55:02.003Z</time></trkpt><trkpt lat="42.25414472394527" lon="8.758005571558929"><ele>391.5</ele><time>2026-05-01T16:55:03.003Z</time></trkpt><trkpt lat="42.254283642983935" lon="8.757950168845532"><ele>388.75</ele><time>2026-05-01T16:55:04.003Z</time></trkpt><trkpt lat="42.254401952863844" lon="8.757857495617362"><ele>386.0</ele><time>2026-05-01T16:55:05.003Z</time></trkpt><trkpt lat="42.254477849476004" lon="8.757709840093307"><ele>390.25</ele><time>2026-05-01T16:55:06.003Z</time></trkpt><trkpt lat="42.254505775605175" lon="8.757525478560275"><ele>394.5</ele><time>2026-05-01T16:55:07.003Z</time></trkpt><trkpt lat="42.25449290326323" lon="8.757327683892182"><ele>398.75</ele><time>2026-05-01T16:55:08.003Z</time></trkpt><trkpt lat="42.25444062948186" lon="8.757124756384414"><ele>403.0</ele><time>2026-05-01T16:55:09.003Z</time></trkpt><trkpt lat="42.254348137863204" lon="8.756920802628645"><ele>400.0</ele><time>2026-05-01T16:55:10.003Z</time></trkpt><trkpt lat="42.254251101063026" lon="8.756721359905832"><ele>397.0</ele><time>2026-05-01T16:55:11.003Z</time></trkpt><trkpt lat="42.25416431026675" lon="8.756515439920724"><ele>394.0</ele><time>2026-05-01T16:55:11.999Z</time></trkpt><trkpt lat="42.2540715749775" lon="8.756312820637827"><ele>395.6666666666667</ele><time>2026-05-01T16:55:12.999Z</time></trkpt><trkpt lat="42.25394808577607" lon="8.756121994984102"><ele>397.33333333333337</ele><time>2026-05-01T16:55:13.999Z</time></trkpt><trkpt lat="42.25380457152956" lon="8.755938432823502"><ele>399.0</ele><time>2026-05-01T16:55:14.999Z</time></trkpt><trkpt lat="42.25366129241275" lon="8.75576258912792"><ele>399.0</ele><time>2026-05-01T16:55:15.999Z</time></trkpt><trkpt lat="42.253527674600875" lon="8.75560328171623"><ele>399.0</ele><time>2026-05-01T16:55:16.999Z</time></trkpt><trkpt lat="42.253384127568765" lon="8.755466850719314"><ele>399.0</ele><time>2026-05-01T16:55:17.999Z</time></trkpt><trkpt lat="42.2532082298985" lon="8.755365188313613"><ele>396.33333333333337</ele><time>2026-05-01T16:55:18.999Z</time></trkpt><trkpt lat="42.253013904448515" lon="8.755296599215237"><ele>393.6666666666667</ele><time>2026-05-01T16:55:19.999Z</time></trkpt><trkpt lat="42.252823842367185" lon="8.755242769505672"><ele>391.0</ele><time>2026-05-01T16:55:20.999Z</time></trkpt><trkpt lat="42.252655871032545" lon="8.755179678754988"><ele>391.0</ele><time>2026-05-01T16:55:21.999Z</time></trkpt><trkpt lat="42.25251256188399" lon="8.75509645154149"><ele>391.0</ele><time>2026-05-01T16:55:22.999Z</time></trkpt><trkpt lat="42.252432747957876" lon="8.754938136852749"><ele>391.0</ele><time>2026-05-01T16:55:23.999Z</time></trkpt><trkpt lat="42.25239274485588" lon="8.754754497596666"><ele>391.0</ele><time>2026-05-01T16:55:24.999Z</time></trkpt><trkpt lat="42.252326675492554" lon="8.754536259883457"><ele>391.33333333333337</ele><time>2026-05-01T16:55:25.999Z</time></trkpt><trkpt lat="42.25224115642472" lon="8.754333214381372"><ele>391.66666666666663</ele><time>2026-05-01T16:55:26.999Z</time></trkpt><trkpt lat="42.252160303146155" lon="8.754133030738487"><ele>392.0</ele><time>2026-05-01T16:55:27.999Z</time></trkpt><trkpt lat="42.25205970470082" lon="8.753991033894282"><ele>392.0</ele><time>2026-05-01T16:55:28.999Z</time></trkpt><trkpt lat="42.25193494031555" lon="8.753912615958633"><ele>392.0</ele><time>2026-05-01T16:55:29.999Z</time></trkpt><trkpt lat="42.25178729286256" lon="8.753871551622458"><ele>392.0</ele><time>2026-05-01T16:55:30.999Z</time></trkpt><trkpt lat="42.25166372252145" lon="8.75373564109309"><ele>392.0</ele><time>2026-05-01T16:55:32Z</time></trkpt><trkpt lat="42.251589028579595" lon="8.753526312904373"><ele>400.66666666666663</ele><time>2026-05-01T16:55:33Z</time></trkpt><trkpt lat="42.25149466842953" lon="8.75330362381333"><ele>409.33333333333337</ele><time>2026-05-01T16:55:34Z</time></trkpt><trkpt lat="42.25144244262849" lon="8.753053964217912"><ele>418.0</ele><time>2026-05-01T16:55:35Z</time></trkpt><trkpt lat="42.25136253356936" lon="8.752801589078986"><ele>412.75</ele><time>2026-05-01T16:55:36Z</time></trkpt><trkpt lat="42.25125139002712" lon="8.752612842659804"><ele>407.5</ele><time>2026-05-01T16:55:37Z</time></trkpt><trkpt lat="42.25119818329735" lon="8.752450721676485"><ele>402.25</ele><time>2026-05-01T16:55:38Z</time></trkpt><trkpt lat="42.2512153609283" lon="8.752313180654385"><ele>397.0</ele><time>2026-05-01T16:55:39Z</time></trkpt><trkpt lat="42.251295967904774" lon="8.752181379053797"><ele>397.0</ele><time>2026-05-01T16:55:40Z</time></trkpt><trkpt lat="42.25135114062503" lon="8.751979819466316"><ele>397.0</ele><time>2026-05-01T16:55:41Z</time></trkpt><trkpt lat="42.2514014795642" lon="8.751766175620999"><ele>397.0</ele><time>2026-05-01T16:55:42Z</time></trkpt><trkpt lat="42.25139335017236" lon="8.751565498061241"><ele>391.0</ele><time>2026-05-01T16:55:43Z</time></trkpt><trkpt lat="42.25133453867934" lon="8.751385369230109"><ele>385.0</ele><time>2026-05-01T16:55:44Z</time></trkpt><trkpt lat="42.25122719845796" lon="8.751245384874611"><ele>379.0</ele><time>2026-05-01T16:55:45Z</time></trkpt><trkpt lat="42.2510794221156" lon="8.751134503980156"><ele>379.0</ele><time>2026-05-01T16:55:46Z</time></trkpt><trkpt lat="42.25092563173041" lon="8.751047091792138"><ele>379.0</ele><time>2026-05-01T16:55:47Z</time></trkpt><trkpt lat="42.25081597311288" lon="8.750918585738168"><ele>379.0</ele><time>2026-05-01T16:55:48Z</time></trkpt><trkpt lat="42.25075648066154" lon="8.750752340881615"><ele>379.0</ele><time>2026-05-01T16:55:49Z</time></trkpt><trkpt lat="42.25070881026035" lon="8.750524704180899"><ele>371.0</ele><time>2026-05-01T16:55:50Z</time></trkpt><trkpt lat="42.25067081782808" lon="8.750276677777933"><ele>363.0</ele><time>2026-05-01T16:55:51Z</time></trkpt><trkpt lat="42.250687391670304" lon="8.750031337427721"><ele>355.0</ele><time>2026-05-01T16:55:52Z</time></trkpt><trkpt lat="42.25070920422695" lon="8.749751650526555"><ele>351.0</ele><time>2026-05-01T16:55:53Z</time></trkpt><trkpt lat="42.250703761138396" lon="8.749487003823921"><ele>347.0</ele><time>2026-05-01T16:55:54.001Z</time></trkpt><trkpt lat="42.25069634525427" lon="8.749253033180636"><ele>343.0</ele><time>2026-05-01T16:55:55.001Z</time></trkpt><trkpt lat="42.250666653203034" lon="8.749042382571982"><ele>346.5</ele><time>2026-05-01T16:55:56.001Z</time></trkpt><trkpt lat="42.250601316735114" lon="8.748853328013784"><ele>350.0</ele><time>2026-05-01T16:55:57.001Z</time></trkpt><trkpt lat="42.25050581178" lon="8.748723884869449"><ele>353.5</ele><time>2026-05-01T16:55:58.001Z</time></trkpt><trkpt lat="42.25038379227422" lon="8.748670644314965"><ele>357.0</ele><time>2026-05-01T16:55:59.001Z</time></trkpt><trkpt lat="42.25022959703803" lon="8.748685724121332"><ele>357.0</ele><time>2026-05-01T16:56:00.001Z</time></trkpt><trkpt lat="42.25006512013459" lon="8.748730808588935"><ele>357.0</ele><time>2026-05-01T16:56:01.001Z</time></trkpt><trkpt lat="42.2498839052746" lon="8.748713690565186"><ele>357.0</ele><time>2026-05-01T16:56:02.001Z</time></trkpt><trkpt lat="42.24972743859149" lon="8.748656414564053"><ele>352.0</ele><time>2026-05-01T16:56:03.001Z</time></trkpt><trkpt lat="42.249583059360035" lon="8.748639623770124"><ele>347.0</ele><time>2026-05-01T16:56:04.001Z</time></trkpt><trkpt lat="42.24946031400908" lon="8.748681595781765"><ele>342.0</ele><time>2026-05-01T16:56:05.001Z</time></trkpt><trkpt lat="42.249345420038466" lon="8.74877957338877"><ele>337.0</ele><time>2026-05-01T16:56:06.001Z</time></trkpt><trkpt lat="42.24922661895288" lon="8.748928581418307"><ele>337.0</ele><time>2026-05-01T16:56:07.001Z</time></trkpt><trkpt lat="42.24911491997882" lon="8.749073808319766"><ele>337.0</ele><time>2026-05-01T16:56:08.001Z</time></trkpt><trkpt lat="42.24900695816359" lon="8.749183169666376"><ele>337.0</ele><time>2026-05-01T16:56:09.001Z</time></trkpt><trkpt lat="42.24890017724655" lon="8.749232210367195"><ele>337.0</ele><time>2026-05-01T16:56:10.001Z</time></trkpt><trkpt lat="42.24880399081604" lon="8.749158670127407"><ele>347.25</ele><time>2026-05-01T16:56:11.001Z</time></trkpt><trkpt lat="42.24874566095476" lon="8.7490083756435"><ele>357.5</ele><time>2026-05-01T16:56:12.001Z</time></trkpt><trkpt lat="42.24870998754958" lon="8.7488429631293"><ele>367.75</ele><time>2026-05-01T16:56:13.001Z</time></trkpt><trkpt lat="42.24875703073146" lon="8.74865657294796"><ele>378.0</ele><time>2026-05-01T16:56:14.001Z</time></trkpt><trkpt lat="42.24880818695091" lon="8.74843119107617"><ele>380.66666666666663</ele><time>2026-05-01T16:56:15.001Z</time></trkpt><trkpt lat="42.24891824559816" lon="8.7482056372213"><ele>383.3333333333333</ele><time>2026-05-01T16:56:16.001Z</time></trkpt><trkpt lat="42.24898924267139" lon="8.747966263501326"><ele>386.0</ele><time>2026-05-01T16:56:17.001Z</time></trkpt><trkpt lat="42.24905547609406" lon="8.747740447231457"><ele>358.3333333333333</ele><time>2026-05-01T16:56:18.001Z</time></trkpt><trkpt lat="42.249081060075525" lon="8.747502115443183"><ele>330.66666666666663</ele><time>2026-05-01T16:56:19.001Z</time></trkpt><trkpt lat="42.2490583982441" lon="8.747274724449463"><ele>303.0</ele><time>2026-05-01T16:56:20.001Z</time></trkpt><trkpt lat="42.24899299394222" lon="8.747061361041107"><ele>323.3333333333333</ele><time>2026-05-01T16:56:21.001Z</time></trkpt><trkpt lat="42.24889419319099" lon="8.746837478164942"><ele>343.66666666666663</ele><time>2026-05-01T16:56:22.001Z</time></trkpt><trkpt lat="42.24881512109492" lon="8.746586709574595"><ele>364.0</ele><time>2026-05-01T16:56:23.001Z</time></trkpt><trkpt lat="42.24875300046552" lon="8.746368649976697"><ele>364.0</ele><time>2026-05-01T16:56:24.001Z</time></trkpt><trkpt lat="42.24873953397239" lon="8.746171276411962"><ele>364.0</ele><time>2026-05-01T16:56:25.002Z</time></trkpt><trkpt lat="42.248806257058945" lon="8.745997772845282"><ele>364.0</ele><time>2026-05-01T16:56:26.002Z</time></trkpt><trkpt lat="42.248873376217574" lon="8.745785429425375"><ele>346.3333333333333</ele><time>2026-05-01T16:56:27.002Z</time></trkpt><trkpt lat="42.248961153878014" lon="8.745560746399363"><ele>328.6666666666667</ele><time>2026-05-01T16:56:28.002Z</time></trkpt><trkpt lat="42.2490938414548" lon="8.745370915405088"><ele>311.0</ele><time>2026-05-01T16:56:29.002Z</time></trkpt><trkpt lat="42.24918886484859" lon="8.745166111328375"><ele>311.0</ele><time>2026-05-01T16:56:30.002Z</time></trkpt><trkpt lat="42.24927597732187" lon="8.744952164949561"><ele>311.0</ele><time>2026-05-01T16:56:31.002Z</time></trkpt><trkpt lat="42.24935794963619" lon="8.744715897209815"><ele>311.0</ele><time>2026-05-01T16:56:32.002Z</time></trkpt><trkpt lat="42.249366560834375" lon="8.74442767004064"><ele>310.33333333333337</ele><time>2026-05-01T16:56:33.002Z</time></trkpt><trkpt lat="42.24939090456328" lon="8.744158099933884"><ele>309.6666666666667</ele><time>2026-05-01T16:56:34.002Z</time></trkpt><trkpt lat="42.249431563348786" lon="8.743928267867616"><ele>309.0</ele><time>2026-05-01T16:56:35.002Z</time></trkpt><trkpt lat="42.24946524810328" lon="8.743742127274801"><ele>309.0</ele><time>2026-05-01T16:56:36.002Z</time></trkpt><trkpt lat="42.24946571155707" lon="8.74357674297921"><ele>309.0</ele><time>2026-05-01T16:56:37.002Z</time></trkpt><trkpt lat="42.249409573907194" lon="8.743457762054591"><ele>309.0</ele><time>2026-05-01T16:56:38.002Z</time></trkpt><trkpt lat="42.24930443569947" lon="8.743372349027288"><ele>309.0</ele><time>2026-05-01T16:56:39.002Z</time></trkpt><trkpt lat="42.24915092841515" lon="8.743298027043872"><ele>309.0</ele><time>2026-05-01T16:56:40.002Z</time></trkpt><trkpt lat="42.24897987928602" lon="8.7432600635079"><ele>309.0</ele><time>2026-05-01T16:56:41.002Z</time></trkpt><trkpt lat="42.248821255403264" lon="8.743242569676617"><ele>309.0</ele><time>2026-05-01T16:56:42.002Z</time></trkpt><trkpt lat="42.24868687402741" lon="8.743212453784649"><ele>309.0</ele><time>2026-05-01T16:56:43.002Z</time></trkpt><trkpt lat="42.24857900242419" lon="8.743149317925349"><ele>309.0</ele><time>2026-05-01T16:56:44.002Z</time></trkpt><trkpt lat="42.24850524628932" lon="8.743030422804585"><ele>309.0</ele><time>2026-05-01T16:56:45.002Z</time></trkpt><trkpt lat="42.248480846683826" lon="8.742860998176845"><ele>309.0</ele><time>2026-05-01T16:56:46.002Z</time></trkpt><trkpt lat="42.24849737671234" lon="8.742656399495944"><ele>306.75</ele><time>2026-05-01T16:56:47.002Z</time></trkpt><trkpt lat="42.24852778219291" lon="8.742449734967742"><ele>304.5</ele><time>2026-05-01T16:56:48.002Z</time></trkpt><trkpt lat="42.24853713816298" lon="8.742247923155388"><ele>302.25</ele><time>2026-05-01T16:56:49.002Z</time></trkpt><trkpt lat="42.24848779177005" lon="8.742065876839304"><ele>300.0</ele><time>2026-05-01T16:56:50.002Z</time></trkpt><trkpt lat="42.24838307072901" lon="8.741904781715649"><ele>296.0</ele><time>2026-05-01T16:56:51.002Z</time></trkpt><trkpt lat="42.24825274117113" lon="8.741765013991529"><ele>292.0</ele><time>2026-05-01T16:56:52.002Z</time></trkpt><trkpt lat="42.24816267293081" lon="8.741591208288066"><ele>288.0</ele><time>2026-05-01T16:56:53.002Z</time></trkpt><trkpt lat="42.24814005801789" lon="8.741372996063058"><ele>296.0</ele><time>2026-05-01T16:56:54.002Z</time></trkpt><trkpt lat="42.24812378526932" lon="8.741133669294408"><ele>304.0</ele><time>2026-05-01T16:56:55.002Z</time></trkpt><trkpt lat="42.24808954406355" lon="8.740924348054214"><ele>312.0</ele><time>2026-05-01T16:56:56.002Z</time></trkpt><trkpt lat="42.24810881947309" lon="8.740717028932673"><ele>301.3333333333333</ele><time>2026-05-01T16:56:57.002Z</time></trkpt><trkpt lat="42.24817931143025" lon="8.740519389406257"><ele>290.66666666666663</ele><time>2026-05-01T16:56:58.003Z</time></trkpt><trkpt lat="42.24824669436506" lon="8.740302005056963"><ele>280.0</ele><time>2026-05-01T16:56:59.003Z</time></trkpt><trkpt lat="42.24833570842424" lon="8.7401150251785"><ele>280.0</ele><time>2026-05-01T16:57:00.003Z</time></trkpt><trkpt lat="42.24844716461095" lon="8.739926349376173"><ele>280.0</ele><time>2026-05-01T16:57:01.003Z</time></trkpt><trkpt lat="42.24858651113497" lon="8.73976822425262"><ele>280.0</ele><time>2026-05-01T16:57:02.003Z</time></trkpt><trkpt lat="42.248696040245" lon="8.739556977323247"><ele>279.3333333333333</ele><time>2026-05-01T16:57:03.003Z</time></trkpt><trkpt lat="42.2487673798727" lon="8.73930175061947"><ele>278.6666666666667</ele><time>2026-05-01T16:57:04.003Z</time></trkpt><trkpt lat="42.24887011576345" lon="8.73910604426404"><ele>278.0</ele><time>2026-05-01T16:57:05.003Z</time></trkpt><trkpt lat="42.248988891139724" lon="8.738970101795053"><ele>273.33333333333337</ele><time>2026-05-01T16:57:06.003Z</time></trkpt><trkpt lat="42.24913962382262" lon="8.73893828399877"><ele>268.6666666666667</ele><time>2026-05-01T16:57:07.003Z</time></trkpt><trkpt lat="42.24930235645465" lon="8.738905027192168"><ele>264.0</ele><time>2026-05-01T16:57:08.003Z</time></trkpt><trkpt lat="42.24945631208641" lon="8.738864142723807"><ele>264.0</ele><time>2026-05-01T16:57:09.003Z</time></trkpt><trkpt lat="42.249593924132405" lon="8.738811680318225"><ele>264.0</ele><time>2026-05-01T16:57:10.003Z</time></trkpt><trkpt lat="42.24972469204632" lon="8.73868627545784"><ele>264.0</ele><time>2026-05-01T16:57:11.003Z</time></trkpt><trkpt lat="42.249838358407345" lon="8.738502854384802"><ele>261.25</ele><time>2026-05-01T16:57:12.003Z</time></trkpt><trkpt lat="42.24993569612659" lon="8.738330810512906"><ele>258.5</ele><time>2026-05-01T16:57:13.003Z</time></trkpt><trkpt lat="42.24998629032464" lon="8.73817513237569"><ele>255.75</ele><time>2026-05-01T16:57:14.003Z</time></trkpt><trkpt lat="42.249968367190306" lon="8.738015553380372"><ele>253.0</ele><time>2026-05-01T16:57:15.003Z</time></trkpt><trkpt lat="42.24988263029227" lon="8.737873814922036"><ele>252.0</ele><time>2026-05-01T16:57:16.003Z</time></trkpt><trkpt lat="42.249742162106074" lon="8.737766921312838"><ele>251.0</ele><time>2026-05-01T16:57:17.003Z</time></trkpt><trkpt lat="42.24956789277748" lon="8.73767451561244"><ele>250.0</ele><time>2026-05-01T16:57:17.998Z</time></trkpt><trkpt lat="42.2493808513722" lon="8.737596174503981"><ele>250.0</ele><time>2026-05-01T16:57:18.998Z</time></trkpt><trkpt lat="42.24917849581965" lon="8.737529928665746"><ele>250.0</ele><time>2026-05-01T16:57:19.999Z</time></trkpt><trkpt lat="42.248968911125885" lon="8.737460838286635"><ele>250.0</ele><time>2026-05-01T16:57:20.999Z</time></trkpt><trkpt lat="42.248770493374316" lon="8.73742838552664"><ele>252.0</ele><time>2026-05-01T16:57:21.999Z</time></trkpt><trkpt lat="42.24859871544381" lon="8.737448510377737"><ele>254.0</ele><time>2026-05-01T16:57:22.999Z</time></trkpt><trkpt lat="42.24844942727035" lon="8.737449024333182"><ele>256.0</ele><time>2026-05-01T16:57:23.999Z</time></trkpt><trkpt lat="42.2483363412876" lon="8.73736692626731"><ele>256.0</ele><time>2026-05-01T16:57:24.999Z</time></trkpt><trkpt lat="42.2483061096216" lon="8.737205305186317"><ele>256.0</ele><time>2026-05-01T16:57:25.999Z</time></trkpt><trkpt lat="42.24835580660324" lon="8.737033038199604"><ele>256.0</ele><time>2026-05-01T16:57:26.999Z</time></trkpt><trkpt lat="42.248432966870574" lon="8.736857412457466"><ele>256.0</ele><time>2026-05-01T16:57:27.999Z</time></trkpt><trkpt lat="42.2485434407158" lon="8.736644310065767"><ele>256.66666666666663</ele><time>2026-05-01T16:57:28.999Z</time></trkpt><trkpt lat="42.248650942447796" lon="8.73641397103891"><ele>257.3333333333333</ele><time>2026-05-01T16:57:29.999Z</time></trkpt><trkpt lat="42.24876838441152" lon="8.736208968254003"><ele>258.0</ele><time>2026-05-01T16:57:30.999Z</time></trkpt><trkpt lat="42.248857404885875" lon="8.736024402570132"><ele>258.0</ele><time>2026-05-01T16:57:31.999Z</time></trkpt><trkpt lat="42.24889683265669" lon="8.735860108167385"><ele>258.0</ele><time>2026-05-01T16:57:32.999Z</time></trkpt><trkpt lat="42.24886603707146" lon="8.735709489945615"><ele>258.0</ele><time>2026-05-01T16:57:33.999Z</time></trkpt><trkpt lat="42.24877120180363" lon="8.735560600958395"><ele>258.0</ele><time>2026-05-01T16:57:34.999Z</time></trkpt><trkpt lat="42.248623604081274" lon="8.735400665128383"><ele>252.33333333333331</ele><time>2026-05-01T16:57:36Z</time></trkpt><trkpt lat="42.248498581627295" lon="8.735207575685877"><ele>246.66666666666666</ele><time>2026-05-01T16:57:37Z</time></trkpt><trkpt lat="42.2483846677161" lon="8.734995824799247"><ele>241.0</ele><time>2026-05-01T16:57:38Z</time></trkpt><trkpt lat="42.24830095272053" lon="8.734750696991503"><ele>241.0</ele><time>2026-05-01T16:57:39Z</time></trkpt><trkpt lat="42.24824293882983" lon="8.734503021566963"><ele>241.0</ele><time>2026-05-01T16:57:40Z</time></trkpt><trkpt lat="42.248167955850796" lon="8.73432001399146"><ele>241.0</ele><time>2026-05-01T16:57:41Z</time></trkpt><trkpt lat="42.248066778097815" lon="8.73421309036378"><ele>239.66666666666666</ele><time>2026-05-01T16:57:42Z</time></trkpt><trkpt lat="42.24791730792789" lon="8.734188644744345"><ele>238.33333333333331</ele><time>2026-05-01T16:57:43Z</time></trkpt><trkpt lat="42.24775029977665" lon="8.73417854551476"><ele>237.0</ele><time>2026-05-01T16:57:44Z</time></trkpt><trkpt lat="42.24761851816416" lon="8.734055658456077"><ele>237.0</ele><time>2026-05-01T16:57:45Z</time></trkpt><trkpt lat="42.24746824621642" lon="8.733896079763719"><ele>237.0</ele><time>2026-05-01T16:57:46Z</time></trkpt><trkpt lat="42.24730502377729" lon="8.733744772685718"><ele>237.0</ele><time>2026-05-01T16:57:47Z</time></trkpt><trkpt lat="42.24714389948429" lon="8.733607223482744"><ele>237.0</ele><time>2026-05-01T16:57:48Z</time></trkpt><trkpt lat="42.24700281235728" lon="8.733513915763785"><ele>237.0</ele><time>2026-05-01T16:57:49Z</time></trkpt><trkpt lat="42.24690420457542" lon="8.733418626436642"><ele>237.0</ele><time>2026-05-01T16:57:50Z</time></trkpt><trkpt lat="42.24687484991967" lon="8.733253029900961"><ele>237.0</ele><time>2026-05-01T16:57:51Z</time></trkpt><trkpt lat="42.24690282517675" lon="8.733070055157402"><ele>237.0</ele><time>2026-05-01T16:57:52Z</time></trkpt><trkpt lat="42.24685843759753" lon="8.732891877724033"><ele>237.0</ele><time>2026-05-01T16:57:53Z</time></trkpt><trkpt lat="42.246783223577" lon="8.732748680035913"><ele>237.0</ele><time>2026-05-01T16:57:54Z</time></trkpt><trkpt lat="42.24663649617928" lon="8.732671052820107"><ele>237.0</ele><time>2026-05-01T16:57:55.001Z</time></trkpt><trkpt lat="42.246455516520555" lon="8.732638458460972"><ele>228.0</ele><time>2026-05-01T16:57:56.001Z</time></trkpt><trkpt lat="42.2462532192504" lon="8.732637318774753"><ele>219.0</ele><time>2026-05-01T16:57:57.001Z</time></trkpt><trkpt lat="42.24604692227138" lon="8.732604969839393"><ele>210.0</ele><time>2026-05-01T16:57:58.001Z</time></trkpt><trkpt lat="42.24583658724319" lon="8.732569605734952"><ele>207.66666666666669</ele><time>2026-05-01T16:57:59.001Z</time></trkpt><trkpt lat="42.24561698190113" lon="8.732538301627827"><ele>205.33333333333334</ele><time>2026-05-01T16:58:00.001Z</time></trkpt><trkpt lat="42.2453915246467" lon="8.7325137894416"><ele>203.0</ele><time>2026-05-01T16:58:01.001Z</time></trkpt><trkpt lat="42.24515905509198" lon="8.73249558251235"><ele>203.0</ele><time>2026-05-01T16:58:02.001Z</time></trkpt><trkpt lat="42.2449362982828" lon="8.73248531670291"><ele>203.0</ele><time>2026-05-01T16:58:03.001Z</time></trkpt><trkpt lat="42.24472789979069" lon="8.732482115570956"><ele>203.0</ele><time>2026-05-01T16:58:04.001Z</time></trkpt><trkpt lat="42.24453716118091" lon="8.732498971460203"><ele>200.33333333333334</ele><time>2026-05-01T16:58:05.001Z</time></trkpt><trkpt lat="42.24437353081175" lon="8.732573406724056"><ele>197.66666666666669</ele><time>2026-05-01T16:58:06.001Z</time></trkpt><trkpt lat="42.244229268303684" lon="8.73268604840209"><ele>195.0</ele><time>2026-05-01T16:58:07.001Z</time></trkpt><trkpt lat="42.244099453333526" lon="8.73271671105898"><ele>195.0</ele><time>2026-05-01T16:58:08.001Z</time></trkpt><trkpt lat="42.24398491178647" lon="8.73264650687474"><ele>195.0</ele><time>2026-05-01T16:58:09.001Z</time></trkpt><trkpt lat="42.24386404154829" lon="8.732498940047721"><ele>195.0</ele><time>2026-05-01T16:58:10.001Z</time></trkpt><trkpt lat="42.2437108431322" lon="8.73238858142255"><ele>198.33333333333331</ele><time>2026-05-01T16:58:11.001Z</time></trkpt><trkpt lat="42.24354280485276" lon="8.732299467963093"><ele>201.66666666666666</ele><time>2026-05-01T16:58:12.001Z</time></trkpt><trkpt lat="42.243377775696544" lon="8.732258657734775"><ele>205.0</ele><time>2026-05-01T16:58:13.001Z</time></trkpt><trkpt lat="42.2432127730454" lon="8.732286007682434"><ele>200.33333333333331</ele><time>2026-05-01T16:58:14.001Z</time></trkpt><trkpt lat="42.243039919799884" lon="8.732406380203965"><ele>195.66666666666666</ele><time>2026-05-01T16:58:15.001Z</time></trkpt><trkpt lat="42.24286610809088" lon="8.73254493322105"><ele>191.0</ele><time>2026-05-01T16:58:16.001Z</time></trkpt><trkpt lat="42.24267577544832" lon="8.732624173937845"><ele>191.0</ele><time>2026-05-01T16:58:17.001Z</time></trkpt><trkpt lat="42.2424756401931" lon="8.732702347438144"><ele>191.0</ele><time>2026-05-01T16:58:18.001Z</time></trkpt><trkpt lat="42.24225028910082" lon="8.732688658437285"><ele>191.0</ele><time>2026-05-01T16:58:19.001Z</time></trkpt><trkpt lat="42.24202373563086" lon="8.732676008974153"><ele>191.33333333333331</ele><time>2026-05-01T16:58:20.001Z</time></trkpt><trkpt lat="42.2418344373553" lon="8.732674603582968"><ele>191.66666666666666</ele><time>2026-05-01T16:58:21.001Z</time></trkpt><trkpt lat="42.24168087273173" lon="8.732703457981652"><ele>192.0</ele><time>2026-05-01T16:58:22.001Z</time></trkpt><trkpt lat="42.241555395684244" lon="8.732676786396674"><ele>192.83333333333334</ele><time>2026-05-01T16:58:23.002Z</time></trkpt><trkpt lat="42.24146382378411" lon="8.732642441208782"><ele>193.66666666666669</ele><time>2026-05-01T16:58:24.002Z</time></trkpt><trkpt lat="42.24144645092724" lon="8.732541167468224"><ele>194.5</ele><time>2026-05-01T16:58:25.002Z</time></trkpt><trkpt lat="42.24144037187542" lon="8.732427894123182"><ele>195.33333333333334</ele><time>2026-05-01T16:58:26.002Z</time></trkpt><trkpt lat="42.241417814770635" lon="8.7323092433592"><ele>196.16666666666669</ele><time>2026-05-01T16:58:27.002Z</time></trkpt><trkpt lat="42.241398061958236" lon="8.732194903831356"><ele>197.0</ele><time>2026-05-01T16:58:28.002Z</time></trkpt><trkpt lat="42.24143215173748" lon="8.732082886816785"><ele>195.75</ele><time>2026-05-01T16:58:29.002Z</time></trkpt><trkpt lat="42.24151917019584" lon="8.732020113007893"><ele>194.5</ele><time>2026-05-01T16:58:30.002Z</time></trkpt><trkpt lat="42.24165690671191" lon="8.732037672274881"><ele>193.25</ele><time>2026-05-01T16:58:31.002Z</time></trkpt><trkpt lat="42.24183634344937" lon="8.73202363956886"><ele>192.0</ele><time>2026-05-01T16:58:32.002Z</time></trkpt><trkpt lat="42.242025287061416" lon="8.732007812509718"><ele>192.0</ele><time>2026-05-01T16:58:33.002Z</time></trkpt><trkpt lat="42.242207483816834" lon="8.731994453314186"><ele>192.0</ele><time>2026-05-01T16:58:34.002Z</time></trkpt><trkpt lat="42.24236746854111" lon="8.73195754935177"><ele>192.0</ele><time>2026-05-01T16:58:35.002Z</time></trkpt><trkpt lat="42.24251285510581" lon="8.73189582949024"><ele>192.66666666666669</ele><time>2026-05-01T16:58:36.002Z</time></trkpt><trkpt lat="42.24265649821928" lon="8.731743591388787"><ele>193.33333333333334</ele><time>2026-05-01T16:58:37.002Z</time></trkpt><trkpt lat="42.242788386882204" lon="8.731546043259607"><ele>194.0</ele><time>2026-05-01T16:58:38.002Z</time></trkpt><trkpt lat="42.242954666810725" lon="8.731356748489677"><ele>194.0</ele><time>2026-05-01T16:58:39.002Z</time></trkpt><trkpt lat="42.243130072703515" lon="8.731179983175608"><ele>194.0</ele><time>2026-05-01T16:58:40.002Z</time></trkpt><trkpt lat="42.243322828503224" lon="8.731039432240372"><ele>194.0</ele><time>2026-05-01T16:58:41.002Z</time></trkpt><trkpt lat="42.24351527895731" lon="8.730970692319836"><ele>192.66666666666669</ele><time>2026-05-01T16:58:42.002Z</time></trkpt><trkpt lat="42.24371026386986" lon="8.730967154768681"><ele>191.33333333333334</ele><time>2026-05-01T16:58:43.002Z</time></trkpt><trkpt lat="42.24392501606511" lon="8.730928883294208"><ele>190.0</ele><time>2026-05-01T16:58:44.002Z</time></trkpt><trkpt lat="42.244145661043724" lon="8.730857931733048"><ele>187.5</ele><time>2026-05-01T16:58:45.002Z</time></trkpt><trkpt lat="42.244375137492874" lon="8.730792728735059"><ele>185.0</ele><time>2026-05-01T16:58:46.002Z</time></trkpt><trkpt lat="42.244610258262" lon="8.730744459965857"><ele>176.5</ele><time>2026-05-01T16:58:47.002Z</time></trkpt><trkpt lat="42.244838043304114" lon="8.73063861022904"><ele>168.0</ele><time>2026-05-01T16:58:48.002Z</time></trkpt><trkpt lat="42.24505407669551" lon="8.730497655057626"><ele>168.0</ele><time>2026-05-01T16:58:49.002Z</time></trkpt><trkpt lat="42.245279657957056" lon="8.730433643107336"><ele>168.0</ele><time>2026-05-01T16:58:50.002Z</time></trkpt><trkpt lat="42.24549348353649" lon="8.73041651527469"><ele>168.0</ele><time>2026-05-01T16:58:51.002Z</time></trkpt><trkpt lat="42.24571231949245" lon="8.730441903661772"><ele>164.0</ele><time>2026-05-01T16:58:52.002Z</time></trkpt><trkpt lat="42.24594459235292" lon="8.730435109818712"><ele>160.0</ele><time>2026-05-01T16:58:53.002Z</time></trkpt><trkpt lat="42.24618158940522" lon="8.73037850255053"><ele>160.0</ele><time>2026-05-01T16:58:54.002Z</time></trkpt><trkpt lat="42.246417137952974" lon="8.730344923502937"><ele>160.0</ele><time>2026-05-01T16:58:55.003Z</time></trkpt><trkpt lat="42.246621534151956" lon="8.73033407804512"><ele>160.0</ele><time>2026-05-01T16:58:56.003Z</time></trkpt><trkpt lat="42.24680849850208" lon="8.730263593054023"><ele>163.0</ele><time>2026-05-01T16:58:57.003Z</time></trkpt><trkpt lat="42.24698566679932" lon="8.730134535840202"><ele>166.0</ele><time>2026-05-01T16:58:58.003Z</time></trkpt><trkpt lat="42.24719171650302" lon="8.730077082897253"><ele>169.0</ele><time>2026-05-01T16:58:59.003Z</time></trkpt><trkpt lat="42.2474114225392" lon="8.730046220966662"><ele>169.0</ele><time>2026-05-01T16:59:00.003Z</time></trkpt><trkpt lat="42.24765211456525" lon="8.730044077001416"><ele>169.0</ele><time>2026-05-01T16:59:01.003Z</time></trkpt><trkpt lat="42.2478901133718" lon="8.7300205703904"><ele>169.0</ele><time>2026-05-01T16:59:02.003Z</time></trkpt><trkpt lat="42.248095012950614" lon="8.729973354823086"><ele>169.0</ele><time>2026-05-01T16:59:03.003Z</time></trkpt><trkpt lat="42.24827418311838" lon="8.729997261382572"><ele>169.0</ele><time>2026-05-01T16:59:04.003Z</time></trkpt><trkpt lat="42.24842831259817" lon="8.729983059789875"><ele>166.16666666666669</ele><time>2026-05-01T16:59:05.003Z</time></trkpt><trkpt lat="42.24854898967262" lon="8.729980478733296"><ele>163.33333333333334</ele><time>2026-05-01T16:59:06.003Z</time></trkpt><trkpt lat="42.24864202171454" lon="8.729962504613724"><ele>160.5</ele><time>2026-05-01T16:59:07.003Z</time></trkpt><trkpt lat="42.24870560123479" lon="8.729931084912172"><ele>157.66666666666666</ele><time>2026-05-01T16:59:08.003Z</time></trkpt><trkpt lat="42.24875318142065" lon="8.729870124242195"><ele>154.83333333333331</ele><time>2026-05-01T16:59:10.003Z</time></trkpt><trkpt lat="42.24881296014618" lon="8.729824344041564"><ele>152.0</ele><time>2026-05-01T16:59:13.003Z</time></trkpt><trkpt lat="42.24884167437494" lon="8.729737622080671"><ele>152.0</ele><time>2026-05-01T16:59:15.003Z</time></trkpt><trkpt lat="42.248865521565804" lon="8.729656826464154"><ele>152.0</ele><time>2026-05-01T16:59:17.003Z</time></trkpt><trkpt lat="42.24889640473423" lon="8.729561081990717"><ele>152.0</ele><time>2026-05-01T16:59:20.003Z</time></trkpt><trkpt lat="42.24891814949733" lon="8.729472526685415"><ele>152.0</ele><time>2026-05-01T16:59:23.003Z</time></trkpt><trkpt lat="42.2489428258309" lon="8.729369430612307"><ele>152.0</ele><time>2026-05-01T16:59:24.999Z</time></trkpt><trkpt lat="42.248985080866184" lon="8.729209128012268"><ele>152.0</ele><time>2026-05-01T16:59:26.999Z</time></trkpt><trkpt lat="42.249012995202875" lon="8.72911650862274"><ele>151.4</ele><time>2026-05-01T16:59:27.999Z</time></trkpt><trkpt lat="42.24903996928451" lon="8.729015901683844"><ele>150.79999999999998</ele><time>2026-05-01T16:59:28.999Z</time></trkpt><trkpt lat="42.24906475527564" lon="8.728902683267227"><ele>150.2</ele><time>2026-05-01T16:59:29.999Z</time></trkpt><trkpt lat="42.24909744638081" lon="8.728772487283583"><ele>149.6</ele><time>2026-05-01T16:59:30.999Z</time></trkpt><trkpt lat="42.249143823529195" lon="8.728639543054962"><ele>149.0</ele><time>2026-05-01T16:59:31.999Z</time></trkpt><trkpt lat="42.2491961236507" lon="8.728512510416618"><ele>149.0</ele><time>2026-05-01T16:59:32.999Z</time></trkpt><trkpt lat="42.249248899493196" lon="8.728372131002144"><ele>149.0</ele><time>2026-05-01T16:59:33.999Z</time></trkpt><trkpt lat="42.24929041772468" lon="8.728222091011"><ele>149.0</ele><time>2026-05-01T16:59:34.999Z</time></trkpt><trkpt lat="42.249326603461554" lon="8.72805699344716"><ele>149.0</ele><time>2026-05-01T16:59:35.999Z</time></trkpt><trkpt lat="42.249339074205075" lon="8.727894317846195"><ele>149.0</ele><time>2026-05-01T16:59:36.999Z</time></trkpt><trkpt lat="42.24933693615641" lon="8.727750030499681"><ele>149.0</ele><time>2026-05-01T16:59:38Z</time></trkpt><trkpt lat="42.24930468646577" lon="8.727599735820096"><ele>149.0</ele><time>2026-05-01T16:59:39Z</time></trkpt><trkpt lat="42.24925810543665" lon="8.72744751755628"><ele>149.0</ele><time>2026-05-01T16:59:40Z</time></trkpt><trkpt lat="42.24923239928961" lon="8.72728622645996"><ele>149.0</ele><time>2026-05-01T16:59:41Z</time></trkpt><trkpt lat="42.24924486455725" lon="8.7271192383148"><ele>149.0</ele><time>2026-05-01T16:59:42Z</time></trkpt><trkpt lat="42.24928896416338" lon="8.726951382814228"><ele>149.0</ele><time>2026-05-01T16:59:43Z</time></trkpt><trkpt lat="42.24934658668022" lon="8.72679943038333"><ele>149.0</ele><time>2026-05-01T16:59:44Z</time></trkpt><trkpt lat="42.24941779375736" lon="8.726665530520593"><ele>150.0</ele><time>2026-05-01T16:59:45Z</time></trkpt><trkpt lat="42.24950533174357" lon="8.726531786286454"><ele>151.0</ele><time>2026-05-01T16:59:46Z</time></trkpt><trkpt lat="42.24959147727679" lon="8.726390499509009"><ele>152.0</ele><time>2026-05-01T16:59:47Z</time></trkpt><trkpt lat="42.24965409137324" lon="8.726238094885012"><ele>153.0</ele><time>2026-05-01T16:59:48Z</time></trkpt><trkpt lat="42.249725784925346" lon="8.72607957005082"><ele>154.8</ele><time>2026-05-01T16:59:49Z</time></trkpt><trkpt lat="42.24977868188202" lon="8.725927296791667"><ele>156.60000000000002</ele><time>2026-05-01T16:59:50Z</time></trkpt><trkpt lat="42.24981406271204" lon="8.725780715477793"><ele>158.39999999999998</ele><time>2026-05-01T16:59:51Z</time></trkpt><trkpt lat="42.249834965597444" lon="8.725638541204091"><ele>160.2</ele><time>2026-05-01T16:59:52Z</time></trkpt><trkpt lat="42.24984200969043" lon="8.725506121857846"><ele>162.0</ele><time>2026-05-01T16:59:53Z</time></trkpt><trkpt lat="42.249833791068525" lon="8.725380858165819"><ele>160.6</ele><time>2026-05-01T16:59:54Z</time></trkpt><trkpt lat="42.24981392346117" lon="8.725249256262844"><ele>159.2</ele><time>2026-05-01T16:59:55Z</time></trkpt><trkpt lat="42.2497816275147" lon="8.725102575217301"><ele>157.8</ele><time>2026-05-01T16:59:56Z</time></trkpt><trkpt lat="42.24973223744169" lon="8.724955766283365"><ele>156.4</ele><time>2026-05-01T16:59:57Z</time></trkpt><trkpt lat="42.249664843371136" lon="8.72484555575801"><ele>155.0</ele><time>2026-05-01T16:59:58.001Z</time></trkpt><trkpt lat="42.249635921856026" lon="8.724737334265185"><ele>155.0</ele><time>2026-05-01T16:59:59.001Z</time></trkpt><trkpt lat="42.249666716712404" lon="8.72463259942875"><ele>155.0</ele><time>2026-05-01T17:00:00.001Z</time></trkpt><trkpt lat="42.24971890357698" lon="8.724524100797826"><ele>155.0</ele><time>2026-05-01T17:00:01.001Z</time></trkpt><trkpt lat="42.249773421807" lon="8.724401071413872"><ele>155.0</ele><time>2026-05-01T17:00:02.001Z</time></trkpt><trkpt lat="42.249842545767656" lon="8.724314338861843"><ele>155.0</ele><time>2026-05-01T17:00:03.001Z</time></trkpt><trkpt lat="42.249933025422905" lon="8.724290437867372"><ele>150.0</ele><time>2026-05-01T17:00:04.001Z</time></trkpt><trkpt lat="42.25002588964834" lon="8.724338849405914"><ele>145.0</ele><time>2026-05-01T17:00:05.001Z</time></trkpt><trkpt lat="42.25013386507421" lon="8.724412191491494"><ele>140.0</ele><time>2026-05-01T17:00:06.001Z</time></trkpt><trkpt lat="42.25025017718924" lon="8.724512118425526"><ele>135.0</ele><time>2026-05-01T17:00:07.001Z</time></trkpt><trkpt lat="42.25039145327861" lon="8.724604292189865"><ele>131.33333333333334</ele><time>2026-05-01T17:00:08.001Z</time></trkpt><trkpt lat="42.25053464357262" lon="8.72469861158287"><ele>127.66666666666667</ele><time>2026-05-01T17:00:09.001Z</time></trkpt><trkpt lat="42.25068521112382" lon="8.724796489957365"><ele>124.0</ele><time>2026-05-01T17:00:10.001Z</time></trkpt><trkpt lat="42.250827319806234" lon="8.724856638412007"><ele>124.0</ele><time>2026-05-01T17:00:11.001Z</time></trkpt><trkpt lat="42.25095646076986" lon="8.724918880247388"><ele>124.0</ele><time>2026-05-01T17:00:12.001Z</time></trkpt><trkpt lat="42.25109211720201" lon="8.724920017158894"><ele>124.0</ele><time>2026-05-01T17:00:13.001Z</time></trkpt><trkpt lat="42.251234552989054" lon="8.724884662206518"><ele>124.0</ele><time>2026-05-01T17:00:14.001Z</time></trkpt><trkpt lat="42.25138305547879" lon="8.724812277299428"><ele>120.66666666666667</ele><time>2026-05-01T17:00:15.001Z</time></trkpt><trkpt lat="42.251537141962636" lon="8.724748729069752"><ele>117.33333333333334</ele><time>2026-05-01T17:00:16.001Z</time></trkpt><trkpt lat="42.2516958602675" lon="8.724684382392295"><ele>114.0</ele><time>2026-05-01T17:00:17.001Z</time></trkpt><trkpt lat="42.251856594759495" lon="8.724637402898214"><ele>114.0</ele><time>2026-05-01T17:00:18.001Z</time></trkpt><trkpt lat="42.252009090709215" lon="8.724629079996799"><ele>114.0</ele><time>2026-05-01T17:00:19.001Z</time></trkpt><trkpt lat="42.25213440705454" lon="8.72465099641708"><ele>114.0</ele><time>2026-05-01T17:00:20.001Z</time></trkpt><trkpt lat="42.252237808843724" lon="8.724668180622247"><ele>114.0</ele><time>2026-05-01T17:00:21.001Z</time></trkpt><trkpt lat="42.25234177570229" lon="8.724652681161539"><ele>115.75</ele><time>2026-05-01T17:00:22.001Z</time></trkpt><trkpt lat="42.252456291347166" lon="8.724559582578362"><ele>117.5</ele><time>2026-05-01T17:00:23.001Z</time></trkpt><trkpt lat="42.25255801570094" lon="8.724435611701065"><ele>119.25</ele><time>2026-05-01T17:00:24.001Z</time></trkpt><trkpt lat="42.25266223638261" lon="8.72429602150644"><ele>121.0</ele><time>2026-05-01T17:00:25.001Z</time></trkpt><trkpt lat="42.252771234926115" lon="8.724144145771804"><ele>121.0</ele><time>2026-05-01T17:00:26.001Z</time></trkpt><trkpt lat="42.25288007864876" lon="8.723988807339545"><ele>121.0</ele><time>2026-05-01T17:00:27.002Z</time></trkpt><trkpt lat="42.25298708450975" lon="8.723832874886655"><ele>121.0</ele><time>2026-05-01T17:00:28.002Z</time></trkpt><trkpt lat="42.25309518497991" lon="8.723698383643091"><ele>119.75</ele><time>2026-05-01T17:00:29.002Z</time></trkpt><trkpt lat="42.25322643303397" lon="8.723626612595686"><ele>118.5</ele><time>2026-05-01T17:00:30.002Z</time></trkpt><trkpt lat="42.25336520566554" lon="8.723556851031638"><ele>117.25</ele><time>2026-05-01T17:00:31.002Z</time></trkpt><trkpt lat="42.25350159249309" lon="8.723499014815943"><ele>116.0</ele><time>2026-05-01T17:00:32.002Z</time></trkpt><trkpt lat="42.25362612832481" lon="8.723444940726306"><ele>116.0</ele><time>2026-05-01T17:00:33.002Z</time></trkpt><trkpt lat="42.253731889407256" lon="8.723350855065686"><ele>116.0</ele><time>2026-05-01T17:00:34.002Z</time></trkpt><trkpt lat="42.253792352125934" lon="8.723200922996952"><ele>116.0</ele><time>2026-05-01T17:00:35.002Z</time></trkpt><trkpt lat="42.253795518204214" lon="8.723038223872338"><ele>116.0</ele><time>2026-05-01T17:00:36.002Z</time></trkpt><trkpt lat="42.25384026885513" lon="8.722882894127522"><ele>115.75</ele><time>2026-05-01T17:00:37.002Z</time></trkpt><trkpt lat="42.253865280799594" lon="8.72272417499117"><ele>115.5</ele><time>2026-05-01T17:00:38.002Z</time></trkpt><trkpt lat="42.25385055162976" lon="8.722569885944502"><ele>115.25</ele><time>2026-05-01T17:00:39.002Z</time></trkpt><trkpt lat="42.253819018264856" lon="8.722425274929245"><ele>115.0</ele><time>2026-05-01T17:00:40.002Z</time></trkpt><trkpt lat="42.253733225883124" lon="8.722319585560054"><ele>115.0</ele><time>2026-05-01T17:00:41.002Z</time></trkpt><trkpt lat="42.253673261743415" lon="8.722200633943416"><ele>115.0</ele><time>2026-05-01T17:00:42.002Z</time></trkpt><trkpt lat="42.253650853606445" lon="8.722058892511432"><ele>115.0</ele><time>2026-05-01T17:00:43.002Z</time></trkpt><trkpt lat="42.25366030304044" lon="8.721913731113167"><ele>115.0</ele><time>2026-05-01T17:00:44.002Z</time></trkpt><trkpt lat="42.25366900710991" lon="8.721738631739"><ele>114.25</ele><time>2026-05-01T17:00:45.002Z</time></trkpt><trkpt lat="42.25368014342993" lon="8.72157466673657"><ele>113.5</ele><time>2026-05-01T17:00:46.002Z</time></trkpt><trkpt lat="42.25369590754137" lon="8.721442097133755"><ele>112.75</ele><time>2026-05-01T17:00:47.002Z</time></trkpt><trkpt lat="42.253773846530976" lon="8.721339861223175"><ele>112.0</ele><time>2026-05-01T17:00:48.002Z</time></trkpt><trkpt lat="42.253885539881324" lon="8.721248701116169"><ele>109.75</ele><time>2026-05-01T17:00:49.002Z</time></trkpt><trkpt lat="42.25400641299736" lon="8.721153127082612"><ele>107.5</ele><time>2026-05-01T17:00:50.002Z</time></trkpt><trkpt lat="42.254139974082676" lon="8.72106968536369"><ele>105.25</ele><time>2026-05-01T17:00:51.002Z</time></trkpt><trkpt lat="42.2542696585516" lon="8.720948898354882"><ele>103.0</ele><time>2026-05-01T17:00:52.002Z</time></trkpt><trkpt lat="42.254398024471904" lon="8.720808174728596"><ele>103.0</ele><time>2026-05-01T17:00:53.002Z</time></trkpt><trkpt lat="42.254504791072705" lon="8.720631526194078"><ele>103.0</ele><time>2026-05-01T17:00:54.002Z</time></trkpt><trkpt lat="42.254608561491715" lon="8.720453465393987"><ele>103.0</ele><time>2026-05-01T17:00:55.002Z</time></trkpt><trkpt lat="42.25468240192852" lon="8.720282324171137"><ele>104.75</ele><time>2026-05-01T17:00:56.002Z</time></trkpt><trkpt lat="42.2547548245503" lon="8.72011447275777"><ele>106.5</ele><time>2026-05-01T17:00:57.002Z</time></trkpt><trkpt lat="42.25481165981081" lon="8.719954839538827"><ele>108.25</ele><time>2026-05-01T17:00:58.002Z</time></trkpt><trkpt lat="42.2548712651573" lon="8.71978628280867"><ele>110.0</ele><time>2026-05-01T17:00:59.002Z</time></trkpt><trkpt lat="42.25493516816188" lon="8.71961077492205"><ele>106.5</ele><time>2026-05-01T17:01:00.003Z</time></trkpt><trkpt lat="42.25499906453183" lon="8.71943408445336"><ele>103.0</ele><time>2026-05-01T17:01:01.003Z</time></trkpt><trkpt lat="42.25505677361973" lon="8.719273555409819"><ele>99.5</ele><time>2026-05-01T17:01:02.003Z</time></trkpt><trkpt lat="42.25510949015643" lon="8.719136004210243"><ele>96.0</ele><time>2026-05-01T17:01:03.003Z</time></trkpt><trkpt lat="42.255157753666914" lon="8.719020812454488"><ele>96.0</ele><time>2026-05-01T17:01:04.003Z</time></trkpt><trkpt lat="42.25520722467874" lon="8.718928175059558"><ele>96.0</ele><time>2026-05-01T17:01:05.003Z</time></trkpt><trkpt lat="42.25526824146022" lon="8.71885167059629"><ele>96.0</ele><time>2026-05-01T17:01:06.003Z</time></trkpt><trkpt lat="42.255342950738935" lon="8.718792896345008"><ele>96.0</ele><time>2026-05-01T17:01:07.003Z</time></trkpt><trkpt lat="42.2554346480314" lon="8.718723649163438"><ele>96.0</ele><time>2026-05-01T17:01:08.003Z</time></trkpt><trkpt lat="42.255550850278276" lon="8.71862682311817"><ele>91.66666666666667</ele><time>2026-05-01T17:01:09.003Z</time></trkpt><trkpt lat="42.255667173611506" lon="8.718478177814303"><ele>87.33333333333334</ele><time>2026-05-01T17:01:10.003Z</time></trkpt><trkpt lat="42.25575490656311" lon="8.718306952221257"><ele>83.0</ele><time>2026-05-01T17:01:11.003Z</time></trkpt><trkpt lat="42.2558557403444" lon="8.718160545092587"><ele>83.0</ele><time>2026-05-01T17:01:12.003Z</time></trkpt><trkpt lat="42.255957051669874" lon="8.718003664459635"><ele>83.0</ele><time>2026-05-01T17:01:13.003Z</time></trkpt><trkpt lat="42.25605935612245" lon="8.717858607247898"><ele>83.0</ele><time>2026-05-01T17:01:14.003Z</time></trkpt><trkpt lat="42.256168811590996" lon="8.717754361092984"><ele>83.0</ele><time>2026-05-01T17:01:15.003Z</time></trkpt><trkpt lat="42.25628123378159" lon="8.717666275046039"><ele>81.5</ele><time>2026-05-01T17:01:16.003Z</time></trkpt><trkpt lat="42.25640447209945" lon="8.71758111058838"><ele>80.0</ele><time>2026-05-01T17:01:17.003Z</time></trkpt><trkpt lat="42.256538006130704" lon="8.717493773142374"><ele>78.5</ele><time>2026-05-01T17:01:18.003Z</time></trkpt><trkpt lat="42.25667708081403" lon="8.717402811913399"><ele>77.0</ele><time>2026-05-01T17:01:19.003Z</time></trkpt><trkpt lat="42.25682005112985" lon="8.717307317966682"><ele>77.0</ele><time>2026-05-01T17:01:20.003Z</time></trkpt><trkpt lat="42.25696501209914" lon="8.717208551903422"><ele>77.0</ele><time>2026-05-01T17:01:21.003Z</time></trkpt><trkpt lat="42.25711210190321" lon="8.717108335497715"><ele>77.0</ele><time>2026-05-01T17:01:22.003Z</time></trkpt><trkpt lat="42.25726014718753" lon="8.717009143268141"><ele>79.25</ele><time>2026-05-01T17:01:23.003Z</time></trkpt><trkpt lat="42.25739401549346" lon="8.716926272694788"><ele>81.5</ele><time>2026-05-01T17:01:24.003Z</time></trkpt><trkpt lat="42.257535862679696" lon="8.716859700366271"><ele>83.75</ele><time>2026-05-01T17:01:25.003Z</time></trkpt><trkpt lat="42.257683281296046" lon="8.716809846302475"><ele>86.0</ele><time>2026-05-01T17:01:26.003Z</time></trkpt><trkpt lat="42.25784251845309" lon="8.716748507002238"><ele>86.0</ele><time>2026-05-01T17:01:27.003Z</time></trkpt><trkpt lat="42.258002272370895" lon="8.716668375875203"><ele>86.0</ele><time>2026-05-01T17:01:28.003Z</time></trkpt><trkpt lat="42.25815164769784" lon="8.716553844729585"><ele>86.0</ele><time>2026-05-01T17:01:29.003Z</time></trkpt><trkpt lat="42.25829942496383" lon="8.716484539095266"><ele>84.75</ele><time>2026-05-01T17:01:29.999Z</time></trkpt><trkpt lat="42.2584283220704" lon="8.716392509859096"><ele>83.5</ele><time>2026-05-01T17:01:30.999Z</time></trkpt><trkpt lat="42.25853772074211" lon="8.716265687497893"><ele>82.25</ele><time>2026-05-01T17:01:32Z</time></trkpt><trkpt lat="42.25865055421893" lon="8.716128450923092"><ele>81.0</ele><time>2026-05-01T17:01:33Z</time></trkpt><trkpt lat="42.2587482007516" lon="8.715943361517875"><ele>81.0</ele><time>2026-05-01T17:01:34Z</time></trkpt><trkpt lat="42.25884133472516" lon="8.715740493321288"><ele>81.0</ele><time>2026-05-01T17:01:35Z</time></trkpt><trkpt lat="42.25896077459657" lon="8.715599244391017"><ele>81.0</ele><time>2026-05-01T17:01:36Z</time></trkpt><trkpt lat="42.259080083543445" lon="8.715497920990362"><ele>77.6</ele><time>2026-05-01T17:01:37Z</time></trkpt><trkpt lat="42.259179067408816" lon="8.715398585438649"><ele>74.19999999999999</ele><time>2026-05-01T17:01:38Z</time></trkpt><trkpt lat="42.259238741867" lon="8.715310139767476"><ele>70.80000000000001</ele><time>2026-05-01T17:01:39Z</time></trkpt><trkpt lat="42.25924077239966" lon="8.715158135789629"><ele>67.4</ele><time>2026-05-01T17:01:40Z</time></trkpt><trkpt lat="42.259233535281936" lon="8.715006744351616"><ele>64.0</ele><time>2026-05-01T17:01:41Z</time></trkpt><trkpt lat="42.25920038299836" lon="8.714830326548064"><ele>64.0</ele><time>2026-05-01T17:01:42Z</time></trkpt><trkpt lat="42.25917637753241" lon="8.71463521365962"><ele>64.0</ele><time>2026-05-01T17:01:43Z</time></trkpt><trkpt lat="42.259141569015476" lon="8.714429893820473"><ele>64.0</ele><time>2026-05-01T17:01:44Z</time></trkpt><trkpt lat="42.259110555273615" lon="8.714213108760434"><ele>64.5</ele><time>2026-05-01T17:01:45Z</time></trkpt><trkpt lat="42.25911055146136" lon="8.71399832178602"><ele>65.0</ele><time>2026-05-01T17:01:46Z</time></trkpt><trkpt lat="42.25912799419087" lon="8.713812502454674"><ele>65.5</ele><time>2026-05-01T17:01:47Z</time></trkpt><trkpt lat="42.25916853270868" lon="8.713633546487538"><ele>66.0</ele><time>2026-05-01T17:01:48Z</time></trkpt><trkpt lat="42.25921878673305" lon="8.71345971288146"><ele>67.5</ele><time>2026-05-01T17:01:49Z</time></trkpt><trkpt lat="42.259285016405485" lon="8.713298775361553"><ele>69.0</ele><time>2026-05-01T17:01:50Z</time></trkpt><trkpt lat="42.2593843281919" lon="8.713161585739702"><ele>70.5</ele><time>2026-05-01T17:01:51Z</time></trkpt><trkpt lat="42.25948947037806" lon="8.713022284758782"><ele>72.0</ele><time>2026-05-01T17:01:52Z</time></trkpt><trkpt lat="42.25961420946267" lon="8.712919924806508"><ele>72.0</ele><time>2026-05-01T17:01:53Z</time></trkpt><trkpt lat="42.25972772486473" lon="8.712807874571652"><ele>72.0</ele><time>2026-05-01T17:01:54Z</time></trkpt><trkpt lat="42.2598347391767" lon="8.712739370144325"><ele>72.0</ele><time>2026-05-01T17:01:55Z</time></trkpt><trkpt lat="42.25992578228293" lon="8.712665786280564"><ele>72.0</ele><time>2026-05-01T17:01:56Z</time></trkpt><trkpt lat="42.25999393394956" lon="8.712560352934558"><ele>67.83333333333333</ele><time>2026-05-01T17:01:57Z</time></trkpt><trkpt lat="42.26004498639376" lon="8.712447484951333"><ele>63.666666666666664</ele><time>2026-05-01T17:01:58Z</time></trkpt><trkpt lat="42.26007746134568" lon="8.7123543078086"><ele>59.5</ele><time>2026-05-01T17:01:59Z</time></trkpt><trkpt lat="42.26009964935498" lon="8.712231388708942"><ele>55.33333333333333</ele><time>2026-05-01T17:02:01Z</time></trkpt><trkpt lat="42.26011627921596" lon="8.71212298264679"><ele>51.166666666666664</ele><time>2026-05-01T17:02:04Z</time></trkpt><trkpt lat="42.26012049011733" lon="8.7120269103406"><ele>47.0</ele><time>2026-05-01T17:02:07.001Z</time></trkpt><trkpt lat="42.26012089552736" lon="8.711915914140349"><ele>49.0</ele><time>2026-05-01T17:02:10.001Z</time></trkpt><trkpt lat="42.260135165339534" lon="8.711794325534038"><ele>51.0</ele><time>2026-05-01T17:02:13.001Z</time></trkpt><trkpt lat="42.260164469295965" lon="8.711680077375709"><ele>53.0</ele><time>2026-05-01T17:02:16.001Z</time></trkpt><trkpt lat="42.260177481591235" lon="8.711590017484447"><ele>55.0</ele><time>2026-05-01T17:02:18.001Z</time></trkpt><trkpt lat="42.260209852348424" lon="8.711490106559973"><ele>57.00000000000001</ele><time>2026-05-01T17:02:20.001Z</time></trkpt><trkpt lat="42.26025560367271" lon="8.711356576978583"><ele>59.0</ele><time>2026-05-01T17:02:22.001Z</time></trkpt><trkpt lat="42.260287536311395" lon="8.711263735650114"><ele>59.0</ele><time>2026-05-01T17:02:23.001Z</time></trkpt><trkpt lat="42.26032811215" lon="8.711163333318252"><ele>59.00000000000001</ele><time>2026-05-01T17:02:24.001Z</time></trkpt><trkpt lat="42.26037996546033" lon="8.711043430395726"><ele>59.00000000000001</ele><time>2026-05-01T17:02:25.001Z</time></trkpt><trkpt lat="42.26044167108202" lon="8.710914491227603"><ele>59.0</ele><time>2026-05-01T17:02:26.001Z</time></trkpt><trkpt lat="42.26051422520739" lon="8.710770892876486"><ele>59.0</ele><time>2026-05-01T17:02:27.001Z</time></trkpt><trkpt lat="42.260600744018696" lon="8.710627660141355"><ele>57.333333333333336</ele><time>2026-05-01T17:02:28.001Z</time></trkpt><trkpt lat="42.260703605363005" lon="8.710490124459017"><ele>55.66666666666667</ele><time>2026-05-01T17:02:29.001Z</time></trkpt><trkpt lat="42.260809414738226" lon="8.710349151746927"><ele>54.0</ele><time>2026-05-01T17:02:30.001Z</time></trkpt><trkpt lat="42.260928470803876" lon="8.710203105171574"><ele>54.0</ele><time>2026-05-01T17:02:31.001Z</time></trkpt><trkpt lat="42.26105128382192" lon="8.710047910287184"><ele>54.0</ele><time>2026-05-01T17:02:32.001Z</time></trkpt><trkpt lat="42.26116283953837" lon="8.709891484839746"><ele>54.0</ele><time>2026-05-01T17:02:33.001Z</time></trkpt><trkpt lat="42.26125782220538" lon="8.709748151764135"><ele>54.0</ele><time>2026-05-01T17:02:34.001Z</time></trkpt><trkpt lat="42.261351170664945" lon="8.70961589390536"><ele>54.0</ele><time>2026-05-01T17:02:35.001Z</time></trkpt><trkpt lat="42.26144315171504" lon="8.70949995477276"><ele>54.0</ele><time>2026-05-01T17:02:36.002Z</time></trkpt><trkpt lat="42.26153151226512" lon="8.709404844116625"><ele>54.0</ele><time>2026-05-01T17:02:37.002Z</time></trkpt><trkpt lat="42.2616219266696" lon="8.709351919128085"><ele>50.400000000000006</ele><time>2026-05-01T17:02:38.002Z</time></trkpt><trkpt lat="42.2617104923692" lon="8.709299144520843"><ele>46.800000000000004</ele><time>2026-05-01T17:02:39.002Z</time></trkpt><trkpt lat="42.26176719525373" lon="8.709176809845236"><ele>43.2</ele><time>2026-05-01T17:02:40.002Z</time></trkpt><trkpt lat="42.261860781221614" lon="8.709096390668536"><ele>39.6</ele><time>2026-05-01T17:02:41.002Z</time></trkpt><trkpt lat="42.26196507465169" lon="8.709004234114847"><ele>36.0</ele><time>2026-05-01T17:02:42.002Z</time></trkpt><trkpt lat="42.262072332801516" lon="8.708944131748185"><ele>36.0</ele><time>2026-05-01T17:02:43.002Z</time></trkpt><trkpt lat="42.262165072444745" lon="8.708915305220277"><ele>36.0</ele><time>2026-05-01T17:02:44.002Z</time></trkpt><trkpt lat="42.26224022541095" lon="8.708978512300055"><ele>36.0</ele><time>2026-05-01T17:02:49.002Z</time></trkpt><trkpt lat="42.26232325507935" lon="8.708953325306512"><ele>36.0</ele><time>2026-05-01T17:02:52.002Z</time></trkpt><trkpt lat="42.262385037996474" lon="8.708879679934352"><ele>36.0</ele><time>2026-05-01T17:02:55.002Z</time></trkpt><trkpt lat="42.2623372850355" lon="8.708817985796099"><ele>36.0</ele><time>2026-05-01T17:02:58.002Z</time></trkpt><trkpt lat="42.26230379570605" lon="8.708902478524584"><ele>26.0</ele><time>2026-05-01T17:03:02.002Z</time></trkpt></trkseg></trk></gpx>